<?xml version='1.0' encoding='UTF-8'?><gpx version="1.1" creator="JPX - https://github.com/jenetics/jpx" xmlns="http://www.topografix.com/GPX/1/1"><trk><trkseg><trkpt lat="39.2814238" lon="9.3294911"><ele>114.66666666666667</ele><time>2026-04-18T13:02:05.3Z</time></trkpt><trkpt lat="39.2815381" lon="9.3297303"><ele>114.33333333333334</ele><time>2026-04-18T13:02:06.302Z</time></trkpt><trkpt lat="39.2816539" lon="9.3299696"><ele>114.0</ele><time>2026-04-18T13:02:07.301Z</time></trkpt><trkpt lat="39.2817687" lon="9.3302081"><ele>114.0</ele><time>2026-04-18T13:02:08.302Z</time></trkpt><trkpt lat="39.2818843" lon="9.3304539"><ele>114.0</ele><time>2026-04-18T13:02:09.302Z</time></trkpt><trkpt lat="39.2820058" lon="9.330698"><ele>114.0</ele><time>2026-04-18T13:02:10.301Z</time></trkpt><trkpt lat="39.282127" lon="9.3309585"><ele>114.0</ele><time>2026-04-18T13:02:11.3Z</time></trkpt><trkpt lat="39.2822623" lon="9.3312339"><ele>114.0</ele><time>2026-04-18T13:02:12.3Z</time></trkpt><trkpt lat="39.2824055" lon="9.3315221"><ele>114.0</ele><time>2026-04-18T13:02:13.3Z</time></trkpt><trkpt lat="39.2825422" lon="9.3318004"><ele>114.0</ele><time>2026-04-18T13:02:14.3Z</time></trkpt><trkpt lat="39.2826697" lon="9.3320691"><ele>116.0</ele><time>2026-04-18T13:02:15.301Z</time></trkpt><trkpt lat="39.2827917" lon="9.3323178"><ele>118.0</ele><time>2026-04-18T13:02:16.301Z</time></trkpt><trkpt lat="39.2829138" lon="9.3325712"><ele>118.0</ele><time>2026-04-18T13:02:17.3Z</time></trkpt><trkpt lat="39.2830202" lon="9.3328234"><ele>118.0</ele><time>2026-04-18T13:02:18.3Z</time></trkpt><trkpt lat="39.2831145" lon="9.3331065"><ele>118.0</ele><time>2026-04-18T13:02:19.301Z</time></trkpt><trkpt lat="39.2832019" lon="9.3334168"><ele>118.0</ele><time>2026-04-18T13:02:20.301Z</time></trkpt><trkpt lat="39.2832889" lon="9.3337305"><ele>120.0</ele><time>2026-04-18T13:02:21.301Z</time></trkpt><trkpt lat="39.2833521" lon="9.3340416"><ele>122.0</ele><time>2026-04-18T13:02:22.301Z</time></trkpt><trkpt lat="39.2834261" lon="9.3343405"><ele>122.0</ele><time>2026-04-18T13:02:23.301Z</time></trkpt><trkpt lat="39.2834921" lon="9.3346246"><ele>122.0</ele><time>2026-04-18T13:02:24.301Z</time></trkpt><trkpt lat="39.283555" lon="9.3348932"><ele>122.0</ele><time>2026-04-18T13:02:25.3Z</time></trkpt><trkpt lat="39.2836126" lon="9.3351509"><ele>126.33333333333333</ele><time>2026-04-18T13:02:26.3Z</time></trkpt><trkpt lat="39.2836781" lon="9.3354116"><ele>130.66666666666666</ele><time>2026-04-18T13:02:27.301Z</time></trkpt><trkpt lat="39.2837745" lon="9.3356636"><ele>135.0</ele><time>2026-04-18T13:02:28.301Z</time></trkpt><trkpt lat="39.2838602" lon="9.3359212"><ele>131.5</ele><time>2026-04-18T13:02:29.301Z</time></trkpt><trkpt lat="39.2839742" lon="9.336166"><ele>128.0</ele><time>2026-04-18T13:02:30.301Z</time></trkpt><trkpt lat="39.2841856" lon="9.3364356"><ele>128.0</ele><time>2026-04-18T13:02:31.301Z</time></trkpt><trkpt lat="39.284348" lon="9.3366934"><ele>128.0</ele><time>2026-04-18T13:02:32.301Z</time></trkpt><trkpt lat="39.2845092" lon="9.3369425"><ele>128.0</ele><time>2026-04-18T13:02:33.301Z</time></trkpt><trkpt lat="39.2846657" lon="9.3371906"><ele>128.0</ele><time>2026-04-18T13:02:34.301Z</time></trkpt><trkpt lat="39.2848228" lon="9.3374437"><ele>126.5</ele><time>2026-04-18T13:02:35.301Z</time></trkpt><trkpt lat="39.284983" lon="9.3376915"><ele>125.0</ele><time>2026-04-18T13:02:36.301Z</time></trkpt><trkpt lat="39.2851362" lon="9.3379214"><ele>128.66666666666666</ele><time>2026-04-18T13:02:37.302Z</time></trkpt><trkpt lat="39.2852789" lon="9.3381658"><ele>132.33333333333334</ele><time>2026-04-18T13:02:38.301Z</time></trkpt><trkpt lat="39.2854107" lon="9.3383746"><ele>136.0</ele><time>2026-04-18T13:02:39.301Z</time></trkpt><trkpt lat="39.2855468" lon="9.3385838"><ele>134.66666666666669</ele><time>2026-04-18T13:02:40.302Z</time></trkpt><trkpt lat="39.285682" lon="9.338793"><ele>133.33333333333334</ele><time>2026-04-18T13:02:41.302Z</time></trkpt><trkpt lat="39.2858153" lon="9.339001"><ele>132.0</ele><time>2026-04-18T13:02:42.301Z</time></trkpt><trkpt lat="39.2859479" lon="9.3392104"><ele>132.0</ele><time>2026-04-18T13:02:43.3Z</time></trkpt><trkpt lat="39.2860767" lon="9.339423"><ele>132.0</ele><time>2026-04-18T13:02:44.301Z</time></trkpt><trkpt lat="39.2862058" lon="9.3396458"><ele>132.0</ele><time>2026-04-18T13:02:45.3Z</time></trkpt><trkpt lat="39.2863098" lon="9.339904"><ele>132.0</ele><time>2026-04-18T13:02:46.301Z</time></trkpt><trkpt lat="39.2864204" lon="9.3401541"><ele>132.0</ele><time>2026-04-18T13:02:47.302Z</time></trkpt><trkpt lat="39.2865218" lon="9.3404095"><ele>132.0</ele><time>2026-04-18T13:02:48.301Z</time></trkpt><trkpt lat="39.2866238" lon="9.3406631"><ele>132.0</ele><time>2026-04-18T13:02:49.301Z</time></trkpt><trkpt lat="39.2867285" lon="9.3409293"><ele>132.0</ele><time>2026-04-18T13:02:50.301Z</time></trkpt><trkpt lat="39.2868363" lon="9.3411863"><ele>132.33333333333334</ele><time>2026-04-18T13:02:51.302Z</time></trkpt><trkpt lat="39.286933" lon="9.341441"><ele>132.66666666666669</ele><time>2026-04-18T13:02:52.301Z</time></trkpt><trkpt lat="39.2870343" lon="9.3416881"><ele>133.0</ele><time>2026-04-18T13:02:53.302Z</time></trkpt><trkpt lat="39.2871324" lon="9.3419499"><ele>133.0</ele><time>2026-04-18T13:02:54.301Z</time></trkpt><trkpt lat="39.2872342" lon="9.3421998"><ele>133.0</ele><time>2026-04-18T13:02:55.301Z</time></trkpt><trkpt lat="39.2873287" lon="9.3424465"><ele>133.0</ele><time>2026-04-18T13:02:56.302Z</time></trkpt><trkpt lat="39.2874286" lon="9.3426856"><ele>133.66666666666669</ele><time>2026-04-18T13:02:57.302Z</time></trkpt><trkpt lat="39.2875328" lon="9.3429167"><ele>134.33333333333334</ele><time>2026-04-18T13:02:58.301Z</time></trkpt><trkpt lat="39.2876377" lon="9.343143"><ele>135.0</ele><time>2026-04-18T13:02:59.302Z</time></trkpt><trkpt lat="39.2877597" lon="9.3433687"><ele>137.33333333333334</ele><time>2026-04-18T13:03:00.301Z</time></trkpt><trkpt lat="39.287885" lon="9.3435888"><ele>139.66666666666669</ele><time>2026-04-18T13:03:01.301Z</time></trkpt><trkpt lat="39.2880055" lon="9.3438052"><ele>142.0</ele><time>2026-04-18T13:03:02.301Z</time></trkpt><trkpt lat="39.2881256" lon="9.3440149"><ele>142.33333333333334</ele><time>2026-04-18T13:03:03.301Z</time></trkpt><trkpt lat="39.2882422" lon="9.3442322"><ele>142.66666666666666</ele><time>2026-04-18T13:03:04.301Z</time></trkpt><trkpt lat="39.2883633" lon="9.3444777"><ele>143.0</ele><time>2026-04-18T13:03:05.302Z</time></trkpt><trkpt lat="39.2884831" lon="9.3447235"><ele>145.0</ele><time>2026-04-18T13:03:06.301Z</time></trkpt><trkpt lat="39.2886219" lon="9.3449684"><ele>147.0</ele><time>2026-04-18T13:03:07.301Z</time></trkpt><trkpt lat="39.2887661" lon="9.345198"><ele>147.0</ele><time>2026-04-18T13:03:08.301Z</time></trkpt><trkpt lat="39.2889146" lon="9.3454098"><ele>147.0</ele><time>2026-04-18T13:03:09.301Z</time></trkpt><trkpt lat="39.289058" lon="9.3456297"><ele>147.0</ele><time>2026-04-18T13:03:10.301Z</time></trkpt><trkpt lat="39.289189" lon="9.3458365"><ele>147.66666666666666</ele><time>2026-04-18T13:03:11.301Z</time></trkpt><trkpt lat="39.2893152" lon="9.3460581"><ele>148.33333333333331</ele><time>2026-04-18T13:03:12.301Z</time></trkpt><trkpt lat="39.2894322" lon="9.3463001"><ele>149.0</ele><time>2026-04-18T13:03:13.301Z</time></trkpt><trkpt lat="39.2895375" lon="9.3465463"><ele>150.66666666666666</ele><time>2026-04-18T13:03:14.301Z</time></trkpt><trkpt lat="39.2896322" lon="9.3467882"><ele>152.33333333333334</ele><time>2026-04-18T13:03:15.301Z</time></trkpt><trkpt lat="39.2897242" lon="9.3470316"><ele>154.0</ele><time>2026-04-18T13:03:16.302Z</time></trkpt><trkpt lat="39.289813" lon="9.3472773"><ele>154.0</ele><time>2026-04-18T13:03:17.3Z</time></trkpt><trkpt lat="39.2898913" lon="9.3475274"><ele>154.0</ele><time>2026-04-18T13:03:18.301Z</time></trkpt><trkpt lat="39.2899572" lon="9.3477691"><ele>154.0</ele><time>2026-04-18T13:03:19.301Z</time></trkpt><trkpt lat="39.2900097" lon="9.348016"><ele>155.0</ele><time>2026-04-18T13:03:20.301Z</time></trkpt><trkpt lat="39.2900625" lon="9.3482586"><ele>156.0</ele><time>2026-04-18T13:03:21.302Z</time></trkpt><trkpt lat="39.2901042" lon="9.3484967"><ele>157.0</ele><time>2026-04-18T13:03:22.301Z</time></trkpt><trkpt lat="39.2901369" lon="9.3487215"><ele>159.33333333333334</ele><time>2026-04-18T13:03:23.301Z</time></trkpt><trkpt lat="39.2901654" lon="9.3489303"><ele>161.66666666666666</ele><time>2026-04-18T13:03:24.302Z</time></trkpt><trkpt lat="39.2902151" lon="9.3491174"><ele>164.0</ele><time>2026-04-18T13:03:25.301Z</time></trkpt><trkpt lat="39.2902775" lon="9.3492914"><ele>164.0</ele><time>2026-04-18T13:03:26.302Z</time></trkpt><trkpt lat="39.2903617" lon="9.3494573"><ele>164.0</ele><time>2026-04-18T13:03:27.302Z</time></trkpt><trkpt lat="39.2905106" lon="9.3496407"><ele>164.0</ele><time>2026-04-18T13:03:28.301Z</time></trkpt><trkpt lat="39.2907464" lon="9.3497407"><ele>161.66666666666666</ele><time>2026-04-18T13:03:29.301Z</time></trkpt><trkpt lat="39.2909032" lon="9.3498661"><ele>159.33333333333334</ele><time>2026-04-18T13:03:30.3Z</time></trkpt><trkpt lat="39.2910356" lon="9.3499842"><ele>157.0</ele><time>2026-04-18T13:03:31.3Z</time></trkpt><trkpt lat="39.2911444" lon="9.3501172"><ele>157.0</ele><time>2026-04-18T13:03:32.3Z</time></trkpt><trkpt lat="39.29122" lon="9.3502927"><ele>157.0</ele><time>2026-04-18T13:03:33.301Z</time></trkpt><trkpt lat="39.2912642" lon="9.3504912"><ele>157.0</ele><time>2026-04-18T13:03:34.302Z</time></trkpt><trkpt lat="39.291322" lon="9.350691"><ele>158.33333333333334</ele><time>2026-04-18T13:03:35.301Z</time></trkpt><trkpt lat="39.2914162" lon="9.3509021"><ele>159.66666666666666</ele><time>2026-04-18T13:03:36.3Z</time></trkpt><trkpt lat="39.2915192" lon="9.3511085"><ele>161.0</ele><time>2026-04-18T13:03:37.301Z</time></trkpt><trkpt lat="39.2916697" lon="9.3513046"><ele>161.66666666666666</ele><time>2026-04-18T13:03:38.301Z</time></trkpt><trkpt lat="39.2917949" lon="9.3515114"><ele>162.33333333333334</ele><time>2026-04-18T13:03:39.301Z</time></trkpt><trkpt lat="39.2919273" lon="9.351733"><ele>163.0</ele><time>2026-04-18T13:03:40.301Z</time></trkpt><trkpt lat="39.2920377" lon="9.351969"><ele>163.0</ele><time>2026-04-18T13:03:41.3Z</time></trkpt><trkpt lat="39.2921387" lon="9.3522067"><ele>163.0</ele><time>2026-04-18T13:03:42.301Z</time></trkpt><trkpt lat="39.2922414" lon="9.3524361"><ele>163.0</ele><time>2026-04-18T13:03:43.3Z</time></trkpt><trkpt lat="39.2923365" lon="9.3526561"><ele>163.33333333333334</ele><time>2026-04-18T13:03:44.301Z</time></trkpt><trkpt lat="39.2924301" lon="9.3528766"><ele>163.66666666666666</ele><time>2026-04-18T13:03:45.301Z</time></trkpt><trkpt lat="39.2925281" lon="9.3530946"><ele>164.0</ele><time>2026-04-18T13:03:46.3Z</time></trkpt><trkpt lat="39.2926263" lon="9.3533203"><ele>164.0</ele><time>2026-04-18T13:03:47.3Z</time></trkpt><trkpt lat="39.2927346" lon="9.3535536"><ele>164.0</ele><time>2026-04-18T13:03:48.301Z</time></trkpt><trkpt lat="39.2928522" lon="9.3537903"><ele>164.0</ele><time>2026-04-18T13:03:49.302Z</time></trkpt><trkpt lat="39.2929731" lon="9.3540266"><ele>168.0</ele><time>2026-04-18T13:03:50.301Z</time></trkpt><trkpt lat="39.2931021" lon="9.3542712"><ele>172.0</ele><time>2026-04-18T13:03:51.301Z</time></trkpt><trkpt lat="39.2932485" lon="9.3545181"><ele>173.0</ele><time>2026-04-18T13:03:52.301Z</time></trkpt><trkpt lat="39.2933852" lon="9.3547642"><ele>174.0</ele><time>2026-04-18T13:03:53.301Z</time></trkpt><trkpt lat="39.2935178" lon="9.3549951"><ele>174.0</ele><time>2026-04-18T13:03:54.302Z</time></trkpt><trkpt lat="39.2936372" lon="9.3552142"><ele>174.0</ele><time>2026-04-18T13:03:55.301Z</time></trkpt><trkpt lat="39.2937629" lon="9.3554322"><ele>174.0</ele><time>2026-04-18T13:03:56.301Z</time></trkpt><trkpt lat="39.2938996" lon="9.3556419"><ele>176.33333333333334</ele><time>2026-04-18T13:03:57.301Z</time></trkpt><trkpt lat="39.2940557" lon="9.3558405"><ele>178.66666666666669</ele><time>2026-04-18T13:03:58.301Z</time></trkpt><trkpt lat="39.2942228" lon="9.3560282"><ele>181.0</ele><time>2026-04-18T13:03:59.301Z</time></trkpt><trkpt lat="39.2943895" lon="9.3561963"><ele>181.0</ele><time>2026-04-18T13:04:00.301Z</time></trkpt><trkpt lat="39.2945481" lon="9.3563499"><ele>181.0</ele><time>2026-04-18T13:04:01.3Z</time></trkpt><trkpt lat="39.2947026" lon="9.3565062"><ele>181.0</ele><time>2026-04-18T13:04:02.3Z</time></trkpt><trkpt lat="39.2948608" lon="9.3566742"><ele>180.66666666666669</ele><time>2026-04-18T13:04:03.301Z</time></trkpt><trkpt lat="39.295004" lon="9.3568798"><ele>180.33333333333334</ele><time>2026-04-18T13:04:04.301Z</time></trkpt><trkpt lat="39.2951389" lon="9.3570887"><ele>180.0</ele><time>2026-04-18T13:04:05.301Z</time></trkpt><trkpt lat="39.2952647" lon="9.357317"><ele>179.66666666666666</ele><time>2026-04-18T13:04:06.301Z</time></trkpt><trkpt lat="39.2953739" lon="9.3575609"><ele>179.33333333333331</ele><time>2026-04-18T13:04:07.301Z</time></trkpt><trkpt lat="39.2954628" lon="9.3578195"><ele>179.0</ele><time>2026-04-18T13:04:08.301Z</time></trkpt><trkpt lat="39.2955301" lon="9.3580833"><ele>181.33333333333331</ele><time>2026-04-18T13:04:09.301Z</time></trkpt><trkpt lat="39.2956006" lon="9.3583296"><ele>183.66666666666666</ele><time>2026-04-18T13:04:10.301Z</time></trkpt><trkpt lat="39.2956756" lon="9.3585683"><ele>186.0</ele><time>2026-04-18T13:04:11.3Z</time></trkpt><trkpt lat="39.2957717" lon="9.3588073"><ele>186.0</ele><time>2026-04-18T13:04:12.3Z</time></trkpt><trkpt lat="39.2959011" lon="9.3590417"><ele>186.0</ele><time>2026-04-18T13:04:13.301Z</time></trkpt><trkpt lat="39.296047" lon="9.3592793"><ele>186.0</ele><time>2026-04-18T13:04:14.302Z</time></trkpt><trkpt lat="39.2961871" lon="9.3595106"><ele>186.0</ele><time>2026-04-18T13:04:15.3Z</time></trkpt><trkpt lat="39.2963319" lon="9.3597314"><ele>189.33333333333331</ele><time>2026-04-18T13:04:16.3Z</time></trkpt><trkpt lat="39.296482" lon="9.3599371"><ele>192.66666666666666</ele><time>2026-04-18T13:04:17.301Z</time></trkpt><trkpt lat="39.296639" lon="9.3601312"><ele>196.0</ele><time>2026-04-18T13:04:18.301Z</time></trkpt><trkpt lat="39.2967955" lon="9.3603189"><ele>196.0</ele><time>2026-04-18T13:04:19.302Z</time></trkpt><trkpt lat="39.2969549" lon="9.3605039"><ele>196.0</ele><time>2026-04-18T13:04:20.301Z</time></trkpt><trkpt lat="39.2971124" lon="9.360678"><ele>196.0</ele><time>2026-04-18T13:04:21.302Z</time></trkpt><trkpt lat="39.2972617" lon="9.3608471"><ele>197.33333333333331</ele><time>2026-04-18T13:04:22.301Z</time></trkpt><trkpt lat="39.2974059" lon="9.3610003"><ele>198.66666666666669</ele><time>2026-04-18T13:04:23.301Z</time></trkpt><trkpt lat="39.2975531" lon="9.3611338"><ele>200.0</ele><time>2026-04-18T13:04:24.301Z</time></trkpt><trkpt lat="39.2977057" lon="9.3612186"><ele>200.0</ele><time>2026-04-18T13:04:25.301Z</time></trkpt><trkpt lat="39.2978529" lon="9.36129"><ele>200.0</ele><time>2026-04-18T13:04:26.302Z</time></trkpt><trkpt lat="39.2979738" lon="9.3613822"><ele>200.0</ele><time>2026-04-18T13:04:27.301Z</time></trkpt><trkpt lat="39.2980932" lon="9.3615092"><ele>201.33333333333334</ele><time>2026-04-18T13:04:28.3Z</time></trkpt><trkpt lat="39.2982092" lon="9.3616539"><ele>202.66666666666669</ele><time>2026-04-18T13:04:29.3Z</time></trkpt><trkpt lat="39.2981831" lon="9.361904"><ele>204.0</ele><time>2026-04-18T13:04:30.3Z</time></trkpt><trkpt lat="39.2982282" lon="9.3620877"><ele>204.66666666666669</ele><time>2026-04-18T13:04:31.3Z</time></trkpt><trkpt lat="39.2982881" lon="9.3622693"><ele>205.33333333333334</ele><time>2026-04-18T13:04:32.301Z</time></trkpt><trkpt lat="39.2983823" lon="9.3624344"><ele>206.0</ele><time>2026-04-18T13:04:33.3Z</time></trkpt><trkpt lat="39.2984967" lon="9.3625948"><ele>206.0</ele><time>2026-04-18T13:04:34.3Z</time></trkpt><trkpt lat="39.2985961" lon="9.3627788"><ele>206.0</ele><time>2026-04-18T13:04:35.299Z</time></trkpt><trkpt lat="39.2986871" lon="9.362975"><ele>206.0</ele><time>2026-04-18T13:04:36.299Z</time></trkpt><trkpt lat="39.2987674" lon="9.3631631"><ele>206.25</ele><time>2026-04-18T13:04:37.3Z</time></trkpt><trkpt lat="39.2988435" lon="9.3633443"><ele>206.5</ele><time>2026-04-18T13:04:38.3Z</time></trkpt><trkpt lat="39.2989019" lon="9.3635158"><ele>206.75</ele><time>2026-04-18T13:04:39.3Z</time></trkpt><trkpt lat="39.2989291" lon="9.3636786"><ele>207.0</ele><time>2026-04-18T13:04:40.301Z</time></trkpt><trkpt lat="39.2989175" lon="9.3638291"><ele>206.6</ele><time>2026-04-18T13:04:41.3Z</time></trkpt><trkpt lat="39.2988887" lon="9.3639615"><ele>206.2</ele><time>2026-04-18T13:04:42.3Z</time></trkpt><trkpt lat="39.2988677" lon="9.3640967"><ele>205.8</ele><time>2026-04-18T13:04:43.3Z</time></trkpt><trkpt lat="39.2988832" lon="9.3642344"><ele>205.4</ele><time>2026-04-18T13:04:44.3Z</time></trkpt><trkpt lat="39.2989445" lon="9.3643527"><ele>205.0</ele><time>2026-04-18T13:04:45.3Z</time></trkpt><trkpt lat="39.299039" lon="9.3644358"><ele>207.75</ele><time>2026-04-18T13:04:46.3Z</time></trkpt><trkpt lat="39.2991471" lon="9.3644846"><ele>210.5</ele><time>2026-04-18T13:04:47.3Z</time></trkpt><trkpt lat="39.299258" lon="9.364525"><ele>213.25</ele><time>2026-04-18T13:04:48.299Z</time></trkpt><trkpt lat="39.2993736" lon="9.3644645"><ele>216.0</ele><time>2026-04-18T13:04:49.3Z</time></trkpt><trkpt lat="39.2994905" lon="9.3644435"><ele>216.0</ele><time>2026-04-18T13:04:50.3Z</time></trkpt><trkpt lat="39.2995892" lon="9.3643606"><ele>216.0</ele><time>2026-04-18T13:04:51.3Z</time></trkpt><trkpt lat="39.2997158" lon="9.3643231"><ele>216.0</ele><time>2026-04-18T13:04:52.3Z</time></trkpt><trkpt lat="39.2998348" lon="9.3643135"><ele>216.0</ele><time>2026-04-18T13:04:53.3Z</time></trkpt><trkpt lat="39.2999681" lon="9.3643374"><ele>218.0</ele><time>2026-04-18T13:04:54.301Z</time></trkpt><trkpt lat="39.3000777" lon="9.3643675"><ele>220.00000000000003</ele><time>2026-04-18T13:04:55.301Z</time></trkpt><trkpt lat="39.3001804" lon="9.3644152"><ele>222.00000000000003</ele><time>2026-04-18T13:04:56.3Z</time></trkpt><trkpt lat="39.3002346" lon="9.3645261"><ele>224.0</ele><time>2026-04-18T13:04:57.3Z</time></trkpt><trkpt lat="39.3002757" lon="9.3646356"><ele>226.0</ele><time>2026-04-18T13:04:58.3Z</time></trkpt><trkpt lat="39.3002736" lon="9.3647626"><ele>226.0</ele><time>2026-04-18T13:04:59.3Z</time></trkpt><trkpt lat="39.3002552" lon="9.3649105"><ele>226.0</ele><time>2026-04-18T13:05:00.3Z</time></trkpt><trkpt lat="39.3002331" lon="9.3650822"><ele>226.0</ele><time>2026-04-18T13:05:01.3Z</time></trkpt><trkpt lat="39.3002064" lon="9.3652859"><ele>226.0</ele><time>2026-04-18T13:05:02.3Z</time></trkpt><trkpt lat="39.3001718" lon="9.3655171"><ele>227.0</ele><time>2026-04-18T13:05:03.299Z</time></trkpt><trkpt lat="39.300123" lon="9.3657776"><ele>228.0</ele><time>2026-04-18T13:05:04.301Z</time></trkpt><trkpt lat="39.3000716" lon="9.3660623"><ele>229.0</ele><time>2026-04-18T13:05:05.299Z</time></trkpt><trkpt lat="39.30001" lon="9.3663344"><ele>231.33333333333331</ele><time>2026-04-18T13:05:06.3Z</time></trkpt><trkpt lat="39.2999627" lon="9.3665851"><ele>233.66666666666669</ele><time>2026-04-18T13:05:07.299Z</time></trkpt><trkpt lat="39.2999293" lon="9.3668124"><ele>236.0</ele><time>2026-04-18T13:05:08.299Z</time></trkpt><trkpt lat="39.2999184" lon="9.3670328"><ele>238.66666666666669</ele><time>2026-04-18T13:05:09.299Z</time></trkpt><trkpt lat="39.2999287" lon="9.3672519"><ele>241.33333333333331</ele><time>2026-04-18T13:05:10.3Z</time></trkpt><trkpt lat="39.299968" lon="9.3674579"><ele>244.0</ele><time>2026-04-18T13:05:11.3Z</time></trkpt><trkpt lat="39.3000337" lon="9.3676583"><ele>244.0</ele><time>2026-04-18T13:05:12.3Z</time></trkpt><trkpt lat="39.3001179" lon="9.3678362"><ele>244.0</ele><time>2026-04-18T13:05:13.3Z</time></trkpt><trkpt lat="39.3002189" lon="9.3679821"><ele>244.0</ele><time>2026-04-18T13:05:14.3Z</time></trkpt><trkpt lat="39.3003519" lon="9.3681079"><ele>246.33333333333331</ele><time>2026-04-18T13:05:15.3Z</time></trkpt><trkpt lat="39.3005084" lon="9.3681573"><ele>248.66666666666669</ele><time>2026-04-18T13:05:16.3Z</time></trkpt><trkpt lat="39.3006996" lon="9.3681936"><ele>251.0</ele><time>2026-04-18T13:05:17.301Z</time></trkpt><trkpt lat="39.3008635" lon="9.3682118"><ele>251.0</ele><time>2026-04-18T13:05:18.3Z</time></trkpt><trkpt lat="39.3010097" lon="9.3682231"><ele>251.0</ele><time>2026-04-18T13:05:19.3Z</time></trkpt><trkpt lat="39.3011337" lon="9.3682289"><ele>251.0</ele><time>2026-04-18T13:05:20.3Z</time></trkpt><trkpt lat="39.3012391" lon="9.3682572"><ele>251.0</ele><time>2026-04-18T13:05:21.3Z</time></trkpt><trkpt lat="39.3013201" lon="9.3683384"><ele>251.0</ele><time>2026-04-18T13:05:22.3Z</time></trkpt><trkpt lat="39.3013578" lon="9.3684772"><ele>251.0</ele><time>2026-04-18T13:05:23.3Z</time></trkpt><trkpt lat="39.3013529" lon="9.3686386"><ele>251.0</ele><time>2026-04-18T13:05:24.3Z</time></trkpt><trkpt lat="39.3013117" lon="9.3688184"><ele>251.0</ele><time>2026-04-18T13:05:25.3Z</time></trkpt><trkpt lat="39.301251" lon="9.3690234"><ele>248.66666666666669</ele><time>2026-04-18T13:05:26.3Z</time></trkpt><trkpt lat="39.3011826" lon="9.3692376"><ele>246.33333333333331</ele><time>2026-04-18T13:05:27.301Z</time></trkpt><trkpt lat="39.3011127" lon="9.3694488"><ele>244.0</ele><time>2026-04-18T13:05:28.3Z</time></trkpt><trkpt lat="39.3010436" lon="9.36966"><ele>247.66666666666666</ele><time>2026-04-18T13:05:29.3Z</time></trkpt><trkpt lat="39.3009774" lon="9.3698667"><ele>251.33333333333331</ele><time>2026-04-18T13:05:30.3Z</time></trkpt><trkpt lat="39.3009088" lon="9.3700587"><ele>255.0</ele><time>2026-04-18T13:05:31.3Z</time></trkpt><trkpt lat="39.3008509" lon="9.3702378"><ele>255.0</ele><time>2026-04-18T13:05:32.3Z</time></trkpt><trkpt lat="39.3008202" lon="9.3704008"><ele>255.0</ele><time>2026-04-18T13:05:33.3Z</time></trkpt><trkpt lat="39.3008328" lon="9.3705509"><ele>255.0</ele><time>2026-04-18T13:05:34.3Z</time></trkpt><trkpt lat="39.3008654" lon="9.3706879"><ele>255.0</ele><time>2026-04-18T13:05:35.299Z</time></trkpt><trkpt lat="39.3009028" lon="9.3707946"><ele>255.0</ele><time>2026-04-18T13:05:36.3Z</time></trkpt><trkpt lat="39.3010318" lon="9.3709294"><ele>256.6666666666667</ele><time>2026-04-18T13:05:37.301Z</time></trkpt><trkpt lat="39.3010736" lon="9.3711046"><ele>258.33333333333337</ele><time>2026-04-18T13:05:38.299Z</time></trkpt><trkpt lat="39.3011139" lon="9.3712929"><ele>260.0</ele><time>2026-04-18T13:05:39.301Z</time></trkpt><trkpt lat="39.301125" lon="9.3715171"><ele>260.33333333333337</ele><time>2026-04-18T13:05:40.3Z</time></trkpt><trkpt lat="39.3011356" lon="9.3717256"><ele>260.6666666666667</ele><time>2026-04-18T13:05:41.299Z</time></trkpt><trkpt lat="39.3011125" lon="9.3719324"><ele>261.0</ele><time>2026-04-18T13:05:42.299Z</time></trkpt><trkpt lat="39.3010573" lon="9.3721366"><ele>263.6666666666667</ele><time>2026-04-18T13:05:43.3Z</time></trkpt><trkpt lat="39.3009908" lon="9.3723461"><ele>266.33333333333337</ele><time>2026-04-18T13:05:44.3Z</time></trkpt><trkpt lat="39.3009217" lon="9.3725705"><ele>269.0</ele><time>2026-04-18T13:05:45.3Z</time></trkpt><trkpt lat="39.3008634" lon="9.3727946"><ele>269.0</ele><time>2026-04-18T13:05:46.3Z</time></trkpt><trkpt lat="39.3008128" lon="9.3729995"><ele>269.0</ele><time>2026-04-18T13:05:47.301Z</time></trkpt><trkpt lat="39.3007725" lon="9.3731966"><ele>269.0</ele><time>2026-04-18T13:05:48.301Z</time></trkpt><trkpt lat="39.3007605" lon="9.3734085"><ele>271.0</ele><time>2026-04-18T13:05:49.299Z</time></trkpt><trkpt lat="39.3007724" lon="9.3736251"><ele>273.0</ele><time>2026-04-18T13:05:50.299Z</time></trkpt><trkpt lat="39.300792" lon="9.3738369"><ele>275.0</ele><time>2026-04-18T13:05:51.3Z</time></trkpt><trkpt lat="39.3008295" lon="9.3740509"><ele>275.6666666666667</ele><time>2026-04-18T13:05:52.3Z</time></trkpt><trkpt lat="39.3008924" lon="9.3742601"><ele>276.3333333333333</ele><time>2026-04-18T13:05:53.3Z</time></trkpt><trkpt lat="39.300969" lon="9.3744665"><ele>277.0</ele><time>2026-04-18T13:05:54.3Z</time></trkpt><trkpt lat="39.3010417" lon="9.3746616"><ele>275.0</ele><time>2026-04-18T13:05:55.3Z</time></trkpt><trkpt lat="39.301113" lon="9.3748453"><ele>273.0</ele><time>2026-04-18T13:05:56.3Z</time></trkpt><trkpt lat="39.3011765" lon="9.3750106"><ele>271.0</ele><time>2026-04-18T13:05:57.3Z</time></trkpt><trkpt lat="39.3012542" lon="9.375147"><ele>269.0</ele><time>2026-04-18T13:05:58.299Z</time></trkpt><trkpt lat="39.3013527" lon="9.3752482"><ele>279.0</ele><time>2026-04-18T13:05:59.299Z</time></trkpt><trkpt lat="39.3014702" lon="9.3753043"><ele>289.0</ele><time>2026-04-18T13:06:00.301Z</time></trkpt><trkpt lat="39.3016025" lon="9.3753491"><ele>299.0</ele><time>2026-04-18T13:06:01.301Z</time></trkpt><trkpt lat="39.301784" lon="9.3753347"><ele>309.0</ele><time>2026-04-18T13:06:02.3Z</time></trkpt><trkpt lat="39.3019601" lon="9.3753335"><ele>309.0</ele><time>2026-04-18T13:06:03.3Z</time></trkpt><trkpt lat="39.3021162" lon="9.3753417"><ele>309.0</ele><time>2026-04-18T13:06:04.3Z</time></trkpt><trkpt lat="39.302249" lon="9.3753477"><ele>309.0</ele><time>2026-04-18T13:06:05.3Z</time></trkpt><trkpt lat="39.3023865" lon="9.3753851"><ele>309.0</ele><time>2026-04-18T13:06:06.3Z</time></trkpt><trkpt lat="39.3025098" lon="9.3754403"><ele>308.0</ele><time>2026-04-18T13:06:07.3Z</time></trkpt><trkpt lat="39.3026194" lon="9.3755046"><ele>307.0</ele><time>2026-04-18T13:06:08.301Z</time></trkpt><trkpt lat="39.3026863" lon="9.3755964"><ele>306.0</ele><time>2026-04-18T13:06:09.3Z</time></trkpt><trkpt lat="39.3027221" lon="9.3757138"><ele>305.0</ele><time>2026-04-18T13:06:10.3Z</time></trkpt><trkpt lat="39.3027092" lon="9.3758447"><ele>304.0</ele><time>2026-04-18T13:06:11.3Z</time></trkpt><trkpt lat="39.3026556" lon="9.3759542"><ele>304.0</ele><time>2026-04-18T13:06:12.3Z</time></trkpt><trkpt lat="39.3025948" lon="9.3760524"><ele>304.0</ele><time>2026-04-18T13:06:13.3Z</time></trkpt><trkpt lat="39.302559" lon="9.376156"><ele>304.0</ele><time>2026-04-18T13:06:14.3Z</time></trkpt><trkpt lat="39.3025187" lon="9.3762706"><ele>304.0</ele><time>2026-04-18T13:06:15.3Z</time></trkpt><trkpt lat="39.3026308" lon="9.3763779"><ele>304.0</ele><time>2026-04-18T13:06:16.3Z</time></trkpt><trkpt lat="39.3027181" lon="9.3765022"><ele>304.25</ele><time>2026-04-18T13:06:17.3Z</time></trkpt><trkpt lat="39.3028144" lon="9.376629"><ele>304.5</ele><time>2026-04-18T13:06:18.299Z</time></trkpt><trkpt lat="39.3028909" lon="9.3767514"><ele>304.75</ele><time>2026-04-18T13:06:19.3Z</time></trkpt><trkpt lat="39.3029509" lon="9.3768835"><ele>305.0</ele><time>2026-04-18T13:06:20.299Z</time></trkpt><trkpt lat="39.3029635" lon="9.3770314"><ele>305.0</ele><time>2026-04-18T13:06:21.3Z</time></trkpt><trkpt lat="39.3029212" lon="9.3771527"><ele>305.0</ele><time>2026-04-18T13:06:22.3Z</time></trkpt><trkpt lat="39.3028378" lon="9.3772648"><ele>305.0</ele><time>2026-04-18T13:06:23.301Z</time></trkpt><trkpt lat="39.3027539" lon="9.3773727"><ele>305.0</ele><time>2026-04-18T13:06:24.3Z</time></trkpt><trkpt lat="39.3026371" lon="9.3774599"><ele>307.0</ele><time>2026-04-18T13:06:25.3Z</time></trkpt><trkpt lat="39.302546" lon="9.3775742"><ele>309.0</ele><time>2026-04-18T13:06:26.299Z</time></trkpt><trkpt lat="39.302491" lon="9.3777002"><ele>311.0</ele><time>2026-04-18T13:06:27.301Z</time></trkpt><trkpt lat="39.3024778" lon="9.3778454"><ele>313.0</ele><time>2026-04-18T13:06:28.299Z</time></trkpt><trkpt lat="39.302508" lon="9.3779996"><ele>315.0</ele><time>2026-04-18T13:06:29.301Z</time></trkpt><trkpt lat="39.3025391" lon="9.3781518"><ele>317.0</ele><time>2026-04-18T13:06:30.299Z</time></trkpt><trkpt lat="39.3025378" lon="9.3783331"><ele>319.0</ele><time>2026-04-18T13:06:31.299Z</time></trkpt><trkpt lat="39.3025141" lon="9.3785144"><ele>321.0</ele><time>2026-04-18T13:06:32.3Z</time></trkpt><trkpt lat="39.302501" lon="9.3786806"><ele>321.0</ele><time>2026-04-18T13:06:33.299Z</time></trkpt><trkpt lat="39.3025139" lon="9.3788205"><ele>321.0</ele><time>2026-04-18T13:06:34.301Z</time></trkpt><trkpt lat="39.3025606" lon="9.3789411"><ele>321.0</ele><time>2026-04-18T13:06:35.3Z</time></trkpt><trkpt lat="39.3026108" lon="9.3790354"><ele>321.0</ele><time>2026-04-18T13:06:36.3Z</time></trkpt><trkpt lat="39.302669" lon="9.3791012"><ele>321.0</ele><time>2026-04-18T13:06:37.3Z</time></trkpt><trkpt lat="39.3028072" lon="9.3791742"><ele>321.75</ele><time>2026-04-18T13:06:38.3Z</time></trkpt><trkpt lat="39.3028844" lon="9.3793287"><ele>322.5</ele><time>2026-04-18T13:06:39.3Z</time></trkpt><trkpt lat="39.302962" lon="9.3794503"><ele>323.25</ele><time>2026-04-18T13:06:40.299Z</time></trkpt><trkpt lat="39.302986" lon="9.3795903"><ele>324.0</ele><time>2026-04-18T13:06:41.3Z</time></trkpt><trkpt lat="39.3030007" lon="9.3797159"><ele>324.0</ele><time>2026-04-18T13:06:42.299Z</time></trkpt><trkpt lat="39.3029822" lon="9.3798258"><ele>324.0</ele><time>2026-04-18T13:06:43.301Z</time></trkpt><trkpt lat="39.302914" lon="9.3799146"><ele>324.0</ele><time>2026-04-18T13:06:44.3Z</time></trkpt><trkpt lat="39.3028161" lon="9.3799706"><ele>324.0</ele><time>2026-04-18T13:06:45.3Z</time></trkpt><trkpt lat="39.3027265" lon="9.3800417"><ele>324.0</ele><time>2026-04-18T13:06:46.3Z</time></trkpt><trkpt lat="39.3026552" lon="9.3801459"><ele>324.0</ele><time>2026-04-18T13:06:47.3Z</time></trkpt><trkpt lat="39.3026171" lon="9.380278"><ele>324.0</ele><time>2026-04-18T13:06:48.3Z</time></trkpt><trkpt lat="39.3026218" lon="9.3804083"><ele>324.0</ele><time>2026-04-18T13:06:49.299Z</time></trkpt><trkpt lat="39.3026847" lon="9.3805462"><ele>324.0</ele><time>2026-04-18T13:06:50.299Z</time></trkpt><trkpt lat="39.3027657" lon="9.3806858"><ele>324.25</ele><time>2026-04-18T13:06:51.299Z</time></trkpt><trkpt lat="39.3028711" lon="9.3808419"><ele>324.5</ele><time>2026-04-18T13:06:52.3Z</time></trkpt><trkpt lat="39.3029743" lon="9.3809832"><ele>324.75</ele><time>2026-04-18T13:06:53.3Z</time></trkpt><trkpt lat="39.3030732" lon="9.3811057"><ele>325.0</ele><time>2026-04-18T13:06:54.3Z</time></trkpt><trkpt lat="39.3031915" lon="9.3812132"><ele>329.75</ele><time>2026-04-18T13:06:55.299Z</time></trkpt><trkpt lat="39.303316" lon="9.3813081"><ele>334.5</ele><time>2026-04-18T13:06:56.3Z</time></trkpt><trkpt lat="39.3034431" lon="9.381389"><ele>339.25</ele><time>2026-04-18T13:06:57.3Z</time></trkpt><trkpt lat="39.3035636" lon="9.3814774"><ele>344.0</ele><time>2026-04-18T13:06:58.3Z</time></trkpt><trkpt lat="39.3036442" lon="9.3816058"><ele>344.0</ele><time>2026-04-18T13:06:59.3Z</time></trkpt><trkpt lat="39.3037352" lon="9.38174"><ele>344.0</ele><time>2026-04-18T13:07:00.3Z</time></trkpt><trkpt lat="39.3036368" lon="9.381958"><ele>344.0</ele><time>2026-04-18T13:07:01.301Z</time></trkpt><trkpt lat="39.3036553" lon="9.3821175"><ele>342.0</ele><time>2026-04-18T13:07:02.3Z</time></trkpt><trkpt lat="39.3036928" lon="9.382266"><ele>340.0</ele><time>2026-04-18T13:07:03.299Z</time></trkpt><trkpt lat="39.3037633" lon="9.3823804"><ele>338.0</ele><time>2026-04-18T13:07:04.299Z</time></trkpt><trkpt lat="39.3038665" lon="9.3824592"><ele>336.0</ele><time>2026-04-18T13:07:05.301Z</time></trkpt><trkpt lat="39.3039404" lon="9.3825464"><ele>336.75</ele><time>2026-04-18T13:07:06.3Z</time></trkpt><trkpt lat="39.3039846" lon="9.3826697"><ele>337.5</ele><time>2026-04-18T13:07:07.301Z</time></trkpt><trkpt lat="39.3039813" lon="9.3828173"><ele>338.25</ele><time>2026-04-18T13:07:08.3Z</time></trkpt><trkpt lat="39.3039277" lon="9.3829727"><ele>339.0</ele><time>2026-04-18T13:07:09.301Z</time></trkpt><trkpt lat="39.30385" lon="9.3831103"><ele>339.0</ele><time>2026-04-18T13:07:10.3Z</time></trkpt><trkpt lat="39.3037804" lon="9.3832368"><ele>339.0</ele><time>2026-04-18T13:07:11.299Z</time></trkpt><trkpt lat="39.3037278" lon="9.3833599"><ele>339.0</ele><time>2026-04-18T13:07:12.3Z</time></trkpt><trkpt lat="39.3036869" lon="9.3834795"><ele>339.0</ele><time>2026-04-18T13:07:13.3Z</time></trkpt><trkpt lat="39.3036608" lon="9.3836057"><ele>339.0</ele><time>2026-04-18T13:07:14.3Z</time></trkpt><trkpt lat="39.3038442" lon="9.3836976"><ele>345.75</ele><time>2026-04-18T13:07:15.301Z</time></trkpt><trkpt lat="39.3039449" lon="9.3838059"><ele>352.5</ele><time>2026-04-18T13:07:16.3Z</time></trkpt><trkpt lat="39.3040566" lon="9.3839066"><ele>359.25</ele><time>2026-04-18T13:07:17.3Z</time></trkpt><trkpt lat="39.3041637" lon="9.3840001"><ele>366.0</ele><time>2026-04-18T13:07:18.3Z</time></trkpt><trkpt lat="39.3042342" lon="9.3841009"><ele>366.0</ele><time>2026-04-18T13:07:19.3Z</time></trkpt><trkpt lat="39.3042875" lon="9.3842308"><ele>366.0</ele><time>2026-04-18T13:07:20.3Z</time></trkpt><trkpt lat="39.304286" lon="9.3843629"><ele>366.0</ele><time>2026-04-18T13:07:21.3Z</time></trkpt><trkpt lat="39.304238" lon="9.3844804"><ele>366.0</ele><time>2026-04-18T13:07:22.3Z</time></trkpt><trkpt lat="39.3041619" lon="9.384579"><ele>366.0</ele><time>2026-04-18T13:07:23.3Z</time></trkpt><trkpt lat="39.3040865" lon="9.3846835"><ele>365.6</ele><time>2026-04-18T13:07:24.299Z</time></trkpt><trkpt lat="39.3040452" lon="9.3848075"><ele>365.20000000000005</ele><time>2026-04-18T13:07:25.3Z</time></trkpt><trkpt lat="39.3040498" lon="9.3849393"><ele>364.79999999999995</ele><time>2026-04-18T13:07:26.3Z</time></trkpt><trkpt lat="39.3040564" lon="9.3850545"><ele>364.4</ele><time>2026-04-18T13:07:27.3Z</time></trkpt><trkpt lat="39.304087" lon="9.3851713"><ele>364.0</ele><time>2026-04-18T13:07:28.3Z</time></trkpt><trkpt lat="39.3041485" lon="9.3852324"><ele>364.0</ele><time>2026-04-18T13:07:29.299Z</time></trkpt><trkpt lat="39.3042252" lon="9.3853228"><ele>364.0</ele><time>2026-04-18T13:07:30.3Z</time></trkpt><trkpt lat="39.3043766" lon="9.3852684"><ele>364.0</ele><time>2026-04-18T13:07:31.3Z</time></trkpt><trkpt lat="39.3046335" lon="9.3852717"><ele>368.25</ele><time>2026-04-18T13:07:32.3Z</time></trkpt><trkpt lat="39.3047575" lon="9.385306"><ele>372.5</ele><time>2026-04-18T13:07:33.301Z</time></trkpt><trkpt lat="39.3048791" lon="9.3853844"><ele>376.75</ele><time>2026-04-18T13:07:34.3Z</time></trkpt><trkpt lat="39.3049639" lon="9.3855139"><ele>381.0</ele><time>2026-04-18T13:07:35.299Z</time></trkpt><trkpt lat="39.3049989" lon="9.3856565"><ele>381.0</ele><time>2026-04-18T13:07:36.3Z</time></trkpt><trkpt lat="39.3049821" lon="9.385809"><ele>381.0</ele><time>2026-04-18T13:07:37.3Z</time></trkpt><trkpt lat="39.3049399" lon="9.3859291"><ele>381.0</ele><time>2026-04-18T13:07:38.299Z</time></trkpt><trkpt lat="39.3049088" lon="9.3860477"><ele>381.0</ele><time>2026-04-18T13:07:39.301Z</time></trkpt><trkpt lat="39.3048969" lon="9.3861781"><ele>381.0</ele><time>2026-04-18T13:07:40.3Z</time></trkpt><trkpt lat="39.304879" lon="9.3862897"><ele>381.75</ele><time>2026-04-18T13:07:41.3Z</time></trkpt><trkpt lat="39.3048977" lon="9.3864139"><ele>382.5</ele><time>2026-04-18T13:07:42.299Z</time></trkpt><trkpt lat="39.3051041" lon="9.3864888"><ele>383.25</ele><time>2026-04-18T13:07:43.301Z</time></trkpt><trkpt lat="39.3051753" lon="9.3865798"><ele>384.0</ele><time>2026-04-18T13:07:44.3Z</time></trkpt><trkpt lat="39.3052578" lon="9.3866795"><ele>384.0</ele><time>2026-04-18T13:07:45.3Z</time></trkpt><trkpt lat="39.3052455" lon="9.3868223"><ele>384.0</ele><time>2026-04-18T13:07:46.3Z</time></trkpt><trkpt lat="39.3052155" lon="9.3869375"><ele>384.0</ele><time>2026-04-18T13:07:47.3Z</time></trkpt><trkpt lat="39.3051368" lon="9.387051"><ele>384.0</ele><time>2026-04-18T13:07:48.299Z</time></trkpt><trkpt lat="39.3050593" lon="9.3871721"><ele>384.0</ele><time>2026-04-18T13:07:49.299Z</time></trkpt><trkpt lat="39.3049848" lon="9.3873255"><ele>385.75</ele><time>2026-04-18T13:07:50.3Z</time></trkpt><trkpt lat="39.3049194" lon="9.3874732"><ele>387.5</ele><time>2026-04-18T13:07:51.299Z</time></trkpt><trkpt lat="39.3049703" lon="9.3876297"><ele>389.25</ele><time>2026-04-18T13:07:52.3Z</time></trkpt><trkpt lat="39.3050068" lon="9.387749"><ele>391.0</ele><time>2026-04-18T13:07:53.299Z</time></trkpt><trkpt lat="39.3051276" lon="9.3878846"><ele>392.4</ele><time>2026-04-18T13:07:54.3Z</time></trkpt><trkpt lat="39.3051227" lon="9.3880332"><ele>393.8</ele><time>2026-04-18T13:07:55.3Z</time></trkpt><trkpt lat="39.3050945" lon="9.3881666"><ele>395.2</ele><time>2026-04-18T13:07:56.3Z</time></trkpt><trkpt lat="39.3050716" lon="9.3882954"><ele>396.59999999999997</ele><time>2026-04-18T13:07:58.3Z</time></trkpt><trkpt lat="39.3050606" lon="9.3884068"><ele>398.0</ele><time>2026-04-18T13:08:03.3Z</time></trkpt><trkpt lat="39.3050499" lon="9.3885439"><ele>398.0</ele><time>2026-04-18T13:08:05.299Z</time></trkpt><trkpt lat="39.3050624" lon="9.3886887"><ele>398.0</ele><time>2026-04-18T13:08:07.3Z</time></trkpt><trkpt lat="39.3050902" lon="9.388845"><ele>398.0</ele><time>2026-04-18T13:08:09.299Z</time></trkpt><trkpt lat="39.3051136" lon="9.3889222"><ele>398.0</ele><time>2026-04-18T13:08:10.3Z</time></trkpt><trkpt lat="39.3051237" lon="9.389074"><ele>398.0</ele><time>2026-04-18T13:08:12.3Z</time></trkpt><trkpt lat="39.3050823" lon="9.3892114"><ele>399.2</ele><time>2026-04-18T13:08:14.3Z</time></trkpt><trkpt lat="39.3049817" lon="9.3892986"><ele>400.4</ele><time>2026-04-18T13:08:16.3Z</time></trkpt><trkpt lat="39.3049104" lon="9.3893051"><ele>401.59999999999997</ele><time>2026-04-18T13:08:17.3Z</time></trkpt><trkpt lat="39.3048268" lon="9.389286"><ele>402.79999999999995</ele><time>2026-04-18T13:08:18.299Z</time></trkpt><trkpt lat="39.3047276" lon="9.3892499"><ele>404.0</ele><time>2026-04-18T13:08:19.301Z</time></trkpt><trkpt lat="39.304615" lon="9.3891904"><ele>404.0</ele><time>2026-04-18T13:08:20.3Z</time></trkpt><trkpt lat="39.3045016" lon="9.3891173"><ele>404.0</ele><time>2026-04-18T13:08:21.3Z</time></trkpt><trkpt lat="39.3044146" lon="9.3890654"><ele>404.0</ele><time>2026-04-18T13:08:22.299Z</time></trkpt><trkpt lat="39.3043325" lon="9.3890565"><ele>404.0</ele><time>2026-04-18T13:08:23.3Z</time></trkpt><trkpt lat="39.3042609" lon="9.3890531"><ele>404.0</ele><time>2026-04-18T13:08:24.3Z</time></trkpt><trkpt lat="39.3042152" lon="9.3891331"><ele>404.0</ele><time>2026-04-18T13:08:25.3Z</time></trkpt><trkpt lat="39.3041841" lon="9.3892059"><ele>404.0</ele><time>2026-04-18T13:08:26.3Z</time></trkpt><trkpt lat="39.3041787" lon="9.3893027"><ele>404.0</ele><time>2026-04-18T13:08:27.3Z</time></trkpt><trkpt lat="39.3042281" lon="9.3894302"><ele>404.0</ele><time>2026-04-18T13:08:28.299Z</time></trkpt><trkpt lat="39.3042888" lon="9.3895787"><ele>404.0</ele><time>2026-04-18T13:08:29.3Z</time></trkpt><trkpt lat="39.3043398" lon="9.3897362"><ele>404.25</ele><time>2026-04-18T13:08:30.3Z</time></trkpt><trkpt lat="39.3043782" lon="9.3898921"><ele>404.5</ele><time>2026-04-18T13:08:31.3Z</time></trkpt><trkpt lat="39.3044288" lon="9.3900308"><ele>404.75</ele><time>2026-04-18T13:08:32.3Z</time></trkpt><trkpt lat="39.3044938" lon="9.3901464"><ele>405.0</ele><time>2026-04-18T13:08:33.3Z</time></trkpt><trkpt lat="39.3045816" lon="9.390251"><ele>405.0</ele><time>2026-04-18T13:08:34.3Z</time></trkpt><trkpt lat="39.3046935" lon="9.3903427"><ele>405.0</ele><time>2026-04-18T13:08:35.3Z</time></trkpt><trkpt lat="39.3048063" lon="9.3904225"><ele>405.0</ele><time>2026-04-18T13:08:36.3Z</time></trkpt><trkpt lat="39.3049152" lon="9.3904786"><ele>405.0</ele><time>2026-04-18T13:08:37.3Z</time></trkpt><trkpt lat="39.3050233" lon="9.3905152"><ele>408.2</ele><time>2026-04-18T13:08:38.299Z</time></trkpt><trkpt lat="39.3051306" lon="9.390545"><ele>411.4</ele><time>2026-04-18T13:08:39.3Z</time></trkpt><trkpt lat="39.3052314" lon="9.3905864"><ele>414.6</ele><time>2026-04-18T13:08:40.3Z</time></trkpt><trkpt lat="39.3053106" lon="9.3906409"><ele>417.8</ele><time>2026-04-18T13:08:41.3Z</time></trkpt><trkpt lat="39.3053843" lon="9.3907183"><ele>421.0</ele><time>2026-04-18T13:08:42.299Z</time></trkpt><trkpt lat="39.3054454" lon="9.3908053"><ele>421.00000000000006</ele><time>2026-04-18T13:08:43.3Z</time></trkpt><trkpt lat="39.3054972" lon="9.3908968"><ele>421.0</ele><time>2026-04-18T13:08:44.301Z</time></trkpt><trkpt lat="39.3055408" lon="9.3909826"><ele>421.0</ele><time>2026-04-18T13:08:45.3Z</time></trkpt><trkpt lat="39.3055771" lon="9.3910684"><ele>421.0</ele><time>2026-04-18T13:08:46.3Z</time></trkpt><trkpt lat="39.3056076" lon="9.3911719"><ele>421.00000000000006</ele><time>2026-04-18T13:08:47.3Z</time></trkpt><trkpt lat="39.3056317" lon="9.3913013"><ele>421.0</ele><time>2026-04-18T13:08:48.299Z</time></trkpt><trkpt lat="39.3056503" lon="9.3914647"><ele>423.75</ele><time>2026-04-18T13:08:49.299Z</time></trkpt><trkpt lat="39.3056628" lon="9.3916477"><ele>426.5</ele><time>2026-04-18T13:08:50.3Z</time></trkpt><trkpt lat="39.3056781" lon="9.3918364"><ele>429.25</ele><time>2026-04-18T13:08:51.3Z</time></trkpt><trkpt lat="39.3057075" lon="9.3920394"><ele>432.0</ele><time>2026-04-18T13:08:52.3Z</time></trkpt><trkpt lat="39.3057629" lon="9.3922315"><ele>432.33333333333337</ele><time>2026-04-18T13:08:53.3Z</time></trkpt><trkpt lat="39.3058388" lon="9.3924151"><ele>432.6666666666667</ele><time>2026-04-18T13:08:54.299Z</time></trkpt><trkpt lat="39.3059079" lon="9.3926092"><ele>433.0</ele><time>2026-04-18T13:08:55.3Z</time></trkpt><trkpt lat="39.3059659" lon="9.3928051"><ele>433.0</ele><time>2026-04-18T13:08:56.301Z</time></trkpt><trkpt lat="39.3060207" lon="9.3929964"><ele>433.0</ele><time>2026-04-18T13:08:57.301Z</time></trkpt><trkpt lat="39.3060735" lon="9.3931836"><ele>433.0</ele><time>2026-04-18T13:08:58.3Z</time></trkpt><trkpt lat="39.3061066" lon="9.3933885"><ele>433.33333333333337</ele><time>2026-04-18T13:08:59.299Z</time></trkpt><trkpt lat="39.3061226" lon="9.393592"><ele>433.66666666666663</ele><time>2026-04-18T13:09:00.3Z</time></trkpt><trkpt lat="39.3061466" lon="9.3937945"><ele>434.0</ele><time>2026-04-18T13:09:01.3Z</time></trkpt><trkpt lat="39.3061808" lon="9.3939861"><ele>435.0</ele><time>2026-04-18T13:09:02.3Z</time></trkpt><trkpt lat="39.3062117" lon="9.394175"><ele>436.0</ele><time>2026-04-18T13:09:03.3Z</time></trkpt><trkpt lat="39.3062336" lon="9.3943708"><ele>437.0</ele><time>2026-04-18T13:09:04.3Z</time></trkpt><trkpt lat="39.3062308" lon="9.3945637"><ele>436.0</ele><time>2026-04-18T13:09:05.3Z</time></trkpt><trkpt lat="39.3061935" lon="9.3947504"><ele>435.0</ele><time>2026-04-18T13:09:06.299Z</time></trkpt><trkpt lat="39.3061524" lon="9.3949201"><ele>434.0</ele><time>2026-04-18T13:09:07.299Z</time></trkpt><trkpt lat="39.3061294" lon="9.39506"><ele>433.0</ele><time>2026-04-18T13:09:08.3Z</time></trkpt><trkpt lat="39.3061242" lon="9.3951947"><ele>433.0</ele><time>2026-04-18T13:09:09.3Z</time></trkpt><trkpt lat="39.3061191" lon="9.3953234"><ele>432.99999999999994</ele><time>2026-04-18T13:09:10.299Z</time></trkpt><trkpt lat="39.3061263" lon="9.3954592"><ele>432.99999999999994</ele><time>2026-04-18T13:09:11.3Z</time></trkpt><trkpt lat="39.3061832" lon="9.3955257"><ele>433.0</ele><time>2026-04-18T13:09:12.299Z</time></trkpt><trkpt lat="39.3062963" lon="9.3955953"><ele>433.0</ele><time>2026-04-18T13:09:13.3Z</time></trkpt><trkpt lat="39.3065159" lon="9.3956574"><ele>424.0</ele><time>2026-04-18T13:09:14.3Z</time></trkpt><trkpt lat="39.3068217" lon="9.3956469"><ele>415.0</ele><time>2026-04-18T13:09:15.3Z</time></trkpt><trkpt lat="39.3070097" lon="9.3957097"><ele>411.33333333333337</ele><time>2026-04-18T13:09:16.3Z</time></trkpt><trkpt lat="39.3072625" lon="9.3957624"><ele>407.66666666666663</ele><time>2026-04-18T13:09:17.3Z</time></trkpt><trkpt lat="39.3074465" lon="9.3958237"><ele>404.0</ele><time>2026-04-18T13:09:18.3Z</time></trkpt><trkpt lat="39.3076163" lon="9.3958982"><ele>404.0</ele><time>2026-04-18T13:09:19.3Z</time></trkpt><trkpt lat="39.3077651" lon="9.395977"><ele>404.0</ele><time>2026-04-18T13:09:20.3Z</time></trkpt><trkpt lat="39.3079075" lon="9.3960914"><ele>404.0</ele><time>2026-04-18T13:09:21.3Z</time></trkpt><trkpt lat="39.3080098" lon="9.3962438"><ele>399.66666666666663</ele><time>2026-04-18T13:09:22.3Z</time></trkpt><trkpt lat="39.3080962" lon="9.3964389"><ele>395.33333333333337</ele><time>2026-04-18T13:09:23.3Z</time></trkpt><trkpt lat="39.308156" lon="9.3966511"><ele>391.0</ele><time>2026-04-18T13:09:24.3Z</time></trkpt><trkpt lat="39.3082132" lon="9.3968524"><ele>391.0</ele><time>2026-04-18T13:09:25.299Z</time></trkpt><trkpt lat="39.308266" lon="9.3970529"><ele>391.0</ele><time>2026-04-18T13:09:26.3Z</time></trkpt><trkpt lat="39.3082966" lon="9.3972701"><ele>391.0</ele><time>2026-04-18T13:09:27.3Z</time></trkpt><trkpt lat="39.308299" lon="9.3974936"><ele>391.6666666666667</ele><time>2026-04-18T13:09:28.3Z</time></trkpt><trkpt lat="39.3082875" lon="9.3977164"><ele>392.33333333333337</ele><time>2026-04-18T13:09:29.3Z</time></trkpt><trkpt lat="39.3082772" lon="9.3979337"><ele>393.0</ele><time>2026-04-18T13:09:30.301Z</time></trkpt><trkpt lat="39.3082803" lon="9.3981398"><ele>392.0</ele><time>2026-04-18T13:09:31.299Z</time></trkpt><trkpt lat="39.3082672" lon="9.3983356"><ele>391.0</ele><time>2026-04-18T13:09:32.299Z</time></trkpt><trkpt lat="39.308269" lon="9.3985343"><ele>390.0</ele><time>2026-04-18T13:09:33.298Z</time></trkpt><trkpt lat="39.3082953" lon="9.3986988"><ele>389.0</ele><time>2026-04-18T13:09:34.3Z</time></trkpt><trkpt lat="39.308366" lon="9.3988805"><ele>387.3333333333333</ele><time>2026-04-18T13:09:35.299Z</time></trkpt><trkpt lat="39.3084657" lon="9.399028"><ele>385.66666666666663</ele><time>2026-04-18T13:09:36.299Z</time></trkpt><trkpt lat="39.3085598" lon="9.3991864"><ele>384.0</ele><time>2026-04-18T13:09:37.298Z</time></trkpt><trkpt lat="39.3086495" lon="9.3993359"><ele>384.0</ele><time>2026-04-18T13:09:38.299Z</time></trkpt><trkpt lat="39.3087426" lon="9.3994636"><ele>384.0</ele><time>2026-04-18T13:09:39.299Z</time></trkpt><trkpt lat="39.3088469" lon="9.3995508"><ele>384.0</ele><time>2026-04-18T13:09:40.299Z</time></trkpt><trkpt lat="39.3089637" lon="9.3995862"><ele>384.0</ele><time>2026-04-18T13:09:41.298Z</time></trkpt><trkpt lat="39.3090977" lon="9.3996042"><ele>382.3333333333333</ele><time>2026-04-18T13:09:42.298Z</time></trkpt><trkpt lat="39.309258" lon="9.3995512"><ele>380.66666666666663</ele><time>2026-04-18T13:09:43.298Z</time></trkpt><trkpt lat="39.3094129" lon="9.39948"><ele>379.0</ele><time>2026-04-18T13:09:44.298Z</time></trkpt><trkpt lat="39.3095072" lon="9.3992582"><ele>379.0</ele><time>2026-04-18T13:09:45.298Z</time></trkpt><trkpt lat="39.3096556" lon="9.3991573"><ele>379.0</ele><time>2026-04-18T13:09:46.299Z</time></trkpt><trkpt lat="39.3097945" lon="9.399052"><ele>379.0</ele><time>2026-04-18T13:09:47.299Z</time></trkpt><trkpt lat="39.3099286" lon="9.3989645"><ele>380.66666666666663</ele><time>2026-04-18T13:09:48.299Z</time></trkpt><trkpt lat="39.3100971" lon="9.3989051"><ele>382.3333333333333</ele><time>2026-04-18T13:09:49.3Z</time></trkpt><trkpt lat="39.3102917" lon="9.3990413"><ele>384.0</ele><time>2026-04-18T13:09:50.299Z</time></trkpt><trkpt lat="39.3104642" lon="9.39905"><ele>383.25</ele><time>2026-04-18T13:09:51.299Z</time></trkpt><trkpt lat="39.3106228" lon="9.399065"><ele>382.5</ele><time>2026-04-18T13:09:52.299Z</time></trkpt><trkpt lat="39.3107667" lon="9.3991135"><ele>381.75</ele><time>2026-04-18T13:09:53.299Z</time></trkpt><trkpt lat="39.3108913" lon="9.3991929"><ele>381.0</ele><time>2026-04-18T13:09:54.299Z</time></trkpt><trkpt lat="39.3110023" lon="9.3993135"><ele>381.0</ele><time>2026-04-18T13:09:55.298Z</time></trkpt><trkpt lat="39.3110901" lon="9.3994704"><ele>381.0</ele><time>2026-04-18T13:09:56.299Z</time></trkpt><trkpt lat="39.311151" lon="9.3996389"><ele>381.0</ele><time>2026-04-18T13:09:57.299Z</time></trkpt><trkpt lat="39.3111662" lon="9.3998143"><ele>381.0</ele><time>2026-04-18T13:09:58.298Z</time></trkpt><trkpt lat="39.3111506" lon="9.4000104"><ele>383.5</ele><time>2026-04-18T13:09:59.299Z</time></trkpt><trkpt lat="39.3111241" lon="9.4002098"><ele>386.0</ele><time>2026-04-18T13:10:00.299Z</time></trkpt><trkpt lat="39.3111178" lon="9.4003931"><ele>388.5</ele><time>2026-04-18T13:10:01.298Z</time></trkpt><trkpt lat="39.3111199" lon="9.4005527"><ele>391.0</ele><time>2026-04-18T13:10:02.299Z</time></trkpt><trkpt lat="39.3111707" lon="9.4007036"><ele>392.0</ele><time>2026-04-18T13:10:03.299Z</time></trkpt><trkpt lat="39.3112339" lon="9.4008221"><ele>393.0</ele><time>2026-04-18T13:10:04.298Z</time></trkpt><trkpt lat="39.3113312" lon="9.4009257"><ele>394.0</ele><time>2026-04-18T13:10:05.298Z</time></trkpt><trkpt lat="39.3114228" lon="9.4010311"><ele>395.0</ele><time>2026-04-18T13:10:06.299Z</time></trkpt><trkpt lat="39.3116171" lon="9.4011287"><ele>396.0</ele><time>2026-04-18T13:10:07.298Z</time></trkpt><trkpt lat="39.3117429" lon="9.4012496"><ele>397.0</ele><time>2026-04-18T13:10:08.299Z</time></trkpt><trkpt lat="39.3118433" lon="9.4014111"><ele>398.0</ele><time>2026-04-18T13:10:09.298Z</time></trkpt><trkpt lat="39.3119298" lon="9.4016027"><ele>398.0</ele><time>2026-04-18T13:10:10.299Z</time></trkpt><trkpt lat="39.3120036" lon="9.4017984"><ele>398.0</ele><time>2026-04-18T13:10:11.299Z</time></trkpt><trkpt lat="39.3120794" lon="9.4019895"><ele>398.0</ele><time>2026-04-18T13:10:12.3Z</time></trkpt><trkpt lat="39.3121581" lon="9.4021701"><ele>395.25</ele><time>2026-04-18T13:10:13.299Z</time></trkpt><trkpt lat="39.3122527" lon="9.4023057"><ele>392.5</ele><time>2026-04-18T13:10:14.299Z</time></trkpt><trkpt lat="39.3123621" lon="9.4024065"><ele>389.75</ele><time>2026-04-18T13:10:15.299Z</time></trkpt><trkpt lat="39.3124805" lon="9.4024639"><ele>387.0</ele><time>2026-04-18T13:10:16.298Z</time></trkpt><trkpt lat="39.3125927" lon="9.4025112"><ele>387.0</ele><time>2026-04-18T13:10:17.299Z</time></trkpt><trkpt lat="39.3127415" lon="9.4024526"><ele>387.0</ele><time>2026-04-18T13:10:18.299Z</time></trkpt><trkpt lat="39.3128939" lon="9.4023855"><ele>387.0</ele><time>2026-04-18T13:10:19.3Z</time></trkpt><trkpt lat="39.3130592" lon="9.4022912"><ele>387.66666666666663</ele><time>2026-04-18T13:10:20.298Z</time></trkpt><trkpt lat="39.3132161" lon="9.4021782"><ele>388.3333333333333</ele><time>2026-04-18T13:10:21.298Z</time></trkpt><trkpt lat="39.3133625" lon="9.4020562"><ele>389.0</ele><time>2026-04-18T13:10:22.298Z</time></trkpt><trkpt lat="39.3135022" lon="9.4019315"><ele>388.0</ele><time>2026-04-18T13:10:23.298Z</time></trkpt><trkpt lat="39.3136374" lon="9.401823"><ele>387.0</ele><time>2026-04-18T13:10:24.299Z</time></trkpt><trkpt lat="39.31378" lon="9.4017457"><ele>386.0</ele><time>2026-04-18T13:10:25.299Z</time></trkpt><trkpt lat="39.3139384" lon="9.4017113"><ele>386.0</ele><time>2026-04-18T13:10:26.298Z</time></trkpt><trkpt lat="39.3141068" lon="9.4016929"><ele>386.0</ele><time>2026-04-18T13:10:27.299Z</time></trkpt><trkpt lat="39.3142725" lon="9.4016698"><ele>386.0</ele><time>2026-04-18T13:10:28.299Z</time></trkpt><trkpt lat="39.3144266" lon="9.4016434"><ele>386.0</ele><time>2026-04-18T13:10:29.298Z</time></trkpt><trkpt lat="39.3145882" lon="9.4015996"><ele>386.0</ele><time>2026-04-18T13:10:30.299Z</time></trkpt><trkpt lat="39.3147565" lon="9.4015222"><ele>386.0</ele><time>2026-04-18T13:10:31.299Z</time></trkpt><trkpt lat="39.3149162" lon="9.4014357"><ele>382.3333333333333</ele><time>2026-04-18T13:10:32.299Z</time></trkpt><trkpt lat="39.3150656" lon="9.4013561"><ele>378.66666666666663</ele><time>2026-04-18T13:10:33.299Z</time></trkpt><trkpt lat="39.315209" lon="9.4012946"><ele>375.0</ele><time>2026-04-18T13:10:34.299Z</time></trkpt><trkpt lat="39.3153599" lon="9.4012773"><ele>375.0</ele><time>2026-04-18T13:10:35.299Z</time></trkpt><trkpt lat="39.3155145" lon="9.4012649"><ele>375.0</ele><time>2026-04-18T13:10:36.299Z</time></trkpt><trkpt lat="39.3157026" lon="9.4013421"><ele>375.0</ele><time>2026-04-18T13:10:37.298Z</time></trkpt><trkpt lat="39.3158832" lon="9.4013732"><ele>386.0</ele><time>2026-04-18T13:10:38.299Z</time></trkpt><trkpt lat="39.3160562" lon="9.4014187"><ele>397.0</ele><time>2026-04-18T13:10:39.299Z</time></trkpt><trkpt lat="39.3162241" lon="9.4014637"><ele>408.0</ele><time>2026-04-18T13:10:40.3Z</time></trkpt><trkpt lat="39.3163891" lon="9.4014965"><ele>407.0</ele><time>2026-04-18T13:10:41.299Z</time></trkpt><trkpt lat="39.3165413" lon="9.4015327"><ele>406.0</ele><time>2026-04-18T13:10:42.3Z</time></trkpt><trkpt lat="39.3166927" lon="9.4015204"><ele>405.0</ele><time>2026-04-18T13:10:43.299Z</time></trkpt><trkpt lat="39.3168571" lon="9.4014931"><ele>405.0</ele><time>2026-04-18T13:10:44.3Z</time></trkpt><trkpt lat="39.317029" lon="9.4014676"><ele>405.0</ele><time>2026-04-18T13:10:45.3Z</time></trkpt><trkpt lat="39.3171957" lon="9.4014633"><ele>405.0</ele><time>2026-04-18T13:10:46.298Z</time></trkpt><trkpt lat="39.3173522" lon="9.4014573"><ele>405.0</ele><time>2026-04-18T13:10:47.298Z</time></trkpt><trkpt lat="39.3175169" lon="9.4014504"><ele>405.0</ele><time>2026-04-18T13:10:48.299Z</time></trkpt><trkpt lat="39.3176812" lon="9.4014445"><ele>405.0</ele><time>2026-04-18T13:10:49.299Z</time></trkpt><trkpt lat="39.3178528" lon="9.4014572"><ele>405.0</ele><time>2026-04-18T13:10:50.299Z</time></trkpt><trkpt lat="39.3180125" lon="9.4015171"><ele>405.0</ele><time>2026-04-18T13:10:51.3Z</time></trkpt><trkpt lat="39.318164" lon="9.401578"><ele>405.0</ele><time>2026-04-18T13:10:52.299Z</time></trkpt><trkpt lat="39.3183006" lon="9.4016204"><ele>403.5</ele><time>2026-04-18T13:10:53.3Z</time></trkpt><trkpt lat="39.3184291" lon="9.401635"><ele>402.0</ele><time>2026-04-18T13:10:54.298Z</time></trkpt><trkpt lat="39.3185607" lon="9.4016391"><ele>400.5</ele><time>2026-04-18T13:10:55.299Z</time></trkpt><trkpt lat="39.3186916" lon="9.4014805"><ele>399.0</ele><time>2026-04-18T13:10:56.299Z</time></trkpt><trkpt lat="39.3188094" lon="9.4013646"><ele>392.0</ele><time>2026-04-18T13:10:57.3Z</time></trkpt><trkpt lat="39.3189297" lon="9.4012606"><ele>385.0</ele><time>2026-04-18T13:10:58.299Z</time></trkpt><trkpt lat="39.3190674" lon="9.401183"><ele>378.0</ele><time>2026-04-18T13:10:59.299Z</time></trkpt><trkpt lat="39.319227" lon="9.4011427"><ele>378.0</ele><time>2026-04-18T13:11:00.299Z</time></trkpt><trkpt lat="39.3193901" lon="9.4011205"><ele>378.0</ele><time>2026-04-18T13:11:01.299Z</time></trkpt><trkpt lat="39.3195526" lon="9.4011384"><ele>378.0</ele><time>2026-04-18T13:11:02.3Z</time></trkpt><trkpt lat="39.3197121" lon="9.4011966"><ele>375.0</ele><time>2026-04-18T13:11:03.299Z</time></trkpt><trkpt lat="39.319878" lon="9.4013008"><ele>372.0</ele><time>2026-04-18T13:11:04.3Z</time></trkpt><trkpt lat="39.3200352" lon="9.4014081"><ele>369.0</ele><time>2026-04-18T13:11:05.299Z</time></trkpt><trkpt lat="39.3201752" lon="9.4015262"><ele>373.75</ele><time>2026-04-18T13:11:06.298Z</time></trkpt><trkpt lat="39.3202947" lon="9.4016426"><ele>378.5</ele><time>2026-04-18T13:11:07.299Z</time></trkpt><trkpt lat="39.3204119" lon="9.4017266"><ele>383.25</ele><time>2026-04-18T13:11:08.3Z</time></trkpt><trkpt lat="39.3205548" lon="9.4017683"><ele>388.0</ele><time>2026-04-18T13:11:09.299Z</time></trkpt><trkpt lat="39.320722" lon="9.4017421"><ele>388.0</ele><time>2026-04-18T13:11:10.299Z</time></trkpt><trkpt lat="39.3208893" lon="9.4016899"><ele>388.0</ele><time>2026-04-18T13:11:11.298Z</time></trkpt><trkpt lat="39.3210559" lon="9.4016676"><ele>388.0</ele><time>2026-04-18T13:11:12.298Z</time></trkpt><trkpt lat="39.321213" lon="9.4016675"><ele>388.0</ele><time>2026-04-18T13:11:13.299Z</time></trkpt><trkpt lat="39.3213698" lon="9.4016426"><ele>388.0</ele><time>2026-04-18T13:11:14.299Z</time></trkpt><trkpt lat="39.3215248" lon="9.4016145"><ele>388.0</ele><time>2026-04-18T13:11:15.298Z</time></trkpt><trkpt lat="39.3217167" lon="9.4015502"><ele>370.0</ele><time>2026-04-18T13:11:16.299Z</time></trkpt><trkpt lat="39.3218909" lon="9.4012748"><ele>352.0</ele><time>2026-04-18T13:11:17.299Z</time></trkpt><trkpt lat="39.3220587" lon="9.4011411"><ele>352.0</ele><time>2026-04-18T13:11:18.298Z</time></trkpt><trkpt lat="39.3222062" lon="9.4010067"><ele>352.0</ele><time>2026-04-18T13:11:19.3Z</time></trkpt><trkpt lat="39.3223325" lon="9.4008749"><ele>352.0</ele><time>2026-04-18T13:11:20.298Z</time></trkpt><trkpt lat="39.3224332" lon="9.4007002"><ele>354.66666666666663</ele><time>2026-04-18T13:11:21.298Z</time></trkpt><trkpt lat="39.3225125" lon="9.4004942"><ele>357.3333333333333</ele><time>2026-04-18T13:11:22.299Z</time></trkpt><trkpt lat="39.3225749" lon="9.400295"><ele>360.0</ele><time>2026-04-18T13:11:23.298Z</time></trkpt><trkpt lat="39.3226545" lon="9.4001158"><ele>360.0</ele><time>2026-04-18T13:11:24.298Z</time></trkpt><trkpt lat="39.322745" lon="9.3999542"><ele>360.0</ele><time>2026-04-18T13:11:25.299Z</time></trkpt><trkpt lat="39.322831" lon="9.3997985"><ele>360.0</ele><time>2026-04-18T13:11:26.299Z</time></trkpt><trkpt lat="39.3229102" lon="9.399647"><ele>360.0</ele><time>2026-04-18T13:11:27.299Z</time></trkpt><trkpt lat="39.3229604" lon="9.3994804"><ele>359.0</ele><time>2026-04-18T13:11:28.299Z</time></trkpt><trkpt lat="39.3229682" lon="9.3992967"><ele>358.0</ele><time>2026-04-18T13:11:29.299Z</time></trkpt><trkpt lat="39.3229205" lon="9.3990996"><ele>357.0</ele><time>2026-04-18T13:11:30.299Z</time></trkpt><trkpt lat="39.3228426" lon="9.3989019"><ele>361.0</ele><time>2026-04-18T13:11:31.299Z</time></trkpt><trkpt lat="39.3227312" lon="9.3987072"><ele>365.0</ele><time>2026-04-18T13:11:32.299Z</time></trkpt><trkpt lat="39.3226224" lon="9.3984937"><ele>369.0</ele><time>2026-04-18T13:11:33.298Z</time></trkpt><trkpt lat="39.3225307" lon="9.3982903"><ele>369.0</ele><time>2026-04-18T13:11:34.298Z</time></trkpt><trkpt lat="39.3224374" lon="9.3981012"><ele>369.0</ele><time>2026-04-18T13:11:35.299Z</time></trkpt><trkpt lat="39.3223397" lon="9.3979304"><ele>369.0</ele><time>2026-04-18T13:11:36.298Z</time></trkpt><trkpt lat="39.3222341" lon="9.3977794"><ele>365.6</ele><time>2026-04-18T13:11:37.298Z</time></trkpt><trkpt lat="39.3221408" lon="9.3976817"><ele>362.2</ele><time>2026-04-18T13:11:38.299Z</time></trkpt><trkpt lat="39.322067" lon="9.397573"><ele>358.8</ele><time>2026-04-18T13:11:39.299Z</time></trkpt><trkpt lat="39.3220263" lon="9.39745"><ele>355.40000000000003</ele><time>2026-04-18T13:11:40.299Z</time></trkpt><trkpt lat="39.3220221" lon="9.3973142"><ele>352.0</ele><time>2026-04-18T13:11:41.298Z</time></trkpt><trkpt lat="39.3220871" lon="9.3971695"><ele>350.0</ele><time>2026-04-18T13:11:42.299Z</time></trkpt><trkpt lat="39.3221726" lon="9.3970126"><ele>348.0</ele><time>2026-04-18T13:11:43.298Z</time></trkpt><trkpt lat="39.322268" lon="9.3968413"><ele>346.0</ele><time>2026-04-18T13:11:44.299Z</time></trkpt><trkpt lat="39.3223732" lon="9.3966599"><ele>347.0</ele><time>2026-04-18T13:11:45.3Z</time></trkpt><trkpt lat="39.3224785" lon="9.3964799"><ele>348.0</ele><time>2026-04-18T13:11:46.3Z</time></trkpt><trkpt lat="39.3225784" lon="9.3963103"><ele>349.0</ele><time>2026-04-18T13:11:47.299Z</time></trkpt><trkpt lat="39.3226844" lon="9.3961582"><ele>349.0</ele><time>2026-04-18T13:11:48.299Z</time></trkpt><trkpt lat="39.3228068" lon="9.3960302"><ele>349.0</ele><time>2026-04-18T13:11:49.299Z</time></trkpt><trkpt lat="39.322949" lon="9.3959296"><ele>349.0</ele><time>2026-04-18T13:11:50.299Z</time></trkpt><trkpt lat="39.32309" lon="9.3958394"><ele>354.66666666666663</ele><time>2026-04-18T13:11:51.299Z</time></trkpt><trkpt lat="39.3232293" lon="9.3957722"><ele>360.3333333333333</ele><time>2026-04-18T13:11:52.299Z</time></trkpt><trkpt lat="39.3233808" lon="9.3957523"><ele>366.0</ele><time>2026-04-18T13:11:53.299Z</time></trkpt><trkpt lat="39.323536" lon="9.3957749"><ele>366.0</ele><time>2026-04-18T13:11:54.299Z</time></trkpt><trkpt lat="39.3236723" lon="9.395845"><ele>366.0</ele><time>2026-04-18T13:11:55.299Z</time></trkpt><trkpt lat="39.3237849" lon="9.3959542"><ele>366.0</ele><time>2026-04-18T13:11:56.299Z</time></trkpt><trkpt lat="39.3238855" lon="9.3961017"><ele>366.0</ele><time>2026-04-18T13:11:57.299Z</time></trkpt><trkpt lat="39.3239819" lon="9.3962545"><ele>366.3333333333333</ele><time>2026-04-18T13:11:58.299Z</time></trkpt><trkpt lat="39.324101" lon="9.3963926"><ele>366.66666666666663</ele><time>2026-04-18T13:11:59.299Z</time></trkpt><trkpt lat="39.3242407" lon="9.3965083"><ele>367.0</ele><time>2026-04-18T13:12:00.299Z</time></trkpt><trkpt lat="39.3243864" lon="9.3966022"><ele>367.0</ele><time>2026-04-18T13:12:01.299Z</time></trkpt><trkpt lat="39.324517" lon="9.3966903"><ele>367.0</ele><time>2026-04-18T13:12:02.299Z</time></trkpt><trkpt lat="39.3246078" lon="9.3967809"><ele>367.0</ele><time>2026-04-18T13:12:03.299Z</time></trkpt><trkpt lat="39.3246751" lon="9.3969116"><ele>367.0</ele><time>2026-04-18T13:12:04.298Z</time></trkpt><trkpt lat="39.32472" lon="9.397094"><ele>361.66666666666663</ele><time>2026-04-18T13:12:05.299Z</time></trkpt><trkpt lat="39.3247612" lon="9.3973118"><ele>356.3333333333333</ele><time>2026-04-18T13:12:06.299Z</time></trkpt><trkpt lat="39.324801" lon="9.3975457"><ele>351.0</ele><time>2026-04-18T13:12:07.298Z</time></trkpt><trkpt lat="39.3248324" lon="9.397771"><ele>351.0</ele><time>2026-04-18T13:12:08.299Z</time></trkpt><trkpt lat="39.3248509" lon="9.3979975"><ele>351.0</ele><time>2026-04-18T13:12:09.299Z</time></trkpt><trkpt lat="39.3248465" lon="9.398219"><ele>351.0</ele><time>2026-04-18T13:12:10.298Z</time></trkpt><trkpt lat="39.3248384" lon="9.3984275"><ele>352.6666666666667</ele><time>2026-04-18T13:12:11.299Z</time></trkpt><trkpt lat="39.3248344" lon="9.3986388"><ele>354.33333333333337</ele><time>2026-04-18T13:12:12.299Z</time></trkpt><trkpt lat="39.3248782" lon="9.3988635"><ele>356.0</ele><time>2026-04-18T13:12:13.299Z</time></trkpt><trkpt lat="39.3249561" lon="9.3991007"><ele>356.33333333333337</ele><time>2026-04-18T13:12:14.299Z</time></trkpt><trkpt lat="39.3250245" lon="9.3993262"><ele>356.6666666666667</ele><time>2026-04-18T13:12:15.299Z</time></trkpt><trkpt lat="39.3250604" lon="9.3995531"><ele>357.0</ele><time>2026-04-18T13:12:16.299Z</time></trkpt><trkpt lat="39.3251039" lon="9.3997607"><ele>360.6666666666667</ele><time>2026-04-18T13:12:17.298Z</time></trkpt><trkpt lat="39.3251721" lon="9.3999553"><ele>364.33333333333337</ele><time>2026-04-18T13:12:18.299Z</time></trkpt><trkpt lat="39.3252738" lon="9.4001424"><ele>368.0</ele><time>2026-04-18T13:12:19.299Z</time></trkpt><trkpt lat="39.3254083" lon="9.4003319"><ele>368.0</ele><time>2026-04-18T13:12:20.298Z</time></trkpt><trkpt lat="39.3255531" lon="9.4004898"><ele>368.0</ele><time>2026-04-18T13:12:21.299Z</time></trkpt><trkpt lat="39.3256872" lon="9.4006403"><ele>368.0</ele><time>2026-04-18T13:12:22.298Z</time></trkpt><trkpt lat="39.325805" lon="9.4007708"><ele>364.2</ele><time>2026-04-18T13:12:23.298Z</time></trkpt><trkpt lat="39.3259028" lon="9.4008774"><ele>360.4</ele><time>2026-04-18T13:12:24.299Z</time></trkpt><trkpt lat="39.3259789" lon="9.40098"><ele>356.59999999999997</ele><time>2026-04-18T13:12:25.299Z</time></trkpt><trkpt lat="39.3260171" lon="9.4011007"><ele>352.79999999999995</ele><time>2026-04-18T13:12:26.3Z</time></trkpt><trkpt lat="39.3260184" lon="9.4012096"><ele>349.0</ele><time>2026-04-18T13:12:27.299Z</time></trkpt><trkpt lat="39.3259556" lon="9.4013119"><ele>347.0</ele><time>2026-04-18T13:12:28.299Z</time></trkpt><trkpt lat="39.325852" lon="9.4014111"><ele>345.0</ele><time>2026-04-18T13:12:29.299Z</time></trkpt><trkpt lat="39.3257299" lon="9.4014991"><ele>343.0</ele><time>2026-04-18T13:12:30.299Z</time></trkpt><trkpt lat="39.325606" lon="9.4016204"><ele>341.0</ele><time>2026-04-18T13:12:31.298Z</time></trkpt><trkpt lat="39.325491" lon="9.4017834"><ele>341.6666666666667</ele><time>2026-04-18T13:12:32.3Z</time></trkpt><trkpt lat="39.3253872" lon="9.4019463"><ele>342.3333333333333</ele><time>2026-04-18T13:12:33.298Z</time></trkpt><trkpt lat="39.3252838" lon="9.402111"><ele>343.0</ele><time>2026-04-18T13:12:34.299Z</time></trkpt><trkpt lat="39.3251827" lon="9.4022613"><ele>343.0</ele><time>2026-04-18T13:12:35.299Z</time></trkpt><trkpt lat="39.3250743" lon="9.4023851"><ele>343.0</ele><time>2026-04-18T13:12:36.299Z</time></trkpt><trkpt lat="39.3249414" lon="9.4024605"><ele>343.0</ele><time>2026-04-18T13:12:37.299Z</time></trkpt><trkpt lat="39.3247959" lon="9.402501"><ele>343.0</ele><time>2026-04-18T13:12:38.298Z</time></trkpt><trkpt lat="39.3246631" lon="9.4025304"><ele>349.5</ele><time>2026-04-18T13:12:39.298Z</time></trkpt><trkpt lat="39.324547" lon="9.4025736"><ele>356.0</ele><time>2026-04-18T13:12:40.298Z</time></trkpt><trkpt lat="39.3244484" lon="9.4026643"><ele>362.5</ele><time>2026-04-18T13:12:41.299Z</time></trkpt><trkpt lat="39.3243623" lon="9.4027391"><ele>369.0</ele><time>2026-04-18T13:12:42.299Z</time></trkpt><trkpt lat="39.3242612" lon="9.4028583"><ele>359.0</ele><time>2026-04-18T13:12:43.3Z</time></trkpt><trkpt lat="39.3242315" lon="9.4031045"><ele>349.0</ele><time>2026-04-18T13:12:44.299Z</time></trkpt><trkpt lat="39.3241018" lon="9.4032417"><ele>339.0</ele><time>2026-04-18T13:12:45.299Z</time></trkpt><trkpt lat="39.3239781" lon="9.4033707"><ele>345.0</ele><time>2026-04-18T13:12:46.299Z</time></trkpt><trkpt lat="39.3238694" lon="9.4034778"><ele>351.0</ele><time>2026-04-18T13:12:47.298Z</time></trkpt><trkpt lat="39.3237612" lon="9.4035942"><ele>357.0</ele><time>2026-04-18T13:12:48.3Z</time></trkpt><trkpt lat="39.3236739" lon="9.4036913"><ele>363.0</ele><time>2026-04-18T13:12:49.298Z</time></trkpt><trkpt lat="39.3236395" lon="9.4038558"><ele>363.0</ele><time>2026-04-18T13:12:50.299Z</time></trkpt><trkpt lat="39.3236459" lon="9.4039934"><ele>363.0</ele><time>2026-04-18T13:12:51.3Z</time></trkpt><trkpt lat="39.3237005" lon="9.404129"><ele>363.0</ele><time>2026-04-18T13:12:52.299Z</time></trkpt><trkpt lat="39.3237967" lon="9.4043079"><ele>363.0</ele><time>2026-04-18T13:12:53.299Z</time></trkpt><trkpt lat="39.3240172" lon="9.4045082"><ele>355.0</ele><time>2026-04-18T13:12:54.299Z</time></trkpt><trkpt lat="39.3241237" lon="9.404669"><ele>347.0</ele><time>2026-04-18T13:12:55.298Z</time></trkpt><trkpt lat="39.3242186" lon="9.4048278"><ele>339.0</ele><time>2026-04-18T13:12:56.299Z</time></trkpt><trkpt lat="39.3242829" lon="9.4050092"><ele>339.0</ele><time>2026-04-18T13:12:57.299Z</time></trkpt><trkpt lat="39.3243137" lon="9.4051829"><ele>339.0</ele><time>2026-04-18T13:12:58.298Z</time></trkpt><trkpt lat="39.3243535" lon="9.4053533"><ele>339.0</ele><time>2026-04-18T13:12:59.299Z</time></trkpt><trkpt lat="39.3244635" lon="9.4055087"><ele>339.0</ele><time>2026-04-18T13:13:00.299Z</time></trkpt><trkpt lat="39.3245828" lon="9.4056312"><ele>343.0</ele><time>2026-04-18T13:13:01.3Z</time></trkpt><trkpt lat="39.3246932" lon="9.4057537"><ele>347.0</ele><time>2026-04-18T13:13:02.299Z</time></trkpt><trkpt lat="39.3247847" lon="9.4058896"><ele>351.0</ele><time>2026-04-18T13:13:03.299Z</time></trkpt><trkpt lat="39.3248476" lon="9.4060354"><ele>355.0</ele><time>2026-04-18T13:13:04.299Z</time></trkpt><trkpt lat="39.3248725" lon="9.4061788"><ele>354.5</ele><time>2026-04-18T13:13:05.299Z</time></trkpt><trkpt lat="39.3248503" lon="9.4063107"><ele>354.0</ele><time>2026-04-18T13:13:06.298Z</time></trkpt><trkpt lat="39.3247796" lon="9.4064711"><ele>353.5</ele><time>2026-04-18T13:13:07.299Z</time></trkpt><trkpt lat="39.3246932" lon="9.4066552"><ele>353.0</ele><time>2026-04-18T13:13:08.299Z</time></trkpt><trkpt lat="39.3246127" lon="9.4068355"><ele>353.0</ele><time>2026-04-18T13:13:09.3Z</time></trkpt><trkpt lat="39.3245421" lon="9.4070212"><ele>353.0</ele><time>2026-04-18T13:13:10.298Z</time></trkpt><trkpt lat="39.3244671" lon="9.4071892"><ele>353.0</ele><time>2026-04-18T13:13:11.298Z</time></trkpt><trkpt lat="39.3243767" lon="9.407326"><ele>353.0</ele><time>2026-04-18T13:13:12.299Z</time></trkpt><trkpt lat="39.3242608" lon="9.4074266"><ele>354.25</ele><time>2026-04-18T13:13:13.298Z</time></trkpt><trkpt lat="39.3241448" lon="9.4075111"><ele>355.5</ele><time>2026-04-18T13:13:14.298Z</time></trkpt><trkpt lat="39.3240438" lon="9.407596"><ele>356.75</ele><time>2026-04-18T13:13:15.299Z</time></trkpt><trkpt lat="39.3239488" lon="9.4076732"><ele>358.0</ele><time>2026-04-18T13:13:16.299Z</time></trkpt><trkpt lat="39.3238604" lon="9.407785"><ele>354.66666666666663</ele><time>2026-04-18T13:13:17.3Z</time></trkpt><trkpt lat="39.323848" lon="9.4080229"><ele>351.3333333333333</ele><time>2026-04-18T13:13:19.298Z</time></trkpt><trkpt lat="39.3238603" lon="9.408118"><ele>348.0</ele><time>2026-04-18T13:13:20.299Z</time></trkpt><trkpt lat="39.3240336" lon="9.408265"><ele>339.5</ele><time>2026-04-18T13:13:21.3Z</time></trkpt><trkpt lat="39.3240368" lon="9.4084021"><ele>331.0</ele><time>2026-04-18T13:13:22.298Z</time></trkpt><trkpt lat="39.3240429" lon="9.4085279"><ele>322.5</ele><time>2026-04-18T13:13:23.298Z</time></trkpt><trkpt lat="39.3239884" lon="9.4086904"><ele>314.0</ele><time>2026-04-18T13:13:24.298Z</time></trkpt><trkpt lat="39.3239285" lon="9.4088711"><ele>324.5</ele><time>2026-04-18T13:13:25.299Z</time></trkpt><trkpt lat="39.3238472" lon="9.4090537"><ele>335.0</ele><time>2026-04-18T13:13:26.299Z</time></trkpt><trkpt lat="39.3237794" lon="9.4092167"><ele>345.5</ele><time>2026-04-18T13:13:27.299Z</time></trkpt><trkpt lat="39.3237425" lon="9.409375"><ele>356.0</ele><time>2026-04-18T13:13:28.299Z</time></trkpt><trkpt lat="39.3237505" lon="9.4095588"><ele>355.33333333333337</ele><time>2026-04-18T13:13:29.299Z</time></trkpt><trkpt lat="39.3237747" lon="9.4097776"><ele>354.6666666666667</ele><time>2026-04-18T13:13:30.299Z</time></trkpt><trkpt lat="39.3238128" lon="9.4099952"><ele>354.0</ele><time>2026-04-18T13:13:31.299Z</time></trkpt><trkpt lat="39.3238489" lon="9.4101965"><ele>345.25</ele><time>2026-04-18T13:13:32.299Z</time></trkpt><trkpt lat="39.3238971" lon="9.4103713"><ele>336.5</ele><time>2026-04-18T13:13:33.299Z</time></trkpt><trkpt lat="39.3239736" lon="9.4105149"><ele>327.75</ele><time>2026-04-18T13:13:34.299Z</time></trkpt><trkpt lat="39.324075" lon="9.4106246"><ele>319.0</ele><time>2026-04-18T13:13:35.299Z</time></trkpt><trkpt lat="39.3242182" lon="9.4106999"><ele>319.0</ele><time>2026-04-18T13:13:36.299Z</time></trkpt><trkpt lat="39.3243586" lon="9.4107601"><ele>319.0</ele><time>2026-04-18T13:13:37.299Z</time></trkpt><trkpt lat="39.3244895" lon="9.4108119"><ele>319.0</ele><time>2026-04-18T13:13:38.299Z</time></trkpt><trkpt lat="39.3246133" lon="9.4108602"><ele>319.0</ele><time>2026-04-18T13:13:39.299Z</time></trkpt><trkpt lat="39.3246901" lon="9.410968"><ele>315.0</ele><time>2026-04-18T13:13:40.299Z</time></trkpt><trkpt lat="39.3247662" lon="9.4111081"><ele>311.0</ele><time>2026-04-18T13:13:41.3Z</time></trkpt><trkpt lat="39.3248365" lon="9.4112796"><ele>307.0</ele><time>2026-04-18T13:13:42.299Z</time></trkpt><trkpt lat="39.3249262" lon="9.4114351"><ele>303.0</ele><time>2026-04-18T13:13:43.298Z</time></trkpt><trkpt lat="39.325022" lon="9.4115734"><ele>303.0</ele><time>2026-04-18T13:13:44.298Z</time></trkpt><trkpt lat="39.3251084" lon="9.4117005"><ele>303.0</ele><time>2026-04-18T13:13:45.299Z</time></trkpt><trkpt lat="39.3251858" lon="9.4118171"><ele>303.0</ele><time>2026-04-18T13:13:46.299Z</time></trkpt><trkpt lat="39.3252412" lon="9.4119308"><ele>303.0</ele><time>2026-04-18T13:13:47.299Z</time></trkpt><trkpt lat="39.3252609" lon="9.4120483"><ele>303.0</ele><time>2026-04-18T13:13:48.299Z</time></trkpt><trkpt lat="39.3252419" lon="9.4121469"><ele>301.6</ele><time>2026-04-18T13:13:49.3Z</time></trkpt><trkpt lat="39.3251825" lon="9.4122252"><ele>300.20000000000005</ele><time>2026-04-18T13:13:50.299Z</time></trkpt><trkpt lat="39.3250834" lon="9.412278"><ele>298.8</ele><time>2026-04-18T13:13:51.3Z</time></trkpt><trkpt lat="39.3249578" lon="9.4123326"><ele>297.40000000000003</ele><time>2026-04-18T13:13:52.299Z</time></trkpt><trkpt lat="39.3248514" lon="9.4123965"><ele>296.0</ele><time>2026-04-18T13:13:53.299Z</time></trkpt><trkpt lat="39.3247563" lon="9.4124671"><ele>295.0</ele><time>2026-04-18T13:13:54.298Z</time></trkpt><trkpt lat="39.3246768" lon="9.4125499"><ele>294.0</ele><time>2026-04-18T13:13:55.299Z</time></trkpt><trkpt lat="39.324603" lon="9.4126667"><ele>293.0</ele><time>2026-04-18T13:13:56.298Z</time></trkpt><trkpt lat="39.3246039" lon="9.4127898"><ele>292.0</ele><time>2026-04-18T13:13:57.299Z</time></trkpt><trkpt lat="39.3246406" lon="9.4129443"><ele>291.0</ele><time>2026-04-18T13:13:58.299Z</time></trkpt><trkpt lat="39.3248496" lon="9.4131606"><ele>291.0</ele><time>2026-04-18T13:13:59.3Z</time></trkpt><trkpt lat="39.3249086" lon="9.4133456"><ele>291.0</ele><time>2026-04-18T13:14:00.3Z</time></trkpt><trkpt lat="39.3249489" lon="9.4135623"><ele>291.0</ele><time>2026-04-18T13:14:01.298Z</time></trkpt><trkpt lat="39.3249683" lon="9.4137866"><ele>292.6666666666667</ele><time>2026-04-18T13:14:02.299Z</time></trkpt><trkpt lat="39.3249881" lon="9.4139827"><ele>294.33333333333337</ele><time>2026-04-18T13:14:03.298Z</time></trkpt><trkpt lat="39.3250422" lon="9.4141662"><ele>296.0</ele><time>2026-04-18T13:14:04.299Z</time></trkpt><trkpt lat="39.3251406" lon="9.4143275"><ele>296.0</ele><time>2026-04-18T13:14:05.299Z</time></trkpt><trkpt lat="39.3252342" lon="9.4144641"><ele>296.0</ele><time>2026-04-18T13:14:06.299Z</time></trkpt><trkpt lat="39.3253162" lon="9.4145874"><ele>296.0</ele><time>2026-04-18T13:14:07.299Z</time></trkpt><trkpt lat="39.3253742" lon="9.4147358"><ele>296.0</ele><time>2026-04-18T13:14:08.299Z</time></trkpt><trkpt lat="39.3253745" lon="9.4148992"><ele>297.75</ele><time>2026-04-18T13:14:09.299Z</time></trkpt><trkpt lat="39.3253427" lon="9.4150497"><ele>299.5</ele><time>2026-04-18T13:14:10.299Z</time></trkpt><trkpt lat="39.3253137" lon="9.4151949"><ele>301.25</ele><time>2026-04-18T13:14:11.3Z</time></trkpt><trkpt lat="39.3253222" lon="9.4153551"><ele>303.0</ele><time>2026-04-18T13:14:12.299Z</time></trkpt><trkpt lat="39.3253786" lon="9.4155532"><ele>304.6666666666667</ele><time>2026-04-18T13:14:13.299Z</time></trkpt><trkpt lat="39.3254391" lon="9.415755"><ele>306.33333333333337</ele><time>2026-04-18T13:14:14.299Z</time></trkpt><trkpt lat="39.3255084" lon="9.4159435"><ele>308.0</ele><time>2026-04-18T13:14:15.299Z</time></trkpt><trkpt lat="39.3255967" lon="9.4161269"><ele>300.0</ele><time>2026-04-18T13:14:16.299Z</time></trkpt><trkpt lat="39.3257075" lon="9.4163047"><ele>292.0</ele><time>2026-04-18T13:14:17.299Z</time></trkpt><trkpt lat="39.325822" lon="9.4164617"><ele>284.0</ele><time>2026-04-18T13:14:18.299Z</time></trkpt><trkpt lat="39.3259335" lon="9.4166098"><ele>284.0</ele><time>2026-04-18T13:14:19.299Z</time></trkpt><trkpt lat="39.3260348" lon="9.416757"><ele>284.0</ele><time>2026-04-18T13:14:20.299Z</time></trkpt><trkpt lat="39.3261332" lon="9.4168978"><ele>284.0</ele><time>2026-04-18T13:14:21.298Z</time></trkpt><trkpt lat="39.326231" lon="9.4170296"><ele>284.0</ele><time>2026-04-18T13:14:22.298Z</time></trkpt><trkpt lat="39.326335" lon="9.4171425"><ele>282.25</ele><time>2026-04-18T13:14:23.299Z</time></trkpt><trkpt lat="39.3264511" lon="9.4172337"><ele>280.5</ele><time>2026-04-18T13:14:24.299Z</time></trkpt><trkpt lat="39.3265671" lon="9.4172873"><ele>278.75</ele><time>2026-04-18T13:14:25.298Z</time></trkpt><trkpt lat="39.3266994" lon="9.4173054"><ele>277.0</ele><time>2026-04-18T13:14:26.299Z</time></trkpt><trkpt lat="39.3269046" lon="9.4172741"><ele>277.0</ele><time>2026-04-18T13:14:27.299Z</time></trkpt><trkpt lat="39.3270619" lon="9.4172627"><ele>277.0</ele><time>2026-04-18T13:14:28.299Z</time></trkpt><trkpt lat="39.3271831" lon="9.417271"><ele>277.0</ele><time>2026-04-18T13:14:29.299Z</time></trkpt><trkpt lat="39.3272864" lon="9.4173257"><ele>277.0</ele><time>2026-04-18T13:14:30.299Z</time></trkpt><trkpt lat="39.3273594" lon="9.4174235"><ele>272.5</ele><time>2026-04-18T13:14:31.299Z</time></trkpt><trkpt lat="39.3274025" lon="9.4175627"><ele>268.0</ele><time>2026-04-18T13:14:32.298Z</time></trkpt><trkpt lat="39.3274087" lon="9.4177309"><ele>263.5</ele><time>2026-04-18T13:14:33.299Z</time></trkpt><trkpt lat="39.327386" lon="9.417887"><ele>259.0</ele><time>2026-04-18T13:14:34.299Z</time></trkpt><trkpt lat="39.3273198" lon="9.4180645"><ele>265.66666666666663</ele><time>2026-04-18T13:14:35.3Z</time></trkpt><trkpt lat="39.3272172" lon="9.4182451"><ele>272.3333333333333</ele><time>2026-04-18T13:14:36.299Z</time></trkpt><trkpt lat="39.3271071" lon="9.4184159"><ele>279.0</ele><time>2026-04-18T13:14:37.299Z</time></trkpt><trkpt lat="39.326997" lon="9.4185826"><ele>279.0</ele><time>2026-04-18T13:14:38.299Z</time></trkpt><trkpt lat="39.326886" lon="9.4187448"><ele>279.0</ele><time>2026-04-18T13:14:39.3Z</time></trkpt><trkpt lat="39.3267704" lon="9.4189095"><ele>279.0</ele><time>2026-04-18T13:14:40.299Z</time></trkpt><trkpt lat="39.3266589" lon="9.4190734"><ele>274.0</ele><time>2026-04-18T13:14:41.299Z</time></trkpt><trkpt lat="39.3265573" lon="9.4192349"><ele>269.0</ele><time>2026-04-18T13:14:42.299Z</time></trkpt><trkpt lat="39.3264719" lon="9.419407"><ele>264.0</ele><time>2026-04-18T13:14:43.299Z</time></trkpt><trkpt lat="39.3264117" lon="9.419592"><ele>267.6666666666667</ele><time>2026-04-18T13:14:44.298Z</time></trkpt><trkpt lat="39.3263841" lon="9.4197965"><ele>271.33333333333337</ele><time>2026-04-18T13:14:45.299Z</time></trkpt><trkpt lat="39.3263853" lon="9.4200138"><ele>275.0</ele><time>2026-04-18T13:14:46.299Z</time></trkpt><trkpt lat="39.3264252" lon="9.4202419"><ele>270.6666666666667</ele><time>2026-04-18T13:14:47.298Z</time></trkpt><trkpt lat="39.3264798" lon="9.4204607"><ele>266.3333333333333</ele><time>2026-04-18T13:14:48.299Z</time></trkpt><trkpt lat="39.3265402" lon="9.4206634"><ele>262.0</ele><time>2026-04-18T13:14:49.299Z</time></trkpt><trkpt lat="39.3266172" lon="9.4208414"><ele>262.0</ele><time>2026-04-18T13:14:50.299Z</time></trkpt><trkpt lat="39.3267239" lon="9.4210002"><ele>262.0</ele><time>2026-04-18T13:14:51.299Z</time></trkpt><trkpt lat="39.326843" lon="9.4211446"><ele>262.0</ele><time>2026-04-18T13:14:52.299Z</time></trkpt><trkpt lat="39.3269619" lon="9.4212743"><ele>263.5</ele><time>2026-04-18T13:14:53.3Z</time></trkpt><trkpt lat="39.3270688" lon="9.4213918"><ele>265.0</ele><time>2026-04-18T13:14:54.3Z</time></trkpt><trkpt lat="39.3271615" lon="9.4214914"><ele>266.5</ele><time>2026-04-18T13:14:55.299Z</time></trkpt><trkpt lat="39.327235" lon="9.4215971"><ele>268.0</ele><time>2026-04-18T13:14:56.3Z</time></trkpt><trkpt lat="39.3272766" lon="9.4217166"><ele>268.0</ele><time>2026-04-18T13:14:57.299Z</time></trkpt><trkpt lat="39.3272731" lon="9.4218457"><ele>268.0</ele><time>2026-04-18T13:14:58.299Z</time></trkpt><trkpt lat="39.3272289" lon="9.4219729"><ele>268.0</ele><time>2026-04-18T13:14:59.299Z</time></trkpt><trkpt lat="39.3271373" lon="9.4220993"><ele>268.0</ele><time>2026-04-18T13:15:00.298Z</time></trkpt><trkpt lat="39.3270178" lon="9.4222231"><ele>263.0</ele><time>2026-04-18T13:15:01.299Z</time></trkpt><trkpt lat="39.3268698" lon="9.4223468"><ele>258.0</ele><time>2026-04-18T13:15:02.299Z</time></trkpt><trkpt lat="39.3267026" lon="9.4224743"><ele>253.0</ele><time>2026-04-18T13:15:03.299Z</time></trkpt><trkpt lat="39.3265328" lon="9.4226017"><ele>262.3333333333333</ele><time>2026-04-18T13:15:04.299Z</time></trkpt><trkpt lat="39.32638" lon="9.4227238"><ele>271.6666666666667</ele><time>2026-04-18T13:15:05.3Z</time></trkpt><trkpt lat="39.3262331" lon="9.422843"><ele>281.0</ele><time>2026-04-18T13:15:06.3Z</time></trkpt><trkpt lat="39.326096" lon="9.4229545"><ele>276.0</ele><time>2026-04-18T13:15:07.298Z</time></trkpt><trkpt lat="39.3259675" lon="9.4230703"><ele>271.0</ele><time>2026-04-18T13:15:08.299Z</time></trkpt><trkpt lat="39.3258621" lon="9.4231957"><ele>266.0</ele><time>2026-04-18T13:15:09.298Z</time></trkpt><trkpt lat="39.3257917" lon="9.4233413"><ele>261.0</ele><time>2026-04-18T13:15:10.299Z</time></trkpt><trkpt lat="39.3257646" lon="9.4234952"><ele>261.0</ele><time>2026-04-18T13:15:11.299Z</time></trkpt><trkpt lat="39.3257503" lon="9.4236515"><ele>261.0</ele><time>2026-04-18T13:15:12.3Z</time></trkpt><trkpt lat="39.3258411" lon="9.4238328"><ele>261.0</ele><time>2026-04-18T13:15:13.299Z</time></trkpt><trkpt lat="39.325935" lon="9.4239963"><ele>261.0</ele><time>2026-04-18T13:15:14.299Z</time></trkpt><trkpt lat="39.3260194" lon="9.4241738"><ele>256.6666666666667</ele><time>2026-04-18T13:15:15.299Z</time></trkpt><trkpt lat="39.3260698" lon="9.4243719"><ele>252.33333333333334</ele><time>2026-04-18T13:15:16.299Z</time></trkpt><trkpt lat="39.3261021" lon="9.4245769"><ele>248.0</ele><time>2026-04-18T13:15:17.299Z</time></trkpt><trkpt lat="39.3261157" lon="9.4247898"><ele>246.0</ele><time>2026-04-18T13:15:18.298Z</time></trkpt><trkpt lat="39.3261201" lon="9.4250036"><ele>244.0</ele><time>2026-04-18T13:15:19.299Z</time></trkpt><trkpt lat="39.3261205" lon="9.4252084"><ele>242.0</ele><time>2026-04-18T13:15:20.299Z</time></trkpt><trkpt lat="39.3261075" lon="9.4254056"><ele>241.0</ele><time>2026-04-18T13:15:21.299Z</time></trkpt><trkpt lat="39.3261014" lon="9.425588"><ele>240.0</ele><time>2026-04-18T13:15:22.299Z</time></trkpt><trkpt lat="39.3261014" lon="9.4257574"><ele>239.0</ele><time>2026-04-18T13:15:23.299Z</time></trkpt><trkpt lat="39.3261066" lon="9.425916"><ele>238.0</ele><time>2026-04-18T13:15:24.298Z</time></trkpt><trkpt lat="39.3261361" lon="9.4260586"><ele>238.0</ele><time>2026-04-18T13:15:25.299Z</time></trkpt><trkpt lat="39.3261986" lon="9.4261822"><ele>238.0</ele><time>2026-04-18T13:15:26.298Z</time></trkpt><trkpt lat="39.3262851" lon="9.426267"><ele>238.0</ele><time>2026-04-18T13:15:27.299Z</time></trkpt><trkpt lat="39.3263855" lon="9.4263134"><ele>238.0</ele><time>2026-04-18T13:15:28.298Z</time></trkpt><trkpt lat="39.3264817" lon="9.4263166"><ele>238.0</ele><time>2026-04-18T13:15:29.299Z</time></trkpt><trkpt lat="39.3265911" lon="9.4262156"><ele>240.8</ele><time>2026-04-18T13:15:30.297Z</time></trkpt><trkpt lat="39.3266909" lon="9.4261685"><ele>243.60000000000002</ele><time>2026-04-18T13:15:31.298Z</time></trkpt><trkpt lat="39.3267862" lon="9.4261197"><ele>246.39999999999998</ele><time>2026-04-18T13:15:32.298Z</time></trkpt><trkpt lat="39.3268841" lon="9.4260994"><ele>249.2</ele><time>2026-04-18T13:15:33.297Z</time></trkpt><trkpt lat="39.3269739" lon="9.4260982"><ele>252.0</ele><time>2026-04-18T13:15:34.298Z</time></trkpt><trkpt lat="39.3270854" lon="9.4261066"><ele>252.0</ele><time>2026-04-18T13:15:35.298Z</time></trkpt><trkpt lat="39.3272065" lon="9.4261699"><ele>252.0</ele><time>2026-04-18T13:15:36.299Z</time></trkpt><trkpt lat="39.3273207" lon="9.4262283"><ele>252.0</ele><time>2026-04-18T13:15:37.298Z</time></trkpt><trkpt lat="39.3274485" lon="9.426267"><ele>252.0</ele><time>2026-04-18T13:15:38.298Z</time></trkpt><trkpt lat="39.3275839" lon="9.4263167"><ele>249.25</ele><time>2026-04-18T13:15:39.298Z</time></trkpt><trkpt lat="39.3277264" lon="9.4263665"><ele>246.5</ele><time>2026-04-18T13:15:40.299Z</time></trkpt><trkpt lat="39.327856" lon="9.4264098"><ele>243.75</ele><time>2026-04-18T13:15:41.297Z</time></trkpt><trkpt lat="39.3279778" lon="9.4264868"><ele>241.0</ele><time>2026-04-18T13:15:42.297Z</time></trkpt><trkpt lat="39.3280711" lon="9.4266016"><ele>241.0</ele><time>2026-04-18T13:15:43.298Z</time></trkpt><trkpt lat="39.3281514" lon="9.4267438"><ele>241.0</ele><time>2026-04-18T13:15:44.298Z</time></trkpt><trkpt lat="39.3282259" lon="9.4268973"><ele>241.0</ele><time>2026-04-18T13:15:45.298Z</time></trkpt><trkpt lat="39.3282575" lon="9.4270607"><ele>241.0</ele><time>2026-04-18T13:15:46.299Z</time></trkpt><trkpt lat="39.3283241" lon="9.4272033"><ele>235.33333333333331</ele><time>2026-04-18T13:15:47.298Z</time></trkpt><trkpt lat="39.3283969" lon="9.4273402"><ele>229.66666666666669</ele><time>2026-04-18T13:15:48.298Z</time></trkpt><trkpt lat="39.3285085" lon="9.4274518"><ele>224.0</ele><time>2026-04-18T13:15:49.298Z</time></trkpt><trkpt lat="39.3287584" lon="9.4275622"><ele>227.66666666666669</ele><time>2026-04-18T13:15:50.298Z</time></trkpt><trkpt lat="39.3289403" lon="9.4276785"><ele>231.33333333333331</ele><time>2026-04-18T13:15:51.298Z</time></trkpt><trkpt lat="39.3291273" lon="9.4278061"><ele>235.0</ele><time>2026-04-18T13:15:52.299Z</time></trkpt><trkpt lat="39.3293079" lon="9.427952"><ele>231.0</ele><time>2026-04-18T13:15:53.297Z</time></trkpt><trkpt lat="39.3294787" lon="9.4280938"><ele>227.0</ele><time>2026-04-18T13:15:54.299Z</time></trkpt><trkpt lat="39.3296464" lon="9.428228"><ele>223.0</ele><time>2026-04-18T13:15:55.298Z</time></trkpt><trkpt lat="39.329804" lon="9.4283563"><ele>222.33333333333331</ele><time>2026-04-18T13:15:56.298Z</time></trkpt><trkpt lat="39.3299581" lon="9.4284894"><ele>221.66666666666669</ele><time>2026-04-18T13:15:57.298Z</time></trkpt><trkpt lat="39.3301038" lon="9.4286192"><ele>221.0</ele><time>2026-04-18T13:15:58.298Z</time></trkpt><trkpt lat="39.3302456" lon="9.4287355"><ele>220.66666666666669</ele><time>2026-04-18T13:15:59.299Z</time></trkpt><trkpt lat="39.3303946" lon="9.4288272"><ele>220.33333333333331</ele><time>2026-04-18T13:16:00.298Z</time></trkpt><trkpt lat="39.3305623" lon="9.4288931"><ele>220.0</ele><time>2026-04-18T13:16:01.299Z</time></trkpt><trkpt lat="39.3307459" lon="9.4289315"><ele>218.33333333333331</ele><time>2026-04-18T13:16:02.298Z</time></trkpt><trkpt lat="39.3309429" lon="9.4289615"><ele>216.66666666666669</ele><time>2026-04-18T13:16:03.297Z</time></trkpt><trkpt lat="39.3311386" lon="9.4289849"><ele>215.0</ele><time>2026-04-18T13:16:04.298Z</time></trkpt><trkpt lat="39.3313292" lon="9.4290115"><ele>215.33333333333334</ele><time>2026-04-18T13:16:05.298Z</time></trkpt><trkpt lat="39.3315105" lon="9.4290389"><ele>215.66666666666669</ele><time>2026-04-18T13:16:06.297Z</time></trkpt><trkpt lat="39.3316903" lon="9.429065"><ele>216.0</ele><time>2026-04-18T13:16:07.298Z</time></trkpt><trkpt lat="39.331861" lon="9.4290943"><ele>216.0</ele><time>2026-04-18T13:16:08.298Z</time></trkpt><trkpt lat="39.3320275" lon="9.4291234"><ele>216.0</ele><time>2026-04-18T13:16:09.298Z</time></trkpt><trkpt lat="39.3321861" lon="9.4291446"><ele>216.0</ele><time>2026-04-18T13:16:10.298Z</time></trkpt><trkpt lat="39.3323254" lon="9.4291641"><ele>215.75</ele><time>2026-04-18T13:16:11.298Z</time></trkpt><trkpt lat="39.3324547" lon="9.4291841"><ele>215.5</ele><time>2026-04-18T13:16:12.299Z</time></trkpt><trkpt lat="39.3325721" lon="9.4292069"><ele>215.25</ele><time>2026-04-18T13:16:13.298Z</time></trkpt><trkpt lat="39.3326765" lon="9.4292675"><ele>215.0</ele><time>2026-04-18T13:16:14.299Z</time></trkpt><trkpt lat="39.3327585" lon="9.4293633"><ele>215.0</ele><time>2026-04-18T13:16:15.298Z</time></trkpt><trkpt lat="39.3328233" lon="9.4294997"><ele>215.0</ele><time>2026-04-18T13:16:16.297Z</time></trkpt><trkpt lat="39.3328655" lon="9.4296612"><ele>215.0</ele><time>2026-04-18T13:16:17.298Z</time></trkpt><trkpt lat="39.3328719" lon="9.4298627"><ele>215.0</ele><time>2026-04-18T13:16:18.297Z</time></trkpt><trkpt lat="39.3328448" lon="9.4300871"><ele>214.66666666666669</ele><time>2026-04-18T13:16:19.298Z</time></trkpt><trkpt lat="39.3327978" lon="9.4303001"><ele>214.33333333333331</ele><time>2026-04-18T13:16:20.298Z</time></trkpt><trkpt lat="39.3327415" lon="9.4304867"><ele>214.0</ele><time>2026-04-18T13:16:21.298Z</time></trkpt><trkpt lat="39.3326875" lon="9.4306743"><ele>214.0</ele><time>2026-04-18T13:16:22.297Z</time></trkpt><trkpt lat="39.332651" lon="9.4308736"><ele>214.0</ele><time>2026-04-18T13:16:23.298Z</time></trkpt><trkpt lat="39.3326237" lon="9.4310789"><ele>214.0</ele><time>2026-04-18T13:16:24.298Z</time></trkpt><trkpt lat="39.3326135" lon="9.4312926"><ele>215.0</ele><time>2026-04-18T13:16:25.298Z</time></trkpt><trkpt lat="39.3326116" lon="9.4314999"><ele>216.0</ele><time>2026-04-18T13:16:26.298Z</time></trkpt><trkpt lat="39.3325996" lon="9.4316915"><ele>217.0</ele><time>2026-04-18T13:16:27.297Z</time></trkpt><trkpt lat="39.3325695" lon="9.4318711"><ele>217.0</ele><time>2026-04-18T13:16:28.298Z</time></trkpt><trkpt lat="39.3325349" lon="9.4320284"><ele>217.0</ele><time>2026-04-18T13:16:29.297Z</time></trkpt><trkpt lat="39.3325123" lon="9.4321777"><ele>217.0</ele><time>2026-04-18T13:16:30.297Z</time></trkpt><trkpt lat="39.33251" lon="9.4323269"><ele>217.0</ele><time>2026-04-18T13:16:31.298Z</time></trkpt><trkpt lat="39.3325365" lon="9.4324747"><ele>217.0</ele><time>2026-04-18T13:16:32.298Z</time></trkpt><trkpt lat="39.3326079" lon="9.4326252"><ele>217.0</ele><time>2026-04-18T13:16:33.298Z</time></trkpt><trkpt lat="39.3327123" lon="9.4327755"><ele>217.0</ele><time>2026-04-18T13:16:34.298Z</time></trkpt><trkpt lat="39.3328302" lon="9.432939"><ele>213.33333333333331</ele><time>2026-04-18T13:16:35.299Z</time></trkpt><trkpt lat="39.3329484" lon="9.4331115"><ele>209.66666666666669</ele><time>2026-04-18T13:16:36.298Z</time></trkpt><trkpt lat="39.3330665" lon="9.4332984"><ele>206.0</ele><time>2026-04-18T13:16:37.298Z</time></trkpt><trkpt lat="39.3331642" lon="9.4335029"><ele>208.0</ele><time>2026-04-18T13:16:38.297Z</time></trkpt><trkpt lat="39.3332573" lon="9.4337097"><ele>210.0</ele><time>2026-04-18T13:16:39.298Z</time></trkpt><trkpt lat="39.333378" lon="9.4339153"><ele>212.0</ele><time>2026-04-18T13:16:40.297Z</time></trkpt><trkpt lat="39.3335064" lon="9.434099"><ele>212.0</ele><time>2026-04-18T13:16:41.297Z</time></trkpt><trkpt lat="39.3336222" lon="9.4342768"><ele>212.0</ele><time>2026-04-18T13:16:42.298Z</time></trkpt><trkpt lat="39.3337242" lon="9.4344392"><ele>212.0</ele><time>2026-04-18T13:16:43.298Z</time></trkpt><trkpt lat="39.3338114" lon="9.4345737"><ele>209.75</ele><time>2026-04-18T13:16:44.298Z</time></trkpt><trkpt lat="39.3338773" lon="9.4347006"><ele>207.5</ele><time>2026-04-18T13:16:45.299Z</time></trkpt><trkpt lat="39.3339136" lon="9.4348332"><ele>205.25</ele><time>2026-04-18T13:16:46.298Z</time></trkpt><trkpt lat="39.3339266" lon="9.4349744"><ele>203.0</ele><time>2026-04-18T13:16:47.297Z</time></trkpt><trkpt lat="39.3339115" lon="9.4351213"><ele>203.0</ele><time>2026-04-18T13:16:48.298Z</time></trkpt><trkpt lat="39.3338751" lon="9.4352819"><ele>203.0</ele><time>2026-04-18T13:16:49.298Z</time></trkpt><trkpt lat="39.3338215" lon="9.4354421"><ele>203.0</ele><time>2026-04-18T13:16:50.298Z</time></trkpt><trkpt lat="39.3337743" lon="9.4356082"><ele>203.0</ele><time>2026-04-18T13:16:51.298Z</time></trkpt><trkpt lat="39.3337296" lon="9.4357894"><ele>203.0</ele><time>2026-04-18T13:16:52.298Z</time></trkpt><trkpt lat="39.3337092" lon="9.4359664"><ele>203.0</ele><time>2026-04-18T13:16:53.298Z</time></trkpt><trkpt lat="39.3336974" lon="9.4361393"><ele>203.0</ele><time>2026-04-18T13:16:54.298Z</time></trkpt><trkpt lat="39.3337379" lon="9.4363299"><ele>203.0</ele><time>2026-04-18T13:16:55.297Z</time></trkpt><trkpt lat="39.333804" lon="9.4365124"><ele>211.33333333333334</ele><time>2026-04-18T13:16:56.297Z</time></trkpt><trkpt lat="39.3338974" lon="9.4366838"><ele>219.66666666666669</ele><time>2026-04-18T13:16:57.298Z</time></trkpt><trkpt lat="39.3340111" lon="9.4368572"><ele>228.0</ele><time>2026-04-18T13:16:58.298Z</time></trkpt><trkpt lat="39.3341216" lon="9.4370414"><ele>218.0</ele><time>2026-04-18T13:16:59.298Z</time></trkpt><trkpt lat="39.3342293" lon="9.4372252"><ele>208.0</ele><time>2026-04-18T13:17:00.298Z</time></trkpt><trkpt lat="39.3343314" lon="9.4373996"><ele>198.0</ele><time>2026-04-18T13:17:01.299Z</time></trkpt><trkpt lat="39.3344218" lon="9.4375711"><ele>198.0</ele><time>2026-04-18T13:17:02.297Z</time></trkpt><trkpt lat="39.3344735" lon="9.4377534"><ele>198.0</ele><time>2026-04-18T13:17:03.298Z</time></trkpt><trkpt lat="39.3345014" lon="9.4379463"><ele>198.0</ele><time>2026-04-18T13:17:04.298Z</time></trkpt><trkpt lat="39.3345177" lon="9.4381298"><ele>198.0</ele><time>2026-04-18T13:17:05.298Z</time></trkpt><trkpt lat="39.3345311" lon="9.4383069"><ele>195.60000000000002</ele><time>2026-04-18T13:17:06.298Z</time></trkpt><trkpt lat="39.3345405" lon="9.4384794"><ele>193.20000000000002</ele><time>2026-04-18T13:17:07.298Z</time></trkpt><trkpt lat="39.3345482" lon="9.4386226"><ele>190.8</ele><time>2026-04-18T13:17:08.298Z</time></trkpt><trkpt lat="39.3345836" lon="9.4387425"><ele>188.4</ele><time>2026-04-18T13:17:09.298Z</time></trkpt><trkpt lat="39.3346512" lon="9.4388334"><ele>186.0</ele><time>2026-04-18T13:17:10.298Z</time></trkpt><trkpt lat="39.3347386" lon="9.4388845"><ele>182.0</ele><time>2026-04-18T13:17:11.298Z</time></trkpt><trkpt lat="39.3348366" lon="9.4389282"><ele>178.0</ele><time>2026-04-18T13:17:12.298Z</time></trkpt><trkpt lat="39.3349758" lon="9.4389513"><ele>174.0</ele><time>2026-04-18T13:17:13.298Z</time></trkpt><trkpt lat="39.3351995" lon="9.4389086"><ele>174.0</ele><time>2026-04-18T13:17:14.297Z</time></trkpt><trkpt lat="39.3353609" lon="9.4389318"><ele>174.0</ele><time>2026-04-18T13:17:15.298Z</time></trkpt><trkpt lat="39.3355223" lon="9.43896"><ele>174.0</ele><time>2026-04-18T13:17:16.298Z</time></trkpt><trkpt lat="39.3356925" lon="9.4389722"><ele>174.33333333333334</ele><time>2026-04-18T13:17:17.298Z</time></trkpt><trkpt lat="39.3358895" lon="9.4389304"><ele>174.66666666666669</ele><time>2026-04-18T13:17:18.298Z</time></trkpt><trkpt lat="39.3360811" lon="9.4389145"><ele>175.0</ele><time>2026-04-18T13:17:19.298Z</time></trkpt><trkpt lat="39.3362849" lon="9.4388998"><ele>174.66666666666669</ele><time>2026-04-18T13:17:20.297Z</time></trkpt><trkpt lat="39.3364801" lon="9.4388867"><ele>174.33333333333334</ele><time>2026-04-18T13:17:21.297Z</time></trkpt><trkpt lat="39.3366732" lon="9.4388755"><ele>174.0</ele><time>2026-04-18T13:17:22.298Z</time></trkpt><trkpt lat="39.3368651" lon="9.438882"><ele>174.0</ele><time>2026-04-18T13:17:23.298Z</time></trkpt><trkpt lat="39.3370515" lon="9.4388992"><ele>174.0</ele><time>2026-04-18T13:17:24.298Z</time></trkpt><trkpt lat="39.3372584" lon="9.4389616"><ele>174.0</ele><time>2026-04-18T13:17:25.299Z</time></trkpt><trkpt lat="39.3374517" lon="9.4390068"><ele>176.0</ele><time>2026-04-18T13:17:26.299Z</time></trkpt><trkpt lat="39.3376385" lon="9.439046"><ele>178.0</ele><time>2026-04-18T13:17:27.299Z</time></trkpt><trkpt lat="39.3378193" lon="9.439087"><ele>180.0</ele><time>2026-04-18T13:17:28.298Z</time></trkpt><trkpt lat="39.3379849" lon="9.4391318"><ele>182.33333333333334</ele><time>2026-04-18T13:17:29.298Z</time></trkpt><trkpt lat="39.3381415" lon="9.4392187"><ele>184.66666666666669</ele><time>2026-04-18T13:17:30.298Z</time></trkpt><trkpt lat="39.3382784" lon="9.4393341"><ele>187.0</ele><time>2026-04-18T13:17:31.298Z</time></trkpt><trkpt lat="39.3384149" lon="9.4394578"><ele>187.0</ele><time>2026-04-18T13:17:32.298Z</time></trkpt><trkpt lat="39.338558" lon="9.4395783"><ele>187.0</ele><time>2026-04-18T13:17:33.298Z</time></trkpt><trkpt lat="39.3387078" lon="9.4396765"><ele>187.0</ele><time>2026-04-18T13:17:34.297Z</time></trkpt><trkpt lat="39.3388518" lon="9.4397631"><ele>179.66666666666669</ele><time>2026-04-18T13:17:35.298Z</time></trkpt><trkpt lat="39.339039" lon="9.439791"><ele>172.33333333333334</ele><time>2026-04-18T13:17:36.297Z</time></trkpt><trkpt lat="39.3392162" lon="9.4398149"><ele>165.0</ele><time>2026-04-18T13:17:37.298Z</time></trkpt><trkpt lat="39.3393933" lon="9.4398125"><ele>165.0</ele><time>2026-04-18T13:17:38.299Z</time></trkpt><trkpt lat="39.339565" lon="9.4397962"><ele>165.0</ele><time>2026-04-18T13:17:39.298Z</time></trkpt><trkpt lat="39.3397313" lon="9.4397622"><ele>165.0</ele><time>2026-04-18T13:17:40.297Z</time></trkpt><trkpt lat="39.3398922" lon="9.4396653"><ele>166.75</ele><time>2026-04-18T13:17:41.297Z</time></trkpt><trkpt lat="39.3400393" lon="9.4395644"><ele>168.5</ele><time>2026-04-18T13:17:42.297Z</time></trkpt><trkpt lat="39.3401648" lon="9.4395104"><ele>170.25</ele><time>2026-04-18T13:17:43.297Z</time></trkpt><trkpt lat="39.3402724" lon="9.4394678"><ele>172.0</ele><time>2026-04-18T13:17:44.298Z</time></trkpt><trkpt lat="39.3403836" lon="9.439472"><ele>172.0</ele><time>2026-04-18T13:17:45.298Z</time></trkpt><trkpt lat="39.340492" lon="9.439537"><ele>172.0</ele><time>2026-04-18T13:17:46.298Z</time></trkpt><trkpt lat="39.3405938" lon="9.4396689"><ele>172.0</ele><time>2026-04-18T13:17:47.298Z</time></trkpt><trkpt lat="39.3407015" lon="9.4398408"><ele>172.0</ele><time>2026-04-18T13:17:48.298Z</time></trkpt><trkpt lat="39.3408199" lon="9.4400139"><ele>170.66666666666669</ele><time>2026-04-18T13:17:49.297Z</time></trkpt><trkpt lat="39.3409457" lon="9.4401622"><ele>169.33333333333334</ele><time>2026-04-18T13:17:50.298Z</time></trkpt><trkpt lat="39.3410931" lon="9.4402961"><ele>168.0</ele><time>2026-04-18T13:17:51.298Z</time></trkpt><trkpt lat="39.3412786" lon="9.4403921"><ele>165.66666666666666</ele><time>2026-04-18T13:17:52.298Z</time></trkpt><trkpt lat="39.341479" lon="9.4404587"><ele>163.33333333333331</ele><time>2026-04-18T13:17:53.299Z</time></trkpt><trkpt lat="39.3416957" lon="9.4405183"><ele>161.0</ele><time>2026-04-18T13:17:54.298Z</time></trkpt><trkpt lat="39.3419119" lon="9.4405794"><ele>161.0</ele><time>2026-04-18T13:17:55.298Z</time></trkpt><trkpt lat="39.3421146" lon="9.4406334"><ele>161.0</ele><time>2026-04-18T13:17:56.297Z</time></trkpt><trkpt lat="39.3423162" lon="9.4406847"><ele>161.0</ele><time>2026-04-18T13:17:57.298Z</time></trkpt><trkpt lat="39.3424872" lon="9.4407336"><ele>160.0</ele><time>2026-04-18T13:17:58.298Z</time></trkpt><trkpt lat="39.3426626" lon="9.4407793"><ele>159.0</ele><time>2026-04-18T13:17:59.297Z</time></trkpt><trkpt lat="39.3428078" lon="9.4408449"><ele>158.0</ele><time>2026-04-18T13:18:00.299Z</time></trkpt><trkpt lat="39.3429438" lon="9.4409459"><ele>160.0</ele><time>2026-04-18T13:18:01.297Z</time></trkpt><trkpt lat="39.3430503" lon="9.4410831"><ele>162.0</ele><time>2026-04-18T13:18:02.298Z</time></trkpt><trkpt lat="39.3431232" lon="9.4412557"><ele>164.0</ele><time>2026-04-18T13:18:03.299Z</time></trkpt><trkpt lat="39.3431722" lon="9.4414441"><ele>164.0</ele><time>2026-04-18T13:18:04.297Z</time></trkpt><trkpt lat="39.3432353" lon="9.4416188"><ele>164.0</ele><time>2026-04-18T13:18:05.298Z</time></trkpt><trkpt lat="39.3433202" lon="9.4417785"><ele>164.0</ele><time>2026-04-18T13:18:06.298Z</time></trkpt><trkpt lat="39.3434153" lon="9.4419202"><ele>164.0</ele><time>2026-04-18T13:18:07.298Z</time></trkpt><trkpt lat="39.3435408" lon="9.4420383"><ele>163.0</ele><time>2026-04-18T13:18:08.298Z</time></trkpt><trkpt lat="39.3436698" lon="9.4421543"><ele>162.0</ele><time>2026-04-18T13:18:09.297Z</time></trkpt><trkpt lat="39.3438613" lon="9.4423325"><ele>161.0</ele><time>2026-04-18T13:18:10.298Z</time></trkpt><trkpt lat="39.3439751" lon="9.4425117"><ele>161.0</ele><time>2026-04-18T13:18:11.298Z</time></trkpt><trkpt lat="39.3440851" lon="9.4426948"><ele>161.0</ele><time>2026-04-18T13:18:12.299Z</time></trkpt><trkpt lat="39.3442064" lon="9.4428697"><ele>161.0</ele><time>2026-04-18T13:18:13.298Z</time></trkpt><trkpt lat="39.3443355" lon="9.4430356"><ele>160.0</ele><time>2026-04-18T13:18:14.299Z</time></trkpt><trkpt lat="39.3444538" lon="9.4431809"><ele>159.0</ele><time>2026-04-18T13:18:15.298Z</time></trkpt><trkpt lat="39.3445692" lon="9.4433065"><ele>158.0</ele><time>2026-04-18T13:18:16.298Z</time></trkpt><trkpt lat="39.3446863" lon="9.443399"><ele>158.0</ele><time>2026-04-18T13:18:17.298Z</time></trkpt><trkpt lat="39.3447995" lon="9.4434925"><ele>158.0</ele><time>2026-04-18T13:18:18.297Z</time></trkpt><trkpt lat="39.3449287" lon="9.443529"><ele>158.0</ele><time>2026-04-18T13:18:19.297Z</time></trkpt><trkpt lat="39.3450208" lon="9.4436053"><ele>158.0</ele><time>2026-04-18T13:18:20.298Z</time></trkpt><trkpt lat="39.3450887" lon="9.4437151"><ele>156.5</ele><time>2026-04-18T13:18:21.298Z</time></trkpt><trkpt lat="39.3451481" lon="9.4438495"><ele>155.0</ele><time>2026-04-18T13:18:22.298Z</time></trkpt><trkpt lat="39.3451975" lon="9.4440113"><ele>153.5</ele><time>2026-04-18T13:18:23.298Z</time></trkpt><trkpt lat="39.3451984" lon="9.4441997"><ele>152.0</ele><time>2026-04-18T13:18:24.298Z</time></trkpt><trkpt lat="39.3452151" lon="9.4443719"><ele>152.0</ele><time>2026-04-18T13:18:25.298Z</time></trkpt><trkpt lat="39.3452205" lon="9.4445355"><ele>152.0</ele><time>2026-04-18T13:18:26.298Z</time></trkpt><trkpt lat="39.3452028" lon="9.4446988"><ele>152.0</ele><time>2026-04-18T13:18:27.298Z</time></trkpt><trkpt lat="39.3451843" lon="9.4448578"><ele>152.0</ele><time>2026-04-18T13:18:28.299Z</time></trkpt><trkpt lat="39.3451449" lon="9.4450232"><ele>152.79999999999998</ele><time>2026-04-18T13:18:29.298Z</time></trkpt><trkpt lat="39.3451185" lon="9.4451844"><ele>153.6</ele><time>2026-04-18T13:18:30.299Z</time></trkpt><trkpt lat="39.3450723" lon="9.4453168"><ele>154.39999999999998</ele><time>2026-04-18T13:18:31.297Z</time></trkpt><trkpt lat="39.3450081" lon="9.445429"><ele>155.2</ele><time>2026-04-18T13:18:32.299Z</time></trkpt><trkpt lat="39.3449512" lon="9.4455275"><ele>156.0</ele><time>2026-04-18T13:18:33.299Z</time></trkpt><trkpt lat="39.3448929" lon="9.4456401"><ele>157.25</ele><time>2026-04-18T13:18:34.297Z</time></trkpt><trkpt lat="39.3448632" lon="9.4457806"><ele>158.5</ele><time>2026-04-18T13:18:35.298Z</time></trkpt><trkpt lat="39.3448674" lon="9.4459509"><ele>159.75</ele><time>2026-04-18T13:18:36.297Z</time></trkpt><trkpt lat="39.344895" lon="9.4461394"><ele>161.0</ele><time>2026-04-18T13:18:37.299Z</time></trkpt><trkpt lat="39.3449322" lon="9.4463504"><ele>161.0</ele><time>2026-04-18T13:18:38.298Z</time></trkpt><trkpt lat="39.3449673" lon="9.4465652"><ele>161.0</ele><time>2026-04-18T13:18:39.298Z</time></trkpt><trkpt lat="39.3450066" lon="9.4467784"><ele>161.0</ele><time>2026-04-18T13:18:40.298Z</time></trkpt><trkpt lat="39.3450341" lon="9.4469989"><ele>160.66666666666666</ele><time>2026-04-18T13:18:41.298Z</time></trkpt><trkpt lat="39.3450403" lon="9.4472208"><ele>160.33333333333334</ele><time>2026-04-18T13:18:42.298Z</time></trkpt><trkpt lat="39.3450274" lon="9.4474462"><ele>160.0</ele><time>2026-04-18T13:18:43.298Z</time></trkpt><trkpt lat="39.3449953" lon="9.4476844"><ele>160.0</ele><time>2026-04-18T13:18:44.298Z</time></trkpt><trkpt lat="39.3449365" lon="9.4479167"><ele>160.0</ele><time>2026-04-18T13:18:45.298Z</time></trkpt><trkpt lat="39.3448713" lon="9.4481383"><ele>160.0</ele><time>2026-04-18T13:18:46.298Z</time></trkpt><trkpt lat="39.3448141" lon="9.4483324"><ele>163.66666666666669</ele><time>2026-04-18T13:18:47.298Z</time></trkpt><trkpt lat="39.3447471" lon="9.4485048"><ele>167.33333333333334</ele><time>2026-04-18T13:18:48.298Z</time></trkpt><trkpt lat="39.3446515" lon="9.4486489"><ele>171.0</ele><time>2026-04-18T13:18:49.297Z</time></trkpt><trkpt lat="39.3445262" lon="9.4487712"><ele>165.33333333333334</ele><time>2026-04-18T13:18:50.298Z</time></trkpt><trkpt lat="39.3443869" lon="9.4489054"><ele>159.66666666666669</ele><time>2026-04-18T13:18:51.299Z</time></trkpt><trkpt lat="39.3442475" lon="9.4490489"><ele>154.0</ele><time>2026-04-18T13:18:52.298Z</time></trkpt><trkpt lat="39.3441108" lon="9.4492054"><ele>154.0</ele><time>2026-04-18T13:18:53.299Z</time></trkpt><trkpt lat="39.3439728" lon="9.4493364"><ele>154.0</ele><time>2026-04-18T13:18:54.298Z</time></trkpt><trkpt lat="39.343837" lon="9.4494552"><ele>154.0</ele><time>2026-04-18T13:18:55.298Z</time></trkpt><trkpt lat="39.3437208" lon="9.4495608"><ele>152.5</ele><time>2026-04-18T13:18:56.298Z</time></trkpt><trkpt lat="39.3436252" lon="9.4496538"><ele>151.0</ele><time>2026-04-18T13:18:57.298Z</time></trkpt><trkpt lat="39.3435535" lon="9.4497607"><ele>149.5</ele><time>2026-04-18T13:18:58.299Z</time></trkpt><trkpt lat="39.3434923" lon="9.4498744"><ele>148.0</ele><time>2026-04-18T13:18:59.297Z</time></trkpt><trkpt lat="39.3435353" lon="9.4500776"><ele>148.0</ele><time>2026-04-18T13:19:00.298Z</time></trkpt><trkpt lat="39.3435528" lon="9.4502801"><ele>148.0</ele><time>2026-04-18T13:19:01.298Z</time></trkpt><trkpt lat="39.3435822" lon="9.450513"><ele>148.0</ele><time>2026-04-18T13:19:02.298Z</time></trkpt><trkpt lat="39.3436133" lon="9.4507668"><ele>147.0</ele><time>2026-04-18T13:19:03.299Z</time></trkpt><trkpt lat="39.3436488" lon="9.451026"><ele>146.0</ele><time>2026-04-18T13:19:04.298Z</time></trkpt><trkpt lat="39.3436955" lon="9.4512755"><ele>145.0</ele><time>2026-04-18T13:19:05.298Z</time></trkpt><trkpt lat="39.3437523" lon="9.4515127"><ele>144.33333333333334</ele><time>2026-04-18T13:19:06.297Z</time></trkpt><trkpt lat="39.3438181" lon="9.4517363"><ele>143.66666666666666</ele><time>2026-04-18T13:19:07.298Z</time></trkpt><trkpt lat="39.3438908" lon="9.4519421"><ele>143.0</ele><time>2026-04-18T13:19:08.297Z</time></trkpt><trkpt lat="39.3439712" lon="9.452131"><ele>143.0</ele><time>2026-04-18T13:19:09.299Z</time></trkpt><trkpt lat="39.3440505" lon="9.4522959"><ele>143.0</ele><time>2026-04-18T13:19:10.298Z</time></trkpt><trkpt lat="39.3441262" lon="9.4524362"><ele>143.0</ele><time>2026-04-18T13:19:11.297Z</time></trkpt><trkpt lat="39.3442026" lon="9.4525476"><ele>143.0</ele><time>2026-04-18T13:19:12.298Z</time></trkpt><trkpt lat="39.3442935" lon="9.452618"><ele>143.0</ele><time>2026-04-18T13:19:13.298Z</time></trkpt><trkpt lat="39.3444091" lon="9.4526623"><ele>143.0</ele><time>2026-04-18T13:19:14.298Z</time></trkpt><trkpt lat="39.3445248" lon="9.4526843"><ele>143.0</ele><time>2026-04-18T13:19:15.298Z</time></trkpt><trkpt lat="39.3447213" lon="9.4526847"><ele>143.0</ele><time>2026-04-18T13:19:16.298Z</time></trkpt><trkpt lat="39.34487" lon="9.4526772"><ele>144.66666666666666</ele><time>2026-04-18T13:19:17.298Z</time></trkpt><trkpt lat="39.3450313" lon="9.4526784"><ele>146.33333333333334</ele><time>2026-04-18T13:19:18.298Z</time></trkpt><trkpt lat="39.3451652" lon="9.4525501"><ele>148.0</ele><time>2026-04-18T13:19:19.298Z</time></trkpt><trkpt lat="39.3453074" lon="9.4524714"><ele>148.0</ele><time>2026-04-18T13:19:20.297Z</time></trkpt><trkpt lat="39.3454603" lon="9.452403"><ele>148.0</ele><time>2026-04-18T13:19:21.298Z</time></trkpt><trkpt lat="39.345625" lon="9.4523461"><ele>148.0</ele><time>2026-04-18T13:19:22.297Z</time></trkpt><trkpt lat="39.3457905" lon="9.4523077"><ele>144.0</ele><time>2026-04-18T13:19:23.298Z</time></trkpt><trkpt lat="39.345936" lon="9.452233"><ele>140.0</ele><time>2026-04-18T13:19:24.298Z</time></trkpt><trkpt lat="39.3460787" lon="9.4521553"><ele>136.0</ele><time>2026-04-18T13:19:25.298Z</time></trkpt><trkpt lat="39.346238" lon="9.4521064"><ele>145.33333333333334</ele><time>2026-04-18T13:19:26.297Z</time></trkpt><trkpt lat="39.3464168" lon="9.4520846"><ele>154.66666666666666</ele><time>2026-04-18T13:19:27.298Z</time></trkpt><trkpt lat="39.346605" lon="9.4520659"><ele>164.0</ele><time>2026-04-18T13:19:28.298Z</time></trkpt><trkpt lat="39.3467806" lon="9.4520525"><ele>164.0</ele><time>2026-04-18T13:19:29.298Z</time></trkpt><trkpt lat="39.34695" lon="9.4520369"><ele>164.0</ele><time>2026-04-18T13:19:30.298Z</time></trkpt><trkpt lat="39.3471107" lon="9.4520281"><ele>164.0</ele><time>2026-04-18T13:19:31.298Z</time></trkpt><trkpt lat="39.3472633" lon="9.452013"><ele>163.75</ele><time>2026-04-18T13:19:32.298Z</time></trkpt><trkpt lat="39.3474001" lon="9.4520086"><ele>163.5</ele><time>2026-04-18T13:19:33.298Z</time></trkpt><trkpt lat="39.3475324" lon="9.4520323"><ele>163.25</ele><time>2026-04-18T13:19:34.297Z</time></trkpt><trkpt lat="39.3476527" lon="9.4521016"><ele>163.0</ele><time>2026-04-18T13:19:35.298Z</time></trkpt><trkpt lat="39.3477713" lon="9.4522012"><ele>157.25</ele><time>2026-04-18T13:19:36.297Z</time></trkpt><trkpt lat="39.347882" lon="9.4522991"><ele>151.5</ele><time>2026-04-18T13:19:37.298Z</time></trkpt><trkpt lat="39.3479914" lon="9.4523895"><ele>145.75</ele><time>2026-04-18T13:19:38.298Z</time></trkpt><trkpt lat="39.3480968" lon="9.4524728"><ele>140.0</ele><time>2026-04-18T13:19:39.299Z</time></trkpt><trkpt lat="39.3481968" lon="9.4525475"><ele>140.0</ele><time>2026-04-18T13:19:40.298Z</time></trkpt><trkpt lat="39.3482738" lon="9.4526225"><ele>140.0</ele><time>2026-04-18T13:19:41.299Z</time></trkpt><trkpt lat="39.3483228" lon="9.4527155"><ele>140.0</ele><time>2026-04-18T13:19:42.299Z</time></trkpt><trkpt lat="39.3483413" lon="9.4528176"><ele>140.0</ele><time>2026-04-18T13:19:43.298Z</time></trkpt><trkpt lat="39.3483226" lon="9.4529251"><ele>140.0</ele><time>2026-04-18T13:19:44.297Z</time></trkpt><trkpt lat="39.3482841" lon="9.4530392"><ele>140.0</ele><time>2026-04-18T13:19:45.297Z</time></trkpt><trkpt lat="39.3482157" lon="9.4531651"><ele>140.25</ele><time>2026-04-18T13:19:46.297Z</time></trkpt><trkpt lat="39.3481467" lon="9.4532892"><ele>140.5</ele><time>2026-04-18T13:19:47.298Z</time></trkpt><trkpt lat="39.3480645" lon="9.4534094"><ele>140.75</ele><time>2026-04-18T13:19:48.299Z</time></trkpt><trkpt lat="39.3479918" lon="9.4535256"><ele>141.0</ele><time>2026-04-18T13:19:49.297Z</time></trkpt><trkpt lat="39.3479436" lon="9.4536501"><ele>139.5</ele><time>2026-04-18T13:19:50.299Z</time></trkpt><trkpt lat="39.3479169" lon="9.4537981"><ele>138.0</ele><time>2026-04-18T13:19:51.297Z</time></trkpt><trkpt lat="39.3478935" lon="9.4539309"><ele>136.5</ele><time>2026-04-18T13:19:52.298Z</time></trkpt><trkpt lat="39.3479561" lon="9.4541334"><ele>135.0</ele><time>2026-04-18T13:19:53.298Z</time></trkpt><trkpt lat="39.3479913" lon="9.4543004"><ele>135.0</ele><time>2026-04-18T13:19:54.298Z</time></trkpt><trkpt lat="39.3480323" lon="9.4544632"><ele>135.0</ele><time>2026-04-18T13:19:55.298Z</time></trkpt><trkpt lat="39.348076" lon="9.4546003"><ele>135.0</ele><time>2026-04-18T13:19:56.298Z</time></trkpt><trkpt lat="39.34815" lon="9.4547089"><ele>135.0</ele><time>2026-04-18T13:19:57.298Z</time></trkpt><trkpt lat="39.348252" lon="9.454802"><ele>134.25</ele><time>2026-04-18T13:19:58.298Z</time></trkpt><trkpt lat="39.3483471" lon="9.4548857"><ele>133.5</ele><time>2026-04-18T13:19:59.298Z</time></trkpt><trkpt lat="39.3484676" lon="9.4549537"><ele>132.75</ele><time>2026-04-18T13:20:00.297Z</time></trkpt><trkpt lat="39.3485722" lon="9.4550366"><ele>132.0</ele><time>2026-04-18T13:20:01.299Z</time></trkpt><trkpt lat="39.3486734" lon="9.4551362"><ele>132.0</ele><time>2026-04-18T13:20:02.297Z</time></trkpt><trkpt lat="39.3487802" lon="9.4552724"><ele>132.0</ele><time>2026-04-18T13:20:03.298Z</time></trkpt><trkpt lat="39.3489023" lon="9.4554445"><ele>132.0</ele><time>2026-04-18T13:20:04.298Z</time></trkpt><trkpt lat="39.3490324" lon="9.4556416"><ele>136.0</ele><time>2026-04-18T13:20:05.299Z</time></trkpt><trkpt lat="39.3491541" lon="9.4558554"><ele>140.0</ele><time>2026-04-18T13:20:06.298Z</time></trkpt><trkpt lat="39.3492656" lon="9.4560507"><ele>144.0</ele><time>2026-04-18T13:20:07.298Z</time></trkpt><trkpt lat="39.3493827" lon="9.456233"><ele>148.66666666666666</ele><time>2026-04-18T13:20:08.297Z</time></trkpt><trkpt lat="39.3495027" lon="9.4563921"><ele>153.33333333333331</ele><time>2026-04-18T13:20:09.299Z</time></trkpt><trkpt lat="39.3496168" lon="9.45653"><ele>158.0</ele><time>2026-04-18T13:20:10.298Z</time></trkpt><trkpt lat="39.34971" lon="9.4566736"><ele>158.0</ele><time>2026-04-18T13:20:11.298Z</time></trkpt><trkpt lat="39.3497844" lon="9.4568264"><ele>158.0</ele><time>2026-04-18T13:20:12.298Z</time></trkpt><trkpt lat="39.3498467" lon="9.456977"><ele>158.0</ele><time>2026-04-18T13:20:13.298Z</time></trkpt><trkpt lat="39.3498928" lon="9.4571209"><ele>158.0</ele><time>2026-04-18T13:20:14.299Z</time></trkpt><trkpt lat="39.3499144" lon="9.4572834"><ele>157.5</ele><time>2026-04-18T13:20:15.298Z</time></trkpt><trkpt lat="39.3499152" lon="9.4574533"><ele>157.0</ele><time>2026-04-18T13:20:16.298Z</time></trkpt><trkpt lat="39.3498877" lon="9.457635"><ele>156.5</ele><time>2026-04-18T13:20:17.299Z</time></trkpt><trkpt lat="39.3498473" lon="9.4578278"><ele>156.0</ele><time>2026-04-18T13:20:18.299Z</time></trkpt><trkpt lat="39.3498001" lon="9.458029"><ele>156.0</ele><time>2026-04-18T13:20:19.299Z</time></trkpt><trkpt lat="39.3497437" lon="9.4582347"><ele>156.0</ele><time>2026-04-18T13:20:20.297Z</time></trkpt><trkpt lat="39.3496749" lon="9.4584326"><ele>156.0</ele><time>2026-04-18T13:20:21.297Z</time></trkpt><trkpt lat="39.3495918" lon="9.4586212"><ele>147.0</ele><time>2026-04-18T13:20:22.299Z</time></trkpt><trkpt lat="39.3495059" lon="9.4587957"><ele>138.0</ele><time>2026-04-18T13:20:23.299Z</time></trkpt><trkpt lat="39.3494365" lon="9.4589655"><ele>129.0</ele><time>2026-04-18T13:20:24.299Z</time></trkpt><trkpt lat="39.3493855" lon="9.4591532"><ele>129.0</ele><time>2026-04-18T13:20:25.298Z</time></trkpt><trkpt lat="39.3493556" lon="9.4593518"><ele>129.0</ele><time>2026-04-18T13:20:26.298Z</time></trkpt><trkpt lat="39.3493492" lon="9.4595598"><ele>129.0</ele><time>2026-04-18T13:20:27.299Z</time></trkpt><trkpt lat="39.349347" lon="9.4597691"><ele>129.0</ele><time>2026-04-18T13:20:28.299Z</time></trkpt><trkpt lat="39.3493398" lon="9.459962"><ele>129.0</ele><time>2026-04-18T13:20:29.298Z</time></trkpt><trkpt lat="39.3493288" lon="9.4601468"><ele>129.0</ele><time>2026-04-18T13:20:30.299Z</time></trkpt><trkpt lat="39.3493485" lon="9.4603356"><ele>129.0</ele><time>2026-04-18T13:20:31.297Z</time></trkpt><trkpt lat="39.3493642" lon="9.4605165"><ele>127.25</ele><time>2026-04-18T13:20:32.298Z</time></trkpt><trkpt lat="39.3494229" lon="9.4606789"><ele>125.5</ele><time>2026-04-18T13:20:33.299Z</time></trkpt><trkpt lat="39.3494844" lon="9.4608216"><ele>123.75</ele><time>2026-04-18T13:20:34.298Z</time></trkpt><trkpt lat="39.3495581" lon="9.4609503"><ele>122.0</ele><time>2026-04-18T13:20:35.299Z</time></trkpt><trkpt lat="39.3496556" lon="9.4610524"><ele>123.75</ele><time>2026-04-18T13:20:36.298Z</time></trkpt><trkpt lat="39.349787" lon="9.4611461"><ele>125.5</ele><time>2026-04-18T13:20:37.298Z</time></trkpt><trkpt lat="39.3499303" lon="9.4612393"><ele>127.25</ele><time>2026-04-18T13:20:38.298Z</time></trkpt><trkpt lat="39.350038" lon="9.4613324"><ele>129.0</ele><time>2026-04-18T13:20:39.297Z</time></trkpt><trkpt lat="39.3501544" lon="9.4614215"><ele>129.0</ele><time>2026-04-18T13:20:40.298Z</time></trkpt><trkpt lat="39.3502518" lon="9.4615644"><ele>129.0</ele><time>2026-04-18T13:20:41.298Z</time></trkpt><trkpt lat="39.3503249" lon="9.4617318"><ele>129.0</ele><time>2026-04-18T13:20:42.298Z</time></trkpt><trkpt lat="39.3503849" lon="9.4619156"><ele>129.0</ele><time>2026-04-18T13:20:43.297Z</time></trkpt><trkpt lat="39.350447" lon="9.462108"><ele>129.0</ele><time>2026-04-18T13:20:44.298Z</time></trkpt><trkpt lat="39.3504976" lon="9.4622917"><ele>129.0</ele><time>2026-04-18T13:20:45.298Z</time></trkpt><trkpt lat="39.3505576" lon="9.4624606"><ele>134.25</ele><time>2026-04-18T13:20:46.299Z</time></trkpt><trkpt lat="39.3506292" lon="9.462615"><ele>139.5</ele><time>2026-04-18T13:20:47.298Z</time></trkpt><trkpt lat="39.3507008" lon="9.4627502"><ele>144.75</ele><time>2026-04-18T13:20:48.298Z</time></trkpt><trkpt lat="39.350754" lon="9.4628887"><ele>150.0</ele><time>2026-04-18T13:20:49.298Z</time></trkpt><trkpt lat="39.3507696" lon="9.4630265"><ele>150.0</ele><time>2026-04-18T13:20:50.297Z</time></trkpt><trkpt lat="39.3507475" lon="9.4631714"><ele>150.0</ele><time>2026-04-18T13:20:51.298Z</time></trkpt><trkpt lat="39.3507057" lon="9.4633322"><ele>150.0</ele><time>2026-04-18T13:20:52.298Z</time></trkpt><trkpt lat="39.3506547" lon="9.4635117"><ele>150.0</ele><time>2026-04-18T13:20:53.298Z</time></trkpt><trkpt lat="39.3506057" lon="9.4637207"><ele>152.33333333333334</ele><time>2026-04-18T13:20:54.298Z</time></trkpt><trkpt lat="39.350561" lon="9.4639326"><ele>154.66666666666669</ele><time>2026-04-18T13:20:55.298Z</time></trkpt><trkpt lat="39.350519" lon="9.464137"><ele>157.0</ele><time>2026-04-18T13:20:56.298Z</time></trkpt><trkpt lat="39.3504766" lon="9.4643356"><ele>149.75</ele><time>2026-04-18T13:20:57.299Z</time></trkpt><trkpt lat="39.3504341" lon="9.4645217"><ele>142.5</ele><time>2026-04-18T13:20:58.298Z</time></trkpt><trkpt lat="39.3503809" lon="9.464689"><ele>135.25</ele><time>2026-04-18T13:20:59.297Z</time></trkpt><trkpt lat="39.3502937" lon="9.4648287"><ele>128.0</ele><time>2026-04-18T13:21:00.298Z</time></trkpt><trkpt lat="39.3501511" lon="9.4649505"><ele>128.0</ele><time>2026-04-18T13:21:01.298Z</time></trkpt><trkpt lat="39.3499775" lon="9.4650613"><ele>128.0</ele><time>2026-04-18T13:21:02.298Z</time></trkpt><trkpt lat="39.3498018" lon="9.4651665"><ele>128.0</ele><time>2026-04-18T13:21:03.298Z</time></trkpt><trkpt lat="39.3496351" lon="9.46527"><ele>130.33333333333331</ele><time>2026-04-18T13:21:04.298Z</time></trkpt><trkpt lat="39.3494764" lon="9.4653695"><ele>132.66666666666666</ele><time>2026-04-18T13:21:05.297Z</time></trkpt><trkpt lat="39.3493279" lon="9.4654702"><ele>135.0</ele><time>2026-04-18T13:21:06.299Z</time></trkpt><trkpt lat="39.349181" lon="9.4655832"><ele>135.0</ele><time>2026-04-18T13:21:07.298Z</time></trkpt><trkpt lat="39.3490484" lon="9.4657183"><ele>135.0</ele><time>2026-04-18T13:21:08.299Z</time></trkpt><trkpt lat="39.3489255" lon="9.465855"><ele>135.0</ele><time>2026-04-18T13:21:09.297Z</time></trkpt><trkpt lat="39.3488052" lon="9.4659798"><ele>128.33333333333334</ele><time>2026-04-18T13:21:10.298Z</time></trkpt><trkpt lat="39.348667" lon="9.4660836"><ele>121.66666666666667</ele><time>2026-04-18T13:21:11.299Z</time></trkpt><trkpt lat="39.3485253" lon="9.4661734"><ele>115.0</ele><time>2026-04-18T13:21:12.298Z</time></trkpt><trkpt lat="39.3483941" lon="9.466264"><ele>123.0</ele><time>2026-04-18T13:21:13.298Z</time></trkpt><trkpt lat="39.3482715" lon="9.4663502"><ele>131.0</ele><time>2026-04-18T13:21:14.298Z</time></trkpt><trkpt lat="39.3481497" lon="9.4664178"><ele>139.0</ele><time>2026-04-18T13:21:15.297Z</time></trkpt><trkpt lat="39.3480125" lon="9.4664435"><ele>147.0</ele><time>2026-04-18T13:21:16.297Z</time></trkpt><trkpt lat="39.3478731" lon="9.4664152"><ele>148.5</ele><time>2026-04-18T13:21:17.297Z</time></trkpt><trkpt lat="39.3477607" lon="9.4663491"><ele>150.0</ele><time>2026-04-18T13:21:18.298Z</time></trkpt><trkpt lat="39.3476637" lon="9.4662472"><ele>151.5</ele><time>2026-04-18T13:21:19.297Z</time></trkpt><trkpt lat="39.347593" lon="9.4661178"><ele>153.0</ele><time>2026-04-18T13:21:20.297Z</time></trkpt><trkpt lat="39.347528" lon="9.4659863"><ele>150.25</ele><time>2026-04-18T13:21:21.298Z</time></trkpt><trkpt lat="39.3474427" lon="9.4658712"><ele>147.5</ele><time>2026-04-18T13:21:22.297Z</time></trkpt><trkpt lat="39.3473295" lon="9.4657933"><ele>144.75</ele><time>2026-04-18T13:21:23.297Z</time></trkpt><trkpt lat="39.3472145" lon="9.4657113"><ele>142.0</ele><time>2026-04-18T13:21:24.299Z</time></trkpt><trkpt lat="39.3470511" lon="9.4657043"><ele>142.0</ele><time>2026-04-18T13:21:25.297Z</time></trkpt><trkpt lat="39.3469026" lon="9.4656504"><ele>142.0</ele><time>2026-04-18T13:21:26.298Z</time></trkpt><trkpt lat="39.3467471" lon="9.4655753"><ele>142.0</ele><time>2026-04-18T13:21:27.298Z</time></trkpt><trkpt lat="39.3466045" lon="9.4655004"><ele>140.0</ele><time>2026-04-18T13:21:28.298Z</time></trkpt><trkpt lat="39.3464723" lon="9.465416"><ele>138.0</ele><time>2026-04-18T13:21:29.298Z</time></trkpt><trkpt lat="39.3463583" lon="9.4653185"><ele>136.0</ele><time>2026-04-18T13:21:30.297Z</time></trkpt><trkpt lat="39.3462643" lon="9.4652003"><ele>134.0</ele><time>2026-04-18T13:21:31.298Z</time></trkpt><trkpt lat="39.3462031" lon="9.4650614"><ele>134.0</ele><time>2026-04-18T13:21:32.298Z</time></trkpt><trkpt lat="39.3461719" lon="9.464916"><ele>134.0</ele><time>2026-04-18T13:21:33.298Z</time></trkpt><trkpt lat="39.3461371" lon="9.4647733"><ele>134.0</ele><time>2026-04-18T13:21:34.298Z</time></trkpt><trkpt lat="39.3460922" lon="9.4646576"><ele>134.0</ele><time>2026-04-18T13:21:35.297Z</time></trkpt><trkpt lat="39.3460297" lon="9.4645743"><ele>134.0</ele><time>2026-04-18T13:21:36.297Z</time></trkpt><trkpt lat="39.3459677" lon="9.4645003"><ele>134.0</ele><time>2026-04-18T13:21:37.297Z</time></trkpt><trkpt lat="39.3458856" lon="9.4644854"><ele>134.0</ele><time>2026-04-18T13:21:38.299Z</time></trkpt><trkpt lat="39.3457819" lon="9.4645052"><ele>134.0</ele><time>2026-04-18T13:21:39.298Z</time></trkpt><trkpt lat="39.3456023" lon="9.4646246"><ele>134.0</ele><time>2026-04-18T13:21:40.298Z</time></trkpt><trkpt lat="39.3455462" lon="9.4648403"><ele>127.5</ele><time>2026-04-18T13:21:41.298Z</time></trkpt><trkpt lat="39.3454527" lon="9.4649774"><ele>121.0</ele><time>2026-04-18T13:21:42.298Z</time></trkpt><trkpt lat="39.3453821" lon="9.4650925"><ele>114.5</ele><time>2026-04-18T13:21:43.299Z</time></trkpt><trkpt lat="39.3453363" lon="9.4652079"><ele>108.0</ele><time>2026-04-18T13:21:44.298Z</time></trkpt><trkpt lat="39.3453382" lon="9.465348"><ele>105.33333333333334</ele><time>2026-04-18T13:21:45.298Z</time></trkpt><trkpt lat="39.3453928" lon="9.4655096"><ele>102.66666666666667</ele><time>2026-04-18T13:21:46.297Z</time></trkpt><trkpt lat="39.3454828" lon="9.4656786"><ele>100.0</ele><time>2026-04-18T13:21:47.297Z</time></trkpt><trkpt lat="39.3455753" lon="9.4658387"><ele>111.66666666666667</ele><time>2026-04-18T13:21:48.299Z</time></trkpt><trkpt lat="39.3456535" lon="9.4660126"><ele>123.33333333333334</ele><time>2026-04-18T13:21:49.298Z</time></trkpt><trkpt lat="39.345701" lon="9.4662104"><ele>135.0</ele><time>2026-04-18T13:21:50.297Z</time></trkpt><trkpt lat="39.3457284" lon="9.4664411"><ele>135.0</ele><time>2026-04-18T13:21:51.298Z</time></trkpt><trkpt lat="39.3457408" lon="9.4666515"><ele>135.0</ele><time>2026-04-18T13:21:52.298Z</time></trkpt><trkpt lat="39.3457611" lon="9.4668363"><ele>135.0</ele><time>2026-04-18T13:21:53.298Z</time></trkpt><trkpt lat="39.3458088" lon="9.4670224"><ele>132.25</ele><time>2026-04-18T13:21:54.298Z</time></trkpt><trkpt lat="39.3458839" lon="9.4671785"><ele>129.5</ele><time>2026-04-18T13:21:55.299Z</time></trkpt><trkpt lat="39.3459429" lon="9.4673212"><ele>126.75</ele><time>2026-04-18T13:21:56.298Z</time></trkpt><trkpt lat="39.3459841" lon="9.4674491"><ele>124.0</ele><time>2026-04-18T13:21:57.298Z</time></trkpt><trkpt lat="39.3459775" lon="9.4675849"><ele>124.0</ele><time>2026-04-18T13:21:58.299Z</time></trkpt><trkpt lat="39.3459389" lon="9.4677135"><ele>124.0</ele><time>2026-04-18T13:21:59.298Z</time></trkpt><trkpt lat="39.3458497" lon="9.4678315"><ele>124.0</ele><time>2026-04-18T13:22:00.297Z</time></trkpt><trkpt lat="39.3457257" lon="9.4679566"><ele>124.0</ele><time>2026-04-18T13:22:01.298Z</time></trkpt><trkpt lat="39.3456184" lon="9.468073"><ele>118.0</ele><time>2026-04-18T13:22:02.298Z</time></trkpt><trkpt lat="39.345506" lon="9.4681852"><ele>112.0</ele><time>2026-04-18T13:22:03.298Z</time></trkpt><trkpt lat="39.3453962" lon="9.4682998"><ele>106.0</ele><time>2026-04-18T13:22:04.298Z</time></trkpt><trkpt lat="39.345298" lon="9.4684318"><ele>100.0</ele><time>2026-04-18T13:22:05.297Z</time></trkpt><trkpt lat="39.3452216" lon="9.468571"><ele>100.0</ele><time>2026-04-18T13:22:06.297Z</time></trkpt><trkpt lat="39.345163" lon="9.4687127"><ele>100.0</ele><time>2026-04-18T13:22:07.297Z</time></trkpt><trkpt lat="39.3451325" lon="9.4688634"><ele>100.0</ele><time>2026-04-18T13:22:08.298Z</time></trkpt><trkpt lat="39.3451444" lon="9.4690075"><ele>100.0</ele><time>2026-04-18T13:22:09.297Z</time></trkpt><trkpt lat="39.3452013" lon="9.4691247"><ele>101.0</ele><time>2026-04-18T13:22:10.297Z</time></trkpt><trkpt lat="39.3453028" lon="9.4692225"><ele>102.0</ele><time>2026-04-18T13:22:11.297Z</time></trkpt><trkpt lat="39.3454446" lon="9.4693218"><ele>103.0</ele><time>2026-04-18T13:22:12.298Z</time></trkpt><trkpt lat="39.345597" lon="9.4694237"><ele>105.33333333333334</ele><time>2026-04-18T13:22:13.298Z</time></trkpt><trkpt lat="39.3457444" lon="9.4695216"><ele>107.66666666666666</ele><time>2026-04-18T13:22:14.298Z</time></trkpt><trkpt lat="39.3458656" lon="9.4696468"><ele>110.0</ele><time>2026-04-18T13:22:15.298Z</time></trkpt><trkpt lat="39.345977" lon="9.4698041"><ele>110.0</ele><time>2026-04-18T13:22:16.298Z</time></trkpt><trkpt lat="39.3460786" lon="9.4699883"><ele>110.0</ele><time>2026-04-18T13:22:17.298Z</time></trkpt><trkpt lat="39.3461605" lon="9.4701787"><ele>110.0</ele><time>2026-04-18T13:22:18.298Z</time></trkpt><trkpt lat="39.3462332" lon="9.4703688"><ele>114.5</ele><time>2026-04-18T13:22:19.298Z</time></trkpt><trkpt lat="39.3463034" lon="9.4705466"><ele>119.0</ele><time>2026-04-18T13:22:20.299Z</time></trkpt><trkpt lat="39.3463717" lon="9.4707142"><ele>123.5</ele><time>2026-04-18T13:22:21.298Z</time></trkpt><trkpt lat="39.346426" lon="9.4708805"><ele>128.0</ele><time>2026-04-18T13:22:22.298Z</time></trkpt><trkpt lat="39.3464567" lon="9.4710603"><ele>128.0</ele><time>2026-04-18T13:22:23.299Z</time></trkpt><trkpt lat="39.3464637" lon="9.4712545"><ele>128.0</ele><time>2026-04-18T13:22:24.298Z</time></trkpt><trkpt lat="39.3464608" lon="9.4714478"><ele>128.0</ele><time>2026-04-18T13:22:25.298Z</time></trkpt><trkpt lat="39.3464653" lon="9.4716355"><ele>128.0</ele><time>2026-04-18T13:22:26.298Z</time></trkpt><trkpt lat="39.3464624" lon="9.4718161"><ele>125.25</ele><time>2026-04-18T13:22:27.299Z</time></trkpt><trkpt lat="39.3464388" lon="9.4719885"><ele>122.5</ele><time>2026-04-18T13:22:28.298Z</time></trkpt><trkpt lat="39.3464023" lon="9.4721592"><ele>119.75</ele><time>2026-04-18T13:22:29.298Z</time></trkpt><trkpt lat="39.3463612" lon="9.4723259"><ele>117.0</ele><time>2026-04-18T13:22:30.298Z</time></trkpt><trkpt lat="39.3463151" lon="9.472477"><ele>112.0</ele><time>2026-04-18T13:22:31.298Z</time></trkpt><trkpt lat="39.3462811" lon="9.4726168"><ele>106.99999999999999</ele><time>2026-04-18T13:22:32.299Z</time></trkpt><trkpt lat="39.346265" lon="9.4727453"><ele>102.0</ele><time>2026-04-18T13:22:33.298Z</time></trkpt><trkpt lat="39.346296" lon="9.4728788"><ele>97.0</ele><time>2026-04-18T13:22:34.298Z</time></trkpt><trkpt lat="39.3463682" lon="9.4730064"><ele>92.0</ele><time>2026-04-18T13:22:35.298Z</time></trkpt><trkpt lat="39.3464816" lon="9.4731483"><ele>92.0</ele><time>2026-04-18T13:22:36.298Z</time></trkpt><trkpt lat="39.3466058" lon="9.4732895"><ele>92.0</ele><time>2026-04-18T13:22:37.299Z</time></trkpt><trkpt lat="39.3467296" lon="9.4734257"><ele>92.0</ele><time>2026-04-18T13:22:38.299Z</time></trkpt><trkpt lat="39.3468567" lon="9.4735421"><ele>92.0</ele><time>2026-04-18T13:22:39.298Z</time></trkpt><trkpt lat="39.3469957" lon="9.4736227"><ele>92.0</ele><time>2026-04-18T13:22:40.298Z</time></trkpt><trkpt lat="39.3471476" lon="9.473658"><ele>92.0</ele><time>2026-04-18T13:22:41.298Z</time></trkpt><trkpt lat="39.3472911" lon="9.4736885"><ele>95.5</ele><time>2026-04-18T13:22:42.298Z</time></trkpt><trkpt lat="39.3474713" lon="9.4736449"><ele>99.0</ele><time>2026-04-18T13:22:43.298Z</time></trkpt><trkpt lat="39.3476162" lon="9.4736362"><ele>102.5</ele><time>2026-04-18T13:22:44.298Z</time></trkpt><trkpt lat="39.347737" lon="9.4736295"><ele>106.0</ele><time>2026-04-18T13:22:45.298Z</time></trkpt><trkpt lat="39.3478333" lon="9.4736245"><ele>106.00000000000001</ele><time>2026-04-18T13:22:46.297Z</time></trkpt><trkpt lat="39.3479005" lon="9.4736205"><ele>106.0</ele><time>2026-04-18T13:22:47.298Z</time></trkpt><trkpt lat="39.3480063" lon="9.4736177"><ele>106.0</ele><time>2026-04-18T13:22:49.298Z</time></trkpt><trkpt lat="39.3480781" lon="9.4736107"><ele>106.0</ele><time>2026-04-18T13:22:51.298Z</time></trkpt><trkpt lat="39.3481225" lon="9.4735509"><ele>106.00000000000001</ele><time>2026-04-18T13:25:58.298Z</time></trkpt><trkpt lat="39.3481875" lon="9.4735397"><ele>106.0</ele><time>2026-04-18T13:25:59.297Z</time></trkpt><trkpt lat="39.3483196" lon="9.473559"><ele>105.19999999999999</ele><time>2026-04-18T13:26:01.297Z</time></trkpt><trkpt lat="39.3483988" lon="9.4736127"><ele>104.39999999999999</ele><time>2026-04-18T13:26:02.297Z</time></trkpt><trkpt lat="39.3484823" lon="9.4736868"><ele>103.6</ele><time>2026-04-18T13:26:03.297Z</time></trkpt><trkpt lat="39.3485716" lon="9.4737756"><ele>102.8</ele><time>2026-04-18T13:26:04.297Z</time></trkpt><trkpt lat="39.348665" lon="9.4738648"><ele>102.0</ele><time>2026-04-18T13:26:05.297Z</time></trkpt><trkpt lat="39.3487838" lon="9.4739506"><ele>97.5</ele><time>2026-04-18T13:26:06.297Z</time></trkpt><trkpt lat="39.3489083" lon="9.4740424"><ele>93.0</ele><time>2026-04-18T13:26:07.297Z</time></trkpt><trkpt lat="39.3490365" lon="9.4741367"><ele>88.5</ele><time>2026-04-18T13:26:08.297Z</time></trkpt><trkpt lat="39.3491668" lon="9.4742226"><ele>84.0</ele><time>2026-04-18T13:26:09.296Z</time></trkpt><trkpt lat="39.3492944" lon="9.474301"><ele>84.0</ele><time>2026-04-18T13:26:10.296Z</time></trkpt><trkpt lat="39.3494181" lon="9.4743827"><ele>84.0</ele><time>2026-04-18T13:26:11.296Z</time></trkpt><trkpt lat="39.34954" lon="9.4744542"><ele>84.0</ele><time>2026-04-18T13:26:12.297Z</time></trkpt><trkpt lat="39.3496552" lon="9.4745204"><ele>84.0</ele><time>2026-04-18T13:26:13.297Z</time></trkpt><trkpt lat="39.3497495" lon="9.4746347"><ele>81.0</ele><time>2026-04-18T13:26:14.298Z</time></trkpt><trkpt lat="39.3498427" lon="9.474778"><ele>78.0</ele><time>2026-04-18T13:26:15.296Z</time></trkpt><trkpt lat="39.3499182" lon="9.4749374"><ele>75.0</ele><time>2026-04-18T13:26:16.296Z</time></trkpt><trkpt lat="39.3499974" lon="9.4750942"><ele>72.0</ele><time>2026-04-18T13:26:17.296Z</time></trkpt><trkpt lat="39.3500775" lon="9.4752559"><ele>72.0</ele><time>2026-04-18T13:26:18.297Z</time></trkpt><trkpt lat="39.3501614" lon="9.4754166"><ele>72.0</ele><time>2026-04-18T13:26:19.297Z</time></trkpt><trkpt lat="39.3502616" lon="9.4755752"><ele>72.0</ele><time>2026-04-18T13:26:20.297Z</time></trkpt><trkpt lat="39.3503748" lon="9.4757252"><ele>68.66666666666667</ele><time>2026-04-18T13:26:21.297Z</time></trkpt><trkpt lat="39.3505068" lon="9.4758683"><ele>65.33333333333334</ele><time>2026-04-18T13:26:22.297Z</time></trkpt><trkpt lat="39.3506592" lon="9.4759953"><ele>62.0</ele><time>2026-04-18T13:26:23.297Z</time></trkpt><trkpt lat="39.3508222" lon="9.4761082"><ele>62.0</ele><time>2026-04-18T13:26:24.296Z</time></trkpt><trkpt lat="39.3509888" lon="9.4762215"><ele>62.0</ele><time>2026-04-18T13:26:25.296Z</time></trkpt><trkpt lat="39.3511502" lon="9.476339"><ele>62.0</ele><time>2026-04-18T13:26:26.298Z</time></trkpt><trkpt lat="39.3513096" lon="9.4764473"><ele>60.66666666666667</ele><time>2026-04-18T13:26:27.297Z</time></trkpt><trkpt lat="39.3514566" lon="9.4765522"><ele>59.33333333333333</ele><time>2026-04-18T13:26:28.296Z</time></trkpt><trkpt lat="39.3515982" lon="9.4766547"><ele>58.0</ele><time>2026-04-18T13:26:29.296Z</time></trkpt><trkpt lat="39.3517342" lon="9.4767498"><ele>58.0</ele><time>2026-04-18T13:26:30.297Z</time></trkpt><trkpt lat="39.3518642" lon="9.476849"><ele>58.0</ele><time>2026-04-18T13:26:31.297Z</time></trkpt><trkpt lat="39.3519842" lon="9.4769817"><ele>58.0</ele><time>2026-04-18T13:26:32.296Z</time></trkpt><trkpt lat="39.3520867" lon="9.4771474"><ele>62.33333333333333</ele><time>2026-04-18T13:26:33.297Z</time></trkpt><trkpt lat="39.3521543" lon="9.4773323"><ele>66.66666666666667</ele><time>2026-04-18T13:26:34.296Z</time></trkpt><trkpt lat="39.3521875" lon="9.4775308"><ele>71.0</ele><time>2026-04-18T13:26:35.297Z</time></trkpt><trkpt lat="39.3521913" lon="9.4777396"><ele>71.66666666666667</ele><time>2026-04-18T13:26:36.297Z</time></trkpt><trkpt lat="39.3521569" lon="9.4779501"><ele>72.33333333333333</ele><time>2026-04-18T13:26:37.297Z</time></trkpt><trkpt lat="39.3520895" lon="9.4781551"><ele>73.0</ele><time>2026-04-18T13:26:38.297Z</time></trkpt><trkpt lat="39.3520004" lon="9.4783637"><ele>73.0</ele><time>2026-04-18T13:26:39.297Z</time></trkpt><trkpt lat="39.3518947" lon="9.4785735"><ele>73.0</ele><time>2026-04-18T13:26:40.297Z</time></trkpt><trkpt lat="39.3517818" lon="9.4787969"><ele>73.0</ele><time>2026-04-18T13:26:41.297Z</time></trkpt><trkpt lat="39.3516708" lon="9.479035"><ele>72.0</ele><time>2026-04-18T13:26:42.298Z</time></trkpt><trkpt lat="39.3515531" lon="9.4792775"><ele>71.0</ele><time>2026-04-18T13:26:43.297Z</time></trkpt><trkpt lat="39.351436" lon="9.4795193"><ele>70.0</ele><time>2026-04-18T13:26:44.297Z</time></trkpt><trkpt lat="39.3513229" lon="9.4797592"><ele>70.0</ele><time>2026-04-18T13:26:45.297Z</time></trkpt><trkpt lat="39.3512079" lon="9.4799918"><ele>70.0</ele><time>2026-04-18T13:26:46.298Z</time></trkpt><trkpt lat="39.3510996" lon="9.4802223"><ele>70.0</ele><time>2026-04-18T13:26:47.297Z</time></trkpt><trkpt lat="39.3510016" lon="9.48045"><ele>66.0</ele><time>2026-04-18T13:26:48.297Z</time></trkpt><trkpt lat="39.3509108" lon="9.4806831"><ele>62.0</ele><time>2026-04-18T13:26:49.297Z</time></trkpt><trkpt lat="39.3508312" lon="9.4809307"><ele>58.0</ele><time>2026-04-18T13:26:50.296Z</time></trkpt><trkpt lat="39.3507562" lon="9.4811896"><ele>60.0</ele><time>2026-04-18T13:26:51.297Z</time></trkpt><trkpt lat="39.3506788" lon="9.4814518"><ele>62.0</ele><time>2026-04-18T13:26:52.297Z</time></trkpt><trkpt lat="39.3506052" lon="9.4817138"><ele>64.0</ele><time>2026-04-18T13:26:53.297Z</time></trkpt><trkpt lat="39.3505304" lon="9.4819777"><ele>62.33333333333333</ele><time>2026-04-18T13:26:54.297Z</time></trkpt><trkpt lat="39.3504517" lon="9.482244"><ele>60.66666666666667</ele><time>2026-04-18T13:26:55.296Z</time></trkpt><trkpt lat="39.3503762" lon="9.4825074"><ele>59.0</ele><time>2026-04-18T13:26:56.296Z</time></trkpt><trkpt lat="39.3502998" lon="9.4827681"><ele>57.333333333333336</ele><time>2026-04-18T13:26:57.297Z</time></trkpt><trkpt lat="39.3502234" lon="9.4830344"><ele>55.66666666666667</ele><time>2026-04-18T13:26:58.297Z</time></trkpt><trkpt lat="39.3501534" lon="9.4832975"><ele>54.0</ele><time>2026-04-18T13:26:59.297Z</time></trkpt><trkpt lat="39.3500829" lon="9.4835604"><ele>52.66666666666667</ele><time>2026-04-18T13:27:00.297Z</time></trkpt><trkpt lat="39.3500083" lon="9.4838247"><ele>51.333333333333336</ele><time>2026-04-18T13:27:01.297Z</time></trkpt><trkpt lat="39.3499311" lon="9.4840821"><ele>50.0</ele><time>2026-04-18T13:27:02.297Z</time></trkpt><trkpt lat="39.349853" lon="9.4843401"><ele>50.0</ele><time>2026-04-18T13:27:03.297Z</time></trkpt><trkpt lat="39.3497829" lon="9.484581"><ele>50.0</ele><time>2026-04-18T13:27:04.297Z</time></trkpt><trkpt lat="39.3497219" lon="9.4848265"><ele>50.0</ele><time>2026-04-18T13:27:05.297Z</time></trkpt><trkpt lat="39.3496754" lon="9.4850716"><ele>57.0</ele><time>2026-04-18T13:27:06.296Z</time></trkpt><trkpt lat="39.3496518" lon="9.485322"><ele>64.0</ele><time>2026-04-18T13:27:07.297Z</time></trkpt><trkpt lat="39.3496584" lon="9.4855578"><ele>71.0</ele><time>2026-04-18T13:27:08.296Z</time></trkpt><trkpt lat="39.3496883" lon="9.4857916"><ele>63.0</ele><time>2026-04-18T13:27:09.298Z</time></trkpt><trkpt lat="39.34977" lon="9.4860139"><ele>55.0</ele><time>2026-04-18T13:27:10.297Z</time></trkpt><trkpt lat="39.3498926" lon="9.4862207"><ele>47.0</ele><time>2026-04-18T13:27:11.297Z</time></trkpt><trkpt lat="39.3500333" lon="9.4864302"><ele>47.0</ele><time>2026-04-18T13:27:12.297Z</time></trkpt><trkpt lat="39.3501772" lon="9.4866398"><ele>47.0</ele><time>2026-04-18T13:27:13.297Z</time></trkpt><trkpt lat="39.350319" lon="9.4868475"><ele>47.0</ele><time>2026-04-18T13:27:14.298Z</time></trkpt><trkpt lat="39.3504503" lon="9.4870485"><ele>46.0</ele><time>2026-04-18T13:27:15.297Z</time></trkpt><trkpt lat="39.3505757" lon="9.4872386"><ele>45.0</ele><time>2026-04-18T13:27:16.297Z</time></trkpt><trkpt lat="39.3506971" lon="9.4874213"><ele>44.0</ele><time>2026-04-18T13:27:17.297Z</time></trkpt><trkpt lat="39.3508171" lon="9.4875987"><ele>44.0</ele><time>2026-04-18T13:27:18.297Z</time></trkpt><trkpt lat="39.350941" lon="9.48777"><ele>44.0</ele><time>2026-04-18T13:27:19.297Z</time></trkpt><trkpt lat="39.3510655" lon="9.4879442"><ele>44.0</ele><time>2026-04-18T13:27:20.298Z</time></trkpt><trkpt lat="39.3511894" lon="9.4881272"><ele>42.0</ele><time>2026-04-18T13:27:21.296Z</time></trkpt><trkpt lat="39.3513189" lon="9.4883083"><ele>40.0</ele><time>2026-04-18T13:27:22.298Z</time></trkpt><trkpt lat="39.3514435" lon="9.4884955"><ele>38.0</ele><time>2026-04-18T13:27:23.297Z</time></trkpt><trkpt lat="39.3515694" lon="9.4886815"><ele>42.33333333333333</ele><time>2026-04-18T13:27:24.297Z</time></trkpt><trkpt lat="39.3516965" lon="9.4888689"><ele>46.666666666666664</ele><time>2026-04-18T13:27:25.297Z</time></trkpt><trkpt lat="39.3518253" lon="9.4890547"><ele>51.0</ele><time>2026-04-18T13:27:26.297Z</time></trkpt><trkpt lat="39.3519553" lon="9.4892472"><ele>51.0</ele><time>2026-04-18T13:27:27.297Z</time></trkpt><trkpt lat="39.3520837" lon="9.489439"><ele>51.0</ele><time>2026-04-18T13:27:28.298Z</time></trkpt><trkpt lat="39.3522133" lon="9.4896302"><ele>51.0</ele><time>2026-04-18T13:27:29.297Z</time></trkpt><trkpt lat="39.3523421" lon="9.4898245"><ele>47.666666666666664</ele><time>2026-04-18T13:27:30.297Z</time></trkpt><trkpt lat="39.3524737" lon="9.4900211"><ele>44.33333333333333</ele><time>2026-04-18T13:27:31.297Z</time></trkpt><trkpt lat="39.3526062" lon="9.490217"><ele>41.0</ele><time>2026-04-18T13:27:32.297Z</time></trkpt><trkpt lat="39.3527372" lon="9.490408"><ele>39.0</ele><time>2026-04-18T13:27:33.296Z</time></trkpt><trkpt lat="39.3528556" lon="9.4905828"><ele>37.0</ele><time>2026-04-18T13:27:34.297Z</time></trkpt><trkpt lat="39.3529572" lon="9.4907426"><ele>35.0</ele><time>2026-04-18T13:27:35.297Z</time></trkpt><trkpt lat="39.3530469" lon="9.4908839"><ele>35.0</ele><time>2026-04-18T13:27:36.296Z</time></trkpt><trkpt lat="39.3531256" lon="9.4910295"><ele>35.0</ele><time>2026-04-18T13:27:37.298Z</time></trkpt><trkpt lat="39.3531903" lon="9.4911732"><ele>35.0</ele><time>2026-04-18T13:27:38.297Z</time></trkpt><trkpt lat="39.3532472" lon="9.4913083"><ele>35.0</ele><time>2026-04-18T13:27:39.297Z</time></trkpt><trkpt lat="39.3533038" lon="9.4914218"><ele>36.0</ele><time>2026-04-18T13:27:40.296Z</time></trkpt><trkpt lat="39.3533626" lon="9.4915124"><ele>37.0</ele><time>2026-04-18T13:27:41.297Z</time></trkpt><trkpt lat="39.3534433" lon="9.4915662"><ele>38.0</ele><time>2026-04-18T13:27:42.297Z</time></trkpt><trkpt lat="39.3535368" lon="9.4915773"><ele>39.0</ele><time>2026-04-18T13:27:43.297Z</time></trkpt><trkpt lat="39.3536349" lon="9.4915594"><ele>40.0</ele><time>2026-04-18T13:27:44.296Z</time></trkpt><trkpt lat="39.3537233" lon="9.4914909"><ele>40.0</ele><time>2026-04-18T13:27:45.296Z</time></trkpt><trkpt lat="39.3538041" lon="9.4914206"><ele>40.0</ele><time>2026-04-18T13:27:46.297Z</time></trkpt><trkpt lat="39.3538893" lon="9.4913595"><ele>40.0</ele><time>2026-04-18T13:27:47.297Z</time></trkpt><trkpt lat="39.3539693" lon="9.4913022"><ele>40.0</ele><time>2026-04-18T13:27:48.297Z</time></trkpt><trkpt lat="39.3540464" lon="9.4912454"><ele>40.0</ele><time>2026-04-18T13:27:49.297Z</time></trkpt><trkpt lat="39.3541219" lon="9.4911927"><ele>39.66666666666667</ele><time>2026-04-18T13:27:50.297Z</time></trkpt><trkpt lat="39.3541933" lon="9.4911396"><ele>39.333333333333336</ele><time>2026-04-18T13:27:51.297Z</time></trkpt><trkpt lat="39.3542694" lon="9.4911137"><ele>39.0</ele><time>2026-04-18T13:27:52.297Z</time></trkpt><trkpt lat="39.3543482" lon="9.4911307"><ele>38.666666666666664</ele><time>2026-04-18T13:27:53.296Z</time></trkpt><trkpt lat="39.3544144" lon="9.4911972"><ele>38.33333333333333</ele><time>2026-04-18T13:27:54.297Z</time></trkpt><trkpt lat="39.3544771" lon="9.4912953"><ele>38.0</ele><time>2026-04-18T13:27:55.297Z</time></trkpt><trkpt lat="39.3545424" lon="9.4914131"><ele>36.0</ele><time>2026-04-18T13:27:56.297Z</time></trkpt><trkpt lat="39.3546203" lon="9.4915556"><ele>34.0</ele><time>2026-04-18T13:27:57.297Z</time></trkpt><trkpt lat="39.3547137" lon="9.4917251"><ele>32.0</ele><time>2026-04-18T13:27:58.297Z</time></trkpt><trkpt lat="39.3548153" lon="9.4919115"><ele>33.0</ele><time>2026-04-18T13:27:59.298Z</time></trkpt><trkpt lat="39.3549213" lon="9.4921115"><ele>34.0</ele><time>2026-04-18T13:28:00.298Z</time></trkpt><trkpt lat="39.3550341" lon="9.4923237"><ele>35.0</ele><time>2026-04-18T13:28:01.297Z</time></trkpt><trkpt lat="39.3551468" lon="9.4925398"><ele>35.0</ele><time>2026-04-18T13:28:02.297Z</time></trkpt><trkpt lat="39.3552585" lon="9.4927581"><ele>35.0</ele><time>2026-04-18T13:28:03.297Z</time></trkpt><trkpt lat="39.3553745" lon="9.4929768"><ele>35.0</ele><time>2026-04-18T13:28:04.297Z</time></trkpt><trkpt lat="39.3554929" lon="9.4931969"><ele>35.33333333333333</ele><time>2026-04-18T13:28:05.298Z</time></trkpt><trkpt lat="39.3556115" lon="9.4934145"><ele>35.666666666666664</ele><time>2026-04-18T13:28:06.297Z</time></trkpt><trkpt lat="39.3557259" lon="9.4936302"><ele>36.0</ele><time>2026-04-18T13:28:07.296Z</time></trkpt><trkpt lat="39.3558412" lon="9.4938362"><ele>36.0</ele><time>2026-04-18T13:28:08.298Z</time></trkpt><trkpt lat="39.3559654" lon="9.494032"><ele>36.0</ele><time>2026-04-18T13:28:09.297Z</time></trkpt><trkpt lat="39.356105" lon="9.4942126"><ele>36.0</ele><time>2026-04-18T13:28:10.297Z</time></trkpt><trkpt lat="39.3562673" lon="9.4943761"><ele>37.0</ele><time>2026-04-18T13:28:11.298Z</time></trkpt><trkpt lat="39.3564375" lon="9.4945282"><ele>38.0</ele><time>2026-04-18T13:28:12.297Z</time></trkpt><trkpt lat="39.3566205" lon="9.4946714"><ele>39.0</ele><time>2026-04-18T13:28:13.296Z</time></trkpt><trkpt lat="39.3567995" lon="9.4948143"><ele>39.0</ele><time>2026-04-18T13:28:14.297Z</time></trkpt><trkpt lat="39.3569733" lon="9.4949519"><ele>39.0</ele><time>2026-04-18T13:28:15.296Z</time></trkpt><trkpt lat="39.3571545" lon="9.4950672"><ele>39.0</ele><time>2026-04-18T13:28:16.297Z</time></trkpt><trkpt lat="39.3573425" lon="9.4951571"><ele>40.666666666666664</ele><time>2026-04-18T13:28:17.297Z</time></trkpt><trkpt lat="39.3575353" lon="9.4952325"><ele>42.33333333333333</ele><time>2026-04-18T13:28:18.296Z</time></trkpt><trkpt lat="39.3577307" lon="9.495292"><ele>44.0</ele><time>2026-04-18T13:28:19.297Z</time></trkpt><trkpt lat="39.3579306" lon="9.495328"><ele>45.666666666666664</ele><time>2026-04-18T13:28:20.297Z</time></trkpt><trkpt lat="39.3581301" lon="9.4953369"><ele>47.33333333333333</ele><time>2026-04-18T13:28:21.297Z</time></trkpt><trkpt lat="39.3583379" lon="9.4953099"><ele>49.0</ele><time>2026-04-18T13:28:22.297Z</time></trkpt><trkpt lat="39.3585528" lon="9.4952531"><ele>49.0</ele><time>2026-04-18T13:28:23.298Z</time></trkpt><trkpt lat="39.3587638" lon="9.4951941"><ele>49.0</ele><time>2026-04-18T13:28:24.298Z</time></trkpt><trkpt lat="39.358967" lon="9.4951346"><ele>49.0</ele><time>2026-04-18T13:28:25.297Z</time></trkpt><trkpt lat="39.3591621" lon="9.4950843"><ele>47.33333333333333</ele><time>2026-04-18T13:28:26.296Z</time></trkpt><trkpt lat="39.3593488" lon="9.4950328"><ele>45.666666666666664</ele><time>2026-04-18T13:28:27.298Z</time></trkpt><trkpt lat="39.3595201" lon="9.4949861"><ele>44.0</ele><time>2026-04-18T13:28:28.297Z</time></trkpt><trkpt lat="39.3596739" lon="9.4949464"><ele>43.5</ele><time>2026-04-18T13:28:29.297Z</time></trkpt><trkpt lat="39.3598093" lon="9.4949105"><ele>43.0</ele><time>2026-04-18T13:28:30.297Z</time></trkpt><trkpt lat="39.3599289" lon="9.4949091"><ele>42.5</ele><time>2026-04-18T13:28:31.297Z</time></trkpt><trkpt lat="39.3600265" lon="9.4949729"><ele>42.0</ele><time>2026-04-18T13:28:32.297Z</time></trkpt><trkpt lat="39.3601067" lon="9.4950753"><ele>42.0</ele><time>2026-04-18T13:28:33.296Z</time></trkpt><trkpt lat="39.3601818" lon="9.4952198"><ele>42.0</ele><time>2026-04-18T13:28:34.297Z</time></trkpt><trkpt lat="39.3602549" lon="9.4953907"><ele>42.0</ele><time>2026-04-18T13:28:35.297Z</time></trkpt><trkpt lat="39.3603349" lon="9.4955755"><ele>42.0</ele><time>2026-04-18T13:28:36.297Z</time></trkpt><trkpt lat="39.3604168" lon="9.4957649"><ele>42.0</ele><time>2026-04-18T13:28:37.298Z</time></trkpt><trkpt lat="39.3604939" lon="9.4959574"><ele>42.0</ele><time>2026-04-18T13:28:38.297Z</time></trkpt><trkpt lat="39.360547" lon="9.4961632"><ele>42.0</ele><time>2026-04-18T13:28:39.297Z</time></trkpt><trkpt lat="39.3605702" lon="9.4963805"><ele>43.666666666666664</ele><time>2026-04-18T13:28:40.297Z</time></trkpt><trkpt lat="39.3605652" lon="9.4966108"><ele>45.33333333333333</ele><time>2026-04-18T13:28:41.297Z</time></trkpt><trkpt lat="39.3605368" lon="9.4968577"><ele>47.0</ele><time>2026-04-18T13:28:42.298Z</time></trkpt><trkpt lat="39.3605021" lon="9.4971207"><ele>43.666666666666664</ele><time>2026-04-18T13:28:43.296Z</time></trkpt><trkpt lat="39.3604606" lon="9.4973872"><ele>40.333333333333336</ele><time>2026-04-18T13:28:44.297Z</time></trkpt><trkpt lat="39.3604217" lon="9.4976518"><ele>37.0</ele><time>2026-04-18T13:28:45.297Z</time></trkpt><trkpt lat="39.3603837" lon="9.4979049"><ele>37.66666666666667</ele><time>2026-04-18T13:28:46.297Z</time></trkpt><trkpt lat="39.3603538" lon="9.4981479"><ele>38.333333333333336</ele><time>2026-04-18T13:28:47.296Z</time></trkpt><trkpt lat="39.3603482" lon="9.498393"><ele>39.0</ele><time>2026-04-18T13:28:48.296Z</time></trkpt><trkpt lat="39.3603635" lon="9.4986384"><ele>38.666666666666664</ele><time>2026-04-18T13:28:49.297Z</time></trkpt><trkpt lat="39.3604028" lon="9.4988898"><ele>38.33333333333333</ele><time>2026-04-18T13:28:50.297Z</time></trkpt><trkpt lat="39.3604768" lon="9.4991458"><ele>38.0</ele><time>2026-04-18T13:28:51.297Z</time></trkpt><trkpt lat="39.3605755" lon="9.4994036"><ele>40.5</ele><time>2026-04-18T13:28:52.296Z</time></trkpt><trkpt lat="39.3606945" lon="9.4996562"><ele>43.0</ele><time>2026-04-18T13:28:53.296Z</time></trkpt><trkpt lat="39.3608194" lon="9.4999058"><ele>43.0</ele><time>2026-04-18T13:28:54.297Z</time></trkpt><trkpt lat="39.3609427" lon="9.5001523"><ele>43.0</ele><time>2026-04-18T13:28:55.298Z</time></trkpt><trkpt lat="39.3610637" lon="9.5003997"><ele>42.333333333333336</ele><time>2026-04-18T13:28:56.298Z</time></trkpt><trkpt lat="39.3611845" lon="9.5006444"><ele>41.666666666666664</ele><time>2026-04-18T13:28:57.298Z</time></trkpt><trkpt lat="39.3613003" lon="9.500884"><ele>41.0</ele><time>2026-04-18T13:28:58.296Z</time></trkpt><trkpt lat="39.3614161" lon="9.5011272"><ele>39.33333333333333</ele><time>2026-04-18T13:28:59.296Z</time></trkpt><trkpt lat="39.3615296" lon="9.5013631"><ele>37.666666666666664</ele><time>2026-04-18T13:29:00.297Z</time></trkpt><trkpt lat="39.36164" lon="9.5015918"><ele>36.0</ele><time>2026-04-18T13:29:01.298Z</time></trkpt><trkpt lat="39.3617466" lon="9.5018077"><ele>36.0</ele><time>2026-04-18T13:29:02.297Z</time></trkpt><trkpt lat="39.3618558" lon="9.5020142"><ele>36.0</ele><time>2026-04-18T13:29:03.297Z</time></trkpt><trkpt lat="39.3619734" lon="9.5022047"><ele>36.0</ele><time>2026-04-18T13:29:04.296Z</time></trkpt><trkpt lat="39.362091" lon="9.5023757"><ele>37.333333333333336</ele><time>2026-04-18T13:29:05.298Z</time></trkpt><trkpt lat="39.3622249" lon="9.5025334"><ele>38.66666666666667</ele><time>2026-04-18T13:29:06.296Z</time></trkpt><trkpt lat="39.3623841" lon="9.5026854"><ele>40.0</ele><time>2026-04-18T13:29:07.297Z</time></trkpt><trkpt lat="39.3625622" lon="9.502836"><ele>40.66666666666667</ele><time>2026-04-18T13:29:08.297Z</time></trkpt><trkpt lat="39.362742" lon="9.5029994"><ele>41.333333333333336</ele><time>2026-04-18T13:29:09.297Z</time></trkpt><trkpt lat="39.3629128" lon="9.5031648"><ele>42.0</ele><time>2026-04-18T13:29:10.297Z</time></trkpt><trkpt lat="39.3630759" lon="9.5033256"><ele>42.0</ele><time>2026-04-18T13:29:11.296Z</time></trkpt><trkpt lat="39.3632395" lon="9.5034791"><ele>42.0</ele><time>2026-04-18T13:29:12.298Z</time></trkpt><trkpt lat="39.3634085" lon="9.5036208"><ele>42.0</ele><time>2026-04-18T13:29:13.297Z</time></trkpt><trkpt lat="39.3635807" lon="9.5037506"><ele>42.0</ele><time>2026-04-18T13:29:14.297Z</time></trkpt><trkpt lat="39.3637614" lon="9.5038667"><ele>42.0</ele><time>2026-04-18T13:29:15.297Z</time></trkpt><trkpt lat="39.3639477" lon="9.5039608"><ele>42.0</ele><time>2026-04-18T13:29:16.297Z</time></trkpt><trkpt lat="39.3641508" lon="9.5040308"><ele>42.0</ele><time>2026-04-18T13:29:17.298Z</time></trkpt><trkpt lat="39.3643488" lon="9.5040959"><ele>42.0</ele><time>2026-04-18T13:29:18.298Z</time></trkpt><trkpt lat="39.3645427" lon="9.504157"><ele>42.0</ele><time>2026-04-18T13:29:19.297Z</time></trkpt><trkpt lat="39.3647319" lon="9.5042193"><ele>43.0</ele><time>2026-04-18T13:29:20.297Z</time></trkpt><trkpt lat="39.3649303" lon="9.5042756"><ele>44.0</ele><time>2026-04-18T13:29:21.297Z</time></trkpt><trkpt lat="39.365128" lon="9.504313"><ele>45.0</ele><time>2026-04-18T13:29:22.297Z</time></trkpt><trkpt lat="39.3653309" lon="9.5043449"><ele>46.0</ele><time>2026-04-18T13:29:23.297Z</time></trkpt><trkpt lat="39.3655304" lon="9.5043662"><ele>47.0</ele><time>2026-04-18T13:29:24.296Z</time></trkpt><trkpt lat="39.3657236" lon="9.5043826"><ele>48.0</ele><time>2026-04-18T13:29:25.297Z</time></trkpt><trkpt lat="39.3659031" lon="9.5043932"><ele>48.0</ele><time>2026-04-18T13:29:26.297Z</time></trkpt><trkpt lat="39.3660682" lon="9.5044041"><ele>48.0</ele><time>2026-04-18T13:29:27.297Z</time></trkpt><trkpt lat="39.3661961" lon="9.5044276"><ele>48.0</ele><time>2026-04-18T13:29:28.297Z</time></trkpt><trkpt lat="39.3663009" lon="9.5044867"><ele>48.0</ele><time>2026-04-18T13:29:29.296Z</time></trkpt><trkpt lat="39.3663946" lon="9.504589"><ele>46.5</ele><time>2026-04-18T13:29:30.297Z</time></trkpt><trkpt lat="39.3664845" lon="9.5047183"><ele>45.0</ele><time>2026-04-18T13:29:31.295Z</time></trkpt><trkpt lat="39.3665665" lon="9.5048645"><ele>43.5</ele><time>2026-04-18T13:29:32.297Z</time></trkpt><trkpt lat="39.3666473" lon="9.5050173"><ele>42.0</ele><time>2026-04-18T13:29:33.296Z</time></trkpt><trkpt lat="39.3667084" lon="9.5051823"><ele>42.0</ele><time>2026-04-18T13:29:34.296Z</time></trkpt><trkpt lat="39.3667504" lon="9.5053632"><ele>42.0</ele><time>2026-04-18T13:29:35.295Z</time></trkpt><trkpt lat="39.3667753" lon="9.5055548"><ele>42.0</ele><time>2026-04-18T13:29:36.296Z</time></trkpt><trkpt lat="39.3667897" lon="9.5057702"><ele>42.333333333333336</ele><time>2026-04-18T13:29:37.297Z</time></trkpt><trkpt lat="39.3667941" lon="9.5060152"><ele>42.66666666666667</ele><time>2026-04-18T13:29:38.296Z</time></trkpt><trkpt lat="39.3668102" lon="9.5062831"><ele>43.0</ele><time>2026-04-18T13:29:39.295Z</time></trkpt><trkpt lat="39.3668275" lon="9.5065579"><ele>43.0</ele><time>2026-04-18T13:29:40.296Z</time></trkpt><trkpt lat="39.3668442" lon="9.5068328"><ele>43.0</ele><time>2026-04-18T13:29:41.296Z</time></trkpt><trkpt lat="39.3668602" lon="9.5071138"><ele>43.0</ele><time>2026-04-18T13:29:42.296Z</time></trkpt><trkpt lat="39.3668754" lon="9.5073891"><ele>43.0</ele><time>2026-04-18T13:29:43.296Z</time></trkpt><trkpt lat="39.3668958" lon="9.5076671"><ele>43.0</ele><time>2026-04-18T13:29:44.295Z</time></trkpt><trkpt lat="39.3669134" lon="9.5079434"><ele>43.0</ele><time>2026-04-18T13:29:45.296Z</time></trkpt><trkpt lat="39.3669309" lon="9.5082235"><ele>42.66666666666667</ele><time>2026-04-18T13:29:46.295Z</time></trkpt><trkpt lat="39.3669499" lon="9.5085077"><ele>42.333333333333336</ele><time>2026-04-18T13:29:47.296Z</time></trkpt><trkpt lat="39.3669655" lon="9.5087928"><ele>42.0</ele><time>2026-04-18T13:29:48.296Z</time></trkpt><trkpt lat="39.3669836" lon="9.5090793"><ele>42.0</ele><time>2026-04-18T13:29:49.297Z</time></trkpt><trkpt lat="39.3670022" lon="9.5093681"><ele>42.0</ele><time>2026-04-18T13:29:50.295Z</time></trkpt><trkpt lat="39.3670192" lon="9.5096552"><ele>42.0</ele><time>2026-04-18T13:29:51.297Z</time></trkpt><trkpt lat="39.367036" lon="9.5099453"><ele>42.0</ele><time>2026-04-18T13:29:52.296Z</time></trkpt><trkpt lat="39.3670547" lon="9.5102315"><ele>42.0</ele><time>2026-04-18T13:29:53.296Z</time></trkpt><trkpt lat="39.3670726" lon="9.5105189"><ele>42.0</ele><time>2026-04-18T13:29:54.296Z</time></trkpt><trkpt lat="39.3670922" lon="9.5108066"><ele>41.666666666666664</ele><time>2026-04-18T13:29:55.296Z</time></trkpt><trkpt lat="39.3671085" lon="9.511099"><ele>41.33333333333333</ele><time>2026-04-18T13:29:56.296Z</time></trkpt><trkpt lat="39.3671244" lon="9.5113857"><ele>41.0</ele><time>2026-04-18T13:29:57.295Z</time></trkpt><trkpt lat="39.3671377" lon="9.511671"><ele>40.666666666666664</ele><time>2026-04-18T13:29:58.296Z</time></trkpt><trkpt lat="39.3671511" lon="9.5119556"><ele>40.333333333333336</ele><time>2026-04-18T13:29:59.296Z</time></trkpt><trkpt lat="39.3671672" lon="9.5122398"><ele>40.0</ele><time>2026-04-18T13:30:00.296Z</time></trkpt><trkpt lat="39.3671832" lon="9.5125247"><ele>40.0</ele><time>2026-04-18T13:30:01.296Z</time></trkpt><trkpt lat="39.3671971" lon="9.5128124"><ele>40.0</ele><time>2026-04-18T13:30:02.296Z</time></trkpt><trkpt lat="39.367214" lon="9.5130991"><ele>40.0</ele><time>2026-04-18T13:30:03.295Z</time></trkpt><trkpt lat="39.3672301" lon="9.5133864"><ele>39.333333333333336</ele><time>2026-04-18T13:30:04.295Z</time></trkpt><trkpt lat="39.3672477" lon="9.5136782"><ele>38.666666666666664</ele><time>2026-04-18T13:30:05.297Z</time></trkpt><trkpt lat="39.3672643" lon="9.5139611"><ele>38.0</ele><time>2026-04-18T13:30:06.297Z</time></trkpt><trkpt lat="39.3672795" lon="9.5142398"><ele>36.666666666666664</ele><time>2026-04-18T13:30:07.296Z</time></trkpt><trkpt lat="39.3672958" lon="9.5145202"><ele>35.333333333333336</ele><time>2026-04-18T13:30:08.296Z</time></trkpt><trkpt lat="39.3673138" lon="9.5148045"><ele>34.0</ele><time>2026-04-18T13:30:09.296Z</time></trkpt><trkpt lat="39.367329" lon="9.515088"><ele>33.66666666666667</ele><time>2026-04-18T13:30:10.296Z</time></trkpt><trkpt lat="39.367343" lon="9.5153689"><ele>33.333333333333336</ele><time>2026-04-18T13:30:11.296Z</time></trkpt><trkpt lat="39.3673542" lon="9.5156518"><ele>33.0</ele><time>2026-04-18T13:30:12.297Z</time></trkpt><trkpt lat="39.3673691" lon="9.5159389"><ele>33.666666666666664</ele><time>2026-04-18T13:30:13.296Z</time></trkpt><trkpt lat="39.3673843" lon="9.5162162"><ele>34.33333333333333</ele><time>2026-04-18T13:30:14.296Z</time></trkpt><trkpt lat="39.3674017" lon="9.5164969"><ele>35.0</ele><time>2026-04-18T13:30:15.297Z</time></trkpt><trkpt lat="39.3674188" lon="9.5167771"><ele>35.33333333333333</ele><time>2026-04-18T13:30:16.296Z</time></trkpt><trkpt lat="39.3674342" lon="9.5170557"><ele>35.666666666666664</ele><time>2026-04-18T13:30:17.297Z</time></trkpt><trkpt lat="39.3674488" lon="9.5173331"><ele>36.0</ele><time>2026-04-18T13:30:18.296Z</time></trkpt><trkpt lat="39.3674666" lon="9.5176099"><ele>36.0</ele><time>2026-04-18T13:30:19.296Z</time></trkpt><trkpt lat="39.3674828" lon="9.5178879"><ele>36.0</ele><time>2026-04-18T13:30:20.296Z</time></trkpt><trkpt lat="39.367498" lon="9.5181678"><ele>36.0</ele><time>2026-04-18T13:30:21.296Z</time></trkpt><trkpt lat="39.3675134" lon="9.5184484"><ele>35.666666666666664</ele><time>2026-04-18T13:30:22.295Z</time></trkpt><trkpt lat="39.3675299" lon="9.5187312"><ele>35.33333333333333</ele><time>2026-04-18T13:30:23.296Z</time></trkpt><trkpt lat="39.3675476" lon="9.5190135"><ele>35.0</ele><time>2026-04-18T13:30:24.296Z</time></trkpt><trkpt lat="39.3675639" lon="9.5193041"><ele>34.0</ele><time>2026-04-18T13:30:25.295Z</time></trkpt><trkpt lat="39.3675769" lon="9.5195967"><ele>33.0</ele><time>2026-04-18T13:30:26.296Z</time></trkpt><trkpt lat="39.3675959" lon="9.5198865"><ele>33.0</ele><time>2026-04-18T13:30:27.296Z</time></trkpt><trkpt lat="39.3676148" lon="9.5201761"><ele>33.0</ele><time>2026-04-18T13:30:28.297Z</time></trkpt><trkpt lat="39.367628" lon="9.520461"><ele>33.0</ele><time>2026-04-18T13:30:29.297Z</time></trkpt><trkpt lat="39.367643" lon="9.5207446"><ele>33.0</ele><time>2026-04-18T13:30:30.296Z</time></trkpt><trkpt lat="39.3676569" lon="9.5210303"><ele>33.0</ele><time>2026-04-18T13:30:31.296Z</time></trkpt><trkpt lat="39.3676727" lon="9.5213098"><ele>33.0</ele><time>2026-04-18T13:30:32.297Z</time></trkpt><trkpt lat="39.3676867" lon="9.5215896"><ele>33.333333333333336</ele><time>2026-04-18T13:30:33.297Z</time></trkpt><trkpt lat="39.3677035" lon="9.5218676"><ele>33.66666666666667</ele><time>2026-04-18T13:30:34.295Z</time></trkpt><trkpt lat="39.3677199" lon="9.5221512"><ele>34.0</ele><time>2026-04-18T13:30:35.297Z</time></trkpt><trkpt lat="39.3677362" lon="9.5224346"><ele>33.333333333333336</ele><time>2026-04-18T13:30:36.297Z</time></trkpt><trkpt lat="39.367754" lon="9.5227177"><ele>32.666666666666664</ele><time>2026-04-18T13:30:37.297Z</time></trkpt><trkpt lat="39.3677689" lon="9.5230024"><ele>32.0</ele><time>2026-04-18T13:30:38.296Z</time></trkpt><trkpt lat="39.3677816" lon="9.5232874"><ele>31.333333333333332</ele><time>2026-04-18T13:30:39.295Z</time></trkpt><trkpt lat="39.3677939" lon="9.523568"><ele>30.666666666666664</ele><time>2026-04-18T13:30:40.296Z</time></trkpt><trkpt lat="39.3678085" lon="9.5238478"><ele>30.0</ele><time>2026-04-18T13:30:41.296Z</time></trkpt><trkpt lat="39.3678246" lon="9.5241279"><ele>30.0</ele><time>2026-04-18T13:30:42.297Z</time></trkpt><trkpt lat="39.3678446" lon="9.5244056"><ele>30.0</ele><time>2026-04-18T13:30:43.296Z</time></trkpt><trkpt lat="39.3678627" lon="9.5246829"><ele>30.0</ele><time>2026-04-18T13:30:44.295Z</time></trkpt><trkpt lat="39.3678754" lon="9.5249635"><ele>30.0</ele><time>2026-04-18T13:30:45.296Z</time></trkpt><trkpt lat="39.3678892" lon="9.5252399"><ele>30.0</ele><time>2026-04-18T13:30:46.296Z</time></trkpt><trkpt lat="39.3679013" lon="9.525517"><ele>30.0</ele><time>2026-04-18T13:30:47.296Z</time></trkpt><trkpt lat="39.3679162" lon="9.5257941"><ele>30.0</ele><time>2026-04-18T13:30:48.297Z</time></trkpt><trkpt lat="39.3679323" lon="9.5260713"><ele>30.0</ele><time>2026-04-18T13:30:49.297Z</time></trkpt><trkpt lat="39.3679429" lon="9.5263528"><ele>30.0</ele><time>2026-04-18T13:30:50.296Z</time></trkpt><trkpt lat="39.367959" lon="9.5266306"><ele>30.0</ele><time>2026-04-18T13:30:51.297Z</time></trkpt><trkpt lat="39.3679767" lon="9.526906"><ele>30.0</ele><time>2026-04-18T13:30:52.296Z</time></trkpt><trkpt lat="39.3679916" lon="9.527183"><ele>30.0</ele><time>2026-04-18T13:30:53.297Z</time></trkpt><trkpt lat="39.3680108" lon="9.5274605"><ele>31.0</ele><time>2026-04-18T13:30:54.295Z</time></trkpt><trkpt lat="39.3680273" lon="9.5277381"><ele>32.0</ele><time>2026-04-18T13:30:55.296Z</time></trkpt><trkpt lat="39.3680443" lon="9.528016"><ele>33.0</ele><time>2026-04-18T13:30:56.296Z</time></trkpt><trkpt lat="39.3680577" lon="9.5282898"><ele>33.0</ele><time>2026-04-18T13:30:57.296Z</time></trkpt><trkpt lat="39.3680737" lon="9.5285662"><ele>33.0</ele><time>2026-04-18T13:30:58.296Z</time></trkpt><trkpt lat="39.3680893" lon="9.5288413"><ele>33.0</ele><time>2026-04-18T13:30:59.296Z</time></trkpt><trkpt lat="39.3681046" lon="9.5291218"><ele>32.333333333333336</ele><time>2026-04-18T13:31:00.296Z</time></trkpt><trkpt lat="39.3681221" lon="9.5294019"><ele>31.666666666666668</ele><time>2026-04-18T13:31:01.295Z</time></trkpt><trkpt lat="39.368135" lon="9.5296813"><ele>31.0</ele><time>2026-04-18T13:31:02.296Z</time></trkpt><trkpt lat="39.3681492" lon="9.5299614"><ele>30.666666666666668</ele><time>2026-04-18T13:31:03.296Z</time></trkpt><trkpt lat="39.368167" lon="9.5302474"><ele>30.333333333333336</ele><time>2026-04-18T13:31:04.297Z</time></trkpt><trkpt lat="39.3681821" lon="9.5305226"><ele>30.0</ele><time>2026-04-18T13:31:05.296Z</time></trkpt><trkpt lat="39.3681995" lon="9.530787"><ele>29.333333333333336</ele><time>2026-04-18T13:31:06.296Z</time></trkpt><trkpt lat="39.3682164" lon="9.5310488"><ele>28.666666666666668</ele><time>2026-04-18T13:31:07.295Z</time></trkpt><trkpt lat="39.3682322" lon="9.5313091"><ele>28.0</ele><time>2026-04-18T13:31:08.296Z</time></trkpt><trkpt lat="39.3682489" lon="9.5315743"><ele>27.0</ele><time>2026-04-18T13:31:09.297Z</time></trkpt><trkpt lat="39.3682589" lon="9.5318352"><ele>26.0</ele><time>2026-04-18T13:31:10.296Z</time></trkpt><trkpt lat="39.3682738" lon="9.5320981"><ele>25.0</ele><time>2026-04-18T13:31:11.295Z</time></trkpt><trkpt lat="39.3682904" lon="9.5323628"><ele>25.333333333333336</ele><time>2026-04-18T13:31:12.296Z</time></trkpt><trkpt lat="39.3683038" lon="9.5326345"><ele>25.666666666666664</ele><time>2026-04-18T13:31:13.297Z</time></trkpt><trkpt lat="39.3683175" lon="9.5329083"><ele>26.0</ele><time>2026-04-18T13:31:14.296Z</time></trkpt><trkpt lat="39.3683317" lon="9.533189"><ele>26.0</ele><time>2026-04-18T13:31:15.296Z</time></trkpt><trkpt lat="39.36835" lon="9.5334664"><ele>26.0</ele><time>2026-04-18T13:31:16.295Z</time></trkpt><trkpt lat="39.3683636" lon="9.5337377"><ele>26.0</ele><time>2026-04-18T13:31:17.297Z</time></trkpt><trkpt lat="39.3683786" lon="9.5340122"><ele>26.666666666666664</ele><time>2026-04-18T13:31:18.296Z</time></trkpt><trkpt lat="39.368388" lon="9.5342897"><ele>27.333333333333336</ele><time>2026-04-18T13:31:19.295Z</time></trkpt><trkpt lat="39.3683922" lon="9.5345644"><ele>28.0</ele><time>2026-04-18T13:31:20.296Z</time></trkpt><trkpt lat="39.3683894" lon="9.53484"><ele>28.333333333333336</ele><time>2026-04-18T13:31:21.296Z</time></trkpt><trkpt lat="39.3683892" lon="9.5351131"><ele>28.666666666666664</ele><time>2026-04-18T13:31:22.295Z</time></trkpt><trkpt lat="39.3683888" lon="9.535388"><ele>29.0</ele><time>2026-04-18T13:31:23.296Z</time></trkpt><trkpt lat="39.368386" lon="9.5356685"><ele>29.0</ele><time>2026-04-18T13:31:24.296Z</time></trkpt><trkpt lat="39.3683871" lon="9.5359417"><ele>29.0</ele><time>2026-04-18T13:31:25.296Z</time></trkpt><trkpt lat="39.3683871" lon="9.5362171"><ele>29.0</ele><time>2026-04-18T13:31:26.296Z</time></trkpt><trkpt lat="39.3683867" lon="9.5364851"><ele>29.333333333333332</ele><time>2026-04-18T13:31:27.295Z</time></trkpt><trkpt lat="39.3683887" lon="9.5367424"><ele>29.666666666666664</ele><time>2026-04-18T13:31:28.297Z</time></trkpt><trkpt lat="39.3683871" lon="9.5369873"><ele>30.0</ele><time>2026-04-18T13:31:29.296Z</time></trkpt><trkpt lat="39.3683837" lon="9.5372121"><ele>30.0</ele><time>2026-04-18T13:31:30.296Z</time></trkpt><trkpt lat="39.3683806" lon="9.5374148"><ele>30.0</ele><time>2026-04-18T13:31:31.296Z</time></trkpt><trkpt lat="39.3683817" lon="9.5376096"><ele>30.0</ele><time>2026-04-18T13:31:32.296Z</time></trkpt><trkpt lat="39.3683829" lon="9.5378004"><ele>29.75</ele><time>2026-04-18T13:31:33.296Z</time></trkpt><trkpt lat="39.3683851" lon="9.5379941"><ele>29.5</ele><time>2026-04-18T13:31:34.295Z</time></trkpt><trkpt lat="39.3683893" lon="9.5381779"><ele>29.25</ele><time>2026-04-18T13:31:35.295Z</time></trkpt><trkpt lat="39.3684033" lon="9.5383502"><ele>29.0</ele><time>2026-04-18T13:31:36.296Z</time></trkpt><trkpt lat="39.3684079" lon="9.5385053"><ele>29.0</ele><time>2026-04-18T13:31:37.296Z</time></trkpt><trkpt lat="39.3684109" lon="9.5386579"><ele>29.0</ele><time>2026-04-18T13:31:38.296Z</time></trkpt><trkpt lat="39.3684121" lon="9.5388061"><ele>29.0</ele><time>2026-04-18T13:31:39.296Z</time></trkpt><trkpt lat="39.3684126" lon="9.5389464"><ele>29.0</ele><time>2026-04-18T13:31:40.297Z</time></trkpt><trkpt lat="39.3684131" lon="9.5390768"><ele>29.0</ele><time>2026-04-18T13:31:41.295Z</time></trkpt><trkpt lat="39.3684144" lon="9.5391958"><ele>29.2</ele><time>2026-04-18T13:31:42.296Z</time></trkpt><trkpt lat="39.3684168" lon="9.5393064"><ele>29.4</ele><time>2026-04-18T13:31:43.297Z</time></trkpt><trkpt lat="39.3684304" lon="9.5394116"><ele>29.6</ele><time>2026-04-18T13:31:44.296Z</time></trkpt><trkpt lat="39.3684582" lon="9.5395127"><ele>29.8</ele><time>2026-04-18T13:31:45.296Z</time></trkpt><trkpt lat="39.3685212" lon="9.5396114"><ele>30.0</ele><time>2026-04-18T13:31:46.296Z</time></trkpt><trkpt lat="39.3686117" lon="9.5396845"><ele>30.0</ele><time>2026-04-18T13:31:47.296Z</time></trkpt><trkpt lat="39.3687133" lon="9.5397086"><ele>30.0</ele><time>2026-04-18T13:31:48.296Z</time></trkpt><trkpt lat="39.3688239" lon="9.5397012"><ele>30.0</ele><time>2026-04-18T13:31:49.296Z</time></trkpt><trkpt lat="39.36893" lon="9.539671"><ele>30.0</ele><time>2026-04-18T13:31:50.296Z</time></trkpt><trkpt lat="39.3690381" lon="9.5396172"><ele>30.0</ele><time>2026-04-18T13:31:51.297Z</time></trkpt><trkpt lat="39.3691462" lon="9.5395452"><ele>30.0</ele><time>2026-04-18T13:31:52.296Z</time></trkpt><trkpt lat="39.3692376" lon="9.5394596"><ele>30.0</ele><time>2026-04-18T13:31:53.295Z</time></trkpt><trkpt lat="39.3693108" lon="9.5393469"><ele>30.0</ele><time>2026-04-18T13:31:54.296Z</time></trkpt><trkpt lat="39.369369" lon="9.5391967"><ele>30.0</ele><time>2026-04-18T13:31:55.296Z</time></trkpt><trkpt lat="39.3693957" lon="9.5390153"><ele>30.0</ele><time>2026-04-18T13:31:56.296Z</time></trkpt><trkpt lat="39.3694061" lon="9.5388238"><ele>30.0</ele><time>2026-04-18T13:31:57.296Z</time></trkpt><trkpt lat="39.3694177" lon="9.5386374"><ele>30.0</ele><time>2026-04-18T13:31:58.296Z</time></trkpt><trkpt lat="39.3694463" lon="9.5384594"><ele>30.0</ele><time>2026-04-18T13:31:59.295Z</time></trkpt><trkpt lat="39.3694999" lon="9.5383005"><ele>30.25</ele><time>2026-04-18T13:32:00.297Z</time></trkpt><trkpt lat="39.3695717" lon="9.5381636"><ele>30.5</ele><time>2026-04-18T13:32:01.295Z</time></trkpt><trkpt lat="39.3696589" lon="9.5380451"><ele>30.75</ele><time>2026-04-18T13:32:02.295Z</time></trkpt><trkpt lat="39.3697654" lon="9.5379532"><ele>31.0</ele><time>2026-04-18T13:32:03.296Z</time></trkpt><trkpt lat="39.3698889" lon="9.5378874"><ele>32.333333333333336</ele><time>2026-04-18T13:32:04.295Z</time></trkpt><trkpt lat="39.3700312" lon="9.5378435"><ele>33.666666666666664</ele><time>2026-04-18T13:32:05.296Z</time></trkpt><trkpt lat="39.370195" lon="9.537815"><ele>35.0</ele><time>2026-04-18T13:32:06.296Z</time></trkpt><trkpt lat="39.3703643" lon="9.5377771"><ele>35.33333333333333</ele><time>2026-04-18T13:32:07.296Z</time></trkpt><trkpt lat="39.3705378" lon="9.5377377"><ele>35.666666666666664</ele><time>2026-04-18T13:32:08.295Z</time></trkpt><trkpt lat="39.3707303" lon="9.537698"><ele>36.0</ele><time>2026-04-18T13:32:09.295Z</time></trkpt><trkpt lat="39.3709328" lon="9.5376501"><ele>36.0</ele><time>2026-04-18T13:32:10.297Z</time></trkpt><trkpt lat="39.3711451" lon="9.5376005"><ele>36.0</ele><time>2026-04-18T13:32:11.296Z</time></trkpt><trkpt lat="39.3713661" lon="9.5375495"><ele>36.0</ele><time>2026-04-18T13:32:12.297Z</time></trkpt><trkpt lat="39.3715983" lon="9.5374992"><ele>37.0</ele><time>2026-04-18T13:32:13.295Z</time></trkpt><trkpt lat="39.3718352" lon="9.5374479"><ele>38.0</ele><time>2026-04-18T13:32:14.296Z</time></trkpt><trkpt lat="39.3720763" lon="9.5374012"><ele>39.5</ele><time>2026-04-18T13:32:15.297Z</time></trkpt><trkpt lat="39.3723271" lon="9.5373496"><ele>41.0</ele><time>2026-04-18T13:32:16.296Z</time></trkpt><trkpt lat="39.372583" lon="9.5373032"><ele>41.0</ele><time>2026-04-18T13:32:17.296Z</time></trkpt><trkpt lat="39.3728426" lon="9.537255"><ele>41.0</ele><time>2026-04-18T13:32:18.296Z</time></trkpt><trkpt lat="39.3731018" lon="9.5372117"><ele>41.0</ele><time>2026-04-18T13:32:19.297Z</time></trkpt><trkpt lat="39.3733628" lon="9.5371681"><ele>41.0</ele><time>2026-04-18T13:32:20.296Z</time></trkpt><trkpt lat="39.3736224" lon="9.5371224"><ele>42.0</ele><time>2026-04-18T13:32:21.296Z</time></trkpt><trkpt lat="39.3738825" lon="9.5370788"><ele>43.0</ele><time>2026-04-18T13:32:22.296Z</time></trkpt><trkpt lat="39.3741438" lon="9.5370252"><ele>43.0</ele><time>2026-04-18T13:32:23.296Z</time></trkpt><trkpt lat="39.374402" lon="9.5369745"><ele>43.0</ele><time>2026-04-18T13:32:24.296Z</time></trkpt><trkpt lat="39.3746598" lon="9.536928"><ele>44.0</ele><time>2026-04-18T13:32:25.296Z</time></trkpt><trkpt lat="39.3749171" lon="9.5368781"><ele>45.0</ele><time>2026-04-18T13:32:26.296Z</time></trkpt><trkpt lat="39.3751717" lon="9.5368309"><ele>45.0</ele><time>2026-04-18T13:32:27.296Z</time></trkpt><trkpt lat="39.3754283" lon="9.5367858"><ele>45.0</ele><time>2026-04-18T13:32:28.297Z</time></trkpt><trkpt lat="39.3756797" lon="9.5367428"><ele>46.5</ele><time>2026-04-18T13:32:29.295Z</time></trkpt><trkpt lat="39.3759328" lon="9.5366988"><ele>48.0</ele><time>2026-04-18T13:32:30.296Z</time></trkpt><trkpt lat="39.3761849" lon="9.5366476"><ele>49.0</ele><time>2026-04-18T13:32:31.296Z</time></trkpt><trkpt lat="39.3764357" lon="9.5365975"><ele>50.0</ele><time>2026-04-18T13:32:32.295Z</time></trkpt><trkpt lat="39.3766814" lon="9.5365509"><ele>50.0</ele><time>2026-04-18T13:32:33.297Z</time></trkpt><trkpt lat="39.3769221" lon="9.5365051"><ele>50.0</ele><time>2026-04-18T13:32:34.296Z</time></trkpt><trkpt lat="39.3771607" lon="9.5364667"><ele>50.0</ele><time>2026-04-18T13:32:35.296Z</time></trkpt><trkpt lat="39.3773924" lon="9.5364252"><ele>50.0</ele><time>2026-04-18T13:32:36.295Z</time></trkpt><trkpt lat="39.3776244" lon="9.5363781"><ele>50.0</ele><time>2026-04-18T13:32:37.296Z</time></trkpt><trkpt lat="39.3778566" lon="9.5363354"><ele>50.0</ele><time>2026-04-18T13:32:38.296Z</time></trkpt><trkpt lat="39.3780883" lon="9.5362924"><ele>52.0</ele><time>2026-04-18T13:32:39.296Z</time></trkpt><trkpt lat="39.3783228" lon="9.5362541"><ele>54.0</ele><time>2026-04-18T13:32:40.296Z</time></trkpt><trkpt lat="39.3785591" lon="9.5362148"><ele>54.0</ele><time>2026-04-18T13:32:41.295Z</time></trkpt><trkpt lat="39.3787959" lon="9.536185"><ele>54.0</ele><time>2026-04-18T13:32:42.296Z</time></trkpt><trkpt lat="39.3790305" lon="9.5361553"><ele>55.5</ele><time>2026-04-18T13:32:43.297Z</time></trkpt><trkpt lat="39.3792707" lon="9.536127"><ele>57.0</ele><time>2026-04-18T13:32:44.295Z</time></trkpt><trkpt lat="39.3795116" lon="9.5361011"><ele>58.5</ele><time>2026-04-18T13:32:45.296Z</time></trkpt><trkpt lat="39.3797542" lon="9.5360776"><ele>60.0</ele><time>2026-04-18T13:32:46.296Z</time></trkpt><trkpt lat="39.3799985" lon="9.5360623"><ele>60.0</ele><time>2026-04-18T13:32:47.296Z</time></trkpt><trkpt lat="39.3802435" lon="9.5360545"><ele>60.0</ele><time>2026-04-18T13:32:48.297Z</time></trkpt><trkpt lat="39.3804872" lon="9.5360532"><ele>63.5</ele><time>2026-04-18T13:32:49.297Z</time></trkpt><trkpt lat="39.38073" lon="9.5360623"><ele>67.0</ele><time>2026-04-18T13:32:50.296Z</time></trkpt><trkpt lat="39.3809766" lon="9.5360711"><ele>67.0</ele><time>2026-04-18T13:32:51.295Z</time></trkpt><trkpt lat="39.3812171" lon="9.5360892"><ele>67.0</ele><time>2026-04-18T13:32:52.296Z</time></trkpt><trkpt lat="39.3814615" lon="9.5361122"><ele>69.5</ele><time>2026-04-18T13:32:53.296Z</time></trkpt><trkpt lat="39.3816979" lon="9.5361436"><ele>72.0</ele><time>2026-04-18T13:32:54.297Z</time></trkpt><trkpt lat="39.3819338" lon="9.5361856"><ele>72.5</ele><time>2026-04-18T13:32:55.296Z</time></trkpt><trkpt lat="39.3821713" lon="9.5362295"><ele>73.0</ele><time>2026-04-18T13:32:56.297Z</time></trkpt><trkpt lat="39.3824079" lon="9.5362814"><ele>73.0</ele><time>2026-04-18T13:32:57.295Z</time></trkpt><trkpt lat="39.3826444" lon="9.5363412"><ele>73.0</ele><time>2026-04-18T13:32:58.296Z</time></trkpt><trkpt lat="39.3828788" lon="9.536406"><ele>74.5</ele><time>2026-04-18T13:32:59.295Z</time></trkpt><trkpt lat="39.3831123" lon="9.5364786"><ele>76.0</ele><time>2026-04-18T13:33:00.296Z</time></trkpt><trkpt lat="39.3833438" lon="9.5365592"><ele>76.0</ele><time>2026-04-18T13:33:01.296Z</time></trkpt><trkpt lat="39.3835755" lon="9.5366492"><ele>76.0</ele><time>2026-04-18T13:33:02.296Z</time></trkpt><trkpt lat="39.3838072" lon="9.5367424"><ele>79.0</ele><time>2026-04-18T13:33:03.296Z</time></trkpt><trkpt lat="39.3840341" lon="9.536843"><ele>82.0</ele><time>2026-04-18T13:33:04.297Z</time></trkpt><trkpt lat="39.3842693" lon="9.536946"><ele>82.5</ele><time>2026-04-18T13:33:05.296Z</time></trkpt><trkpt lat="39.3844946" lon="9.5370583"><ele>83.0</ele><time>2026-04-18T13:33:06.297Z</time></trkpt><trkpt lat="39.3847165" lon="9.5371705"><ele>83.0</ele><time>2026-04-18T13:33:07.295Z</time></trkpt><trkpt lat="39.384934" lon="9.5372922"><ele>83.0</ele><time>2026-04-18T13:33:08.296Z</time></trkpt><trkpt lat="39.3851495" lon="9.5374256"><ele>83.0</ele><time>2026-04-18T13:33:09.296Z</time></trkpt><trkpt lat="39.3853649" lon="9.5375668"><ele>83.0</ele><time>2026-04-18T13:33:10.297Z</time></trkpt><trkpt lat="39.3855738" lon="9.5377104"><ele>85.5</ele><time>2026-04-18T13:33:11.296Z</time></trkpt><trkpt lat="39.385778" lon="9.5378534"><ele>88.0</ele><time>2026-04-18T13:33:12.296Z</time></trkpt><trkpt lat="39.3859825" lon="9.5380038"><ele>85.0</ele><time>2026-04-18T13:33:13.296Z</time></trkpt><trkpt lat="39.3861851" lon="9.538157"><ele>82.0</ele><time>2026-04-18T13:33:14.297Z</time></trkpt><trkpt lat="39.3863842" lon="9.5383122"><ele>82.0</ele><time>2026-04-18T13:33:15.296Z</time></trkpt><trkpt lat="39.3865788" lon="9.5384785"><ele>82.0</ele><time>2026-04-18T13:33:16.295Z</time></trkpt><trkpt lat="39.3867765" lon="9.5386452"><ele>80.5</ele><time>2026-04-18T13:33:17.295Z</time></trkpt><trkpt lat="39.3869729" lon="9.5388208"><ele>79.0</ele><time>2026-04-18T13:33:18.297Z</time></trkpt><trkpt lat="39.387167" lon="9.5389962"><ele>84.0</ele><time>2026-04-18T13:33:19.295Z</time></trkpt><trkpt lat="39.3873638" lon="9.5391722"><ele>89.0</ele><time>2026-04-18T13:33:20.295Z</time></trkpt><trkpt lat="39.3875598" lon="9.5393494"><ele>89.0</ele><time>2026-04-18T13:33:21.296Z</time></trkpt><trkpt lat="39.3877552" lon="9.5395341"><ele>89.0</ele><time>2026-04-18T13:33:22.297Z</time></trkpt><trkpt lat="39.3879512" lon="9.5397248"><ele>89.5</ele><time>2026-04-18T13:33:23.296Z</time></trkpt><trkpt lat="39.3881504" lon="9.5399153"><ele>90.0</ele><time>2026-04-18T13:33:24.296Z</time></trkpt><trkpt lat="39.3883507" lon="9.5401066"><ele>90.0</ele><time>2026-04-18T13:33:25.297Z</time></trkpt><trkpt lat="39.3885522" lon="9.5402954"><ele>90.0</ele><time>2026-04-18T13:33:26.296Z</time></trkpt><trkpt lat="39.3887498" lon="9.540487"><ele>93.5</ele><time>2026-04-18T13:33:27.295Z</time></trkpt><trkpt lat="39.3889492" lon="9.5406752"><ele>97.0</ele><time>2026-04-18T13:33:28.296Z</time></trkpt><trkpt lat="39.3891473" lon="9.5408619"><ele>97.0</ele><time>2026-04-18T13:33:29.297Z</time></trkpt><trkpt lat="39.3893458" lon="9.5410519"><ele>97.0</ele><time>2026-04-18T13:33:30.296Z</time></trkpt><trkpt lat="39.3895403" lon="9.5412398"><ele>105.0</ele><time>2026-04-18T13:33:31.296Z</time></trkpt><trkpt lat="39.3897331" lon="9.5414293"><ele>113.0</ele><time>2026-04-18T13:33:32.296Z</time></trkpt><trkpt lat="39.3899274" lon="9.5416176"><ele>113.0</ele><time>2026-04-18T13:33:33.296Z</time></trkpt><trkpt lat="39.3901226" lon="9.5418039"><ele>113.0</ele><time>2026-04-18T13:33:34.296Z</time></trkpt><trkpt lat="39.3903169" lon="9.5419899"><ele>112.5</ele><time>2026-04-18T13:33:35.296Z</time></trkpt><trkpt lat="39.3905104" lon="9.5421753"><ele>112.0</ele><time>2026-04-18T13:33:36.296Z</time></trkpt><trkpt lat="39.3907021" lon="9.542359"><ele>112.0</ele><time>2026-04-18T13:33:37.295Z</time></trkpt><trkpt lat="39.3908929" lon="9.54255"><ele>112.0</ele><time>2026-04-18T13:33:38.296Z</time></trkpt><trkpt lat="39.3910886" lon="9.5427355"><ele>118.0</ele><time>2026-04-18T13:33:39.295Z</time></trkpt><trkpt lat="39.3912833" lon="9.5429226"><ele>124.0</ele><time>2026-04-18T13:33:40.295Z</time></trkpt><trkpt lat="39.4051068" lon="9.5561803"><ele>105.0</ele><time>2026-04-18T13:34:52.296Z</time></trkpt><trkpt lat="39.4053295" lon="9.5563578"><ele>86.0</ele><time>2026-04-18T13:34:53.296Z</time></trkpt><trkpt lat="39.4055118" lon="9.5565293"><ele>80.5</ele><time>2026-04-18T13:34:54.296Z</time></trkpt><trkpt lat="39.405691" lon="9.5567003"><ele>75.0</ele><time>2026-04-18T13:34:55.297Z</time></trkpt><trkpt lat="39.4058749" lon="9.5568729"><ele>73.0</ele><time>2026-04-18T13:34:56.296Z</time></trkpt><trkpt lat="39.4060631" lon="9.5570417"><ele>71.0</ele><time>2026-04-18T13:34:57.297Z</time></trkpt><trkpt lat="39.4062542" lon="9.5572103"><ele>70.5</ele><time>2026-04-18T13:34:58.296Z</time></trkpt><trkpt lat="39.4064595" lon="9.5573752"><ele>70.0</ele><time>2026-04-18T13:34:59.296Z</time></trkpt><trkpt lat="39.4066624" lon="9.5575449"><ele>70.0</ele><time>2026-04-18T13:35:00.296Z</time></trkpt><trkpt lat="39.4068649" lon="9.5577097"><ele>70.0</ele><time>2026-04-18T13:35:01.296Z</time></trkpt><trkpt lat="39.407075" lon="9.5578674"><ele>65.5</ele><time>2026-04-18T13:35:02.296Z</time></trkpt><trkpt lat="39.4072851" lon="9.5580159"><ele>61.0</ele><time>2026-04-18T13:35:03.296Z</time></trkpt><trkpt lat="39.4074967" lon="9.5581589"><ele>61.0</ele><time>2026-04-18T13:35:04.296Z</time></trkpt><trkpt lat="39.4077112" lon="9.5582908"><ele>61.0</ele><time>2026-04-18T13:35:05.296Z</time></trkpt><trkpt lat="39.4079292" lon="9.5584153"><ele>64.5</ele><time>2026-04-18T13:35:06.296Z</time></trkpt><trkpt lat="39.4081509" lon="9.5585288"><ele>68.0</ele><time>2026-04-18T13:35:07.297Z</time></trkpt><trkpt lat="39.4083734" lon="9.5586302"><ele>61.5</ele><time>2026-04-18T13:35:08.296Z</time></trkpt><trkpt lat="39.4085965" lon="9.5587171"><ele>55.0</ele><time>2026-04-18T13:35:09.296Z</time></trkpt><trkpt lat="39.4088212" lon="9.5587989"><ele>58.0</ele><time>2026-04-18T13:35:10.296Z</time></trkpt><trkpt lat="39.4090461" lon="9.5588724"><ele>61.0</ele><time>2026-04-18T13:35:11.297Z</time></trkpt><trkpt lat="39.4092796" lon="9.5589381"><ele>61.0</ele><time>2026-04-18T13:35:12.297Z</time></trkpt><trkpt lat="39.4095116" lon="9.5589936"><ele>61.0</ele><time>2026-04-18T13:35:13.296Z</time></trkpt><trkpt lat="39.4097524" lon="9.5590319"><ele>61.5</ele><time>2026-04-18T13:35:14.296Z</time></trkpt><trkpt lat="39.4099948" lon="9.5590606"><ele>62.0</ele><time>2026-04-18T13:35:15.296Z</time></trkpt><trkpt lat="39.4102334" lon="9.5590817"><ele>62.0</ele><time>2026-04-18T13:35:16.296Z</time></trkpt><trkpt lat="39.410473" lon="9.5590904"><ele>62.0</ele><time>2026-04-18T13:35:17.296Z</time></trkpt><trkpt lat="39.4107141" lon="9.5590905"><ele>60.0</ele><time>2026-04-18T13:35:18.296Z</time></trkpt><trkpt lat="39.4109516" lon="9.5590778"><ele>58.0</ele><time>2026-04-18T13:35:19.296Z</time></trkpt><trkpt lat="39.4111856" lon="9.5590562"><ele>55.5</ele><time>2026-04-18T13:35:20.296Z</time></trkpt><trkpt lat="39.4114214" lon="9.559025"><ele>53.0</ele><time>2026-04-18T13:35:21.297Z</time></trkpt><trkpt lat="39.4116524" lon="9.5589897"><ele>53.0</ele><time>2026-04-18T13:35:22.295Z</time></trkpt><trkpt lat="39.4118836" lon="9.5589375"><ele>53.0</ele><time>2026-04-18T13:35:23.296Z</time></trkpt><trkpt lat="39.4121136" lon="9.5588769"><ele>50.0</ele><time>2026-04-18T13:35:24.296Z</time></trkpt><trkpt lat="39.4123441" lon="9.5588118"><ele>47.0</ele><time>2026-04-18T13:35:25.296Z</time></trkpt><trkpt lat="39.4125726" lon="9.5587389"><ele>49.0</ele><time>2026-04-18T13:35:26.295Z</time></trkpt><trkpt lat="39.4128056" lon="9.5586585"><ele>51.0</ele><time>2026-04-18T13:35:27.296Z</time></trkpt><trkpt lat="39.4130386" lon="9.5585754"><ele>51.0</ele><time>2026-04-18T13:35:28.296Z</time></trkpt><trkpt lat="39.4132721" lon="9.5584861"><ele>51.0</ele><time>2026-04-18T13:35:29.296Z</time></trkpt><trkpt lat="39.4135038" lon="9.5583862"><ele>51.0</ele><time>2026-04-18T13:35:30.296Z</time></trkpt><trkpt lat="39.4137351" lon="9.558286"><ele>51.0</ele><time>2026-04-18T13:35:31.296Z</time></trkpt><trkpt lat="39.4139643" lon="9.5581783"><ele>51.0</ele><time>2026-04-18T13:35:32.297Z</time></trkpt><trkpt lat="39.4141938" lon="9.5580712"><ele>51.0</ele><time>2026-04-18T13:35:33.295Z</time></trkpt><trkpt lat="39.4144199" lon="9.5579628"><ele>52.0</ele><time>2026-04-18T13:35:34.296Z</time></trkpt><trkpt lat="39.4146493" lon="9.5578541"><ele>53.0</ele><time>2026-04-18T13:35:35.295Z</time></trkpt><trkpt lat="39.4148785" lon="9.5577464"><ele>53.0</ele><time>2026-04-18T13:35:36.296Z</time></trkpt><trkpt lat="39.4151085" lon="9.5576386"><ele>53.0</ele><time>2026-04-18T13:35:37.296Z</time></trkpt><trkpt lat="39.4153374" lon="9.5575327"><ele>50.0</ele><time>2026-04-18T13:35:38.295Z</time></trkpt><trkpt lat="39.4155621" lon="9.5574332"><ele>47.0</ele><time>2026-04-18T13:35:39.296Z</time></trkpt><trkpt lat="39.4157901" lon="9.5573388"><ele>47.0</ele><time>2026-04-18T13:35:40.296Z</time></trkpt><trkpt lat="39.4160216" lon="9.5572527"><ele>47.0</ele><time>2026-04-18T13:35:41.296Z</time></trkpt><trkpt lat="39.4162542" lon="9.557175"><ele>43.5</ele><time>2026-04-18T13:35:42.295Z</time></trkpt><trkpt lat="39.4164851" lon="9.5571074"><ele>40.0</ele><time>2026-04-18T13:35:43.295Z</time></trkpt><trkpt lat="39.4167208" lon="9.5570505"><ele>41.0</ele><time>2026-04-18T13:35:44.297Z</time></trkpt><trkpt lat="39.4169575" lon="9.5570005"><ele>42.0</ele><time>2026-04-18T13:35:45.296Z</time></trkpt><trkpt lat="39.4171909" lon="9.5569599"><ele>42.0</ele><time>2026-04-18T13:35:46.295Z</time></trkpt><trkpt lat="39.4174259" lon="9.5569376"><ele>42.0</ele><time>2026-04-18T13:35:47.297Z</time></trkpt><trkpt lat="39.4176656" lon="9.5569251"><ele>42.0</ele><time>2026-04-18T13:35:48.296Z</time></trkpt><trkpt lat="39.4179099" lon="9.5569238"><ele>42.0</ele><time>2026-04-18T13:35:49.295Z</time></trkpt><trkpt lat="39.4181523" lon="9.5569373"><ele>40.5</ele><time>2026-04-18T13:35:50.296Z</time></trkpt><trkpt lat="39.4183936" lon="9.5569607"><ele>39.0</ele><time>2026-04-18T13:35:51.296Z</time></trkpt><trkpt lat="39.418633" lon="9.5569967"><ele>35.5</ele><time>2026-04-18T13:35:52.295Z</time></trkpt><trkpt lat="39.4188726" lon="9.5570471"><ele>32.0</ele><time>2026-04-18T13:35:53.295Z</time></trkpt><trkpt lat="39.4191099" lon="9.5571071"><ele>32.0</ele><time>2026-04-18T13:35:54.295Z</time></trkpt><trkpt lat="39.4193407" lon="9.5571736"><ele>32.0</ele><time>2026-04-18T13:35:55.296Z</time></trkpt><trkpt lat="39.4195705" lon="9.5572486"><ele>31.5</ele><time>2026-04-18T13:35:56.296Z</time></trkpt><trkpt lat="39.4197981" lon="9.5573277"><ele>31.0</ele><time>2026-04-18T13:35:57.296Z</time></trkpt><trkpt lat="39.4200212" lon="9.5574169"><ele>31.0</ele><time>2026-04-18T13:35:58.296Z</time></trkpt><trkpt lat="39.4202435" lon="9.5575094"><ele>31.0</ele><time>2026-04-18T13:35:59.297Z</time></trkpt><trkpt lat="39.4204645" lon="9.5575995"><ele>32.5</ele><time>2026-04-18T13:36:00.295Z</time></trkpt><trkpt lat="39.4206844" lon="9.5576912"><ele>34.0</ele><time>2026-04-18T13:36:01.297Z</time></trkpt><trkpt lat="39.4209041" lon="9.5577875"><ele>30.0</ele><time>2026-04-18T13:36:02.295Z</time></trkpt><trkpt lat="39.4211251" lon="9.557882"><ele>26.0</ele><time>2026-04-18T13:36:03.296Z</time></trkpt><trkpt lat="39.4213452" lon="9.5579747"><ele>26.0</ele><time>2026-04-18T13:36:04.296Z</time></trkpt><trkpt lat="39.4215663" lon="9.5580699"><ele>26.0</ele><time>2026-04-18T13:36:05.296Z</time></trkpt><trkpt lat="39.4217885" lon="9.5581638"><ele>26.0</ele><time>2026-04-18T13:36:06.295Z</time></trkpt><trkpt lat="39.4220126" lon="9.5582629"><ele>26.0</ele><time>2026-04-18T13:36:07.295Z</time></trkpt><trkpt lat="39.4222417" lon="9.5583619"><ele>27.5</ele><time>2026-04-18T13:36:08.296Z</time></trkpt><trkpt lat="39.4224716" lon="9.5584644"><ele>29.0</ele><time>2026-04-18T13:36:09.296Z</time></trkpt><trkpt lat="39.4227037" lon="9.5585605"><ele>29.0</ele><time>2026-04-18T13:36:10.295Z</time></trkpt><trkpt lat="39.4229356" lon="9.558657"><ele>29.0</ele><time>2026-04-18T13:36:11.297Z</time></trkpt><trkpt lat="39.4231644" lon="9.5587563"><ele>26.5</ele><time>2026-04-18T13:36:12.296Z</time></trkpt><trkpt lat="39.4233909" lon="9.5588497"><ele>24.0</ele><time>2026-04-18T13:36:13.296Z</time></trkpt><trkpt lat="39.423619" lon="9.5589391"><ele>25.5</ele><time>2026-04-18T13:36:14.296Z</time></trkpt><trkpt lat="39.4238502" lon="9.5590222"><ele>27.0</ele><time>2026-04-18T13:36:15.295Z</time></trkpt><trkpt lat="39.4240815" lon="9.5591015"><ele>27.0</ele><time>2026-04-18T13:36:16.297Z</time></trkpt><trkpt lat="39.4243179" lon="9.5591741"><ele>27.0</ele><time>2026-04-18T13:36:17.297Z</time></trkpt><trkpt lat="39.4245565" lon="9.5592419"><ele>28.0</ele><time>2026-04-18T13:36:18.296Z</time></trkpt><trkpt lat="39.4247934" lon="9.5592996"><ele>29.0</ele><time>2026-04-18T13:36:19.296Z</time></trkpt><trkpt lat="39.425033" lon="9.5593542"><ele>29.0</ele><time>2026-04-18T13:36:20.297Z</time></trkpt><trkpt lat="39.4252689" lon="9.5594007"><ele>29.0</ele><time>2026-04-18T13:36:21.296Z</time></trkpt><trkpt lat="39.42551" lon="9.5594402"><ele>25.0</ele><time>2026-04-18T13:36:22.295Z</time></trkpt><trkpt lat="39.4257488" lon="9.5594736"><ele>21.0</ele><time>2026-04-18T13:36:23.296Z</time></trkpt><trkpt lat="39.4259841" lon="9.5594925"><ele>21.0</ele><time>2026-04-18T13:36:24.296Z</time></trkpt><trkpt lat="39.426224" lon="9.5595083"><ele>21.0</ele><time>2026-04-18T13:36:25.296Z</time></trkpt><trkpt lat="39.4264614" lon="9.5595136"><ele>15.0</ele><time>2026-04-18T13:36:26.296Z</time></trkpt><trkpt lat="39.426696" lon="9.5595166"><ele>9.0</ele><time>2026-04-18T13:36:27.296Z</time></trkpt><trkpt lat="39.4269312" lon="9.5595156"><ele>8.5</ele><time>2026-04-18T13:36:28.296Z</time></trkpt><trkpt lat="39.4271649" lon="9.5595071"><ele>8.0</ele><time>2026-04-18T13:36:29.296Z</time></trkpt><trkpt lat="39.4273976" lon="9.5594956"><ele>8.0</ele><time>2026-04-18T13:36:30.296Z</time></trkpt><trkpt lat="39.4276334" lon="9.5594878"><ele>8.0</ele><time>2026-04-18T13:36:31.296Z</time></trkpt><trkpt lat="39.4278692" lon="9.5594697"><ele>8.0</ele><time>2026-04-18T13:36:32.296Z</time></trkpt><trkpt lat="39.4281039" lon="9.5594476"><ele>8.0</ele><time>2026-04-18T13:36:33.296Z</time></trkpt><trkpt lat="39.42834" lon="9.5594214"><ele>8.0</ele><time>2026-04-18T13:36:34.296Z</time></trkpt><trkpt lat="39.4285759" lon="9.5593942"><ele>8.0</ele><time>2026-04-18T13:36:35.296Z</time></trkpt><trkpt lat="39.4288119" lon="9.5593701"><ele>7.5</ele><time>2026-04-18T13:36:36.296Z</time></trkpt><trkpt lat="39.4290503" lon="9.5593451"><ele>7.0</ele><time>2026-04-18T13:36:37.296Z</time></trkpt><trkpt lat="39.4292901" lon="9.5593143"><ele>7.0</ele><time>2026-04-18T13:36:38.296Z</time></trkpt><trkpt lat="39.4295288" lon="9.5592887"><ele>7.0</ele><time>2026-04-18T13:36:39.296Z</time></trkpt><trkpt lat="39.4297659" lon="9.5592651"><ele>7.5</ele><time>2026-04-18T13:36:40.296Z</time></trkpt><trkpt lat="39.4300056" lon="9.5592365"><ele>8.0</ele><time>2026-04-18T13:36:41.296Z</time></trkpt><trkpt lat="39.4302455" lon="9.5592084"><ele>8.0</ele><time>2026-04-18T13:36:42.296Z</time></trkpt><trkpt lat="39.4304852" lon="9.5591813"><ele>8.0</ele><time>2026-04-18T13:36:43.296Z</time></trkpt><trkpt lat="39.4307273" lon="9.5591552"><ele>8.0</ele><time>2026-04-18T13:36:44.296Z</time></trkpt><trkpt lat="39.4309677" lon="9.5591247"><ele>8.0</ele><time>2026-04-18T13:36:45.296Z</time></trkpt><trkpt lat="39.4312084" lon="9.559099"><ele>7.5</ele><time>2026-04-18T13:36:46.296Z</time></trkpt><trkpt lat="39.4314414" lon="9.5590765"><ele>7.0</ele><time>2026-04-18T13:36:47.296Z</time></trkpt><trkpt lat="39.4316706" lon="9.559054"><ele>7.0</ele><time>2026-04-18T13:36:48.296Z</time></trkpt><trkpt lat="39.4319039" lon="9.5590269"><ele>7.0</ele><time>2026-04-18T13:36:49.297Z</time></trkpt><trkpt lat="39.4321363" lon="9.5590101"><ele>7.0</ele><time>2026-04-18T13:36:50.296Z</time></trkpt><trkpt lat="39.4323636" lon="9.5589907"><ele>7.0</ele><time>2026-04-18T13:36:51.297Z</time></trkpt><trkpt lat="39.4325935" lon="9.5589659"><ele>7.0</ele><time>2026-04-18T13:36:52.295Z</time></trkpt><trkpt lat="39.4328273" lon="9.5589454"><ele>7.0</ele><time>2026-04-18T13:36:53.297Z</time></trkpt><trkpt lat="39.4330601" lon="9.5589183"><ele>7.0</ele><time>2026-04-18T13:36:54.296Z</time></trkpt><trkpt lat="39.4332975" lon="9.5588922"><ele>7.0</ele><time>2026-04-18T13:36:55.296Z</time></trkpt><trkpt lat="39.433538" lon="9.5588639"><ele>7.0</ele><time>2026-04-18T13:36:56.296Z</time></trkpt><trkpt lat="39.4337797" lon="9.5588361"><ele>7.0</ele><time>2026-04-18T13:36:57.296Z</time></trkpt><trkpt lat="39.4340267" lon="9.5588101"><ele>7.5</ele><time>2026-04-18T13:36:58.295Z</time></trkpt><trkpt lat="39.4342776" lon="9.5587844"><ele>8.0</ele><time>2026-04-18T13:36:59.296Z</time></trkpt><trkpt lat="39.4345253" lon="9.5587592"><ele>8.0</ele><time>2026-04-18T13:37:00.296Z</time></trkpt><trkpt lat="39.4347703" lon="9.5587306"><ele>8.0</ele><time>2026-04-18T13:37:01.296Z</time></trkpt><trkpt lat="39.4350175" lon="9.5587038"><ele>8.0</ele><time>2026-04-18T13:37:02.297Z</time></trkpt><trkpt lat="39.4352625" lon="9.5586802"><ele>8.0</ele><time>2026-04-18T13:37:03.296Z</time></trkpt><trkpt lat="39.4354987" lon="9.5586574"><ele>8.0</ele><time>2026-04-18T13:37:04.295Z</time></trkpt><trkpt lat="39.4357376" lon="9.5586288"><ele>8.0</ele><time>2026-04-18T13:37:05.296Z</time></trkpt><trkpt lat="39.4359817" lon="9.558602"><ele>8.0</ele><time>2026-04-18T13:37:06.297Z</time></trkpt><trkpt lat="39.4362264" lon="9.5585733"><ele>8.0</ele><time>2026-04-18T13:37:07.296Z</time></trkpt><trkpt lat="39.4364675" lon="9.5585496"><ele>8.0</ele><time>2026-04-18T13:37:08.296Z</time></trkpt><trkpt lat="39.4367091" lon="9.5585281"><ele>8.0</ele><time>2026-04-18T13:37:09.296Z</time></trkpt><trkpt lat="39.4369526" lon="9.5585052"><ele>8.5</ele><time>2026-04-18T13:37:10.295Z</time></trkpt><trkpt lat="39.4371933" lon="9.5584806"><ele>9.0</ele><time>2026-04-18T13:37:11.296Z</time></trkpt><trkpt lat="39.437432" lon="9.5584521"><ele>9.0</ele><time>2026-04-18T13:37:12.296Z</time></trkpt><trkpt lat="39.4376694" lon="9.5584212"><ele>9.0</ele><time>2026-04-18T13:37:13.297Z</time></trkpt><trkpt lat="39.4379084" lon="9.5583941"><ele>9.0</ele><time>2026-04-18T13:37:14.296Z</time></trkpt><trkpt lat="39.4381437" lon="9.5583781"><ele>9.0</ele><time>2026-04-18T13:37:15.296Z</time></trkpt><trkpt lat="39.4383828" lon="9.5583667"><ele>9.0</ele><time>2026-04-18T13:37:16.296Z</time></trkpt><trkpt lat="39.4386227" lon="9.5583603"><ele>9.0</ele><time>2026-04-18T13:37:17.296Z</time></trkpt><trkpt lat="39.438859" lon="9.5583552"><ele>8.5</ele><time>2026-04-18T13:37:18.296Z</time></trkpt><trkpt lat="39.4390965" lon="9.5583604"><ele>8.0</ele><time>2026-04-18T13:37:19.295Z</time></trkpt><trkpt lat="39.4393317" lon="9.5583769"><ele>8.0</ele><time>2026-04-18T13:37:20.296Z</time></trkpt><trkpt lat="39.4395653" lon="9.5583981"><ele>8.0</ele><time>2026-04-18T13:37:21.296Z</time></trkpt><trkpt lat="39.4397957" lon="9.5584272"><ele>7.0</ele><time>2026-04-18T13:37:22.296Z</time></trkpt><trkpt lat="39.4400268" lon="9.5584678"><ele>6.0</ele><time>2026-04-18T13:37:23.296Z</time></trkpt><trkpt lat="39.4402548" lon="9.5585201"><ele>7.0</ele><time>2026-04-18T13:37:24.295Z</time></trkpt><trkpt lat="39.4404859" lon="9.5585843"><ele>8.0</ele><time>2026-04-18T13:37:25.296Z</time></trkpt><trkpt lat="39.4407152" lon="9.5586529"><ele>8.5</ele><time>2026-04-18T13:37:26.296Z</time></trkpt><trkpt lat="39.4409407" lon="9.5587277"><ele>9.0</ele><time>2026-04-18T13:37:27.296Z</time></trkpt><trkpt lat="39.4411638" lon="9.5588124"><ele>10.0</ele><time>2026-04-18T13:37:28.296Z</time></trkpt><trkpt lat="39.4413831" lon="9.5589125"><ele>11.0</ele><time>2026-04-18T13:37:29.296Z</time></trkpt><trkpt lat="39.4416042" lon="9.5590301"><ele>11.0</ele><time>2026-04-18T13:37:30.295Z</time></trkpt><trkpt lat="39.4418218" lon="9.5591505"><ele>11.0</ele><time>2026-04-18T13:37:31.296Z</time></trkpt><trkpt lat="39.4420362" lon="9.5592761"><ele>12.0</ele><time>2026-04-18T13:37:32.297Z</time></trkpt><trkpt lat="39.4422483" lon="9.5594147"><ele>13.0</ele><time>2026-04-18T13:37:33.295Z</time></trkpt><trkpt lat="39.4424571" lon="9.5595631"><ele>13.0</ele><time>2026-04-18T13:37:34.297Z</time></trkpt><trkpt lat="39.4426594" lon="9.5597164"><ele>13.0</ele><time>2026-04-18T13:37:35.296Z</time></trkpt><trkpt lat="39.4428577" lon="9.5598789"><ele>19.5</ele><time>2026-04-18T13:37:36.295Z</time></trkpt><trkpt lat="39.443058" lon="9.5600525"><ele>26.0</ele><time>2026-04-18T13:37:37.296Z</time></trkpt><trkpt lat="39.4432474" lon="9.5602318"><ele>21.5</ele><time>2026-04-18T13:37:38.295Z</time></trkpt><trkpt lat="39.4434376" lon="9.5604214"><ele>17.0</ele><time>2026-04-18T13:37:39.296Z</time></trkpt><trkpt lat="39.4436255" lon="9.5606126"><ele>22.0</ele><time>2026-04-18T13:37:40.296Z</time></trkpt><trkpt lat="39.4438097" lon="9.5608105"><ele>27.0</ele><time>2026-04-18T13:37:41.296Z</time></trkpt><trkpt lat="39.4439926" lon="9.5610108"><ele>23.0</ele><time>2026-04-18T13:37:42.296Z</time></trkpt><trkpt lat="39.4441734" lon="9.5612124"><ele>19.0</ele><time>2026-04-18T13:37:43.296Z</time></trkpt><trkpt lat="39.4443531" lon="9.5614107"><ele>19.0</ele><time>2026-04-18T13:37:44.296Z</time></trkpt><trkpt lat="39.4445315" lon="9.561618"><ele>19.0</ele><time>2026-04-18T13:37:45.296Z</time></trkpt><trkpt lat="39.4447105" lon="9.5618217"><ele>19.0</ele><time>2026-04-18T13:37:46.296Z</time></trkpt><trkpt lat="39.4448875" lon="9.562023"><ele>19.0</ele><time>2026-04-18T13:37:47.295Z</time></trkpt><trkpt lat="39.4450664" lon="9.5622223"><ele>19.0</ele><time>2026-04-18T13:37:48.295Z</time></trkpt><trkpt lat="39.4452385" lon="9.5624248"><ele>19.0</ele><time>2026-04-18T13:37:49.296Z</time></trkpt><trkpt lat="39.4454107" lon="9.5626233"><ele>20.5</ele><time>2026-04-18T13:37:50.296Z</time></trkpt><trkpt lat="39.4455823" lon="9.5628243"><ele>22.0</ele><time>2026-04-18T13:37:51.296Z</time></trkpt><trkpt lat="39.4457534" lon="9.5630249"><ele>22.0</ele><time>2026-04-18T13:37:52.296Z</time></trkpt><trkpt lat="39.4459284" lon="9.5632299"><ele>22.0</ele><time>2026-04-18T13:37:53.296Z</time></trkpt><trkpt lat="39.4460991" lon="9.5634343"><ele>22.0</ele><time>2026-04-18T13:37:54.296Z</time></trkpt><trkpt lat="39.4462725" lon="9.5636386"><ele>22.0</ele><time>2026-04-18T13:37:55.295Z</time></trkpt><trkpt lat="39.4464482" lon="9.5638382"><ele>27.0</ele><time>2026-04-18T13:37:56.296Z</time></trkpt><trkpt lat="39.4466266" lon="9.5640344"><ele>32.0</ele><time>2026-04-18T13:37:57.297Z</time></trkpt><trkpt lat="39.4468047" lon="9.5642328"><ele>32.0</ele><time>2026-04-18T13:37:58.296Z</time></trkpt><trkpt lat="39.4469845" lon="9.5644243"><ele>32.0</ele><time>2026-04-18T13:37:59.295Z</time></trkpt><trkpt lat="39.4471695" lon="9.5646122"><ele>32.5</ele><time>2026-04-18T13:38:00.296Z</time></trkpt><trkpt lat="39.4473594" lon="9.5647997"><ele>33.0</ele><time>2026-04-18T13:38:01.296Z</time></trkpt><trkpt lat="39.4475505" lon="9.5649791"><ele>33.0</ele><time>2026-04-18T13:38:02.296Z</time></trkpt><trkpt lat="39.4477464" lon="9.5651577"><ele>33.0</ele><time>2026-04-18T13:38:03.297Z</time></trkpt><trkpt lat="39.4479441" lon="9.5653279"><ele>34.5</ele><time>2026-04-18T13:38:04.295Z</time></trkpt><trkpt lat="39.4481482" lon="9.5654919"><ele>36.0</ele><time>2026-04-18T13:38:05.296Z</time></trkpt><trkpt lat="39.448352" lon="9.5656525"><ele>36.0</ele><time>2026-04-18T13:38:06.296Z</time></trkpt><trkpt lat="39.4485593" lon="9.5658061"><ele>36.0</ele><time>2026-04-18T13:38:07.297Z</time></trkpt><trkpt lat="39.4487731" lon="9.5659513"><ele>36.5</ele><time>2026-04-18T13:38:08.295Z</time></trkpt><trkpt lat="39.4489863" lon="9.5661018"><ele>37.0</ele><time>2026-04-18T13:38:09.297Z</time></trkpt><trkpt lat="39.4491978" lon="9.5662551"><ele>37.0</ele><time>2026-04-18T13:38:10.296Z</time></trkpt><trkpt lat="39.4494132" lon="9.5664044"><ele>37.0</ele><time>2026-04-18T13:38:11.295Z</time></trkpt><trkpt lat="39.4496224" lon="9.5665517"><ele>39.5</ele><time>2026-04-18T13:38:12.296Z</time></trkpt><trkpt lat="39.449836" lon="9.5667056"><ele>42.0</ele><time>2026-04-18T13:38:13.296Z</time></trkpt><trkpt lat="39.4500479" lon="9.5668569"><ele>42.0</ele><time>2026-04-18T13:38:14.296Z</time></trkpt><trkpt lat="39.450259" lon="9.5670045"><ele>42.0</ele><time>2026-04-18T13:38:15.296Z</time></trkpt><trkpt lat="39.4504673" lon="9.567155"><ele>41.5</ele><time>2026-04-18T13:38:16.296Z</time></trkpt><trkpt lat="39.4506792" lon="9.5672984"><ele>41.0</ele><time>2026-04-18T13:38:17.295Z</time></trkpt><trkpt lat="39.4508896" lon="9.5674489"><ele>41.0</ele><time>2026-04-18T13:38:18.296Z</time></trkpt><trkpt lat="39.4510988" lon="9.5676003"><ele>41.0</ele><time>2026-04-18T13:38:19.296Z</time></trkpt><trkpt lat="39.4513114" lon="9.5677561"><ele>42.0</ele><time>2026-04-18T13:38:20.296Z</time></trkpt><trkpt lat="39.4515184" lon="9.5679122"><ele>43.0</ele><time>2026-04-18T13:38:21.296Z</time></trkpt><trkpt lat="39.4517255" lon="9.5680664"><ele>43.0</ele><time>2026-04-18T13:38:22.296Z</time></trkpt><trkpt lat="39.4519358" lon="9.5682281"><ele>43.0</ele><time>2026-04-18T13:38:23.296Z</time></trkpt><trkpt lat="39.4521383" lon="9.5683935"><ele>44.0</ele><time>2026-04-18T13:38:24.297Z</time></trkpt><trkpt lat="39.4523442" lon="9.5685594"><ele>45.0</ele><time>2026-04-18T13:38:25.295Z</time></trkpt><trkpt lat="39.452545" lon="9.5687289"><ele>45.0</ele><time>2026-04-18T13:38:26.296Z</time></trkpt><trkpt lat="39.4527453" lon="9.5689005"><ele>45.0</ele><time>2026-04-18T13:38:27.296Z</time></trkpt><trkpt lat="39.4529403" lon="9.5690715"><ele>50.5</ele><time>2026-04-18T13:38:28.296Z</time></trkpt><trkpt lat="39.4531292" lon="9.5692444"><ele>56.0</ele><time>2026-04-18T13:38:29.296Z</time></trkpt><trkpt lat="39.4533174" lon="9.5694218"><ele>54.0</ele><time>2026-04-18T13:38:30.296Z</time></trkpt><trkpt lat="39.4535048" lon="9.5696007"><ele>52.0</ele><time>2026-04-18T13:38:31.296Z</time></trkpt><trkpt lat="39.4536869" lon="9.5697917"><ele>58.0</ele><time>2026-04-18T13:38:32.296Z</time></trkpt><trkpt lat="39.4538684" lon="9.569992"><ele>64.0</ele><time>2026-04-18T13:38:33.296Z</time></trkpt><trkpt lat="39.4540435" lon="9.5701936"><ele>61.0</ele><time>2026-04-18T13:38:34.295Z</time></trkpt><trkpt lat="39.4542184" lon="9.5703984"><ele>58.0</ele><time>2026-04-18T13:38:35.296Z</time></trkpt><trkpt lat="39.4543866" lon="9.5706065"><ele>58.0</ele><time>2026-04-18T13:38:36.295Z</time></trkpt><trkpt lat="39.4545541" lon="9.5708178"><ele>58.0</ele><time>2026-04-18T13:38:37.296Z</time></trkpt><trkpt lat="39.4547153" lon="9.5710296"><ele>62.5</ele><time>2026-04-18T13:38:38.296Z</time></trkpt><trkpt lat="39.4548725" lon="9.5712522"><ele>67.0</ele><time>2026-04-18T13:38:39.297Z</time></trkpt><trkpt lat="39.4550288" lon="9.5714834"><ele>67.0</ele><time>2026-04-18T13:38:40.296Z</time></trkpt><trkpt lat="39.455181" lon="9.5717203"><ele>67.0</ele><time>2026-04-18T13:38:41.297Z</time></trkpt><trkpt lat="39.4553289" lon="9.5719596"><ele>70.5</ele><time>2026-04-18T13:38:42.296Z</time></trkpt><trkpt lat="39.4554716" lon="9.5722007"><ele>74.0</ele><time>2026-04-18T13:38:43.297Z</time></trkpt><trkpt lat="39.4556095" lon="9.5724434"><ele>74.0</ele><time>2026-04-18T13:38:44.296Z</time></trkpt><trkpt lat="39.4557437" lon="9.5726903"><ele>74.0</ele><time>2026-04-18T13:38:45.296Z</time></trkpt><trkpt lat="39.4558768" lon="9.572939"><ele>71.0</ele><time>2026-04-18T13:38:46.296Z</time></trkpt><trkpt lat="39.4559974" lon="9.5731927"><ele>68.0</ele><time>2026-04-18T13:38:47.297Z</time></trkpt><trkpt lat="39.4561213" lon="9.573454"><ele>65.5</ele><time>2026-04-18T13:38:48.296Z</time></trkpt><trkpt lat="39.45624" lon="9.5737164"><ele>63.0</ele><time>2026-04-18T13:38:49.296Z</time></trkpt><trkpt lat="39.4563512" lon="9.5739795"><ele>68.0</ele><time>2026-04-18T13:38:50.295Z</time></trkpt><trkpt lat="39.4564587" lon="9.57424"><ele>73.0</ele><time>2026-04-18T13:38:51.296Z</time></trkpt><trkpt lat="39.4565602" lon="9.5744986"><ele>71.66666666666666</ele><time>2026-04-18T13:38:52.295Z</time></trkpt><trkpt lat="39.4566566" lon="9.5747575"><ele>70.33333333333333</ele><time>2026-04-18T13:38:53.295Z</time></trkpt><trkpt lat="39.4567486" lon="9.5750208"><ele>69.0</ele><time>2026-04-18T13:38:54.295Z</time></trkpt><trkpt lat="39.456833" lon="9.5752759"><ele>72.33333333333333</ele><time>2026-04-18T13:38:55.296Z</time></trkpt><trkpt lat="39.4569116" lon="9.5755337"><ele>75.66666666666666</ele><time>2026-04-18T13:38:56.295Z</time></trkpt><trkpt lat="39.4569855" lon="9.5757998"><ele>79.0</ele><time>2026-04-18T13:38:57.294Z</time></trkpt><trkpt lat="39.4570625" lon="9.5760764"><ele>86.0</ele><time>2026-04-18T13:38:58.294Z</time></trkpt><trkpt lat="39.4571381" lon="9.5763606"><ele>93.0</ele><time>2026-04-18T13:38:59.295Z</time></trkpt><trkpt lat="39.45721" lon="9.5766546"><ele>93.0</ele><time>2026-04-18T13:39:00.295Z</time></trkpt><trkpt lat="39.4572847" lon="9.5769439"><ele>93.0</ele><time>2026-04-18T13:39:01.296Z</time></trkpt><trkpt lat="39.4573575" lon="9.5772386"><ele>86.0</ele><time>2026-04-18T13:39:02.295Z</time></trkpt><trkpt lat="39.4585221" lon="9.5835292"><ele>81.0</ele><time>2026-04-18T13:39:22.295Z</time></trkpt><trkpt lat="39.4585828" lon="9.5838163"><ele>76.0</ele><time>2026-04-18T13:39:23.296Z</time></trkpt><trkpt lat="39.4586526" lon="9.5841156"><ele>76.0</ele><time>2026-04-18T13:39:24.294Z</time></trkpt><trkpt lat="39.4587088" lon="9.5844182"><ele>76.0</ele><time>2026-04-18T13:39:25.296Z</time></trkpt><trkpt lat="39.4587835" lon="9.5847189"><ele>79.5</ele><time>2026-04-18T13:39:26.295Z</time></trkpt><trkpt lat="39.4588558" lon="9.5850056"><ele>83.0</ele><time>2026-04-18T13:39:27.295Z</time></trkpt><trkpt lat="39.4589359" lon="9.5852944"><ele>80.5</ele><time>2026-04-18T13:39:28.295Z</time></trkpt><trkpt lat="39.4590188" lon="9.5855856"><ele>78.0</ele><time>2026-04-18T13:39:29.296Z</time></trkpt><trkpt lat="39.4591055" lon="9.585867"><ele>78.0</ele><time>2026-04-18T13:39:30.296Z</time></trkpt><trkpt lat="39.4592079" lon="9.586153"><ele>78.0</ele><time>2026-04-18T13:39:31.295Z</time></trkpt><trkpt lat="39.4593193" lon="9.5864234"><ele>75.5</ele><time>2026-04-18T13:39:32.295Z</time></trkpt><trkpt lat="39.4594318" lon="9.5866825"><ele>73.0</ele><time>2026-04-18T13:39:33.295Z</time></trkpt><trkpt lat="39.4595559" lon="9.5869347"><ele>80.5</ele><time>2026-04-18T13:39:34.296Z</time></trkpt><trkpt lat="39.4596843" lon="9.5871854"><ele>88.0</ele><time>2026-04-18T13:39:35.295Z</time></trkpt><trkpt lat="39.4598212" lon="9.5874332"><ele>88.0</ele><time>2026-04-18T13:39:36.296Z</time></trkpt><trkpt lat="39.4599707" lon="9.5876669"><ele>88.0</ele><time>2026-04-18T13:39:37.296Z</time></trkpt><trkpt lat="39.4601305" lon="9.5878943"><ele>83.5</ele><time>2026-04-18T13:39:38.296Z</time></trkpt><trkpt lat="39.4602937" lon="9.5881132"><ele>79.0</ele><time>2026-04-18T13:39:39.295Z</time></trkpt><trkpt lat="39.4604644" lon="9.5883218"><ele>78.0</ele><time>2026-04-18T13:39:40.294Z</time></trkpt><trkpt lat="39.4606502" lon="9.5885156"><ele>77.0</ele><time>2026-04-18T13:39:41.294Z</time></trkpt><trkpt lat="39.4608388" lon="9.5886961"><ele>70.0</ele><time>2026-04-18T13:39:42.295Z</time></trkpt><trkpt lat="39.4610313" lon="9.5888784"><ele>63.0</ele><time>2026-04-18T13:39:43.294Z</time></trkpt><trkpt lat="39.4612329" lon="9.5890483"><ele>64.0</ele><time>2026-04-18T13:39:44.295Z</time></trkpt><trkpt lat="39.4614412" lon="9.5892047"><ele>65.0</ele><time>2026-04-18T13:39:45.294Z</time></trkpt><trkpt lat="39.4616528" lon="9.5893528"><ele>65.0</ele><time>2026-04-18T13:39:46.295Z</time></trkpt><trkpt lat="39.4618635" lon="9.5894985"><ele>65.0</ele><time>2026-04-18T13:39:47.295Z</time></trkpt><trkpt lat="39.4620729" lon="9.5896404"><ele>67.5</ele><time>2026-04-18T13:39:48.294Z</time></trkpt><trkpt lat="39.4622815" lon="9.589777"><ele>70.0</ele><time>2026-04-18T13:39:49.295Z</time></trkpt><trkpt lat="39.4624911" lon="9.5899077"><ele>70.0</ele><time>2026-04-18T13:39:50.295Z</time></trkpt><trkpt lat="39.4626979" lon="9.5900363"><ele>70.0</ele><time>2026-04-18T13:39:51.296Z</time></trkpt><trkpt lat="39.462906" lon="9.59017"><ele>71.5</ele><time>2026-04-18T13:39:52.295Z</time></trkpt><trkpt lat="39.463116" lon="9.5902993"><ele>73.0</ele><time>2026-04-18T13:39:53.295Z</time></trkpt><trkpt lat="39.4633268" lon="9.5904393"><ele>73.0</ele><time>2026-04-18T13:39:54.295Z</time></trkpt><trkpt lat="39.4635348" lon="9.5905771"><ele>73.0</ele><time>2026-04-18T13:39:55.295Z</time></trkpt><trkpt lat="39.4637392" lon="9.5907206"><ele>76.5</ele><time>2026-04-18T13:39:56.295Z</time></trkpt><trkpt lat="39.463943" lon="9.5908707"><ele>80.0</ele><time>2026-04-18T13:39:57.295Z</time></trkpt><trkpt lat="39.4641451" lon="9.5910265"><ele>78.0</ele><time>2026-04-18T13:39:58.295Z</time></trkpt><trkpt lat="39.4643436" lon="9.5911899"><ele>76.0</ele><time>2026-04-18T13:39:59.295Z</time></trkpt><trkpt lat="39.4645391" lon="9.5913559"><ele>85.5</ele><time>2026-04-18T13:40:00.295Z</time></trkpt><trkpt lat="39.4647291" lon="9.591525"><ele>95.0</ele><time>2026-04-18T13:40:01.295Z</time></trkpt><trkpt lat="39.4649156" lon="9.5917002"><ele>95.0</ele><time>2026-04-18T13:40:02.295Z</time></trkpt><trkpt lat="39.4651048" lon="9.5918839"><ele>95.0</ele><time>2026-04-18T13:40:03.296Z</time></trkpt><trkpt lat="39.465287" lon="9.5920719"><ele>97.5</ele><time>2026-04-18T13:40:04.296Z</time></trkpt><trkpt lat="39.4654685" lon="9.5922674"><ele>100.0</ele><time>2026-04-18T13:40:05.296Z</time></trkpt><trkpt lat="39.4656469" lon="9.5924644"><ele>100.0</ele><time>2026-04-18T13:40:06.295Z</time></trkpt><trkpt lat="39.4658238" lon="9.5926642"><ele>100.0</ele><time>2026-04-18T13:40:07.294Z</time></trkpt><trkpt lat="39.4659994" lon="9.5928667"><ele>95.5</ele><time>2026-04-18T13:40:08.295Z</time></trkpt><trkpt lat="39.4661733" lon="9.593073"><ele>91.0</ele><time>2026-04-18T13:40:09.294Z</time></trkpt><trkpt lat="39.4663471" lon="9.5932755"><ele>97.5</ele><time>2026-04-18T13:40:10.295Z</time></trkpt><trkpt lat="39.4665236" lon="9.5934831"><ele>104.0</ele><time>2026-04-18T13:40:11.296Z</time></trkpt><trkpt lat="39.4667016" lon="9.5936869"><ele>104.0</ele><time>2026-04-18T13:40:12.295Z</time></trkpt><trkpt lat="39.4668792" lon="9.5938918"><ele>104.0</ele><time>2026-04-18T13:40:13.294Z</time></trkpt><trkpt lat="39.4670613" lon="9.5941015"><ele>101.0</ele><time>2026-04-18T13:40:14.295Z</time></trkpt><trkpt lat="39.467248" lon="9.5943174"><ele>98.0</ele><time>2026-04-18T13:40:15.295Z</time></trkpt><trkpt lat="39.4674333" lon="9.5945308"><ele>98.0</ele><time>2026-04-18T13:40:16.295Z</time></trkpt><trkpt lat="39.4676177" lon="9.5947439"><ele>98.0</ele><time>2026-04-18T13:40:17.295Z</time></trkpt><trkpt lat="39.4678007" lon="9.5949612"><ele>93.0</ele><time>2026-04-18T13:40:18.295Z</time></trkpt><trkpt lat="39.4679846" lon="9.5951806"><ele>88.0</ele><time>2026-04-18T13:40:19.296Z</time></trkpt><trkpt lat="39.4681694" lon="9.5953966"><ele>88.0</ele><time>2026-04-18T13:40:20.296Z</time></trkpt><trkpt lat="39.4683527" lon="9.5956101"><ele>88.0</ele><time>2026-04-18T13:40:21.295Z</time></trkpt><trkpt lat="39.4685342" lon="9.5958263"><ele>88.0</ele><time>2026-04-18T13:40:22.295Z</time></trkpt><trkpt lat="39.4687186" lon="9.5960437"><ele>88.0</ele><time>2026-04-18T13:40:23.295Z</time></trkpt><trkpt lat="39.4689072" lon="9.5962588"><ele>88.5</ele><time>2026-04-18T13:40:24.296Z</time></trkpt><trkpt lat="39.469095" lon="9.5964686"><ele>89.0</ele><time>2026-04-18T13:40:25.295Z</time></trkpt><trkpt lat="39.4692821" lon="9.5966688"><ele>89.0</ele><time>2026-04-18T13:40:26.295Z</time></trkpt><trkpt lat="39.4694693" lon="9.5968671"><ele>89.0</ele><time>2026-04-18T13:40:27.295Z</time></trkpt><trkpt lat="39.4696573" lon="9.597058"><ele>87.5</ele><time>2026-04-18T13:40:28.296Z</time></trkpt><trkpt lat="39.4698507" lon="9.5972406"><ele>86.0</ele><time>2026-04-18T13:40:29.295Z</time></trkpt><trkpt lat="39.470048" lon="9.5974192"><ele>86.0</ele><time>2026-04-18T13:40:30.295Z</time></trkpt><trkpt lat="39.4702496" lon="9.5975933"><ele>86.0</ele><time>2026-04-18T13:40:31.295Z</time></trkpt><trkpt lat="39.4704532" lon="9.5977577"><ele>79.0</ele><time>2026-04-18T13:40:32.295Z</time></trkpt><trkpt lat="39.4706617" lon="9.5979106"><ele>72.0</ele><time>2026-04-18T13:40:33.295Z</time></trkpt><trkpt lat="39.4708727" lon="9.5980542"><ele>72.0</ele><time>2026-04-18T13:40:34.295Z</time></trkpt><trkpt lat="39.4710839" lon="9.5981919"><ele>72.0</ele><time>2026-04-18T13:40:35.295Z</time></trkpt><trkpt lat="39.4712963" lon="9.59832"><ele>68.66666666666667</ele><time>2026-04-18T13:40:36.294Z</time></trkpt><trkpt lat="39.4715027" lon="9.5984342"><ele>65.33333333333334</ele><time>2026-04-18T13:40:37.294Z</time></trkpt><trkpt lat="39.4717101" lon="9.59854"><ele>62.0</ele><time>2026-04-18T13:40:38.294Z</time></trkpt><trkpt lat="39.471926" lon="9.5986466"><ele>60.5</ele><time>2026-04-18T13:40:39.296Z</time></trkpt><trkpt lat="39.4721497" lon="9.5987441"><ele>59.0</ele><time>2026-04-18T13:40:40.296Z</time></trkpt><trkpt lat="39.4723791" lon="9.598836"><ele>59.0</ele><time>2026-04-18T13:40:41.296Z</time></trkpt><trkpt lat="39.472613" lon="9.5989193"><ele>59.0</ele><time>2026-04-18T13:40:42.295Z</time></trkpt><trkpt lat="39.4728526" lon="9.5989984"><ele>67.5</ele><time>2026-04-18T13:40:43.295Z</time></trkpt><trkpt lat="39.4730883" lon="9.5990684"><ele>76.0</ele><time>2026-04-18T13:40:44.294Z</time></trkpt><trkpt lat="39.4733268" lon="9.5991247"><ele>76.0</ele><time>2026-04-18T13:40:45.295Z</time></trkpt><trkpt lat="39.4735607" lon="9.5991729"><ele>76.0</ele><time>2026-04-18T13:40:46.295Z</time></trkpt><trkpt lat="39.4737952" lon="9.5992153"><ele>79.0</ele><time>2026-04-18T13:40:47.295Z</time></trkpt><trkpt lat="39.4740272" lon="9.5992493"><ele>82.0</ele><time>2026-04-18T13:40:48.295Z</time></trkpt><trkpt lat="39.474262" lon="9.5992756"><ele>82.0</ele><time>2026-04-18T13:40:49.295Z</time></trkpt><trkpt lat="39.4744962" lon="9.5992939"><ele>82.0</ele><time>2026-04-18T13:40:50.294Z</time></trkpt><trkpt lat="39.4747282" lon="9.5993117"><ele>78.0</ele><time>2026-04-18T13:40:51.294Z</time></trkpt><trkpt lat="39.4749616" lon="9.5993242"><ele>74.0</ele><time>2026-04-18T13:40:52.295Z</time></trkpt><trkpt lat="39.4751962" lon="9.5993387"><ele>74.0</ele><time>2026-04-18T13:40:53.296Z</time></trkpt><trkpt lat="39.4754311" lon="9.5993457"><ele>74.0</ele><time>2026-04-18T13:40:54.294Z</time></trkpt><trkpt lat="39.4756667" lon="9.5993611"><ele>74.0</ele><time>2026-04-18T13:40:55.295Z</time></trkpt><trkpt lat="39.4759072" lon="9.5993723"><ele>74.0</ele><time>2026-04-18T13:40:56.294Z</time></trkpt><trkpt lat="39.4761438" lon="9.5993924"><ele>78.5</ele><time>2026-04-18T13:40:57.296Z</time></trkpt><trkpt lat="39.4763759" lon="9.5994176"><ele>83.0</ele><time>2026-04-18T13:40:58.294Z</time></trkpt><trkpt lat="39.4766083" lon="9.5994494"><ele>83.0</ele><time>2026-04-18T13:40:59.294Z</time></trkpt><trkpt lat="39.4768364" lon="9.5994908"><ele>83.0</ele><time>2026-04-18T13:41:00.295Z</time></trkpt><trkpt lat="39.4770741" lon="9.5995434"><ele>74.0</ele><time>2026-04-18T13:41:01.295Z</time></trkpt><trkpt lat="39.4807742" lon="9.6023208"><ele>74.0</ele><time>2026-04-18T13:41:19.296Z</time></trkpt><trkpt lat="39.4809741" lon="9.6024906"><ele>74.0</ele><time>2026-04-18T13:41:20.295Z</time></trkpt><trkpt lat="39.4811567" lon="9.6026557"><ele>75.0</ele><time>2026-04-18T13:41:21.295Z</time></trkpt><trkpt lat="39.4813396" lon="9.602817"><ele>76.0</ele><time>2026-04-18T13:41:22.295Z</time></trkpt><trkpt lat="39.4815214" lon="9.6029854"><ele>77.0</ele><time>2026-04-18T13:41:23.295Z</time></trkpt><trkpt lat="39.4817022" lon="9.6031501"><ele>75.33333333333334</ele><time>2026-04-18T13:41:24.295Z</time></trkpt><trkpt lat="39.48188" lon="9.6033123"><ele>73.66666666666667</ele><time>2026-04-18T13:41:25.294Z</time></trkpt><trkpt lat="39.4820683" lon="9.6034708"><ele>72.0</ele><time>2026-04-18T13:41:26.294Z</time></trkpt><trkpt lat="39.4822572" lon="9.6036377"><ele>67.0</ele><time>2026-04-18T13:41:27.294Z</time></trkpt><trkpt lat="39.4824454" lon="9.6038077"><ele>62.0</ele><time>2026-04-18T13:41:28.295Z</time></trkpt><trkpt lat="39.4826377" lon="9.6039818"><ele>62.0</ele><time>2026-04-18T13:41:29.296Z</time></trkpt><trkpt lat="39.4828288" lon="9.6041541"><ele>62.0</ele><time>2026-04-18T13:41:30.296Z</time></trkpt><trkpt lat="39.4830244" lon="9.6043255"><ele>65.0</ele><time>2026-04-18T13:41:31.296Z</time></trkpt><trkpt lat="39.4832191" lon="9.6044952"><ele>68.0</ele><time>2026-04-18T13:41:32.295Z</time></trkpt><trkpt lat="39.4834149" lon="9.6046655"><ele>61.5</ele><time>2026-04-18T13:41:33.295Z</time></trkpt><trkpt lat="39.483614" lon="9.6048403"><ele>55.0</ele><time>2026-04-18T13:41:34.295Z</time></trkpt><trkpt lat="39.4838123" lon="9.6050169"><ele>55.0</ele><time>2026-04-18T13:41:35.295Z</time></trkpt><trkpt lat="39.4840084" lon="9.6051909"><ele>55.0</ele><time>2026-04-18T13:41:36.296Z</time></trkpt><trkpt lat="39.4842057" lon="9.6053638"><ele>53.5</ele><time>2026-04-18T13:41:37.296Z</time></trkpt><trkpt lat="39.4844031" lon="9.6055377"><ele>52.0</ele><time>2026-04-18T13:41:38.295Z</time></trkpt><trkpt lat="39.4846039" lon="9.6057068"><ele>55.0</ele><time>2026-04-18T13:41:39.295Z</time></trkpt><trkpt lat="39.4848053" lon="9.6058803"><ele>58.0</ele><time>2026-04-18T13:41:40.296Z</time></trkpt><trkpt lat="39.4850102" lon="9.6060469"><ele>61.5</ele><time>2026-04-18T13:41:41.295Z</time></trkpt><trkpt lat="39.4852179" lon="9.6062099"><ele>65.0</ele><time>2026-04-18T13:41:42.295Z</time></trkpt><trkpt lat="39.4854305" lon="9.6063645"><ele>65.0</ele><time>2026-04-18T13:41:43.295Z</time></trkpt><trkpt lat="39.4856431" lon="9.6065108"><ele>65.0</ele><time>2026-04-18T13:41:44.296Z</time></trkpt><trkpt lat="39.4858606" lon="9.6066438"><ele>65.0</ele><time>2026-04-18T13:41:45.296Z</time></trkpt><trkpt lat="39.486082" lon="9.6067693"><ele>65.0</ele><time>2026-04-18T13:41:46.294Z</time></trkpt><trkpt lat="39.486303" lon="9.6068795"><ele>64.0</ele><time>2026-04-18T13:41:47.294Z</time></trkpt><trkpt lat="39.4865291" lon="9.6069774"><ele>63.0</ele><time>2026-04-18T13:41:48.294Z</time></trkpt><trkpt lat="39.48675" lon="9.6070624"><ele>63.0</ele><time>2026-04-18T13:41:49.295Z</time></trkpt><trkpt lat="39.4869769" lon="9.6071296"><ele>63.0</ele><time>2026-04-18T13:41:50.294Z</time></trkpt><trkpt lat="39.4879365" lon="9.6072154"><ele>58.5</ele><time>2026-04-18T13:41:54.295Z</time></trkpt><trkpt lat="39.4881932" lon="9.6072085"><ele>54.0</ele><time>2026-04-18T13:41:55.295Z</time></trkpt><trkpt lat="39.4884396" lon="9.6071729"><ele>54.0</ele><time>2026-04-18T13:41:56.295Z</time></trkpt><trkpt lat="39.4886937" lon="9.6071182"><ele>54.0</ele><time>2026-04-18T13:41:57.295Z</time></trkpt><trkpt lat="39.4889431" lon="9.6070419"><ele>56.5</ele><time>2026-04-18T13:41:58.295Z</time></trkpt><trkpt lat="39.4891861" lon="9.6069553"><ele>59.0</ele><time>2026-04-18T13:41:59.294Z</time></trkpt><trkpt lat="39.4894241" lon="9.6068521"><ele>55.5</ele><time>2026-04-18T13:42:00.296Z</time></trkpt><trkpt lat="39.4896542" lon="9.6067288"><ele>52.0</ele><time>2026-04-18T13:42:01.295Z</time></trkpt><trkpt lat="39.4898783" lon="9.6065928"><ele>52.0</ele><time>2026-04-18T13:42:02.295Z</time></trkpt><trkpt lat="39.4900939" lon="9.6064377"><ele>52.0</ele><time>2026-04-18T13:42:03.296Z</time></trkpt><trkpt lat="39.4903008" lon="9.606276"><ele>65.0</ele><time>2026-04-18T13:42:04.295Z</time></trkpt><trkpt lat="39.4905001" lon="9.606104"><ele>78.0</ele><time>2026-04-18T13:42:05.295Z</time></trkpt><trkpt lat="39.490692" lon="9.6059209"><ele>73.0</ele><time>2026-04-18T13:42:06.295Z</time></trkpt><trkpt lat="39.4920534" lon="9.6042331"><ele>61.0</ele><time>2026-04-18T13:42:14.295Z</time></trkpt><trkpt lat="39.4922243" lon="9.6039974"><ele>49.0</ele><time>2026-04-18T13:42:15.295Z</time></trkpt><trkpt lat="39.4923802" lon="9.6037862"><ele>51.5</ele><time>2026-04-18T13:42:16.295Z</time></trkpt><trkpt lat="39.4925427" lon="9.6035716"><ele>54.0</ele><time>2026-04-18T13:42:17.295Z</time></trkpt><trkpt lat="39.4927163" lon="9.6033501"><ele>54.0</ele><time>2026-04-18T13:42:18.295Z</time></trkpt><trkpt lat="39.4928732" lon="9.6031353"><ele>54.0</ele><time>2026-04-18T13:42:19.295Z</time></trkpt><trkpt lat="39.4930331" lon="9.6029166"><ele>54.5</ele><time>2026-04-18T13:42:20.295Z</time></trkpt><trkpt lat="39.4931907" lon="9.6026986"><ele>55.0</ele><time>2026-04-18T13:42:21.296Z</time></trkpt><trkpt lat="39.4933498" lon="9.6024823"><ele>55.0</ele><time>2026-04-18T13:42:22.295Z</time></trkpt><trkpt lat="39.4935173" lon="9.6022546"><ele>55.0</ele><time>2026-04-18T13:42:23.294Z</time></trkpt><trkpt lat="39.4936897" lon="9.6020256"><ele>60.0</ele><time>2026-04-18T13:42:24.295Z</time></trkpt><trkpt lat="39.4938625" lon="9.6017958"><ele>65.0</ele><time>2026-04-18T13:42:25.295Z</time></trkpt><trkpt lat="39.4940342" lon="9.6015639"><ele>65.0</ele><time>2026-04-18T13:42:26.295Z</time></trkpt><trkpt lat="39.4942077" lon="9.6013355"><ele>65.0</ele><time>2026-04-18T13:42:27.295Z</time></trkpt><trkpt lat="39.4943748" lon="9.6011109"><ele>61.5</ele><time>2026-04-18T13:42:28.295Z</time></trkpt><trkpt lat="39.4945414" lon="9.6008875"><ele>58.0</ele><time>2026-04-18T13:42:29.295Z</time></trkpt><trkpt lat="39.4947093" lon="9.6006603"><ele>58.0</ele><time>2026-04-18T13:42:30.295Z</time></trkpt><trkpt lat="39.4948718" lon="9.6004347"><ele>58.0</ele><time>2026-04-18T13:42:31.294Z</time></trkpt><trkpt lat="39.4950378" lon="9.6002075"><ele>69.5</ele><time>2026-04-18T13:42:32.294Z</time></trkpt><trkpt lat="39.4952029" lon="9.5999849"><ele>81.0</ele><time>2026-04-18T13:42:33.294Z</time></trkpt><trkpt lat="39.4953666" lon="9.5997612"><ele>81.0</ele><time>2026-04-18T13:42:34.295Z</time></trkpt><trkpt lat="39.4970424" lon="9.5975136"><ele>68.0</ele><time>2026-04-18T13:42:44.294Z</time></trkpt><trkpt lat="39.4972042" lon="9.5972971"><ele>55.0</ele><time>2026-04-18T13:42:45.295Z</time></trkpt><trkpt lat="39.4973716" lon="9.5970873"><ele>59.0</ele><time>2026-04-18T13:42:46.295Z</time></trkpt><trkpt lat="39.4975417" lon="9.5968824"><ele>63.0</ele><time>2026-04-18T13:42:47.295Z</time></trkpt><trkpt lat="39.4977135" lon="9.5966757"><ele>63.0</ele><time>2026-04-18T13:42:48.295Z</time></trkpt><trkpt lat="39.497899" lon="9.5964816"><ele>63.0</ele><time>2026-04-18T13:42:49.295Z</time></trkpt><trkpt lat="39.4980861" lon="9.5962879"><ele>53.0</ele><time>2026-04-18T13:42:50.295Z</time></trkpt><trkpt lat="39.4982747" lon="9.5961009"><ele>43.0</ele><time>2026-04-18T13:42:51.296Z</time></trkpt><trkpt lat="39.4984707" lon="9.5959275"><ele>43.0</ele><time>2026-04-18T13:42:52.295Z</time></trkpt><trkpt lat="39.4986769" lon="9.5957611"><ele>43.0</ele><time>2026-04-18T13:42:53.295Z</time></trkpt><trkpt lat="39.4988833" lon="9.5956041"><ele>35.0</ele><time>2026-04-18T13:42:54.294Z</time></trkpt><trkpt lat="39.4990934" lon="9.5954623"><ele>27.0</ele><time>2026-04-18T13:42:55.296Z</time></trkpt><trkpt lat="39.4993038" lon="9.5953307"><ele>26.5</ele><time>2026-04-18T13:42:56.295Z</time></trkpt><trkpt lat="39.4995272" lon="9.5952175"><ele>26.0</ele><time>2026-04-18T13:42:57.295Z</time></trkpt><trkpt lat="39.4997588" lon="9.5951226"><ele>27.5</ele><time>2026-04-18T13:42:58.296Z</time></trkpt><trkpt lat="39.4999914" lon="9.5950381"><ele>29.0</ele><time>2026-04-18T13:42:59.294Z</time></trkpt><trkpt lat="39.5002285" lon="9.5949723"><ele>33.5</ele><time>2026-04-18T13:43:00.295Z</time></trkpt><trkpt lat="39.5004713" lon="9.5949211"><ele>38.0</ele><time>2026-04-18T13:43:01.295Z</time></trkpt><trkpt lat="39.5007058" lon="9.5948846"><ele>38.0</ele><time>2026-04-18T13:43:02.294Z</time></trkpt><trkpt lat="39.5009416" lon="9.5948621"><ele>38.0</ele><time>2026-04-18T13:43:03.295Z</time></trkpt><trkpt lat="39.5011784" lon="9.5948578"><ele>37.0</ele><time>2026-04-18T13:43:04.295Z</time></trkpt><trkpt lat="39.5014162" lon="9.5948615"><ele>36.0</ele><time>2026-04-18T13:43:05.295Z</time></trkpt><trkpt lat="39.5016535" lon="9.5948837"><ele>36.0</ele><time>2026-04-18T13:43:06.295Z</time></trkpt><trkpt lat="39.5018934" lon="9.5949158"><ele>36.0</ele><time>2026-04-18T13:43:07.295Z</time></trkpt><trkpt lat="39.5021357" lon="9.5949592"><ele>36.0</ele><time>2026-04-18T13:43:08.295Z</time></trkpt><trkpt lat="39.5023759" lon="9.5950101"><ele>36.0</ele><time>2026-04-18T13:43:09.295Z</time></trkpt><trkpt lat="39.5026061" lon="9.5950641"><ele>36.0</ele><time>2026-04-18T13:43:10.294Z</time></trkpt><trkpt lat="39.5028378" lon="9.5951194"><ele>36.0</ele><time>2026-04-18T13:43:11.296Z</time></trkpt><trkpt lat="39.5030666" lon="9.5951786"><ele>38.0</ele><time>2026-04-18T13:43:12.294Z</time></trkpt><trkpt lat="39.5032927" lon="9.5952403"><ele>40.0</ele><time>2026-04-18T13:43:13.295Z</time></trkpt><trkpt lat="39.503518" lon="9.595305"><ele>43.5</ele><time>2026-04-18T13:43:14.294Z</time></trkpt><trkpt lat="39.5037446" lon="9.5953809"><ele>47.0</ele><time>2026-04-18T13:43:15.295Z</time></trkpt><trkpt lat="39.5039756" lon="9.5954521"><ele>49.5</ele><time>2026-04-18T13:43:16.294Z</time></trkpt><trkpt lat="39.5042099" lon="9.5955227"><ele>52.0</ele><time>2026-04-18T13:43:17.295Z</time></trkpt><trkpt lat="39.5044443" lon="9.59559"><ele>58.5</ele><time>2026-04-18T13:43:18.295Z</time></trkpt><trkpt lat="39.5046815" lon="9.5956601"><ele>65.0</ele><time>2026-04-18T13:43:19.295Z</time></trkpt><trkpt lat="39.5049146" lon="9.5957258"><ele>65.0</ele><time>2026-04-18T13:43:20.295Z</time></trkpt><trkpt lat="39.505148" lon="9.5957844"><ele>65.0</ele><time>2026-04-18T13:43:21.294Z</time></trkpt><trkpt lat="39.5070334" lon="9.5958639"><ele>48.0</ele><time>2026-04-18T13:43:29.294Z</time></trkpt><trkpt lat="39.5072765" lon="9.5958215"><ele>31.0</ele><time>2026-04-18T13:43:30.295Z</time></trkpt><trkpt lat="39.5075077" lon="9.59576"><ele>31.0</ele><time>2026-04-18T13:43:31.295Z</time></trkpt><trkpt lat="39.5077358" lon="9.5956955"><ele>31.0</ele><time>2026-04-18T13:43:32.295Z</time></trkpt><trkpt lat="39.5079656" lon="9.5956177"><ele>27.0</ele><time>2026-04-18T13:43:33.295Z</time></trkpt><trkpt lat="39.5081901" lon="9.5955301"><ele>23.0</ele><time>2026-04-18T13:43:34.295Z</time></trkpt><trkpt lat="39.5084109" lon="9.5954287"><ele>23.5</ele><time>2026-04-18T13:43:35.295Z</time></trkpt><trkpt lat="39.5086261" lon="9.595318"><ele>24.0</ele><time>2026-04-18T13:43:36.295Z</time></trkpt><trkpt lat="39.5088403" lon="9.5952028"><ele>24.0</ele><time>2026-04-18T13:43:37.295Z</time></trkpt><trkpt lat="39.5090545" lon="9.5950774"><ele>24.0</ele><time>2026-04-18T13:43:38.294Z</time></trkpt><trkpt lat="39.5092733" lon="9.5949402"><ele>24.0</ele><time>2026-04-18T13:43:39.295Z</time></trkpt><trkpt lat="39.5094988" lon="9.5947885"><ele>24.0</ele><time>2026-04-18T13:43:40.294Z</time></trkpt><trkpt lat="39.5097146" lon="9.5946364"><ele>33.0</ele><time>2026-04-18T13:43:41.295Z</time></trkpt><trkpt lat="39.5099272" lon="9.5944797"><ele>42.0</ele><time>2026-04-18T13:43:42.295Z</time></trkpt><trkpt lat="39.5101375" lon="9.5943161"><ele>42.0</ele><time>2026-04-18T13:43:43.295Z</time></trkpt><trkpt lat="39.510343" lon="9.5941499"><ele>42.0</ele><time>2026-04-18T13:43:44.296Z</time></trkpt><trkpt lat="39.5105404" lon="9.5939791"><ele>39.5</ele><time>2026-04-18T13:43:45.295Z</time></trkpt><trkpt lat="39.5107344" lon="9.5938063"><ele>37.0</ele><time>2026-04-18T13:43:46.295Z</time></trkpt><trkpt lat="39.5109262" lon="9.5936285"><ele>36.5</ele><time>2026-04-18T13:43:47.295Z</time></trkpt><trkpt lat="39.5111138" lon="9.5934486"><ele>36.0</ele><time>2026-04-18T13:43:48.295Z</time></trkpt><trkpt lat="39.5113024" lon="9.5932679"><ele>36.0</ele><time>2026-04-18T13:43:49.294Z</time></trkpt><trkpt lat="39.5114886" lon="9.5930832"><ele>36.0</ele><time>2026-04-18T13:43:50.294Z</time></trkpt><trkpt lat="39.5116732" lon="9.592895"><ele>36.0</ele><time>2026-04-18T13:43:51.295Z</time></trkpt><trkpt lat="39.5118572" lon="9.5927081"><ele>36.0</ele><time>2026-04-18T13:43:52.295Z</time></trkpt><trkpt lat="39.5120472" lon="9.5925164"><ele>36.5</ele><time>2026-04-18T13:43:53.295Z</time></trkpt><trkpt lat="39.5122347" lon="9.5923224"><ele>37.0</ele><time>2026-04-18T13:43:54.295Z</time></trkpt><trkpt lat="39.5124258" lon="9.5921299"><ele>42.0</ele><time>2026-04-18T13:43:55.296Z</time></trkpt><trkpt lat="39.5126164" lon="9.5919357"><ele>47.0</ele><time>2026-04-18T13:43:56.295Z</time></trkpt><trkpt lat="39.5128103" lon="9.5917438"><ele>46.5</ele><time>2026-04-18T13:43:57.295Z</time></trkpt><trkpt lat="39.5130038" lon="9.5915521"><ele>46.0</ele><time>2026-04-18T13:43:58.294Z</time></trkpt><trkpt lat="39.513195" lon="9.5913623"><ele>49.0</ele><time>2026-04-18T13:43:59.295Z</time></trkpt><trkpt lat="39.5133866" lon="9.5911718"><ele>52.0</ele><time>2026-04-18T13:44:00.295Z</time></trkpt><trkpt lat="39.5135765" lon="9.5909855"><ele>47.0</ele><time>2026-04-18T13:44:01.295Z</time></trkpt><trkpt lat="39.513769" lon="9.5908062"><ele>42.0</ele><time>2026-04-18T13:44:02.295Z</time></trkpt><trkpt lat="39.5139627" lon="9.5906282"><ele>42.0</ele><time>2026-04-18T13:44:03.295Z</time></trkpt><trkpt lat="39.5141584" lon="9.5904574"><ele>42.0</ele><time>2026-04-18T13:44:04.295Z</time></trkpt><trkpt lat="39.5143572" lon="9.5902864"><ele>45.5</ele><time>2026-04-18T13:44:05.295Z</time></trkpt><trkpt lat="39.5145616" lon="9.5901138"><ele>49.0</ele><time>2026-04-18T13:44:06.295Z</time></trkpt><trkpt lat="39.5147663" lon="9.5899477"><ele>50.0</ele><time>2026-04-18T13:44:07.295Z</time></trkpt><trkpt lat="39.5149749" lon="9.5897865"><ele>51.0</ele><time>2026-04-18T13:44:08.294Z</time></trkpt><trkpt lat="39.5151857" lon="9.5896305"><ele>55.0</ele><time>2026-04-18T13:44:09.294Z</time></trkpt><trkpt lat="39.5153989" lon="9.5894818"><ele>59.0</ele><time>2026-04-18T13:44:10.295Z</time></trkpt><trkpt lat="39.5174218" lon="9.588389"><ele>52.0</ele><time>2026-04-18T13:44:19.294Z</time></trkpt><trkpt lat="39.5176036" lon="9.5883384"><ele>45.0</ele><time>2026-04-18T13:44:20.294Z</time></trkpt><trkpt lat="39.5178403" lon="9.5882547"><ele>38.0</ele><time>2026-04-18T13:44:21.295Z</time></trkpt><trkpt lat="39.5180666" lon="9.5881634"><ele>30.0</ele><time>2026-04-18T13:44:22.295Z</time></trkpt><trkpt lat="39.5183033" lon="9.5880831"><ele>22.0</ele><time>2026-04-18T13:44:23.294Z</time></trkpt><trkpt lat="39.5185338" lon="9.5880107"><ele>19.5</ele><time>2026-04-18T13:44:24.295Z</time></trkpt><trkpt lat="39.5187603" lon="9.5879452"><ele>17.0</ele><time>2026-04-18T13:44:25.295Z</time></trkpt><trkpt lat="39.51899" lon="9.5878863"><ele>18.0</ele><time>2026-04-18T13:44:26.295Z</time></trkpt><trkpt lat="39.5192127" lon="9.5878293"><ele>19.0</ele><time>2026-04-18T13:44:27.295Z</time></trkpt><trkpt lat="39.5194377" lon="9.5877739"><ele>23.0</ele><time>2026-04-18T13:44:28.295Z</time></trkpt><trkpt lat="39.5196601" lon="9.5877233"><ele>27.0</ele><time>2026-04-18T13:44:29.295Z</time></trkpt><trkpt lat="39.5198874" lon="9.5876723"><ele>27.0</ele><time>2026-04-18T13:44:30.295Z</time></trkpt><trkpt lat="39.5201157" lon="9.5876209"><ele>27.0</ele><time>2026-04-18T13:44:31.295Z</time></trkpt><trkpt lat="39.5203493" lon="9.5875668"><ele>34.0</ele><time>2026-04-18T13:44:32.295Z</time></trkpt><trkpt lat="39.5205851" lon="9.587515"><ele>41.0</ele><time>2026-04-18T13:44:33.295Z</time></trkpt><trkpt lat="39.5208277" lon="9.5874626"><ele>41.0</ele><time>2026-04-18T13:44:34.295Z</time></trkpt><trkpt lat="39.5210659" lon="9.587411"><ele>41.0</ele><time>2026-04-18T13:44:35.295Z</time></trkpt><trkpt lat="39.5213049" lon="9.587363"><ele>25.0</ele><time>2026-04-18T13:44:36.295Z</time></trkpt><trkpt lat="39.523458" lon="9.5870787"><ele>25.0</ele><time>2026-04-18T13:44:45.294Z</time></trkpt><trkpt lat="39.5236873" lon="9.5870711"><ele>25.0</ele><time>2026-04-18T13:44:46.294Z</time></trkpt><trkpt lat="39.5239103" lon="9.5870757"><ele>19.0</ele><time>2026-04-18T13:44:47.295Z</time></trkpt><trkpt lat="39.524143" lon="9.5870779"><ele>13.0</ele><time>2026-04-18T13:44:48.296Z</time></trkpt><trkpt lat="39.5243731" lon="9.5871005"><ele>13.0</ele><time>2026-04-18T13:44:49.295Z</time></trkpt><trkpt lat="39.5246036" lon="9.5871293"><ele>13.0</ele><time>2026-04-18T13:44:50.295Z</time></trkpt><trkpt lat="39.5248375" lon="9.5871712"><ele>13.0</ele><time>2026-04-18T13:44:51.295Z</time></trkpt><trkpt lat="39.5250704" lon="9.5872104"><ele>13.0</ele><time>2026-04-18T13:44:52.295Z</time></trkpt><trkpt lat="39.525302" lon="9.5872563"><ele>12.0</ele><time>2026-04-18T13:44:53.295Z</time></trkpt><trkpt lat="39.5255378" lon="9.5873064"><ele>11.0</ele><time>2026-04-18T13:44:54.296Z</time></trkpt><trkpt lat="39.5257738" lon="9.5873664"><ele>11.0</ele><time>2026-04-18T13:44:55.295Z</time></trkpt><trkpt lat="39.5260073" lon="9.5874339"><ele>11.0</ele><time>2026-04-18T13:44:56.294Z</time></trkpt><trkpt lat="39.5262417" lon="9.5875066"><ele>10.0</ele><time>2026-04-18T13:44:57.295Z</time></trkpt><trkpt lat="39.5264754" lon="9.5875909"><ele>9.0</ele><time>2026-04-18T13:44:58.295Z</time></trkpt><trkpt lat="39.5267067" lon="9.5876808"><ele>9.0</ele><time>2026-04-18T13:44:59.294Z</time></trkpt><trkpt lat="39.526937" lon="9.5877727"><ele>9.0</ele><time>2026-04-18T13:45:00.295Z</time></trkpt><trkpt lat="39.5271651" lon="9.587866"><ele>11.5</ele><time>2026-04-18T13:45:01.295Z</time></trkpt><trkpt lat="39.5273952" lon="9.5879619"><ele>14.0</ele><time>2026-04-18T13:45:02.295Z</time></trkpt><trkpt lat="39.5276239" lon="9.588058"><ele>14.0</ele><time>2026-04-18T13:45:03.294Z</time></trkpt><trkpt lat="39.5278518" lon="9.5881567"><ele>14.0</ele><time>2026-04-18T13:45:04.295Z</time></trkpt><trkpt lat="39.5280806" lon="9.5882583"><ele>16.5</ele><time>2026-04-18T13:45:05.296Z</time></trkpt><trkpt lat="39.5283094" lon="9.5883572"><ele>19.0</ele><time>2026-04-18T13:45:06.295Z</time></trkpt><trkpt lat="39.5285339" lon="9.5884627"><ele>25.0</ele><time>2026-04-18T13:45:07.295Z</time></trkpt><trkpt lat="39.5287536" lon="9.5885677"><ele>31.0</ele><time>2026-04-18T13:45:08.294Z</time></trkpt><trkpt lat="39.5289673" lon="9.5886729"><ele>27.0</ele><time>2026-04-18T13:45:09.295Z</time></trkpt><trkpt lat="39.5291849" lon="9.5887794"><ele>23.0</ele><time>2026-04-18T13:45:10.295Z</time></trkpt><trkpt lat="39.5310045" lon="9.5896776"><ele>23.0</ele><time>2026-04-18T13:45:18.295Z</time></trkpt><trkpt lat="39.5312174" lon="9.5897639"><ele>23.0</ele><time>2026-04-18T13:45:19.295Z</time></trkpt><trkpt lat="39.531451" lon="9.5898657"><ele>25.0</ele><time>2026-04-18T13:45:20.295Z</time></trkpt><trkpt lat="39.5316819" lon="9.5899642"><ele>27.0</ele><time>2026-04-18T13:45:21.295Z</time></trkpt><trkpt lat="39.5319169" lon="9.5900774"><ele>34.0</ele><time>2026-04-18T13:45:22.295Z</time></trkpt><trkpt lat="39.532135" lon="9.5901813"><ele>41.0</ele><time>2026-04-18T13:45:23.296Z</time></trkpt><trkpt lat="39.5323664" lon="9.5902879"><ele>31.0</ele><time>2026-04-18T13:45:24.295Z</time></trkpt><trkpt lat="39.532591" lon="9.5903881"><ele>21.0</ele><time>2026-04-18T13:45:25.295Z</time></trkpt><trkpt lat="39.5328199" lon="9.5904867"><ele>20.5</ele><time>2026-04-18T13:45:26.296Z</time></trkpt><trkpt lat="39.5330532" lon="9.5905796"><ele>20.0</ele><time>2026-04-18T13:45:27.294Z</time></trkpt><trkpt lat="39.5332822" lon="9.5906717"><ele>20.0</ele><time>2026-04-18T13:45:28.295Z</time></trkpt><trkpt lat="39.5335127" lon="9.5907604"><ele>20.0</ele><time>2026-04-18T13:45:29.295Z</time></trkpt><trkpt lat="39.5337429" lon="9.5908472"><ele>25.5</ele><time>2026-04-18T13:45:30.296Z</time></trkpt><trkpt lat="39.5339701" lon="9.5909267"><ele>31.0</ele><time>2026-04-18T13:45:31.295Z</time></trkpt><trkpt lat="39.534202" lon="9.5909994"><ele>31.0</ele><time>2026-04-18T13:45:32.294Z</time></trkpt><trkpt lat="39.5344276" lon="9.5910702"><ele>31.0</ele><time>2026-04-18T13:45:33.294Z</time></trkpt><trkpt lat="39.5346562" lon="9.5911406"><ele>26.0</ele><time>2026-04-18T13:45:34.295Z</time></trkpt><trkpt lat="39.5348835" lon="9.5912059"><ele>21.0</ele><time>2026-04-18T13:45:35.295Z</time></trkpt><trkpt lat="39.5351159" lon="9.5912633"><ele>21.0</ele><time>2026-04-18T13:45:36.295Z</time></trkpt><trkpt lat="39.5353497" lon="9.5913206"><ele>21.0</ele><time>2026-04-18T13:45:37.295Z</time></trkpt><trkpt lat="39.5355852" lon="9.5913753"><ele>18.0</ele><time>2026-04-18T13:45:38.295Z</time></trkpt><trkpt lat="39.5358189" lon="9.5914226"><ele>15.0</ele><time>2026-04-18T13:45:39.295Z</time></trkpt><trkpt lat="39.5360567" lon="9.5914731"><ele>18.0</ele><time>2026-04-18T13:45:40.294Z</time></trkpt><trkpt lat="39.5362972" lon="9.5915185"><ele>21.0</ele><time>2026-04-18T13:45:41.295Z</time></trkpt><trkpt lat="39.5365416" lon="9.5915568"><ele>21.0</ele><time>2026-04-18T13:45:42.294Z</time></trkpt><trkpt lat="39.5367857" lon="9.5915974"><ele>21.0</ele><time>2026-04-18T13:45:43.295Z</time></trkpt><trkpt lat="39.5370314" lon="9.5916324"><ele>25.5</ele><time>2026-04-18T13:45:44.295Z</time></trkpt><trkpt lat="39.5372724" lon="9.5916698"><ele>30.0</ele><time>2026-04-18T13:45:45.294Z</time></trkpt><trkpt lat="39.537508" lon="9.5917004"><ele>30.0</ele><time>2026-04-18T13:45:46.295Z</time></trkpt><trkpt lat="39.5377437" lon="9.5917246"><ele>30.0</ele><time>2026-04-18T13:45:47.295Z</time></trkpt><trkpt lat="39.5379788" lon="9.5917538"><ele>29.5</ele><time>2026-04-18T13:45:48.294Z</time></trkpt><trkpt lat="39.5382195" lon="9.5917845"><ele>29.0</ele><time>2026-04-18T13:45:49.294Z</time></trkpt><trkpt lat="39.5384575" lon="9.5918143"><ele>29.0</ele><time>2026-04-18T13:45:50.295Z</time></trkpt><trkpt lat="39.5386913" lon="9.5918438"><ele>29.0</ele><time>2026-04-18T13:45:51.295Z</time></trkpt><trkpt lat="39.5389266" lon="9.5918715"><ele>29.5</ele><time>2026-04-18T13:45:52.294Z</time></trkpt><trkpt lat="39.5391644" lon="9.5918965"><ele>30.0</ele><time>2026-04-18T13:45:53.295Z</time></trkpt><trkpt lat="39.5394019" lon="9.5919276"><ele>38.0</ele><time>2026-04-18T13:45:54.295Z</time></trkpt><trkpt lat="39.5396393" lon="9.5919542"><ele>46.0</ele><time>2026-04-18T13:45:55.296Z</time></trkpt><trkpt lat="39.539878" lon="9.5919803"><ele>46.0</ele><time>2026-04-18T13:45:56.295Z</time></trkpt><trkpt lat="39.5401196" lon="9.5920057"><ele>46.0</ele><time>2026-04-18T13:45:57.296Z</time></trkpt><trkpt lat="39.5403622" lon="9.5920322"><ele>37.5</ele><time>2026-04-18T13:45:58.295Z</time></trkpt><trkpt lat="39.5406055" lon="9.5920611"><ele>29.0</ele><time>2026-04-18T13:45:59.295Z</time></trkpt><trkpt lat="39.5408493" lon="9.5920826"><ele>29.0</ele><time>2026-04-18T13:46:00.294Z</time></trkpt><trkpt lat="39.5410896" lon="9.5920984"><ele>29.0</ele><time>2026-04-18T13:46:01.295Z</time></trkpt><trkpt lat="39.5413306" lon="9.5921187"><ele>27.0</ele><time>2026-04-18T13:46:02.294Z</time></trkpt><trkpt lat="39.5415759" lon="9.5921335"><ele>25.0</ele><time>2026-04-18T13:46:03.294Z</time></trkpt><trkpt lat="39.5418174" lon="9.5921514"><ele>21.0</ele><time>2026-04-18T13:46:04.296Z</time></trkpt><trkpt lat="39.5420598" lon="9.5921594"><ele>17.0</ele><time>2026-04-18T13:46:05.295Z</time></trkpt><trkpt lat="39.5423007" lon="9.5921611"><ele>17.0</ele><time>2026-04-18T13:46:06.296Z</time></trkpt><trkpt lat="39.5425362" lon="9.5921621"><ele>17.0</ele><time>2026-04-18T13:46:07.295Z</time></trkpt><trkpt lat="39.5427717" lon="9.5921592"><ele>19.5</ele><time>2026-04-18T13:46:08.295Z</time></trkpt><trkpt lat="39.5430039" lon="9.5921494"><ele>22.0</ele><time>2026-04-18T13:46:09.295Z</time></trkpt><trkpt lat="39.5432387" lon="9.5921381"><ele>22.0</ele><time>2026-04-18T13:46:10.294Z</time></trkpt><trkpt lat="39.5434732" lon="9.5921245"><ele>22.0</ele><time>2026-04-18T13:46:11.296Z</time></trkpt><trkpt lat="39.5437069" lon="9.5921102"><ele>21.5</ele><time>2026-04-18T13:46:12.295Z</time></trkpt><trkpt lat="39.5439429" lon="9.5920886"><ele>21.0</ele><time>2026-04-18T13:46:13.295Z</time></trkpt><trkpt lat="39.5441789" lon="9.5920598"><ele>21.0</ele><time>2026-04-18T13:46:14.296Z</time></trkpt><trkpt lat="39.5444147" lon="9.592031"><ele>21.0</ele><time>2026-04-18T13:46:15.295Z</time></trkpt><trkpt lat="39.54465" lon="9.5919976"><ele>28.5</ele><time>2026-04-18T13:46:16.295Z</time></trkpt><trkpt lat="39.544884" lon="9.5919597"><ele>36.0</ele><time>2026-04-18T13:46:17.294Z</time></trkpt><trkpt lat="39.5451158" lon="9.591916"><ele>36.0</ele><time>2026-04-18T13:46:18.295Z</time></trkpt><trkpt lat="39.5453524" lon="9.591863"><ele>36.0</ele><time>2026-04-18T13:46:19.296Z</time></trkpt><trkpt lat="39.5455901" lon="9.5918095"><ele>33.5</ele><time>2026-04-18T13:46:20.295Z</time></trkpt><trkpt lat="39.5458301" lon="9.5917503"><ele>31.0</ele><time>2026-04-18T13:46:21.295Z</time></trkpt><trkpt lat="39.5460711" lon="9.5916906"><ele>27.5</ele><time>2026-04-18T13:46:22.295Z</time></trkpt><trkpt lat="39.5463089" lon="9.5916231"><ele>24.0</ele><time>2026-04-18T13:46:23.294Z</time></trkpt><trkpt lat="39.5465462" lon="9.5915543"><ele>24.0</ele><time>2026-04-18T13:46:24.295Z</time></trkpt><trkpt lat="39.5467812" lon="9.5914856"><ele>24.0</ele><time>2026-04-18T13:46:25.295Z</time></trkpt><trkpt lat="39.5470121" lon="9.5914117"><ele>23.5</ele><time>2026-04-18T13:46:26.296Z</time></trkpt><trkpt lat="39.5472407" lon="9.5913306"><ele>23.0</ele><time>2026-04-18T13:46:27.295Z</time></trkpt><trkpt lat="39.5474676" lon="9.5912519"><ele>26.5</ele><time>2026-04-18T13:46:28.295Z</time></trkpt><trkpt lat="39.5476895" lon="9.5911695"><ele>30.0</ele><time>2026-04-18T13:46:29.295Z</time></trkpt><trkpt lat="39.5479125" lon="9.59108"><ele>31.0</ele><time>2026-04-18T13:46:30.295Z</time></trkpt><trkpt lat="39.5481395" lon="9.5909903"><ele>32.0</ele><time>2026-04-18T13:46:31.295Z</time></trkpt><trkpt lat="39.5483675" lon="9.5908946"><ele>32.0</ele><time>2026-04-18T13:46:32.295Z</time></trkpt><trkpt lat="39.5485946" lon="9.5908008"><ele>32.0</ele><time>2026-04-18T13:46:33.295Z</time></trkpt><trkpt lat="39.5488211" lon="9.5907028"><ele>31.0</ele><time>2026-04-18T13:46:34.295Z</time></trkpt><trkpt lat="39.5490481" lon="9.5906043"><ele>30.0</ele><time>2026-04-18T13:46:35.295Z</time></trkpt><trkpt lat="39.5492726" lon="9.5905077"><ele>30.0</ele><time>2026-04-18T13:46:36.295Z</time></trkpt><trkpt lat="39.5494975" lon="9.5904118"><ele>30.0</ele><time>2026-04-18T13:46:37.295Z</time></trkpt><trkpt lat="39.5497215" lon="9.5903111"><ele>30.5</ele><time>2026-04-18T13:46:38.296Z</time></trkpt><trkpt lat="39.5499446" lon="9.5902104"><ele>31.0</ele><time>2026-04-18T13:46:39.295Z</time></trkpt><trkpt lat="39.5501684" lon="9.5901084"><ele>27.5</ele><time>2026-04-18T13:46:40.295Z</time></trkpt><trkpt lat="39.5503945" lon="9.5900071"><ele>24.0</ele><time>2026-04-18T13:46:41.295Z</time></trkpt><trkpt lat="39.5506209" lon="9.5899102"><ele>24.0</ele><time>2026-04-18T13:46:42.294Z</time></trkpt><trkpt lat="39.5508505" lon="9.5898154"><ele>24.0</ele><time>2026-04-18T13:46:43.294Z</time></trkpt><trkpt lat="39.5510811" lon="9.589713"><ele>24.5</ele><time>2026-04-18T13:46:44.296Z</time></trkpt><trkpt lat="39.5513135" lon="9.5896126"><ele>25.0</ele><time>2026-04-18T13:46:45.294Z</time></trkpt><trkpt lat="39.5515454" lon="9.5895144"><ele>26.5</ele><time>2026-04-18T13:46:46.294Z</time></trkpt><trkpt lat="39.5517783" lon="9.5894142"><ele>28.0</ele><time>2026-04-18T13:46:47.294Z</time></trkpt><trkpt lat="39.5520032" lon="9.5893187"><ele>29.0</ele><time>2026-04-18T13:46:48.296Z</time></trkpt><trkpt lat="39.5522261" lon="9.5892205"><ele>30.0</ele><time>2026-04-18T13:46:49.295Z</time></trkpt><trkpt lat="39.5524469" lon="9.5891213"><ele>30.0</ele><time>2026-04-18T13:46:50.295Z</time></trkpt><trkpt lat="39.5526701" lon="9.589019"><ele>30.0</ele><time>2026-04-18T13:46:51.295Z</time></trkpt><trkpt lat="39.5528928" lon="9.5889191"><ele>34.5</ele><time>2026-04-18T13:46:52.295Z</time></trkpt><trkpt lat="39.5531153" lon="9.5888172"><ele>39.0</ele><time>2026-04-18T13:46:53.296Z</time></trkpt><trkpt lat="39.5533366" lon="9.5887254"><ele>41.5</ele><time>2026-04-18T13:46:54.295Z</time></trkpt><trkpt lat="39.5535625" lon="9.588631"><ele>44.0</ele><time>2026-04-18T13:46:55.295Z</time></trkpt><trkpt lat="39.5537842" lon="9.5885347"><ele>45.0</ele><time>2026-04-18T13:46:56.294Z</time></trkpt><trkpt lat="39.5540065" lon="9.5884347"><ele>46.0</ele><time>2026-04-18T13:46:57.296Z</time></trkpt><trkpt lat="39.5542388" lon="9.5883312"><ele>46.0</ele><time>2026-04-18T13:46:58.295Z</time></trkpt><trkpt lat="39.5544717" lon="9.5882293"><ele>46.0</ele><time>2026-04-18T13:46:59.295Z</time></trkpt><trkpt lat="39.5547038" lon="9.5881287"><ele>40.0</ele><time>2026-04-18T13:47:00.294Z</time></trkpt><trkpt lat="39.5549266" lon="9.5880292"><ele>34.0</ele><time>2026-04-18T13:47:01.295Z</time></trkpt><trkpt lat="39.5551474" lon="9.5879299"><ele>31.0</ele><time>2026-04-18T13:47:02.296Z</time></trkpt><trkpt lat="39.5553687" lon="9.5878297"><ele>28.0</ele><time>2026-04-18T13:47:03.295Z</time></trkpt><trkpt lat="39.5555896" lon="9.5877314"><ele>28.0</ele><time>2026-04-18T13:47:04.295Z</time></trkpt><trkpt lat="39.5558144" lon="9.5876308"><ele>28.0</ele><time>2026-04-18T13:47:05.295Z</time></trkpt><trkpt lat="39.5560399" lon="9.5875324"><ele>26.0</ele><time>2026-04-18T13:47:06.294Z</time></trkpt><trkpt lat="39.5562681" lon="9.5874358"><ele>24.0</ele><time>2026-04-18T13:47:07.295Z</time></trkpt><trkpt lat="39.5564947" lon="9.5873298"><ele>24.0</ele><time>2026-04-18T13:47:08.296Z</time></trkpt><trkpt lat="39.556719" lon="9.587231"><ele>24.0</ele><time>2026-04-18T13:47:09.295Z</time></trkpt><trkpt lat="39.5569419" lon="9.5871337"><ele>23.5</ele><time>2026-04-18T13:47:10.295Z</time></trkpt><trkpt lat="39.5571623" lon="9.5870387"><ele>23.0</ele><time>2026-04-18T13:47:11.295Z</time></trkpt><trkpt lat="39.5573833" lon="9.586942"><ele>22.5</ele><time>2026-04-18T13:47:12.294Z</time></trkpt><trkpt lat="39.5576151" lon="9.5868429"><ele>22.0</ele><time>2026-04-18T13:47:13.295Z</time></trkpt><trkpt lat="39.5578366" lon="9.5867447"><ele>23.5</ele><time>2026-04-18T13:47:14.295Z</time></trkpt><trkpt lat="39.5580497" lon="9.5866468"><ele>25.0</ele><time>2026-04-18T13:47:15.295Z</time></trkpt><trkpt lat="39.5582668" lon="9.5865484"><ele>25.0</ele><time>2026-04-18T13:47:16.295Z</time></trkpt><trkpt lat="39.5584832" lon="9.5864544"><ele>25.0</ele><time>2026-04-18T13:47:17.296Z</time></trkpt><trkpt lat="39.5586984" lon="9.5863657"><ele>27.0</ele><time>2026-04-18T13:47:18.295Z</time></trkpt><trkpt lat="39.5589119" lon="9.5862759"><ele>29.0</ele><time>2026-04-18T13:47:19.295Z</time></trkpt><trkpt lat="39.5591232" lon="9.5861961"><ele>31.0</ele><time>2026-04-18T13:47:20.294Z</time></trkpt><trkpt lat="39.5593257" lon="9.5861234"><ele>31.0</ele><time>2026-04-18T13:47:21.295Z</time></trkpt><trkpt lat="39.5595176" lon="9.5860587"><ele>31.0</ele><time>2026-04-18T13:47:22.295Z</time></trkpt><trkpt lat="39.559702" lon="9.5860113"><ele>31.0</ele><time>2026-04-18T13:47:23.295Z</time></trkpt><trkpt lat="39.5598789" lon="9.58597"><ele>32.333333333333336</ele><time>2026-04-18T13:47:24.295Z</time></trkpt><trkpt lat="39.5600532" lon="9.5859381"><ele>33.666666666666664</ele><time>2026-04-18T13:47:25.295Z</time></trkpt><trkpt lat="39.5602301" lon="9.5859228"><ele>35.0</ele><time>2026-04-18T13:47:26.296Z</time></trkpt><trkpt lat="39.5604016" lon="9.5859186"><ele>35.33333333333333</ele><time>2026-04-18T13:47:27.295Z</time></trkpt><trkpt lat="39.5605689" lon="9.5859274"><ele>35.666666666666664</ele><time>2026-04-18T13:47:28.294Z</time></trkpt><trkpt lat="39.5607307" lon="9.5859427"><ele>36.0</ele><time>2026-04-18T13:47:29.295Z</time></trkpt><trkpt lat="39.5608883" lon="9.5859522"><ele>36.0</ele><time>2026-04-18T13:47:30.295Z</time></trkpt><trkpt lat="39.561045" lon="9.5859547"><ele>36.0</ele><time>2026-04-18T13:47:31.295Z</time></trkpt><trkpt lat="39.5612003" lon="9.5859541"><ele>36.0</ele><time>2026-04-18T13:47:32.295Z</time></trkpt><trkpt lat="39.5613468" lon="9.5859543"><ele>34.2</ele><time>2026-04-18T13:47:33.295Z</time></trkpt><trkpt lat="39.5614692" lon="9.5859626"><ele>32.400000000000006</ele><time>2026-04-18T13:47:34.295Z</time></trkpt><trkpt lat="39.561573" lon="9.5859791"><ele>30.6</ele><time>2026-04-18T13:47:35.295Z</time></trkpt><trkpt lat="39.5616579" lon="9.5860161"><ele>28.8</ele><time>2026-04-18T13:47:36.296Z</time></trkpt><trkpt lat="39.5617292" lon="9.5860663"><ele>27.0</ele><time>2026-04-18T13:47:37.295Z</time></trkpt><trkpt lat="39.5617832" lon="9.5861355"><ele>25.8</ele><time>2026-04-18T13:47:38.295Z</time></trkpt><trkpt lat="39.5618295" lon="9.5862139"><ele>24.6</ele><time>2026-04-18T13:47:39.294Z</time></trkpt><trkpt lat="39.5618714" lon="9.5863089"><ele>23.400000000000002</ele><time>2026-04-18T13:47:40.295Z</time></trkpt><trkpt lat="39.5619035" lon="9.58643"><ele>22.200000000000003</ele><time>2026-04-18T13:47:41.294Z</time></trkpt><trkpt lat="39.5619303" lon="9.5865719"><ele>21.0</ele><time>2026-04-18T13:47:42.296Z</time></trkpt><trkpt lat="39.5619505" lon="9.5867135"><ele>21.0</ele><time>2026-04-18T13:47:43.295Z</time></trkpt><trkpt lat="39.5619566" lon="9.5868473"><ele>21.0</ele><time>2026-04-18T13:47:44.294Z</time></trkpt><trkpt lat="39.5619505" lon="9.586976"><ele>21.0</ele><time>2026-04-18T13:47:45.295Z</time></trkpt><trkpt lat="39.5619329" lon="9.5870874"><ele>21.0</ele><time>2026-04-18T13:47:46.295Z</time></trkpt><trkpt lat="39.5619228" lon="9.587189"><ele>21.0</ele><time>2026-04-18T13:47:47.295Z</time></trkpt><trkpt lat="39.5619289" lon="9.5872737"><ele>21.0</ele><time>2026-04-18T13:47:48.295Z</time></trkpt><trkpt lat="39.5619972" lon="9.5873837"><ele>20.6</ele><time>2026-04-18T13:47:50.295Z</time></trkpt><trkpt lat="39.5620626" lon="9.587407"><ele>20.200000000000003</ele><time>2026-04-18T13:47:51.295Z</time></trkpt><trkpt lat="39.562153" lon="9.5874045"><ele>19.799999999999997</ele><time>2026-04-18T13:47:52.295Z</time></trkpt><trkpt lat="39.5622623" lon="9.5873804"><ele>19.4</ele><time>2026-04-18T13:47:53.295Z</time></trkpt><trkpt lat="39.5623887" lon="9.5873491"><ele>19.0</ele><time>2026-04-18T13:47:54.295Z</time></trkpt><trkpt lat="39.5625566" lon="9.5873134"><ele>19.0</ele><time>2026-04-18T13:47:55.296Z</time></trkpt><trkpt lat="39.5627475" lon="9.5872703"><ele>19.0</ele><time>2026-04-18T13:47:56.296Z</time></trkpt><trkpt lat="39.5629323" lon="9.5872304"><ele>19.0</ele><time>2026-04-18T13:47:57.295Z</time></trkpt><trkpt lat="39.5631073" lon="9.5871867"><ele>18.666666666666664</ele><time>2026-04-18T13:47:58.295Z</time></trkpt><trkpt lat="39.5632755" lon="9.5871519"><ele>18.333333333333332</ele><time>2026-04-18T13:47:59.295Z</time></trkpt><trkpt lat="39.5634342" lon="9.5871619"><ele>18.0</ele><time>2026-04-18T13:48:00.295Z</time></trkpt><trkpt lat="39.5635958" lon="9.5872073"><ele>18.666666666666668</ele><time>2026-04-18T13:48:01.295Z</time></trkpt><trkpt lat="39.5637578" lon="9.5872971"><ele>19.333333333333336</ele><time>2026-04-18T13:48:02.295Z</time></trkpt><trkpt lat="39.5639161" lon="9.5874069"><ele>20.0</ele><time>2026-04-18T13:48:03.294Z</time></trkpt><trkpt lat="39.5640778" lon="9.5875333"><ele>20.0</ele><time>2026-04-18T13:48:04.295Z</time></trkpt><trkpt lat="39.564249" lon="9.5876641"><ele>20.0</ele><time>2026-04-18T13:48:05.295Z</time></trkpt><trkpt lat="39.5644198" lon="9.5877967"><ele>20.0</ele><time>2026-04-18T13:48:06.294Z</time></trkpt><trkpt lat="39.564597" lon="9.5879279"><ele>20.0</ele><time>2026-04-18T13:48:07.294Z</time></trkpt><trkpt lat="39.5647695" lon="9.5880575"><ele>20.0</ele><time>2026-04-18T13:48:08.295Z</time></trkpt><trkpt lat="39.5649402" lon="9.5881829"><ele>20.0</ele><time>2026-04-18T13:48:09.295Z</time></trkpt><trkpt lat="39.5651148" lon="9.5883085"><ele>20.0</ele><time>2026-04-18T13:48:10.295Z</time></trkpt><trkpt lat="39.5652919" lon="9.5884457"><ele>20.0</ele><time>2026-04-18T13:48:11.296Z</time></trkpt><trkpt lat="39.5654637" lon="9.58858"><ele>20.0</ele><time>2026-04-18T13:48:12.296Z</time></trkpt><trkpt lat="39.5656333" lon="9.5887154"><ele>20.666666666666668</ele><time>2026-04-18T13:48:13.295Z</time></trkpt><trkpt lat="39.5657983" lon="9.5888466"><ele>21.333333333333332</ele><time>2026-04-18T13:48:14.295Z</time></trkpt><trkpt lat="39.5659671" lon="9.5889752"><ele>22.0</ele><time>2026-04-18T13:48:15.294Z</time></trkpt><trkpt lat="39.5661303" lon="9.5891025"><ele>22.333333333333332</ele><time>2026-04-18T13:48:16.295Z</time></trkpt><trkpt lat="39.5662964" lon="9.5892214"><ele>22.666666666666668</ele><time>2026-04-18T13:48:17.294Z</time></trkpt><trkpt lat="39.5664611" lon="9.5893367"><ele>23.0</ele><time>2026-04-18T13:48:18.295Z</time></trkpt><trkpt lat="39.5666328" lon="9.5894257"><ele>23.0</ele><time>2026-04-18T13:48:19.294Z</time></trkpt><trkpt lat="39.5668203" lon="9.5894882"><ele>23.0</ele><time>2026-04-18T13:48:20.295Z</time></trkpt><trkpt lat="39.5670209" lon="9.5895318"><ele>23.0</ele><time>2026-04-18T13:48:21.296Z</time></trkpt><trkpt lat="39.5672278" lon="9.5895627"><ele>23.0</ele><time>2026-04-18T13:48:22.296Z</time></trkpt><trkpt lat="39.5674379" lon="9.5895954"><ele>23.0</ele><time>2026-04-18T13:48:23.294Z</time></trkpt><trkpt lat="39.5676502" lon="9.5896291"><ele>23.0</ele><time>2026-04-18T13:48:24.294Z</time></trkpt><trkpt lat="39.5678637" lon="9.5896599"><ele>23.0</ele><time>2026-04-18T13:48:25.295Z</time></trkpt><trkpt lat="39.5680756" lon="9.5896936"><ele>23.0</ele><time>2026-04-18T13:48:26.296Z</time></trkpt><trkpt lat="39.568291" lon="9.5897272"><ele>23.0</ele><time>2026-04-18T13:48:27.295Z</time></trkpt><trkpt lat="39.5685043" lon="9.5897569"><ele>22.0</ele><time>2026-04-18T13:48:28.295Z</time></trkpt><trkpt lat="39.5687186" lon="9.5897897"><ele>21.0</ele><time>2026-04-18T13:48:29.294Z</time></trkpt><trkpt lat="39.5689294" lon="9.589824"><ele>20.0</ele><time>2026-04-18T13:48:30.295Z</time></trkpt><trkpt lat="39.5691401" lon="9.5898587"><ele>20.0</ele><time>2026-04-18T13:48:31.294Z</time></trkpt><trkpt lat="39.56935" lon="9.5898952"><ele>20.0</ele><time>2026-04-18T13:48:32.293Z</time></trkpt><trkpt lat="39.5695658" lon="9.5899272"><ele>20.0</ele><time>2026-04-18T13:48:33.294Z</time></trkpt><trkpt lat="39.56978" lon="9.5899596"><ele>21.0</ele><time>2026-04-18T13:48:34.294Z</time></trkpt><trkpt lat="39.5699945" lon="9.5899943"><ele>22.0</ele><time>2026-04-18T13:48:35.294Z</time></trkpt><trkpt lat="39.5701971" lon="9.5900276"><ele>23.0</ele><time>2026-04-18T13:48:36.294Z</time></trkpt><trkpt lat="39.5703907" lon="9.5900536"><ele>24.0</ele><time>2026-04-18T13:48:37.293Z</time></trkpt><trkpt lat="39.5705767" lon="9.5900806"><ele>25.0</ele><time>2026-04-18T13:48:38.294Z</time></trkpt><trkpt lat="39.5707517" lon="9.5901098"><ele>26.0</ele><time>2026-04-18T13:48:39.294Z</time></trkpt><trkpt lat="39.5709185" lon="9.5901358"><ele>26.0</ele><time>2026-04-18T13:48:40.294Z</time></trkpt><trkpt lat="39.5710785" lon="9.5901512"><ele>26.0</ele><time>2026-04-18T13:48:41.293Z</time></trkpt><trkpt lat="39.5712359" lon="9.5901467"><ele>26.0</ele><time>2026-04-18T13:48:42.294Z</time></trkpt><trkpt lat="39.5713853" lon="9.590126"><ele>25.5</ele><time>2026-04-18T13:48:43.295Z</time></trkpt><trkpt lat="39.5715202" lon="9.5900918"><ele>25.0</ele><time>2026-04-18T13:48:44.294Z</time></trkpt><trkpt lat="39.5716375" lon="9.5900495"><ele>24.5</ele><time>2026-04-18T13:48:45.295Z</time></trkpt><trkpt lat="39.5717363" lon="9.5900073"><ele>24.0</ele><time>2026-04-18T13:48:46.294Z</time></trkpt><trkpt lat="39.5718243" lon="9.5899761"><ele>23.999999999999996</ele><time>2026-04-18T13:48:47.294Z</time></trkpt><trkpt lat="39.5719061" lon="9.5899474"><ele>24.0</ele><time>2026-04-18T13:48:48.294Z</time></trkpt><trkpt lat="39.5719828" lon="9.589924"><ele>24.0</ele><time>2026-04-18T13:48:49.293Z</time></trkpt><trkpt lat="39.572057" lon="9.5899132"><ele>24.0</ele><time>2026-04-18T13:48:50.294Z</time></trkpt><trkpt lat="39.5721266" lon="9.5899085"><ele>24.0</ele><time>2026-04-18T13:48:51.294Z</time></trkpt><trkpt lat="39.5721935" lon="9.5899119"><ele>23.999999999999996</ele><time>2026-04-18T13:48:52.294Z</time></trkpt><trkpt lat="39.5722562" lon="9.5899203"><ele>24.0</ele><time>2026-04-18T13:48:53.294Z</time></trkpt><trkpt lat="39.5723227" lon="9.5899309"><ele>24.285714285714285</ele><time>2026-04-18T13:48:54.294Z</time></trkpt><trkpt lat="39.5723938" lon="9.5899451"><ele>24.57142857142857</ele><time>2026-04-18T13:48:55.294Z</time></trkpt><trkpt lat="39.572467" lon="9.5899552"><ele>24.857142857142854</ele><time>2026-04-18T13:48:56.294Z</time></trkpt><trkpt lat="39.5725352" lon="9.5899635"><ele>25.142857142857142</ele><time>2026-04-18T13:48:57.293Z</time></trkpt><trkpt lat="39.5726026" lon="9.5899628"><ele>25.42857142857143</ele><time>2026-04-18T13:48:58.294Z</time></trkpt><trkpt lat="39.5726672" lon="9.5899555"><ele>25.71428571428571</ele><time>2026-04-18T13:48:59.294Z</time></trkpt><trkpt lat="39.5727334" lon="9.5899412"><ele>26.0</ele><time>2026-04-18T13:49:00.294Z</time></trkpt><trkpt lat="39.5728015" lon="9.5899076"><ele>25.8</ele><time>2026-04-18T13:49:01.294Z</time></trkpt><trkpt lat="39.5728655" lon="9.5898623"><ele>25.6</ele><time>2026-04-18T13:49:02.294Z</time></trkpt><trkpt lat="39.5729223" lon="9.5898109"><ele>25.4</ele><time>2026-04-18T13:49:03.294Z</time></trkpt><trkpt lat="39.5729873" lon="9.5897372"><ele>25.2</ele><time>2026-04-18T13:49:04.294Z</time></trkpt><trkpt lat="39.5730584" lon="9.5896299"><ele>25.0</ele><time>2026-04-18T13:49:05.294Z</time></trkpt><trkpt lat="39.5731595" lon="9.5895039"><ele>26.0</ele><time>2026-04-18T13:49:06.294Z</time></trkpt><trkpt lat="39.5732806" lon="9.5893855"><ele>27.0</ele><time>2026-04-18T13:49:07.294Z</time></trkpt><trkpt lat="39.5734166" lon="9.5892621"><ele>28.0</ele><time>2026-04-18T13:49:08.294Z</time></trkpt><trkpt lat="39.5735581" lon="9.5891469"><ele>28.0</ele><time>2026-04-18T13:49:09.294Z</time></trkpt><trkpt lat="39.5736916" lon="9.5890241"><ele>28.0</ele><time>2026-04-18T13:49:10.294Z</time></trkpt><trkpt lat="39.5738139" lon="9.5888924"><ele>28.0</ele><time>2026-04-18T13:49:11.294Z</time></trkpt><trkpt lat="39.5739342" lon="9.5887598"><ele>28.5</ele><time>2026-04-18T13:49:12.294Z</time></trkpt><trkpt lat="39.5740505" lon="9.5886315"><ele>29.0</ele><time>2026-04-18T13:49:13.294Z</time></trkpt><trkpt lat="39.5741616" lon="9.5885163"><ele>29.5</ele><time>2026-04-18T13:49:14.294Z</time></trkpt><trkpt lat="39.5742759" lon="9.5884157"><ele>30.0</ele><time>2026-04-18T13:49:15.294Z</time></trkpt><trkpt lat="39.5743966" lon="9.5883516"><ele>28.75</ele><time>2026-04-18T13:49:16.294Z</time></trkpt><trkpt lat="39.5745312" lon="9.5883311"><ele>27.5</ele><time>2026-04-18T13:49:17.294Z</time></trkpt><trkpt lat="39.5746726" lon="9.5883433"><ele>26.25</ele><time>2026-04-18T13:49:18.293Z</time></trkpt><trkpt lat="39.5748147" lon="9.5883956"><ele>25.0</ele><time>2026-04-18T13:49:19.294Z</time></trkpt><trkpt lat="39.5749515" lon="9.5885032"><ele>25.0</ele><time>2026-04-18T13:49:20.294Z</time></trkpt><trkpt lat="39.5750926" lon="9.5886447"><ele>25.0</ele><time>2026-04-18T13:49:21.294Z</time></trkpt><trkpt lat="39.5752335" lon="9.588802"><ele>25.0</ele><time>2026-04-18T13:49:22.295Z</time></trkpt><trkpt lat="39.575374" lon="9.5889592"><ele>24.333333333333336</ele><time>2026-04-18T13:49:23.294Z</time></trkpt><trkpt lat="39.5755159" lon="9.5891211"><ele>23.666666666666668</ele><time>2026-04-18T13:49:24.295Z</time></trkpt><trkpt lat="39.5756603" lon="9.5892809"><ele>23.0</ele><time>2026-04-18T13:49:25.293Z</time></trkpt><trkpt lat="39.5758034" lon="9.5894419"><ele>23.333333333333336</ele><time>2026-04-18T13:49:26.295Z</time></trkpt><trkpt lat="39.575936" lon="9.5895954"><ele>23.666666666666668</ele><time>2026-04-18T13:49:27.295Z</time></trkpt><trkpt lat="39.5760716" lon="9.5897479"><ele>24.0</ele><time>2026-04-18T13:49:28.294Z</time></trkpt><trkpt lat="39.5762139" lon="9.5899001"><ele>24.333333333333336</ele><time>2026-04-18T13:49:29.293Z</time></trkpt><trkpt lat="39.5763666" lon="9.5900261"><ele>24.666666666666668</ele><time>2026-04-18T13:49:30.294Z</time></trkpt><trkpt lat="39.5765283" lon="9.5901278"><ele>25.0</ele><time>2026-04-18T13:49:31.293Z</time></trkpt><trkpt lat="39.576707" lon="9.590205"><ele>25.0</ele><time>2026-04-18T13:49:32.294Z</time></trkpt><trkpt lat="39.5768999" lon="9.5902542"><ele>25.0</ele><time>2026-04-18T13:49:33.294Z</time></trkpt><trkpt lat="39.5770994" lon="9.5902875"><ele>25.0</ele><time>2026-04-18T13:49:34.293Z</time></trkpt><trkpt lat="39.5773051" lon="9.5903094"><ele>25.0</ele><time>2026-04-18T13:49:35.293Z</time></trkpt><trkpt lat="39.5775201" lon="9.5903359"><ele>25.0</ele><time>2026-04-18T13:49:36.293Z</time></trkpt><trkpt lat="39.5777459" lon="9.5903663"><ele>25.0</ele><time>2026-04-18T13:49:37.294Z</time></trkpt><trkpt lat="39.5779711" lon="9.5903963"><ele>24.5</ele><time>2026-04-18T13:49:38.294Z</time></trkpt><trkpt lat="39.5782014" lon="9.5904252"><ele>24.0</ele><time>2026-04-18T13:49:39.293Z</time></trkpt><trkpt lat="39.5784332" lon="9.59046"><ele>24.0</ele><time>2026-04-18T13:49:40.294Z</time></trkpt><trkpt lat="39.5786657" lon="9.5904936"><ele>24.0</ele><time>2026-04-18T13:49:41.295Z</time></trkpt><trkpt lat="39.5788949" lon="9.5905244"><ele>24.0</ele><time>2026-04-18T13:49:42.295Z</time></trkpt><trkpt lat="39.5791219" lon="9.5905549"><ele>24.0</ele><time>2026-04-18T13:49:43.294Z</time></trkpt><trkpt lat="39.5793382" lon="9.5905843"><ele>24.0</ele><time>2026-04-18T13:49:44.294Z</time></trkpt><trkpt lat="39.5795456" lon="9.5906113"><ele>25.0</ele><time>2026-04-18T13:49:45.294Z</time></trkpt><trkpt lat="39.5797557" lon="9.5906348"><ele>26.0</ele><time>2026-04-18T13:49:46.293Z</time></trkpt><trkpt lat="39.5799648" lon="9.5906582"><ele>27.0</ele><time>2026-04-18T13:49:47.293Z</time></trkpt><trkpt lat="39.5801756" lon="9.590685"><ele>27.0</ele><time>2026-04-18T13:49:48.293Z</time></trkpt><trkpt lat="39.5803854" lon="9.5907131"><ele>27.0</ele><time>2026-04-18T13:49:49.294Z</time></trkpt><trkpt lat="39.5805965" lon="9.590742"><ele>27.0</ele><time>2026-04-18T13:49:50.294Z</time></trkpt><trkpt lat="39.58081" lon="9.5907702"><ele>27.0</ele><time>2026-04-18T13:49:51.294Z</time></trkpt><trkpt lat="39.5810252" lon="9.5908001"><ele>27.0</ele><time>2026-04-18T13:49:52.293Z</time></trkpt><trkpt lat="39.5812427" lon="9.59083"><ele>27.0</ele><time>2026-04-18T13:49:53.295Z</time></trkpt><trkpt lat="39.581462" lon="9.5908594"><ele>27.0</ele><time>2026-04-18T13:49:54.294Z</time></trkpt><trkpt lat="39.5816771" lon="9.5908729"><ele>27.0</ele><time>2026-04-18T13:49:55.295Z</time></trkpt><trkpt lat="39.5818942" lon="9.5908651"><ele>27.0</ele><time>2026-04-18T13:49:56.293Z</time></trkpt><trkpt lat="39.5821101" lon="9.5908443"><ele>26.666666666666664</ele><time>2026-04-18T13:49:57.293Z</time></trkpt><trkpt lat="39.5823268" lon="9.5908236"><ele>26.333333333333332</ele><time>2026-04-18T13:49:58.294Z</time></trkpt><trkpt lat="39.5825385" lon="9.5908083"><ele>26.0</ele><time>2026-04-18T13:49:59.294Z</time></trkpt><trkpt lat="39.5827465" lon="9.5907929"><ele>26.333333333333332</ele><time>2026-04-18T13:50:00.294Z</time></trkpt><trkpt lat="39.58295" lon="9.5907774"><ele>26.666666666666664</ele><time>2026-04-18T13:50:01.294Z</time></trkpt><trkpt lat="39.5831542" lon="9.5907545"><ele>27.0</ele><time>2026-04-18T13:50:02.294Z</time></trkpt><trkpt lat="39.5833632" lon="9.5907353"><ele>27.0</ele><time>2026-04-18T13:50:03.293Z</time></trkpt><trkpt lat="39.5835758" lon="9.5907055"><ele>27.0</ele><time>2026-04-18T13:50:04.294Z</time></trkpt><trkpt lat="39.5837875" lon="9.5906612"><ele>27.0</ele><time>2026-04-18T13:50:05.293Z</time></trkpt><trkpt lat="39.5839996" lon="9.5905983"><ele>27.0</ele><time>2026-04-18T13:50:06.294Z</time></trkpt><trkpt lat="39.5842085" lon="9.5905168"><ele>27.0</ele><time>2026-04-18T13:50:07.294Z</time></trkpt><trkpt lat="39.5844069" lon="9.5904094"><ele>27.0</ele><time>2026-04-18T13:50:08.295Z</time></trkpt><trkpt lat="39.5845988" lon="9.5902791"><ele>28.666666666666664</ele><time>2026-04-18T13:50:09.295Z</time></trkpt><trkpt lat="39.5847748" lon="9.5901267"><ele>30.333333333333332</ele><time>2026-04-18T13:50:10.294Z</time></trkpt><trkpt lat="39.5849453" lon="9.5899514"><ele>32.0</ele><time>2026-04-18T13:50:11.294Z</time></trkpt><trkpt lat="39.5851011" lon="9.5897705"><ele>32.0</ele><time>2026-04-18T13:50:12.294Z</time></trkpt><trkpt lat="39.5852483" lon="9.5895949"><ele>32.0</ele><time>2026-04-18T13:50:13.294Z</time></trkpt><trkpt lat="39.5853938" lon="9.5894271"><ele>32.0</ele><time>2026-04-18T13:50:14.294Z</time></trkpt><trkpt lat="39.5855403" lon="9.5892582"><ele>31.666666666666664</ele><time>2026-04-18T13:50:15.293Z</time></trkpt><trkpt lat="39.5856861" lon="9.5890877"><ele>31.333333333333336</ele><time>2026-04-18T13:50:16.294Z</time></trkpt><trkpt lat="39.5858266" lon="9.58891"><ele>31.0</ele><time>2026-04-18T13:50:17.294Z</time></trkpt><trkpt lat="39.5859696" lon="9.5887301"><ele>30.666666666666668</ele><time>2026-04-18T13:50:18.294Z</time></trkpt><trkpt lat="39.5861165" lon="9.5885429"><ele>30.333333333333336</ele><time>2026-04-18T13:50:19.294Z</time></trkpt><trkpt lat="39.5862681" lon="9.5883591"><ele>30.0</ele><time>2026-04-18T13:50:20.294Z</time></trkpt><trkpt lat="39.5864199" lon="9.5881749"><ele>30.0</ele><time>2026-04-18T13:50:21.295Z</time></trkpt><trkpt lat="39.5865693" lon="9.5879919"><ele>30.0</ele><time>2026-04-18T13:50:22.294Z</time></trkpt><trkpt lat="39.5867366" lon="9.587821"><ele>30.0</ele><time>2026-04-18T13:50:23.295Z</time></trkpt><trkpt lat="39.5869192" lon="9.587667"><ele>32.0</ele><time>2026-04-18T13:50:24.293Z</time></trkpt><trkpt lat="39.587111" lon="9.5875379"><ele>34.0</ele><time>2026-04-18T13:50:25.295Z</time></trkpt><trkpt lat="39.5873115" lon="9.587429"><ele>36.0</ele><time>2026-04-18T13:50:26.294Z</time></trkpt><trkpt lat="39.5875169" lon="9.5873411"><ele>36.0</ele><time>2026-04-18T13:50:27.294Z</time></trkpt><trkpt lat="39.5877301" lon="9.5872837"><ele>36.0</ele><time>2026-04-18T13:50:28.294Z</time></trkpt><trkpt lat="39.587949" lon="9.5872567"><ele>36.0</ele><time>2026-04-18T13:50:29.295Z</time></trkpt><trkpt lat="39.5881693" lon="9.5872522"><ele>34.0</ele><time>2026-04-18T13:50:30.294Z</time></trkpt><trkpt lat="39.5883846" lon="9.5872553"><ele>32.0</ele><time>2026-04-18T13:50:31.294Z</time></trkpt><trkpt lat="39.5886014" lon="9.5872697"><ele>30.0</ele><time>2026-04-18T13:50:32.293Z</time></trkpt><trkpt lat="39.5888162" lon="9.5873036"><ele>30.0</ele><time>2026-04-18T13:50:33.295Z</time></trkpt><trkpt lat="39.5890251" lon="9.5873709"><ele>30.0</ele><time>2026-04-18T13:50:34.293Z</time></trkpt><trkpt lat="39.5892256" lon="9.5874664"><ele>30.0</ele><time>2026-04-18T13:50:35.294Z</time></trkpt><trkpt lat="39.5894193" lon="9.5875687"><ele>29.666666666666664</ele><time>2026-04-18T13:50:36.294Z</time></trkpt><trkpt lat="39.5896131" lon="9.5876776"><ele>29.333333333333332</ele><time>2026-04-18T13:50:37.294Z</time></trkpt><trkpt lat="39.5898069" lon="9.5877926"><ele>29.0</ele><time>2026-04-18T13:50:38.294Z</time></trkpt><trkpt lat="39.5899988" lon="9.5879025"><ele>29.0</ele><time>2026-04-18T13:50:39.294Z</time></trkpt><trkpt lat="39.5901915" lon="9.5880156"><ele>29.0</ele><time>2026-04-18T13:50:40.293Z</time></trkpt><trkpt lat="39.5903831" lon="9.5881274"><ele>29.0</ele><time>2026-04-18T13:50:41.294Z</time></trkpt><trkpt lat="39.5905786" lon="9.5882394"><ele>30.333333333333332</ele><time>2026-04-18T13:50:42.295Z</time></trkpt><trkpt lat="39.5907722" lon="9.5883561"><ele>31.666666666666664</ele><time>2026-04-18T13:50:43.293Z</time></trkpt><trkpt lat="39.5909675" lon="9.5884701"><ele>33.0</ele><time>2026-04-18T13:50:44.294Z</time></trkpt><trkpt lat="39.5911637" lon="9.5885855"><ele>32.666666666666664</ele><time>2026-04-18T13:50:45.294Z</time></trkpt><trkpt lat="39.5913613" lon="9.588698"><ele>32.33333333333333</ele><time>2026-04-18T13:50:46.294Z</time></trkpt><trkpt lat="39.5915595" lon="9.5888158"><ele>32.0</ele><time>2026-04-18T13:50:47.294Z</time></trkpt><trkpt lat="39.5917528" lon="9.5889323"><ele>32.0</ele><time>2026-04-18T13:50:48.295Z</time></trkpt><trkpt lat="39.5919454" lon="9.5890447"><ele>32.0</ele><time>2026-04-18T13:50:49.295Z</time></trkpt><trkpt lat="39.5921361" lon="9.5891592"><ele>32.0</ele><time>2026-04-18T13:50:50.294Z</time></trkpt><trkpt lat="39.5923253" lon="9.589273"><ele>33.0</ele><time>2026-04-18T13:50:51.294Z</time></trkpt><trkpt lat="39.5925197" lon="9.5893853"><ele>34.0</ele><time>2026-04-18T13:50:52.293Z</time></trkpt><trkpt lat="39.5927149" lon="9.5894999"><ele>35.0</ele><time>2026-04-18T13:50:53.293Z</time></trkpt><trkpt lat="39.5929103" lon="9.5896124"><ele>35.0</ele><time>2026-04-18T13:50:54.294Z</time></trkpt><trkpt lat="39.593107" lon="9.5897258"><ele>35.0</ele><time>2026-04-18T13:50:55.294Z</time></trkpt><trkpt lat="39.5933029" lon="9.5898381"><ele>35.0</ele><time>2026-04-18T13:50:56.294Z</time></trkpt><trkpt lat="39.5934998" lon="9.5899521"><ele>36.666666666666664</ele><time>2026-04-18T13:50:57.294Z</time></trkpt><trkpt lat="39.5936924" lon="9.5900645"><ele>38.333333333333336</ele><time>2026-04-18T13:50:58.294Z</time></trkpt><trkpt lat="39.593885" lon="9.5901765"><ele>40.0</ele><time>2026-04-18T13:50:59.294Z</time></trkpt><trkpt lat="39.5940795" lon="9.5902871"><ele>39.333333333333336</ele><time>2026-04-18T13:51:00.294Z</time></trkpt><trkpt lat="39.5942741" lon="9.5904016"><ele>38.666666666666664</ele><time>2026-04-18T13:51:01.294Z</time></trkpt><trkpt lat="39.594471" lon="9.5905143"><ele>38.0</ele><time>2026-04-18T13:51:02.293Z</time></trkpt><trkpt lat="39.594669" lon="9.590625"><ele>38.0</ele><time>2026-04-18T13:51:03.294Z</time></trkpt><trkpt lat="39.594864" lon="9.5907348"><ele>38.0</ele><time>2026-04-18T13:51:04.294Z</time></trkpt><trkpt lat="39.5950558" lon="9.5908461"><ele>38.0</ele><time>2026-04-18T13:51:05.294Z</time></trkpt><trkpt lat="39.5952453" lon="9.590955"><ele>38.0</ele><time>2026-04-18T13:51:06.293Z</time></trkpt><trkpt lat="39.5954294" lon="9.5910679"><ele>38.0</ele><time>2026-04-18T13:51:07.295Z</time></trkpt><trkpt lat="39.5956016" lon="9.5911657"><ele>38.0</ele><time>2026-04-18T13:51:08.294Z</time></trkpt><trkpt lat="39.595769" lon="9.5912521"><ele>38.0</ele><time>2026-04-18T13:51:09.294Z</time></trkpt><trkpt lat="39.5959175" lon="9.5913246"><ele>38.0</ele><time>2026-04-18T13:51:10.293Z</time></trkpt><trkpt lat="39.596043" lon="9.5913602"><ele>38.0</ele><time>2026-04-18T13:51:11.295Z</time></trkpt><trkpt lat="39.5961851" lon="9.5913245"><ele>38.0</ele><time>2026-04-18T13:51:12.295Z</time></trkpt><trkpt lat="39.5963501" lon="9.5912881"><ele>37.666666666666664</ele><time>2026-04-18T13:51:13.294Z</time></trkpt><trkpt lat="39.5964871" lon="9.5911698"><ele>37.333333333333336</ele><time>2026-04-18T13:51:14.294Z</time></trkpt><trkpt lat="39.5966307" lon="9.5910905"><ele>37.0</ele><time>2026-04-18T13:51:15.294Z</time></trkpt><trkpt lat="39.5967627" lon="9.5910037"><ele>37.0</ele><time>2026-04-18T13:51:16.294Z</time></trkpt><trkpt lat="39.5968794" lon="9.5908838"><ele>37.0</ele><time>2026-04-18T13:51:17.294Z</time></trkpt><trkpt lat="39.5969526" lon="9.5907209"><ele>37.0</ele><time>2026-04-18T13:51:18.294Z</time></trkpt><trkpt lat="39.5970111" lon="9.5905243"><ele>36.66666666666667</ele><time>2026-04-18T13:51:19.295Z</time></trkpt><trkpt lat="39.5970692" lon="9.5903098"><ele>36.333333333333336</ele><time>2026-04-18T13:51:20.294Z</time></trkpt><trkpt lat="39.597126" lon="9.5901064"><ele>36.0</ele><time>2026-04-18T13:51:21.294Z</time></trkpt><trkpt lat="39.5971916" lon="9.5899013"><ele>36.0</ele><time>2026-04-18T13:51:22.294Z</time></trkpt><trkpt lat="39.5972855" lon="9.5897106"><ele>36.0</ele><time>2026-04-18T13:51:23.293Z</time></trkpt><trkpt lat="39.5973987" lon="9.5895406"><ele>36.0</ele><time>2026-04-18T13:51:24.293Z</time></trkpt><trkpt lat="39.5975113" lon="9.5893874"><ele>36.0</ele><time>2026-04-18T13:51:25.293Z</time></trkpt><trkpt lat="39.5976243" lon="9.589246"><ele>36.0</ele><time>2026-04-18T13:51:26.294Z</time></trkpt><trkpt lat="39.5977431" lon="9.5891219"><ele>36.0</ele><time>2026-04-18T13:51:27.293Z</time></trkpt><trkpt lat="39.5978864" lon="9.5890208"><ele>36.0</ele><time>2026-04-18T13:51:28.294Z</time></trkpt><trkpt lat="39.5980554" lon="9.5889628"><ele>36.0</ele><time>2026-04-18T13:51:29.294Z</time></trkpt><trkpt lat="39.5982399" lon="9.5889298"><ele>36.0</ele><time>2026-04-18T13:51:30.294Z</time></trkpt><trkpt lat="39.5984443" lon="9.5889123"><ele>36.0</ele><time>2026-04-18T13:51:31.294Z</time></trkpt><trkpt lat="39.598646" lon="9.5888903"><ele>36.0</ele><time>2026-04-18T13:51:32.294Z</time></trkpt><trkpt lat="39.5988565" lon="9.5888714"><ele>36.0</ele><time>2026-04-18T13:51:33.293Z</time></trkpt><trkpt lat="39.5990694" lon="9.5888529"><ele>36.0</ele><time>2026-04-18T13:51:34.294Z</time></trkpt><trkpt lat="39.5992905" lon="9.588834"><ele>36.0</ele><time>2026-04-18T13:51:35.294Z</time></trkpt><trkpt lat="39.599511" lon="9.5888128"><ele>36.0</ele><time>2026-04-18T13:51:36.294Z</time></trkpt><trkpt lat="39.599729" lon="9.5887924"><ele>36.333333333333336</ele><time>2026-04-18T13:51:37.293Z</time></trkpt><trkpt lat="39.5999485" lon="9.5887762"><ele>36.66666666666667</ele><time>2026-04-18T13:51:38.294Z</time></trkpt><trkpt lat="39.6001636" lon="9.588754"><ele>37.0</ele><time>2026-04-18T13:51:39.294Z</time></trkpt><trkpt lat="39.6003772" lon="9.5887314"><ele>37.0</ele><time>2026-04-18T13:51:40.294Z</time></trkpt><trkpt lat="39.6005944" lon="9.5887124"><ele>37.0</ele><time>2026-04-18T13:51:41.293Z</time></trkpt><trkpt lat="39.6008096" lon="9.588691"><ele>37.0</ele><time>2026-04-18T13:51:42.294Z</time></trkpt><trkpt lat="39.6010225" lon="9.5886718"><ele>37.66666666666667</ele><time>2026-04-18T13:51:43.293Z</time></trkpt><trkpt lat="39.6012325" lon="9.5886509"><ele>38.333333333333336</ele><time>2026-04-18T13:51:44.293Z</time></trkpt><trkpt lat="39.6014412" lon="9.5886327"><ele>39.0</ele><time>2026-04-18T13:51:45.294Z</time></trkpt><trkpt lat="39.601652" lon="9.5886148"><ele>39.0</ele><time>2026-04-18T13:51:46.294Z</time></trkpt><trkpt lat="39.6018602" lon="9.5885926"><ele>39.0</ele><time>2026-04-18T13:51:47.294Z</time></trkpt><trkpt lat="39.6020694" lon="9.5885726"><ele>39.0</ele><time>2026-04-18T13:51:48.294Z</time></trkpt><trkpt lat="39.6022789" lon="9.5885572"><ele>38.666666666666664</ele><time>2026-04-18T13:51:49.294Z</time></trkpt><trkpt lat="39.6024839" lon="9.5885363"><ele>38.33333333333333</ele><time>2026-04-18T13:51:50.293Z</time></trkpt><trkpt lat="39.6026834" lon="9.5885151"><ele>38.0</ele><time>2026-04-18T13:51:51.293Z</time></trkpt><trkpt lat="39.602882" lon="9.5884981"><ele>38.666666666666664</ele><time>2026-04-18T13:51:52.294Z</time></trkpt><trkpt lat="39.6030817" lon="9.5884879"><ele>39.333333333333336</ele><time>2026-04-18T13:51:53.294Z</time></trkpt><trkpt lat="39.6032849" lon="9.5884905"><ele>40.0</ele><time>2026-04-18T13:51:54.294Z</time></trkpt><trkpt lat="39.6034935" lon="9.5885395"><ele>39.0</ele><time>2026-04-18T13:51:55.294Z</time></trkpt><trkpt lat="39.6036996" lon="9.5886351"><ele>38.0</ele><time>2026-04-18T13:51:56.294Z</time></trkpt><trkpt lat="39.6039043" lon="9.5887504"><ele>37.0</ele><time>2026-04-18T13:51:57.293Z</time></trkpt><trkpt lat="39.6041077" lon="9.5888711"><ele>37.0</ele><time>2026-04-18T13:51:58.294Z</time></trkpt><trkpt lat="39.6043118" lon="9.5889961"><ele>37.0</ele><time>2026-04-18T13:51:59.294Z</time></trkpt><trkpt lat="39.6045114" lon="9.5891184"><ele>37.0</ele><time>2026-04-18T13:52:00.293Z</time></trkpt><trkpt lat="39.6047116" lon="9.5892372"><ele>37.333333333333336</ele><time>2026-04-18T13:52:01.294Z</time></trkpt><trkpt lat="39.604909" lon="9.5893546"><ele>37.666666666666664</ele><time>2026-04-18T13:52:02.294Z</time></trkpt><trkpt lat="39.6051035" lon="9.5894673"><ele>38.0</ele><time>2026-04-18T13:52:03.294Z</time></trkpt><trkpt lat="39.6052972" lon="9.5895823"><ele>39.666666666666664</ele><time>2026-04-18T13:52:04.295Z</time></trkpt><trkpt lat="39.6054948" lon="9.5896989"><ele>41.333333333333336</ele><time>2026-04-18T13:52:05.294Z</time></trkpt><trkpt lat="39.6056932" lon="9.5898206"><ele>43.0</ele><time>2026-04-18T13:52:06.294Z</time></trkpt><trkpt lat="39.605889" lon="9.5899332"><ele>43.0</ele><time>2026-04-18T13:52:07.294Z</time></trkpt><trkpt lat="39.6060803" lon="9.5900463"><ele>43.0</ele><time>2026-04-18T13:52:08.295Z</time></trkpt><trkpt lat="39.6062694" lon="9.5901499"><ele>43.0</ele><time>2026-04-18T13:52:09.294Z</time></trkpt><trkpt lat="39.6064652" lon="9.5902416"><ele>41.333333333333336</ele><time>2026-04-18T13:52:10.294Z</time></trkpt><trkpt lat="39.6066541" lon="9.5903156"><ele>39.666666666666664</ele><time>2026-04-18T13:52:11.295Z</time></trkpt><trkpt lat="39.6068448" lon="9.5903777"><ele>38.0</ele><time>2026-04-18T13:52:12.293Z</time></trkpt><trkpt lat="39.6070485" lon="9.5904089"><ele>38.0</ele><time>2026-04-18T13:52:13.294Z</time></trkpt><trkpt lat="39.6072624" lon="9.5903976"><ele>38.0</ele><time>2026-04-18T13:52:14.294Z</time></trkpt><trkpt lat="39.6074834" lon="9.5903536"><ele>38.0</ele><time>2026-04-18T13:52:15.294Z</time></trkpt><trkpt lat="39.6077055" lon="9.5902988"><ele>39.33333333333333</ele><time>2026-04-18T13:52:16.294Z</time></trkpt><trkpt lat="39.6079149" lon="9.5902407"><ele>40.666666666666664</ele><time>2026-04-18T13:52:17.294Z</time></trkpt><trkpt lat="39.6081235" lon="9.5901816"><ele>42.0</ele><time>2026-04-18T13:52:18.293Z</time></trkpt><trkpt lat="39.6083281" lon="9.590121"><ele>42.0</ele><time>2026-04-18T13:52:19.294Z</time></trkpt><trkpt lat="39.6085385" lon="9.5900596"><ele>42.0</ele><time>2026-04-18T13:52:20.294Z</time></trkpt><trkpt lat="39.6087487" lon="9.589998"><ele>42.0</ele><time>2026-04-18T13:52:21.294Z</time></trkpt><trkpt lat="39.608957" lon="9.5899443"><ele>41.666666666666664</ele><time>2026-04-18T13:52:22.294Z</time></trkpt><trkpt lat="39.6091738" lon="9.589908"><ele>41.33333333333333</ele><time>2026-04-18T13:52:23.294Z</time></trkpt><trkpt lat="39.6093864" lon="9.5899001"><ele>41.0</ele><time>2026-04-18T13:52:24.294Z</time></trkpt><trkpt lat="39.609597" lon="9.5898994"><ele>42.0</ele><time>2026-04-18T13:52:25.294Z</time></trkpt><trkpt lat="39.6098003" lon="9.5899082"><ele>43.0</ele><time>2026-04-18T13:52:26.293Z</time></trkpt><trkpt lat="39.6100092" lon="9.5899145"><ele>44.0</ele><time>2026-04-18T13:52:27.294Z</time></trkpt><trkpt lat="39.6102198" lon="9.5899106"><ele>44.0</ele><time>2026-04-18T13:52:28.294Z</time></trkpt><trkpt lat="39.6104311" lon="9.5898829"><ele>44.0</ele><time>2026-04-18T13:52:29.293Z</time></trkpt><trkpt lat="39.6106361" lon="9.5898341"><ele>44.0</ele><time>2026-04-18T13:52:30.294Z</time></trkpt><trkpt lat="39.6108326" lon="9.5897751"><ele>44.0</ele><time>2026-04-18T13:52:31.294Z</time></trkpt><trkpt lat="39.6110283" lon="9.5897133"><ele>44.0</ele><time>2026-04-18T13:52:32.294Z</time></trkpt><trkpt lat="39.6112242" lon="9.5896527"><ele>44.0</ele><time>2026-04-18T13:52:33.294Z</time></trkpt><trkpt lat="39.6114289" lon="9.5896158"><ele>44.0</ele><time>2026-04-18T13:52:34.294Z</time></trkpt><trkpt lat="39.6116399" lon="9.5896059"><ele>44.0</ele><time>2026-04-18T13:52:35.295Z</time></trkpt><trkpt lat="39.6118506" lon="9.5896298"><ele>44.0</ele><time>2026-04-18T13:52:36.293Z</time></trkpt><trkpt lat="39.6120546" lon="9.5896776"><ele>44.0</ele><time>2026-04-18T13:52:37.294Z</time></trkpt><trkpt lat="39.6122587" lon="9.5897386"><ele>44.0</ele><time>2026-04-18T13:52:38.294Z</time></trkpt><trkpt lat="39.6124603" lon="9.5898013"><ele>44.0</ele><time>2026-04-18T13:52:39.295Z</time></trkpt><trkpt lat="39.6126643" lon="9.5898604"><ele>45.33333333333333</ele><time>2026-04-18T13:52:40.295Z</time></trkpt><trkpt lat="39.6128679" lon="9.5899225"><ele>46.666666666666664</ele><time>2026-04-18T13:52:41.294Z</time></trkpt><trkpt lat="39.613074" lon="9.589983"><ele>48.0</ele><time>2026-04-18T13:52:42.293Z</time></trkpt><trkpt lat="39.6132811" lon="9.5900428"><ele>48.0</ele><time>2026-04-18T13:52:43.294Z</time></trkpt><trkpt lat="39.6134929" lon="9.5901031"><ele>48.0</ele><time>2026-04-18T13:52:44.293Z</time></trkpt><trkpt lat="39.6137017" lon="9.5901623"><ele>48.0</ele><time>2026-04-18T13:52:45.294Z</time></trkpt><trkpt lat="39.613907" lon="9.5902243"><ele>46.666666666666664</ele><time>2026-04-18T13:52:46.294Z</time></trkpt><trkpt lat="39.6141152" lon="9.5902937"><ele>45.33333333333333</ele><time>2026-04-18T13:52:47.294Z</time></trkpt><trkpt lat="39.6143228" lon="9.5903637"><ele>44.0</ele><time>2026-04-18T13:52:48.294Z</time></trkpt><trkpt lat="39.614528" lon="9.5904415"><ele>44.0</ele><time>2026-04-18T13:52:49.294Z</time></trkpt><trkpt lat="39.6147334" lon="9.5905208"><ele>44.0</ele><time>2026-04-18T13:52:50.293Z</time></trkpt><trkpt lat="39.6149283" lon="9.5905969"><ele>44.0</ele><time>2026-04-18T13:52:51.294Z</time></trkpt><trkpt lat="39.6151172" lon="9.5906652"><ele>44.0</ele><time>2026-04-18T13:52:52.293Z</time></trkpt><trkpt lat="39.6152969" lon="9.5907233"><ele>44.0</ele><time>2026-04-18T13:52:53.295Z</time></trkpt><trkpt lat="39.6154844" lon="9.5907414"><ele>44.0</ele><time>2026-04-18T13:52:54.294Z</time></trkpt><trkpt lat="39.6156899" lon="9.5907259"><ele>44.5</ele><time>2026-04-18T13:52:55.294Z</time></trkpt><trkpt lat="39.6159085" lon="9.5906817"><ele>45.0</ele><time>2026-04-18T13:52:56.295Z</time></trkpt><trkpt lat="39.6161317" lon="9.59061"><ele>44.666666666666664</ele><time>2026-04-18T13:52:57.294Z</time></trkpt><trkpt lat="39.6163413" lon="9.5905304"><ele>44.33333333333333</ele><time>2026-04-18T13:52:58.295Z</time></trkpt><trkpt lat="39.6165414" lon="9.590454"><ele>44.0</ele><time>2026-04-18T13:52:59.293Z</time></trkpt><trkpt lat="39.6167438" lon="9.5903781"><ele>47.666666666666664</ele><time>2026-04-18T13:53:00.295Z</time></trkpt><trkpt lat="39.6169505" lon="9.5903142"><ele>51.33333333333333</ele><time>2026-04-18T13:53:01.294Z</time></trkpt><trkpt lat="39.6171627" lon="9.5902725"><ele>55.0</ele><time>2026-04-18T13:53:02.294Z</time></trkpt><trkpt lat="39.6173802" lon="9.5902381"><ele>54.33333333333333</ele><time>2026-04-18T13:53:03.294Z</time></trkpt><trkpt lat="39.617596" lon="9.5901954"><ele>53.66666666666667</ele><time>2026-04-18T13:53:04.295Z</time></trkpt><trkpt lat="39.6177993" lon="9.5901563"><ele>53.0</ele><time>2026-04-18T13:53:05.294Z</time></trkpt><trkpt lat="39.6179959" lon="9.5901234"><ele>53.0</ele><time>2026-04-18T13:53:06.294Z</time></trkpt><trkpt lat="39.6181878" lon="9.5901073"><ele>53.0</ele><time>2026-04-18T13:53:07.293Z</time></trkpt><trkpt lat="39.6183803" lon="9.5901345"><ele>53.0</ele><time>2026-04-18T13:53:08.293Z</time></trkpt><trkpt lat="39.6185677" lon="9.590185"><ele>54.66666666666667</ele><time>2026-04-18T13:53:09.295Z</time></trkpt><trkpt lat="39.6187565" lon="9.5902339"><ele>56.33333333333333</ele><time>2026-04-18T13:53:10.294Z</time></trkpt><trkpt lat="39.6189477" lon="9.5902681"><ele>58.0</ele><time>2026-04-18T13:53:11.294Z</time></trkpt><trkpt lat="39.619152" lon="9.5902732"><ele>58.0</ele><time>2026-04-18T13:53:12.294Z</time></trkpt><trkpt lat="39.6193652" lon="9.5902338"><ele>58.0</ele><time>2026-04-18T13:53:13.294Z</time></trkpt><trkpt lat="39.6195658" lon="9.5901826"><ele>58.0</ele><time>2026-04-18T13:53:14.295Z</time></trkpt><trkpt lat="39.6197681" lon="9.5901214"><ele>57.0</ele><time>2026-04-18T13:53:15.294Z</time></trkpt><trkpt lat="39.619973" lon="9.5900632"><ele>56.0</ele><time>2026-04-18T13:53:16.294Z</time></trkpt><trkpt lat="39.620174" lon="9.5900163"><ele>55.0</ele><time>2026-04-18T13:53:17.295Z</time></trkpt><trkpt lat="39.6203715" lon="9.5899952"><ele>53.33333333333333</ele><time>2026-04-18T13:53:18.294Z</time></trkpt><trkpt lat="39.6205686" lon="9.5900073"><ele>51.66666666666667</ele><time>2026-04-18T13:53:19.294Z</time></trkpt><trkpt lat="39.6207649" lon="9.5900331"><ele>50.0</ele><time>2026-04-18T13:53:20.295Z</time></trkpt><trkpt lat="39.6209566" lon="9.5900953"><ele>50.0</ele><time>2026-04-18T13:53:21.294Z</time></trkpt><trkpt lat="39.621144" lon="9.5901923"><ele>50.0</ele><time>2026-04-18T13:53:22.293Z</time></trkpt><trkpt lat="39.6213242" lon="9.5903076"><ele>50.0</ele><time>2026-04-18T13:53:23.294Z</time></trkpt><trkpt lat="39.6214904" lon="9.5904106"><ele>49.66666666666667</ele><time>2026-04-18T13:53:24.293Z</time></trkpt><trkpt lat="39.6216497" lon="9.5905047"><ele>49.33333333333333</ele><time>2026-04-18T13:53:25.294Z</time></trkpt><trkpt lat="39.6218069" lon="9.5905827"><ele>49.0</ele><time>2026-04-18T13:53:26.294Z</time></trkpt><trkpt lat="39.6219665" lon="9.5906276"><ele>49.33333333333333</ele><time>2026-04-18T13:53:27.294Z</time></trkpt><trkpt lat="39.6221415" lon="9.5906263"><ele>49.66666666666667</ele><time>2026-04-18T13:53:28.293Z</time></trkpt><trkpt lat="39.6223343" lon="9.59058"><ele>50.0</ele><time>2026-04-18T13:53:29.295Z</time></trkpt><trkpt lat="39.6225331" lon="9.5905169"><ele>50.0</ele><time>2026-04-18T13:53:30.294Z</time></trkpt><trkpt lat="39.6227213" lon="9.5904487"><ele>50.0</ele><time>2026-04-18T13:53:31.294Z</time></trkpt><trkpt lat="39.6229051" lon="9.5903841"><ele>50.0</ele><time>2026-04-18T13:53:32.294Z</time></trkpt><trkpt lat="39.6230893" lon="9.5903041"><ele>50.66666666666667</ele><time>2026-04-18T13:53:33.294Z</time></trkpt><trkpt lat="39.6232744" lon="9.5901941"><ele>51.33333333333333</ele><time>2026-04-18T13:53:34.293Z</time></trkpt><trkpt lat="39.6234551" lon="9.5900619"><ele>52.0</ele><time>2026-04-18T13:53:35.293Z</time></trkpt><trkpt lat="39.6236237" lon="9.5899292"><ele>51.33333333333333</ele><time>2026-04-18T13:53:36.294Z</time></trkpt><trkpt lat="39.623798" lon="9.5897999"><ele>50.66666666666667</ele><time>2026-04-18T13:53:37.294Z</time></trkpt><trkpt lat="39.6239723" lon="9.5896638"><ele>50.0</ele><time>2026-04-18T13:53:38.294Z</time></trkpt><trkpt lat="39.6241447" lon="9.5895315"><ele>49.66666666666667</ele><time>2026-04-18T13:53:39.294Z</time></trkpt><trkpt lat="39.6243192" lon="9.5894105"><ele>49.33333333333333</ele><time>2026-04-18T13:53:40.294Z</time></trkpt><trkpt lat="39.6245013" lon="9.5893064"><ele>49.0</ele><time>2026-04-18T13:53:41.294Z</time></trkpt><trkpt lat="39.6246967" lon="9.5892076"><ele>49.0</ele><time>2026-04-18T13:53:42.294Z</time></trkpt><trkpt lat="39.6248977" lon="9.589113"><ele>49.0</ele><time>2026-04-18T13:53:43.295Z</time></trkpt><trkpt lat="39.6251061" lon="9.589025"><ele>49.0</ele><time>2026-04-18T13:53:44.294Z</time></trkpt><trkpt lat="39.6253104" lon="9.5889364"><ele>49.33333333333333</ele><time>2026-04-18T13:53:45.294Z</time></trkpt><trkpt lat="39.625511" lon="9.5888494"><ele>49.66666666666667</ele><time>2026-04-18T13:53:46.293Z</time></trkpt><trkpt lat="39.6257148" lon="9.5887608"><ele>50.0</ele><time>2026-04-18T13:53:47.295Z</time></trkpt><trkpt lat="39.6259235" lon="9.5886713"><ele>50.333333333333336</ele><time>2026-04-18T13:53:48.294Z</time></trkpt><trkpt lat="39.6261324" lon="9.5885765"><ele>50.66666666666667</ele><time>2026-04-18T13:53:49.294Z</time></trkpt><trkpt lat="39.6263348" lon="9.5884847"><ele>51.0</ele><time>2026-04-18T13:53:50.295Z</time></trkpt><trkpt lat="39.6265395" lon="9.5883983"><ele>51.0</ele><time>2026-04-18T13:53:51.294Z</time></trkpt><trkpt lat="39.6267497" lon="9.5883102"><ele>51.0</ele><time>2026-04-18T13:53:52.294Z</time></trkpt><trkpt lat="39.6269622" lon="9.5882142"><ele>51.0</ele><time>2026-04-18T13:53:53.293Z</time></trkpt><trkpt lat="39.6271722" lon="9.5881196"><ele>51.33333333333333</ele><time>2026-04-18T13:53:54.293Z</time></trkpt><trkpt lat="39.6273754" lon="9.5880313"><ele>51.666666666666664</ele><time>2026-04-18T13:53:55.295Z</time></trkpt><trkpt lat="39.6275819" lon="9.5879378"><ele>52.0</ele><time>2026-04-18T13:53:56.294Z</time></trkpt><trkpt lat="39.627783" lon="9.5878453"><ele>52.666666666666664</ele><time>2026-04-18T13:53:57.294Z</time></trkpt><trkpt lat="39.6279828" lon="9.5877622"><ele>53.33333333333333</ele><time>2026-04-18T13:53:58.293Z</time></trkpt><trkpt lat="39.6281798" lon="9.5876798"><ele>54.0</ele><time>2026-04-18T13:53:59.294Z</time></trkpt><trkpt lat="39.6283727" lon="9.5875912"><ele>54.0</ele><time>2026-04-18T13:54:00.295Z</time></trkpt><trkpt lat="39.6285657" lon="9.5875052"><ele>54.0</ele><time>2026-04-18T13:54:01.293Z</time></trkpt><trkpt lat="39.6287586" lon="9.5874176"><ele>54.0</ele><time>2026-04-18T13:54:02.293Z</time></trkpt><trkpt lat="39.6289562" lon="9.5873186"><ele>54.0</ele><time>2026-04-18T13:54:03.294Z</time></trkpt><trkpt lat="39.6291312" lon="9.5872458"><ele>54.0</ele><time>2026-04-18T13:54:04.295Z</time></trkpt><trkpt lat="39.6292871" lon="9.587179"><ele>54.0</ele><time>2026-04-18T13:54:05.294Z</time></trkpt><trkpt lat="39.6294232" lon="9.5871082"><ele>53.75</ele><time>2026-04-18T13:54:06.294Z</time></trkpt><trkpt lat="39.6295398" lon="9.5870315"><ele>53.5</ele><time>2026-04-18T13:54:07.294Z</time></trkpt><trkpt lat="39.6296381" lon="9.5869513"><ele>53.25</ele><time>2026-04-18T13:54:08.294Z</time></trkpt><trkpt lat="39.6297432" lon="9.5868832"><ele>53.0</ele><time>2026-04-18T13:54:09.293Z</time></trkpt><trkpt lat="39.629869" lon="9.5868499"><ele>55.0</ele><time>2026-04-18T13:54:10.293Z</time></trkpt><trkpt lat="39.6300168" lon="9.5868207"><ele>57.0</ele><time>2026-04-18T13:54:11.293Z</time></trkpt><trkpt lat="39.6301782" lon="9.5867973"><ele>59.0</ele><time>2026-04-18T13:54:12.294Z</time></trkpt><trkpt lat="39.6303515" lon="9.5867865"><ele>59.0</ele><time>2026-04-18T13:54:13.294Z</time></trkpt><trkpt lat="39.6305444" lon="9.5867697"><ele>59.0</ele><time>2026-04-18T13:54:14.293Z</time></trkpt><trkpt lat="39.6307468" lon="9.5867435"><ele>59.0</ele><time>2026-04-18T13:54:15.294Z</time></trkpt><trkpt lat="39.6309437" lon="9.586714"><ele>59.0</ele><time>2026-04-18T13:54:16.293Z</time></trkpt><trkpt lat="39.6311322" lon="9.5866874"><ele>59.0</ele><time>2026-04-18T13:54:17.293Z</time></trkpt><trkpt lat="39.6313162" lon="9.5866604"><ele>59.0</ele><time>2026-04-18T13:54:18.294Z</time></trkpt><trkpt lat="39.6314933" lon="9.5866293"><ele>58.0</ele><time>2026-04-18T13:54:19.295Z</time></trkpt><trkpt lat="39.6316682" lon="9.586586"><ele>57.0</ele><time>2026-04-18T13:54:20.295Z</time></trkpt><trkpt lat="39.6318448" lon="9.5865057"><ele>56.0</ele><time>2026-04-18T13:54:21.294Z</time></trkpt><trkpt lat="39.6320229" lon="9.5863883"><ele>55.66666666666667</ele><time>2026-04-18T13:54:22.295Z</time></trkpt><trkpt lat="39.6321919" lon="9.5862632"><ele>55.33333333333333</ele><time>2026-04-18T13:54:23.294Z</time></trkpt><trkpt lat="39.6323574" lon="9.5861289"><ele>55.0</ele><time>2026-04-18T13:54:24.294Z</time></trkpt><trkpt lat="39.6325218" lon="9.585992"><ele>55.0</ele><time>2026-04-18T13:54:25.294Z</time></trkpt><trkpt lat="39.6326907" lon="9.5858572"><ele>55.0</ele><time>2026-04-18T13:54:26.293Z</time></trkpt><trkpt lat="39.6328582" lon="9.5857241"><ele>55.0</ele><time>2026-04-18T13:54:27.294Z</time></trkpt><trkpt lat="39.6330241" lon="9.5855906"><ele>55.0</ele><time>2026-04-18T13:54:28.294Z</time></trkpt><trkpt lat="39.6331946" lon="9.585459"><ele>55.0</ele><time>2026-04-18T13:54:29.295Z</time></trkpt><trkpt lat="39.6333774" lon="9.5853449"><ele>55.0</ele><time>2026-04-18T13:54:30.294Z</time></trkpt><trkpt lat="39.6335669" lon="9.5852418"><ele>56.33333333333333</ele><time>2026-04-18T13:54:31.294Z</time></trkpt><trkpt lat="39.6337617" lon="9.5851371"><ele>57.66666666666667</ele><time>2026-04-18T13:54:32.293Z</time></trkpt><trkpt lat="39.6339609" lon="9.5850328"><ele>59.0</ele><time>2026-04-18T13:54:33.295Z</time></trkpt><trkpt lat="39.634167" lon="9.5849288"><ele>59.0</ele><time>2026-04-18T13:54:34.294Z</time></trkpt><trkpt lat="39.6343761" lon="9.5848224"><ele>59.0</ele><time>2026-04-18T13:54:35.295Z</time></trkpt><trkpt lat="39.6345852" lon="9.5847137"><ele>57.66666666666667</ele><time>2026-04-18T13:54:36.294Z</time></trkpt><trkpt lat="39.6347843" lon="9.5846137"><ele>56.33333333333333</ele><time>2026-04-18T13:54:37.294Z</time></trkpt><trkpt lat="39.6349827" lon="9.5845162"><ele>55.0</ele><time>2026-04-18T13:54:38.294Z</time></trkpt><trkpt lat="39.6351802" lon="9.5844148"><ele>56.33333333333333</ele><time>2026-04-18T13:54:39.293Z</time></trkpt><trkpt lat="39.6353721" lon="9.5843082"><ele>57.66666666666667</ele><time>2026-04-18T13:54:40.295Z</time></trkpt><trkpt lat="39.6355636" lon="9.5841861"><ele>59.0</ele><time>2026-04-18T13:54:41.294Z</time></trkpt><trkpt lat="39.6357523" lon="9.5840409"><ele>59.0</ele><time>2026-04-18T13:54:42.294Z</time></trkpt><trkpt lat="39.6359391" lon="9.5838835"><ele>59.0</ele><time>2026-04-18T13:54:43.294Z</time></trkpt><trkpt lat="39.6361208" lon="9.5837234"><ele>59.0</ele><time>2026-04-18T13:54:44.293Z</time></trkpt><trkpt lat="39.6362982" lon="9.5835615"><ele>59.66666666666667</ele><time>2026-04-18T13:54:45.294Z</time></trkpt><trkpt lat="39.6364742" lon="9.5834024"><ele>60.33333333333333</ele><time>2026-04-18T13:54:46.295Z</time></trkpt><trkpt lat="39.6366445" lon="9.583242"><ele>61.0</ele><time>2026-04-18T13:54:47.294Z</time></trkpt><trkpt lat="39.6368188" lon="9.5830774"><ele>61.33333333333333</ele><time>2026-04-18T13:54:48.294Z</time></trkpt><trkpt lat="39.6369882" lon="9.5829161"><ele>61.66666666666667</ele><time>2026-04-18T13:54:49.294Z</time></trkpt><trkpt lat="39.6371599" lon="9.5827493"><ele>62.0</ele><time>2026-04-18T13:54:50.294Z</time></trkpt><trkpt lat="39.6373407" lon="9.5825762"><ele>62.0</ele><time>2026-04-18T13:54:51.295Z</time></trkpt><trkpt lat="39.6375128" lon="9.5824105"><ele>62.0</ele><time>2026-04-18T13:54:52.295Z</time></trkpt><trkpt lat="39.6376787" lon="9.5822497"><ele>62.0</ele><time>2026-04-18T13:54:53.293Z</time></trkpt><trkpt lat="39.6378333" lon="9.5820952"><ele>62.66666666666667</ele><time>2026-04-18T13:54:54.293Z</time></trkpt><trkpt lat="39.6379815" lon="9.5819444"><ele>63.33333333333333</ele><time>2026-04-18T13:54:55.295Z</time></trkpt><trkpt lat="39.6381395" lon="9.5817954"><ele>64.0</ele><time>2026-04-18T13:54:56.294Z</time></trkpt><trkpt lat="39.6383" lon="9.5816403"><ele>64.0</ele><time>2026-04-18T13:54:57.294Z</time></trkpt><trkpt lat="39.6384644" lon="9.581487"><ele>64.0</ele><time>2026-04-18T13:54:58.294Z</time></trkpt><trkpt lat="39.6386355" lon="9.581345"><ele>64.0</ele><time>2026-04-18T13:54:59.295Z</time></trkpt><trkpt lat="39.6388119" lon="9.5812112"><ele>65.0</ele><time>2026-04-18T13:55:00.294Z</time></trkpt><trkpt lat="39.6389938" lon="9.5810812"><ele>66.0</ele><time>2026-04-18T13:55:01.294Z</time></trkpt><trkpt lat="39.639172" lon="9.580953"><ele>67.0</ele><time>2026-04-18T13:55:02.294Z</time></trkpt><trkpt lat="39.6393402" lon="9.5808344"><ele>66.0</ele><time>2026-04-18T13:55:03.294Z</time></trkpt><trkpt lat="39.6395074" lon="9.5807295"><ele>65.0</ele><time>2026-04-18T13:55:04.294Z</time></trkpt><trkpt lat="39.6396712" lon="9.5806478"><ele>64.0</ele><time>2026-04-18T13:55:05.295Z</time></trkpt><trkpt lat="39.6398635" lon="9.5805997"><ele>64.0</ele><time>2026-04-18T13:55:06.294Z</time></trkpt><trkpt lat="39.6400725" lon="9.5805814"><ele>64.0</ele><time>2026-04-18T13:55:07.294Z</time></trkpt><trkpt lat="39.6402892" lon="9.5805859"><ele>64.0</ele><time>2026-04-18T13:55:08.294Z</time></trkpt><trkpt lat="39.6405143" lon="9.5806071"><ele>64.5</ele><time>2026-04-18T13:55:09.295Z</time></trkpt><trkpt lat="39.6407396" lon="9.5806445"><ele>65.0</ele><time>2026-04-18T13:55:10.294Z</time></trkpt><trkpt lat="39.6409641" lon="9.5806847"><ele>66.0</ele><time>2026-04-18T13:55:11.294Z</time></trkpt><trkpt lat="39.6411741" lon="9.5807265"><ele>67.0</ele><time>2026-04-18T13:55:12.294Z</time></trkpt><trkpt lat="39.641382" lon="9.5807604"><ele>68.0</ele><time>2026-04-18T13:55:13.295Z</time></trkpt><trkpt lat="39.6415827" lon="9.580792"><ele>68.0</ele><time>2026-04-18T13:55:14.294Z</time></trkpt><trkpt lat="39.6417664" lon="9.5808254"><ele>68.0</ele><time>2026-04-18T13:55:15.294Z</time></trkpt><trkpt lat="39.64194" lon="9.580858"><ele>68.0</ele><time>2026-04-18T13:55:16.294Z</time></trkpt><trkpt lat="39.6420907" lon="9.5809655"><ele>69.33333333333334</ele><time>2026-04-18T13:55:17.294Z</time></trkpt><trkpt lat="39.6422496" lon="9.5810861"><ele>70.66666666666667</ele><time>2026-04-18T13:55:18.293Z</time></trkpt><trkpt lat="39.6423992" lon="9.5812216"><ele>72.0</ele><time>2026-04-18T13:55:19.295Z</time></trkpt><trkpt lat="39.6425749" lon="9.5813458"><ele>70.0</ele><time>2026-04-18T13:55:20.294Z</time></trkpt><trkpt lat="39.6427605" lon="9.5814434"><ele>68.0</ele><time>2026-04-18T13:55:21.295Z</time></trkpt><trkpt lat="39.6429512" lon="9.5815336"><ele>66.0</ele><time>2026-04-18T13:55:22.294Z</time></trkpt><trkpt lat="39.6431477" lon="9.5816253"><ele>66.0</ele><time>2026-04-18T13:55:23.294Z</time></trkpt><trkpt lat="39.643339" lon="9.5816986"><ele>66.0</ele><time>2026-04-18T13:55:24.294Z</time></trkpt><trkpt lat="39.6435429" lon="9.5817476"><ele>66.0</ele><time>2026-04-18T13:55:25.293Z</time></trkpt><trkpt lat="39.6437566" lon="9.581765"><ele>68.0</ele><time>2026-04-18T13:55:26.293Z</time></trkpt><trkpt lat="39.6439707" lon="9.5817718"><ele>70.0</ele><time>2026-04-18T13:55:27.294Z</time></trkpt><trkpt lat="39.6441945" lon="9.5817578"><ele>72.0</ele><time>2026-04-18T13:55:28.294Z</time></trkpt><trkpt lat="39.6444204" lon="9.5817153"><ele>69.5</ele><time>2026-04-18T13:55:29.294Z</time></trkpt><trkpt lat="39.6446487" lon="9.5816683"><ele>67.0</ele><time>2026-04-18T13:55:30.294Z</time></trkpt><trkpt lat="39.6448803" lon="9.5816238"><ele>67.0</ele><time>2026-04-18T13:55:31.293Z</time></trkpt><trkpt lat="39.6451011" lon="9.5815815"><ele>67.0</ele><time>2026-04-18T13:55:32.293Z</time></trkpt><trkpt lat="39.6453214" lon="9.5815447"><ele>67.0</ele><time>2026-04-18T13:55:33.295Z</time></trkpt><trkpt lat="39.6455378" lon="9.5815051"><ele>66.0</ele><time>2026-04-18T13:55:34.294Z</time></trkpt><trkpt lat="39.6457521" lon="9.5814666"><ele>65.0</ele><time>2026-04-18T13:55:35.293Z</time></trkpt><trkpt lat="39.6459658" lon="9.5814258"><ele>64.0</ele><time>2026-04-18T13:55:36.293Z</time></trkpt><trkpt lat="39.6461784" lon="9.5813814"><ele>64.0</ele><time>2026-04-18T13:55:37.294Z</time></trkpt><trkpt lat="39.6463933" lon="9.5813316"><ele>64.0</ele><time>2026-04-18T13:55:38.294Z</time></trkpt><trkpt lat="39.646604" lon="9.5812788"><ele>64.0</ele><time>2026-04-18T13:55:39.294Z</time></trkpt><trkpt lat="39.6468146" lon="9.5812131"><ele>66.66666666666666</ele><time>2026-04-18T13:55:40.294Z</time></trkpt><trkpt lat="39.6470253" lon="9.5811428"><ele>69.33333333333333</ele><time>2026-04-18T13:55:41.293Z</time></trkpt><trkpt lat="39.6472381" lon="9.5810716"><ele>72.0</ele><time>2026-04-18T13:55:42.293Z</time></trkpt><trkpt lat="39.6474529" lon="9.5810055"><ele>72.0</ele><time>2026-04-18T13:55:43.293Z</time></trkpt><trkpt lat="39.6476639" lon="9.5809444"><ele>72.0</ele><time>2026-04-18T13:55:44.294Z</time></trkpt><trkpt lat="39.6478635" lon="9.5808822"><ele>72.0</ele><time>2026-04-18T13:55:45.294Z</time></trkpt><trkpt lat="39.6480562" lon="9.5808219"><ele>71.33333333333333</ele><time>2026-04-18T13:55:46.295Z</time></trkpt><trkpt lat="39.6482364" lon="9.5807549"><ele>70.66666666666666</ele><time>2026-04-18T13:55:47.294Z</time></trkpt><trkpt lat="39.6484086" lon="9.5806628"><ele>70.0</ele><time>2026-04-18T13:55:48.294Z</time></trkpt><trkpt lat="39.6485673" lon="9.5805276"><ele>69.33333333333333</ele><time>2026-04-18T13:55:49.293Z</time></trkpt><trkpt lat="39.6487272" lon="9.5803559"><ele>68.66666666666667</ele><time>2026-04-18T13:55:50.294Z</time></trkpt><trkpt lat="39.6488882" lon="9.5801687"><ele>68.0</ele><time>2026-04-18T13:55:51.294Z</time></trkpt><trkpt lat="39.6490591" lon="9.579992"><ele>68.33333333333334</ele><time>2026-04-18T13:55:52.294Z</time></trkpt><trkpt lat="39.6492324" lon="9.5798463"><ele>68.66666666666667</ele><time>2026-04-18T13:55:53.294Z</time></trkpt><trkpt lat="39.6494136" lon="9.5797314"><ele>69.0</ele><time>2026-04-18T13:55:54.295Z</time></trkpt><trkpt lat="39.6496031" lon="9.5796453"><ele>69.0</ele><time>2026-04-18T13:55:55.295Z</time></trkpt><trkpt lat="39.6498136" lon="9.5795936"><ele>69.0</ele><time>2026-04-18T13:55:56.294Z</time></trkpt><trkpt lat="39.6500373" lon="9.5795716"><ele>69.0</ele><time>2026-04-18T13:55:57.293Z</time></trkpt><trkpt lat="39.6502745" lon="9.5795657"><ele>68.5</ele><time>2026-04-18T13:55:58.294Z</time></trkpt><trkpt lat="39.6504987" lon="9.5795722"><ele>68.0</ele><time>2026-04-18T13:55:59.294Z</time></trkpt><trkpt lat="39.6507311" lon="9.5795859"><ele>68.0</ele><time>2026-04-18T13:56:00.294Z</time></trkpt><trkpt lat="39.6509599" lon="9.5795956"><ele>68.0</ele><time>2026-04-18T13:56:01.294Z</time></trkpt><trkpt lat="39.6511888" lon="9.5796069"><ele>68.5</ele><time>2026-04-18T13:56:02.294Z</time></trkpt><trkpt lat="39.6514218" lon="9.5796202"><ele>69.0</ele><time>2026-04-18T13:56:03.294Z</time></trkpt><trkpt lat="39.651642" lon="9.5796321"><ele>69.0</ele><time>2026-04-18T13:56:04.294Z</time></trkpt><trkpt lat="39.6518598" lon="9.5796442"><ele>69.0</ele><time>2026-04-18T13:56:05.294Z</time></trkpt><trkpt lat="39.652074" lon="9.5796553"><ele>69.0</ele><time>2026-04-18T13:56:06.294Z</time></trkpt><trkpt lat="39.6522881" lon="9.5796651"><ele>69.33333333333333</ele><time>2026-04-18T13:56:07.293Z</time></trkpt><trkpt lat="39.6524999" lon="9.5796826"><ele>69.66666666666666</ele><time>2026-04-18T13:56:08.294Z</time></trkpt><trkpt lat="39.6526935" lon="9.5796917"><ele>70.0</ele><time>2026-04-18T13:56:09.295Z</time></trkpt><trkpt lat="39.6528818" lon="9.5796832"><ele>70.0</ele><time>2026-04-18T13:56:10.294Z</time></trkpt><trkpt lat="39.6530734" lon="9.5796197"><ele>70.0</ele><time>2026-04-18T13:56:11.294Z</time></trkpt><trkpt lat="39.6532593" lon="9.5795298"><ele>70.0</ele><time>2026-04-18T13:56:12.294Z</time></trkpt><trkpt lat="39.6534344" lon="9.5794498"><ele>72.0</ele><time>2026-04-18T13:56:13.294Z</time></trkpt><trkpt lat="39.6536062" lon="9.5793765"><ele>74.0</ele><time>2026-04-18T13:56:14.293Z</time></trkpt><trkpt lat="39.6537796" lon="9.5793319"><ele>76.0</ele><time>2026-04-18T13:56:15.295Z</time></trkpt><trkpt lat="39.6539579" lon="9.5793382"><ele>76.0</ele><time>2026-04-18T13:56:16.295Z</time></trkpt><trkpt lat="39.6541351" lon="9.5793725"><ele>76.0</ele><time>2026-04-18T13:56:17.295Z</time></trkpt><trkpt lat="39.6543178" lon="9.5793756"><ele>76.0</ele><time>2026-04-18T13:56:18.294Z</time></trkpt><trkpt lat="39.6545104" lon="9.5793437"><ele>75.66666666666666</ele><time>2026-04-18T13:56:19.294Z</time></trkpt><trkpt lat="39.654698" lon="9.5793184"><ele>75.33333333333333</ele><time>2026-04-18T13:56:20.294Z</time></trkpt><trkpt lat="39.6548696" lon="9.579328"><ele>75.0</ele><time>2026-04-18T13:56:21.294Z</time></trkpt><trkpt lat="39.6550351" lon="9.5793503"><ele>75.0</ele><time>2026-04-18T13:56:22.293Z</time></trkpt><trkpt lat="39.6552052" lon="9.5793543"><ele>75.0</ele><time>2026-04-18T13:56:23.294Z</time></trkpt><trkpt lat="39.6553857" lon="9.5793158"><ele>75.0</ele><time>2026-04-18T13:56:24.294Z</time></trkpt><trkpt lat="39.6555769" lon="9.5792488"><ele>75.33333333333333</ele><time>2026-04-18T13:56:25.294Z</time></trkpt><trkpt lat="39.6557788" lon="9.5791622"><ele>75.66666666666666</ele><time>2026-04-18T13:56:26.294Z</time></trkpt><trkpt lat="39.655968" lon="9.5790688"><ele>76.0</ele><time>2026-04-18T13:56:27.294Z</time></trkpt><trkpt lat="39.6561541" lon="9.5789645"><ele>75.0</ele><time>2026-04-18T13:56:28.294Z</time></trkpt><trkpt lat="39.6563314" lon="9.5788752"><ele>74.0</ele><time>2026-04-18T13:56:29.294Z</time></trkpt><trkpt lat="39.6565066" lon="9.5788048"><ele>73.0</ele><time>2026-04-18T13:56:30.293Z</time></trkpt><trkpt lat="39.6566894" lon="9.5787862"><ele>73.0</ele><time>2026-04-18T13:56:31.293Z</time></trkpt><trkpt lat="39.6568766" lon="9.5788164"><ele>73.0</ele><time>2026-04-18T13:56:32.294Z</time></trkpt><trkpt lat="39.657071" lon="9.5788846"><ele>73.0</ele><time>2026-04-18T13:56:33.293Z</time></trkpt><trkpt lat="39.6572782" lon="9.5789608"><ele>74.0</ele><time>2026-04-18T13:56:34.294Z</time></trkpt><trkpt lat="39.6574862" lon="9.5790376"><ele>75.0</ele><time>2026-04-18T13:56:35.294Z</time></trkpt><trkpt lat="39.6576797" lon="9.5791056"><ele>76.0</ele><time>2026-04-18T13:56:36.294Z</time></trkpt><trkpt lat="39.6578717" lon="9.5791607"><ele>77.0</ele><time>2026-04-18T13:56:37.294Z</time></trkpt><trkpt lat="39.658069" lon="9.5791915"><ele>78.0</ele><time>2026-04-18T13:56:38.294Z</time></trkpt><trkpt lat="39.6582728" lon="9.5791856"><ele>79.0</ele><time>2026-04-18T13:56:39.294Z</time></trkpt><trkpt lat="39.6584867" lon="9.5791408"><ele>77.5</ele><time>2026-04-18T13:56:40.295Z</time></trkpt><trkpt lat="39.6587071" lon="9.5790676"><ele>76.0</ele><time>2026-04-18T13:56:41.295Z</time></trkpt><trkpt lat="39.6589286" lon="9.5789916"><ele>76.0</ele><time>2026-04-18T13:56:42.294Z</time></trkpt><trkpt lat="39.6591388" lon="9.5789198"><ele>76.0</ele><time>2026-04-18T13:56:43.294Z</time></trkpt><trkpt lat="39.6593416" lon="9.5788492"><ele>76.0</ele><time>2026-04-18T13:56:44.294Z</time></trkpt><trkpt lat="39.6595451" lon="9.5787805"><ele>75.66666666666666</ele><time>2026-04-18T13:56:45.294Z</time></trkpt><trkpt lat="39.6597405" lon="9.5787116"><ele>75.33333333333333</ele><time>2026-04-18T13:56:46.294Z</time></trkpt><trkpt lat="39.6599366" lon="9.5786384"><ele>75.0</ele><time>2026-04-18T13:56:47.295Z</time></trkpt><trkpt lat="39.6601418" lon="9.5785813"><ele>77.33333333333333</ele><time>2026-04-18T13:56:48.294Z</time></trkpt><trkpt lat="39.6603572" lon="9.5785517"><ele>79.66666666666666</ele><time>2026-04-18T13:56:49.294Z</time></trkpt><trkpt lat="39.6605778" lon="9.5785525"><ele>82.0</ele><time>2026-04-18T13:56:50.294Z</time></trkpt><trkpt lat="39.6608004" lon="9.5785657"><ele>82.0</ele><time>2026-04-18T13:56:51.294Z</time></trkpt><trkpt lat="39.6610186" lon="9.5785751"><ele>82.0</ele><time>2026-04-18T13:56:52.294Z</time></trkpt><trkpt lat="39.6612366" lon="9.5785871"><ele>82.0</ele><time>2026-04-18T13:56:53.294Z</time></trkpt><trkpt lat="39.6614514" lon="9.5785965"><ele>81.66666666666666</ele><time>2026-04-18T13:56:54.293Z</time></trkpt><trkpt lat="39.6616612" lon="9.5786101"><ele>81.33333333333333</ele><time>2026-04-18T13:56:55.295Z</time></trkpt><trkpt lat="39.6618722" lon="9.5786226"><ele>81.0</ele><time>2026-04-18T13:56:56.295Z</time></trkpt><trkpt lat="39.6620859" lon="9.5786374"><ele>81.0</ele><time>2026-04-18T13:56:57.294Z</time></trkpt><trkpt lat="39.6622994" lon="9.5786501"><ele>81.0</ele><time>2026-04-18T13:56:58.294Z</time></trkpt><trkpt lat="39.6625146" lon="9.5786653"><ele>81.0</ele><time>2026-04-18T13:56:59.293Z</time></trkpt><trkpt lat="39.6627323" lon="9.5786775"><ele>81.0</ele><time>2026-04-18T13:57:00.294Z</time></trkpt><trkpt lat="39.6629444" lon="9.5786878"><ele>81.0</ele><time>2026-04-18T13:57:01.295Z</time></trkpt><trkpt lat="39.6631508" lon="9.5787017"><ele>81.0</ele><time>2026-04-18T13:57:02.293Z</time></trkpt><trkpt lat="39.6633471" lon="9.5787116"><ele>81.0</ele><time>2026-04-18T13:57:03.294Z</time></trkpt><trkpt lat="39.6635375" lon="9.5787437"><ele>81.0</ele><time>2026-04-18T13:57:04.293Z</time></trkpt><trkpt lat="39.6637185" lon="9.5788111"><ele>81.0</ele><time>2026-04-18T13:57:05.294Z</time></trkpt><trkpt lat="39.6638755" lon="9.5788905"><ele>81.66666666666667</ele><time>2026-04-18T13:57:06.294Z</time></trkpt><trkpt lat="39.6640199" lon="9.5789676"><ele>82.33333333333334</ele><time>2026-04-18T13:57:07.293Z</time></trkpt><trkpt lat="39.6641783" lon="9.579007"><ele>83.0</ele><time>2026-04-18T13:57:08.293Z</time></trkpt><trkpt lat="39.664349" lon="9.579004"><ele>83.0</ele><time>2026-04-18T13:57:09.293Z</time></trkpt><trkpt lat="39.6645265" lon="9.5789608"><ele>83.0</ele><time>2026-04-18T13:57:10.293Z</time></trkpt><trkpt lat="39.6647091" lon="9.5789082"><ele>83.0</ele><time>2026-04-18T13:57:11.293Z</time></trkpt><trkpt lat="39.6648823" lon="9.5788644"><ele>83.0</ele><time>2026-04-18T13:57:12.293Z</time></trkpt><trkpt lat="39.6650512" lon="9.5788191"><ele>83.0</ele><time>2026-04-18T13:57:13.294Z</time></trkpt><trkpt lat="39.6652139" lon="9.578749"><ele>83.0</ele><time>2026-04-18T13:57:14.293Z</time></trkpt><trkpt lat="39.6653869" lon="9.5786289"><ele>84.33333333333334</ele><time>2026-04-18T13:57:15.293Z</time></trkpt><trkpt lat="39.6655599" lon="9.578483"><ele>85.66666666666667</ele><time>2026-04-18T13:57:16.293Z</time></trkpt><trkpt lat="39.6657171" lon="9.578344"><ele>87.0</ele><time>2026-04-18T13:57:17.293Z</time></trkpt><trkpt lat="39.6658825" lon="9.5782182"><ele>87.0</ele><time>2026-04-18T13:57:18.292Z</time></trkpt><trkpt lat="39.6660441" lon="9.5781117"><ele>87.0</ele><time>2026-04-18T13:57:19.292Z</time></trkpt><trkpt lat="39.6662125" lon="9.5780329"><ele>87.0</ele><time>2026-04-18T13:57:20.293Z</time></trkpt><trkpt lat="39.6663928" lon="9.5779959"><ele>87.0</ele><time>2026-04-18T13:57:21.293Z</time></trkpt><trkpt lat="39.666589" lon="9.5780026"><ele>87.0</ele><time>2026-04-18T13:57:22.292Z</time></trkpt><trkpt lat="39.6667931" lon="9.5780315"><ele>87.0</ele><time>2026-04-18T13:57:23.292Z</time></trkpt><trkpt lat="39.6669983" lon="9.5780632"><ele>87.33333333333333</ele><time>2026-04-18T13:57:24.292Z</time></trkpt><trkpt lat="39.667187" lon="9.5780929"><ele>87.66666666666666</ele><time>2026-04-18T13:57:25.293Z</time></trkpt><trkpt lat="39.6673564" lon="9.5781172"><ele>88.0</ele><time>2026-04-18T13:57:26.293Z</time></trkpt><trkpt lat="39.6675023" lon="9.5781371"><ele>88.0</ele><time>2026-04-18T13:57:27.293Z</time></trkpt><trkpt lat="39.667624" lon="9.5781281"><ele>88.0</ele><time>2026-04-18T13:57:28.293Z</time></trkpt><trkpt lat="39.6677373" lon="9.5780648"><ele>88.0</ele><time>2026-04-18T13:57:29.293Z</time></trkpt><trkpt lat="39.6678211" lon="9.5779519"><ele>88.0</ele><time>2026-04-18T13:57:30.293Z</time></trkpt><trkpt lat="39.6678627" lon="9.5777877"><ele>88.25</ele><time>2026-04-18T13:57:31.293Z</time></trkpt><trkpt lat="39.6678889" lon="9.5776001"><ele>88.5</ele><time>2026-04-18T13:57:32.292Z</time></trkpt><trkpt lat="39.6679079" lon="9.5774198"><ele>88.75</ele><time>2026-04-18T13:57:33.293Z</time></trkpt><trkpt lat="39.6679335" lon="9.5772536"><ele>89.0</ele><time>2026-04-18T13:57:34.293Z</time></trkpt><trkpt lat="39.6679879" lon="9.5771139"><ele>91.0</ele><time>2026-04-18T13:57:35.294Z</time></trkpt><trkpt lat="39.6680741" lon="9.5770123"><ele>93.0</ele><time>2026-04-18T13:57:36.293Z</time></trkpt><trkpt lat="39.6681943" lon="9.5769462"><ele>95.0</ele><time>2026-04-18T13:57:37.294Z</time></trkpt><trkpt lat="39.6683438" lon="9.576927"><ele>97.0</ele><time>2026-04-18T13:57:38.294Z</time></trkpt><trkpt lat="39.6685132" lon="9.57693"><ele>97.66666666666667</ele><time>2026-04-18T13:57:39.294Z</time></trkpt><trkpt lat="39.6687005" lon="9.5769431"><ele>98.33333333333334</ele><time>2026-04-18T13:57:40.292Z</time></trkpt><trkpt lat="39.6688986" lon="9.5769724"><ele>99.0</ele><time>2026-04-18T13:57:41.292Z</time></trkpt><trkpt lat="39.6690978" lon="9.5770129"><ele>97.66666666666667</ele><time>2026-04-18T13:57:42.293Z</time></trkpt><trkpt lat="39.6692939" lon="9.5770617"><ele>96.33333333333334</ele><time>2026-04-18T13:57:43.294Z</time></trkpt><trkpt lat="39.6695018" lon="9.5771099"><ele>95.0</ele><time>2026-04-18T13:57:44.293Z</time></trkpt><trkpt lat="39.6697119" lon="9.5771552"><ele>95.0</ele><time>2026-04-18T13:57:45.292Z</time></trkpt><trkpt lat="39.6699176" lon="9.5772072"><ele>95.0</ele><time>2026-04-18T13:57:46.292Z</time></trkpt><trkpt lat="39.6701203" lon="9.5772567"><ele>95.0</ele><time>2026-04-18T13:57:47.293Z</time></trkpt><trkpt lat="39.6703168" lon="9.5773068"><ele>96.0</ele><time>2026-04-18T13:57:48.293Z</time></trkpt><trkpt lat="39.6705121" lon="9.5773559"><ele>97.0</ele><time>2026-04-18T13:57:49.292Z</time></trkpt><trkpt lat="39.6707025" lon="9.5774057"><ele>98.0</ele><time>2026-04-18T13:57:50.293Z</time></trkpt><trkpt lat="39.6708925" lon="9.5774482"><ele>98.0</ele><time>2026-04-18T13:57:51.294Z</time></trkpt><trkpt lat="39.6710869" lon="9.5774719"><ele>98.0</ele><time>2026-04-18T13:57:52.293Z</time></trkpt><trkpt lat="39.6712815" lon="9.5774741"><ele>98.0</ele><time>2026-04-18T13:57:53.293Z</time></trkpt><trkpt lat="39.6714863" lon="9.5774662"><ele>97.66666666666666</ele><time>2026-04-18T13:57:54.292Z</time></trkpt><trkpt lat="39.6716943" lon="9.5774473"><ele>97.33333333333334</ele><time>2026-04-18T13:57:55.293Z</time></trkpt><trkpt lat="39.6718921" lon="9.5774297"><ele>97.0</ele><time>2026-04-18T13:57:56.293Z</time></trkpt><trkpt lat="39.6720864" lon="9.5774052"><ele>96.0</ele><time>2026-04-18T13:57:57.293Z</time></trkpt><trkpt lat="39.67228" lon="9.5773797"><ele>95.0</ele><time>2026-04-18T13:57:58.293Z</time></trkpt><trkpt lat="39.6724674" lon="9.5773572"><ele>94.0</ele><time>2026-04-18T13:57:59.294Z</time></trkpt><trkpt lat="39.6726571" lon="9.5773406"><ele>93.33333333333333</ele><time>2026-04-18T13:58:00.294Z</time></trkpt><trkpt lat="39.6728509" lon="9.5773352"><ele>92.66666666666667</ele><time>2026-04-18T13:58:01.293Z</time></trkpt><trkpt lat="39.6730454" lon="9.5773463"><ele>92.0</ele><time>2026-04-18T13:58:02.293Z</time></trkpt><trkpt lat="39.6732418" lon="9.5773848"><ele>92.0</ele><time>2026-04-18T13:58:03.294Z</time></trkpt><trkpt lat="39.6734405" lon="9.5774418"><ele>92.0</ele><time>2026-04-18T13:58:04.293Z</time></trkpt><trkpt lat="39.6736351" lon="9.5775132"><ele>92.0</ele><time>2026-04-18T13:58:05.293Z</time></trkpt><trkpt lat="39.6738198" lon="9.5776007"><ele>92.0</ele><time>2026-04-18T13:58:06.293Z</time></trkpt><trkpt lat="39.6739931" lon="9.5777125"><ele>92.0</ele><time>2026-04-18T13:58:07.293Z</time></trkpt><trkpt lat="39.6741491" lon="9.5778402"><ele>92.0</ele><time>2026-04-18T13:58:08.293Z</time></trkpt><trkpt lat="39.6742998" lon="9.5779809"><ele>92.0</ele><time>2026-04-18T13:58:09.292Z</time></trkpt><trkpt lat="39.6744316" lon="9.5781312"><ele>92.0</ele><time>2026-04-18T13:58:10.293Z</time></trkpt><trkpt lat="39.6745513" lon="9.5782786"><ele>92.0</ele><time>2026-04-18T13:58:11.293Z</time></trkpt><trkpt lat="39.6746732" lon="9.5784122"><ele>93.33333333333334</ele><time>2026-04-18T13:58:12.292Z</time></trkpt><trkpt lat="39.6748058" lon="9.5785192"><ele>94.66666666666667</ele><time>2026-04-18T13:58:13.293Z</time></trkpt><trkpt lat="39.6749575" lon="9.5785935"><ele>96.0</ele><time>2026-04-18T13:58:14.294Z</time></trkpt><trkpt lat="39.6751161" lon="9.5786199"><ele>96.66666666666666</ele><time>2026-04-18T13:58:15.293Z</time></trkpt><trkpt lat="39.675275" lon="9.5785998"><ele>97.33333333333333</ele><time>2026-04-18T13:58:16.293Z</time></trkpt><trkpt lat="39.6754384" lon="9.5785383"><ele>98.0</ele><time>2026-04-18T13:58:17.293Z</time></trkpt><trkpt lat="39.6756042" lon="9.5784471"><ele>98.0</ele><time>2026-04-18T13:58:18.292Z</time></trkpt><trkpt lat="39.6757662" lon="9.5783474"><ele>98.0</ele><time>2026-04-18T13:58:19.293Z</time></trkpt><trkpt lat="39.6759258" lon="9.5782451"><ele>98.0</ele><time>2026-04-18T13:58:20.292Z</time></trkpt><trkpt lat="39.6760946" lon="9.5781564"><ele>98.66666666666666</ele><time>2026-04-18T13:58:21.293Z</time></trkpt><trkpt lat="39.6762734" lon="9.5781008"><ele>99.33333333333334</ele><time>2026-04-18T13:58:22.293Z</time></trkpt><trkpt lat="39.6764582" lon="9.5780801"><ele>100.0</ele><time>2026-04-18T13:58:23.294Z</time></trkpt><trkpt lat="39.6766401" lon="9.5780808"><ele>100.0</ele><time>2026-04-18T13:58:24.293Z</time></trkpt><trkpt lat="39.6768091" lon="9.5780832"><ele>100.0</ele><time>2026-04-18T13:58:25.294Z</time></trkpt><trkpt lat="39.6769509" lon="9.5780903"><ele>100.0</ele><time>2026-04-18T13:58:26.292Z</time></trkpt><trkpt lat="39.6770659" lon="9.5780988"><ele>100.0</ele><time>2026-04-18T13:58:27.293Z</time></trkpt><trkpt lat="39.6771539" lon="9.5781104"><ele>100.16666666666667</ele><time>2026-04-18T13:58:28.294Z</time></trkpt><trkpt lat="39.6772542" lon="9.578126"><ele>100.33333333333334</ele><time>2026-04-18T13:58:30.294Z</time></trkpt><trkpt lat="39.677306" lon="9.5781783"><ele>100.5</ele><time>2026-04-18T13:58:33.292Z</time></trkpt><trkpt lat="39.6773115" lon="9.5782837"><ele>100.66666666666666</ele><time>2026-04-18T13:58:37.293Z</time></trkpt><trkpt lat="39.6773098" lon="9.5783944"><ele>100.83333333333333</ele><time>2026-04-18T13:58:40.293Z</time></trkpt><trkpt lat="39.6773076" lon="9.5784815"><ele>101.0</ele><time>2026-04-18T13:58:41.294Z</time></trkpt><trkpt lat="39.6772906" lon="9.5786086"><ele>100.19999999999999</ele><time>2026-04-18T13:58:42.293Z</time></trkpt><trkpt lat="39.6772348" lon="9.5787212"><ele>99.39999999999999</ele><time>2026-04-18T13:58:43.294Z</time></trkpt><trkpt lat="39.6771639" lon="9.5788181"><ele>98.6</ele><time>2026-04-18T13:58:44.293Z</time></trkpt><trkpt lat="39.6770848" lon="9.5789005"><ele>97.8</ele><time>2026-04-18T13:58:45.293Z</time></trkpt><trkpt lat="39.6770037" lon="9.5789712"><ele>97.0</ele><time>2026-04-18T13:58:46.293Z</time></trkpt><trkpt lat="39.6769266" lon="9.5790263"><ele>97.00000000000001</ele><time>2026-04-18T13:58:47.293Z</time></trkpt><trkpt lat="39.6768656" lon="9.5790583"><ele>97.0</ele><time>2026-04-18T13:58:48.293Z</time></trkpt><trkpt lat="39.6768019" lon="9.5790856"><ele>97.0</ele><time>2026-04-18T13:58:50.293Z</time></trkpt><trkpt lat="39.6767839" lon="9.5792021"><ele>97.0</ele><time>2026-04-18T13:58:53.294Z</time></trkpt><trkpt lat="39.6768204" lon="9.5792744"><ele>97.00000000000001</ele><time>2026-04-18T13:58:54.293Z</time></trkpt><trkpt lat="39.6768786" lon="9.5793489"><ele>97.0</ele><time>2026-04-18T13:58:55.293Z</time></trkpt><trkpt lat="39.6769706" lon="9.5794546"><ele>96.0</ele><time>2026-04-18T13:58:56.293Z</time></trkpt><trkpt lat="39.677068" lon="9.5795643"><ele>95.0</ele><time>2026-04-18T13:58:57.293Z</time></trkpt><trkpt lat="39.6771808" lon="9.5796869"><ele>94.0</ele><time>2026-04-18T13:58:58.292Z</time></trkpt><trkpt lat="39.6773058" lon="9.5798186"><ele>93.0</ele><time>2026-04-18T13:58:59.294Z</time></trkpt><trkpt lat="39.6774399" lon="9.5799614"><ele>93.0</ele><time>2026-04-18T13:59:00.293Z</time></trkpt><trkpt lat="39.6775825" lon="9.5801169"><ele>93.0</ele><time>2026-04-18T13:59:01.293Z</time></trkpt><trkpt lat="39.6777371" lon="9.5802874"><ele>93.0</ele><time>2026-04-18T13:59:02.293Z</time></trkpt><trkpt lat="39.6778978" lon="9.5804694"><ele>93.0</ele><time>2026-04-18T13:59:03.293Z</time></trkpt><trkpt lat="39.6780596" lon="9.5806551"><ele>93.0</ele><time>2026-04-18T13:59:04.294Z</time></trkpt><trkpt lat="39.6782281" lon="9.580843"><ele>93.0</ele><time>2026-04-18T13:59:05.292Z</time></trkpt><trkpt lat="39.6783973" lon="9.5810268"><ele>93.0</ele><time>2026-04-18T13:59:06.292Z</time></trkpt><trkpt lat="39.6785727" lon="9.5812177"><ele>93.0</ele><time>2026-04-18T13:59:07.294Z</time></trkpt><trkpt lat="39.6787474" lon="9.5814096"><ele>93.0</ele><time>2026-04-18T13:59:08.293Z</time></trkpt><trkpt lat="39.6789238" lon="9.5816036"><ele>93.0</ele><time>2026-04-18T13:59:09.293Z</time></trkpt><trkpt lat="39.6790993" lon="9.5817976"><ele>93.0</ele><time>2026-04-18T13:59:10.293Z</time></trkpt><trkpt lat="39.6792688" lon="9.5819863"><ele>93.0</ele><time>2026-04-18T13:59:11.293Z</time></trkpt><trkpt lat="39.6794389" lon="9.582168"><ele>93.0</ele><time>2026-04-18T13:59:12.293Z</time></trkpt><trkpt lat="39.6796034" lon="9.5823492"><ele>92.66666666666667</ele><time>2026-04-18T13:59:13.293Z</time></trkpt><trkpt lat="39.6797672" lon="9.5825268"><ele>92.33333333333334</ele><time>2026-04-18T13:59:14.293Z</time></trkpt><trkpt lat="39.6799277" lon="9.5827024"><ele>92.0</ele><time>2026-04-18T13:59:15.293Z</time></trkpt><trkpt lat="39.6800852" lon="9.5828686"><ele>91.66666666666667</ele><time>2026-04-18T13:59:16.292Z</time></trkpt><trkpt lat="39.6802373" lon="9.5830357"><ele>91.33333333333333</ele><time>2026-04-18T13:59:17.293Z</time></trkpt><trkpt lat="39.6803895" lon="9.5832065"><ele>91.0</ele><time>2026-04-18T13:59:18.292Z</time></trkpt><trkpt lat="39.6805396" lon="9.5833702"><ele>91.66666666666666</ele><time>2026-04-18T13:59:19.293Z</time></trkpt><trkpt lat="39.6806956" lon="9.5835353"><ele>92.33333333333333</ele><time>2026-04-18T13:59:20.293Z</time></trkpt><trkpt lat="39.6808497" lon="9.5836996"><ele>93.0</ele><time>2026-04-18T13:59:21.293Z</time></trkpt><trkpt lat="39.6810007" lon="9.5838655"><ele>93.0</ele><time>2026-04-18T13:59:22.294Z</time></trkpt><trkpt lat="39.6811545" lon="9.5840408"><ele>93.0</ele><time>2026-04-18T13:59:23.293Z</time></trkpt><trkpt lat="39.6813109" lon="9.58422"><ele>93.0</ele><time>2026-04-18T13:59:24.293Z</time></trkpt><trkpt lat="39.6814769" lon="9.5844018"><ele>94.0</ele><time>2026-04-18T13:59:25.293Z</time></trkpt><trkpt lat="39.6816508" lon="9.5845889"><ele>95.0</ele><time>2026-04-18T13:59:26.293Z</time></trkpt><trkpt lat="39.6818276" lon="9.584787"><ele>95.0</ele><time>2026-04-18T13:59:27.293Z</time></trkpt><trkpt lat="39.6820038" lon="9.5849837"><ele>95.0</ele><time>2026-04-18T13:59:28.293Z</time></trkpt><trkpt lat="39.6821832" lon="9.5851919"><ele>96.5</ele><time>2026-04-18T13:59:29.293Z</time></trkpt><trkpt lat="39.6823615" lon="9.5853848"><ele>98.0</ele><time>2026-04-18T13:59:30.294Z</time></trkpt><trkpt lat="39.6825419" lon="9.5855711"><ele>98.0</ele><time>2026-04-18T13:59:31.293Z</time></trkpt><trkpt lat="39.6827246" lon="9.5857514"><ele>98.0</ele><time>2026-04-18T13:59:32.293Z</time></trkpt><trkpt lat="39.6829097" lon="9.5859292"><ele>99.0</ele><time>2026-04-18T13:59:33.292Z</time></trkpt><trkpt lat="39.6831039" lon="9.5860978"><ele>100.0</ele><time>2026-04-18T13:59:34.293Z</time></trkpt><trkpt lat="39.6832993" lon="9.5862635"><ele>100.0</ele><time>2026-04-18T13:59:35.294Z</time></trkpt><trkpt lat="39.6834997" lon="9.5864245"><ele>100.0</ele><time>2026-04-18T13:59:36.293Z</time></trkpt><trkpt lat="39.6837018" lon="9.5865745"><ele>102.5</ele><time>2026-04-18T13:59:37.294Z</time></trkpt><trkpt lat="39.6839015" lon="9.5867149"><ele>105.0</ele><time>2026-04-18T13:59:38.293Z</time></trkpt><trkpt lat="39.684104" lon="9.5868474"><ele>105.0</ele><time>2026-04-18T13:59:39.293Z</time></trkpt><trkpt lat="39.6843069" lon="9.586974"><ele>105.0</ele><time>2026-04-18T13:59:40.292Z</time></trkpt><trkpt lat="39.6845138" lon="9.5870925"><ele>106.0</ele><time>2026-04-18T13:59:41.293Z</time></trkpt><trkpt lat="39.6847183" lon="9.5872022"><ele>107.0</ele><time>2026-04-18T13:59:42.294Z</time></trkpt><trkpt lat="39.6849251" lon="9.5873139"><ele>108.0</ele><time>2026-04-18T13:59:43.293Z</time></trkpt><trkpt lat="39.6851334" lon="9.5874147"><ele>108.33333333333334</ele><time>2026-04-18T13:59:44.292Z</time></trkpt><trkpt lat="39.6853408" lon="9.5875033"><ele>108.66666666666667</ele><time>2026-04-18T13:59:45.293Z</time></trkpt><trkpt lat="39.6855499" lon="9.5875882"><ele>109.0</ele><time>2026-04-18T13:59:46.293Z</time></trkpt><trkpt lat="39.6857598" lon="9.5876665"><ele>109.0</ele><time>2026-04-18T13:59:47.293Z</time></trkpt><trkpt lat="39.6859696" lon="9.5877423"><ele>109.0</ele><time>2026-04-18T13:59:48.293Z</time></trkpt><trkpt lat="39.6861866" lon="9.5878138"><ele>109.0</ele><time>2026-04-18T13:59:49.293Z</time></trkpt><trkpt lat="39.6864054" lon="9.5878742"><ele>110.66666666666667</ele><time>2026-04-18T13:59:50.292Z</time></trkpt><trkpt lat="39.6866255" lon="9.5879268"><ele>112.33333333333334</ele><time>2026-04-18T13:59:51.293Z</time></trkpt><trkpt lat="39.6868481" lon="9.5879715"><ele>114.0</ele><time>2026-04-18T13:59:52.293Z</time></trkpt><trkpt lat="39.6870672" lon="9.5880126"><ele>114.0</ele><time>2026-04-18T13:59:53.293Z</time></trkpt><trkpt lat="39.6872887" lon="9.5880453"><ele>114.0</ele><time>2026-04-18T13:59:54.293Z</time></trkpt><trkpt lat="39.687507" lon="9.5880657"><ele>114.0</ele><time>2026-04-18T13:59:55.293Z</time></trkpt><trkpt lat="39.6877248" lon="9.5880836"><ele>113.0</ele><time>2026-04-18T13:59:56.293Z</time></trkpt><trkpt lat="39.6879394" lon="9.5880918"><ele>112.0</ele><time>2026-04-18T13:59:57.294Z</time></trkpt><trkpt lat="39.6881535" lon="9.5880946"><ele>111.0</ele><time>2026-04-18T13:59:58.293Z</time></trkpt><trkpt lat="39.6883623" lon="9.5880967"><ele>111.0</ele><time>2026-04-18T13:59:59.293Z</time></trkpt><trkpt lat="39.688574" lon="9.5880915"><ele>111.0</ele><time>2026-04-18T14:00:00.292Z</time></trkpt><trkpt lat="39.6887867" lon="9.588077"><ele>111.0</ele><time>2026-04-18T14:00:01.293Z</time></trkpt><trkpt lat="39.6890029" lon="9.5880504"><ele>107.66666666666666</ele><time>2026-04-18T14:00:02.293Z</time></trkpt><trkpt lat="39.6892172" lon="9.5880129"><ele>104.33333333333333</ele><time>2026-04-18T14:00:03.294Z</time></trkpt><trkpt lat="39.6894318" lon="9.587984"><ele>101.0</ele><time>2026-04-18T14:00:04.292Z</time></trkpt><trkpt lat="39.6896491" lon="9.5879574"><ele>100.66666666666666</ele><time>2026-04-18T14:00:05.292Z</time></trkpt><trkpt lat="39.6898639" lon="9.5879315"><ele>100.33333333333334</ele><time>2026-04-18T14:00:06.294Z</time></trkpt><trkpt lat="39.6900793" lon="9.5878994"><ele>100.0</ele><time>2026-04-18T14:00:07.293Z</time></trkpt><trkpt lat="39.6902945" lon="9.5878681"><ele>101.0</ele><time>2026-04-18T14:00:08.294Z</time></trkpt><trkpt lat="39.6905128" lon="9.5878371"><ele>102.0</ele><time>2026-04-18T14:00:09.293Z</time></trkpt><trkpt lat="39.6907282" lon="9.5878073"><ele>103.0</ele><time>2026-04-18T14:00:10.293Z</time></trkpt><trkpt lat="39.6909426" lon="9.5877806"><ele>105.33333333333334</ele><time>2026-04-18T14:00:11.293Z</time></trkpt><trkpt lat="39.6911574" lon="9.5877508"><ele>107.66666666666666</ele><time>2026-04-18T14:00:12.293Z</time></trkpt><trkpt lat="39.6913722" lon="9.587722"><ele>110.0</ele><time>2026-04-18T14:00:13.293Z</time></trkpt><trkpt lat="39.6915839" lon="9.587691"><ele>110.0</ele><time>2026-04-18T14:00:14.293Z</time></trkpt><trkpt lat="39.6917964" lon="9.587654"><ele>110.0</ele><time>2026-04-18T14:00:15.294Z</time></trkpt><trkpt lat="39.6920044" lon="9.5876246"><ele>110.0</ele><time>2026-04-18T14:00:16.293Z</time></trkpt><trkpt lat="39.6922103" lon="9.5875951"><ele>110.66666666666666</ele><time>2026-04-18T14:00:17.294Z</time></trkpt><trkpt lat="39.6924223" lon="9.5875621"><ele>111.33333333333334</ele><time>2026-04-18T14:00:18.293Z</time></trkpt><trkpt lat="39.6926349" lon="9.5875355"><ele>112.0</ele><time>2026-04-18T14:00:19.293Z</time></trkpt><trkpt lat="39.6928555" lon="9.5875069"><ele>112.0</ele><time>2026-04-18T14:00:20.293Z</time></trkpt><trkpt lat="39.6930797" lon="9.5874753"><ele>112.0</ele><time>2026-04-18T14:00:21.293Z</time></trkpt><trkpt lat="39.6933066" lon="9.5874345"><ele>112.0</ele><time>2026-04-18T14:00:22.293Z</time></trkpt><trkpt lat="39.6935321" lon="9.5874058"><ele>112.0</ele><time>2026-04-18T14:00:23.292Z</time></trkpt><trkpt lat="39.6937515" lon="9.5873727"><ele>112.0</ele><time>2026-04-18T14:00:24.292Z</time></trkpt><trkpt lat="39.6939678" lon="9.5873427"><ele>112.33333333333334</ele><time>2026-04-18T14:00:25.293Z</time></trkpt><trkpt lat="39.6941841" lon="9.5873112"><ele>112.66666666666666</ele><time>2026-04-18T14:00:26.293Z</time></trkpt><trkpt lat="39.6944021" lon="9.5872807"><ele>113.0</ele><time>2026-04-18T14:00:27.293Z</time></trkpt><trkpt lat="39.694619" lon="9.5872504"><ele>114.66666666666666</ele><time>2026-04-18T14:00:28.293Z</time></trkpt><trkpt lat="39.6948388" lon="9.5872191"><ele>116.33333333333334</ele><time>2026-04-18T14:00:29.293Z</time></trkpt><trkpt lat="39.6950611" lon="9.5871837"><ele>118.0</ele><time>2026-04-18T14:00:30.293Z</time></trkpt><trkpt lat="39.695287" lon="9.5871491"><ele>122.5</ele><time>2026-04-18T14:00:31.293Z</time></trkpt><trkpt lat="39.6955125" lon="9.5871232"><ele>127.0</ele><time>2026-04-18T14:00:32.293Z</time></trkpt><trkpt lat="39.6957389" lon="9.5870941"><ele>127.0</ele><time>2026-04-18T14:00:33.293Z</time></trkpt><trkpt lat="39.6959621" lon="9.587062"><ele>127.0</ele><time>2026-04-18T14:00:34.293Z</time></trkpt><trkpt lat="39.6961903" lon="9.5870284"><ele>122.5</ele><time>2026-04-18T14:00:35.293Z</time></trkpt><trkpt lat="39.6964228" lon="9.5869981"><ele>118.0</ele><time>2026-04-18T14:00:36.294Z</time></trkpt><trkpt lat="39.6966566" lon="9.58697"><ele>118.0</ele><time>2026-04-18T14:00:37.293Z</time></trkpt><trkpt lat="39.6968955" lon="9.5869531"><ele>118.0</ele><time>2026-04-18T14:00:38.293Z</time></trkpt><trkpt lat="39.697136" lon="9.5869462"><ele>118.5</ele><time>2026-04-18T14:00:39.293Z</time></trkpt><trkpt lat="39.697379" lon="9.5869439"><ele>119.0</ele><time>2026-04-18T14:00:40.294Z</time></trkpt><trkpt lat="39.6976245" lon="9.5869467"><ele>119.0</ele><time>2026-04-18T14:00:41.292Z</time></trkpt><trkpt lat="39.6978692" lon="9.5869432"><ele>119.0</ele><time>2026-04-18T14:00:42.293Z</time></trkpt><trkpt lat="39.6981123" lon="9.586931"><ele>119.0</ele><time>2026-04-18T14:00:43.293Z</time></trkpt><trkpt lat="39.6983557" lon="9.5869223"><ele>119.0</ele><time>2026-04-18T14:00:44.293Z</time></trkpt><trkpt lat="39.6986007" lon="9.5869155"><ele>119.0</ele><time>2026-04-18T14:00:45.293Z</time></trkpt><trkpt lat="39.6988454" lon="9.5869126"><ele>119.0</ele><time>2026-04-18T14:00:46.293Z</time></trkpt><trkpt lat="39.6990904" lon="9.586911"><ele>119.0</ele><time>2026-04-18T14:00:47.293Z</time></trkpt><trkpt lat="39.6993376" lon="9.5869091"><ele>119.0</ele><time>2026-04-18T14:00:48.293Z</time></trkpt><trkpt lat="39.6995849" lon="9.586913"><ele>119.5</ele><time>2026-04-18T14:00:49.293Z</time></trkpt><trkpt lat="39.6998337" lon="9.5869174"><ele>120.0</ele><time>2026-04-18T14:00:50.294Z</time></trkpt><trkpt lat="39.700081" lon="9.5869147"><ele>118.5</ele><time>2026-04-18T14:00:51.293Z</time></trkpt><trkpt lat="39.700331" lon="9.5869116"><ele>117.0</ele><time>2026-04-18T14:00:52.293Z</time></trkpt><trkpt lat="39.7005807" lon="9.5869089"><ele>117.0</ele><time>2026-04-18T14:00:53.293Z</time></trkpt><trkpt lat="39.7008308" lon="9.5869036"><ele>117.0</ele><time>2026-04-18T14:00:54.292Z</time></trkpt><trkpt lat="39.7010749" lon="9.5868997"><ele>114.0</ele><time>2026-04-18T14:00:55.293Z</time></trkpt><trkpt lat="39.7013072" lon="9.586897"><ele>111.0</ele><time>2026-04-18T14:00:56.293Z</time></trkpt><trkpt lat="39.7015323" lon="9.5868924"><ele>111.0</ele><time>2026-04-18T14:00:57.293Z</time></trkpt><trkpt lat="39.7017572" lon="9.5868861"><ele>111.0</ele><time>2026-04-18T14:00:58.292Z</time></trkpt><trkpt lat="39.7019869" lon="9.5868854"><ele>113.0</ele><time>2026-04-18T14:00:59.294Z</time></trkpt><trkpt lat="39.7022186" lon="9.5868844"><ele>115.0</ele><time>2026-04-18T14:01:00.293Z</time></trkpt><trkpt lat="39.70245" lon="9.5868822"><ele>115.0</ele><time>2026-04-18T14:01:01.293Z</time></trkpt><trkpt lat="39.7026819" lon="9.5868777"><ele>115.0</ele><time>2026-04-18T14:01:02.293Z</time></trkpt><trkpt lat="39.702914" lon="9.5868727"><ele>116.0</ele><time>2026-04-18T14:01:03.293Z</time></trkpt><trkpt lat="39.7031498" lon="9.5868716"><ele>117.0</ele><time>2026-04-18T14:01:04.293Z</time></trkpt><trkpt lat="39.7033892" lon="9.5868698"><ele>117.5</ele><time>2026-04-18T14:01:05.294Z</time></trkpt><trkpt lat="39.7036298" lon="9.5868674"><ele>118.0</ele><time>2026-04-18T14:01:06.293Z</time></trkpt><trkpt lat="39.7038695" lon="9.5868682"><ele>118.0</ele><time>2026-04-18T14:01:07.293Z</time></trkpt><trkpt lat="39.7041097" lon="9.5868673"><ele>118.0</ele><time>2026-04-18T14:01:08.292Z</time></trkpt><trkpt lat="39.7043548" lon="9.5868671"><ele>119.0</ele><time>2026-04-18T14:01:09.293Z</time></trkpt><trkpt lat="39.7046035" lon="9.5868665"><ele>120.0</ele><time>2026-04-18T14:01:10.293Z</time></trkpt><trkpt lat="39.704848" lon="9.5868608"><ele>120.0</ele><time>2026-04-18T14:01:11.293Z</time></trkpt><trkpt lat="39.7050885" lon="9.5868539"><ele>120.0</ele><time>2026-04-18T14:01:12.293Z</time></trkpt><trkpt lat="39.7053317" lon="9.5868538"><ele>121.5</ele><time>2026-04-18T14:01:13.293Z</time></trkpt><trkpt lat="39.7055745" lon="9.5868568"><ele>123.0</ele><time>2026-04-18T14:01:14.293Z</time></trkpt><trkpt lat="39.7058145" lon="9.5868527"><ele>123.0</ele><time>2026-04-18T14:01:15.293Z</time></trkpt><trkpt lat="39.7060501" lon="9.5868513"><ele>123.0</ele><time>2026-04-18T14:01:16.293Z</time></trkpt><trkpt lat="39.7062866" lon="9.5868481"><ele>121.0</ele><time>2026-04-18T14:01:17.293Z</time></trkpt><trkpt lat="39.7065261" lon="9.5868428"><ele>119.0</ele><time>2026-04-18T14:01:18.292Z</time></trkpt><trkpt lat="39.7067636" lon="9.5868382"><ele>118.5</ele><time>2026-04-18T14:01:19.293Z</time></trkpt><trkpt lat="39.7070009" lon="9.5868357"><ele>118.0</ele><time>2026-04-18T14:01:20.293Z</time></trkpt><trkpt lat="39.7072369" lon="9.5868314"><ele>118.0</ele><time>2026-04-18T14:01:21.294Z</time></trkpt><trkpt lat="39.7074738" lon="9.586826"><ele>118.0</ele><time>2026-04-18T14:01:22.293Z</time></trkpt><trkpt lat="39.707713" lon="9.5868193"><ele>117.5</ele><time>2026-04-18T14:01:23.294Z</time></trkpt><trkpt lat="39.7079527" lon="9.5868179"><ele>117.0</ele><time>2026-04-18T14:01:24.293Z</time></trkpt><trkpt lat="39.7081939" lon="9.586813"><ele>117.0</ele><time>2026-04-18T14:01:25.292Z</time></trkpt><trkpt lat="39.7084363" lon="9.5868104"><ele>117.0</ele><time>2026-04-18T14:01:26.293Z</time></trkpt><trkpt lat="39.7086802" lon="9.5868116"><ele>117.5</ele><time>2026-04-18T14:01:27.293Z</time></trkpt><trkpt lat="39.708922" lon="9.5868058"><ele>118.0</ele><time>2026-04-18T14:01:28.293Z</time></trkpt><trkpt lat="39.709166" lon="9.5868004"><ele>120.0</ele><time>2026-04-18T14:01:29.293Z</time></trkpt><trkpt lat="39.7094108" lon="9.5867977"><ele>122.0</ele><time>2026-04-18T14:01:30.293Z</time></trkpt><trkpt lat="39.7096554" lon="9.5867945"><ele>122.0</ele><time>2026-04-18T14:01:31.293Z</time></trkpt><trkpt lat="39.7098983" lon="9.5867889"><ele>122.0</ele><time>2026-04-18T14:01:32.293Z</time></trkpt><trkpt lat="39.710141" lon="9.5867846"><ele>123.0</ele><time>2026-04-18T14:01:33.293Z</time></trkpt><trkpt lat="39.7103776" lon="9.5867854"><ele>124.0</ele><time>2026-04-18T14:01:34.292Z</time></trkpt><trkpt lat="39.7106184" lon="9.5867781"><ele>124.0</ele><time>2026-04-18T14:01:35.294Z</time></trkpt><trkpt lat="39.7108583" lon="9.5867764"><ele>124.0</ele><time>2026-04-18T14:01:36.293Z</time></trkpt><trkpt lat="39.7111009" lon="9.586778"><ele>125.0</ele><time>2026-04-18T14:01:37.292Z</time></trkpt><trkpt lat="39.711338" lon="9.5867762"><ele>126.0</ele><time>2026-04-18T14:01:38.292Z</time></trkpt><trkpt lat="39.711575" lon="9.5867759"><ele>126.0</ele><time>2026-04-18T14:01:39.292Z</time></trkpt><trkpt lat="39.7118131" lon="9.5867708"><ele>126.0</ele><time>2026-04-18T14:01:40.293Z</time></trkpt><trkpt lat="39.7120521" lon="9.58677"><ele>125.5</ele><time>2026-04-18T14:01:41.293Z</time></trkpt><trkpt lat="39.7122878" lon="9.5867693"><ele>125.0</ele><time>2026-04-18T14:01:42.294Z</time></trkpt><trkpt lat="39.7125246" lon="9.586765"><ele>125.0</ele><time>2026-04-18T14:01:43.294Z</time></trkpt><trkpt lat="39.712762" lon="9.5867445"><ele>125.0</ele><time>2026-04-18T14:01:44.293Z</time></trkpt><trkpt lat="39.7130015" lon="9.5867081"><ele>125.0</ele><time>2026-04-18T14:01:45.293Z</time></trkpt><trkpt lat="39.7132408" lon="9.5866732"><ele>125.0</ele><time>2026-04-18T14:01:46.293Z</time></trkpt><trkpt lat="39.713475" lon="9.5866284"><ele>125.5</ele><time>2026-04-18T14:01:47.293Z</time></trkpt><trkpt lat="39.7137104" lon="9.5865686"><ele>126.0</ele><time>2026-04-18T14:01:48.293Z</time></trkpt><trkpt lat="39.7139482" lon="9.5865003"><ele>126.0</ele><time>2026-04-18T14:01:49.294Z</time></trkpt><trkpt lat="39.7141804" lon="9.5864184"><ele>126.0</ele><time>2026-04-18T14:01:50.293Z</time></trkpt><trkpt lat="39.7144085" lon="9.5863272"><ele>127.0</ele><time>2026-04-18T14:01:51.294Z</time></trkpt><trkpt lat="39.7146324" lon="9.5862273"><ele>128.0</ele><time>2026-04-18T14:01:52.292Z</time></trkpt><trkpt lat="39.7148545" lon="9.5861124"><ele>126.5</ele><time>2026-04-18T14:01:53.292Z</time></trkpt><trkpt lat="39.7150744" lon="9.5859842"><ele>125.0</ele><time>2026-04-18T14:01:54.293Z</time></trkpt><trkpt lat="39.7152873" lon="9.585849"><ele>125.0</ele><time>2026-04-18T14:01:55.294Z</time></trkpt><trkpt lat="39.7154936" lon="9.5857072"><ele>125.0</ele><time>2026-04-18T14:01:56.294Z</time></trkpt><trkpt lat="39.7156943" lon="9.5855597"><ele>125.0</ele><time>2026-04-18T14:01:57.294Z</time></trkpt><trkpt lat="39.7158909" lon="9.5854039"><ele>125.0</ele><time>2026-04-18T14:01:58.293Z</time></trkpt><trkpt lat="39.7160835" lon="9.5852396"><ele>124.0</ele><time>2026-04-18T14:01:59.293Z</time></trkpt><trkpt lat="39.7162748" lon="9.5850678"><ele>123.0</ele><time>2026-04-18T14:02:00.292Z</time></trkpt><trkpt lat="39.7164621" lon="9.5848889"><ele>123.0</ele><time>2026-04-18T14:02:01.293Z</time></trkpt><trkpt lat="39.7166508" lon="9.584704"><ele>123.0</ele><time>2026-04-18T14:02:02.292Z</time></trkpt><trkpt lat="39.7168394" lon="9.584521"><ele>123.5</ele><time>2026-04-18T14:02:03.293Z</time></trkpt><trkpt lat="39.7170295" lon="9.5843375"><ele>124.0</ele><time>2026-04-18T14:02:04.293Z</time></trkpt><trkpt lat="39.7172198" lon="9.5841541"><ele>124.0</ele><time>2026-04-18T14:02:05.294Z</time></trkpt><trkpt lat="39.7174125" lon="9.5839683"><ele>124.0</ele><time>2026-04-18T14:02:06.293Z</time></trkpt><trkpt lat="39.7176063" lon="9.5837789"><ele>124.0</ele><time>2026-04-18T14:02:07.292Z</time></trkpt><trkpt lat="39.7178011" lon="9.5835902"><ele>124.0</ele><time>2026-04-18T14:02:08.292Z</time></trkpt><trkpt lat="39.7179946" lon="9.5834"><ele>124.0</ele><time>2026-04-18T14:02:09.294Z</time></trkpt><trkpt lat="39.7181891" lon="9.5832142"><ele>124.0</ele><time>2026-04-18T14:02:10.293Z</time></trkpt><trkpt lat="39.7183853" lon="9.5830283"><ele>123.5</ele><time>2026-04-18T14:02:11.293Z</time></trkpt><trkpt lat="39.7185828" lon="9.58285"><ele>123.0</ele><time>2026-04-18T14:02:12.293Z</time></trkpt><trkpt lat="39.7187838" lon="9.5826851"><ele>124.5</ele><time>2026-04-18T14:02:13.293Z</time></trkpt><trkpt lat="39.718988" lon="9.5825241"><ele>126.0</ele><time>2026-04-18T14:02:14.293Z</time></trkpt><trkpt lat="39.7191965" lon="9.5823725"><ele>124.5</ele><time>2026-04-18T14:02:15.294Z</time></trkpt><trkpt lat="39.7194108" lon="9.5822332"><ele>123.0</ele><time>2026-04-18T14:02:16.293Z</time></trkpt><trkpt lat="39.7196303" lon="9.5821119"><ele>124.5</ele><time>2026-04-18T14:02:17.293Z</time></trkpt><trkpt lat="39.7198534" lon="9.5820091"><ele>126.0</ele><time>2026-04-18T14:02:18.292Z</time></trkpt><trkpt lat="39.7200806" lon="9.5819248"><ele>126.0</ele><time>2026-04-18T14:02:19.293Z</time></trkpt><trkpt lat="39.7203081" lon="9.5818556"><ele>126.0</ele><time>2026-04-18T14:02:20.292Z</time></trkpt><trkpt lat="39.7205412" lon="9.5817972"><ele>126.0</ele><time>2026-04-18T14:02:21.292Z</time></trkpt><trkpt lat="39.7207725" lon="9.5817519"><ele>126.0</ele><time>2026-04-18T14:02:22.294Z</time></trkpt><trkpt lat="39.7210088" lon="9.5817197"><ele>127.0</ele><time>2026-04-18T14:02:23.293Z</time></trkpt><trkpt lat="39.7212445" lon="9.5816982"><ele>128.0</ele><time>2026-04-18T14:02:24.292Z</time></trkpt><trkpt lat="39.7214797" lon="9.5816781"><ele>128.0</ele><time>2026-04-18T14:02:25.292Z</time></trkpt><trkpt lat="39.7217165" lon="9.5816623"><ele>128.0</ele><time>2026-04-18T14:02:26.292Z</time></trkpt><trkpt lat="39.7219493" lon="9.5816441"><ele>128.0</ele><time>2026-04-18T14:02:27.292Z</time></trkpt><trkpt lat="39.7221842" lon="9.5816197"><ele>128.0</ele><time>2026-04-18T14:02:28.293Z</time></trkpt><trkpt lat="39.7224189" lon="9.5815901"><ele>128.0</ele><time>2026-04-18T14:02:29.292Z</time></trkpt><trkpt lat="39.7226496" lon="9.5815429"><ele>128.0</ele><time>2026-04-18T14:02:30.294Z</time></trkpt><trkpt lat="39.7228832" lon="9.5814931"><ele>128.0</ele><time>2026-04-18T14:02:31.293Z</time></trkpt><trkpt lat="39.7231154" lon="9.5814361"><ele>128.0</ele><time>2026-04-18T14:02:32.293Z</time></trkpt><trkpt lat="39.7233488" lon="9.5813582"><ele>128.5</ele><time>2026-04-18T14:02:33.294Z</time></trkpt><trkpt lat="39.7235804" lon="9.5812716"><ele>129.0</ele><time>2026-04-18T14:02:34.293Z</time></trkpt><trkpt lat="39.72381" lon="9.5811757"><ele>129.5</ele><time>2026-04-18T14:02:35.293Z</time></trkpt><trkpt lat="39.7240342" lon="9.5810744"><ele>130.0</ele><time>2026-04-18T14:02:36.293Z</time></trkpt><trkpt lat="39.724257" lon="9.5809717"><ele>131.0</ele><time>2026-04-18T14:02:37.293Z</time></trkpt><trkpt lat="39.7244742" lon="9.580867"><ele>132.0</ele><time>2026-04-18T14:02:38.293Z</time></trkpt><trkpt lat="39.7246914" lon="9.5807564"><ele>132.0</ele><time>2026-04-18T14:02:39.293Z</time></trkpt><trkpt lat="39.7249135" lon="9.5806506"><ele>132.0</ele><time>2026-04-18T14:02:40.293Z</time></trkpt><trkpt lat="39.7251346" lon="9.580549"><ele>133.0</ele><time>2026-04-18T14:02:41.293Z</time></trkpt><trkpt lat="39.7253595" lon="9.5804422"><ele>134.0</ele><time>2026-04-18T14:02:42.293Z</time></trkpt><trkpt lat="39.7255902" lon="9.5803423"><ele>135.0</ele><time>2026-04-18T14:02:43.293Z</time></trkpt><trkpt lat="39.7258188" lon="9.5802395"><ele>136.0</ele><time>2026-04-18T14:02:44.293Z</time></trkpt><trkpt lat="39.7260462" lon="9.5801416"><ele>135.5</ele><time>2026-04-18T14:02:45.294Z</time></trkpt><trkpt lat="39.7262726" lon="9.5800488"><ele>135.0</ele><time>2026-04-18T14:02:46.293Z</time></trkpt><trkpt lat="39.7264991" lon="9.5799577"><ele>135.0</ele><time>2026-04-18T14:02:47.293Z</time></trkpt><trkpt lat="39.726724" lon="9.5798719"><ele>135.0</ele><time>2026-04-18T14:02:48.292Z</time></trkpt><trkpt lat="39.7269503" lon="9.5797906"><ele>135.0</ele><time>2026-04-18T14:02:49.294Z</time></trkpt><trkpt lat="39.7271803" lon="9.579718"><ele>135.0</ele><time>2026-04-18T14:02:50.293Z</time></trkpt><trkpt lat="39.7274076" lon="9.5796399"><ele>135.0</ele><time>2026-04-18T14:02:51.293Z</time></trkpt><trkpt lat="39.7276344" lon="9.5795706"><ele>135.0</ele><time>2026-04-18T14:02:52.292Z</time></trkpt><trkpt lat="39.7278603" lon="9.5795027"><ele>137.5</ele><time>2026-04-18T14:02:53.293Z</time></trkpt><trkpt lat="39.7280878" lon="9.579436"><ele>140.0</ele><time>2026-04-18T14:02:54.293Z</time></trkpt><trkpt lat="39.7283219" lon="9.5793658"><ele>140.0</ele><time>2026-04-18T14:02:55.293Z</time></trkpt><trkpt lat="39.7285514" lon="9.5792987"><ele>140.0</ele><time>2026-04-18T14:02:56.294Z</time></trkpt><trkpt lat="39.7287823" lon="9.5792345"><ele>138.5</ele><time>2026-04-18T14:02:57.293Z</time></trkpt><trkpt lat="39.7290074" lon="9.5791698"><ele>137.0</ele><time>2026-04-18T14:02:58.293Z</time></trkpt><trkpt lat="39.7292359" lon="9.579106"><ele>135.5</ele><time>2026-04-18T14:02:59.292Z</time></trkpt><trkpt lat="39.7294687" lon="9.5790397"><ele>134.0</ele><time>2026-04-18T14:03:00.294Z</time></trkpt><trkpt lat="39.7297026" lon="9.578971"><ele>134.0</ele><time>2026-04-18T14:03:01.293Z</time></trkpt><trkpt lat="39.729939" lon="9.57891"><ele>134.0</ele><time>2026-04-18T14:03:02.293Z</time></trkpt><trkpt lat="39.7301715" lon="9.57884"><ele>134.0</ele><time>2026-04-18T14:03:03.293Z</time></trkpt><trkpt lat="39.7304073" lon="9.5787736"><ele>134.0</ele><time>2026-04-18T14:03:04.293Z</time></trkpt><trkpt lat="39.7306457" lon="9.5787044"><ele>135.0</ele><time>2026-04-18T14:03:05.293Z</time></trkpt><trkpt lat="39.7308846" lon="9.5786337"><ele>136.0</ele><time>2026-04-18T14:03:06.294Z</time></trkpt><trkpt lat="39.7311237" lon="9.5785669"><ele>137.5</ele><time>2026-04-18T14:03:07.292Z</time></trkpt><trkpt lat="39.7313733" lon="9.578491"><ele>139.0</ele><time>2026-04-18T14:03:08.293Z</time></trkpt><trkpt lat="39.7316103" lon="9.5784318"><ele>139.0</ele><time>2026-04-18T14:03:09.293Z</time></trkpt><trkpt lat="39.7318483" lon="9.5783681"><ele>139.0</ele><time>2026-04-18T14:03:10.293Z</time></trkpt><trkpt lat="39.7320818" lon="9.5783157"><ele>139.5</ele><time>2026-04-18T14:03:11.293Z</time></trkpt><trkpt lat="39.7323185" lon="9.5782571"><ele>140.0</ele><time>2026-04-18T14:03:12.293Z</time></trkpt><trkpt lat="39.732553" lon="9.5782136"><ele>139.5</ele><time>2026-04-18T14:03:13.293Z</time></trkpt><trkpt lat="39.7327902" lon="9.5781577"><ele>139.0</ele><time>2026-04-18T14:03:14.292Z</time></trkpt><trkpt lat="39.7330338" lon="9.5781071"><ele>139.0</ele><time>2026-04-18T14:03:15.294Z</time></trkpt><trkpt lat="39.7332823" lon="9.5780653"><ele>139.0</ele><time>2026-04-18T14:03:16.293Z</time></trkpt><trkpt lat="39.7335202" lon="9.5780288"><ele>139.0</ele><time>2026-04-18T14:03:17.293Z</time></trkpt><trkpt lat="39.7337654" lon="9.5779968"><ele>139.0</ele><time>2026-04-18T14:03:18.292Z</time></trkpt><trkpt lat="39.7340076" lon="9.5779663"><ele>139.0</ele><time>2026-04-18T14:03:19.292Z</time></trkpt><trkpt lat="39.7342494" lon="9.577941"><ele>139.0</ele><time>2026-04-18T14:03:20.293Z</time></trkpt><trkpt lat="39.7344871" lon="9.5779195"><ele>140.0</ele><time>2026-04-18T14:03:21.293Z</time></trkpt><trkpt lat="39.7347293" lon="9.5778925"><ele>141.0</ele><time>2026-04-18T14:03:22.293Z</time></trkpt><trkpt lat="39.734978" lon="9.5778827"><ele>141.0</ele><time>2026-04-18T14:03:23.292Z</time></trkpt><trkpt lat="39.7352122" lon="9.5778882"><ele>141.0</ele><time>2026-04-18T14:03:24.293Z</time></trkpt><trkpt lat="39.735447" lon="9.5778894"><ele>141.0</ele><time>2026-04-18T14:03:25.293Z</time></trkpt><trkpt lat="39.7356742" lon="9.5778833"><ele>141.0</ele><time>2026-04-18T14:03:26.292Z</time></trkpt><trkpt lat="39.7359098" lon="9.5778803"><ele>140.5</ele><time>2026-04-18T14:03:27.293Z</time></trkpt><trkpt lat="39.7361424" lon="9.5778776"><ele>140.0</ele><time>2026-04-18T14:03:28.293Z</time></trkpt><trkpt lat="39.7363761" lon="9.5778833"><ele>140.0</ele><time>2026-04-18T14:03:29.293Z</time></trkpt><trkpt lat="39.7366049" lon="9.5778854"><ele>140.0</ele><time>2026-04-18T14:03:30.293Z</time></trkpt><trkpt lat="39.7368368" lon="9.5778919"><ele>141.5</ele><time>2026-04-18T14:03:31.293Z</time></trkpt><trkpt lat="39.7370683" lon="9.5779065"><ele>143.0</ele><time>2026-04-18T14:03:32.293Z</time></trkpt><trkpt lat="39.737303" lon="9.5779195"><ele>143.0</ele><time>2026-04-18T14:03:33.293Z</time></trkpt><trkpt lat="39.7375366" lon="9.5779378"><ele>143.0</ele><time>2026-04-18T14:03:34.293Z</time></trkpt><trkpt lat="39.7377725" lon="9.5779544"><ele>144.0</ele><time>2026-04-18T14:03:35.292Z</time></trkpt><trkpt lat="39.7380064" lon="9.5779738"><ele>145.0</ele><time>2026-04-18T14:03:36.293Z</time></trkpt><trkpt lat="39.7382429" lon="9.57799"><ele>145.0</ele><time>2026-04-18T14:03:37.294Z</time></trkpt><trkpt lat="39.7384773" lon="9.5780014"><ele>145.0</ele><time>2026-04-18T14:03:38.293Z</time></trkpt><trkpt lat="39.7387114" lon="9.5780069"><ele>144.5</ele><time>2026-04-18T14:03:39.293Z</time></trkpt><trkpt lat="39.7389497" lon="9.5780401"><ele>144.0</ele><time>2026-04-18T14:03:40.293Z</time></trkpt><trkpt lat="39.7391761" lon="9.5780766"><ele>145.0</ele><time>2026-04-18T14:03:41.293Z</time></trkpt><trkpt lat="39.7394089" lon="9.5781304"><ele>146.0</ele><time>2026-04-18T14:03:42.292Z</time></trkpt><trkpt lat="39.7396384" lon="9.5781898"><ele>146.0</ele><time>2026-04-18T14:03:43.292Z</time></trkpt><trkpt lat="39.7398601" lon="9.578258"><ele>146.0</ele><time>2026-04-18T14:03:44.293Z</time></trkpt><trkpt lat="39.740097" lon="9.5783204"><ele>146.5</ele><time>2026-04-18T14:03:45.293Z</time></trkpt><trkpt lat="39.7403241" lon="9.5783858"><ele>147.0</ele><time>2026-04-18T14:03:46.293Z</time></trkpt><trkpt lat="39.7405531" lon="9.5784401"><ele>147.0</ele><time>2026-04-18T14:03:47.294Z</time></trkpt><trkpt lat="39.7407907" lon="9.5785051"><ele>147.0</ele><time>2026-04-18T14:03:48.292Z</time></trkpt><trkpt lat="39.741024" lon="9.5785834"><ele>148.0</ele><time>2026-04-18T14:03:49.293Z</time></trkpt><trkpt lat="39.7412575" lon="9.5786524"><ele>149.0</ele><time>2026-04-18T14:03:50.293Z</time></trkpt><trkpt lat="39.7414931" lon="9.5787191"><ele>149.0</ele><time>2026-04-18T14:03:51.294Z</time></trkpt><trkpt lat="39.7417281" lon="9.5787872"><ele>149.0</ele><time>2026-04-18T14:03:52.293Z</time></trkpt><trkpt lat="39.7419591" lon="9.5788529"><ele>150.0</ele><time>2026-04-18T14:03:53.294Z</time></trkpt><trkpt lat="39.7421918" lon="9.5789258"><ele>151.0</ele><time>2026-04-18T14:03:54.294Z</time></trkpt><trkpt lat="39.7424246" lon="9.5790012"><ele>151.0</ele><time>2026-04-18T14:03:55.293Z</time></trkpt><trkpt lat="39.7426598" lon="9.5790734"><ele>151.0</ele><time>2026-04-18T14:03:56.292Z</time></trkpt><trkpt lat="39.7428914" lon="9.5791425"><ele>152.0</ele><time>2026-04-18T14:03:57.292Z</time></trkpt><trkpt lat="39.7431249" lon="9.5792184"><ele>153.0</ele><time>2026-04-18T14:03:58.294Z</time></trkpt><trkpt lat="39.7433554" lon="9.5792846"><ele>154.0</ele><time>2026-04-18T14:03:59.293Z</time></trkpt><trkpt lat="39.7435869" lon="9.5793523"><ele>155.0</ele><time>2026-04-18T14:04:00.293Z</time></trkpt><trkpt lat="39.7438191" lon="9.5794136"><ele>155.0</ele><time>2026-04-18T14:04:01.293Z</time></trkpt><trkpt lat="39.7440552" lon="9.5794631"><ele>155.0</ele><time>2026-04-18T14:04:02.292Z</time></trkpt><trkpt lat="39.7442932" lon="9.5795099"><ele>158.0</ele><time>2026-04-18T14:04:03.293Z</time></trkpt><trkpt lat="39.7445331" lon="9.5795428"><ele>161.0</ele><time>2026-04-18T14:04:04.293Z</time></trkpt><trkpt lat="39.7447762" lon="9.5795566"><ele>161.0</ele><time>2026-04-18T14:04:05.293Z</time></trkpt><trkpt lat="39.7450185" lon="9.5795528"><ele>161.0</ele><time>2026-04-18T14:04:06.293Z</time></trkpt><trkpt lat="39.7452582" lon="9.579534"><ele>160.0</ele><time>2026-04-18T14:04:07.293Z</time></trkpt><trkpt lat="39.7455" lon="9.5794973"><ele>159.0</ele><time>2026-04-18T14:04:08.293Z</time></trkpt><trkpt lat="39.7457443" lon="9.5794445"><ele>159.0</ele><time>2026-04-18T14:04:09.293Z</time></trkpt><trkpt lat="39.7459803" lon="9.5793716"><ele>159.0</ele><time>2026-04-18T14:04:10.293Z</time></trkpt><trkpt lat="39.7462177" lon="9.5792841"><ele>161.0</ele><time>2026-04-18T14:04:11.292Z</time></trkpt><trkpt lat="39.7464566" lon="9.5791842"><ele>163.0</ele><time>2026-04-18T14:04:12.293Z</time></trkpt><trkpt lat="39.7466885" lon="9.5790784"><ele>164.0</ele><time>2026-04-18T14:04:13.293Z</time></trkpt><trkpt lat="39.746919" lon="9.5789664"><ele>165.0</ele><time>2026-04-18T14:04:14.293Z</time></trkpt><trkpt lat="39.7471449" lon="9.5788492"><ele>165.0</ele><time>2026-04-18T14:04:15.293Z</time></trkpt><trkpt lat="39.7473704" lon="9.5787343"><ele>165.0</ele><time>2026-04-18T14:04:16.293Z</time></trkpt><trkpt lat="39.7475968" lon="9.5786168"><ele>164.5</ele><time>2026-04-18T14:04:17.293Z</time></trkpt><trkpt lat="39.7478249" lon="9.5785045"><ele>164.0</ele><time>2026-04-18T14:04:18.294Z</time></trkpt><trkpt lat="39.7480505" lon="9.5783915"><ele>164.0</ele><time>2026-04-18T14:04:19.293Z</time></trkpt><trkpt lat="39.7482762" lon="9.5782835"><ele>164.0</ele><time>2026-04-18T14:04:20.293Z</time></trkpt><trkpt lat="39.7485047" lon="9.5781821"><ele>166.0</ele><time>2026-04-18T14:04:21.293Z</time></trkpt><trkpt lat="39.748734" lon="9.5780976"><ele>168.0</ele><time>2026-04-18T14:04:22.293Z</time></trkpt><trkpt lat="39.7489627" lon="9.5780207"><ele>168.0</ele><time>2026-04-18T14:04:23.293Z</time></trkpt><trkpt lat="39.7491988" lon="9.5779576"><ele>168.0</ele><time>2026-04-18T14:04:24.293Z</time></trkpt><trkpt lat="39.7494335" lon="9.5779133"><ele>171.0</ele><time>2026-04-18T14:04:25.292Z</time></trkpt><trkpt lat="39.7496647" lon="9.5778804"><ele>174.0</ele><time>2026-04-18T14:04:26.293Z</time></trkpt><trkpt lat="39.7498939" lon="9.5778603"><ele>174.0</ele><time>2026-04-18T14:04:27.293Z</time></trkpt><trkpt lat="39.7501286" lon="9.5778646"><ele>174.0</ele><time>2026-04-18T14:04:28.292Z</time></trkpt><trkpt lat="39.7503602" lon="9.577879"><ele>171.0</ele><time>2026-04-18T14:04:29.292Z</time></trkpt><trkpt lat="39.7505924" lon="9.577908"><ele>168.0</ele><time>2026-04-18T14:04:30.292Z</time></trkpt><trkpt lat="39.7508271" lon="9.5779571"><ele>167.5</ele><time>2026-04-18T14:04:31.292Z</time></trkpt><trkpt lat="39.7510562" lon="9.5780188"><ele>167.0</ele><time>2026-04-18T14:04:32.292Z</time></trkpt><trkpt lat="39.751281" lon="9.5780965"><ele>167.0</ele><time>2026-04-18T14:04:33.292Z</time></trkpt><trkpt lat="39.7515029" lon="9.5781922"><ele>167.0</ele><time>2026-04-18T14:04:34.292Z</time></trkpt><trkpt lat="39.7517226" lon="9.5783065"><ele>169.5</ele><time>2026-04-18T14:04:35.291Z</time></trkpt><trkpt lat="39.7519394" lon="9.5784271"><ele>172.0</ele><time>2026-04-18T14:04:36.292Z</time></trkpt><trkpt lat="39.7521482" lon="9.5785591"><ele>173.5</ele><time>2026-04-18T14:04:37.291Z</time></trkpt><trkpt lat="39.7523543" lon="9.5786983"><ele>175.0</ele><time>2026-04-18T14:04:38.292Z</time></trkpt><trkpt lat="39.7525605" lon="9.5788515"><ele>179.0</ele><time>2026-04-18T14:04:39.292Z</time></trkpt><trkpt lat="39.7527639" lon="9.5790174"><ele>183.0</ele><time>2026-04-18T14:04:40.291Z</time></trkpt><trkpt lat="39.7529629" lon="9.5791847"><ele>183.0</ele><time>2026-04-18T14:04:41.292Z</time></trkpt><trkpt lat="39.7531585" lon="9.5793474"><ele>183.0</ele><time>2026-04-18T14:04:42.293Z</time></trkpt><trkpt lat="39.7533519" lon="9.579516"><ele>165.0</ele><time>2026-04-18T14:04:43.292Z</time></trkpt><trkpt lat="39.7600599" lon="9.591641"><ele>165.0</ele><time>2026-04-18T14:05:37.292Z</time></trkpt><trkpt lat="39.7600735" lon="9.5919038"><ele>165.0</ele><time>2026-04-18T14:05:38.293Z</time></trkpt><trkpt lat="39.7600875" lon="9.592171"><ele>165.0</ele><time>2026-04-18T14:05:39.293Z</time></trkpt><trkpt lat="39.7603317" lon="9.5947323"><ele>153.5</ele><time>2026-04-18T14:05:48.292Z</time></trkpt><trkpt lat="39.7604096" lon="9.5950134"><ele>142.0</ele><time>2026-04-18T14:05:49.292Z</time></trkpt><trkpt lat="39.760494" lon="9.5953012"><ele>142.5</ele><time>2026-04-18T14:05:50.293Z</time></trkpt><trkpt lat="39.7605848" lon="9.5955716"><ele>143.0</ele><time>2026-04-18T14:05:51.292Z</time></trkpt><trkpt lat="39.7606829" lon="9.5958552"><ele>143.0</ele><time>2026-04-18T14:05:52.292Z</time></trkpt><trkpt lat="39.7607837" lon="9.5961428"><ele>143.0</ele><time>2026-04-18T14:05:53.292Z</time></trkpt><trkpt lat="39.7608821" lon="9.5964283"><ele>144.5</ele><time>2026-04-18T14:05:54.292Z</time></trkpt><trkpt lat="39.7609844" lon="9.5967168"><ele>146.0</ele><time>2026-04-18T14:05:55.292Z</time></trkpt><trkpt lat="39.7610859" lon="9.5970076"><ele>139.0</ele><time>2026-04-18T14:05:56.291Z</time></trkpt><trkpt lat="39.7611937" lon="9.597301"><ele>132.0</ele><time>2026-04-18T14:05:57.292Z</time></trkpt><trkpt lat="39.7613026" lon="9.597596"><ele>127.0</ele><time>2026-04-18T14:05:58.292Z</time></trkpt><trkpt lat="39.7614102" lon="9.5978874"><ele>122.0</ele><time>2026-04-18T14:05:59.292Z</time></trkpt><trkpt lat="39.7615095" lon="9.5981782"><ele>122.0</ele><time>2026-04-18T14:06:00.291Z</time></trkpt><trkpt lat="39.7616122" lon="9.5984638"><ele>122.0</ele><time>2026-04-18T14:06:01.293Z</time></trkpt><trkpt lat="39.761713" lon="9.5987432"><ele>121.0</ele><time>2026-04-18T14:06:02.292Z</time></trkpt><trkpt lat="39.7618159" lon="9.5990271"><ele>120.0</ele><time>2026-04-18T14:06:03.291Z</time></trkpt><trkpt lat="39.7619153" lon="9.5993056"><ele>116.0</ele><time>2026-04-18T14:06:04.292Z</time></trkpt><trkpt lat="39.7620164" lon="9.5995827"><ele>112.0</ele><time>2026-04-18T14:06:05.293Z</time></trkpt><trkpt lat="39.7621183" lon="9.5998583"><ele>112.0</ele><time>2026-04-18T14:06:06.291Z</time></trkpt><trkpt lat="39.7622167" lon="9.600134"><ele>112.0</ele><time>2026-04-18T14:06:07.292Z</time></trkpt><trkpt lat="39.7623165" lon="9.6004122"><ele>117.0</ele><time>2026-04-18T14:06:08.292Z</time></trkpt><trkpt lat="39.762413" lon="9.6006861"><ele>122.0</ele><time>2026-04-18T14:06:09.292Z</time></trkpt><trkpt lat="39.7625135" lon="9.6009609"><ele>123.0</ele><time>2026-04-18T14:06:10.293Z</time></trkpt><trkpt lat="39.7626177" lon="9.601234"><ele>124.0</ele><time>2026-04-18T14:06:11.292Z</time></trkpt><trkpt lat="39.762717" lon="9.6015087"><ele>117.5</ele><time>2026-04-18T14:06:12.292Z</time></trkpt><trkpt lat="39.7628124" lon="9.6017935"><ele>111.0</ele><time>2026-04-18T14:06:13.292Z</time></trkpt><trkpt lat="39.7629006" lon="9.6020814"><ele>111.0</ele><time>2026-04-18T14:06:14.292Z</time></trkpt><trkpt lat="39.7629737" lon="9.6024031"><ele>111.0</ele><time>2026-04-18T14:06:15.292Z</time></trkpt><trkpt lat="39.763038" lon="9.6027209"><ele>106.5</ele><time>2026-04-18T14:06:16.292Z</time></trkpt><trkpt lat="39.7631044" lon="9.6030686"><ele>102.0</ele><time>2026-04-18T14:06:17.292Z</time></trkpt><trkpt lat="39.7631535" lon="9.6034342"><ele>100.0</ele><time>2026-04-18T14:06:18.292Z</time></trkpt><trkpt lat="39.7631869" lon="9.6038263"><ele>98.0</ele><time>2026-04-18T14:06:19.292Z</time></trkpt><trkpt lat="39.7632053" lon="9.6042189"><ele>98.0</ele><time>2026-04-18T14:06:20.292Z</time></trkpt><trkpt lat="39.7632155" lon="9.6045953"><ele>98.0</ele><time>2026-04-18T14:06:21.292Z</time></trkpt><trkpt lat="39.7632257" lon="9.6049573"><ele>98.0</ele><time>2026-04-18T14:06:22.292Z</time></trkpt><trkpt lat="39.7632318" lon="9.6053012"><ele>98.0</ele><time>2026-04-18T14:06:23.293Z</time></trkpt><trkpt lat="39.7632411" lon="9.6056292"><ele>97.0</ele><time>2026-04-18T14:06:24.292Z</time></trkpt><trkpt lat="39.7632472" lon="9.6059559"><ele>96.0</ele><time>2026-04-18T14:06:25.292Z</time></trkpt><trkpt lat="39.7632549" lon="9.6062785"><ele>95.5</ele><time>2026-04-18T14:06:26.292Z</time></trkpt><trkpt lat="39.7632623" lon="9.6065936"><ele>95.0</ele><time>2026-04-18T14:06:27.293Z</time></trkpt><trkpt lat="39.7632732" lon="9.6069005"><ele>94.5</ele><time>2026-04-18T14:06:28.292Z</time></trkpt><trkpt lat="39.7632889" lon="9.6071999"><ele>94.0</ele><time>2026-04-18T14:06:29.292Z</time></trkpt><trkpt lat="39.763306" lon="9.607502"><ele>94.0</ele><time>2026-04-18T14:06:30.291Z</time></trkpt><trkpt lat="39.7633251" lon="9.6078064"><ele>94.0</ele><time>2026-04-18T14:06:31.292Z</time></trkpt><trkpt lat="39.7633473" lon="9.6081131"><ele>95.0</ele><time>2026-04-18T14:06:32.293Z</time></trkpt><trkpt lat="39.7633769" lon="9.6084188"><ele>96.0</ele><time>2026-04-18T14:06:33.292Z</time></trkpt><trkpt lat="39.7634136" lon="9.6087251"><ele>92.5</ele><time>2026-04-18T14:06:34.291Z</time></trkpt><trkpt lat="39.7634571" lon="9.609031"><ele>89.0</ele><time>2026-04-18T14:06:35.293Z</time></trkpt><trkpt lat="39.763517" lon="9.609334"><ele>84.5</ele><time>2026-04-18T14:06:36.293Z</time></trkpt><trkpt lat="39.76359" lon="9.6096353"><ele>80.0</ele><time>2026-04-18T14:06:37.292Z</time></trkpt><trkpt lat="39.7636708" lon="9.6099284"><ele>80.0</ele><time>2026-04-18T14:06:38.292Z</time></trkpt><trkpt lat="39.7637626" lon="9.6102213"><ele>80.0</ele><time>2026-04-18T14:06:39.292Z</time></trkpt><trkpt lat="39.7638637" lon="9.6105048"><ele>78.0</ele><time>2026-04-18T14:06:40.292Z</time></trkpt><trkpt lat="39.7639786" lon="9.6107795"><ele>76.0</ele><time>2026-04-18T14:06:41.293Z</time></trkpt><trkpt lat="39.7641026" lon="9.6110415"><ele>75.5</ele><time>2026-04-18T14:06:42.292Z</time></trkpt><trkpt lat="39.7642339" lon="9.6112995"><ele>75.0</ele><time>2026-04-18T14:06:43.292Z</time></trkpt><trkpt lat="39.7643744" lon="9.6115406"><ele>75.0</ele><time>2026-04-18T14:06:44.292Z</time></trkpt><trkpt lat="39.7645242" lon="9.6117723"><ele>75.0</ele><time>2026-04-18T14:06:45.292Z</time></trkpt><trkpt lat="39.7646855" lon="9.6119957"><ele>76.5</ele><time>2026-04-18T14:06:46.293Z</time></trkpt><trkpt lat="39.7648585" lon="9.6122085"><ele>78.0</ele><time>2026-04-18T14:06:47.292Z</time></trkpt><trkpt lat="39.7650416" lon="9.6124046"><ele>75.5</ele><time>2026-04-18T14:06:48.292Z</time></trkpt><trkpt lat="39.7652277" lon="9.6125965"><ele>73.0</ele><time>2026-04-18T14:06:49.292Z</time></trkpt><trkpt lat="39.7654169" lon="9.6127752"><ele>74.0</ele><time>2026-04-18T14:06:50.292Z</time></trkpt><trkpt lat="39.7656086" lon="9.6129367"><ele>75.0</ele><time>2026-04-18T14:06:51.292Z</time></trkpt><trkpt lat="39.7658176" lon="9.6130848"><ele>75.0</ele><time>2026-04-18T14:06:52.291Z</time></trkpt><trkpt lat="39.7660269" lon="9.6132097"><ele>75.0</ele><time>2026-04-18T14:06:53.292Z</time></trkpt><trkpt lat="39.766243" lon="9.6133217"><ele>71.5</ele><time>2026-04-18T14:06:54.292Z</time></trkpt><trkpt lat="39.7664649" lon="9.6134207"><ele>68.0</ele><time>2026-04-18T14:06:55.292Z</time></trkpt><trkpt lat="39.7666933" lon="9.6135101"><ele>67.5</ele><time>2026-04-18T14:06:56.293Z</time></trkpt><trkpt lat="39.7669254" lon="9.6135899"><ele>67.0</ele><time>2026-04-18T14:06:57.292Z</time></trkpt><trkpt lat="39.7671618" lon="9.6136541"><ele>67.0</ele><time>2026-04-18T14:06:58.291Z</time></trkpt><trkpt lat="39.7674013" lon="9.6137048"><ele>67.0</ele><time>2026-04-18T14:06:59.291Z</time></trkpt><trkpt lat="39.767643" lon="9.6137367"><ele>65.5</ele><time>2026-04-18T14:07:00.292Z</time></trkpt><trkpt lat="39.7678844" lon="9.613754"><ele>64.0</ele><time>2026-04-18T14:07:01.292Z</time></trkpt><trkpt lat="39.7681238" lon="9.6137547"><ele>64.0</ele><time>2026-04-18T14:07:02.293Z</time></trkpt><trkpt lat="39.7683617" lon="9.6137492"><ele>64.0</ele><time>2026-04-18T14:07:03.291Z</time></trkpt><trkpt lat="39.7686004" lon="9.6137339"><ele>61.5</ele><time>2026-04-18T14:07:04.293Z</time></trkpt><trkpt lat="39.7688382" lon="9.6137143"><ele>59.0</ele><time>2026-04-18T14:07:05.292Z</time></trkpt><trkpt lat="39.7690744" lon="9.613688"><ele>59.0</ele><time>2026-04-18T14:07:06.292Z</time></trkpt><trkpt lat="39.7693029" lon="9.6136635"><ele>59.0</ele><time>2026-04-18T14:07:07.293Z</time></trkpt><trkpt lat="39.7695347" lon="9.613637"><ele>59.0</ele><time>2026-04-18T14:07:08.292Z</time></trkpt><trkpt lat="39.7697676" lon="9.6136068"><ele>59.0</ele><time>2026-04-18T14:07:09.292Z</time></trkpt><trkpt lat="39.7700014" lon="9.6135726"><ele>58.5</ele><time>2026-04-18T14:07:10.291Z</time></trkpt><trkpt lat="39.7702328" lon="9.6135435"><ele>58.0</ele><time>2026-04-18T14:07:11.291Z</time></trkpt><trkpt lat="39.7704639" lon="9.613514"><ele>58.0</ele><time>2026-04-18T14:07:12.292Z</time></trkpt><trkpt lat="39.770695" lon="9.6134846"><ele>58.0</ele><time>2026-04-18T14:07:13.293Z</time></trkpt><trkpt lat="39.7709277" lon="9.6134681"><ele>57.0</ele><time>2026-04-18T14:07:14.291Z</time></trkpt><trkpt lat="39.7711615" lon="9.6134664"><ele>56.0</ele><time>2026-04-18T14:07:15.292Z</time></trkpt><trkpt lat="39.7713953" lon="9.6134796"><ele>56.0</ele><time>2026-04-18T14:07:16.292Z</time></trkpt><trkpt lat="39.7716291" lon="9.6135116"><ele>56.0</ele><time>2026-04-18T14:07:17.291Z</time></trkpt><trkpt lat="39.7718628" lon="9.613562"><ele>57.5</ele><time>2026-04-18T14:07:18.291Z</time></trkpt><trkpt lat="39.7720986" lon="9.6136234"><ele>59.0</ele><time>2026-04-18T14:07:19.292Z</time></trkpt><trkpt lat="39.7723323" lon="9.6136956"><ele>59.0</ele><time>2026-04-18T14:07:20.292Z</time></trkpt><trkpt lat="39.7725652" lon="9.6137686"><ele>59.0</ele><time>2026-04-18T14:07:21.291Z</time></trkpt><trkpt lat="39.7727996" lon="9.6138426"><ele>55.0</ele><time>2026-04-18T14:07:22.292Z</time></trkpt><trkpt lat="39.7730336" lon="9.6139117"><ele>51.0</ele><time>2026-04-18T14:07:23.293Z</time></trkpt><trkpt lat="39.7732669" lon="9.6139813"><ele>51.0</ele><time>2026-04-18T14:07:24.291Z</time></trkpt><trkpt lat="39.7734992" lon="9.61405"><ele>51.0</ele><time>2026-04-18T14:07:25.292Z</time></trkpt><trkpt lat="39.7737324" lon="9.6141193"><ele>49.5</ele><time>2026-04-18T14:07:26.292Z</time></trkpt><trkpt lat="39.7739651" lon="9.6141887"><ele>48.0</ele><time>2026-04-18T14:07:27.293Z</time></trkpt><trkpt lat="39.7741983" lon="9.6142577"><ele>47.5</ele><time>2026-04-18T14:07:28.292Z</time></trkpt><trkpt lat="39.7744324" lon="9.6143294"><ele>47.0</ele><time>2026-04-18T14:07:29.292Z</time></trkpt><trkpt lat="39.7746662" lon="9.614401"><ele>47.0</ele><time>2026-04-18T14:07:30.293Z</time></trkpt><trkpt lat="39.7749011" lon="9.6144726"><ele>47.0</ele><time>2026-04-18T14:07:31.292Z</time></trkpt><trkpt lat="39.7751369" lon="9.6145424"><ele>46.0</ele><time>2026-04-18T14:07:32.291Z</time></trkpt><trkpt lat="39.7753729" lon="9.6146073"><ele>45.0</ele><time>2026-04-18T14:07:33.291Z</time></trkpt><trkpt lat="39.7756087" lon="9.6146642"><ele>45.0</ele><time>2026-04-18T14:07:34.292Z</time></trkpt><trkpt lat="39.7758465" lon="9.6147124"><ele>45.0</ele><time>2026-04-18T14:07:35.292Z</time></trkpt><trkpt lat="39.7760835" lon="9.6147519"><ele>42.0</ele><time>2026-04-18T14:07:36.292Z</time></trkpt><trkpt lat="39.7763205" lon="9.6147826"><ele>39.0</ele><time>2026-04-18T14:07:37.293Z</time></trkpt><trkpt lat="39.7765578" lon="9.6148051"><ele>39.0</ele><time>2026-04-18T14:07:38.292Z</time></trkpt><trkpt lat="39.7767956" lon="9.6148197"><ele>39.0</ele><time>2026-04-18T14:07:39.292Z</time></trkpt><trkpt lat="39.7770335" lon="9.6148227"><ele>38.5</ele><time>2026-04-18T14:07:40.291Z</time></trkpt><trkpt lat="39.7772761" lon="9.6148275"><ele>38.0</ele><time>2026-04-18T14:07:41.292Z</time></trkpt><trkpt lat="39.7775166" lon="9.6148291"><ele>41.5</ele><time>2026-04-18T14:07:42.292Z</time></trkpt><trkpt lat="39.7777525" lon="9.6148301"><ele>45.0</ele><time>2026-04-18T14:07:43.292Z</time></trkpt><trkpt lat="39.7779888" lon="9.6148345"><ele>45.0</ele><time>2026-04-18T14:07:44.292Z</time></trkpt><trkpt lat="39.7782228" lon="9.6148336"><ele>45.0</ele><time>2026-04-18T14:07:45.292Z</time></trkpt><trkpt lat="39.7784553" lon="9.6148294"><ele>47.5</ele><time>2026-04-18T14:07:46.292Z</time></trkpt><trkpt lat="39.7786893" lon="9.6148274"><ele>50.0</ele><time>2026-04-18T14:07:47.292Z</time></trkpt><trkpt lat="39.7789243" lon="9.6148252"><ele>50.0</ele><time>2026-04-18T14:07:48.292Z</time></trkpt><trkpt lat="39.7791571" lon="9.6148201"><ele>50.0</ele><time>2026-04-18T14:07:49.292Z</time></trkpt><trkpt lat="39.7793897" lon="9.6148177"><ele>50.0</ele><time>2026-04-18T14:07:50.292Z</time></trkpt><trkpt lat="39.7796236" lon="9.6148124"><ele>50.0</ele><time>2026-04-18T14:07:51.293Z</time></trkpt><trkpt lat="39.7798584" lon="9.614798"><ele>50.0</ele><time>2026-04-18T14:07:52.293Z</time></trkpt><trkpt lat="39.7800932" lon="9.6147773"><ele>50.0</ele><time>2026-04-18T14:07:53.291Z</time></trkpt><trkpt lat="39.7803281" lon="9.6147461"><ele>48.0</ele><time>2026-04-18T14:07:54.291Z</time></trkpt><trkpt lat="39.7805627" lon="9.6147052"><ele>46.0</ele><time>2026-04-18T14:07:55.292Z</time></trkpt><trkpt lat="39.7807964" lon="9.6146499"><ele>49.5</ele><time>2026-04-18T14:07:56.292Z</time></trkpt><trkpt lat="39.7810298" lon="9.6145836"><ele>53.0</ele><time>2026-04-18T14:07:57.292Z</time></trkpt><trkpt lat="39.7812598" lon="9.6145001"><ele>52.5</ele><time>2026-04-18T14:07:58.291Z</time></trkpt><trkpt lat="39.7814874" lon="9.6144002"><ele>52.0</ele><time>2026-04-18T14:07:59.292Z</time></trkpt><trkpt lat="39.7817099" lon="9.6142891"><ele>55.0</ele><time>2026-04-18T14:08:00.292Z</time></trkpt><trkpt lat="39.7819287" lon="9.6141685"><ele>58.0</ele><time>2026-04-18T14:08:01.292Z</time></trkpt><trkpt lat="39.7821429" lon="9.614037"><ele>58.0</ele><time>2026-04-18T14:08:02.292Z</time></trkpt><trkpt lat="39.7823516" lon="9.6138918"><ele>58.0</ele><time>2026-04-18T14:08:03.292Z</time></trkpt><trkpt lat="39.7825562" lon="9.6137368"><ele>65.5</ele><time>2026-04-18T14:08:04.292Z</time></trkpt><trkpt lat="39.782757" lon="9.6135671"><ele>73.0</ele><time>2026-04-18T14:08:05.292Z</time></trkpt><trkpt lat="39.7829544" lon="9.6133867"><ele>73.0</ele><time>2026-04-18T14:08:06.292Z</time></trkpt><trkpt lat="39.7831465" lon="9.6131956"><ele>73.0</ele><time>2026-04-18T14:08:07.293Z</time></trkpt><trkpt lat="39.783333" lon="9.6129929"><ele>70.0</ele><time>2026-04-18T14:08:08.291Z</time></trkpt><trkpt lat="39.7835134" lon="9.6127837"><ele>67.0</ele><time>2026-04-18T14:08:09.292Z</time></trkpt><trkpt lat="39.7836883" lon="9.6125687"><ele>75.0</ele><time>2026-04-18T14:08:10.292Z</time></trkpt><trkpt lat="39.783864" lon="9.6123439"><ele>83.0</ele><time>2026-04-18T14:08:11.292Z</time></trkpt><trkpt lat="39.7840364" lon="9.6121172"><ele>86.5</ele><time>2026-04-18T14:08:12.293Z</time></trkpt><trkpt lat="39.7842059" lon="9.6118913"><ele>90.0</ele><time>2026-04-18T14:08:13.291Z</time></trkpt><trkpt lat="39.7843723" lon="9.6116629"><ele>90.0</ele><time>2026-04-18T14:08:14.292Z</time></trkpt><trkpt lat="39.78454" lon="9.6114368"><ele>90.0</ele><time>2026-04-18T14:08:15.292Z</time></trkpt><trkpt lat="39.7847118" lon="9.6112133"><ele>83.5</ele><time>2026-04-18T14:08:16.292Z</time></trkpt><trkpt lat="39.7848879" lon="9.6109958"><ele>77.0</ele><time>2026-04-18T14:08:17.292Z</time></trkpt><trkpt lat="39.7850642" lon="9.610787"><ele>78.5</ele><time>2026-04-18T14:08:18.292Z</time></trkpt><trkpt lat="39.7852425" lon="9.6105816"><ele>80.0</ele><time>2026-04-18T14:08:19.292Z</time></trkpt><trkpt lat="39.7854261" lon="9.6103811"><ele>71.5</ele><time>2026-04-18T14:08:20.293Z</time></trkpt><trkpt lat="39.7856183" lon="9.610194"><ele>63.0</ele><time>2026-04-18T14:08:21.291Z</time></trkpt><trkpt lat="39.7858169" lon="9.610016"><ele>64.5</ele><time>2026-04-18T14:08:22.291Z</time></trkpt><trkpt lat="39.7860253" lon="9.6098551"><ele>66.0</ele><time>2026-04-18T14:08:23.292Z</time></trkpt><trkpt lat="39.78624" lon="9.6097053"><ele>66.0</ele><time>2026-04-18T14:08:24.291Z</time></trkpt><trkpt lat="39.7864583" lon="9.6095647"><ele>66.0</ele><time>2026-04-18T14:08:25.291Z</time></trkpt><trkpt lat="39.7866816" lon="9.6094379"><ele>61.5</ele><time>2026-04-18T14:08:26.292Z</time></trkpt><trkpt lat="39.786906" lon="9.6093215"><ele>57.0</ele><time>2026-04-18T14:08:27.291Z</time></trkpt><trkpt lat="39.7871325" lon="9.6092163"><ele>57.0</ele><time>2026-04-18T14:08:28.291Z</time></trkpt><trkpt lat="39.7873616" lon="9.6091332"><ele>57.0</ele><time>2026-04-18T14:08:29.292Z</time></trkpt><trkpt lat="39.7875932" lon="9.6090595"><ele>55.0</ele><time>2026-04-18T14:08:30.292Z</time></trkpt><trkpt lat="39.7878225" lon="9.6090031"><ele>53.0</ele><time>2026-04-18T14:08:31.291Z</time></trkpt><trkpt lat="39.7880512" lon="9.6089605"><ele>53.0</ele><time>2026-04-18T14:08:32.292Z</time></trkpt><trkpt lat="39.7882855" lon="9.6089325"><ele>53.0</ele><time>2026-04-18T14:08:33.293Z</time></trkpt><trkpt lat="39.7885205" lon="9.6089141"><ele>51.0</ele><time>2026-04-18T14:08:34.292Z</time></trkpt><trkpt lat="39.7887557" lon="9.608902"><ele>49.0</ele><time>2026-04-18T14:08:35.292Z</time></trkpt><trkpt lat="39.7889878" lon="9.6088929"><ele>49.0</ele><time>2026-04-18T14:08:36.292Z</time></trkpt><trkpt lat="39.7892228" lon="9.6088939"><ele>49.0</ele><time>2026-04-18T14:08:37.292Z</time></trkpt><trkpt lat="39.789458" lon="9.6089036"><ele>46.0</ele><time>2026-04-18T14:08:38.293Z</time></trkpt><trkpt lat="39.7896936" lon="9.6089191"><ele>43.0</ele><time>2026-04-18T14:08:39.291Z</time></trkpt><trkpt lat="39.7899269" lon="9.6089312"><ele>43.0</ele><time>2026-04-18T14:08:40.291Z</time></trkpt><trkpt lat="39.7901588" lon="9.6089404"><ele>43.0</ele><time>2026-04-18T14:08:41.292Z</time></trkpt><trkpt lat="39.7903901" lon="9.6089528"><ele>43.5</ele><time>2026-04-18T14:08:42.292Z</time></trkpt><trkpt lat="39.7906225" lon="9.6089635"><ele>44.0</ele><time>2026-04-18T14:08:43.292Z</time></trkpt><trkpt lat="39.7908604" lon="9.6089732"><ele>44.0</ele><time>2026-04-18T14:08:44.292Z</time></trkpt><trkpt lat="39.7911009" lon="9.6089776"><ele>44.0</ele><time>2026-04-18T14:08:45.291Z</time></trkpt><trkpt lat="39.7913431" lon="9.6089865"><ele>44.0</ele><time>2026-04-18T14:08:46.292Z</time></trkpt><trkpt lat="39.791586" lon="9.6090051"><ele>44.0</ele><time>2026-04-18T14:08:47.291Z</time></trkpt><trkpt lat="39.7918251" lon="9.6090296"><ele>41.0</ele><time>2026-04-18T14:08:48.292Z</time></trkpt><trkpt lat="39.7920599" lon="9.6090685"><ele>38.0</ele><time>2026-04-18T14:08:49.292Z</time></trkpt><trkpt lat="39.7922909" lon="9.6091163"><ele>38.0</ele><time>2026-04-18T14:08:50.292Z</time></trkpt><trkpt lat="39.7925211" lon="9.6091774"><ele>38.0</ele><time>2026-04-18T14:08:51.292Z</time></trkpt><trkpt lat="39.7927501" lon="9.6092507"><ele>36.5</ele><time>2026-04-18T14:08:52.293Z</time></trkpt><trkpt lat="39.7929766" lon="9.6093378"><ele>35.0</ele><time>2026-04-18T14:08:53.293Z</time></trkpt><trkpt lat="39.7932023" lon="9.6094408"><ele>35.0</ele><time>2026-04-18T14:08:54.292Z</time></trkpt><trkpt lat="39.7934259" lon="9.6095556"><ele>35.0</ele><time>2026-04-18T14:08:55.291Z</time></trkpt><trkpt lat="39.7936464" lon="9.6096813"><ele>33.5</ele><time>2026-04-18T14:08:56.291Z</time></trkpt><trkpt lat="39.7938616" lon="9.6098187"><ele>32.0</ele><time>2026-04-18T14:08:57.292Z</time></trkpt><trkpt lat="39.7940707" lon="9.6099679"><ele>32.0</ele><time>2026-04-18T14:08:58.292Z</time></trkpt><trkpt lat="39.794274" lon="9.6101334"><ele>32.0</ele><time>2026-04-18T14:08:59.292Z</time></trkpt><trkpt lat="39.7944685" lon="9.6103098"><ele>31.0</ele><time>2026-04-18T14:09:00.292Z</time></trkpt><trkpt lat="39.7946576" lon="9.6104854"><ele>30.0</ele><time>2026-04-18T14:09:01.292Z</time></trkpt><trkpt lat="39.7948454" lon="9.6106665"><ele>30.0</ele><time>2026-04-18T14:09:02.292Z</time></trkpt><trkpt lat="39.7950286" lon="9.6108493"><ele>30.0</ele><time>2026-04-18T14:09:03.292Z</time></trkpt><trkpt lat="39.7952125" lon="9.6110339"><ele>31.0</ele><time>2026-04-18T14:09:04.292Z</time></trkpt><trkpt lat="39.7953991" lon="9.6112198"><ele>32.0</ele><time>2026-04-18T14:09:05.292Z</time></trkpt><trkpt lat="39.7955834" lon="9.6114051"><ele>32.0</ele><time>2026-04-18T14:09:06.291Z</time></trkpt><trkpt lat="39.7957681" lon="9.61159"><ele>32.0</ele><time>2026-04-18T14:09:07.292Z</time></trkpt><trkpt lat="39.7959538" lon="9.6117804"><ele>34.5</ele><time>2026-04-18T14:09:08.292Z</time></trkpt><trkpt lat="39.7961412" lon="9.611969"><ele>37.0</ele><time>2026-04-18T14:09:09.292Z</time></trkpt><trkpt lat="39.7963301" lon="9.6121563"><ele>39.0</ele><time>2026-04-18T14:09:10.292Z</time></trkpt><trkpt lat="39.7965148" lon="9.6123465"><ele>41.0</ele><time>2026-04-18T14:09:11.292Z</time></trkpt><trkpt lat="39.7967026" lon="9.6125377"><ele>44.5</ele><time>2026-04-18T14:09:12.293Z</time></trkpt><trkpt lat="39.7968898" lon="9.6127327"><ele>48.0</ele><time>2026-04-18T14:09:13.292Z</time></trkpt><trkpt lat="39.7970839" lon="9.6129184"><ele>48.0</ele><time>2026-04-18T14:09:14.292Z</time></trkpt><trkpt lat="39.7972787" lon="9.6131076"><ele>48.0</ele><time>2026-04-18T14:09:15.292Z</time></trkpt><trkpt lat="39.7974815" lon="9.6132884"><ele>52.0</ele><time>2026-04-18T14:09:16.291Z</time></trkpt><trkpt lat="39.7976887" lon="9.613463"><ele>56.0</ele><time>2026-04-18T14:09:17.291Z</time></trkpt><trkpt lat="39.7978992" lon="9.6136297"><ele>54.5</ele><time>2026-04-18T14:09:18.291Z</time></trkpt><trkpt lat="39.7981131" lon="9.6137816"><ele>53.0</ele><time>2026-04-18T14:09:19.291Z</time></trkpt><trkpt lat="39.7983324" lon="9.6139304"><ele>54.5</ele><time>2026-04-18T14:09:20.292Z</time></trkpt><trkpt lat="39.7985506" lon="9.6140718"><ele>56.0</ele><time>2026-04-18T14:09:21.293Z</time></trkpt><trkpt lat="39.7987692" lon="9.6142157"><ele>56.0</ele><time>2026-04-18T14:09:22.292Z</time></trkpt><trkpt lat="39.7989865" lon="9.6143572"><ele>56.0</ele><time>2026-04-18T14:09:23.293Z</time></trkpt><trkpt lat="39.7992032" lon="9.6145006"><ele>57.5</ele><time>2026-04-18T14:09:24.293Z</time></trkpt><trkpt lat="39.7994167" lon="9.6146435"><ele>59.0</ele><time>2026-04-18T14:09:25.292Z</time></trkpt><trkpt lat="39.7996251" lon="9.6147787"><ele>59.0</ele><time>2026-04-18T14:09:26.292Z</time></trkpt><trkpt lat="39.7998272" lon="9.6149074"><ele>59.0</ele><time>2026-04-18T14:09:27.292Z</time></trkpt><trkpt lat="39.8000293" lon="9.6150373"><ele>62.5</ele><time>2026-04-18T14:09:28.291Z</time></trkpt><trkpt lat="39.8002404" lon="9.6151701"><ele>66.0</ele><time>2026-04-18T14:09:29.291Z</time></trkpt><trkpt lat="39.800462" lon="9.6153074"><ele>71.5</ele><time>2026-04-18T14:09:30.291Z</time></trkpt><trkpt lat="39.8006759" lon="9.6154465"><ele>77.0</ele><time>2026-04-18T14:09:31.291Z</time></trkpt><trkpt lat="39.800891" lon="9.6155814"><ele>83.0</ele><time>2026-04-18T14:09:32.292Z</time></trkpt><trkpt lat="39.8011045" lon="9.6157209"><ele>89.0</ele><time>2026-04-18T14:09:33.292Z</time></trkpt><trkpt lat="39.8013164" lon="9.6158643"><ele>65.0</ele><time>2026-04-18T14:09:34.292Z</time></trkpt><trkpt lat="39.8121734" lon="9.6296855"><ele>65.0</ele><time>2026-04-18T14:10:38.292Z</time></trkpt><trkpt lat="39.812333" lon="9.6299066"><ele>65.0</ele><time>2026-04-18T14:10:39.291Z</time></trkpt><trkpt lat="39.8124995" lon="9.6301212"><ele>65.0</ele><time>2026-04-18T14:10:40.292Z</time></trkpt><trkpt lat="39.8126802" lon="9.6303334"><ele>65.0</ele><time>2026-04-18T14:10:41.292Z</time></trkpt><trkpt lat="39.8128643" lon="9.6305398"><ele>65.0</ele><time>2026-04-18T14:10:42.292Z</time></trkpt><trkpt lat="39.8130642" lon="9.6307397"><ele>65.0</ele><time>2026-04-18T14:10:43.292Z</time></trkpt><trkpt lat="39.8132586" lon="9.6309304"><ele>65.0</ele><time>2026-04-18T14:10:44.292Z</time></trkpt><trkpt lat="39.813454" lon="9.6311063"><ele>65.0</ele><time>2026-04-18T14:10:45.293Z</time></trkpt><trkpt lat="39.8136517" lon="9.6312728"><ele>64.5</ele><time>2026-04-18T14:10:46.292Z</time></trkpt><trkpt lat="39.8138521" lon="9.6314329"><ele>64.0</ele><time>2026-04-18T14:10:47.292Z</time></trkpt><trkpt lat="39.8140535" lon="9.6315795"><ele>64.0</ele><time>2026-04-18T14:10:48.293Z</time></trkpt><trkpt lat="39.8142661" lon="9.6317223"><ele>64.0</ele><time>2026-04-18T14:10:49.292Z</time></trkpt><trkpt lat="39.8144851" lon="9.6318553"><ele>58.5</ele><time>2026-04-18T14:10:50.292Z</time></trkpt><trkpt lat="39.8147058" lon="9.6319894"><ele>53.0</ele><time>2026-04-18T14:10:51.292Z</time></trkpt><trkpt lat="39.8149271" lon="9.6321217"><ele>53.0</ele><time>2026-04-18T14:10:52.292Z</time></trkpt><trkpt lat="39.815145" lon="9.6322515"><ele>53.0</ele><time>2026-04-18T14:10:53.292Z</time></trkpt><trkpt lat="39.815362" lon="9.6323853"><ele>51.0</ele><time>2026-04-18T14:10:54.292Z</time></trkpt><trkpt lat="39.815584" lon="9.6325215"><ele>49.0</ele><time>2026-04-18T14:10:55.293Z</time></trkpt><trkpt lat="39.815804" lon="9.632659"><ele>48.0</ele><time>2026-04-18T14:10:56.291Z</time></trkpt><trkpt lat="39.816022" lon="9.6328026"><ele>47.0</ele><time>2026-04-18T14:10:57.292Z</time></trkpt><trkpt lat="39.8162345" lon="9.6329532"><ele>46.5</ele><time>2026-04-18T14:10:58.292Z</time></trkpt><trkpt lat="39.8164387" lon="9.6331111"><ele>46.0</ele><time>2026-04-18T14:10:59.292Z</time></trkpt><trkpt lat="39.816635" lon="9.633283"><ele>47.0</ele><time>2026-04-18T14:11:00.292Z</time></trkpt><trkpt lat="39.8168319" lon="9.6334596"><ele>48.0</ele><time>2026-04-18T14:11:01.292Z</time></trkpt><trkpt lat="39.8170245" lon="9.6336476"><ele>48.0</ele><time>2026-04-18T14:11:02.293Z</time></trkpt><trkpt lat="39.8172152" lon="9.6338355"><ele>48.0</ele><time>2026-04-18T14:11:03.291Z</time></trkpt><trkpt lat="39.817405" lon="9.6340283"><ele>48.0</ele><time>2026-04-18T14:11:04.291Z</time></trkpt><trkpt lat="39.8175941" lon="9.6342278"><ele>48.0</ele><time>2026-04-18T14:11:05.292Z</time></trkpt><trkpt lat="39.8177846" lon="9.6344258"><ele>46.5</ele><time>2026-04-18T14:11:06.291Z</time></trkpt><trkpt lat="39.8179757" lon="9.6346232"><ele>45.0</ele><time>2026-04-18T14:11:07.291Z</time></trkpt><trkpt lat="39.8181676" lon="9.6348163"><ele>45.0</ele><time>2026-04-18T14:11:08.292Z</time></trkpt><trkpt lat="39.8183583" lon="9.6350089"><ele>45.0</ele><time>2026-04-18T14:11:09.291Z</time></trkpt><trkpt lat="39.8185472" lon="9.6352043"><ele>46.0</ele><time>2026-04-18T14:11:10.291Z</time></trkpt><trkpt lat="39.8187336" lon="9.6353976"><ele>47.0</ele><time>2026-04-18T14:11:11.293Z</time></trkpt><trkpt lat="39.8189181" lon="9.6355917"><ele>47.0</ele><time>2026-04-18T14:11:12.293Z</time></trkpt><trkpt lat="39.8191041" lon="9.6357828"><ele>47.0</ele><time>2026-04-18T14:11:13.292Z</time></trkpt><trkpt lat="39.8192881" lon="9.6359718"><ele>47.5</ele><time>2026-04-18T14:11:14.291Z</time></trkpt><trkpt lat="39.8194724" lon="9.6361616"><ele>48.0</ele><time>2026-04-18T14:11:15.293Z</time></trkpt><trkpt lat="39.8196581" lon="9.6363562"><ele>48.0</ele><time>2026-04-18T14:11:16.292Z</time></trkpt><trkpt lat="39.8198465" lon="9.6365464"><ele>48.0</ele><time>2026-04-18T14:11:17.291Z</time></trkpt><trkpt lat="39.8200315" lon="9.6367306"><ele>49.5</ele><time>2026-04-18T14:11:18.291Z</time></trkpt><trkpt lat="39.8202166" lon="9.6369131"><ele>51.0</ele><time>2026-04-18T14:11:19.291Z</time></trkpt><trkpt lat="39.8203966" lon="9.6370981"><ele>52.0</ele><time>2026-04-18T14:11:20.292Z</time></trkpt><trkpt lat="39.8205789" lon="9.6372796"><ele>53.0</ele><time>2026-04-18T14:11:21.292Z</time></trkpt><trkpt lat="39.8207639" lon="9.6374676"><ele>53.0</ele><time>2026-04-18T14:11:22.292Z</time></trkpt><trkpt lat="39.8209512" lon="9.6376626"><ele>53.0</ele><time>2026-04-18T14:11:23.292Z</time></trkpt><trkpt lat="39.8211396" lon="9.637863"><ele>51.5</ele><time>2026-04-18T14:11:24.291Z</time></trkpt><trkpt lat="39.8213308" lon="9.6380667"><ele>50.0</ele><time>2026-04-18T14:11:25.291Z</time></trkpt><trkpt lat="39.8215236" lon="9.6382705"><ele>50.0</ele><time>2026-04-18T14:11:26.291Z</time></trkpt><trkpt lat="39.821714" lon="9.638472"><ele>50.0</ele><time>2026-04-18T14:11:27.292Z</time></trkpt><trkpt lat="39.8219019" lon="9.638663"><ele>46.5</ele><time>2026-04-18T14:11:28.291Z</time></trkpt><trkpt lat="39.8220836" lon="9.6388559"><ele>43.0</ele><time>2026-04-18T14:11:29.292Z</time></trkpt><trkpt lat="39.8222689" lon="9.6390429"><ele>43.0</ele><time>2026-04-18T14:11:30.292Z</time></trkpt><trkpt lat="39.8224509" lon="9.6392336"><ele>43.0</ele><time>2026-04-18T14:11:31.291Z</time></trkpt><trkpt lat="39.8226349" lon="9.6394142"><ele>45.5</ele><time>2026-04-18T14:11:32.291Z</time></trkpt><trkpt lat="39.8228189" lon="9.6396023"><ele>48.0</ele><time>2026-04-18T14:11:33.291Z</time></trkpt><trkpt lat="39.8230019" lon="9.6397922"><ele>48.0</ele><time>2026-04-18T14:11:34.291Z</time></trkpt><trkpt lat="39.8231841" lon="9.6399811"><ele>48.0</ele><time>2026-04-18T14:11:35.292Z</time></trkpt><trkpt lat="39.8233751" lon="9.6401674"><ele>45.0</ele><time>2026-04-18T14:11:36.293Z</time></trkpt><trkpt lat="39.823569" lon="9.6403463"><ele>42.0</ele><time>2026-04-18T14:11:37.292Z</time></trkpt><trkpt lat="39.8237691" lon="9.6405137"><ele>42.0</ele><time>2026-04-18T14:11:38.292Z</time></trkpt><trkpt lat="39.8239765" lon="9.6406656"><ele>42.0</ele><time>2026-04-18T14:11:39.292Z</time></trkpt><trkpt lat="39.8241934" lon="9.6408053"><ele>40.0</ele><time>2026-04-18T14:11:40.29Z</time></trkpt><trkpt lat="39.824406" lon="9.640943"><ele>38.0</ele><time>2026-04-18T14:11:41.291Z</time></trkpt><trkpt lat="39.8246199" lon="9.641079"><ele>36.0</ele><time>2026-04-18T14:11:42.29Z</time></trkpt><trkpt lat="39.8248383" lon="9.6412139"><ele>34.0</ele><time>2026-04-18T14:11:43.29Z</time></trkpt><trkpt lat="39.8250559" lon="9.6413436"><ele>33.5</ele><time>2026-04-18T14:11:44.291Z</time></trkpt><trkpt lat="39.8252719" lon="9.6414709"><ele>33.0</ele><time>2026-04-18T14:11:45.291Z</time></trkpt><trkpt lat="39.8254928" lon="9.641593"><ele>33.0</ele><time>2026-04-18T14:11:46.291Z</time></trkpt><trkpt lat="39.8257113" lon="9.6417178"><ele>33.0</ele><time>2026-04-18T14:11:47.29Z</time></trkpt><trkpt lat="39.8259311" lon="9.6418436"><ele>33.0</ele><time>2026-04-18T14:11:48.291Z</time></trkpt><trkpt lat="39.8261491" lon="9.6419676"><ele>33.0</ele><time>2026-04-18T14:11:49.29Z</time></trkpt><trkpt lat="39.826366" lon="9.6420919"><ele>33.0</ele><time>2026-04-18T14:11:50.291Z</time></trkpt><trkpt lat="39.8265826" lon="9.6422138"><ele>33.0</ele><time>2026-04-18T14:11:51.291Z</time></trkpt><trkpt lat="39.8268025" lon="9.642339"><ele>36.0</ele><time>2026-04-18T14:11:52.292Z</time></trkpt><trkpt lat="39.8270225" lon="9.6424627"><ele>39.0</ele><time>2026-04-18T14:11:53.291Z</time></trkpt><trkpt lat="39.8272393" lon="9.6425892"><ele>39.0</ele><time>2026-04-18T14:11:54.291Z</time></trkpt><trkpt lat="39.8274566" lon="9.6427184"><ele>39.0</ele><time>2026-04-18T14:11:55.291Z</time></trkpt><trkpt lat="39.8276725" lon="9.6428434"><ele>41.5</ele><time>2026-04-18T14:11:56.292Z</time></trkpt><trkpt lat="39.8278872" lon="9.6429679"><ele>44.0</ele><time>2026-04-18T14:11:57.291Z</time></trkpt><trkpt lat="39.828101" lon="9.643092"><ele>44.0</ele><time>2026-04-18T14:11:58.291Z</time></trkpt><trkpt lat="39.8283138" lon="9.6432183"><ele>44.0</ele><time>2026-04-18T14:11:59.291Z</time></trkpt><trkpt lat="39.8285275" lon="9.6433434"><ele>45.0</ele><time>2026-04-18T14:12:00.291Z</time></trkpt><trkpt lat="39.8287387" lon="9.6434673"><ele>46.0</ele><time>2026-04-18T14:12:01.291Z</time></trkpt><trkpt lat="39.828943" lon="9.6435881"><ele>48.0</ele><time>2026-04-18T14:12:02.29Z</time></trkpt><trkpt lat="39.8291532" lon="9.6437082"><ele>50.0</ele><time>2026-04-18T14:12:03.291Z</time></trkpt><trkpt lat="39.8293663" lon="9.6438306"><ele>50.0</ele><time>2026-04-18T14:12:04.29Z</time></trkpt><trkpt lat="39.8295829" lon="9.6439522"><ele>50.0</ele><time>2026-04-18T14:12:05.29Z</time></trkpt><trkpt lat="39.8297981" lon="9.6440732"><ele>50.0</ele><time>2026-04-18T14:12:06.29Z</time></trkpt><trkpt lat="39.8300107" lon="9.6441962"><ele>50.0</ele><time>2026-04-18T14:12:07.29Z</time></trkpt><trkpt lat="39.8302214" lon="9.6443185"><ele>56.5</ele><time>2026-04-18T14:12:08.29Z</time></trkpt><trkpt lat="39.830433" lon="9.6444411"><ele>63.0</ele><time>2026-04-18T14:12:09.29Z</time></trkpt><trkpt lat="39.8306483" lon="9.644556"><ele>63.0</ele><time>2026-04-18T14:12:10.291Z</time></trkpt><trkpt lat="39.8308672" lon="9.644658"><ele>63.0</ele><time>2026-04-18T14:12:11.291Z</time></trkpt><trkpt lat="39.8310907" lon="9.6447503"><ele>70.0</ele><time>2026-04-18T14:12:12.291Z</time></trkpt><trkpt lat="39.8313174" lon="9.6448341"><ele>77.0</ele><time>2026-04-18T14:12:13.292Z</time></trkpt><trkpt lat="39.8315506" lon="9.644911"><ele>77.0</ele><time>2026-04-18T14:12:14.291Z</time></trkpt><trkpt lat="39.8317847" lon="9.6449715"><ele>77.0</ele><time>2026-04-18T14:12:15.29Z</time></trkpt><trkpt lat="39.8320184" lon="9.6450149"><ele>72.0</ele><time>2026-04-18T14:12:16.29Z</time></trkpt><trkpt lat="39.8327425" lon="9.6450264"><ele>72.0</ele><time>2026-04-18T14:12:19.292Z</time></trkpt><trkpt lat="39.8329972" lon="9.6449809"><ele>72.0</ele><time>2026-04-18T14:12:20.291Z</time></trkpt><trkpt lat="39.8332439" lon="9.6449184"><ele>67.5</ele><time>2026-04-18T14:12:21.29Z</time></trkpt><trkpt lat="39.8334787" lon="9.6448549"><ele>63.0</ele><time>2026-04-18T14:12:22.291Z</time></trkpt><trkpt lat="39.8337133" lon="9.644773"><ele>63.0</ele><time>2026-04-18T14:12:23.29Z</time></trkpt><trkpt lat="39.8339425" lon="9.6446866"><ele>63.0</ele><time>2026-04-18T14:12:24.29Z</time></trkpt><trkpt lat="39.834176" lon="9.6446045"><ele>62.0</ele><time>2026-04-18T14:12:25.29Z</time></trkpt><trkpt lat="39.8344056" lon="9.6445152"><ele>61.0</ele><time>2026-04-18T14:12:26.291Z</time></trkpt><trkpt lat="39.8346382" lon="9.6444279"><ele>71.0</ele><time>2026-04-18T14:12:27.291Z</time></trkpt><trkpt lat="39.8348649" lon="9.6443379"><ele>81.0</ele><time>2026-04-18T14:12:28.29Z</time></trkpt><trkpt lat="39.8350851" lon="9.6442437"><ele>79.5</ele><time>2026-04-18T14:12:29.29Z</time></trkpt><trkpt lat="39.8353053" lon="9.644136"><ele>78.0</ele><time>2026-04-18T14:12:30.29Z</time></trkpt><trkpt lat="39.8355199" lon="9.6440195"><ele>78.0</ele><time>2026-04-18T14:12:31.29Z</time></trkpt><trkpt lat="39.8357299" lon="9.6438935"><ele>78.0</ele><time>2026-04-18T14:12:32.29Z</time></trkpt><trkpt lat="39.8359432" lon="9.6437465"><ele>86.0</ele><time>2026-04-18T14:12:33.29Z</time></trkpt><trkpt lat="39.8361516" lon="9.6435952"><ele>94.0</ele><time>2026-04-18T14:12:34.291Z</time></trkpt><trkpt lat="39.8363513" lon="9.6434358"><ele>94.0</ele><time>2026-04-18T14:12:35.291Z</time></trkpt><trkpt lat="39.8365485" lon="9.6432646"><ele>94.0</ele><time>2026-04-18T14:12:36.291Z</time></trkpt><trkpt lat="39.8367344" lon="9.6430826"><ele>87.0</ele><time>2026-04-18T14:12:37.29Z</time></trkpt><trkpt lat="39.8372645" lon="9.642494"><ele>87.0</ele><time>2026-04-18T14:12:40.291Z</time></trkpt><trkpt lat="39.8374721" lon="9.6422629"><ele>87.0</ele><time>2026-04-18T14:12:41.291Z</time></trkpt><trkpt lat="39.8376576" lon="9.6420396"><ele>82.0</ele><time>2026-04-18T14:12:42.291Z</time></trkpt><trkpt lat="39.8378362" lon="9.6418212"><ele>77.0</ele><time>2026-04-18T14:12:43.292Z</time></trkpt><trkpt lat="39.8380051" lon="9.6416083"><ele>77.0</ele><time>2026-04-18T14:12:44.291Z</time></trkpt><trkpt lat="39.8381769" lon="9.6413939"><ele>77.0</ele><time>2026-04-18T14:12:45.291Z</time></trkpt><trkpt lat="39.8383504" lon="9.6411804"><ele>73.5</ele><time>2026-04-18T14:12:46.291Z</time></trkpt><trkpt lat="39.8385207" lon="9.6409687"><ele>70.0</ele><time>2026-04-18T14:12:47.29Z</time></trkpt><trkpt lat="39.8386914" lon="9.6407517"><ele>70.0</ele><time>2026-04-18T14:12:48.291Z</time></trkpt><trkpt lat="39.8388656" lon="9.6405377"><ele>70.0</ele><time>2026-04-18T14:12:49.291Z</time></trkpt><trkpt lat="39.8390384" lon="9.6403188"><ele>75.0</ele><time>2026-04-18T14:12:50.291Z</time></trkpt><trkpt lat="39.8392087" lon="9.6400945"><ele>80.0</ele><time>2026-04-18T14:12:51.291Z</time></trkpt><trkpt lat="39.8393789" lon="9.6398688"><ele>81.0</ele><time>2026-04-18T14:12:52.291Z</time></trkpt><trkpt lat="39.8395486" lon="9.6396513"><ele>82.0</ele><time>2026-04-18T14:12:53.291Z</time></trkpt><trkpt lat="39.83972" lon="9.6394359"><ele>89.5</ele><time>2026-04-18T14:12:54.291Z</time></trkpt><trkpt lat="39.8398847" lon="9.6392333"><ele>97.0</ele><time>2026-04-18T14:12:55.29Z</time></trkpt><trkpt lat="39.8400525" lon="9.6390281"><ele>94.5</ele><time>2026-04-18T14:12:56.291Z</time></trkpt><trkpt lat="39.8402184" lon="9.6388184"><ele>92.0</ele><time>2026-04-18T14:12:57.29Z</time></trkpt><trkpt lat="39.8403889" lon="9.6386043"><ele>92.0</ele><time>2026-04-18T14:12:58.29Z</time></trkpt><trkpt lat="39.840555" lon="9.6383992"><ele>92.0</ele><time>2026-04-18T14:12:59.292Z</time></trkpt><trkpt lat="39.8407241" lon="9.638187"><ele>92.0</ele><time>2026-04-18T14:13:00.291Z</time></trkpt><trkpt lat="39.8409016" lon="9.6379663"><ele>92.0</ele><time>2026-04-18T14:13:01.291Z</time></trkpt><trkpt lat="39.8410787" lon="9.6377549"><ele>85.5</ele><time>2026-04-18T14:13:02.29Z</time></trkpt><trkpt lat="39.841253" lon="9.6375445"><ele>79.0</ele><time>2026-04-18T14:13:03.291Z</time></trkpt><trkpt lat="39.8414221" lon="9.6373346"><ele>79.0</ele><time>2026-04-18T14:13:04.291Z</time></trkpt><trkpt lat="39.8415957" lon="9.637117"><ele>79.0</ele><time>2026-04-18T14:13:05.291Z</time></trkpt><trkpt lat="39.8417692" lon="9.6368974"><ele>77.0</ele><time>2026-04-18T14:13:06.29Z</time></trkpt><trkpt lat="39.8419373" lon="9.6366883"><ele>75.0</ele><time>2026-04-18T14:13:07.291Z</time></trkpt><trkpt lat="39.8421144" lon="9.6364776"><ele>75.0</ele><time>2026-04-18T14:13:08.291Z</time></trkpt><trkpt lat="39.8423012" lon="9.636272"><ele>75.0</ele><time>2026-04-18T14:13:09.29Z</time></trkpt><trkpt lat="39.8424948" lon="9.6360836"><ele>74.5</ele><time>2026-04-18T14:13:10.292Z</time></trkpt><trkpt lat="39.8426926" lon="9.6359062"><ele>74.0</ele><time>2026-04-18T14:13:11.292Z</time></trkpt><trkpt lat="39.8428951" lon="9.6357437"><ele>74.0</ele><time>2026-04-18T14:13:12.29Z</time></trkpt><trkpt lat="39.8431015" lon="9.6355958"><ele>74.0</ele><time>2026-04-18T14:13:13.291Z</time></trkpt><trkpt lat="39.843316" lon="9.6354649"><ele>75.0</ele><time>2026-04-18T14:13:14.29Z</time></trkpt><trkpt lat="39.8435353" lon="9.6353481"><ele>76.0</ele><time>2026-04-18T14:13:15.291Z</time></trkpt><trkpt lat="39.8437617" lon="9.6352436"><ele>78.5</ele><time>2026-04-18T14:13:16.29Z</time></trkpt><trkpt lat="39.8439905" lon="9.6351575"><ele>81.0</ele><time>2026-04-18T14:13:17.291Z</time></trkpt><trkpt lat="39.844223" lon="9.6350833"><ele>78.0</ele><time>2026-04-18T14:13:18.291Z</time></trkpt><trkpt lat="39.844456" lon="9.6350151"><ele>75.0</ele><time>2026-04-18T14:13:19.291Z</time></trkpt><trkpt lat="39.8446894" lon="9.6349579"><ele>75.0</ele><time>2026-04-18T14:13:20.291Z</time></trkpt><trkpt lat="39.8449399" lon="9.6349169"><ele>75.0</ele><time>2026-04-18T14:13:21.291Z</time></trkpt><trkpt lat="39.8451767" lon="9.634867"><ele>73.0</ele><time>2026-04-18T14:13:22.291Z</time></trkpt><trkpt lat="39.8454166" lon="9.634821"><ele>71.0</ele><time>2026-04-18T14:13:23.291Z</time></trkpt><trkpt lat="39.8456603" lon="9.6347777"><ele>71.0</ele><time>2026-04-18T14:13:24.291Z</time></trkpt><trkpt lat="39.8459051" lon="9.6347275"><ele>71.0</ele><time>2026-04-18T14:13:25.291Z</time></trkpt><trkpt lat="39.8461468" lon="9.6346821"><ele>69.0</ele><time>2026-04-18T14:13:26.291Z</time></trkpt><trkpt lat="39.8463876" lon="9.6346468"><ele>67.0</ele><time>2026-04-18T14:13:27.291Z</time></trkpt><trkpt lat="39.8466288" lon="9.6346136"><ele>60.0</ele><time>2026-04-18T14:13:28.291Z</time></trkpt><trkpt lat="39.8468684" lon="9.6345825"><ele>53.0</ele><time>2026-04-18T14:13:29.291Z</time></trkpt><trkpt lat="39.8471067" lon="9.6345637"><ele>53.0</ele><time>2026-04-18T14:13:30.291Z</time></trkpt><trkpt lat="39.8473411" lon="9.6345553"><ele>53.0</ele><time>2026-04-18T14:13:31.291Z</time></trkpt><trkpt lat="39.8475766" lon="9.6345609"><ele>48.0</ele><time>2026-04-18T14:13:32.291Z</time></trkpt><trkpt lat="39.8478138" lon="9.6345809"><ele>43.0</ele><time>2026-04-18T14:13:33.291Z</time></trkpt><trkpt lat="39.8480491" lon="9.6346127"><ele>43.0</ele><time>2026-04-18T14:13:34.291Z</time></trkpt><trkpt lat="39.8482815" lon="9.6346633"><ele>43.0</ele><time>2026-04-18T14:13:35.291Z</time></trkpt><trkpt lat="39.8485073" lon="9.6347193"><ele>39.0</ele><time>2026-04-18T14:13:36.291Z</time></trkpt><trkpt lat="39.8487363" lon="9.6347919"><ele>35.0</ele><time>2026-04-18T14:13:37.29Z</time></trkpt><trkpt lat="39.8489615" lon="9.6348806"><ele>35.0</ele><time>2026-04-18T14:13:38.291Z</time></trkpt><trkpt lat="39.8491836" lon="9.6349788"><ele>35.0</ele><time>2026-04-18T14:13:39.291Z</time></trkpt><trkpt lat="39.8494039" lon="9.6350897"><ele>34.0</ele><time>2026-04-18T14:13:40.29Z</time></trkpt><trkpt lat="39.8496217" lon="9.6352185"><ele>33.0</ele><time>2026-04-18T14:13:41.291Z</time></trkpt><trkpt lat="39.8498408" lon="9.6353597"><ele>35.0</ele><time>2026-04-18T14:13:42.291Z</time></trkpt><trkpt lat="39.8500524" lon="9.6355094"><ele>37.0</ele><time>2026-04-18T14:13:43.291Z</time></trkpt><trkpt lat="39.8502545" lon="9.6356694"><ele>42.0</ele><time>2026-04-18T14:13:44.29Z</time></trkpt><trkpt lat="39.8504566" lon="9.6358363"><ele>47.0</ele><time>2026-04-18T14:13:45.291Z</time></trkpt><trkpt lat="39.8506485" lon="9.6360096"><ele>45.5</ele><time>2026-04-18T14:13:46.291Z</time></trkpt><trkpt lat="39.8508391" lon="9.6361883"><ele>44.0</ele><time>2026-04-18T14:13:47.29Z</time></trkpt><trkpt lat="39.8510355" lon="9.6363735"><ele>44.0</ele><time>2026-04-18T14:13:48.291Z</time></trkpt><trkpt lat="39.8512297" lon="9.6365662"><ele>44.0</ele><time>2026-04-18T14:13:49.291Z</time></trkpt><trkpt lat="39.8514188" lon="9.6367597"><ele>44.0</ele><time>2026-04-18T14:13:50.29Z</time></trkpt><trkpt lat="39.8516106" lon="9.6369547"><ele>44.0</ele><time>2026-04-18T14:13:51.292Z</time></trkpt><trkpt lat="39.8518046" lon="9.6371464"><ele>39.5</ele><time>2026-04-18T14:13:52.291Z</time></trkpt><trkpt lat="39.8519956" lon="9.6373335"><ele>35.0</ele><time>2026-04-18T14:13:53.291Z</time></trkpt><trkpt lat="39.852191" lon="9.637521"><ele>35.0</ele><time>2026-04-18T14:13:54.291Z</time></trkpt><trkpt lat="39.8523799" lon="9.6377075"><ele>35.0</ele><time>2026-04-18T14:13:55.291Z</time></trkpt><trkpt lat="39.852569" lon="9.6378967"><ele>32.5</ele><time>2026-04-18T14:13:56.29Z</time></trkpt><trkpt lat="39.8527575" lon="9.6380808"><ele>30.0</ele><time>2026-04-18T14:13:57.291Z</time></trkpt><trkpt lat="39.8529436" lon="9.6382655"><ele>30.0</ele><time>2026-04-18T14:13:58.291Z</time></trkpt><trkpt lat="39.853136" lon="9.6384527"><ele>30.0</ele><time>2026-04-18T14:13:59.29Z</time></trkpt><trkpt lat="39.8533157" lon="9.6386494"><ele>31.5</ele><time>2026-04-18T14:14:00.291Z</time></trkpt><trkpt lat="39.8535064" lon="9.6388465"><ele>33.0</ele><time>2026-04-18T14:14:01.291Z</time></trkpt><trkpt lat="39.8536982" lon="9.6390321"><ele>33.0</ele><time>2026-04-18T14:14:02.291Z</time></trkpt><trkpt lat="39.8538865" lon="9.6392272"><ele>33.0</ele><time>2026-04-18T14:14:03.291Z</time></trkpt><trkpt lat="39.8540748" lon="9.639415"><ele>34.5</ele><time>2026-04-18T14:14:04.291Z</time></trkpt><trkpt lat="39.8542634" lon="9.6395954"><ele>36.0</ele><time>2026-04-18T14:14:05.291Z</time></trkpt><trkpt lat="39.8544532" lon="9.6397796"><ele>36.0</ele><time>2026-04-18T14:14:06.292Z</time></trkpt><trkpt lat="39.8546438" lon="9.639964"><ele>36.0</ele><time>2026-04-18T14:14:07.29Z</time></trkpt><trkpt lat="39.8548308" lon="9.640145"><ele>40.0</ele><time>2026-04-18T14:14:08.291Z</time></trkpt><trkpt lat="39.8550179" lon="9.6403297"><ele>44.0</ele><time>2026-04-18T14:14:09.291Z</time></trkpt><trkpt lat="39.8552072" lon="9.6405155"><ele>44.0</ele><time>2026-04-18T14:14:10.29Z</time></trkpt><trkpt lat="39.8554007" lon="9.6407058"><ele>44.0</ele><time>2026-04-18T14:14:11.291Z</time></trkpt><trkpt lat="39.855595" lon="9.6408974"><ele>44.0</ele><time>2026-04-18T14:14:12.29Z</time></trkpt><trkpt lat="39.8557816" lon="9.6410936"><ele>44.0</ele><time>2026-04-18T14:14:13.291Z</time></trkpt><trkpt lat="39.8559589" lon="9.6412989"><ele>48.5</ele><time>2026-04-18T14:14:14.292Z</time></trkpt><trkpt lat="39.8561305" lon="9.6415109"><ele>53.0</ele><time>2026-04-18T14:14:15.291Z</time></trkpt><trkpt lat="39.856293" lon="9.6417297"><ele>53.0</ele><time>2026-04-18T14:14:16.291Z</time></trkpt><trkpt lat="39.8564471" lon="9.6419525"><ele>53.0</ele><time>2026-04-18T14:14:17.291Z</time></trkpt><trkpt lat="39.8565974" lon="9.642177"><ele>55.5</ele><time>2026-04-18T14:14:18.291Z</time></trkpt><trkpt lat="39.8567497" lon="9.6423969"><ele>58.0</ele><time>2026-04-18T14:14:19.291Z</time></trkpt><trkpt lat="39.856904" lon="9.6426211"><ele>60.5</ele><time>2026-04-18T14:14:20.291Z</time></trkpt><trkpt lat="39.857062" lon="9.6428478"><ele>63.0</ele><time>2026-04-18T14:14:21.291Z</time></trkpt><trkpt lat="39.8572193" lon="9.643076"><ele>63.0</ele><time>2026-04-18T14:14:22.29Z</time></trkpt><trkpt lat="39.8573769" lon="9.6433035"><ele>63.0</ele><time>2026-04-18T14:14:23.291Z</time></trkpt><trkpt lat="39.8575328" lon="9.6435301"><ele>62.5</ele><time>2026-04-18T14:14:24.291Z</time></trkpt><trkpt lat="39.8576893" lon="9.6437571"><ele>62.0</ele><time>2026-04-18T14:14:25.29Z</time></trkpt><trkpt lat="39.8578461" lon="9.64399"><ele>62.0</ele><time>2026-04-18T14:14:26.291Z</time></trkpt><trkpt lat="39.8580058" lon="9.6442186"><ele>62.0</ele><time>2026-04-18T14:14:27.291Z</time></trkpt><trkpt lat="39.8581697" lon="9.6444442"><ele>62.5</ele><time>2026-04-18T14:14:28.291Z</time></trkpt><trkpt lat="39.8583378" lon="9.6446621"><ele>63.0</ele><time>2026-04-18T14:14:29.291Z</time></trkpt><trkpt lat="39.8585077" lon="9.6448737"><ele>63.0</ele><time>2026-04-18T14:14:30.291Z</time></trkpt><trkpt lat="39.8586864" lon="9.6450799"><ele>63.0</ele><time>2026-04-18T14:14:31.291Z</time></trkpt><trkpt lat="39.8588746" lon="9.6452753"><ele>64.0</ele><time>2026-04-18T14:14:32.291Z</time></trkpt><trkpt lat="39.8590729" lon="9.6454562"><ele>65.0</ele><time>2026-04-18T14:14:33.291Z</time></trkpt><trkpt lat="39.8592781" lon="9.6456271"><ele>67.0</ele><time>2026-04-18T14:14:34.291Z</time></trkpt><trkpt lat="39.8594888" lon="9.6457808"><ele>69.0</ele><time>2026-04-18T14:14:35.291Z</time></trkpt><trkpt lat="39.8597062" lon="9.6459189"><ele>69.0</ele><time>2026-04-18T14:14:36.29Z</time></trkpt><trkpt lat="39.8599289" lon="9.6460409"><ele>69.0</ele><time>2026-04-18T14:14:37.29Z</time></trkpt><trkpt lat="39.8601565" lon="9.6461509"><ele>75.0</ele><time>2026-04-18T14:14:38.291Z</time></trkpt><trkpt lat="39.8603841" lon="9.6462429"><ele>81.0</ele><time>2026-04-18T14:14:39.291Z</time></trkpt><trkpt lat="39.8606152" lon="9.6463178"><ele>81.0</ele><time>2026-04-18T14:14:40.291Z</time></trkpt><trkpt lat="39.86085" lon="9.6463771"><ele>81.0</ele><time>2026-04-18T14:14:41.291Z</time></trkpt><trkpt lat="39.8610876" lon="9.6464219"><ele>85.5</ele><time>2026-04-18T14:14:42.291Z</time></trkpt><trkpt lat="39.861323" lon="9.6464502"><ele>90.0</ele><time>2026-04-18T14:14:43.291Z</time></trkpt><trkpt lat="39.8615592" lon="9.6464619"><ele>91.0</ele><time>2026-04-18T14:14:44.29Z</time></trkpt><trkpt lat="39.861792" lon="9.6464618"><ele>92.0</ele><time>2026-04-18T14:14:45.291Z</time></trkpt><trkpt lat="39.8620292" lon="9.6464513"><ele>92.0</ele><time>2026-04-18T14:14:46.291Z</time></trkpt><trkpt lat="39.8622659" lon="9.6464317"><ele>92.0</ele><time>2026-04-18T14:14:47.292Z</time></trkpt><trkpt lat="39.8625055" lon="9.6464072"><ele>90.5</ele><time>2026-04-18T14:14:48.29Z</time></trkpt><trkpt lat="39.8627405" lon="9.646379"><ele>89.0</ele><time>2026-04-18T14:14:49.291Z</time></trkpt><trkpt lat="39.8629739" lon="9.6463467"><ele>89.0</ele><time>2026-04-18T14:14:50.291Z</time></trkpt><trkpt lat="39.8632109" lon="9.6463204"><ele>89.0</ele><time>2026-04-18T14:14:51.291Z</time></trkpt><trkpt lat="39.8634463" lon="9.6462986"><ele>87.0</ele><time>2026-04-18T14:14:52.291Z</time></trkpt><trkpt lat="39.8636819" lon="9.6462922"><ele>85.0</ele><time>2026-04-18T14:14:53.29Z</time></trkpt><trkpt lat="39.8639184" lon="9.6463007"><ele>85.0</ele><time>2026-04-18T14:14:54.29Z</time></trkpt><trkpt lat="39.8641522" lon="9.6463262"><ele>85.0</ele><time>2026-04-18T14:14:55.291Z</time></trkpt><trkpt lat="39.8643865" lon="9.646367"><ele>81.0</ele><time>2026-04-18T14:14:56.292Z</time></trkpt><trkpt lat="39.8646188" lon="9.6464205"><ele>77.0</ele><time>2026-04-18T14:14:57.291Z</time></trkpt><trkpt lat="39.8648442" lon="9.6464923"><ele>77.0</ele><time>2026-04-18T14:14:58.292Z</time></trkpt><trkpt lat="39.8650655" lon="9.646577"><ele>77.0</ele><time>2026-04-18T14:14:59.291Z</time></trkpt><trkpt lat="39.8652845" lon="9.6466752"><ele>75.0</ele><time>2026-04-18T14:15:00.291Z</time></trkpt><trkpt lat="39.8655009" lon="9.6467897"><ele>73.0</ele><time>2026-04-18T14:15:01.291Z</time></trkpt><trkpt lat="39.8657194" lon="9.6469182"><ele>73.0</ele><time>2026-04-18T14:15:02.291Z</time></trkpt><trkpt lat="39.8659393" lon="9.6470551"><ele>73.0</ele><time>2026-04-18T14:15:03.292Z</time></trkpt><trkpt lat="39.8661559" lon="9.6472024"><ele>69.5</ele><time>2026-04-18T14:15:04.29Z</time></trkpt><trkpt lat="39.8663665" lon="9.6473574"><ele>66.0</ele><time>2026-04-18T14:15:05.291Z</time></trkpt><trkpt lat="39.8665807" lon="9.6475174"><ele>66.5</ele><time>2026-04-18T14:15:06.29Z</time></trkpt><trkpt lat="39.8667953" lon="9.6476768"><ele>67.0</ele><time>2026-04-18T14:15:07.29Z</time></trkpt><trkpt lat="39.8670066" lon="9.6478366"><ele>67.0</ele><time>2026-04-18T14:15:08.29Z</time></trkpt><trkpt lat="39.8672155" lon="9.6479925"><ele>67.0</ele><time>2026-04-18T14:15:09.291Z</time></trkpt><trkpt lat="39.8674181" lon="9.6481451"><ele>69.5</ele><time>2026-04-18T14:15:10.29Z</time></trkpt><trkpt lat="39.8676259" lon="9.6482941"><ele>72.0</ele><time>2026-04-18T14:15:11.29Z</time></trkpt><trkpt lat="39.8678314" lon="9.6484293"><ele>72.0</ele><time>2026-04-18T14:15:12.29Z</time></trkpt><trkpt lat="39.8680394" lon="9.6485556"><ele>72.0</ele><time>2026-04-18T14:15:13.29Z</time></trkpt><trkpt lat="39.8682401" lon="9.6486713"><ele>72.0</ele><time>2026-04-18T14:15:14.291Z</time></trkpt><trkpt lat="39.8684463" lon="9.6487716"><ele>68.0</ele><time>2026-04-18T14:15:15.291Z</time></trkpt><trkpt lat="39.8686633" lon="9.6488683"><ele>64.0</ele><time>2026-04-18T14:15:16.291Z</time></trkpt><trkpt lat="39.868888" lon="9.6489497"><ele>64.0</ele><time>2026-04-18T14:15:17.29Z</time></trkpt><trkpt lat="39.8691249" lon="9.6490221"><ele>64.0</ele><time>2026-04-18T14:15:18.292Z</time></trkpt><trkpt lat="39.8693702" lon="9.6490782"><ele>65.0</ele><time>2026-04-18T14:15:19.291Z</time></trkpt><trkpt lat="39.8696137" lon="9.6491138"><ele>66.0</ele><time>2026-04-18T14:15:20.291Z</time></trkpt><trkpt lat="39.8698515" lon="9.649129"><ele>66.0</ele><time>2026-04-18T14:15:21.291Z</time></trkpt><trkpt lat="39.8700958" lon="9.6491253"><ele>66.0</ele><time>2026-04-18T14:15:22.291Z</time></trkpt><trkpt lat="39.8703429" lon="9.6491029"><ele>67.0</ele><time>2026-04-18T14:15:23.291Z</time></trkpt><trkpt lat="39.870594" lon="9.6490758"><ele>68.0</ele><time>2026-04-18T14:15:24.291Z</time></trkpt><trkpt lat="39.870849" lon="9.6490295"><ele>63.0</ele><time>2026-04-18T14:15:25.291Z</time></trkpt><trkpt lat="39.8710985" lon="9.6489734"><ele>58.0</ele><time>2026-04-18T14:15:26.291Z</time></trkpt><trkpt lat="39.8713435" lon="9.6489039"><ele>58.0</ele><time>2026-04-18T14:15:27.291Z</time></trkpt><trkpt lat="39.8715846" lon="9.6488257"><ele>58.0</ele><time>2026-04-18T14:15:28.292Z</time></trkpt><trkpt lat="39.8718197" lon="9.648745"><ele>54.0</ele><time>2026-04-18T14:15:29.291Z</time></trkpt><trkpt lat="39.8720542" lon="9.6486629"><ele>50.0</ele><time>2026-04-18T14:15:30.291Z</time></trkpt><trkpt lat="39.8722839" lon="9.6485844"><ele>50.0</ele><time>2026-04-18T14:15:31.291Z</time></trkpt><trkpt lat="39.8725119" lon="9.6485024"><ele>50.0</ele><time>2026-04-18T14:15:32.29Z</time></trkpt><trkpt lat="39.8727381" lon="9.6484298"><ele>47.0</ele><time>2026-04-18T14:15:33.291Z</time></trkpt><trkpt lat="39.8729658" lon="9.6483584"><ele>44.0</ele><time>2026-04-18T14:15:34.292Z</time></trkpt><trkpt lat="39.8731978" lon="9.6482997"><ele>44.0</ele><time>2026-04-18T14:15:35.292Z</time></trkpt><trkpt lat="39.8734323" lon="9.6482574"><ele>44.0</ele><time>2026-04-18T14:15:36.29Z</time></trkpt><trkpt lat="39.8736697" lon="9.6482296"><ele>42.5</ele><time>2026-04-18T14:15:37.291Z</time></trkpt><trkpt lat="39.8739083" lon="9.6482204"><ele>41.0</ele><time>2026-04-18T14:15:38.291Z</time></trkpt><trkpt lat="39.8741496" lon="9.6482298"><ele>42.0</ele><time>2026-04-18T14:15:39.291Z</time></trkpt><trkpt lat="39.874388" lon="9.6482538"><ele>43.0</ele><time>2026-04-18T14:15:40.291Z</time></trkpt><trkpt lat="39.8746259" lon="9.6482896"><ele>43.0</ele><time>2026-04-18T14:15:41.292Z</time></trkpt><trkpt lat="39.8748567" lon="9.6483417"><ele>43.0</ele><time>2026-04-18T14:15:42.291Z</time></trkpt><trkpt lat="39.8750863" lon="9.6484096"><ele>46.0</ele><time>2026-04-18T14:15:43.291Z</time></trkpt><trkpt lat="39.8753097" lon="9.6484883"><ele>49.0</ele><time>2026-04-18T14:15:44.291Z</time></trkpt><trkpt lat="39.875534" lon="9.6485811"><ele>46.5</ele><time>2026-04-18T14:15:45.291Z</time></trkpt><trkpt lat="39.8757586" lon="9.6486716"><ele>44.0</ele><time>2026-04-18T14:15:46.291Z</time></trkpt><trkpt lat="39.8759848" lon="9.6487683"><ele>44.0</ele><time>2026-04-18T14:15:47.291Z</time></trkpt><trkpt lat="39.8762111" lon="9.6488637"><ele>44.0</ele><time>2026-04-18T14:15:48.291Z</time></trkpt><trkpt lat="39.8764409" lon="9.6489586"><ele>44.0</ele><time>2026-04-18T14:15:49.291Z</time></trkpt><trkpt lat="39.8766689" lon="9.6490548"><ele>44.0</ele><time>2026-04-18T14:15:50.291Z</time></trkpt><trkpt lat="39.8768971" lon="9.6491513"><ele>45.0</ele><time>2026-04-18T14:15:51.292Z</time></trkpt><trkpt lat="39.8771246" lon="9.6492488"><ele>46.0</ele><time>2026-04-18T14:15:52.292Z</time></trkpt><trkpt lat="39.8773447" lon="9.6493427"><ele>46.0</ele><time>2026-04-18T14:15:53.291Z</time></trkpt><trkpt lat="39.8775634" lon="9.6494367"><ele>46.0</ele><time>2026-04-18T14:15:54.291Z</time></trkpt><trkpt lat="39.8777863" lon="9.6495302"><ele>43.0</ele><time>2026-04-18T14:15:55.292Z</time></trkpt><trkpt lat="39.8780108" lon="9.6496219"><ele>40.0</ele><time>2026-04-18T14:15:56.292Z</time></trkpt><trkpt lat="39.8782376" lon="9.6497156"><ele>42.0</ele><time>2026-04-18T14:15:57.291Z</time></trkpt><trkpt lat="39.8784662" lon="9.6498118"><ele>44.0</ele><time>2026-04-18T14:15:58.291Z</time></trkpt><trkpt lat="39.8786954" lon="9.6499"><ele>44.0</ele><time>2026-04-18T14:15:59.291Z</time></trkpt><trkpt lat="39.8789226" lon="9.6499867"><ele>44.0</ele><time>2026-04-18T14:16:00.292Z</time></trkpt><trkpt lat="39.8791534" lon="9.6500682"><ele>45.0</ele><time>2026-04-18T14:16:01.291Z</time></trkpt><trkpt lat="39.8793834" lon="9.6501411"><ele>46.0</ele><time>2026-04-18T14:16:02.291Z</time></trkpt><trkpt lat="39.879616" lon="9.6502048"><ele>46.0</ele><time>2026-04-18T14:16:03.291Z</time></trkpt><trkpt lat="39.8798532" lon="9.6502615"><ele>46.0</ele><time>2026-04-18T14:16:04.291Z</time></trkpt><trkpt lat="39.8800922" lon="9.6503119"><ele>39.5</ele><time>2026-04-18T14:16:05.291Z</time></trkpt><trkpt lat="39.8803306" lon="9.650355"><ele>33.0</ele><time>2026-04-18T14:16:06.291Z</time></trkpt><trkpt lat="39.8805679" lon="9.6503899"><ele>33.0</ele><time>2026-04-18T14:16:07.291Z</time></trkpt><trkpt lat="39.8808049" lon="9.6504308"><ele>33.0</ele><time>2026-04-18T14:16:08.291Z</time></trkpt><trkpt lat="39.8810415" lon="9.6504634"><ele>33.0</ele><time>2026-04-18T14:16:09.291Z</time></trkpt><trkpt lat="39.8812793" lon="9.6505029"><ele>33.0</ele><time>2026-04-18T14:16:10.291Z</time></trkpt><trkpt lat="39.8815187" lon="9.6505458"><ele>33.0</ele><time>2026-04-18T14:16:11.291Z</time></trkpt><trkpt lat="39.8817572" lon="9.6505817"><ele>33.0</ele><time>2026-04-18T14:16:12.291Z</time></trkpt><trkpt lat="39.8819984" lon="9.650626"><ele>32.0</ele><time>2026-04-18T14:16:13.29Z</time></trkpt><trkpt lat="39.8822363" lon="9.6506608"><ele>31.0</ele><time>2026-04-18T14:16:14.291Z</time></trkpt><trkpt lat="39.8824741" lon="9.650696"><ele>30.5</ele><time>2026-04-18T14:16:15.291Z</time></trkpt><trkpt lat="39.8827123" lon="9.6507345"><ele>30.0</ele><time>2026-04-18T14:16:16.291Z</time></trkpt><trkpt lat="39.8829511" lon="9.6507713"><ele>30.0</ele><time>2026-04-18T14:16:17.292Z</time></trkpt><trkpt lat="39.8831909" lon="9.6508072"><ele>30.0</ele><time>2026-04-18T14:16:18.291Z</time></trkpt><trkpt lat="39.8834235" lon="9.6508479"><ele>29.0</ele><time>2026-04-18T14:16:19.291Z</time></trkpt><trkpt lat="39.8836612" lon="9.6508857"><ele>28.0</ele><time>2026-04-18T14:16:20.291Z</time></trkpt><trkpt lat="39.8839018" lon="9.6509246"><ele>28.0</ele><time>2026-04-18T14:16:21.291Z</time></trkpt><trkpt lat="39.8841427" lon="9.6509639"><ele>28.0</ele><time>2026-04-18T14:16:22.291Z</time></trkpt><trkpt lat="39.8843777" lon="9.6510007"><ele>29.0</ele><time>2026-04-18T14:16:23.291Z</time></trkpt><trkpt lat="39.8846162" lon="9.6510328"><ele>30.0</ele><time>2026-04-18T14:16:24.291Z</time></trkpt><trkpt lat="39.8848554" lon="9.6510664"><ele>30.0</ele><time>2026-04-18T14:16:25.291Z</time></trkpt><trkpt lat="39.8850931" lon="9.6510978"><ele>30.0</ele><time>2026-04-18T14:16:26.291Z</time></trkpt><trkpt lat="39.8853332" lon="9.6511193"><ele>31.0</ele><time>2026-04-18T14:16:27.292Z</time></trkpt><trkpt lat="39.8855741" lon="9.6511267"><ele>32.0</ele><time>2026-04-18T14:16:28.291Z</time></trkpt><trkpt lat="39.8858158" lon="9.6511269"><ele>35.5</ele><time>2026-04-18T14:16:29.291Z</time></trkpt><trkpt lat="39.8860568" lon="9.651121"><ele>39.0</ele><time>2026-04-18T14:16:30.291Z</time></trkpt><trkpt lat="39.8862915" lon="9.6511123"><ele>39.0</ele><time>2026-04-18T14:16:31.291Z</time></trkpt><trkpt lat="39.8865299" lon="9.65109"><ele>39.0</ele><time>2026-04-18T14:16:32.292Z</time></trkpt><trkpt lat="39.8867667" lon="9.6510587"><ele>37.5</ele><time>2026-04-18T14:16:33.292Z</time></trkpt><trkpt lat="39.8869977" lon="9.6510259"><ele>36.0</ele><time>2026-04-18T14:16:34.291Z</time></trkpt><trkpt lat="39.8872297" lon="9.6509946"><ele>36.0</ele><time>2026-04-18T14:16:35.29Z</time></trkpt><trkpt lat="39.8874596" lon="9.6509589"><ele>36.0</ele><time>2026-04-18T14:16:36.29Z</time></trkpt><trkpt lat="39.8876918" lon="9.650926"><ele>36.0</ele><time>2026-04-18T14:16:37.291Z</time></trkpt><trkpt lat="39.8879228" lon="9.6508953"><ele>36.0</ele><time>2026-04-18T14:16:38.291Z</time></trkpt><trkpt lat="39.8881521" lon="9.6508617"><ele>36.0</ele><time>2026-04-18T14:16:39.291Z</time></trkpt><trkpt lat="39.8883817" lon="9.65083"><ele>36.0</ele><time>2026-04-18T14:16:40.292Z</time></trkpt><trkpt lat="39.8886129" lon="9.6507961"><ele>36.5</ele><time>2026-04-18T14:16:41.291Z</time></trkpt><trkpt lat="39.8888438" lon="9.6507599"><ele>37.0</ele><time>2026-04-18T14:16:42.292Z</time></trkpt><trkpt lat="39.8890747" lon="9.6507236"><ele>37.0</ele><time>2026-04-18T14:16:43.291Z</time></trkpt><trkpt lat="39.8893066" lon="9.6506867"><ele>37.0</ele><time>2026-04-18T14:16:44.291Z</time></trkpt><trkpt lat="39.8895371" lon="9.6506549"><ele>37.0</ele><time>2026-04-18T14:16:45.29Z</time></trkpt><trkpt lat="39.889771" lon="9.6506208"><ele>37.0</ele><time>2026-04-18T14:16:46.292Z</time></trkpt><trkpt lat="39.8900068" lon="9.650588"><ele>38.5</ele><time>2026-04-18T14:16:47.29Z</time></trkpt><trkpt lat="39.8902451" lon="9.6505549"><ele>40.0</ele><time>2026-04-18T14:16:48.291Z</time></trkpt><trkpt lat="39.8904828" lon="9.6505157"><ele>40.0</ele><time>2026-04-18T14:16:49.291Z</time></trkpt><trkpt lat="39.8907239" lon="9.6504697"><ele>40.0</ele><time>2026-04-18T14:16:50.291Z</time></trkpt><trkpt lat="39.8909638" lon="9.6504218"><ele>40.5</ele><time>2026-04-18T14:16:51.291Z</time></trkpt><trkpt lat="39.8912003" lon="9.6503667"><ele>41.0</ele><time>2026-04-18T14:16:52.291Z</time></trkpt><trkpt lat="39.891443" lon="9.6503023"><ele>42.5</ele><time>2026-04-18T14:16:53.291Z</time></trkpt><trkpt lat="39.8916852" lon="9.6502296"><ele>44.0</ele><time>2026-04-18T14:16:54.292Z</time></trkpt><trkpt lat="39.8919241" lon="9.6501499"><ele>44.0</ele><time>2026-04-18T14:16:55.291Z</time></trkpt><trkpt lat="39.8921582" lon="9.6500713"><ele>44.0</ele><time>2026-04-18T14:16:56.291Z</time></trkpt><trkpt lat="39.892389" lon="9.6499877"><ele>44.0</ele><time>2026-04-18T14:16:57.291Z</time></trkpt><trkpt lat="39.8926217" lon="9.6498984"><ele>44.0</ele><time>2026-04-18T14:16:58.291Z</time></trkpt><trkpt lat="39.892852" lon="9.6498035"><ele>44.0</ele><time>2026-04-18T14:16:59.291Z</time></trkpt><trkpt lat="39.8930818" lon="9.6497115"><ele>44.0</ele><time>2026-04-18T14:17:00.291Z</time></trkpt><trkpt lat="39.8933112" lon="9.6496194"><ele>44.5</ele><time>2026-04-18T14:17:01.291Z</time></trkpt><trkpt lat="39.8935347" lon="9.6495282"><ele>45.0</ele><time>2026-04-18T14:17:02.292Z</time></trkpt><trkpt lat="39.8937578" lon="9.6494411"><ele>48.5</ele><time>2026-04-18T14:17:03.291Z</time></trkpt><trkpt lat="39.8939839" lon="9.6493548"><ele>52.0</ele><time>2026-04-18T14:17:04.29Z</time></trkpt><trkpt lat="39.894212" lon="9.6492685"><ele>50.5</ele><time>2026-04-18T14:17:05.292Z</time></trkpt><trkpt lat="39.8944388" lon="9.6491798"><ele>49.0</ele><time>2026-04-18T14:17:06.29Z</time></trkpt><trkpt lat="39.8946617" lon="9.6490932"><ele>49.0</ele><time>2026-04-18T14:17:07.291Z</time></trkpt><trkpt lat="39.8948896" lon="9.6490038"><ele>49.0</ele><time>2026-04-18T14:17:08.291Z</time></trkpt><trkpt lat="39.8951177" lon="9.6489196"><ele>49.5</ele><time>2026-04-18T14:17:09.291Z</time></trkpt><trkpt lat="39.8953463" lon="9.6488412"><ele>50.0</ele><time>2026-04-18T14:17:10.291Z</time></trkpt><trkpt lat="39.8955785" lon="9.6487679"><ele>50.0</ele><time>2026-04-18T14:17:11.291Z</time></trkpt><trkpt lat="39.8958149" lon="9.6487062"><ele>50.0</ele><time>2026-04-18T14:17:12.291Z</time></trkpt><trkpt lat="39.8960514" lon="9.6486541"><ele>51.5</ele><time>2026-04-18T14:17:13.291Z</time></trkpt><trkpt lat="39.8962841" lon="9.6486169"><ele>53.0</ele><time>2026-04-18T14:17:14.291Z</time></trkpt><trkpt lat="39.8965168" lon="9.64859"><ele>53.0</ele><time>2026-04-18T14:17:15.291Z</time></trkpt><trkpt lat="39.8967527" lon="9.6485742"><ele>53.0</ele><time>2026-04-18T14:17:16.291Z</time></trkpt><trkpt lat="39.8969889" lon="9.6485675"><ele>51.0</ele><time>2026-04-18T14:17:17.292Z</time></trkpt><trkpt lat="39.8972294" lon="9.64857"><ele>49.0</ele><time>2026-04-18T14:17:18.29Z</time></trkpt><trkpt lat="39.897472" lon="9.6485811"><ele>48.0</ele><time>2026-04-18T14:17:19.291Z</time></trkpt><trkpt lat="39.8977167" lon="9.6486029"><ele>47.0</ele><time>2026-04-18T14:17:20.292Z</time></trkpt><trkpt lat="39.8979607" lon="9.6486271"><ele>45.0</ele><time>2026-04-18T14:17:21.291Z</time></trkpt><trkpt lat="39.8982068" lon="9.6486535"><ele>43.0</ele><time>2026-04-18T14:17:22.291Z</time></trkpt><trkpt lat="39.898452" lon="9.6486787"><ele>42.5</ele><time>2026-04-18T14:17:23.291Z</time></trkpt><trkpt lat="39.8987031" lon="9.6487019"><ele>42.0</ele><time>2026-04-18T14:17:24.29Z</time></trkpt><trkpt lat="39.8989521" lon="9.6487273"><ele>42.0</ele><time>2026-04-18T14:17:25.29Z</time></trkpt><trkpt lat="39.8991975" lon="9.6487503"><ele>42.0</ele><time>2026-04-18T14:17:26.29Z</time></trkpt><trkpt lat="39.8994412" lon="9.6487727"><ele>40.5</ele><time>2026-04-18T14:17:27.291Z</time></trkpt><trkpt lat="39.899685" lon="9.6487978"><ele>39.0</ele><time>2026-04-18T14:17:28.29Z</time></trkpt><trkpt lat="39.8999243" lon="9.6488181"><ele>39.0</ele><time>2026-04-18T14:17:29.291Z</time></trkpt><trkpt lat="39.9001598" lon="9.6488413"><ele>39.0</ele><time>2026-04-18T14:17:30.291Z</time></trkpt><trkpt lat="39.9003883" lon="9.6488597"><ele>39.0</ele><time>2026-04-18T14:17:31.291Z</time></trkpt><trkpt lat="39.9006219" lon="9.6488818"><ele>39.0</ele><time>2026-04-18T14:17:32.291Z</time></trkpt><trkpt lat="39.9008543" lon="9.6489118"><ele>38.5</ele><time>2026-04-18T14:17:33.291Z</time></trkpt><trkpt lat="39.9010883" lon="9.6489375"><ele>38.0</ele><time>2026-04-18T14:17:34.291Z</time></trkpt><trkpt lat="39.9013233" lon="9.6489598"><ele>38.0</ele><time>2026-04-18T14:17:35.292Z</time></trkpt><trkpt lat="39.9015593" lon="9.6489837"><ele>38.0</ele><time>2026-04-18T14:17:36.291Z</time></trkpt><trkpt lat="39.9017918" lon="9.6490072"><ele>36.5</ele><time>2026-04-18T14:17:37.291Z</time></trkpt><trkpt lat="39.9020254" lon="9.649034"><ele>35.0</ele><time>2026-04-18T14:17:38.291Z</time></trkpt><trkpt lat="39.9022568" lon="9.6490528"><ele>35.0</ele><time>2026-04-18T14:17:39.291Z</time></trkpt><trkpt lat="39.9024929" lon="9.6490775"><ele>35.0</ele><time>2026-04-18T14:17:40.292Z</time></trkpt><trkpt lat="39.9027304" lon="9.6491029"><ele>34.0</ele><time>2026-04-18T14:17:41.291Z</time></trkpt><trkpt lat="39.9029646" lon="9.6491245"><ele>33.0</ele><time>2026-04-18T14:17:42.291Z</time></trkpt><trkpt lat="39.9031949" lon="9.6491428"><ele>32.5</ele><time>2026-04-18T14:17:43.292Z</time></trkpt><trkpt lat="39.9034243" lon="9.6491635"><ele>32.0</ele><time>2026-04-18T14:17:44.291Z</time></trkpt><trkpt lat="39.9036536" lon="9.6491838"><ele>32.0</ele><time>2026-04-18T14:17:45.292Z</time></trkpt><trkpt lat="39.9038862" lon="9.6492057"><ele>32.0</ele><time>2026-04-18T14:17:46.292Z</time></trkpt><trkpt lat="39.9041206" lon="9.649232"><ele>32.0</ele><time>2026-04-18T14:17:47.291Z</time></trkpt><trkpt lat="39.9043581" lon="9.6492552"><ele>32.0</ele><time>2026-04-18T14:17:48.292Z</time></trkpt><trkpt lat="39.9045988" lon="9.6492763"><ele>32.0</ele><time>2026-04-18T14:17:49.291Z</time></trkpt><trkpt lat="39.904842" lon="9.6492938"><ele>32.0</ele><time>2026-04-18T14:17:50.291Z</time></trkpt><trkpt lat="39.9050864" lon="9.649309"><ele>32.5</ele><time>2026-04-18T14:17:51.292Z</time></trkpt><trkpt lat="39.9053313" lon="9.6493169"><ele>33.0</ele><time>2026-04-18T14:17:52.291Z</time></trkpt><trkpt lat="39.9055757" lon="9.6493298"><ele>33.0</ele><time>2026-04-18T14:17:53.292Z</time></trkpt><trkpt lat="39.9058198" lon="9.6493397"><ele>33.0</ele><time>2026-04-18T14:17:54.292Z</time></trkpt><trkpt lat="39.9060642" lon="9.6493464"><ele>31.5</ele><time>2026-04-18T14:17:55.291Z</time></trkpt><trkpt lat="39.9063109" lon="9.6493481"><ele>30.0</ele><time>2026-04-18T14:17:56.291Z</time></trkpt><trkpt lat="39.9065556" lon="9.6493483"><ele>31.0</ele><time>2026-04-18T14:17:57.291Z</time></trkpt><trkpt lat="39.9068" lon="9.6493485"><ele>32.0</ele><time>2026-04-18T14:17:58.291Z</time></trkpt><trkpt lat="39.9070456" lon="9.6493523"><ele>32.0</ele><time>2026-04-18T14:17:59.29Z</time></trkpt><trkpt lat="39.9072895" lon="9.6493585"><ele>32.0</ele><time>2026-04-18T14:18:00.291Z</time></trkpt><trkpt lat="39.9075323" lon="9.6493644"><ele>31.5</ele><time>2026-04-18T14:18:01.291Z</time></trkpt><trkpt lat="39.9077735" lon="9.6493729"><ele>31.0</ele><time>2026-04-18T14:18:02.292Z</time></trkpt><trkpt lat="39.9080161" lon="9.6493795"><ele>31.0</ele><time>2026-04-18T14:18:03.291Z</time></trkpt><trkpt lat="39.9082521" lon="9.6493885"><ele>31.0</ele><time>2026-04-18T14:18:04.291Z</time></trkpt><trkpt lat="39.9084875" lon="9.6494037"><ele>29.0</ele><time>2026-04-18T14:18:05.291Z</time></trkpt><trkpt lat="39.9087207" lon="9.6494188"><ele>27.0</ele><time>2026-04-18T14:18:06.291Z</time></trkpt><trkpt lat="39.9089522" lon="9.6494392"><ele>25.0</ele><time>2026-04-18T14:18:07.291Z</time></trkpt><trkpt lat="39.9091867" lon="9.6494602"><ele>23.0</ele><time>2026-04-18T14:18:08.289Z</time></trkpt><trkpt lat="39.9094273" lon="9.6494829"><ele>22.5</ele><time>2026-04-18T14:18:09.289Z</time></trkpt><trkpt lat="39.9096642" lon="9.6495089"><ele>22.0</ele><time>2026-04-18T14:18:10.289Z</time></trkpt><trkpt lat="39.9099004" lon="9.6495381"><ele>22.0</ele><time>2026-04-18T14:18:11.289Z</time></trkpt><trkpt lat="39.9101387" lon="9.6495777"><ele>22.0</ele><time>2026-04-18T14:18:12.29Z</time></trkpt><trkpt lat="39.9103752" lon="9.6496216"><ele>22.0</ele><time>2026-04-18T14:18:13.29Z</time></trkpt><trkpt lat="39.9106116" lon="9.6496675"><ele>22.0</ele><time>2026-04-18T14:18:14.29Z</time></trkpt><trkpt lat="39.9108453" lon="9.6497154"><ele>21.5</ele><time>2026-04-18T14:18:15.291Z</time></trkpt><trkpt lat="39.9110814" lon="9.649764"><ele>21.0</ele><time>2026-04-18T14:18:16.29Z</time></trkpt><trkpt lat="39.911315" lon="9.6498094"><ele>21.0</ele><time>2026-04-18T14:18:17.29Z</time></trkpt><trkpt lat="39.9115512" lon="9.6498585"><ele>21.0</ele><time>2026-04-18T14:18:18.29Z</time></trkpt><trkpt lat="39.9117893" lon="9.6499056"><ele>21.5</ele><time>2026-04-18T14:18:19.289Z</time></trkpt><trkpt lat="39.9120284" lon="9.6499526"><ele>22.0</ele><time>2026-04-18T14:18:20.29Z</time></trkpt><trkpt lat="39.912269" lon="9.6499971"><ele>22.0</ele><time>2026-04-18T14:18:21.29Z</time></trkpt><trkpt lat="39.9125049" lon="9.6500397"><ele>22.0</ele><time>2026-04-18T14:18:22.289Z</time></trkpt><trkpt lat="39.9127412" lon="9.6500715"><ele>22.5</ele><time>2026-04-18T14:18:23.289Z</time></trkpt><trkpt lat="39.9129838" lon="9.650102"><ele>23.0</ele><time>2026-04-18T14:18:24.29Z</time></trkpt><trkpt lat="39.9132232" lon="9.6501295"><ele>24.0</ele><time>2026-04-18T14:18:25.289Z</time></trkpt><trkpt lat="39.9134499" lon="9.6501548"><ele>25.0</ele><time>2026-04-18T14:18:26.289Z</time></trkpt><trkpt lat="39.9136817" lon="9.6501749"><ele>25.0</ele><time>2026-04-18T14:18:27.29Z</time></trkpt><trkpt lat="39.9139203" lon="9.650191"><ele>25.0</ele><time>2026-04-18T14:18:28.29Z</time></trkpt><trkpt lat="39.9141563" lon="9.6502003"><ele>25.0</ele><time>2026-04-18T14:18:29.291Z</time></trkpt><trkpt lat="39.9143924" lon="9.6502082"><ele>25.0</ele><time>2026-04-18T14:18:30.29Z</time></trkpt><trkpt lat="39.9146186" lon="9.6502171"><ele>25.0</ele><time>2026-04-18T14:18:31.29Z</time></trkpt><trkpt lat="39.9148407" lon="9.650228"><ele>25.0</ele><time>2026-04-18T14:18:32.291Z</time></trkpt><trkpt lat="39.9150553" lon="9.6502375"><ele>25.0</ele><time>2026-04-18T14:18:33.29Z</time></trkpt><trkpt lat="39.9152576" lon="9.6502447"><ele>23.666666666666668</ele><time>2026-04-18T14:18:34.29Z</time></trkpt><trkpt lat="39.9154484" lon="9.6502509"><ele>22.333333333333336</ele><time>2026-04-18T14:18:35.29Z</time></trkpt><trkpt lat="39.9156276" lon="9.6502555"><ele>21.0</ele><time>2026-04-18T14:18:36.289Z</time></trkpt><trkpt lat="39.9157965" lon="9.65026"><ele>20.75</ele><time>2026-04-18T14:18:37.29Z</time></trkpt><trkpt lat="39.9159528" lon="9.6502583"><ele>20.5</ele><time>2026-04-18T14:18:38.29Z</time></trkpt><trkpt lat="39.9160835" lon="9.6502638"><ele>20.25</ele><time>2026-04-18T14:18:39.289Z</time></trkpt><trkpt lat="39.9161953" lon="9.6502728"><ele>20.0</ele><time>2026-04-18T14:18:40.289Z</time></trkpt><trkpt lat="39.9162834" lon="9.6502886"><ele>19.833333333333336</ele><time>2026-04-18T14:18:41.289Z</time></trkpt><trkpt lat="39.9163618" lon="9.6503286"><ele>19.666666666666668</ele><time>2026-04-18T14:18:42.29Z</time></trkpt><trkpt lat="39.9164259" lon="9.6503871"><ele>19.5</ele><time>2026-04-18T14:18:43.291Z</time></trkpt><trkpt lat="39.9164862" lon="9.6504441"><ele>19.333333333333332</ele><time>2026-04-18T14:18:44.29Z</time></trkpt><trkpt lat="39.9165505" lon="9.6504785"><ele>19.166666666666664</ele><time>2026-04-18T14:18:45.29Z</time></trkpt><trkpt lat="39.9166257" lon="9.6504902"><ele>19.0</ele><time>2026-04-18T14:18:46.29Z</time></trkpt><trkpt lat="39.9167091" lon="9.6504647"><ele>19.0</ele><time>2026-04-18T14:18:47.29Z</time></trkpt><trkpt lat="39.916782" lon="9.650399"><ele>19.0</ele><time>2026-04-18T14:18:48.29Z</time></trkpt><trkpt lat="39.9168422" lon="9.650298"><ele>19.0</ele><time>2026-04-18T14:18:49.29Z</time></trkpt><trkpt lat="39.9169156" lon="9.6501924"><ele>19.0</ele><time>2026-04-18T14:18:50.291Z</time></trkpt><trkpt lat="39.9170157" lon="9.6501105"><ele>19.0</ele><time>2026-04-18T14:18:51.29Z</time></trkpt><trkpt lat="39.9171458" lon="9.650036"><ele>18.666666666666664</ele><time>2026-04-18T14:18:52.291Z</time></trkpt><trkpt lat="39.9173058" lon="9.6499558"><ele>18.333333333333332</ele><time>2026-04-18T14:18:53.29Z</time></trkpt><trkpt lat="39.9174814" lon="9.6498782"><ele>18.0</ele><time>2026-04-18T14:18:54.29Z</time></trkpt><trkpt lat="39.9176616" lon="9.649798"><ele>18.666666666666668</ele><time>2026-04-18T14:18:55.29Z</time></trkpt><trkpt lat="39.9178667" lon="9.6497231"><ele>19.333333333333336</ele><time>2026-04-18T14:18:56.291Z</time></trkpt><trkpt lat="39.9180745" lon="9.6496484"><ele>20.0</ele><time>2026-04-18T14:18:57.29Z</time></trkpt><trkpt lat="39.9182872" lon="9.6495787"><ele>19.5</ele><time>2026-04-18T14:18:58.289Z</time></trkpt><trkpt lat="39.918509" lon="9.6495107"><ele>19.0</ele><time>2026-04-18T14:18:59.29Z</time></trkpt><trkpt lat="39.9187349" lon="9.6494377"><ele>20.5</ele><time>2026-04-18T14:19:00.29Z</time></trkpt><trkpt lat="39.918962" lon="9.6493625"><ele>22.0</ele><time>2026-04-18T14:19:01.29Z</time></trkpt><trkpt lat="39.9191974" lon="9.6492855"><ele>20.0</ele><time>2026-04-18T14:19:02.29Z</time></trkpt><trkpt lat="39.9194376" lon="9.6492065"><ele>18.0</ele><time>2026-04-18T14:19:03.29Z</time></trkpt><trkpt lat="39.9196802" lon="9.6491269"><ele>18.0</ele><time>2026-04-18T14:19:04.289Z</time></trkpt><trkpt lat="39.919938" lon="9.6490496"><ele>18.0</ele><time>2026-04-18T14:19:05.29Z</time></trkpt><trkpt lat="39.9201892" lon="9.6489713"><ele>18.5</ele><time>2026-04-18T14:19:06.29Z</time></trkpt><trkpt lat="39.9204353" lon="9.6488811"><ele>19.0</ele><time>2026-04-18T14:19:07.29Z</time></trkpt><trkpt lat="39.9206879" lon="9.6487954"><ele>18.5</ele><time>2026-04-18T14:19:08.29Z</time></trkpt><trkpt lat="39.9209469" lon="9.6487084"><ele>18.0</ele><time>2026-04-18T14:19:09.29Z</time></trkpt><trkpt lat="39.9211999" lon="9.6486273"><ele>18.5</ele><time>2026-04-18T14:19:10.29Z</time></trkpt><trkpt lat="39.9214497" lon="9.6485506"><ele>19.0</ele><time>2026-04-18T14:19:11.29Z</time></trkpt><trkpt lat="39.9216964" lon="9.6484821"><ele>18.5</ele><time>2026-04-18T14:19:12.29Z</time></trkpt><trkpt lat="39.9219422" lon="9.6484179"><ele>18.0</ele><time>2026-04-18T14:19:13.29Z</time></trkpt><trkpt lat="39.9221886" lon="9.6483433"><ele>18.0</ele><time>2026-04-18T14:19:14.29Z</time></trkpt><trkpt lat="39.9224327" lon="9.6482639"><ele>18.0</ele><time>2026-04-18T14:19:15.29Z</time></trkpt><trkpt lat="39.9226779" lon="9.6481819"><ele>18.5</ele><time>2026-04-18T14:19:16.29Z</time></trkpt><trkpt lat="39.9229183" lon="9.6481047"><ele>19.0</ele><time>2026-04-18T14:19:17.29Z</time></trkpt><trkpt lat="39.9231581" lon="9.648027"><ele>19.5</ele><time>2026-04-18T14:19:18.289Z</time></trkpt><trkpt lat="39.9233985" lon="9.6479543"><ele>20.0</ele><time>2026-04-18T14:19:19.29Z</time></trkpt><trkpt lat="39.9236405" lon="9.6478837"><ele>20.0</ele><time>2026-04-18T14:19:20.289Z</time></trkpt><trkpt lat="39.9238746" lon="9.6478057"><ele>20.0</ele><time>2026-04-18T14:19:21.29Z</time></trkpt><trkpt lat="39.9241096" lon="9.6477305"><ele>22.0</ele><time>2026-04-18T14:19:22.29Z</time></trkpt><trkpt lat="39.9243456" lon="9.6476587"><ele>24.0</ele><time>2026-04-18T14:19:23.29Z</time></trkpt><trkpt lat="39.9245797" lon="9.6475826"><ele>24.0</ele><time>2026-04-18T14:19:24.289Z</time></trkpt><trkpt lat="39.9248165" lon="9.6475059"><ele>24.0</ele><time>2026-04-18T14:19:25.289Z</time></trkpt><trkpt lat="39.9250494" lon="9.6474325"><ele>24.0</ele><time>2026-04-18T14:19:26.291Z</time></trkpt><trkpt lat="39.925285" lon="9.6473566"><ele>24.0</ele><time>2026-04-18T14:19:27.29Z</time></trkpt><trkpt lat="39.9255176" lon="9.6472812"><ele>24.0</ele><time>2026-04-18T14:19:28.289Z</time></trkpt><trkpt lat="39.9257495" lon="9.6472068"><ele>24.0</ele><time>2026-04-18T14:19:29.29Z</time></trkpt><trkpt lat="39.9259769" lon="9.6471327"><ele>24.0</ele><time>2026-04-18T14:19:30.29Z</time></trkpt><trkpt lat="39.9262069" lon="9.6470579"><ele>24.0</ele><time>2026-04-18T14:19:31.289Z</time></trkpt><trkpt lat="39.9264371" lon="9.6469779"><ele>25.5</ele><time>2026-04-18T14:19:32.289Z</time></trkpt><trkpt lat="39.9266757" lon="9.6468977"><ele>27.0</ele><time>2026-04-18T14:19:33.291Z</time></trkpt><trkpt lat="39.9269228" lon="9.6468136"><ele>27.5</ele><time>2026-04-18T14:19:34.29Z</time></trkpt><trkpt lat="39.9271599" lon="9.6467345"><ele>28.0</ele><time>2026-04-18T14:19:35.29Z</time></trkpt><trkpt lat="39.927395" lon="9.6466543"><ele>28.0</ele><time>2026-04-18T14:19:36.29Z</time></trkpt><trkpt lat="39.9276309" lon="9.6465725"><ele>28.0</ele><time>2026-04-18T14:19:37.29Z</time></trkpt><trkpt lat="39.9278664" lon="9.6464987"><ele>28.0</ele><time>2026-04-18T14:19:38.29Z</time></trkpt><trkpt lat="39.9281109" lon="9.6464345"><ele>28.0</ele><time>2026-04-18T14:19:39.29Z</time></trkpt><trkpt lat="39.9283479" lon="9.6463695"><ele>28.5</ele><time>2026-04-18T14:19:40.29Z</time></trkpt><trkpt lat="39.9285872" lon="9.6463085"><ele>29.0</ele><time>2026-04-18T14:19:41.29Z</time></trkpt><trkpt lat="39.928822" lon="9.646259"><ele>29.0</ele><time>2026-04-18T14:19:42.291Z</time></trkpt><trkpt lat="39.9290575" lon="9.6462226"><ele>29.0</ele><time>2026-04-18T14:19:43.29Z</time></trkpt><trkpt lat="39.9292925" lon="9.646199"><ele>30.5</ele><time>2026-04-18T14:19:44.29Z</time></trkpt><trkpt lat="39.9295279" lon="9.6461931"><ele>32.0</ele><time>2026-04-18T14:19:45.29Z</time></trkpt><trkpt lat="39.9297651" lon="9.6461972"><ele>32.0</ele><time>2026-04-18T14:19:46.29Z</time></trkpt><trkpt lat="39.9300031" lon="9.6462147"><ele>32.0</ele><time>2026-04-18T14:19:47.29Z</time></trkpt><trkpt lat="39.9302353" lon="9.6462436"><ele>31.0</ele><time>2026-04-18T14:19:48.291Z</time></trkpt><trkpt lat="39.9304689" lon="9.6462771"><ele>30.0</ele><time>2026-04-18T14:19:49.289Z</time></trkpt><trkpt lat="39.9306991" lon="9.6463061"><ele>30.0</ele><time>2026-04-18T14:19:50.291Z</time></trkpt><trkpt lat="39.9309317" lon="9.6463348"><ele>30.0</ele><time>2026-04-18T14:19:51.289Z</time></trkpt><trkpt lat="39.9311602" lon="9.6463663"><ele>30.0</ele><time>2026-04-18T14:19:52.289Z</time></trkpt><trkpt lat="39.9313854" lon="9.6464017"><ele>30.0</ele><time>2026-04-18T14:19:53.29Z</time></trkpt><trkpt lat="39.9316141" lon="9.6464352"><ele>28.5</ele><time>2026-04-18T14:19:54.289Z</time></trkpt><trkpt lat="39.9318442" lon="9.6464699"><ele>27.0</ele><time>2026-04-18T14:19:55.289Z</time></trkpt><trkpt lat="39.9320753" lon="9.6464986"><ele>27.0</ele><time>2026-04-18T14:19:56.289Z</time></trkpt><trkpt lat="39.9323076" lon="9.6465316"><ele>27.0</ele><time>2026-04-18T14:19:57.29Z</time></trkpt><trkpt lat="39.9325444" lon="9.6465669"><ele>27.0</ele><time>2026-04-18T14:19:58.29Z</time></trkpt><trkpt lat="39.9327809" lon="9.6465969"><ele>27.0</ele><time>2026-04-18T14:19:59.291Z</time></trkpt><trkpt lat="39.9330166" lon="9.6466309"><ele>27.0</ele><time>2026-04-18T14:20:00.291Z</time></trkpt><trkpt lat="39.9332548" lon="9.6466616"><ele>27.0</ele><time>2026-04-18T14:20:01.29Z</time></trkpt><trkpt lat="39.9334951" lon="9.6466915"><ele>27.5</ele><time>2026-04-18T14:20:02.29Z</time></trkpt><trkpt lat="39.9337342" lon="9.6467257"><ele>28.0</ele><time>2026-04-18T14:20:03.289Z</time></trkpt><trkpt lat="39.9339719" lon="9.6467605"><ele>28.0</ele><time>2026-04-18T14:20:04.29Z</time></trkpt><trkpt lat="39.9342103" lon="9.6467963"><ele>28.0</ele><time>2026-04-18T14:20:05.29Z</time></trkpt><trkpt lat="39.9344486" lon="9.6468312"><ele>28.5</ele><time>2026-04-18T14:20:06.291Z</time></trkpt><trkpt lat="39.9346871" lon="9.6468661"><ele>29.0</ele><time>2026-04-18T14:20:07.29Z</time></trkpt><trkpt lat="39.9349259" lon="9.6468988"><ele>29.5</ele><time>2026-04-18T14:20:08.291Z</time></trkpt><trkpt lat="39.9351689" lon="9.646929"><ele>30.0</ele><time>2026-04-18T14:20:09.29Z</time></trkpt><trkpt lat="39.9354117" lon="9.6469617"><ele>27.5</ele><time>2026-04-18T14:20:10.289Z</time></trkpt><trkpt lat="39.9356534" lon="9.6469965"><ele>25.0</ele><time>2026-04-18T14:20:11.29Z</time></trkpt><trkpt lat="39.9358914" lon="9.6470299"><ele>24.5</ele><time>2026-04-18T14:20:12.29Z</time></trkpt><trkpt lat="39.9361196" lon="9.6470614"><ele>24.0</ele><time>2026-04-18T14:20:13.29Z</time></trkpt><trkpt lat="39.9363419" lon="9.6470918"><ele>24.0</ele><time>2026-04-18T14:20:14.29Z</time></trkpt><trkpt lat="39.9365626" lon="9.6471191"><ele>24.0</ele><time>2026-04-18T14:20:15.29Z</time></trkpt><trkpt lat="39.9367883" lon="9.647151"><ele>24.0</ele><time>2026-04-18T14:20:16.29Z</time></trkpt><trkpt lat="39.9370133" lon="9.6471792"><ele>24.333333333333336</ele><time>2026-04-18T14:20:17.289Z</time></trkpt><trkpt lat="39.9372344" lon="9.647213"><ele>24.666666666666668</ele><time>2026-04-18T14:20:18.289Z</time></trkpt><trkpt lat="39.9374536" lon="9.6472448"><ele>25.0</ele><time>2026-04-18T14:20:19.289Z</time></trkpt><trkpt lat="39.9376729" lon="9.6472723"><ele>25.333333333333336</ele><time>2026-04-18T14:20:20.29Z</time></trkpt><trkpt lat="39.9378944" lon="9.6473039"><ele>25.666666666666664</ele><time>2026-04-18T14:20:21.29Z</time></trkpt><trkpt lat="39.9381187" lon="9.6473335"><ele>26.0</ele><time>2026-04-18T14:20:22.289Z</time></trkpt><trkpt lat="39.9383482" lon="9.6473691"><ele>26.0</ele><time>2026-04-18T14:20:23.29Z</time></trkpt><trkpt lat="39.9385817" lon="9.6473997"><ele>26.0</ele><time>2026-04-18T14:20:24.289Z</time></trkpt><trkpt lat="39.9388145" lon="9.6474327"><ele>26.0</ele><time>2026-04-18T14:20:25.29Z</time></trkpt><trkpt lat="39.9390468" lon="9.6474667"><ele>26.0</ele><time>2026-04-18T14:20:26.29Z</time></trkpt><trkpt lat="39.9392817" lon="9.6474975"><ele>27.0</ele><time>2026-04-18T14:20:27.29Z</time></trkpt><trkpt lat="39.9395255" lon="9.6475245"><ele>28.0</ele><time>2026-04-18T14:20:28.289Z</time></trkpt><trkpt lat="39.9397812" lon="9.6475576"><ele>28.0</ele><time>2026-04-18T14:20:29.29Z</time></trkpt><trkpt lat="39.940036" lon="9.6475964"><ele>28.0</ele><time>2026-04-18T14:20:30.289Z</time></trkpt><trkpt lat="39.9402897" lon="9.6476369"><ele>27.0</ele><time>2026-04-18T14:20:31.291Z</time></trkpt><trkpt lat="39.9405433" lon="9.6476811"><ele>26.0</ele><time>2026-04-18T14:20:32.29Z</time></trkpt><trkpt lat="39.9407969" lon="9.6477204"><ele>25.5</ele><time>2026-04-18T14:20:33.29Z</time></trkpt><trkpt lat="39.9410431" lon="9.6477573"><ele>25.0</ele><time>2026-04-18T14:20:34.29Z</time></trkpt><trkpt lat="39.941283" lon="9.6477936"><ele>24.5</ele><time>2026-04-18T14:20:35.29Z</time></trkpt><trkpt lat="39.9415175" lon="9.6478258"><ele>24.0</ele><time>2026-04-18T14:20:36.29Z</time></trkpt><trkpt lat="39.9417478" lon="9.6478548"><ele>24.0</ele><time>2026-04-18T14:20:37.29Z</time></trkpt><trkpt lat="39.9419795" lon="9.6478908"><ele>24.0</ele><time>2026-04-18T14:20:38.289Z</time></trkpt><trkpt lat="39.9422061" lon="9.6479234"><ele>24.0</ele><time>2026-04-18T14:20:39.29Z</time></trkpt><trkpt lat="39.9424337" lon="9.6479533"><ele>24.0</ele><time>2026-04-18T14:20:40.289Z</time></trkpt><trkpt lat="39.9426629" lon="9.6479831"><ele>24.0</ele><time>2026-04-18T14:20:41.29Z</time></trkpt><trkpt lat="39.942893" lon="9.6480161"><ele>24.0</ele><time>2026-04-18T14:20:42.29Z</time></trkpt><trkpt lat="39.9431251" lon="9.6480473"><ele>24.0</ele><time>2026-04-18T14:20:43.289Z</time></trkpt><trkpt lat="39.9433588" lon="9.648077"><ele>24.0</ele><time>2026-04-18T14:20:44.291Z</time></trkpt><trkpt lat="39.9435937" lon="9.6481113"><ele>22.5</ele><time>2026-04-18T14:20:45.291Z</time></trkpt><trkpt lat="39.9438266" lon="9.6481503"><ele>21.0</ele><time>2026-04-18T14:20:46.29Z</time></trkpt><trkpt lat="39.9440608" lon="9.6481819"><ele>20.5</ele><time>2026-04-18T14:20:47.29Z</time></trkpt><trkpt lat="39.9442947" lon="9.6482137"><ele>20.0</ele><time>2026-04-18T14:20:48.29Z</time></trkpt><trkpt lat="39.9445278" lon="9.6482456"><ele>20.0</ele><time>2026-04-18T14:20:49.29Z</time></trkpt><trkpt lat="39.944761" lon="9.6482734"><ele>20.0</ele><time>2026-04-18T14:20:50.291Z</time></trkpt><trkpt lat="39.9449957" lon="9.6483057"><ele>19.0</ele><time>2026-04-18T14:20:51.29Z</time></trkpt><trkpt lat="39.9452312" lon="9.648336"><ele>18.0</ele><time>2026-04-18T14:20:52.29Z</time></trkpt><trkpt lat="39.9454704" lon="9.6483652"><ele>18.0</ele><time>2026-04-18T14:20:53.29Z</time></trkpt><trkpt lat="39.9457138" lon="9.6483939"><ele>18.0</ele><time>2026-04-18T14:20:54.291Z</time></trkpt><trkpt lat="39.9459617" lon="9.6484179"><ele>19.0</ele><time>2026-04-18T14:20:55.291Z</time></trkpt><trkpt lat="39.9462024" lon="9.6484427"><ele>20.0</ele><time>2026-04-18T14:20:56.289Z</time></trkpt><trkpt lat="39.9464408" lon="9.6484802"><ele>20.0</ele><time>2026-04-18T14:20:57.29Z</time></trkpt><trkpt lat="39.9466785" lon="9.6485197"><ele>20.0</ele><time>2026-04-18T14:20:58.29Z</time></trkpt><trkpt lat="39.946915" lon="9.6485659"><ele>21.0</ele><time>2026-04-18T14:20:59.29Z</time></trkpt><trkpt lat="39.9471522" lon="9.6486084"><ele>22.0</ele><time>2026-04-18T14:21:00.29Z</time></trkpt><trkpt lat="39.9473896" lon="9.6486466"><ele>21.5</ele><time>2026-04-18T14:21:01.29Z</time></trkpt><trkpt lat="39.9476248" lon="9.6486812"><ele>21.0</ele><time>2026-04-18T14:21:02.29Z</time></trkpt><trkpt lat="39.9478526" lon="9.6487141"><ele>21.0</ele><time>2026-04-18T14:21:03.291Z</time></trkpt><trkpt lat="39.9480819" lon="9.6487464"><ele>21.0</ele><time>2026-04-18T14:21:04.29Z</time></trkpt><trkpt lat="39.9483074" lon="9.6487827"><ele>20.0</ele><time>2026-04-18T14:21:05.29Z</time></trkpt><trkpt lat="39.9485378" lon="9.6488186"><ele>19.0</ele><time>2026-04-18T14:21:06.29Z</time></trkpt><trkpt lat="39.9487714" lon="9.6488679"><ele>19.0</ele><time>2026-04-18T14:21:07.289Z</time></trkpt><trkpt lat="39.9490058" lon="9.6489367"><ele>19.0</ele><time>2026-04-18T14:21:08.289Z</time></trkpt><trkpt lat="39.949229" lon="9.6490167"><ele>20.0</ele><time>2026-04-18T14:21:09.29Z</time></trkpt><trkpt lat="39.9494541" lon="9.6491109"><ele>21.0</ele><time>2026-04-18T14:21:10.29Z</time></trkpt><trkpt lat="39.94968" lon="9.6492188"><ele>21.0</ele><time>2026-04-18T14:21:11.291Z</time></trkpt><trkpt lat="39.9498996" lon="9.6493358"><ele>21.0</ele><time>2026-04-18T14:21:12.29Z</time></trkpt><trkpt lat="39.9501167" lon="9.6494616"><ele>20.0</ele><time>2026-04-18T14:21:13.289Z</time></trkpt><trkpt lat="39.9503302" lon="9.6496004"><ele>19.0</ele><time>2026-04-18T14:21:14.289Z</time></trkpt><trkpt lat="39.9505408" lon="9.6497433"><ele>19.0</ele><time>2026-04-18T14:21:15.29Z</time></trkpt><trkpt lat="39.9507459" lon="9.6498822"><ele>19.0</ele><time>2026-04-18T14:21:16.29Z</time></trkpt><trkpt lat="39.9509433" lon="9.6500152"><ele>18.666666666666664</ele><time>2026-04-18T14:21:17.29Z</time></trkpt><trkpt lat="39.9511409" lon="9.6501471"><ele>18.333333333333332</ele><time>2026-04-18T14:21:18.29Z</time></trkpt><trkpt lat="39.9513299" lon="9.6502767"><ele>18.0</ele><time>2026-04-18T14:21:19.291Z</time></trkpt><trkpt lat="39.9515128" lon="9.6504033"><ele>18.0</ele><time>2026-04-18T14:21:20.29Z</time></trkpt><trkpt lat="39.9516864" lon="9.6505238"><ele>18.0</ele><time>2026-04-18T14:21:21.289Z</time></trkpt><trkpt lat="39.9518535" lon="9.6506415"><ele>18.0</ele><time>2026-04-18T14:21:22.29Z</time></trkpt><trkpt lat="39.9520053" lon="9.6507493"><ele>17.25</ele><time>2026-04-18T14:21:23.29Z</time></trkpt><trkpt lat="39.9521487" lon="9.6508511"><ele>16.5</ele><time>2026-04-18T14:21:24.291Z</time></trkpt><trkpt lat="39.9522803" lon="9.6509359"><ele>15.75</ele><time>2026-04-18T14:21:25.29Z</time></trkpt><trkpt lat="39.9523972" lon="9.6510085"><ele>15.0</ele><time>2026-04-18T14:21:26.29Z</time></trkpt><trkpt lat="39.9524907" lon="9.6510749"><ele>15.0</ele><time>2026-04-18T14:21:27.291Z</time></trkpt><trkpt lat="39.952549" lon="9.6511335"><ele>15.0</ele><time>2026-04-18T14:21:28.29Z</time></trkpt><trkpt lat="39.9525994" lon="9.6512435"><ele>15.0</ele><time>2026-04-18T14:21:30.29Z</time></trkpt><trkpt lat="39.9526104" lon="9.6513381"><ele>15.0</ele><time>2026-04-18T14:21:32.29Z</time></trkpt><trkpt lat="39.9526038" lon="9.6514494"><ele>15.0</ele><time>2026-04-18T14:21:35.291Z</time></trkpt><trkpt lat="39.9525743" lon="9.6515271"><ele>15.0</ele><time>2026-04-18T14:21:38.291Z</time></trkpt><trkpt lat="39.9525618" lon="9.6516466"><ele>15.0</ele><time>2026-04-18T14:21:41.29Z</time></trkpt><trkpt lat="39.9526162" lon="9.6517215"><ele>15.0</ele><time>2026-04-18T14:21:43.29Z</time></trkpt><trkpt lat="39.9526846" lon="9.6517658"><ele>15.0</ele><time>2026-04-18T14:21:45.29Z</time></trkpt><trkpt lat="39.9527068" lon="9.6516793"><ele>15.0</ele><time>2026-04-18T14:21:49.291Z</time></trkpt><trkpt lat="39.9527455" lon="9.6515855"><ele>15.0</ele><time>2026-04-18T14:22:02.29Z</time></trkpt><trkpt lat="39.9528226" lon="9.65156"><ele>15.0</ele><time>2026-04-18T14:26:04.29Z</time></trkpt><trkpt lat="39.9528967" lon="9.6515412"><ele>15.0</ele><time>2026-04-18T14:26:07.288Z</time></trkpt><trkpt lat="39.9529625" lon="9.6514998"><ele>15.0</ele><time>2026-04-18T14:26:11.289Z</time></trkpt><trkpt lat="39.9530443" lon="9.6514734"><ele>15.0</ele><time>2026-04-18T14:26:13.29Z</time></trkpt><trkpt lat="39.953112" lon="9.6515019"><ele>15.0</ele><time>2026-04-18T14:26:14.289Z</time></trkpt><trkpt lat="39.9531904" lon="9.6515535"><ele>15.0</ele><time>2026-04-18T14:26:15.289Z</time></trkpt><trkpt lat="39.953294" lon="9.6516214"><ele>15.0</ele><time>2026-04-18T14:26:16.289Z</time></trkpt><trkpt lat="39.9534123" lon="9.6517008"><ele>13.333333333333334</ele><time>2026-04-18T14:26:17.29Z</time></trkpt><trkpt lat="39.9535521" lon="9.6517958"><ele>11.666666666666668</ele><time>2026-04-18T14:26:18.289Z</time></trkpt><trkpt lat="39.9536997" lon="9.651896"><ele>10.0</ele><time>2026-04-18T14:26:19.29Z</time></trkpt><trkpt lat="39.9538545" lon="9.6520057"><ele>10.0</ele><time>2026-04-18T14:26:20.29Z</time></trkpt><trkpt lat="39.954027" lon="9.6521289"><ele>10.0</ele><time>2026-04-18T14:26:21.29Z</time></trkpt><trkpt lat="39.9542148" lon="9.6522603"><ele>10.0</ele><time>2026-04-18T14:26:22.29Z</time></trkpt><trkpt lat="39.9544055" lon="9.6523915"><ele>9.5</ele><time>2026-04-18T14:26:23.289Z</time></trkpt><trkpt lat="39.9546079" lon="9.6525314"><ele>9.0</ele><time>2026-04-18T14:26:24.288Z</time></trkpt><trkpt lat="39.9548172" lon="9.6526769"><ele>8.5</ele><time>2026-04-18T14:26:25.289Z</time></trkpt><trkpt lat="39.9550217" lon="9.6528246"><ele>8.0</ele><time>2026-04-18T14:26:26.289Z</time></trkpt><trkpt lat="39.9552342" lon="9.6529743"><ele>7.5</ele><time>2026-04-18T14:26:27.289Z</time></trkpt><trkpt lat="39.9554601" lon="9.653124"><ele>7.0</ele><time>2026-04-18T14:26:28.288Z</time></trkpt><trkpt lat="39.9556947" lon="9.6532839"><ele>7.0</ele><time>2026-04-18T14:26:29.288Z</time></trkpt><trkpt lat="39.955937" lon="9.6534458"><ele>7.0</ele><time>2026-04-18T14:26:30.288Z</time></trkpt><trkpt lat="39.9561716" lon="9.6536107"><ele>7.5</ele><time>2026-04-18T14:26:31.289Z</time></trkpt><trkpt lat="39.956406" lon="9.6537786"><ele>8.0</ele><time>2026-04-18T14:26:32.289Z</time></trkpt><trkpt lat="39.9566366" lon="9.65394"><ele>8.0</ele><time>2026-04-18T14:26:33.289Z</time></trkpt><trkpt lat="39.9568672" lon="9.6540983"><ele>8.0</ele><time>2026-04-18T14:26:34.288Z</time></trkpt><trkpt lat="39.9570962" lon="9.6542552"><ele>8.0</ele><time>2026-04-18T14:26:35.289Z</time></trkpt><trkpt lat="39.9573191" lon="9.6544099"><ele>8.0</ele><time>2026-04-18T14:26:36.29Z</time></trkpt><trkpt lat="39.9575474" lon="9.6545671"><ele>8.0</ele><time>2026-04-18T14:26:37.289Z</time></trkpt><trkpt lat="39.9577738" lon="9.6547167"><ele>8.0</ele><time>2026-04-18T14:26:38.289Z</time></trkpt><trkpt lat="39.9580021" lon="9.6548687"><ele>8.0</ele><time>2026-04-18T14:26:39.29Z</time></trkpt><trkpt lat="39.9582287" lon="9.6550244"><ele>8.0</ele><time>2026-04-18T14:26:40.289Z</time></trkpt><trkpt lat="39.9584468" lon="9.6551813"><ele>7.5</ele><time>2026-04-18T14:26:41.29Z</time></trkpt><trkpt lat="39.9586671" lon="9.6553345"><ele>7.0</ele><time>2026-04-18T14:26:42.289Z</time></trkpt><trkpt lat="39.9588867" lon="9.6554873"><ele>7.0</ele><time>2026-04-18T14:26:43.289Z</time></trkpt><trkpt lat="39.9591063" lon="9.6556396"><ele>7.0</ele><time>2026-04-18T14:26:44.288Z</time></trkpt><trkpt lat="39.9593174" lon="9.6557876"><ele>8.0</ele><time>2026-04-18T14:26:45.288Z</time></trkpt><trkpt lat="39.9595276" lon="9.6559326"><ele>9.0</ele><time>2026-04-18T14:26:46.288Z</time></trkpt><trkpt lat="39.9597254" lon="9.6560692"><ele>9.0</ele><time>2026-04-18T14:26:47.289Z</time></trkpt><trkpt lat="39.9599243" lon="9.6562113"><ele>9.0</ele><time>2026-04-18T14:26:48.289Z</time></trkpt><trkpt lat="39.9601217" lon="9.6563494"><ele>9.0</ele><time>2026-04-18T14:26:49.29Z</time></trkpt><trkpt lat="39.9603173" lon="9.656491"><ele>9.0</ele><time>2026-04-18T14:26:50.289Z</time></trkpt><trkpt lat="39.9605125" lon="9.6566298"><ele>9.0</ele><time>2026-04-18T14:26:51.289Z</time></trkpt><trkpt lat="39.9607093" lon="9.6567677"><ele>8.666666666666666</ele><time>2026-04-18T14:26:52.289Z</time></trkpt><trkpt lat="39.9609034" lon="9.6569005"><ele>8.333333333333332</ele><time>2026-04-18T14:26:53.29Z</time></trkpt><trkpt lat="39.9610997" lon="9.657024"><ele>8.0</ele><time>2026-04-18T14:26:54.289Z</time></trkpt><trkpt lat="39.9613021" lon="9.6571299"><ele>8.0</ele><time>2026-04-18T14:26:55.289Z</time></trkpt><trkpt lat="39.9615117" lon="9.6572312"><ele>8.0</ele><time>2026-04-18T14:26:56.288Z</time></trkpt><trkpt lat="39.9617205" lon="9.6573155"><ele>8.0</ele><time>2026-04-18T14:26:57.288Z</time></trkpt><trkpt lat="39.9619281" lon="9.6573862"><ele>8.333333333333332</ele><time>2026-04-18T14:26:58.288Z</time></trkpt><trkpt lat="39.962136" lon="9.6574356"><ele>8.666666666666666</ele><time>2026-04-18T14:26:59.29Z</time></trkpt><trkpt lat="39.9623501" lon="9.6574705"><ele>9.0</ele><time>2026-04-18T14:27:00.289Z</time></trkpt><trkpt lat="39.9625705" lon="9.6574893"><ele>9.0</ele><time>2026-04-18T14:27:01.289Z</time></trkpt><trkpt lat="39.9627881" lon="9.6574932"><ele>9.0</ele><time>2026-04-18T14:27:02.289Z</time></trkpt><trkpt lat="39.9630063" lon="9.6574802"><ele>9.0</ele><time>2026-04-18T14:27:03.289Z</time></trkpt><trkpt lat="39.9632195" lon="9.6574709"><ele>11.0</ele><time>2026-04-18T14:27:04.288Z</time></trkpt><trkpt lat="39.9634244" lon="9.6574597"><ele>13.0</ele><time>2026-04-18T14:27:05.288Z</time></trkpt><trkpt lat="39.9636234" lon="9.6574482"><ele>15.0</ele><time>2026-04-18T14:27:06.289Z</time></trkpt><trkpt lat="39.9638144" lon="9.6574376"><ele>15.0</ele><time>2026-04-18T14:27:07.288Z</time></trkpt><trkpt lat="39.9640033" lon="9.6574429"><ele>15.0</ele><time>2026-04-18T14:27:08.289Z</time></trkpt><trkpt lat="39.9641901" lon="9.6574884"><ele>15.0</ele><time>2026-04-18T14:27:09.288Z</time></trkpt><trkpt lat="39.9643683" lon="9.657562"><ele>14.333333333333332</ele><time>2026-04-18T14:27:10.288Z</time></trkpt><trkpt lat="39.9645304" lon="9.6576512"><ele>13.666666666666666</ele><time>2026-04-18T14:27:11.289Z</time></trkpt><trkpt lat="39.9646909" lon="9.657757"><ele>13.0</ele><time>2026-04-18T14:27:12.289Z</time></trkpt><trkpt lat="39.9648537" lon="9.657855"><ele>12.0</ele><time>2026-04-18T14:27:13.289Z</time></trkpt><trkpt lat="39.965012" lon="9.6579698"><ele>11.0</ele><time>2026-04-18T14:27:14.288Z</time></trkpt><trkpt lat="39.9651651" lon="9.6580779"><ele>10.0</ele><time>2026-04-18T14:27:15.288Z</time></trkpt><trkpt lat="39.9653147" lon="9.6581821"><ele>8.666666666666668</ele><time>2026-04-18T14:27:16.289Z</time></trkpt><trkpt lat="39.9654595" lon="9.6582878"><ele>7.333333333333334</ele><time>2026-04-18T14:27:17.289Z</time></trkpt><trkpt lat="39.9656004" lon="9.6583872"><ele>6.0</ele><time>2026-04-18T14:27:18.289Z</time></trkpt><trkpt lat="39.9657374" lon="9.65848"><ele>6.0</ele><time>2026-04-18T14:27:19.289Z</time></trkpt><trkpt lat="39.9658745" lon="9.6585716"><ele>6.0</ele><time>2026-04-18T14:27:20.289Z</time></trkpt><trkpt lat="39.96601" lon="9.6586661"><ele>6.0</ele><time>2026-04-18T14:27:21.289Z</time></trkpt><trkpt lat="39.9661571" lon="9.6587699"><ele>5.666666666666667</ele><time>2026-04-18T14:27:22.288Z</time></trkpt><trkpt lat="39.966305" lon="9.6588686"><ele>5.333333333333334</ele><time>2026-04-18T14:27:23.288Z</time></trkpt><trkpt lat="39.9664574" lon="9.6589762"><ele>5.0</ele><time>2026-04-18T14:27:24.288Z</time></trkpt><trkpt lat="39.9666077" lon="9.6590849"><ele>5.666666666666667</ele><time>2026-04-18T14:27:25.288Z</time></trkpt><trkpt lat="39.966752" lon="9.6591899"><ele>6.333333333333334</ele><time>2026-04-18T14:27:26.289Z</time></trkpt><trkpt lat="39.966889" lon="9.659287"><ele>7.0</ele><time>2026-04-18T14:27:27.289Z</time></trkpt><trkpt lat="39.9670202" lon="9.6593802"><ele>7.5</ele><time>2026-04-18T14:27:28.289Z</time></trkpt><trkpt lat="39.9671514" lon="9.6594721"><ele>8.0</ele><time>2026-04-18T14:27:29.289Z</time></trkpt><trkpt lat="39.9672792" lon="9.6595591"><ele>8.5</ele><time>2026-04-18T14:27:30.29Z</time></trkpt><trkpt lat="39.9673991" lon="9.6596418"><ele>9.0</ele><time>2026-04-18T14:27:31.288Z</time></trkpt><trkpt lat="39.9675119" lon="9.6597223"><ele>8.75</ele><time>2026-04-18T14:27:32.289Z</time></trkpt><trkpt lat="39.9676209" lon="9.6598011"><ele>8.5</ele><time>2026-04-18T14:27:33.288Z</time></trkpt><trkpt lat="39.9677274" lon="9.659875"><ele>8.25</ele><time>2026-04-18T14:27:34.288Z</time></trkpt><trkpt lat="39.9678276" lon="9.6599459"><ele>8.0</ele><time>2026-04-18T14:27:35.289Z</time></trkpt><trkpt lat="39.9679247" lon="9.6600098"><ele>8.0</ele><time>2026-04-18T14:27:36.289Z</time></trkpt><trkpt lat="39.9680185" lon="9.6600711"><ele>8.0</ele><time>2026-04-18T14:27:37.289Z</time></trkpt><trkpt lat="39.9681051" lon="9.6601256"><ele>8.0</ele><time>2026-04-18T14:27:38.289Z</time></trkpt><trkpt lat="39.9681879" lon="9.6601855"><ele>8.0</ele><time>2026-04-18T14:27:39.289Z</time></trkpt><trkpt lat="39.9682674" lon="9.6602433"><ele>8.0</ele><time>2026-04-18T14:27:40.289Z</time></trkpt><trkpt lat="39.9683432" lon="9.6602957"><ele>7.999999999999999</ele><time>2026-04-18T14:27:41.288Z</time></trkpt><trkpt lat="39.9684182" lon="9.6603433"><ele>8.0</ele><time>2026-04-18T14:27:42.288Z</time></trkpt><trkpt lat="39.9684871" lon="9.6603945"><ele>8.0</ele><time>2026-04-18T14:27:43.289Z</time></trkpt><trkpt lat="39.9685595" lon="9.6604445"><ele>8.0</ele><time>2026-04-18T14:27:44.29Z</time></trkpt><trkpt lat="39.9686318" lon="9.6604972"><ele>7.999999999999999</ele><time>2026-04-18T14:27:45.289Z</time></trkpt><trkpt lat="39.9687059" lon="9.6605487"><ele>8.0</ele><time>2026-04-18T14:27:46.289Z</time></trkpt><trkpt lat="39.9687718" lon="9.6605926"><ele>7.999999999999999</ele><time>2026-04-18T14:27:47.29Z</time></trkpt><trkpt lat="39.9688392" lon="9.6606377"><ele>8.0</ele><time>2026-04-18T14:27:48.29Z</time></trkpt><trkpt lat="39.9688969" lon="9.6606766"><ele>8.0</ele><time>2026-04-18T14:27:49.29Z</time></trkpt><trkpt lat="39.9689823" lon="9.6607414"><ele>8.0</ele><time>2026-04-18T14:27:51.29Z</time></trkpt><trkpt lat="39.9690447" lon="9.6608057"><ele>7.999999999999999</ele><time>2026-04-18T14:27:53.289Z</time></trkpt><trkpt lat="39.9691032" lon="9.6608592"><ele>8.0</ele><time>2026-04-18T14:27:55.29Z</time></trkpt><trkpt lat="39.9691638" lon="9.6608995"><ele>8.666666666666666</ele><time>2026-04-18T14:27:57.288Z</time></trkpt><trkpt lat="39.9692301" lon="9.6609418"><ele>9.333333333333332</ele><time>2026-04-18T14:28:00.289Z</time></trkpt><trkpt lat="39.969301" lon="9.6609654"><ele>10.0</ele><time>2026-04-18T14:28:45.288Z</time></trkpt><trkpt lat="39.9693857" lon="9.6610161"><ele>10.666666666666666</ele><time>2026-04-18T14:28:46.289Z</time></trkpt><trkpt lat="39.9694539" lon="9.661058"><ele>11.333333333333334</ele><time>2026-04-18T14:28:47.29Z</time></trkpt><trkpt lat="39.9695353" lon="9.6611168"><ele>12.0</ele><time>2026-04-18T14:28:48.288Z</time></trkpt><trkpt lat="39.9696136" lon="9.6611864"><ele>12.0</ele><time>2026-04-18T14:28:49.29Z</time></trkpt><trkpt lat="39.9696838" lon="9.6612527"><ele>12.0</ele><time>2026-04-18T14:28:50.289Z</time></trkpt><trkpt lat="39.9697663" lon="9.6613192"><ele>12.0</ele><time>2026-04-18T14:28:51.29Z</time></trkpt><trkpt lat="39.969868" lon="9.6613865"><ele>12.0</ele><time>2026-04-18T14:28:52.289Z</time></trkpt><trkpt lat="39.9699434" lon="9.6614216"><ele>12.0</ele><time>2026-04-18T14:28:53.288Z</time></trkpt><trkpt lat="39.9700185" lon="9.6614827"><ele>13.0</ele><time>2026-04-18T14:28:54.289Z</time></trkpt><trkpt lat="39.9700965" lon="9.6615474"><ele>14.0</ele><time>2026-04-18T14:28:55.288Z</time></trkpt><trkpt lat="39.9701696" lon="9.6616238"><ele>15.0</ele><time>2026-04-18T14:28:56.288Z</time></trkpt><trkpt lat="39.9702241" lon="9.6616986"><ele>16.0</ele><time>2026-04-18T14:28:57.289Z</time></trkpt><trkpt lat="39.9702435" lon="9.6618638"><ele>17.0</ele><time>2026-04-18T14:28:58.288Z</time></trkpt><trkpt lat="39.9702592" lon="9.6620437"><ele>17.0</ele><time>2026-04-18T14:28:59.289Z</time></trkpt><trkpt lat="39.9702658" lon="9.6622152"><ele>17.0</ele><time>2026-04-18T14:29:00.289Z</time></trkpt><trkpt lat="39.9702806" lon="9.6623726"><ele>17.0</ele><time>2026-04-18T14:29:01.289Z</time></trkpt><trkpt lat="39.9703041" lon="9.6625208"><ele>17.0</ele><time>2026-04-18T14:29:02.289Z</time></trkpt><trkpt lat="39.9703327" lon="9.6626606"><ele>17.0</ele><time>2026-04-18T14:29:03.289Z</time></trkpt><trkpt lat="39.9703801" lon="9.6627893"><ele>17.0</ele><time>2026-04-18T14:29:04.289Z</time></trkpt><trkpt lat="39.9704471" lon="9.6629168"><ele>17.0</ele><time>2026-04-18T14:29:05.288Z</time></trkpt><trkpt lat="39.9705293" lon="9.6630318"><ele>17.0</ele><time>2026-04-18T14:29:06.29Z</time></trkpt><trkpt lat="39.9706166" lon="9.6631384"><ele>17.0</ele><time>2026-04-18T14:29:07.289Z</time></trkpt><trkpt lat="39.9707052" lon="9.6632505"><ele>17.0</ele><time>2026-04-18T14:29:08.289Z</time></trkpt><trkpt lat="39.9707923" lon="9.6633575"><ele>17.0</ele><time>2026-04-18T14:29:09.289Z</time></trkpt><trkpt lat="39.9708833" lon="9.6634754"><ele>17.0</ele><time>2026-04-18T14:29:10.289Z</time></trkpt><trkpt lat="39.970979" lon="9.6635903"><ele>16.0</ele><time>2026-04-18T14:29:11.289Z</time></trkpt><trkpt lat="39.9710716" lon="9.6637048"><ele>15.0</ele><time>2026-04-18T14:29:12.288Z</time></trkpt><trkpt lat="39.9711613" lon="9.6638076"><ele>14.0</ele><time>2026-04-18T14:29:13.288Z</time></trkpt><trkpt lat="39.9712582" lon="9.6639003"><ele>13.0</ele><time>2026-04-18T14:29:14.288Z</time></trkpt><trkpt lat="39.971356" lon="9.6639865"><ele>13.0</ele><time>2026-04-18T14:29:15.288Z</time></trkpt><trkpt lat="39.971468" lon="9.6640476"><ele>13.0</ele><time>2026-04-18T14:29:16.289Z</time></trkpt><trkpt lat="39.9715832" lon="9.6640821"><ele>13.0</ele><time>2026-04-18T14:29:17.29Z</time></trkpt><trkpt lat="39.9717071" lon="9.6640849"><ele>13.0</ele><time>2026-04-18T14:29:18.289Z</time></trkpt><trkpt lat="39.9718497" lon="9.6640595"><ele>10.666666666666666</ele><time>2026-04-18T14:29:19.288Z</time></trkpt><trkpt lat="39.9720023" lon="9.6640093"><ele>8.333333333333332</ele><time>2026-04-18T14:29:20.288Z</time></trkpt><trkpt lat="39.9721603" lon="9.6639471"><ele>6.0</ele><time>2026-04-18T14:29:21.288Z</time></trkpt><trkpt lat="39.9723254" lon="9.6638819"><ele>6.0</ele><time>2026-04-18T14:29:22.289Z</time></trkpt><trkpt lat="39.9724925" lon="9.6638124"><ele>6.0</ele><time>2026-04-18T14:29:23.29Z</time></trkpt><trkpt lat="39.9726635" lon="9.6637424"><ele>6.0</ele><time>2026-04-18T14:29:24.289Z</time></trkpt><trkpt lat="39.9728334" lon="9.6636744"><ele>6.333333333333334</ele><time>2026-04-18T14:29:25.29Z</time></trkpt><trkpt lat="39.972996" lon="9.6636119"><ele>6.666666666666667</ele><time>2026-04-18T14:29:26.289Z</time></trkpt><trkpt lat="39.9731742" lon="9.6635466"><ele>7.0</ele><time>2026-04-18T14:29:27.289Z</time></trkpt><trkpt lat="39.9733623" lon="9.6634988"><ele>7.333333333333334</ele><time>2026-04-18T14:29:28.29Z</time></trkpt><trkpt lat="39.9735586" lon="9.6634738"><ele>7.666666666666666</ele><time>2026-04-18T14:29:29.289Z</time></trkpt><trkpt lat="39.9737488" lon="9.6634748"><ele>8.0</ele><time>2026-04-18T14:29:30.288Z</time></trkpt><trkpt lat="39.9739321" lon="9.6634865"><ele>8.0</ele><time>2026-04-18T14:29:31.288Z</time></trkpt><trkpt lat="39.9741173" lon="9.6635256"><ele>8.0</ele><time>2026-04-18T14:29:32.288Z</time></trkpt><trkpt lat="39.9744952" lon="9.6636623"><ele>8.0</ele><time>2026-04-18T14:29:34.288Z</time></trkpt><trkpt lat="39.974689" lon="9.6637718"><ele>8.0</ele><time>2026-04-18T14:29:35.288Z</time></trkpt><trkpt lat="39.9748902" lon="9.6639141"><ele>8.0</ele><time>2026-04-18T14:29:36.289Z</time></trkpt><trkpt lat="39.9750869" lon="9.6640812"><ele>8.0</ele><time>2026-04-18T14:29:37.289Z</time></trkpt><trkpt lat="39.9752759" lon="9.6642484"><ele>8.0</ele><time>2026-04-18T14:29:38.289Z</time></trkpt><trkpt lat="39.9754493" lon="9.6644074"><ele>8.0</ele><time>2026-04-18T14:29:39.289Z</time></trkpt><trkpt lat="39.9756107" lon="9.6645609"><ele>8.333333333333332</ele><time>2026-04-18T14:29:40.289Z</time></trkpt><trkpt lat="39.9757677" lon="9.6647"><ele>8.666666666666666</ele><time>2026-04-18T14:29:41.289Z</time></trkpt><trkpt lat="39.9759136" lon="9.6648219"><ele>9.0</ele><time>2026-04-18T14:29:42.289Z</time></trkpt><trkpt lat="39.9760608" lon="9.6649168"><ele>12.333333333333332</ele><time>2026-04-18T14:29:43.289Z</time></trkpt><trkpt lat="39.9762153" lon="9.66499"><ele>15.666666666666666</ele><time>2026-04-18T14:29:44.288Z</time></trkpt><trkpt lat="39.9763656" lon="9.6650521"><ele>19.0</ele><time>2026-04-18T14:29:45.288Z</time></trkpt><trkpt lat="39.9765114" lon="9.6651055"><ele>19.0</ele><time>2026-04-18T14:29:46.287Z</time></trkpt><trkpt lat="39.9766488" lon="9.6651475"><ele>19.0</ele><time>2026-04-18T14:29:47.287Z</time></trkpt><trkpt lat="39.9767815" lon="9.6651761"><ele>19.0</ele><time>2026-04-18T14:29:48.288Z</time></trkpt><trkpt lat="39.9769096" lon="9.6652069"><ele>19.0</ele><time>2026-04-18T14:29:49.288Z</time></trkpt><trkpt lat="39.977029" lon="9.6651976"><ele>18.25</ele><time>2026-04-18T14:29:50.288Z</time></trkpt><trkpt lat="39.9771448" lon="9.6651313"><ele>17.5</ele><time>2026-04-18T14:29:51.288Z</time></trkpt><trkpt lat="39.9772548" lon="9.6650308"><ele>16.75</ele><time>2026-04-18T14:29:52.288Z</time></trkpt><trkpt lat="39.9773548" lon="9.6649072"><ele>16.0</ele><time>2026-04-18T14:29:53.288Z</time></trkpt><trkpt lat="39.9774445" lon="9.6647688"><ele>16.5</ele><time>2026-04-18T14:29:54.287Z</time></trkpt><trkpt lat="39.9775271" lon="9.6646162"><ele>17.0</ele><time>2026-04-18T14:29:55.288Z</time></trkpt><trkpt lat="39.9776015" lon="9.6644502"><ele>17.5</ele><time>2026-04-18T14:29:56.288Z</time></trkpt><trkpt lat="39.9776813" lon="9.6642744"><ele>18.0</ele><time>2026-04-18T14:29:57.288Z</time></trkpt><trkpt lat="39.9777589" lon="9.6640918"><ele>18.0</ele><time>2026-04-18T14:29:58.288Z</time></trkpt><trkpt lat="39.9778457" lon="9.663931"><ele>18.0</ele><time>2026-04-18T14:29:59.287Z</time></trkpt><trkpt lat="39.9779618" lon="9.6637976"><ele>18.0</ele><time>2026-04-18T14:30:00.287Z</time></trkpt><trkpt lat="39.9780894" lon="9.6637076"><ele>18.0</ele><time>2026-04-18T14:30:01.288Z</time></trkpt><trkpt lat="39.9782335" lon="9.6636555"><ele>18.0</ele><time>2026-04-18T14:30:02.288Z</time></trkpt><trkpt lat="39.9784085" lon="9.6636389"><ele>18.0</ele><time>2026-04-18T14:30:03.288Z</time></trkpt><trkpt lat="39.9785899" lon="9.6636064"><ele>27.666666666666664</ele><time>2026-04-18T14:30:04.288Z</time></trkpt><trkpt lat="39.9787812" lon="9.6635369"><ele>37.33333333333333</ele><time>2026-04-18T14:30:05.287Z</time></trkpt><trkpt lat="39.9789695" lon="9.6634978"><ele>47.0</ele><time>2026-04-18T14:30:06.288Z</time></trkpt><trkpt lat="39.979157" lon="9.6634682"><ele>41.666666666666664</ele><time>2026-04-18T14:30:07.288Z</time></trkpt><trkpt lat="39.9793407" lon="9.6634217"><ele>36.333333333333336</ele><time>2026-04-18T14:30:08.287Z</time></trkpt><trkpt lat="39.9795254" lon="9.6633517"><ele>31.0</ele><time>2026-04-18T14:30:09.288Z</time></trkpt><trkpt lat="39.9797079" lon="9.6632604"><ele>31.0</ele><time>2026-04-18T14:30:10.288Z</time></trkpt><trkpt lat="39.9798753" lon="9.6631615"><ele>31.0</ele><time>2026-04-18T14:30:11.287Z</time></trkpt><trkpt lat="39.9800438" lon="9.6630335"><ele>31.0</ele><time>2026-04-18T14:30:12.287Z</time></trkpt><trkpt lat="39.9802147" lon="9.6628697"><ele>35.66666666666667</ele><time>2026-04-18T14:30:13.288Z</time></trkpt><trkpt lat="39.9803834" lon="9.6627091"><ele>40.333333333333336</ele><time>2026-04-18T14:30:14.288Z</time></trkpt><trkpt lat="39.9805339" lon="9.6625605"><ele>45.0</ele><time>2026-04-18T14:30:15.288Z</time></trkpt><trkpt lat="39.9806647" lon="9.6624082"><ele>45.0</ele><time>2026-04-18T14:30:16.288Z</time></trkpt><trkpt lat="39.980791" lon="9.6622851"><ele>45.0</ele><time>2026-04-18T14:30:17.287Z</time></trkpt><trkpt lat="39.9809268" lon="9.6622093"><ele>45.0</ele><time>2026-04-18T14:30:18.287Z</time></trkpt><trkpt lat="39.9810696" lon="9.6621889"><ele>45.0</ele><time>2026-04-18T14:30:19.287Z</time></trkpt><trkpt lat="39.9812216" lon="9.6622288"><ele>47.0</ele><time>2026-04-18T14:30:20.288Z</time></trkpt><trkpt lat="39.9813735" lon="9.6622598"><ele>49.0</ele><time>2026-04-18T14:30:21.287Z</time></trkpt><trkpt lat="39.9815267" lon="9.6622499"><ele>51.0</ele><time>2026-04-18T14:30:22.288Z</time></trkpt><trkpt lat="39.9816827" lon="9.6622114"><ele>51.0</ele><time>2026-04-18T14:30:23.289Z</time></trkpt><trkpt lat="39.9818557" lon="9.6621193"><ele>51.0</ele><time>2026-04-18T14:30:24.288Z</time></trkpt><trkpt lat="39.9820416" lon="9.6620272"><ele>51.0</ele><time>2026-04-18T14:30:25.288Z</time></trkpt><trkpt lat="39.9822286" lon="9.6619427"><ele>52.0</ele><time>2026-04-18T14:30:26.289Z</time></trkpt><trkpt lat="39.9824187" lon="9.6618587"><ele>53.0</ele><time>2026-04-18T14:30:27.288Z</time></trkpt><trkpt lat="39.9826073" lon="9.6617721"><ele>54.0</ele><time>2026-04-18T14:30:28.288Z</time></trkpt><trkpt lat="39.9827962" lon="9.6616844"><ele>55.0</ele><time>2026-04-18T14:30:29.288Z</time></trkpt><trkpt lat="39.9829858" lon="9.6616083"><ele>56.0</ele><time>2026-04-18T14:30:30.288Z</time></trkpt><trkpt lat="39.9831727" lon="9.6615312"><ele>57.0</ele><time>2026-04-18T14:30:31.287Z</time></trkpt><trkpt lat="39.9833515" lon="9.6614532"><ele>58.66666666666667</ele><time>2026-04-18T14:30:32.289Z</time></trkpt><trkpt lat="39.9835204" lon="9.6613847"><ele>60.333333333333336</ele><time>2026-04-18T14:30:33.288Z</time></trkpt><trkpt lat="39.9836749" lon="9.6613166"><ele>62.0</ele><time>2026-04-18T14:30:34.288Z</time></trkpt><trkpt lat="39.9838258" lon="9.6612485"><ele>62.0</ele><time>2026-04-18T14:30:35.288Z</time></trkpt><trkpt lat="39.9839668" lon="9.6611863"><ele>62.0</ele><time>2026-04-18T14:30:36.289Z</time></trkpt><trkpt lat="39.9840831" lon="9.6610764"><ele>62.0</ele><time>2026-04-18T14:30:37.288Z</time></trkpt><trkpt lat="39.984199" lon="9.6609334"><ele>59.0</ele><time>2026-04-18T14:30:38.288Z</time></trkpt><trkpt lat="39.9842515" lon="9.6606854"><ele>56.0</ele><time>2026-04-18T14:30:39.288Z</time></trkpt><trkpt lat="39.9843439" lon="9.6605399"><ele>53.0</ele><time>2026-04-18T14:30:40.288Z</time></trkpt><trkpt lat="39.9844446" lon="9.6603891"><ele>56.0</ele><time>2026-04-18T14:30:41.288Z</time></trkpt><trkpt lat="39.9845496" lon="9.6602471"><ele>59.0</ele><time>2026-04-18T14:30:42.288Z</time></trkpt><trkpt lat="39.9846715" lon="9.6601125"><ele>62.0</ele><time>2026-04-18T14:30:43.288Z</time></trkpt><trkpt lat="39.9848106" lon="9.6600009"><ele>62.0</ele><time>2026-04-18T14:30:44.289Z</time></trkpt><trkpt lat="39.9849608" lon="9.6599096"><ele>62.0</ele><time>2026-04-18T14:30:45.288Z</time></trkpt><trkpt lat="39.9852593" lon="9.6597416"><ele>63.0</ele><time>2026-04-18T14:30:47.287Z</time></trkpt><trkpt lat="39.9853824" lon="9.6596349"><ele>64.0</ele><time>2026-04-18T14:30:48.288Z</time></trkpt><trkpt lat="39.9854987" lon="9.6594987"><ele>65.0</ele><time>2026-04-18T14:30:49.287Z</time></trkpt><trkpt lat="39.9856193" lon="9.6593257"><ele>65.0</ele><time>2026-04-18T14:30:50.288Z</time></trkpt><trkpt lat="39.9857464" lon="9.6591186"><ele>65.0</ele><time>2026-04-18T14:30:51.288Z</time></trkpt><trkpt lat="39.9858878" lon="9.6588953"><ele>65.0</ele><time>2026-04-18T14:30:52.288Z</time></trkpt><trkpt lat="39.9860284" lon="9.65868"><ele>65.33333333333334</ele><time>2026-04-18T14:30:53.288Z</time></trkpt><trkpt lat="39.9861575" lon="9.6584833"><ele>65.66666666666667</ele><time>2026-04-18T14:30:54.288Z</time></trkpt><trkpt lat="39.9862834" lon="9.6582901"><ele>66.0</ele><time>2026-04-18T14:30:55.288Z</time></trkpt><trkpt lat="39.9864214" lon="9.6581408"><ele>66.0</ele><time>2026-04-18T14:30:56.288Z</time></trkpt><trkpt lat="39.9865818" lon="9.6580252"><ele>66.0</ele><time>2026-04-18T14:30:57.289Z</time></trkpt><trkpt lat="39.9867765" lon="9.6579447"><ele>66.0</ele><time>2026-04-18T14:30:58.287Z</time></trkpt><trkpt lat="39.9869825" lon="9.6578717"><ele>70.0</ele><time>2026-04-18T14:30:59.288Z</time></trkpt><trkpt lat="39.9872017" lon="9.6577643"><ele>74.0</ele><time>2026-04-18T14:31:00.288Z</time></trkpt><trkpt lat="39.9874258" lon="9.6576285"><ele>72.33333333333334</ele><time>2026-04-18T14:31:01.289Z</time></trkpt><trkpt lat="39.98763" lon="9.6574998"><ele>70.66666666666667</ele><time>2026-04-18T14:31:02.288Z</time></trkpt><trkpt lat="39.9878177" lon="9.6573735"><ele>69.0</ele><time>2026-04-18T14:31:03.288Z</time></trkpt><trkpt lat="39.9879981" lon="9.6572552"><ele>69.0</ele><time>2026-04-18T14:31:04.288Z</time></trkpt><trkpt lat="39.9881629" lon="9.6571477"><ele>69.0</ele><time>2026-04-18T14:31:05.289Z</time></trkpt><trkpt lat="39.9883147" lon="9.6570509"><ele>69.0</ele><time>2026-04-18T14:31:06.287Z</time></trkpt><trkpt lat="39.9884634" lon="9.6569859"><ele>70.33333333333333</ele><time>2026-04-18T14:31:07.287Z</time></trkpt><trkpt lat="39.9886151" lon="9.6569587"><ele>71.66666666666666</ele><time>2026-04-18T14:31:08.288Z</time></trkpt><trkpt lat="39.9887755" lon="9.6569537"><ele>73.0</ele><time>2026-04-18T14:31:09.288Z</time></trkpt><trkpt lat="39.9889486" lon="9.6569574"><ele>74.66666666666666</ele><time>2026-04-18T14:31:10.288Z</time></trkpt><trkpt lat="39.9891257" lon="9.6569474"><ele>76.33333333333333</ele><time>2026-04-18T14:31:11.288Z</time></trkpt><trkpt lat="39.9893085" lon="9.6569172"><ele>78.0</ele><time>2026-04-18T14:31:12.287Z</time></trkpt><trkpt lat="39.9895124" lon="9.6569086"><ele>78.0</ele><time>2026-04-18T14:31:13.287Z</time></trkpt><trkpt lat="39.9897335" lon="9.6569422"><ele>78.0</ele><time>2026-04-18T14:31:14.288Z</time></trkpt><trkpt lat="39.9899523" lon="9.6570112"><ele>78.0</ele><time>2026-04-18T14:31:15.288Z</time></trkpt><trkpt lat="39.9901573" lon="9.6570765"><ele>81.66666666666667</ele><time>2026-04-18T14:31:16.287Z</time></trkpt><trkpt lat="39.9903547" lon="9.6571256"><ele>85.33333333333334</ele><time>2026-04-18T14:31:17.288Z</time></trkpt><trkpt lat="39.9905398" lon="9.6571365"><ele>89.0</ele><time>2026-04-18T14:31:18.288Z</time></trkpt><trkpt lat="39.990712" lon="9.6571193"><ele>86.25</ele><time>2026-04-18T14:31:19.289Z</time></trkpt><trkpt lat="39.9908647" lon="9.6570847"><ele>83.5</ele><time>2026-04-18T14:31:20.289Z</time></trkpt><trkpt lat="39.990992" lon="9.6570676"><ele>80.75</ele><time>2026-04-18T14:31:21.288Z</time></trkpt><trkpt lat="39.9911036" lon="9.6570937"><ele>78.0</ele><time>2026-04-18T14:31:22.288Z</time></trkpt><trkpt lat="39.991185" lon="9.6571829"><ele>78.0</ele><time>2026-04-18T14:31:23.288Z</time></trkpt><trkpt lat="39.9912272" lon="9.6573221"><ele>78.0</ele><time>2026-04-18T14:31:24.287Z</time></trkpt><trkpt lat="39.9912217" lon="9.6574982"><ele>78.0</ele><time>2026-04-18T14:31:25.287Z</time></trkpt><trkpt lat="39.9911993" lon="9.6577058"><ele>78.0</ele><time>2026-04-18T14:31:26.288Z</time></trkpt><trkpt lat="39.9911747" lon="9.6579358"><ele>81.75</ele><time>2026-04-18T14:31:27.288Z</time></trkpt><trkpt lat="39.991155" lon="9.6581468"><ele>85.5</ele><time>2026-04-18T14:31:28.287Z</time></trkpt><trkpt lat="39.9911584" lon="9.6583475"><ele>89.25</ele><time>2026-04-18T14:31:29.287Z</time></trkpt><trkpt lat="39.9912005" lon="9.6585106"><ele>93.0</ele><time>2026-04-18T14:31:30.288Z</time></trkpt><trkpt lat="39.9912885" lon="9.6586491"><ele>93.0</ele><time>2026-04-18T14:31:31.287Z</time></trkpt><trkpt lat="39.9913794" lon="9.6588036"><ele>93.0</ele><time>2026-04-18T14:31:32.288Z</time></trkpt><trkpt lat="39.991569" lon="9.6588992"><ele>93.0</ele><time>2026-04-18T14:31:33.288Z</time></trkpt><trkpt lat="39.9917343" lon="9.6590312"><ele>95.66666666666666</ele><time>2026-04-18T14:31:34.287Z</time></trkpt><trkpt lat="39.9919044" lon="9.6591567"><ele>98.33333333333333</ele><time>2026-04-18T14:31:35.288Z</time></trkpt><trkpt lat="39.9920654" lon="9.6592744"><ele>101.0</ele><time>2026-04-18T14:31:36.289Z</time></trkpt><trkpt lat="39.9922281" lon="9.6593882"><ele>101.33333333333333</ele><time>2026-04-18T14:31:37.288Z</time></trkpt><trkpt lat="39.9923937" lon="9.6594932"><ele>101.66666666666666</ele><time>2026-04-18T14:31:38.287Z</time></trkpt><trkpt lat="39.9925659" lon="9.6595719"><ele>102.0</ele><time>2026-04-18T14:31:39.288Z</time></trkpt><trkpt lat="39.9927421" lon="9.6596516"><ele>102.0</ele><time>2026-04-18T14:31:40.288Z</time></trkpt><trkpt lat="39.9929101" lon="9.6597426"><ele>102.0</ele><time>2026-04-18T14:31:41.288Z</time></trkpt><trkpt lat="39.9930724" lon="9.6598381"><ele>102.0</ele><time>2026-04-18T14:31:42.287Z</time></trkpt><trkpt lat="39.9932308" lon="9.6599452"><ele>104.0</ele><time>2026-04-18T14:31:43.289Z</time></trkpt><trkpt lat="39.9933763" lon="9.6600869"><ele>106.0</ele><time>2026-04-18T14:31:44.289Z</time></trkpt><trkpt lat="39.9935071" lon="9.6602489"><ele>108.0</ele><time>2026-04-18T14:31:45.287Z</time></trkpt><trkpt lat="39.9936347" lon="9.660415"><ele>108.33333333333334</ele><time>2026-04-18T14:31:46.288Z</time></trkpt><trkpt lat="39.9937692" lon="9.6605853"><ele>108.66666666666667</ele><time>2026-04-18T14:31:47.287Z</time></trkpt><trkpt lat="39.9939059" lon="9.6607454"><ele>109.0</ele><time>2026-04-18T14:31:48.289Z</time></trkpt><trkpt lat="39.9940478" lon="9.6608798"><ele>112.25</ele><time>2026-04-18T14:31:49.289Z</time></trkpt><trkpt lat="39.9941823" lon="9.6609785"><ele>115.5</ele><time>2026-04-18T14:31:50.288Z</time></trkpt><trkpt lat="39.9943077" lon="9.6610671"><ele>118.75</ele><time>2026-04-18T14:31:51.288Z</time></trkpt><trkpt lat="39.9944167" lon="9.6611496"><ele>122.0</ele><time>2026-04-18T14:31:52.288Z</time></trkpt><trkpt lat="39.9944998" lon="9.6612397"><ele>122.19999999999999</ele><time>2026-04-18T14:31:53.287Z</time></trkpt><trkpt lat="39.9945486" lon="9.6613449"><ele>122.39999999999999</ele><time>2026-04-18T14:31:54.288Z</time></trkpt><trkpt lat="39.9945672" lon="9.6614695"><ele>122.60000000000001</ele><time>2026-04-18T14:31:55.288Z</time></trkpt><trkpt lat="39.994571" lon="9.6615893"><ele>122.80000000000001</ele><time>2026-04-18T14:31:56.288Z</time></trkpt><trkpt lat="39.9945828" lon="9.6616935"><ele>123.0</ele><time>2026-04-18T14:31:57.288Z</time></trkpt><trkpt lat="39.994637" lon="9.6618033"><ele>123.0</ele><time>2026-04-18T14:31:58.288Z</time></trkpt><trkpt lat="39.9947066" lon="9.6619111"><ele>123.00000000000001</ele><time>2026-04-18T14:31:59.288Z</time></trkpt><trkpt lat="39.994782" lon="9.6619967"><ele>123.00000000000001</ele><time>2026-04-18T14:32:00.288Z</time></trkpt><trkpt lat="39.9948561" lon="9.662086"><ele>123.0</ele><time>2026-04-18T14:32:01.287Z</time></trkpt><trkpt lat="39.9949266" lon="9.6621689"><ele>123.0</ele><time>2026-04-18T14:32:02.288Z</time></trkpt><trkpt lat="39.9949976" lon="9.6622469"><ele>124.4</ele><time>2026-04-18T14:32:03.288Z</time></trkpt><trkpt lat="39.995071" lon="9.6623221"><ele>125.80000000000001</ele><time>2026-04-18T14:32:04.288Z</time></trkpt><trkpt lat="39.9951483" lon="9.6623953"><ele>127.2</ele><time>2026-04-18T14:32:05.288Z</time></trkpt><trkpt lat="39.9952407" lon="9.6624494"><ele>128.6</ele><time>2026-04-18T14:32:06.289Z</time></trkpt><trkpt lat="39.9953495" lon="9.6624923"><ele>130.0</ele><time>2026-04-18T14:32:07.288Z</time></trkpt><trkpt lat="39.9954816" lon="9.662515"><ele>130.0</ele><time>2026-04-18T14:32:08.288Z</time></trkpt><trkpt lat="39.9956341" lon="9.6625489"><ele>130.0</ele><time>2026-04-18T14:32:09.288Z</time></trkpt><trkpt lat="39.9958164" lon="9.6625949"><ele>130.0</ele><time>2026-04-18T14:32:10.287Z</time></trkpt><trkpt lat="39.9959857" lon="9.6626455"><ele>130.66666666666669</ele><time>2026-04-18T14:32:11.289Z</time></trkpt><trkpt lat="39.9961371" lon="9.6627004"><ele>131.33333333333334</ele><time>2026-04-18T14:32:12.287Z</time></trkpt><trkpt lat="39.9962732" lon="9.6627945"><ele>132.0</ele><time>2026-04-18T14:32:13.288Z</time></trkpt><trkpt lat="39.9963983" lon="9.6629284"><ele>132.0</ele><time>2026-04-18T14:32:14.289Z</time></trkpt><trkpt lat="39.9965298" lon="9.6630845"><ele>132.0</ele><time>2026-04-18T14:32:15.289Z</time></trkpt><trkpt lat="39.9966535" lon="9.6632328"><ele>132.0</ele><time>2026-04-18T14:32:16.289Z</time></trkpt><trkpt lat="39.99676" lon="9.6633719"><ele>131.75</ele><time>2026-04-18T14:32:17.288Z</time></trkpt><trkpt lat="39.9968397" lon="9.6635123"><ele>131.5</ele><time>2026-04-18T14:32:18.288Z</time></trkpt><trkpt lat="39.9968962" lon="9.6636787"><ele>131.25</ele><time>2026-04-18T14:32:19.288Z</time></trkpt><trkpt lat="39.9969244" lon="9.6638575"><ele>131.0</ele><time>2026-04-18T14:32:20.288Z</time></trkpt><trkpt lat="39.9969148" lon="9.6640193"><ele>132.25</ele><time>2026-04-18T14:32:21.288Z</time></trkpt><trkpt lat="39.9968588" lon="9.6641819"><ele>133.5</ele><time>2026-04-18T14:32:22.289Z</time></trkpt><trkpt lat="39.9967523" lon="9.6642893"><ele>134.75</ele><time>2026-04-18T14:32:23.287Z</time></trkpt><trkpt lat="39.9966278" lon="9.6643489"><ele>136.0</ele><time>2026-04-18T14:32:24.288Z</time></trkpt><trkpt lat="39.9965032" lon="9.6643686"><ele>136.0</ele><time>2026-04-18T14:32:25.288Z</time></trkpt><trkpt lat="39.99639" lon="9.6644252"><ele>136.0</ele><time>2026-04-18T14:32:26.287Z</time></trkpt><trkpt lat="39.9962911" lon="9.6645361"><ele>136.0</ele><time>2026-04-18T14:32:27.288Z</time></trkpt><trkpt lat="39.9961937" lon="9.6646575"><ele>136.0</ele><time>2026-04-18T14:32:28.288Z</time></trkpt><trkpt lat="39.9961439" lon="9.6649134"><ele>141.66666666666669</ele><time>2026-04-18T14:32:29.288Z</time></trkpt><trkpt lat="39.996065" lon="9.66512"><ele>147.33333333333334</ele><time>2026-04-18T14:32:30.288Z</time></trkpt><trkpt lat="39.9959893" lon="9.6653062"><ele>153.0</ele><time>2026-04-18T14:32:31.289Z</time></trkpt><trkpt lat="39.9959204" lon="9.6654952"><ele>152.33333333333334</ele><time>2026-04-18T14:32:32.287Z</time></trkpt><trkpt lat="39.9958757" lon="9.6657062"><ele>151.66666666666669</ele><time>2026-04-18T14:32:33.287Z</time></trkpt><trkpt lat="39.9958495" lon="9.6659197"><ele>151.0</ele><time>2026-04-18T14:32:34.288Z</time></trkpt><trkpt lat="39.9958259" lon="9.6661183"><ele>151.0</ele><time>2026-04-18T14:32:35.288Z</time></trkpt><trkpt lat="39.9958083" lon="9.6663079"><ele>151.0</ele><time>2026-04-18T14:32:36.288Z</time></trkpt><trkpt lat="39.9958028" lon="9.6664819"><ele>151.0</ele><time>2026-04-18T14:32:37.288Z</time></trkpt><trkpt lat="39.9957939" lon="9.6666515"><ele>151.0</ele><time>2026-04-18T14:32:38.287Z</time></trkpt><trkpt lat="39.9959025" lon="9.6668325"><ele>149.75</ele><time>2026-04-18T14:32:39.288Z</time></trkpt><trkpt lat="39.9959795" lon="9.6669985"><ele>148.5</ele><time>2026-04-18T14:32:40.287Z</time></trkpt><trkpt lat="39.996061" lon="9.6671381"><ele>147.25</ele><time>2026-04-18T14:32:41.288Z</time></trkpt><trkpt lat="39.9961526" lon="9.6672406"><ele>146.0</ele><time>2026-04-18T14:32:42.288Z</time></trkpt><trkpt lat="39.996238" lon="9.6673211"><ele>146.0</ele><time>2026-04-18T14:32:43.287Z</time></trkpt><trkpt lat="39.9963896" lon="9.6672859"><ele>146.0</ele><time>2026-04-18T14:32:44.288Z</time></trkpt><trkpt lat="39.9965147" lon="9.6672566"><ele>146.0</ele><time>2026-04-18T14:32:45.288Z</time></trkpt><trkpt lat="39.9966446" lon="9.6671297"><ele>146.0</ele><time>2026-04-18T14:32:46.289Z</time></trkpt><trkpt lat="39.9967848" lon="9.6669547"><ele>151.33333333333331</ele><time>2026-04-18T14:32:47.288Z</time></trkpt><trkpt lat="39.9969069" lon="9.6668236"><ele>156.66666666666666</ele><time>2026-04-18T14:32:48.288Z</time></trkpt><trkpt lat="39.997039" lon="9.6667009"><ele>162.0</ele><time>2026-04-18T14:32:49.288Z</time></trkpt><trkpt lat="39.9971784" lon="9.6666097"><ele>162.0</ele><time>2026-04-18T14:32:50.287Z</time></trkpt><trkpt lat="39.9973428" lon="9.6665653"><ele>162.0</ele><time>2026-04-18T14:32:51.288Z</time></trkpt><trkpt lat="39.9975198" lon="9.6665344"><ele>162.0</ele><time>2026-04-18T14:32:52.289Z</time></trkpt><trkpt lat="39.9976964" lon="9.6665152"><ele>163.66666666666666</ele><time>2026-04-18T14:32:53.288Z</time></trkpt><trkpt lat="39.9978731" lon="9.6665004"><ele>165.33333333333331</ele><time>2026-04-18T14:32:54.289Z</time></trkpt><trkpt lat="39.9980501" lon="9.6665091"><ele>167.0</ele><time>2026-04-18T14:32:55.287Z</time></trkpt><trkpt lat="39.9982278" lon="9.666541"><ele>167.66666666666666</ele><time>2026-04-18T14:32:56.288Z</time></trkpt><trkpt lat="39.9984057" lon="9.6665598"><ele>168.33333333333334</ele><time>2026-04-18T14:32:57.289Z</time></trkpt><trkpt lat="39.998583" lon="9.666571"><ele>169.0</ele><time>2026-04-18T14:32:58.288Z</time></trkpt><trkpt lat="39.9987546" lon="9.6665805"><ele>169.0</ele><time>2026-04-18T14:32:59.287Z</time></trkpt><trkpt lat="39.9989286" lon="9.6666207"><ele>169.0</ele><time>2026-04-18T14:33:00.287Z</time></trkpt><trkpt lat="39.9991046" lon="9.6666824"><ele>169.0</ele><time>2026-04-18T14:33:01.287Z</time></trkpt><trkpt lat="39.9992836" lon="9.6667467"><ele>167.66666666666669</ele><time>2026-04-18T14:33:02.289Z</time></trkpt><trkpt lat="39.9994679" lon="9.6668062"><ele>166.33333333333334</ele><time>2026-04-18T14:33:03.288Z</time></trkpt><trkpt lat="39.9996378" lon="9.6668644"><ele>165.0</ele><time>2026-04-18T14:33:04.288Z</time></trkpt><trkpt lat="39.9997977" lon="9.6669195"><ele>168.75</ele><time>2026-04-18T14:33:05.288Z</time></trkpt><trkpt lat="39.9999397" lon="9.6669938"><ele>172.5</ele><time>2026-04-18T14:33:06.288Z</time></trkpt><trkpt lat="40.0000608" lon="9.6670934"><ele>176.25</ele><time>2026-04-18T14:33:07.289Z</time></trkpt><trkpt lat="40.0001641" lon="9.6672267"><ele>180.0</ele><time>2026-04-18T14:33:08.288Z</time></trkpt><trkpt lat="40.0002358" lon="9.6673761"><ele>180.0</ele><time>2026-04-18T14:33:09.288Z</time></trkpt><trkpt lat="40.0003134" lon="9.6675104"><ele>180.0</ele><time>2026-04-18T14:33:10.287Z</time></trkpt><trkpt lat="40.0004339" lon="9.6676232"><ele>180.0</ele><time>2026-04-18T14:33:11.287Z</time></trkpt><trkpt lat="40.0005699" lon="9.6676995"><ele>180.0</ele><time>2026-04-18T14:33:12.287Z</time></trkpt><trkpt lat="40.0006937" lon="9.6677878"><ele>183.0</ele><time>2026-04-18T14:33:13.288Z</time></trkpt><trkpt lat="40.0007984" lon="9.6679315"><ele>186.0</ele><time>2026-04-18T14:33:14.288Z</time></trkpt><trkpt lat="40.0008893" lon="9.6680944"><ele>189.0</ele><time>2026-04-18T14:33:15.288Z</time></trkpt><trkpt lat="40.0009656" lon="9.6682821"><ele>190.0</ele><time>2026-04-18T14:33:16.289Z</time></trkpt><trkpt lat="40.0010479" lon="9.6684442"><ele>191.0</ele><time>2026-04-18T14:33:17.288Z</time></trkpt><trkpt lat="40.0011549" lon="9.6686031"><ele>192.0</ele><time>2026-04-18T14:33:18.287Z</time></trkpt><trkpt lat="40.0012798" lon="9.6687368"><ele>196.66666666666669</ele><time>2026-04-18T14:33:19.287Z</time></trkpt><trkpt lat="40.0014379" lon="9.6688615"><ele>201.33333333333334</ele><time>2026-04-18T14:33:20.288Z</time></trkpt><trkpt lat="40.0015972" lon="9.6689526"><ele>206.0</ele><time>2026-04-18T14:33:21.288Z</time></trkpt><trkpt lat="40.0017385" lon="9.6690223"><ele>206.0</ele><time>2026-04-18T14:33:22.287Z</time></trkpt><trkpt lat="40.0018656" lon="9.6690783"><ele>206.0</ele><time>2026-04-18T14:33:23.287Z</time></trkpt><trkpt lat="40.001996" lon="9.6691"><ele>206.0</ele><time>2026-04-18T14:33:24.289Z</time></trkpt><trkpt lat="40.0021424" lon="9.6690558"><ele>206.0</ele><time>2026-04-18T14:33:25.288Z</time></trkpt><trkpt lat="40.0022937" lon="9.6690075"><ele>206.0</ele><time>2026-04-18T14:33:26.287Z</time></trkpt><trkpt lat="40.0024277" lon="9.6688575"><ele>206.0</ele><time>2026-04-18T14:33:27.287Z</time></trkpt><trkpt lat="40.0025592" lon="9.6687861"><ele>206.0</ele><time>2026-04-18T14:33:28.288Z</time></trkpt><trkpt lat="40.0026942" lon="9.6687655"><ele>208.33333333333334</ele><time>2026-04-18T14:33:29.288Z</time></trkpt><trkpt lat="40.0028298" lon="9.6688099"><ele>210.66666666666669</ele><time>2026-04-18T14:33:30.288Z</time></trkpt><trkpt lat="40.002981" lon="9.6688896"><ele>213.0</ele><time>2026-04-18T14:33:31.288Z</time></trkpt><trkpt lat="40.0031359" lon="9.6689657"><ele>213.0</ele><time>2026-04-18T14:33:32.288Z</time></trkpt><trkpt lat="40.0032718" lon="9.669033"><ele>213.0</ele><time>2026-04-18T14:33:33.288Z</time></trkpt><trkpt lat="40.0034021" lon="9.6690742"><ele>213.0</ele><time>2026-04-18T14:33:34.289Z</time></trkpt><trkpt lat="40.0035504" lon="9.6690651"><ele>213.0</ele><time>2026-04-18T14:33:35.288Z</time></trkpt><trkpt lat="40.003695" lon="9.6690515"><ele>214.33333333333331</ele><time>2026-04-18T14:33:36.289Z</time></trkpt><trkpt lat="40.0038486" lon="9.6688634"><ele>215.66666666666666</ele><time>2026-04-18T14:33:37.288Z</time></trkpt><trkpt lat="40.0039839" lon="9.6687647"><ele>217.0</ele><time>2026-04-18T14:33:38.288Z</time></trkpt><trkpt lat="40.0041025" lon="9.6686703"><ele>221.25</ele><time>2026-04-18T14:33:39.288Z</time></trkpt><trkpt lat="40.0042265" lon="9.6686068"><ele>225.5</ele><time>2026-04-18T14:33:40.287Z</time></trkpt><trkpt lat="40.0043629" lon="9.6685915"><ele>229.75</ele><time>2026-04-18T14:33:41.288Z</time></trkpt><trkpt lat="40.004516" lon="9.6686031"><ele>234.0</ele><time>2026-04-18T14:33:42.288Z</time></trkpt><trkpt lat="40.0046932" lon="9.6686129"><ele>234.0</ele><time>2026-04-18T14:33:43.288Z</time></trkpt><trkpt lat="40.0048628" lon="9.6686247"><ele>234.0</ele><time>2026-04-18T14:33:44.287Z</time></trkpt><trkpt lat="40.0050222" lon="9.66864"><ele>234.0</ele><time>2026-04-18T14:33:45.287Z</time></trkpt><trkpt lat="40.0051575" lon="9.6686509"><ele>231.2</ele><time>2026-04-18T14:33:46.288Z</time></trkpt><trkpt lat="40.0052702" lon="9.6686538"><ele>228.39999999999998</ele><time>2026-04-18T14:33:47.288Z</time></trkpt><trkpt lat="40.0053697" lon="9.6686306"><ele>225.6</ele><time>2026-04-18T14:33:48.288Z</time></trkpt><trkpt lat="40.0054566" lon="9.6685887"><ele>222.8</ele><time>2026-04-18T14:33:49.287Z</time></trkpt><trkpt lat="40.0055153" lon="9.6685102"><ele>220.0</ele><time>2026-04-18T14:33:50.288Z</time></trkpt><trkpt lat="40.0055352" lon="9.6683855"><ele>220.0</ele><time>2026-04-18T14:33:51.287Z</time></trkpt><trkpt lat="40.0055265" lon="9.6682275"><ele>220.0</ele><time>2026-04-18T14:33:52.288Z</time></trkpt><trkpt lat="40.0055056" lon="9.6680568"><ele>220.0</ele><time>2026-04-18T14:33:53.288Z</time></trkpt><trkpt lat="40.0053502" lon="9.6678371"><ele>219.66666666666666</ele><time>2026-04-18T14:33:54.288Z</time></trkpt><trkpt lat="40.0052368" lon="9.6676466"><ele>219.33333333333331</ele><time>2026-04-18T14:33:55.288Z</time></trkpt><trkpt lat="40.0051516" lon="9.6674959"><ele>219.0</ele><time>2026-04-18T14:33:56.288Z</time></trkpt><trkpt lat="40.0050932" lon="9.6673534"><ele>219.0</ele><time>2026-04-18T14:33:57.288Z</time></trkpt><trkpt lat="40.0050823" lon="9.6672112"><ele>218.99999999999997</ele><time>2026-04-18T14:33:58.288Z</time></trkpt><trkpt lat="40.0051127" lon="9.6671048"><ele>218.99999999999997</ele><time>2026-04-18T14:33:59.288Z</time></trkpt><trkpt lat="40.0051923" lon="9.6670548"><ele>219.0</ele><time>2026-04-18T14:34:00.288Z</time></trkpt><trkpt lat="40.005302" lon="9.6670244"><ele>219.0</ele><time>2026-04-18T14:34:01.288Z</time></trkpt><trkpt lat="40.0054235" lon="9.6670247"><ele>219.0</ele><time>2026-04-18T14:34:02.288Z</time></trkpt><trkpt lat="40.0055248" lon="9.6670758"><ele>219.0</ele><time>2026-04-18T14:34:03.287Z</time></trkpt><trkpt lat="40.0056098" lon="9.6671757"><ele>219.0</ele><time>2026-04-18T14:34:04.289Z</time></trkpt><trkpt lat="40.0056659" lon="9.6673204"><ele>219.0</ele><time>2026-04-18T14:34:05.288Z</time></trkpt><trkpt lat="40.0056972" lon="9.6675228"><ele>219.0</ele><time>2026-04-18T14:34:06.288Z</time></trkpt><trkpt lat="40.0057153" lon="9.6677245"><ele>219.0</ele><time>2026-04-18T14:34:07.288Z</time></trkpt><trkpt lat="40.0057529" lon="9.6679199"><ele>219.0</ele><time>2026-04-18T14:34:08.288Z</time></trkpt><trkpt lat="40.0058179" lon="9.6681044"><ele>224.66666666666669</ele><time>2026-04-18T14:34:09.289Z</time></trkpt><trkpt lat="40.0059118" lon="9.668274"><ele>230.33333333333334</ele><time>2026-04-18T14:34:10.289Z</time></trkpt><trkpt lat="40.0060314" lon="9.6684226"><ele>236.0</ele><time>2026-04-18T14:34:11.288Z</time></trkpt><trkpt lat="40.0061635" lon="9.66856"><ele>242.66666666666669</ele><time>2026-04-18T14:34:12.288Z</time></trkpt><trkpt lat="40.006291" lon="9.6687027"><ele>249.33333333333331</ele><time>2026-04-18T14:34:13.287Z</time></trkpt><trkpt lat="40.0064184" lon="9.6688678"><ele>256.0</ele><time>2026-04-18T14:34:14.288Z</time></trkpt><trkpt lat="40.0065458" lon="9.6690376"><ele>253.66666666666666</ele><time>2026-04-18T14:34:15.288Z</time></trkpt><trkpt lat="40.0066714" lon="9.66921"><ele>251.33333333333331</ele><time>2026-04-18T14:34:16.288Z</time></trkpt><trkpt lat="40.0067964" lon="9.6693822"><ele>249.0</ele><time>2026-04-18T14:34:17.288Z</time></trkpt><trkpt lat="40.0069217" lon="9.6695457"><ele>258.6666666666667</ele><time>2026-04-18T14:34:18.288Z</time></trkpt><trkpt lat="40.0070463" lon="9.669702"><ele>268.33333333333337</ele><time>2026-04-18T14:34:19.287Z</time></trkpt><trkpt lat="40.0071716" lon="9.6698426"><ele>278.0</ele><time>2026-04-18T14:34:20.288Z</time></trkpt><trkpt lat="40.007302" lon="9.6699733"><ele>278.0</ele><time>2026-04-18T14:34:21.288Z</time></trkpt><trkpt lat="40.00742" lon="9.6701248"><ele>278.0</ele><time>2026-04-18T14:34:22.287Z</time></trkpt><trkpt lat="40.0075255" lon="9.670284"><ele>278.0</ele><time>2026-04-18T14:34:23.287Z</time></trkpt><trkpt lat="40.0076275" lon="9.670448"><ele>279.5</ele><time>2026-04-18T14:34:24.288Z</time></trkpt><trkpt lat="40.0077191" lon="9.6705957"><ele>281.0</ele><time>2026-04-18T14:34:25.288Z</time></trkpt><trkpt lat="40.0078061" lon="9.6707189"><ele>282.5</ele><time>2026-04-18T14:34:26.289Z</time></trkpt><trkpt lat="40.0079039" lon="9.6708098"><ele>284.0</ele><time>2026-04-18T14:34:27.288Z</time></trkpt><trkpt lat="40.0079973" lon="9.6708965"><ele>284.0</ele><time>2026-04-18T14:34:28.288Z</time></trkpt><trkpt lat="40.0081863" lon="9.6708513"><ele>284.0</ele><time>2026-04-18T14:34:29.288Z</time></trkpt><trkpt lat="40.0083321" lon="9.6708809"><ele>284.0</ele><time>2026-04-18T14:34:30.288Z</time></trkpt><trkpt lat="40.0085002" lon="9.6708781"><ele>279.0</ele><time>2026-04-18T14:34:31.288Z</time></trkpt><trkpt lat="40.0086818" lon="9.6708318"><ele>274.0</ele><time>2026-04-18T14:34:32.287Z</time></trkpt><trkpt lat="40.0088694" lon="9.6707714"><ele>269.0</ele><time>2026-04-18T14:34:33.289Z</time></trkpt><trkpt lat="40.009033" lon="9.6707147"><ele>272.0</ele><time>2026-04-18T14:34:34.288Z</time></trkpt><trkpt lat="40.0091762" lon="9.6706573"><ele>275.0</ele><time>2026-04-18T14:34:35.288Z</time></trkpt><trkpt lat="40.0092983" lon="9.6705968"><ele>278.0</ele><time>2026-04-18T14:34:36.287Z</time></trkpt><trkpt lat="40.0094046" lon="9.6705163"><ele>281.0</ele><time>2026-04-18T14:34:37.288Z</time></trkpt><trkpt lat="40.0094883" lon="9.6703718"><ele>273.33333333333337</ele><time>2026-04-18T14:34:38.287Z</time></trkpt><trkpt lat="40.009568" lon="9.6702157"><ele>265.6666666666667</ele><time>2026-04-18T14:34:39.288Z</time></trkpt><trkpt lat="40.0096056" lon="9.669957"><ele>258.0</ele><time>2026-04-18T14:34:40.287Z</time></trkpt><trkpt lat="40.0096569" lon="9.6697654"><ele>258.0</ele><time>2026-04-18T14:34:41.288Z</time></trkpt><trkpt lat="40.0097101" lon="9.6695773"><ele>258.0</ele><time>2026-04-18T14:34:42.288Z</time></trkpt><trkpt lat="40.0097789" lon="9.6694086"><ele>258.0</ele><time>2026-04-18T14:34:43.287Z</time></trkpt><trkpt lat="40.0098624" lon="9.6692607"><ele>258.0</ele><time>2026-04-18T14:34:44.287Z</time></trkpt><trkpt lat="40.0099404" lon="9.6691328"><ele>262.0</ele><time>2026-04-18T14:34:45.287Z</time></trkpt><trkpt lat="40.0099947" lon="9.6689801"><ele>266.0</ele><time>2026-04-18T14:34:46.287Z</time></trkpt><trkpt lat="40.0100078" lon="9.6687971"><ele>270.0</ele><time>2026-04-18T14:34:47.288Z</time></trkpt><trkpt lat="40.009992" lon="9.6686198"><ele>274.0</ele><time>2026-04-18T14:34:48.287Z</time></trkpt><trkpt lat="40.0099946" lon="9.6684812"><ele>274.0</ele><time>2026-04-18T14:34:49.288Z</time></trkpt><trkpt lat="40.010023" lon="9.6683628"><ele>274.0</ele><time>2026-04-18T14:34:50.288Z</time></trkpt><trkpt lat="40.0100863" lon="9.6682804"><ele>274.0</ele><time>2026-04-18T14:34:51.288Z</time></trkpt><trkpt lat="40.0101745" lon="9.6682537"><ele>274.0</ele><time>2026-04-18T14:34:52.289Z</time></trkpt><trkpt lat="40.0102593" lon="9.6682285"><ele>274.0</ele><time>2026-04-18T14:34:53.289Z</time></trkpt><trkpt lat="40.0103991" lon="9.6683324"><ele>274.0</ele><time>2026-04-18T14:34:54.289Z</time></trkpt><trkpt lat="40.0104995" lon="9.6684064"><ele>274.0</ele><time>2026-04-18T14:34:55.287Z</time></trkpt><trkpt lat="40.0105924" lon="9.6685361"><ele>274.0</ele><time>2026-04-18T14:34:56.288Z</time></trkpt><trkpt lat="40.0106718" lon="9.6687223"><ele>274.0</ele><time>2026-04-18T14:34:57.288Z</time></trkpt><trkpt lat="40.0107466" lon="9.6689306"><ele>277.66666666666663</ele><time>2026-04-18T14:34:58.288Z</time></trkpt><trkpt lat="40.0108189" lon="9.6691254"><ele>281.3333333333333</ele><time>2026-04-18T14:34:59.288Z</time></trkpt><trkpt lat="40.0108944" lon="9.6693043"><ele>285.0</ele><time>2026-04-18T14:35:00.288Z</time></trkpt><trkpt lat="40.0109922" lon="9.6694595"><ele>291.5</ele><time>2026-04-18T14:35:01.287Z</time></trkpt><trkpt lat="40.0111016" lon="9.6695809"><ele>298.0</ele><time>2026-04-18T14:35:02.288Z</time></trkpt><trkpt lat="40.0111963" lon="9.6696924"><ele>304.5</ele><time>2026-04-18T14:35:03.288Z</time></trkpt><trkpt lat="40.0112639" lon="9.669829"><ele>311.0</ele><time>2026-04-18T14:35:04.288Z</time></trkpt><trkpt lat="40.0112907" lon="9.6699853"><ele>311.0</ele><time>2026-04-18T14:35:05.288Z</time></trkpt><trkpt lat="40.0112879" lon="9.6701627"><ele>311.0</ele><time>2026-04-18T14:35:06.288Z</time></trkpt><trkpt lat="40.0112399" lon="9.6703621"><ele>311.0</ele><time>2026-04-18T14:35:07.288Z</time></trkpt><trkpt lat="40.0111641" lon="9.6705718"><ele>313.6666666666667</ele><time>2026-04-18T14:35:08.288Z</time></trkpt><trkpt lat="40.0110821" lon="9.6707834"><ele>316.3333333333333</ele><time>2026-04-18T14:35:09.288Z</time></trkpt><trkpt lat="40.0110197" lon="9.6709863"><ele>319.0</ele><time>2026-04-18T14:35:10.288Z</time></trkpt><trkpt lat="40.0109624" lon="9.6711884"><ele>319.0</ele><time>2026-04-18T14:35:11.287Z</time></trkpt><trkpt lat="40.010919" lon="9.6713944"><ele>319.0</ele><time>2026-04-18T14:35:12.287Z</time></trkpt><trkpt lat="40.010905" lon="9.6715909"><ele>319.0</ele><time>2026-04-18T14:35:13.287Z</time></trkpt><trkpt lat="40.010922" lon="9.6717816"><ele>324.0</ele><time>2026-04-18T14:35:14.287Z</time></trkpt><trkpt lat="40.0109703" lon="9.6719759"><ele>329.0</ele><time>2026-04-18T14:35:15.287Z</time></trkpt><trkpt lat="40.011025" lon="9.6721529"><ele>334.0</ele><time>2026-04-18T14:35:16.286Z</time></trkpt><trkpt lat="40.0111062" lon="9.672313"><ele>334.0</ele><time>2026-04-18T14:35:17.287Z</time></trkpt><trkpt lat="40.011218" lon="9.6724577"><ele>334.0</ele><time>2026-04-18T14:35:18.288Z</time></trkpt><trkpt lat="40.0113441" lon="9.6725946"><ele>334.0</ele><time>2026-04-18T14:35:19.286Z</time></trkpt><trkpt lat="40.0114953" lon="9.6727149"><ele>335.25</ele><time>2026-04-18T14:35:20.287Z</time></trkpt><trkpt lat="40.0116295" lon="9.672835"><ele>336.5</ele><time>2026-04-18T14:35:21.287Z</time></trkpt><trkpt lat="40.0117482" lon="9.6729366"><ele>337.75</ele><time>2026-04-18T14:35:22.287Z</time></trkpt><trkpt lat="40.0118494" lon="9.6730189"><ele>339.0</ele><time>2026-04-18T14:35:23.286Z</time></trkpt><trkpt lat="40.0119447" lon="9.673057"><ele>339.0</ele><time>2026-04-18T14:35:24.287Z</time></trkpt><trkpt lat="40.0120472" lon="9.6730455"><ele>339.0</ele><time>2026-04-18T14:35:25.287Z</time></trkpt><trkpt lat="40.0121396" lon="9.6730492"><ele>339.0</ele><time>2026-04-18T14:35:26.287Z</time></trkpt><trkpt lat="40.01223" lon="9.6728678"><ele>339.0</ele><time>2026-04-18T14:35:27.288Z</time></trkpt><trkpt lat="40.0123233" lon="9.6728018"><ele>339.75</ele><time>2026-04-18T14:35:28.287Z</time></trkpt><trkpt lat="40.012436" lon="9.6727523"><ele>340.5</ele><time>2026-04-18T14:35:29.287Z</time></trkpt><trkpt lat="40.0125584" lon="9.6727514"><ele>341.25</ele><time>2026-04-18T14:35:30.287Z</time></trkpt><trkpt lat="40.0126736" lon="9.6728052"><ele>342.0</ele><time>2026-04-18T14:35:31.287Z</time></trkpt><trkpt lat="40.0127867" lon="9.672911"><ele>342.0</ele><time>2026-04-18T14:35:32.287Z</time></trkpt><trkpt lat="40.0129032" lon="9.6730518"><ele>342.0</ele><time>2026-04-18T14:35:33.288Z</time></trkpt><trkpt lat="40.0130112" lon="9.6731821"><ele>342.0</ele><time>2026-04-18T14:35:34.288Z</time></trkpt><trkpt lat="40.0131136" lon="9.6732931"><ele>342.0</ele><time>2026-04-18T14:35:35.286Z</time></trkpt><trkpt lat="40.0132001" lon="9.6734462"><ele>342.25</ele><time>2026-04-18T14:35:36.287Z</time></trkpt><trkpt lat="40.0132474" lon="9.6736265"><ele>342.5</ele><time>2026-04-18T14:35:37.288Z</time></trkpt><trkpt lat="40.0132977" lon="9.6737984"><ele>342.75</ele><time>2026-04-18T14:35:38.287Z</time></trkpt><trkpt lat="40.0133809" lon="9.673953"><ele>343.0</ele><time>2026-04-18T14:35:39.287Z</time></trkpt><trkpt lat="40.013482" lon="9.6740771"><ele>343.0</ele><time>2026-04-18T14:35:40.287Z</time></trkpt><trkpt lat="40.0135558" lon="9.6742058"><ele>343.0</ele><time>2026-04-18T14:35:41.287Z</time></trkpt><trkpt lat="40.0135928" lon="9.6743528"><ele>343.0</ele><time>2026-04-18T14:35:42.286Z</time></trkpt><trkpt lat="40.0135915" lon="9.6745181"><ele>343.0</ele><time>2026-04-18T14:35:43.287Z</time></trkpt><trkpt lat="40.0135544" lon="9.674681"><ele>345.2</ele><time>2026-04-18T14:35:44.287Z</time></trkpt><trkpt lat="40.0135199" lon="9.6748219"><ele>347.4</ele><time>2026-04-18T14:35:45.287Z</time></trkpt><trkpt lat="40.0135044" lon="9.6749532"><ele>349.59999999999997</ele><time>2026-04-18T14:35:46.287Z</time></trkpt><trkpt lat="40.0135222" lon="9.6750742"><ele>351.79999999999995</ele><time>2026-04-18T14:35:47.287Z</time></trkpt><trkpt lat="40.013575" lon="9.6751791"><ele>354.0</ele><time>2026-04-18T14:35:48.287Z</time></trkpt><trkpt lat="40.0136447" lon="9.6752718"><ele>356.5</ele><time>2026-04-18T14:35:49.286Z</time></trkpt><trkpt lat="40.0137198" lon="9.6753886"><ele>359.0</ele><time>2026-04-18T14:35:50.286Z</time></trkpt><trkpt lat="40.0137772" lon="9.6755298"><ele>361.5</ele><time>2026-04-18T14:35:51.287Z</time></trkpt><trkpt lat="40.0138046" lon="9.675695"><ele>364.0</ele><time>2026-04-18T14:35:52.287Z</time></trkpt><trkpt lat="40.0137991" lon="9.6758708"><ele>364.0</ele><time>2026-04-18T14:35:53.287Z</time></trkpt><trkpt lat="40.0137618" lon="9.6760646"><ele>364.0</ele><time>2026-04-18T14:35:54.288Z</time></trkpt><trkpt lat="40.0136914" lon="9.6762591"><ele>364.0</ele><time>2026-04-18T14:35:55.287Z</time></trkpt><trkpt lat="40.0135981" lon="9.6764235"><ele>364.75</ele><time>2026-04-18T14:35:56.286Z</time></trkpt><trkpt lat="40.0135049" lon="9.6765584"><ele>365.5</ele><time>2026-04-18T14:35:57.287Z</time></trkpt><trkpt lat="40.013422" lon="9.6766804"><ele>366.25</ele><time>2026-04-18T14:35:58.287Z</time></trkpt><trkpt lat="40.0133659" lon="9.6768024"><ele>367.0</ele><time>2026-04-18T14:35:59.286Z</time></trkpt><trkpt lat="40.0133445" lon="9.6769423"><ele>368.5</ele><time>2026-04-18T14:36:00.287Z</time></trkpt><trkpt lat="40.0133545" lon="9.6770746"><ele>370.0</ele><time>2026-04-18T14:36:01.287Z</time></trkpt><trkpt lat="40.0134388" lon="9.6772262"><ele>371.5</ele><time>2026-04-18T14:36:02.287Z</time></trkpt><trkpt lat="40.0135469" lon="9.677358"><ele>373.0</ele><time>2026-04-18T14:36:03.287Z</time></trkpt><trkpt lat="40.0136784" lon="9.6774954"><ele>373.0</ele><time>2026-04-18T14:36:04.287Z</time></trkpt><trkpt lat="40.0137917" lon="9.6776558"><ele>373.0</ele><time>2026-04-18T14:36:05.288Z</time></trkpt><trkpt lat="40.0138711" lon="9.6778259"><ele>373.0</ele><time>2026-04-18T14:36:06.287Z</time></trkpt><trkpt lat="40.0139146" lon="9.6780074"><ele>379.25</ele><time>2026-04-18T14:36:07.287Z</time></trkpt><trkpt lat="40.0139377" lon="9.6781804"><ele>385.5</ele><time>2026-04-18T14:36:08.287Z</time></trkpt><trkpt lat="40.01395" lon="9.6783254"><ele>391.75</ele><time>2026-04-18T14:36:09.288Z</time></trkpt><trkpt lat="40.0139917" lon="9.6784582"><ele>398.0</ele><time>2026-04-18T14:36:10.287Z</time></trkpt><trkpt lat="40.0140718" lon="9.678554"><ele>399.25</ele><time>2026-04-18T14:36:11.287Z</time></trkpt><trkpt lat="40.0141719" lon="9.6786015"><ele>400.5</ele><time>2026-04-18T14:36:12.287Z</time></trkpt><trkpt lat="40.0142911" lon="9.6786362"><ele>401.75</ele><time>2026-04-18T14:36:13.286Z</time></trkpt><trkpt lat="40.0144413" lon="9.6786003"><ele>403.0</ele><time>2026-04-18T14:36:14.287Z</time></trkpt><trkpt lat="40.0145845" lon="9.6784967"><ele>390.33333333333337</ele><time>2026-04-18T14:36:15.287Z</time></trkpt><trkpt lat="40.0147338" lon="9.6784902"><ele>377.6666666666667</ele><time>2026-04-18T14:36:16.287Z</time></trkpt><trkpt lat="40.0148817" lon="9.678527"><ele>365.0</ele><time>2026-04-18T14:36:17.288Z</time></trkpt><trkpt lat="40.0150237" lon="9.6785931"><ele>377.6666666666667</ele><time>2026-04-18T14:36:18.287Z</time></trkpt><trkpt lat="40.0151703" lon="9.6786493"><ele>390.33333333333337</ele><time>2026-04-18T14:36:19.287Z</time></trkpt><trkpt lat="40.0153201" lon="9.6786636"><ele>403.0</ele><time>2026-04-18T14:36:20.286Z</time></trkpt><trkpt lat="40.0154713" lon="9.6786406"><ele>403.0</ele><time>2026-04-18T14:36:21.287Z</time></trkpt><trkpt lat="40.0156226" lon="9.6786049"><ele>403.0</ele><time>2026-04-18T14:36:22.287Z</time></trkpt><trkpt lat="40.0157767" lon="9.6786188"><ele>403.0</ele><time>2026-04-18T14:36:23.287Z</time></trkpt><trkpt lat="40.0159382" lon="9.6786281"><ele>408.6666666666667</ele><time>2026-04-18T14:36:24.287Z</time></trkpt><trkpt lat="40.01613" lon="9.6786787"><ele>414.33333333333337</ele><time>2026-04-18T14:36:25.287Z</time></trkpt><trkpt lat="40.0162959" lon="9.6786698"><ele>420.0</ele><time>2026-04-18T14:36:26.286Z</time></trkpt><trkpt lat="40.0164488" lon="9.6786631"><ele>420.0</ele><time>2026-04-18T14:36:27.287Z</time></trkpt><trkpt lat="40.0165959" lon="9.6786159"><ele>420.0</ele><time>2026-04-18T14:36:28.287Z</time></trkpt><trkpt lat="40.0167404" lon="9.678505"><ele>420.0</ele><time>2026-04-18T14:36:29.286Z</time></trkpt><trkpt lat="40.0168778" lon="9.6783482"><ele>410.25</ele><time>2026-04-18T14:36:30.286Z</time></trkpt><trkpt lat="40.0170074" lon="9.6782143"><ele>400.5</ele><time>2026-04-18T14:36:31.287Z</time></trkpt><trkpt lat="40.0171205" lon="9.6781055"><ele>390.75</ele><time>2026-04-18T14:36:32.287Z</time></trkpt><trkpt lat="40.0172365" lon="9.6780467"><ele>381.0</ele><time>2026-04-18T14:36:33.288Z</time></trkpt><trkpt lat="40.0173585" lon="9.6780463"><ele>385.75</ele><time>2026-04-18T14:36:34.287Z</time></trkpt><trkpt lat="40.0174867" lon="9.6781182"><ele>390.5</ele><time>2026-04-18T14:36:35.287Z</time></trkpt><trkpt lat="40.0175989" lon="9.6782054"><ele>395.25</ele><time>2026-04-18T14:36:36.288Z</time></trkpt><trkpt lat="40.0177335" lon="9.6782624"><ele>400.0</ele><time>2026-04-18T14:36:37.288Z</time></trkpt><trkpt lat="40.0178712" lon="9.6783055"><ele>400.0</ele><time>2026-04-18T14:36:38.287Z</time></trkpt><trkpt lat="40.0180864" lon="9.6782466"><ele>400.0</ele><time>2026-04-18T14:36:39.286Z</time></trkpt><trkpt lat="40.0182809" lon="9.6782421"><ele>400.0</ele><time>2026-04-18T14:36:40.287Z</time></trkpt><trkpt lat="40.0184671" lon="9.6782331"><ele>401.0</ele><time>2026-04-18T14:36:41.286Z</time></trkpt><trkpt lat="40.0186402" lon="9.678252"><ele>402.0</ele><time>2026-04-18T14:36:42.288Z</time></trkpt><trkpt lat="40.0188004" lon="9.678284"><ele>403.0</ele><time>2026-04-18T14:36:43.288Z</time></trkpt><trkpt lat="40.0189662" lon="9.6783153"><ele>403.0</ele><time>2026-04-18T14:36:44.287Z</time></trkpt><trkpt lat="40.019122" lon="9.6783429"><ele>403.0</ele><time>2026-04-18T14:36:45.286Z</time></trkpt><trkpt lat="40.019266" lon="9.6783879"><ele>403.0</ele><time>2026-04-18T14:36:46.288Z</time></trkpt><trkpt lat="40.0193983" lon="9.6784255"><ele>403.0</ele><time>2026-04-18T14:36:47.287Z</time></trkpt><trkpt lat="40.019515" lon="9.6784458"><ele>404.0</ele><time>2026-04-18T14:36:48.288Z</time></trkpt><trkpt lat="40.019637" lon="9.6784717"><ele>405.0</ele><time>2026-04-18T14:36:49.287Z</time></trkpt><trkpt lat="40.0197554" lon="9.6784115"><ele>406.0</ele><time>2026-04-18T14:36:50.287Z</time></trkpt><trkpt lat="40.0198776" lon="9.6782929"><ele>407.0</ele><time>2026-04-18T14:36:51.287Z</time></trkpt><trkpt lat="40.0199265" lon="9.6780056"><ele>403.66666666666663</ele><time>2026-04-18T14:36:52.286Z</time></trkpt><trkpt lat="40.0200498" lon="9.6778583"><ele>400.33333333333337</ele><time>2026-04-18T14:36:53.287Z</time></trkpt><trkpt lat="40.0201584" lon="9.6777219"><ele>397.0</ele><time>2026-04-18T14:36:54.287Z</time></trkpt><trkpt lat="40.0202567" lon="9.6775863"><ele>397.0</ele><time>2026-04-18T14:36:55.287Z</time></trkpt><trkpt lat="40.0203017" lon="9.6773809"><ele>397.0</ele><time>2026-04-18T14:36:56.287Z</time></trkpt><trkpt lat="40.0203311" lon="9.6771649"><ele>397.0</ele><time>2026-04-18T14:36:57.286Z</time></trkpt><trkpt lat="40.020352" lon="9.6769653"><ele>392.0</ele><time>2026-04-18T14:36:58.286Z</time></trkpt><trkpt lat="40.0204052" lon="9.6767652"><ele>387.0</ele><time>2026-04-18T14:36:59.287Z</time></trkpt><trkpt lat="40.0204801" lon="9.676567"><ele>382.0</ele><time>2026-04-18T14:37:00.286Z</time></trkpt><trkpt lat="40.0205471" lon="9.6763346"><ele>380.66666666666663</ele><time>2026-04-18T14:37:01.287Z</time></trkpt><trkpt lat="40.0205956" lon="9.6760545"><ele>379.3333333333333</ele><time>2026-04-18T14:37:02.288Z</time></trkpt><trkpt lat="40.0206481" lon="9.675803"><ele>378.0</ele><time>2026-04-18T14:37:03.287Z</time></trkpt><trkpt lat="40.0206988" lon="9.6755771"><ele>378.0</ele><time>2026-04-18T14:37:04.288Z</time></trkpt><trkpt lat="40.020747" lon="9.6753673"><ele>378.0</ele><time>2026-04-18T14:37:05.287Z</time></trkpt><trkpt lat="40.0208033" lon="9.6751627"><ele>378.0</ele><time>2026-04-18T14:37:06.287Z</time></trkpt><trkpt lat="40.0208818" lon="9.6749584"><ele>386.0</ele><time>2026-04-18T14:37:07.287Z</time></trkpt><trkpt lat="40.0209655" lon="9.6747691"><ele>394.0</ele><time>2026-04-18T14:37:08.286Z</time></trkpt><trkpt lat="40.0210592" lon="9.6745905"><ele>402.0</ele><time>2026-04-18T14:37:09.287Z</time></trkpt><trkpt lat="40.0211643" lon="9.6744152"><ele>402.0</ele><time>2026-04-18T14:37:10.287Z</time></trkpt><trkpt lat="40.0212783" lon="9.674252"><ele>402.0</ele><time>2026-04-18T14:37:11.287Z</time></trkpt><trkpt lat="40.0213925" lon="9.6740951"><ele>402.0</ele><time>2026-04-18T14:37:12.287Z</time></trkpt><trkpt lat="40.021509" lon="9.6739387"><ele>402.0</ele><time>2026-04-18T14:37:13.286Z</time></trkpt><trkpt lat="40.0216297" lon="9.6737815"><ele>402.0</ele><time>2026-04-18T14:37:14.286Z</time></trkpt><trkpt lat="40.0217534" lon="9.6736235"><ele>402.0</ele><time>2026-04-18T14:37:15.287Z</time></trkpt><trkpt lat="40.0218668" lon="9.6734504"><ele>403.66666666666663</ele><time>2026-04-18T14:37:16.287Z</time></trkpt><trkpt lat="40.0219758" lon="9.6732658"><ele>405.3333333333333</ele><time>2026-04-18T14:37:17.287Z</time></trkpt><trkpt lat="40.0220861" lon="9.673086"><ele>407.0</ele><time>2026-04-18T14:37:18.288Z</time></trkpt><trkpt lat="40.0222152" lon="9.6729225"><ele>413.3333333333333</ele><time>2026-04-18T14:37:19.287Z</time></trkpt><trkpt lat="40.0223554" lon="9.6727678"><ele>419.66666666666663</ele><time>2026-04-18T14:37:20.287Z</time></trkpt><trkpt lat="40.0224962" lon="9.6726179"><ele>426.0</ele><time>2026-04-18T14:37:21.288Z</time></trkpt><trkpt lat="40.022635" lon="9.6724708"><ele>426.0</ele><time>2026-04-18T14:37:22.288Z</time></trkpt><trkpt lat="40.0227673" lon="9.6723108"><ele>426.0</ele><time>2026-04-18T14:37:23.286Z</time></trkpt><trkpt lat="40.0228787" lon="9.6721266"><ele>426.0</ele><time>2026-04-18T14:37:24.287Z</time></trkpt><trkpt lat="40.0229769" lon="9.671937"><ele>417.33333333333337</ele><time>2026-04-18T14:37:25.287Z</time></trkpt><trkpt lat="40.0230704" lon="9.6717571"><ele>408.6666666666667</ele><time>2026-04-18T14:37:26.287Z</time></trkpt><trkpt lat="40.0231791" lon="9.6715903"><ele>400.0</ele><time>2026-04-18T14:37:27.288Z</time></trkpt><trkpt lat="40.0233027" lon="9.6714387"><ele>404.33333333333337</ele><time>2026-04-18T14:37:28.287Z</time></trkpt><trkpt lat="40.0234319" lon="9.671291"><ele>408.66666666666663</ele><time>2026-04-18T14:37:29.288Z</time></trkpt><trkpt lat="40.0235496" lon="9.6711527"><ele>413.0</ele><time>2026-04-18T14:37:30.286Z</time></trkpt><trkpt lat="40.023667" lon="9.671029"><ele>413.0</ele><time>2026-04-18T14:37:31.287Z</time></trkpt><trkpt lat="40.0238102" lon="9.670936"><ele>413.0</ele><time>2026-04-18T14:37:32.287Z</time></trkpt><trkpt lat="40.02396" lon="9.67088"><ele>413.0</ele><time>2026-04-18T14:37:33.287Z</time></trkpt><trkpt lat="40.0241131" lon="9.6708562"><ele>418.75</ele><time>2026-04-18T14:37:34.288Z</time></trkpt><trkpt lat="40.0242659" lon="9.6708549"><ele>424.5</ele><time>2026-04-18T14:37:35.287Z</time></trkpt><trkpt lat="40.0244136" lon="9.6708372"><ele>430.25</ele><time>2026-04-18T14:37:36.287Z</time></trkpt><trkpt lat="40.0245558" lon="9.6707941"><ele>436.0</ele><time>2026-04-18T14:37:37.286Z</time></trkpt><trkpt lat="40.0246921" lon="9.6707022"><ele>436.0</ele><time>2026-04-18T14:37:38.286Z</time></trkpt><trkpt lat="40.0248244" lon="9.6706161"><ele>436.0</ele><time>2026-04-18T14:37:39.286Z</time></trkpt><trkpt lat="40.0249745" lon="9.6704849"><ele>436.0</ele><time>2026-04-18T14:37:40.287Z</time></trkpt><trkpt lat="40.0250094" lon="9.6702371"><ele>437.0</ele><time>2026-04-18T14:37:41.287Z</time></trkpt><trkpt lat="40.0250897" lon="9.6700661"><ele>438.0</ele><time>2026-04-18T14:37:42.287Z</time></trkpt><trkpt lat="40.0251823" lon="9.6699146"><ele>439.0</ele><time>2026-04-18T14:37:43.288Z</time></trkpt><trkpt lat="40.0252948" lon="9.6697777"><ele>439.0</ele><time>2026-04-18T14:37:44.287Z</time></trkpt><trkpt lat="40.0253994" lon="9.6696826"><ele>439.0</ele><time>2026-04-18T14:37:45.287Z</time></trkpt><trkpt lat="40.0255057" lon="9.6696167"><ele>439.0</ele><time>2026-04-18T14:37:46.287Z</time></trkpt><trkpt lat="40.0256026" lon="9.6695731"><ele>439.0</ele><time>2026-04-18T14:37:47.286Z</time></trkpt><trkpt lat="40.0256982" lon="9.6695321"><ele>439.0</ele><time>2026-04-18T14:37:48.287Z</time></trkpt><trkpt lat="40.025795" lon="9.6694848"><ele>440.6</ele><time>2026-04-18T14:37:49.287Z</time></trkpt><trkpt lat="40.0258892" lon="9.6694343"><ele>442.2</ele><time>2026-04-18T14:37:50.287Z</time></trkpt><trkpt lat="40.0259797" lon="9.6693538"><ele>443.80000000000007</ele><time>2026-04-18T14:37:51.287Z</time></trkpt><trkpt lat="40.0260515" lon="9.66924"><ele>445.40000000000003</ele><time>2026-04-18T14:37:52.287Z</time></trkpt><trkpt lat="40.0261198" lon="9.6691377"><ele>447.0</ele><time>2026-04-18T14:37:53.287Z</time></trkpt><trkpt lat="40.0261763" lon="9.6690133"><ele>447.0</ele><time>2026-04-18T14:37:54.286Z</time></trkpt><trkpt lat="40.0262254" lon="9.6688962"><ele>447.00000000000006</ele><time>2026-04-18T14:37:55.287Z</time></trkpt><trkpt lat="40.0262782" lon="9.6687805"><ele>447.00000000000006</ele><time>2026-04-18T14:37:56.286Z</time></trkpt><trkpt lat="40.0263398" lon="9.6686607"><ele>447.0</ele><time>2026-04-18T14:37:57.287Z</time></trkpt><trkpt lat="40.0264084" lon="9.6685342"><ele>447.0</ele><time>2026-04-18T14:37:58.287Z</time></trkpt><trkpt lat="40.0264813" lon="9.6684172"><ele>449.75</ele><time>2026-04-18T14:37:59.288Z</time></trkpt><trkpt lat="40.0265621" lon="9.6683025"><ele>452.5</ele><time>2026-04-18T14:38:00.287Z</time></trkpt><trkpt lat="40.0266463" lon="9.668184"><ele>455.25</ele><time>2026-04-18T14:38:01.287Z</time></trkpt><trkpt lat="40.0267289" lon="9.6680632"><ele>458.0</ele><time>2026-04-18T14:38:02.288Z</time></trkpt><trkpt lat="40.0268069" lon="9.6679509"><ele>458.0</ele><time>2026-04-18T14:38:03.286Z</time></trkpt><trkpt lat="40.0268823" lon="9.6678335"><ele>457.99999999999994</ele><time>2026-04-18T14:38:04.287Z</time></trkpt><trkpt lat="40.0269568" lon="9.6677276"><ele>457.99999999999994</ele><time>2026-04-18T14:38:05.287Z</time></trkpt><trkpt lat="40.0270273" lon="9.6676283"><ele>458.0</ele><time>2026-04-18T14:38:06.287Z</time></trkpt><trkpt lat="40.0271016" lon="9.6675452"><ele>458.0</ele><time>2026-04-18T14:38:07.287Z</time></trkpt><trkpt lat="40.0271758" lon="9.6674642"><ele>460.79999999999995</ele><time>2026-04-18T14:38:08.287Z</time></trkpt><trkpt lat="40.0272538" lon="9.6673824"><ele>463.59999999999997</ele><time>2026-04-18T14:38:09.287Z</time></trkpt><trkpt lat="40.0273302" lon="9.6672893"><ele>466.40000000000003</ele><time>2026-04-18T14:38:10.288Z</time></trkpt><trkpt lat="40.027402" lon="9.6671937"><ele>469.20000000000005</ele><time>2026-04-18T14:38:11.286Z</time></trkpt><trkpt lat="40.027468" lon="9.6671063"><ele>472.0</ele><time>2026-04-18T14:38:12.286Z</time></trkpt><trkpt lat="40.0275365" lon="9.6670305"><ele>472.0</ele><time>2026-04-18T14:38:13.287Z</time></trkpt><trkpt lat="40.0276032" lon="9.666967"><ele>472.00000000000006</ele><time>2026-04-18T14:38:14.286Z</time></trkpt><trkpt lat="40.0276724" lon="9.6669187"><ele>472.00000000000006</ele><time>2026-04-18T14:38:15.288Z</time></trkpt><trkpt lat="40.0277546" lon="9.6668755"><ele>472.0</ele><time>2026-04-18T14:38:16.287Z</time></trkpt><trkpt lat="40.0278511" lon="9.6668404"><ele>472.0</ele><time>2026-04-18T14:38:17.287Z</time></trkpt><trkpt lat="40.0279602" lon="9.666821"><ele>471.0</ele><time>2026-04-18T14:38:18.287Z</time></trkpt><trkpt lat="40.0280943" lon="9.6668078"><ele>470.0</ele><time>2026-04-18T14:38:19.287Z</time></trkpt><trkpt lat="40.028221" lon="9.6667803"><ele>469.0</ele><time>2026-04-18T14:38:20.288Z</time></trkpt><trkpt lat="40.02834" lon="9.6667588"><ele>468.0</ele><time>2026-04-18T14:38:21.288Z</time></trkpt><trkpt lat="40.0284353" lon="9.6667315"><ele>468.0</ele><time>2026-04-18T14:38:22.287Z</time></trkpt><trkpt lat="40.0285388" lon="9.6666746"><ele>467.99999999999994</ele><time>2026-04-18T14:38:23.286Z</time></trkpt><trkpt lat="40.0286378" lon="9.6666138"><ele>467.99999999999994</ele><time>2026-04-18T14:38:24.287Z</time></trkpt><trkpt lat="40.0287204" lon="9.6665498"><ele>468.0</ele><time>2026-04-18T14:38:25.288Z</time></trkpt><trkpt lat="40.0287927" lon="9.6664758"><ele>468.0</ele><time>2026-04-18T14:38:26.287Z</time></trkpt><trkpt lat="40.0288469" lon="9.6664081"><ele>468.0</ele><time>2026-04-18T14:38:27.286Z</time></trkpt><trkpt lat="40.0288947" lon="9.6663193"><ele>467.99999999999994</ele><time>2026-04-18T14:38:28.287Z</time></trkpt><trkpt lat="40.028963" lon="9.6662458"><ele>467.99999999999994</ele><time>2026-04-18T14:38:29.286Z</time></trkpt><trkpt lat="40.0290408" lon="9.6661716"><ele>468.0</ele><time>2026-04-18T14:38:30.287Z</time></trkpt><trkpt lat="40.029124" lon="9.6661104"><ele>468.0</ele><time>2026-04-18T14:38:31.288Z</time></trkpt><trkpt lat="40.0292063" lon="9.6660273"><ele>469.0</ele><time>2026-04-18T14:38:32.287Z</time></trkpt><trkpt lat="40.029295" lon="9.6659395"><ele>469.99999999999994</ele><time>2026-04-18T14:38:33.288Z</time></trkpt><trkpt lat="40.029394" lon="9.6658536"><ele>470.99999999999994</ele><time>2026-04-18T14:38:34.288Z</time></trkpt><trkpt lat="40.029466" lon="9.6657471"><ele>472.0</ele><time>2026-04-18T14:38:35.287Z</time></trkpt><trkpt lat="40.0295335" lon="9.6656374"><ele>473.0</ele><time>2026-04-18T14:38:36.288Z</time></trkpt><trkpt lat="40.0295866" lon="9.6655427"><ele>473.0</ele><time>2026-04-18T14:38:37.287Z</time></trkpt><trkpt lat="40.0296428" lon="9.6654402"><ele>472.99999999999994</ele><time>2026-04-18T14:38:38.286Z</time></trkpt><trkpt lat="40.029701" lon="9.6653325"><ele>472.99999999999994</ele><time>2026-04-18T14:38:39.287Z</time></trkpt><trkpt lat="40.0297555" lon="9.6652139"><ele>473.0</ele><time>2026-04-18T14:38:40.287Z</time></trkpt><trkpt lat="40.0298127" lon="9.6651047"><ele>473.0</ele><time>2026-04-18T14:38:41.288Z</time></trkpt><trkpt lat="40.0298748" lon="9.6649953"><ele>475.25</ele><time>2026-04-18T14:38:42.287Z</time></trkpt><trkpt lat="40.0299449" lon="9.6648888"><ele>477.5</ele><time>2026-04-18T14:38:43.287Z</time></trkpt><trkpt lat="40.0300296" lon="9.6647845"><ele>479.75</ele><time>2026-04-18T14:38:44.287Z</time></trkpt><trkpt lat="40.030126" lon="9.6646863"><ele>482.0</ele><time>2026-04-18T14:38:45.286Z</time></trkpt><trkpt lat="40.0302247" lon="9.6646082"><ele>482.0</ele><time>2026-04-18T14:38:46.286Z</time></trkpt><trkpt lat="40.030322" lon="9.6645378"><ele>482.00000000000006</ele><time>2026-04-18T14:38:47.287Z</time></trkpt><trkpt lat="40.0304148" lon="9.6644777"><ele>482.00000000000006</ele><time>2026-04-18T14:38:48.286Z</time></trkpt><trkpt lat="40.0305075" lon="9.6644211"><ele>482.0</ele><time>2026-04-18T14:38:49.287Z</time></trkpt><trkpt lat="40.0306027" lon="9.6643661"><ele>482.0</ele><time>2026-04-18T14:38:50.287Z</time></trkpt><trkpt lat="40.0306863" lon="9.6643247"><ele>481.8333333333333</ele><time>2026-04-18T14:38:51.287Z</time></trkpt><trkpt lat="40.0307643" lon="9.6642989"><ele>481.66666666666663</ele><time>2026-04-18T14:38:52.287Z</time></trkpt><trkpt lat="40.0308475" lon="9.6642395"><ele>481.5</ele><time>2026-04-18T14:38:53.287Z</time></trkpt><trkpt lat="40.0309312" lon="9.664216"><ele>481.33333333333337</ele><time>2026-04-18T14:38:54.287Z</time></trkpt><trkpt lat="40.0310003" lon="9.6641908"><ele>481.1666666666667</ele><time>2026-04-18T14:38:55.286Z</time></trkpt><trkpt lat="40.0310705" lon="9.6641551"><ele>481.0</ele><time>2026-04-18T14:38:56.286Z</time></trkpt><trkpt lat="40.0311266" lon="9.6640942"><ele>481.0</ele><time>2026-04-18T14:38:57.287Z</time></trkpt><trkpt lat="40.031185" lon="9.6640218"><ele>481.0</ele><time>2026-04-18T14:38:58.287Z</time></trkpt><trkpt lat="40.0312515" lon="9.6639157"><ele>481.0</ele><time>2026-04-18T14:38:59.287Z</time></trkpt><trkpt lat="40.0313327" lon="9.6637716"><ele>481.0</ele><time>2026-04-18T14:39:00.287Z</time></trkpt><trkpt lat="40.0314033" lon="9.663665"><ele>481.0</ele><time>2026-04-18T14:39:01.287Z</time></trkpt><trkpt lat="40.0314782" lon="9.66355"><ele>481.20000000000005</ele><time>2026-04-18T14:39:02.286Z</time></trkpt><trkpt lat="40.031557" lon="9.6634502"><ele>481.40000000000003</ele><time>2026-04-18T14:39:03.287Z</time></trkpt><trkpt lat="40.0316417" lon="9.6633597"><ele>481.6</ele><time>2026-04-18T14:39:04.288Z</time></trkpt><trkpt lat="40.0317314" lon="9.6632791"><ele>481.8</ele><time>2026-04-18T14:39:05.287Z</time></trkpt><trkpt lat="40.0318265" lon="9.6632012"><ele>482.0</ele><time>2026-04-18T14:39:06.287Z</time></trkpt><trkpt lat="40.0319232" lon="9.6631166"><ele>482.0</ele><time>2026-04-18T14:39:07.288Z</time></trkpt><trkpt lat="40.032016" lon="9.6630254"><ele>482.00000000000006</ele><time>2026-04-18T14:39:08.287Z</time></trkpt><trkpt lat="40.0321006" lon="9.6629395"><ele>482.00000000000006</ele><time>2026-04-18T14:39:09.286Z</time></trkpt><trkpt lat="40.0321861" lon="9.662851"><ele>482.0</ele><time>2026-04-18T14:39:10.287Z</time></trkpt><trkpt lat="40.0322658" lon="9.6627575"><ele>482.0</ele><time>2026-04-18T14:39:11.287Z</time></trkpt><trkpt lat="40.032342" lon="9.6626688"><ele>482.49999999999994</ele><time>2026-04-18T14:39:12.287Z</time></trkpt><trkpt lat="40.0324103" lon="9.6625906"><ele>483.0</ele><time>2026-04-18T14:39:13.287Z</time></trkpt><trkpt lat="40.0324645" lon="9.6625019"><ele>483.5</ele><time>2026-04-18T14:39:14.287Z</time></trkpt><trkpt lat="40.0325085" lon="9.662418"><ele>484.0</ele><time>2026-04-18T14:39:15.286Z</time></trkpt><trkpt lat="40.0325654" lon="9.6623262"><ele>484.49999999999994</ele><time>2026-04-18T14:39:17.287Z</time></trkpt><trkpt lat="40.032546" lon="9.6622373"><ele>485.0</ele><time>2026-04-18T14:39:21.288Z</time></trkpt><trkpt lat="40.0325873" lon="9.6621455"><ele>485.0</ele><time>2026-04-18T14:39:27.286Z</time></trkpt><trkpt lat="40.032626" lon="9.6620521"><ele>485.0</ele><time>2026-04-18T14:39:30.286Z</time></trkpt><trkpt lat="40.0326902" lon="9.6620408"><ele>485.0</ele><time>2026-04-18T14:39:36.287Z</time></trkpt></trkseg><trkseg><trkpt lat="40.0329068" lon="9.6618587"><ele>463.0</ele><time>2026-04-18T15:27:51.28Z</time></trkpt><trkpt lat="40.0329837" lon="9.6617553"><ele>462.99999999999994</ele><time>2026-04-18T15:27:52.279Z</time></trkpt><trkpt lat="40.0330626" lon="9.6616624"><ele>462.99999999999994</ele><time>2026-04-18T15:27:53.28Z</time></trkpt><trkpt lat="40.0331401" lon="9.6615715"><ele>463.0</ele><time>2026-04-18T15:27:54.28Z</time></trkpt><trkpt lat="40.0332302" lon="9.6615038"><ele>463.0</ele><time>2026-04-18T15:27:55.28Z</time></trkpt><trkpt lat="40.0333253" lon="9.6614355"><ele>463.0</ele><time>2026-04-18T15:27:56.28Z</time></trkpt><trkpt lat="40.0334206" lon="9.661358"><ele>463.0</ele><time>2026-04-18T15:27:57.28Z</time></trkpt><trkpt lat="40.0335378" lon="9.6612618"><ele>463.0</ele><time>2026-04-18T15:27:58.28Z</time></trkpt><trkpt lat="40.0336633" lon="9.6611688"><ele>463.0</ele><time>2026-04-18T15:27:59.28Z</time></trkpt><trkpt lat="40.0337672" lon="9.6610884"><ele>463.0</ele><time>2026-04-18T15:28:00.279Z</time></trkpt><trkpt lat="40.0338775" lon="9.6610055"><ele>463.0</ele><time>2026-04-18T15:28:01.28Z</time></trkpt><trkpt lat="40.0340106" lon="9.6609431"><ele>463.0</ele><time>2026-04-18T15:28:02.28Z</time></trkpt><trkpt lat="40.0341539" lon="9.6609011"><ele>463.0</ele><time>2026-04-18T15:28:03.28Z</time></trkpt><trkpt lat="40.0342948" lon="9.6608732"><ele>469.33333333333337</ele><time>2026-04-18T15:28:04.281Z</time></trkpt><trkpt lat="40.0344483" lon="9.6608135"><ele>475.66666666666663</ele><time>2026-04-18T15:28:05.28Z</time></trkpt><trkpt lat="40.0346091" lon="9.6607573"><ele>482.0</ele><time>2026-04-18T15:28:06.279Z</time></trkpt><trkpt lat="40.0347603" lon="9.6606798"><ele>482.0</ele><time>2026-04-18T15:28:07.279Z</time></trkpt><trkpt lat="40.034872" lon="9.6604916"><ele>482.0</ele><time>2026-04-18T15:28:08.28Z</time></trkpt><trkpt lat="40.0349843" lon="9.6603178"><ele>482.0</ele><time>2026-04-18T15:28:09.281Z</time></trkpt><trkpt lat="40.0351071" lon="9.6601607"><ele>481.66666666666663</ele><time>2026-04-18T15:28:10.28Z</time></trkpt><trkpt lat="40.0352253" lon="9.6600131"><ele>481.33333333333337</ele><time>2026-04-18T15:28:11.281Z</time></trkpt><trkpt lat="40.0353394" lon="9.6598725"><ele>481.0</ele><time>2026-04-18T15:28:12.279Z</time></trkpt><trkpt lat="40.0354323" lon="9.6597155"><ele>481.0</ele><time>2026-04-18T15:28:13.28Z</time></trkpt><trkpt lat="40.0355133" lon="9.6595557"><ele>481.0</ele><time>2026-04-18T15:28:14.281Z</time></trkpt><trkpt lat="40.0355853" lon="9.6593741"><ele>481.0</ele><time>2026-04-18T15:28:15.281Z</time></trkpt><trkpt lat="40.0356504" lon="9.6591828"><ele>481.75</ele><time>2026-04-18T15:28:16.28Z</time></trkpt><trkpt lat="40.0357093" lon="9.659012"><ele>482.5</ele><time>2026-04-18T15:28:17.279Z</time></trkpt><trkpt lat="40.0357662" lon="9.6588481"><ele>483.25</ele><time>2026-04-18T15:28:18.281Z</time></trkpt><trkpt lat="40.0358214" lon="9.658698"><ele>484.0</ele><time>2026-04-18T15:28:19.279Z</time></trkpt><trkpt lat="40.0358771" lon="9.6585683"><ele>484.0</ele><time>2026-04-18T15:28:20.28Z</time></trkpt><trkpt lat="40.0359662" lon="9.6584668"><ele>484.0</ele><time>2026-04-18T15:28:21.28Z</time></trkpt><trkpt lat="40.0360762" lon="9.6583733"><ele>484.0</ele><time>2026-04-18T15:28:22.279Z</time></trkpt><trkpt lat="40.0361912" lon="9.6582869"><ele>484.0</ele><time>2026-04-18T15:28:23.28Z</time></trkpt><trkpt lat="40.0363039" lon="9.6582085"><ele>484.0</ele><time>2026-04-18T15:28:24.28Z</time></trkpt><trkpt lat="40.0364167" lon="9.6581541"><ele>484.0</ele><time>2026-04-18T15:28:25.28Z</time></trkpt><trkpt lat="40.0365413" lon="9.6581302"><ele>484.0</ele><time>2026-04-18T15:28:26.28Z</time></trkpt><trkpt lat="40.0366804" lon="9.6581318"><ele>484.0</ele><time>2026-04-18T15:28:27.28Z</time></trkpt><trkpt lat="40.0368203" lon="9.6581557"><ele>488.0</ele><time>2026-04-18T15:28:28.28Z</time></trkpt><trkpt lat="40.0369649" lon="9.6581799"><ele>492.0</ele><time>2026-04-18T15:28:29.28Z</time></trkpt><trkpt lat="40.0371211" lon="9.658201"><ele>496.0</ele><time>2026-04-18T15:28:30.279Z</time></trkpt><trkpt lat="40.037307" lon="9.6581441"><ele>496.6666666666667</ele><time>2026-04-18T15:28:31.28Z</time></trkpt><trkpt lat="40.037474" lon="9.6581333"><ele>497.33333333333337</ele><time>2026-04-18T15:28:32.281Z</time></trkpt><trkpt lat="40.0376423" lon="9.6581488"><ele>498.0</ele><time>2026-04-18T15:28:33.28Z</time></trkpt><trkpt lat="40.0378112" lon="9.6581486"><ele>498.0</ele><time>2026-04-18T15:28:34.28Z</time></trkpt><trkpt lat="40.0379815" lon="9.6581465"><ele>498.0</ele><time>2026-04-18T15:28:35.279Z</time></trkpt><trkpt lat="40.0381544" lon="9.6581219"><ele>498.0</ele><time>2026-04-18T15:28:36.28Z</time></trkpt><trkpt lat="40.0383247" lon="9.6581036"><ele>502.66666666666663</ele><time>2026-04-18T15:28:37.28Z</time></trkpt><trkpt lat="40.0384944" lon="9.6580927"><ele>507.3333333333333</ele><time>2026-04-18T15:28:38.279Z</time></trkpt><trkpt lat="40.038674" lon="9.6580763"><ele>512.0</ele><time>2026-04-18T15:28:39.28Z</time></trkpt><trkpt lat="40.0388573" lon="9.6580261"><ele>512.0</ele><time>2026-04-18T15:28:40.279Z</time></trkpt><trkpt lat="40.0390366" lon="9.6579568"><ele>512.0</ele><time>2026-04-18T15:28:41.28Z</time></trkpt><trkpt lat="40.0392198" lon="9.6578842"><ele>512.0</ele><time>2026-04-18T15:28:42.28Z</time></trkpt><trkpt lat="40.0393957" lon="9.6578149"><ele>501.66666666666663</ele><time>2026-04-18T15:28:43.281Z</time></trkpt><trkpt lat="40.0395638" lon="9.6577525"><ele>491.33333333333337</ele><time>2026-04-18T15:28:44.28Z</time></trkpt><trkpt lat="40.0397307" lon="9.6576896"><ele>481.0</ele><time>2026-04-18T15:28:45.28Z</time></trkpt><trkpt lat="40.0398961" lon="9.657619"><ele>486.6666666666667</ele><time>2026-04-18T15:28:46.279Z</time></trkpt><trkpt lat="40.0400639" lon="9.657552"><ele>492.33333333333337</ele><time>2026-04-18T15:28:47.28Z</time></trkpt><trkpt lat="40.0402193" lon="9.6574462"><ele>498.0</ele><time>2026-04-18T15:28:48.28Z</time></trkpt><trkpt lat="40.0403723" lon="9.6573304"><ele>498.0</ele><time>2026-04-18T15:28:49.28Z</time></trkpt><trkpt lat="40.0405214" lon="9.6572243"><ele>498.0</ele><time>2026-04-18T15:28:50.28Z</time></trkpt><trkpt lat="40.0406664" lon="9.6571158"><ele>498.0</ele><time>2026-04-18T15:28:51.28Z</time></trkpt><trkpt lat="40.0408115" lon="9.6570072"><ele>495.0</ele><time>2026-04-18T15:28:52.281Z</time></trkpt><trkpt lat="40.0409433" lon="9.6568978"><ele>492.0</ele><time>2026-04-18T15:28:53.281Z</time></trkpt><trkpt lat="40.0410686" lon="9.6567971"><ele>489.0</ele><time>2026-04-18T15:28:54.28Z</time></trkpt><trkpt lat="40.0411932" lon="9.6566967"><ele>489.0</ele><time>2026-04-18T15:28:55.28Z</time></trkpt><trkpt lat="40.0413058" lon="9.6566223"><ele>489.0</ele><time>2026-04-18T15:28:56.281Z</time></trkpt><trkpt lat="40.0414251" lon="9.6565446"><ele>489.0</ele><time>2026-04-18T15:28:57.28Z</time></trkpt><trkpt lat="40.0415445" lon="9.6564635"><ele>489.0</ele><time>2026-04-18T15:28:58.28Z</time></trkpt><trkpt lat="40.0416754" lon="9.6563902"><ele>493.66666666666663</ele><time>2026-04-18T15:28:59.28Z</time></trkpt><trkpt lat="40.0418248" lon="9.6563323"><ele>498.3333333333333</ele><time>2026-04-18T15:29:00.28Z</time></trkpt><trkpt lat="40.0419687" lon="9.6562806"><ele>503.0</ele><time>2026-04-18T15:29:01.28Z</time></trkpt><trkpt lat="40.0421197" lon="9.6561989"><ele>503.0</ele><time>2026-04-18T15:29:02.28Z</time></trkpt><trkpt lat="40.0422586" lon="9.6561201"><ele>503.0</ele><time>2026-04-18T15:29:03.279Z</time></trkpt><trkpt lat="40.0423708" lon="9.6559501"><ele>503.0</ele><time>2026-04-18T15:29:04.28Z</time></trkpt><trkpt lat="40.0424598" lon="9.6558011"><ele>502.3333333333333</ele><time>2026-04-18T15:29:05.28Z</time></trkpt><trkpt lat="40.0425596" lon="9.6556476"><ele>501.66666666666663</ele><time>2026-04-18T15:29:06.279Z</time></trkpt><trkpt lat="40.0426845" lon="9.6555022"><ele>501.0</ele><time>2026-04-18T15:29:07.28Z</time></trkpt><trkpt lat="40.0428077" lon="9.6553437"><ele>500.0</ele><time>2026-04-18T15:29:08.279Z</time></trkpt><trkpt lat="40.0429686" lon="9.6552108"><ele>499.0</ele><time>2026-04-18T15:29:09.28Z</time></trkpt><trkpt lat="40.0431455" lon="9.6551167"><ele>498.0</ele><time>2026-04-18T15:29:10.281Z</time></trkpt><trkpt lat="40.0433098" lon="9.6549919"><ele>498.0</ele><time>2026-04-18T15:29:11.28Z</time></trkpt><trkpt lat="40.0434781" lon="9.6548581"><ele>498.0</ele><time>2026-04-18T15:29:12.28Z</time></trkpt><trkpt lat="40.0436541" lon="9.6547266"><ele>498.0</ele><time>2026-04-18T15:29:13.28Z</time></trkpt><trkpt lat="40.0438221" lon="9.6545914"><ele>498.0</ele><time>2026-04-18T15:29:14.28Z</time></trkpt><trkpt lat="40.0439911" lon="9.6544593"><ele>498.0</ele><time>2026-04-18T15:29:15.28Z</time></trkpt><trkpt lat="40.0441567" lon="9.6542957"><ele>498.0</ele><time>2026-04-18T15:29:16.28Z</time></trkpt><trkpt lat="40.0443122" lon="9.6541038"><ele>499.33333333333337</ele><time>2026-04-18T15:29:17.281Z</time></trkpt><trkpt lat="40.0444627" lon="9.6539114"><ele>500.6666666666667</ele><time>2026-04-18T15:29:18.279Z</time></trkpt><trkpt lat="40.04459" lon="9.6537008"><ele>502.0</ele><time>2026-04-18T15:29:19.28Z</time></trkpt><trkpt lat="40.0447102" lon="9.6534718"><ele>508.33333333333337</ele><time>2026-04-18T15:29:20.28Z</time></trkpt><trkpt lat="40.0448284" lon="9.6532536"><ele>514.6666666666666</ele><time>2026-04-18T15:29:21.28Z</time></trkpt><trkpt lat="40.0449474" lon="9.6530241"><ele>521.0</ele><time>2026-04-18T15:29:22.28Z</time></trkpt><trkpt lat="40.0450655" lon="9.6527914"><ele>511.0</ele><time>2026-04-18T15:29:23.28Z</time></trkpt><trkpt lat="40.0451717" lon="9.6525462"><ele>501.0</ele><time>2026-04-18T15:29:24.28Z</time></trkpt><trkpt lat="40.0452709" lon="9.6522988"><ele>491.0</ele><time>2026-04-18T15:29:25.28Z</time></trkpt><trkpt lat="40.0453666" lon="9.6520526"><ele>485.3333333333333</ele><time>2026-04-18T15:29:26.279Z</time></trkpt><trkpt lat="40.0454652" lon="9.6518138"><ele>479.66666666666663</ele><time>2026-04-18T15:29:27.279Z</time></trkpt><trkpt lat="40.0455868" lon="9.6515698"><ele>474.0</ele><time>2026-04-18T15:29:28.28Z</time></trkpt><trkpt lat="40.0457239" lon="9.6513393"><ele>480.66666666666663</ele><time>2026-04-18T15:29:29.279Z</time></trkpt><trkpt lat="40.0458659" lon="9.6511279"><ele>487.3333333333333</ele><time>2026-04-18T15:29:30.281Z</time></trkpt><trkpt lat="40.0460099" lon="9.6509189"><ele>494.0</ele><time>2026-04-18T15:29:31.28Z</time></trkpt><trkpt lat="40.0461486" lon="9.6507099"><ele>494.0</ele><time>2026-04-18T15:29:32.28Z</time></trkpt><trkpt lat="40.0462914" lon="9.6505031"><ele>494.0</ele><time>2026-04-18T15:29:33.28Z</time></trkpt><trkpt lat="40.0464332" lon="9.6502991"><ele>494.0</ele><time>2026-04-18T15:29:34.28Z</time></trkpt><trkpt lat="40.0465684" lon="9.6501027"><ele>501.0</ele><time>2026-04-18T15:29:35.28Z</time></trkpt><trkpt lat="40.0467053" lon="9.6499007"><ele>508.0</ele><time>2026-04-18T15:29:36.281Z</time></trkpt><trkpt lat="40.0468347" lon="9.6497042"><ele>515.0</ele><time>2026-04-18T15:29:37.28Z</time></trkpt><trkpt lat="40.0469741" lon="9.6495168"><ele>505.3333333333333</ele><time>2026-04-18T15:29:38.279Z</time></trkpt><trkpt lat="40.0471112" lon="9.6493567"><ele>495.66666666666663</ele><time>2026-04-18T15:29:39.279Z</time></trkpt><trkpt lat="40.0472544" lon="9.649224"><ele>486.0</ele><time>2026-04-18T15:29:40.279Z</time></trkpt><trkpt lat="40.0474085" lon="9.6491239"><ele>501.0</ele><time>2026-04-18T15:29:41.28Z</time></trkpt><trkpt lat="40.0475506" lon="9.649026"><ele>516.0</ele><time>2026-04-18T15:29:42.281Z</time></trkpt><trkpt lat="40.0476862" lon="9.6489086"><ele>531.0</ele><time>2026-04-18T15:29:43.28Z</time></trkpt><trkpt lat="40.047838" lon="9.6487696"><ele>518.3333333333334</ele><time>2026-04-18T15:29:44.28Z</time></trkpt><trkpt lat="40.0479529" lon="9.6485765"><ele>505.6666666666667</ele><time>2026-04-18T15:29:45.28Z</time></trkpt><trkpt lat="40.0480406" lon="9.6483658"><ele>493.0</ele><time>2026-04-18T15:29:46.281Z</time></trkpt><trkpt lat="40.0479901" lon="9.6479984"><ele>487.0</ele><time>2026-04-18T15:29:47.28Z</time></trkpt><trkpt lat="40.0480333" lon="9.6477715"><ele>481.0</ele><time>2026-04-18T15:29:48.28Z</time></trkpt><trkpt lat="40.0480902" lon="9.6475513"><ele>475.0</ele><time>2026-04-18T15:29:49.28Z</time></trkpt><trkpt lat="40.0481821" lon="9.6473337"><ele>489.0</ele><time>2026-04-18T15:29:50.28Z</time></trkpt><trkpt lat="40.0482997" lon="9.6471126"><ele>503.0</ele><time>2026-04-18T15:29:51.28Z</time></trkpt><trkpt lat="40.0484093" lon="9.6469026"><ele>517.0</ele><time>2026-04-18T15:29:52.281Z</time></trkpt><trkpt lat="40.0485187" lon="9.6466917"><ele>517.0</ele><time>2026-04-18T15:29:53.279Z</time></trkpt><trkpt lat="40.0486311" lon="9.6464707"><ele>517.0</ele><time>2026-04-18T15:29:54.279Z</time></trkpt><trkpt lat="40.0487426" lon="9.6462492"><ele>517.0</ele><time>2026-04-18T15:29:55.28Z</time></trkpt><trkpt lat="40.0488547" lon="9.6460303"><ele>524.6666666666667</ele><time>2026-04-18T15:29:56.28Z</time></trkpt><trkpt lat="40.0489745" lon="9.645804"><ele>532.3333333333334</ele><time>2026-04-18T15:29:57.28Z</time></trkpt><trkpt lat="40.0491065" lon="9.6455653"><ele>540.0</ele><time>2026-04-18T15:29:58.28Z</time></trkpt><trkpt lat="40.0492443" lon="9.6453165"><ele>527.5</ele><time>2026-04-18T15:29:59.279Z</time></trkpt><trkpt lat="40.0493912" lon="9.6450696"><ele>515.0</ele><time>2026-04-18T15:30:00.279Z</time></trkpt><trkpt lat="40.0495353" lon="9.6448275"><ele>515.0</ele><time>2026-04-18T15:30:01.28Z</time></trkpt><trkpt lat="40.0496641" lon="9.6445916"><ele>515.0</ele><time>2026-04-18T15:30:02.28Z</time></trkpt><trkpt lat="40.0497819" lon="9.6443791"><ele>515.0</ele><time>2026-04-18T15:30:03.28Z</time></trkpt><trkpt lat="40.0498903" lon="9.6441831"><ele>523.6666666666666</ele><time>2026-04-18T15:30:04.28Z</time></trkpt><trkpt lat="40.0499999" lon="9.644008"><ele>532.3333333333334</ele><time>2026-04-18T15:30:05.28Z</time></trkpt><trkpt lat="40.0501054" lon="9.6438424"><ele>541.0</ele><time>2026-04-18T15:30:06.28Z</time></trkpt><trkpt lat="40.0501979" lon="9.6436502"><ele>535.0</ele><time>2026-04-18T15:30:07.281Z</time></trkpt><trkpt lat="40.0502781" lon="9.6434286"><ele>529.0</ele><time>2026-04-18T15:30:08.28Z</time></trkpt><trkpt lat="40.0503423" lon="9.6431866"><ele>523.0</ele><time>2026-04-18T15:30:09.28Z</time></trkpt><trkpt lat="40.0504021" lon="9.6429489"><ele>517.6666666666667</ele><time>2026-04-18T15:30:10.28Z</time></trkpt><trkpt lat="40.0504668" lon="9.6427227"><ele>512.3333333333334</ele><time>2026-04-18T15:30:11.279Z</time></trkpt><trkpt lat="40.0505329" lon="9.6425045"><ele>507.0</ele><time>2026-04-18T15:30:12.28Z</time></trkpt><trkpt lat="40.0505874" lon="9.64227"><ele>507.0</ele><time>2026-04-18T15:30:13.281Z</time></trkpt><trkpt lat="40.0506194" lon="9.6420145"><ele>507.0</ele><time>2026-04-18T15:30:14.28Z</time></trkpt><trkpt lat="40.0506381" lon="9.6417494"><ele>507.0</ele><time>2026-04-18T15:30:15.281Z</time></trkpt><trkpt lat="40.0506524" lon="9.6414784"><ele>504.33333333333337</ele><time>2026-04-18T15:30:16.281Z</time></trkpt><trkpt lat="40.0506657" lon="9.6412049"><ele>501.6666666666667</ele><time>2026-04-18T15:30:17.281Z</time></trkpt><trkpt lat="40.0506816" lon="9.6409299"><ele>499.0</ele><time>2026-04-18T15:30:18.279Z</time></trkpt><trkpt lat="40.0506923" lon="9.6406656"><ele>497.0</ele><time>2026-04-18T15:30:19.279Z</time></trkpt><trkpt lat="40.0506988" lon="9.640416"><ele>495.0</ele><time>2026-04-18T15:30:20.28Z</time></trkpt><trkpt lat="40.0507026" lon="9.6401729"><ele>493.0</ele><time>2026-04-18T15:30:21.28Z</time></trkpt><trkpt lat="40.0507049" lon="9.6399499"><ele>492.6666666666667</ele><time>2026-04-18T15:30:22.279Z</time></trkpt><trkpt lat="40.0507096" lon="9.639737"><ele>492.33333333333337</ele><time>2026-04-18T15:30:23.279Z</time></trkpt><trkpt lat="40.0507253" lon="9.6395245"><ele>492.0</ele><time>2026-04-18T15:30:24.281Z</time></trkpt><trkpt lat="40.0507769" lon="9.639307"><ele>500.33333333333337</ele><time>2026-04-18T15:30:25.28Z</time></trkpt><trkpt lat="40.0508628" lon="9.6390682"><ele>508.6666666666667</ele><time>2026-04-18T15:30:26.28Z</time></trkpt><trkpt lat="40.0509565" lon="9.6388332"><ele>517.0</ele><time>2026-04-18T15:30:27.28Z</time></trkpt><trkpt lat="40.0510406" lon="9.6386049"><ele>517.0</ele><time>2026-04-18T15:30:28.28Z</time></trkpt><trkpt lat="40.0511115" lon="9.6384016"><ele>517.0</ele><time>2026-04-18T15:30:29.28Z</time></trkpt><trkpt lat="40.0511776" lon="9.6382219"><ele>517.0</ele><time>2026-04-18T15:30:30.28Z</time></trkpt><trkpt lat="40.0512525" lon="9.6380591"><ele>517.0</ele><time>2026-04-18T15:30:31.28Z</time></trkpt><trkpt lat="40.0513692" lon="9.6379223"><ele>517.0</ele><time>2026-04-18T15:30:32.28Z</time></trkpt><trkpt lat="40.0514859" lon="9.6377816"><ele>517.0</ele><time>2026-04-18T15:30:33.28Z</time></trkpt><trkpt lat="40.0515875" lon="9.6376164"><ele>528.6666666666667</ele><time>2026-04-18T15:30:34.281Z</time></trkpt><trkpt lat="40.05167" lon="9.6374349"><ele>540.3333333333334</ele><time>2026-04-18T15:30:35.28Z</time></trkpt><trkpt lat="40.0517136" lon="9.6372266"><ele>552.0</ele><time>2026-04-18T15:30:36.279Z</time></trkpt><trkpt lat="40.0517578" lon="9.6370227"><ele>548.0</ele><time>2026-04-18T15:30:37.28Z</time></trkpt><trkpt lat="40.0518196" lon="9.6367838"><ele>544.0</ele><time>2026-04-18T15:30:38.281Z</time></trkpt><trkpt lat="40.0519043" lon="9.6365803"><ele>540.0</ele><time>2026-04-18T15:30:39.28Z</time></trkpt><trkpt lat="40.0519936" lon="9.6364158"><ele>540.0</ele><time>2026-04-18T15:30:40.279Z</time></trkpt><trkpt lat="40.0520765" lon="9.6362837"><ele>540.0</ele><time>2026-04-18T15:30:41.28Z</time></trkpt><trkpt lat="40.0521246" lon="9.6361563"><ele>540.0</ele><time>2026-04-18T15:30:42.28Z</time></trkpt><trkpt lat="40.0521773" lon="9.6360346"><ele>540.0</ele><time>2026-04-18T15:30:43.28Z</time></trkpt><trkpt lat="40.0521857" lon="9.6358647"><ele>538.3333333333334</ele><time>2026-04-18T15:30:44.279Z</time></trkpt><trkpt lat="40.0519882" lon="9.6356993"><ele>536.6666666666667</ele><time>2026-04-18T15:30:45.279Z</time></trkpt><trkpt lat="40.0519335" lon="9.635555"><ele>535.0</ele><time>2026-04-18T15:30:46.279Z</time></trkpt><trkpt lat="40.051908" lon="9.635391"><ele>535.6</ele><time>2026-04-18T15:30:47.278Z</time></trkpt><trkpt lat="40.0519277" lon="9.6352593"><ele>536.2</ele><time>2026-04-18T15:30:48.279Z</time></trkpt><trkpt lat="40.0519913" lon="9.6351597"><ele>536.8</ele><time>2026-04-18T15:30:49.28Z</time></trkpt><trkpt lat="40.05208" lon="9.6350887"><ele>537.4</ele><time>2026-04-18T15:30:50.278Z</time></trkpt><trkpt lat="40.052154" lon="9.6349958"><ele>538.0</ele><time>2026-04-18T15:30:51.278Z</time></trkpt><trkpt lat="40.0522174" lon="9.6349143"><ele>538.0</ele><time>2026-04-18T15:30:52.279Z</time></trkpt><trkpt lat="40.0522738" lon="9.6347869"><ele>538.0</ele><time>2026-04-18T15:30:53.279Z</time></trkpt><trkpt lat="40.0522601" lon="9.6346519"><ele>538.0</ele><time>2026-04-18T15:30:54.279Z</time></trkpt><trkpt lat="40.0521186" lon="9.6344289"><ele>538.0</ele><time>2026-04-18T15:30:55.279Z</time></trkpt><trkpt lat="40.05204" lon="9.6341767"><ele>542.0</ele><time>2026-04-18T15:30:56.28Z</time></trkpt><trkpt lat="40.0520037" lon="9.6339909"><ele>546.0</ele><time>2026-04-18T15:30:57.279Z</time></trkpt><trkpt lat="40.0520199" lon="9.6337667"><ele>550.0</ele><time>2026-04-18T15:30:58.279Z</time></trkpt><trkpt lat="40.0520524" lon="9.6335295"><ele>550.0</ele><time>2026-04-18T15:30:59.279Z</time></trkpt><trkpt lat="40.0520972" lon="9.6333166"><ele>550.0</ele><time>2026-04-18T15:31:00.278Z</time></trkpt><trkpt lat="40.0521648" lon="9.6331079"><ele>550.0</ele><time>2026-04-18T15:31:01.279Z</time></trkpt><trkpt lat="40.0522723" lon="9.632913"><ele>554.0</ele><time>2026-04-18T15:31:02.279Z</time></trkpt><trkpt lat="40.0524084" lon="9.6327257"><ele>558.0</ele><time>2026-04-18T15:31:03.278Z</time></trkpt><trkpt lat="40.0525533" lon="9.6325322"><ele>562.0</ele><time>2026-04-18T15:31:04.279Z</time></trkpt><trkpt lat="40.0526833" lon="9.6323586"><ele>562.0</ele><time>2026-04-18T15:31:05.28Z</time></trkpt><trkpt lat="40.0528102" lon="9.6321914"><ele>562.0</ele><time>2026-04-18T15:31:06.278Z</time></trkpt><trkpt lat="40.052916" lon="9.6320095"><ele>562.0</ele><time>2026-04-18T15:31:07.28Z</time></trkpt><trkpt lat="40.0530054" lon="9.6317802"><ele>553.0</ele><time>2026-04-18T15:31:08.279Z</time></trkpt><trkpt lat="40.0530776" lon="9.6315608"><ele>544.0</ele><time>2026-04-18T15:31:09.279Z</time></trkpt><trkpt lat="40.0531443" lon="9.6313545"><ele>535.0</ele><time>2026-04-18T15:31:10.28Z</time></trkpt><trkpt lat="40.0532115" lon="9.6311704"><ele>544.6666666666667</ele><time>2026-04-18T15:31:11.278Z</time></trkpt><trkpt lat="40.0533084" lon="9.6309978"><ele>554.3333333333334</ele><time>2026-04-18T15:31:12.28Z</time></trkpt><trkpt lat="40.0534056" lon="9.6308559"><ele>564.0</ele><time>2026-04-18T15:31:13.279Z</time></trkpt><trkpt lat="40.0534865" lon="9.6306685"><ele>564.0</ele><time>2026-04-18T15:31:14.279Z</time></trkpt><trkpt lat="40.0535448" lon="9.6304465"><ele>564.0</ele><time>2026-04-18T15:31:15.278Z</time></trkpt><trkpt lat="40.0535738" lon="9.6302086"><ele>564.0</ele><time>2026-04-18T15:31:16.28Z</time></trkpt><trkpt lat="40.053613" lon="9.6299788"><ele>560.6666666666666</ele><time>2026-04-18T15:31:17.279Z</time></trkpt><trkpt lat="40.0536638" lon="9.6297698"><ele>557.3333333333333</ele><time>2026-04-18T15:31:18.278Z</time></trkpt><trkpt lat="40.0537088" lon="9.6295508"><ele>554.0</ele><time>2026-04-18T15:31:19.279Z</time></trkpt><trkpt lat="40.0537338" lon="9.629337"><ele>553.5</ele><time>2026-04-18T15:31:20.278Z</time></trkpt><trkpt lat="40.0537307" lon="9.6291253"><ele>553.0</ele><time>2026-04-18T15:31:21.279Z</time></trkpt><trkpt lat="40.0537278" lon="9.6289215"><ele>552.5</ele><time>2026-04-18T15:31:22.279Z</time></trkpt><trkpt lat="40.0536651" lon="9.6287748"><ele>552.0</ele><time>2026-04-18T15:31:23.278Z</time></trkpt><trkpt lat="40.0536405" lon="9.6286125"><ele>552.0</ele><time>2026-04-18T15:31:24.28Z</time></trkpt><trkpt lat="40.0536562" lon="9.6284529"><ele>552.0</ele><time>2026-04-18T15:31:25.278Z</time></trkpt><trkpt lat="40.0537182" lon="9.6283134"><ele>552.0</ele><time>2026-04-18T15:31:26.279Z</time></trkpt><trkpt lat="40.0538287" lon="9.628206"><ele>552.0</ele><time>2026-04-18T15:31:27.279Z</time></trkpt><trkpt lat="40.0539665" lon="9.628096"><ele>552.0</ele><time>2026-04-18T15:31:28.279Z</time></trkpt><trkpt lat="40.0540918" lon="9.6279678"><ele>552.0</ele><time>2026-04-18T15:31:29.279Z</time></trkpt><trkpt lat="40.0542134" lon="9.6277824"><ele>552.0</ele><time>2026-04-18T15:31:30.279Z</time></trkpt><trkpt lat="40.0543051" lon="9.6275907"><ele>556.0</ele><time>2026-04-18T15:31:31.278Z</time></trkpt><trkpt lat="40.0543728" lon="9.6273928"><ele>560.0</ele><time>2026-04-18T15:31:32.278Z</time></trkpt><trkpt lat="40.0544147" lon="9.6272135"><ele>564.0</ele><time>2026-04-18T15:31:33.278Z</time></trkpt><trkpt lat="40.0544268" lon="9.6270492"><ele>568.0</ele><time>2026-04-18T15:31:34.278Z</time></trkpt><trkpt lat="40.0544007" lon="9.6268586"><ele>568.0</ele><time>2026-04-18T15:31:35.279Z</time></trkpt><trkpt lat="40.0543569" lon="9.6266662"><ele>568.0</ele><time>2026-04-18T15:31:36.279Z</time></trkpt><trkpt lat="40.0543524" lon="9.6264769"><ele>568.0</ele><time>2026-04-18T15:31:37.279Z</time></trkpt><trkpt lat="40.0543876" lon="9.6262697"><ele>569.6666666666667</ele><time>2026-04-18T15:31:38.279Z</time></trkpt><trkpt lat="40.0544402" lon="9.6260424"><ele>571.3333333333334</ele><time>2026-04-18T15:31:39.278Z</time></trkpt><trkpt lat="40.0544962" lon="9.6258149"><ele>573.0</ele><time>2026-04-18T15:31:40.279Z</time></trkpt><trkpt lat="40.054554" lon="9.6256048"><ele>573.0</ele><time>2026-04-18T15:31:41.279Z</time></trkpt><trkpt lat="40.0546106" lon="9.6254049"><ele>573.0</ele><time>2026-04-18T15:31:42.279Z</time></trkpt><trkpt lat="40.0547307" lon="9.6252233"><ele>573.0</ele><time>2026-04-18T15:31:43.278Z</time></trkpt><trkpt lat="40.0548331" lon="9.6250586"><ele>575.0</ele><time>2026-04-18T15:31:44.278Z</time></trkpt><trkpt lat="40.0549327" lon="9.6249111"><ele>577.0</ele><time>2026-04-18T15:31:45.279Z</time></trkpt><trkpt lat="40.0550492" lon="9.6248006"><ele>579.0</ele><time>2026-04-18T15:31:46.279Z</time></trkpt><trkpt lat="40.0551765" lon="9.6247371"><ele>581.0</ele><time>2026-04-18T15:31:47.279Z</time></trkpt><trkpt lat="40.0553166" lon="9.6247385"><ele>584.25</ele><time>2026-04-18T15:31:48.279Z</time></trkpt><trkpt lat="40.0554497" lon="9.6247763"><ele>587.5</ele><time>2026-04-18T15:31:49.279Z</time></trkpt><trkpt lat="40.0555717" lon="9.6248574"><ele>590.75</ele><time>2026-04-18T15:31:50.279Z</time></trkpt><trkpt lat="40.0557011" lon="9.624942"><ele>594.0</ele><time>2026-04-18T15:31:51.279Z</time></trkpt><trkpt lat="40.055844" lon="9.6249923"><ele>595.6666666666666</ele><time>2026-04-18T15:31:52.279Z</time></trkpt><trkpt lat="40.0560181" lon="9.6249495"><ele>597.3333333333333</ele><time>2026-04-18T15:31:53.28Z</time></trkpt><trkpt lat="40.0561632" lon="9.6249328"><ele>599.0</ele><time>2026-04-18T15:31:54.279Z</time></trkpt><trkpt lat="40.0563057" lon="9.6248661"><ele>599.0</ele><time>2026-04-18T15:31:55.279Z</time></trkpt><trkpt lat="40.0564536" lon="9.6247619"><ele>599.0</ele><time>2026-04-18T15:31:56.279Z</time></trkpt><trkpt lat="40.056574" lon="9.6246033"><ele>599.0</ele><time>2026-04-18T15:31:57.279Z</time></trkpt><trkpt lat="40.0566734" lon="9.6244243"><ele>603.3333333333333</ele><time>2026-04-18T15:31:58.279Z</time></trkpt><trkpt lat="40.056742" lon="9.6242269"><ele>607.6666666666666</ele><time>2026-04-18T15:31:59.28Z</time></trkpt><trkpt lat="40.0567876" lon="9.6240211"><ele>612.0</ele><time>2026-04-18T15:32:00.279Z</time></trkpt><trkpt lat="40.056804" lon="9.6238069"><ele>614.6666666666666</ele><time>2026-04-18T15:32:01.278Z</time></trkpt><trkpt lat="40.0568128" lon="9.6235866"><ele>617.3333333333333</ele><time>2026-04-18T15:32:02.279Z</time></trkpt><trkpt lat="40.0568374" lon="9.6233639"><ele>620.0</ele><time>2026-04-18T15:32:03.279Z</time></trkpt><trkpt lat="40.0568817" lon="9.6231436"><ele>620.0</ele><time>2026-04-18T15:32:04.279Z</time></trkpt><trkpt lat="40.0569268" lon="9.6229458"><ele>620.0</ele><time>2026-04-18T15:32:05.278Z</time></trkpt><trkpt lat="40.0569578" lon="9.6227524"><ele>620.0</ele><time>2026-04-18T15:32:06.28Z</time></trkpt><trkpt lat="40.0569696" lon="9.6225686"><ele>622.3333333333333</ele><time>2026-04-18T15:32:07.279Z</time></trkpt><trkpt lat="40.0569503" lon="9.6223792"><ele>624.6666666666666</ele><time>2026-04-18T15:32:08.278Z</time></trkpt><trkpt lat="40.0568821" lon="9.6221962"><ele>627.0</ele><time>2026-04-18T15:32:09.28Z</time></trkpt><trkpt lat="40.0567734" lon="9.6220365"><ele>624.0</ele><time>2026-04-18T15:32:10.279Z</time></trkpt><trkpt lat="40.056657" lon="9.6219012"><ele>621.0</ele><time>2026-04-18T15:32:11.279Z</time></trkpt><trkpt lat="40.0565663" lon="9.6217341"><ele>618.0</ele><time>2026-04-18T15:32:12.279Z</time></trkpt><trkpt lat="40.0564907" lon="9.6215304"><ele>626.3333333333334</ele><time>2026-04-18T15:32:13.278Z</time></trkpt><trkpt lat="40.0564187" lon="9.6213265"><ele>634.6666666666667</ele><time>2026-04-18T15:32:14.278Z</time></trkpt><trkpt lat="40.0563522" lon="9.6211309"><ele>643.0</ele><time>2026-04-18T15:32:15.279Z</time></trkpt><trkpt lat="40.0562987" lon="9.6209175"><ele>643.0</ele><time>2026-04-18T15:32:16.28Z</time></trkpt><trkpt lat="40.0562648" lon="9.620696"><ele>643.0</ele><time>2026-04-18T15:32:17.279Z</time></trkpt><trkpt lat="40.0562359" lon="9.6204784"><ele>643.0</ele><time>2026-04-18T15:32:18.28Z</time></trkpt><trkpt lat="40.0562001" lon="9.6202578"><ele>643.0</ele><time>2026-04-18T15:32:19.278Z</time></trkpt><trkpt lat="40.0561631" lon="9.6200312"><ele>643.0</ele><time>2026-04-18T15:32:20.279Z</time></trkpt><trkpt lat="40.0561132" lon="9.6198118"><ele>643.0</ele><time>2026-04-18T15:32:21.279Z</time></trkpt><trkpt lat="40.0560577" lon="9.6196082"><ele>641.6666666666667</ele><time>2026-04-18T15:32:22.279Z</time></trkpt><trkpt lat="40.0559845" lon="9.6194163"><ele>640.3333333333334</ele><time>2026-04-18T15:32:23.279Z</time></trkpt><trkpt lat="40.0559083" lon="9.6192489"><ele>639.0</ele><time>2026-04-18T15:32:24.279Z</time></trkpt><trkpt lat="40.0558353" lon="9.6190909"><ele>642.6666666666666</ele><time>2026-04-18T15:32:25.28Z</time></trkpt><trkpt lat="40.0557839" lon="9.6189164"><ele>646.3333333333333</ele><time>2026-04-18T15:32:26.279Z</time></trkpt><trkpt lat="40.0557611" lon="9.618717"><ele>650.0</ele><time>2026-04-18T15:32:27.279Z</time></trkpt><trkpt lat="40.0557765" lon="9.6185041"><ele>647.3333333333333</ele><time>2026-04-18T15:32:28.279Z</time></trkpt><trkpt lat="40.0558108" lon="9.6183057"><ele>644.6666666666666</ele><time>2026-04-18T15:32:29.278Z</time></trkpt><trkpt lat="40.0558548" lon="9.6181053"><ele>642.0</ele><time>2026-04-18T15:32:30.279Z</time></trkpt><trkpt lat="40.0558988" lon="9.6179044"><ele>645.0</ele><time>2026-04-18T15:32:31.28Z</time></trkpt><trkpt lat="40.0559281" lon="9.6176921"><ele>648.0</ele><time>2026-04-18T15:32:32.279Z</time></trkpt><trkpt lat="40.0559445" lon="9.6174794"><ele>651.0</ele><time>2026-04-18T15:32:33.279Z</time></trkpt><trkpt lat="40.0559378" lon="9.6172677"><ele>651.0</ele><time>2026-04-18T15:32:34.279Z</time></trkpt><trkpt lat="40.0559045" lon="9.6170513"><ele>651.0</ele><time>2026-04-18T15:32:35.278Z</time></trkpt><trkpt lat="40.0558713" lon="9.6168485"><ele>651.0</ele><time>2026-04-18T15:32:36.279Z</time></trkpt><trkpt lat="40.0557609" lon="9.6166445"><ele>656.0</ele><time>2026-04-18T15:32:37.278Z</time></trkpt><trkpt lat="40.0557023" lon="9.6164399"><ele>661.0</ele><time>2026-04-18T15:32:38.279Z</time></trkpt><trkpt lat="40.0556512" lon="9.6162532"><ele>666.0</ele><time>2026-04-18T15:32:39.28Z</time></trkpt><trkpt lat="40.0555774" lon="9.616098"><ele>666.0</ele><time>2026-04-18T15:32:40.279Z</time></trkpt><trkpt lat="40.0554723" lon="9.6159617"><ele>666.0</ele><time>2026-04-18T15:32:41.278Z</time></trkpt><trkpt lat="40.0553556" lon="9.6158591"><ele>666.0</ele><time>2026-04-18T15:32:42.278Z</time></trkpt><trkpt lat="40.0552582" lon="9.6157919"><ele>666.0</ele><time>2026-04-18T15:32:43.279Z</time></trkpt><trkpt lat="40.0551719" lon="9.6157089"><ele>666.0</ele><time>2026-04-18T15:32:44.28Z</time></trkpt><trkpt lat="40.0551179" lon="9.6156107"><ele>666.0</ele><time>2026-04-18T15:32:45.28Z</time></trkpt><trkpt lat="40.0551136" lon="9.6155043"><ele>666.0</ele><time>2026-04-18T15:32:46.279Z</time></trkpt><trkpt lat="40.0551585" lon="9.6153929"><ele>666.0</ele><time>2026-04-18T15:32:47.279Z</time></trkpt><trkpt lat="40.055246" lon="9.6152983"><ele>666.0</ele><time>2026-04-18T15:32:48.278Z</time></trkpt><trkpt lat="40.0553609" lon="9.6151861"><ele>669.3333333333334</ele><time>2026-04-18T15:32:49.279Z</time></trkpt><trkpt lat="40.0554992" lon="9.6150783"><ele>672.6666666666667</ele><time>2026-04-18T15:32:50.279Z</time></trkpt><trkpt lat="40.0556321" lon="9.6149666"><ele>676.0</ele><time>2026-04-18T15:32:51.279Z</time></trkpt><trkpt lat="40.0557726" lon="9.6148696"><ele>672.0</ele><time>2026-04-18T15:32:52.279Z</time></trkpt><trkpt lat="40.0559203" lon="9.6147809"><ele>668.0</ele><time>2026-04-18T15:32:53.279Z</time></trkpt><trkpt lat="40.0560575" lon="9.6146961"><ele>664.0</ele><time>2026-04-18T15:32:54.278Z</time></trkpt><trkpt lat="40.0561818" lon="9.6146249"><ele>664.0</ele><time>2026-04-18T15:32:55.278Z</time></trkpt><trkpt lat="40.0562987" lon="9.6145759"><ele>664.0</ele><time>2026-04-18T15:32:56.279Z</time></trkpt><trkpt lat="40.0564336" lon="9.6145746"><ele>664.0</ele><time>2026-04-18T15:32:57.279Z</time></trkpt><trkpt lat="40.0565846" lon="9.6146421"><ele>664.0</ele><time>2026-04-18T15:32:58.279Z</time></trkpt><trkpt lat="40.0567197" lon="9.6147102"><ele>663.25</ele><time>2026-04-18T15:32:59.279Z</time></trkpt><trkpt lat="40.0568572" lon="9.6147642"><ele>662.5</ele><time>2026-04-18T15:33:00.28Z</time></trkpt><trkpt lat="40.0570022" lon="9.6148063"><ele>661.75</ele><time>2026-04-18T15:33:01.278Z</time></trkpt><trkpt lat="40.0571527" lon="9.6147962"><ele>661.0</ele><time>2026-04-18T15:33:02.279Z</time></trkpt><trkpt lat="40.0573053" lon="9.6147502"><ele>661.0</ele><time>2026-04-18T15:33:03.278Z</time></trkpt><trkpt lat="40.0574443" lon="9.6146951"><ele>661.0</ele><time>2026-04-18T15:33:04.279Z</time></trkpt><trkpt lat="40.0575741" lon="9.6146601"><ele>661.0</ele><time>2026-04-18T15:33:05.28Z</time></trkpt><trkpt lat="40.0576972" lon="9.614694"><ele>661.0</ele><time>2026-04-18T15:33:06.279Z</time></trkpt><trkpt lat="40.0578153" lon="9.6147818"><ele>663.0</ele><time>2026-04-18T15:33:07.278Z</time></trkpt><trkpt lat="40.0579317" lon="9.6148806"><ele>665.0</ele><time>2026-04-18T15:33:08.28Z</time></trkpt><trkpt lat="40.0580604" lon="9.6149738"><ele>667.0</ele><time>2026-04-18T15:33:09.279Z</time></trkpt><trkpt lat="40.0581934" lon="9.6150552"><ele>669.0</ele><time>2026-04-18T15:33:10.279Z</time></trkpt><trkpt lat="40.0583675" lon="9.6150687"><ele>674.3333333333334</ele><time>2026-04-18T15:33:11.279Z</time></trkpt><trkpt lat="40.0585346" lon="9.6150646"><ele>679.6666666666667</ele><time>2026-04-18T15:33:12.28Z</time></trkpt><trkpt lat="40.0586992" lon="9.6150554"><ele>685.0</ele><time>2026-04-18T15:33:13.28Z</time></trkpt><trkpt lat="40.0588556" lon="9.6150441"><ele>685.0</ele><time>2026-04-18T15:33:14.28Z</time></trkpt><trkpt lat="40.0590105" lon="9.6150217"><ele>685.0</ele><time>2026-04-18T15:33:15.279Z</time></trkpt><trkpt lat="40.0591653" lon="9.6149806"><ele>685.0</ele><time>2026-04-18T15:33:16.279Z</time></trkpt><trkpt lat="40.0593359" lon="9.6148879"><ele>685.6666666666667</ele><time>2026-04-18T15:33:17.279Z</time></trkpt><trkpt lat="40.0594832" lon="9.6147809"><ele>686.3333333333334</ele><time>2026-04-18T15:33:18.279Z</time></trkpt><trkpt lat="40.0596223" lon="9.6146684"><ele>687.0</ele><time>2026-04-18T15:33:19.279Z</time></trkpt><trkpt lat="40.0597426" lon="9.6145242"><ele>689.0</ele><time>2026-04-18T15:33:20.278Z</time></trkpt><trkpt lat="40.0598354" lon="9.6143799"><ele>691.0</ele><time>2026-04-18T15:33:21.279Z</time></trkpt><trkpt lat="40.0599044" lon="9.6142649"><ele>693.0</ele><time>2026-04-18T15:33:22.279Z</time></trkpt><trkpt lat="40.060026" lon="9.6141706"><ele>695.0</ele><time>2026-04-18T15:33:23.279Z</time></trkpt><trkpt lat="40.0601485" lon="9.6141367"><ele>695.0</ele><time>2026-04-18T15:33:24.279Z</time></trkpt><trkpt lat="40.0602726" lon="9.6141292"><ele>695.0</ele><time>2026-04-18T15:33:25.278Z</time></trkpt><trkpt lat="40.0604027" lon="9.6140976"><ele>695.0</ele><time>2026-04-18T15:33:26.279Z</time></trkpt><trkpt lat="40.0605698" lon="9.6140716"><ele>695.0</ele><time>2026-04-18T15:33:27.279Z</time></trkpt><trkpt lat="40.0607286" lon="9.6139225"><ele>691.0</ele><time>2026-04-18T15:33:28.279Z</time></trkpt><trkpt lat="40.0608785" lon="9.6138063"><ele>687.0</ele><time>2026-04-18T15:33:29.278Z</time></trkpt><trkpt lat="40.0609786" lon="9.6136396"><ele>683.0</ele><time>2026-04-18T15:33:30.279Z</time></trkpt><trkpt lat="40.0610867" lon="9.6134866"><ele>689.75</ele><time>2026-04-18T15:33:31.28Z</time></trkpt><trkpt lat="40.0611558" lon="9.6133764"><ele>696.5</ele><time>2026-04-18T15:33:32.279Z</time></trkpt><trkpt lat="40.0612646" lon="9.6133078"><ele>703.25</ele><time>2026-04-18T15:33:33.279Z</time></trkpt><trkpt lat="40.0613913" lon="9.6132617"><ele>710.0</ele><time>2026-04-18T15:33:34.279Z</time></trkpt><trkpt lat="40.0615316" lon="9.6132405"><ele>707.3333333333333</ele><time>2026-04-18T15:33:35.279Z</time></trkpt><trkpt lat="40.061667" lon="9.6132482"><ele>704.6666666666666</ele><time>2026-04-18T15:33:36.28Z</time></trkpt><trkpt lat="40.0618805" lon="9.61333"><ele>702.0</ele><time>2026-04-18T15:33:37.278Z</time></trkpt><trkpt lat="40.0620628" lon="9.6133513"><ele>702.0</ele><time>2026-04-18T15:33:38.279Z</time></trkpt><trkpt lat="40.0622331" lon="9.6133703"><ele>702.0</ele><time>2026-04-18T15:33:39.279Z</time></trkpt><trkpt lat="40.0624073" lon="9.6133754"><ele>702.0</ele><time>2026-04-18T15:33:40.279Z</time></trkpt><trkpt lat="40.0625864" lon="9.6133295"><ele>704.6666666666666</ele><time>2026-04-18T15:33:41.278Z</time></trkpt><trkpt lat="40.0627545" lon="9.6132865"><ele>707.3333333333333</ele><time>2026-04-18T15:33:42.279Z</time></trkpt><trkpt lat="40.0629104" lon="9.6132211"><ele>710.0</ele><time>2026-04-18T15:33:43.279Z</time></trkpt><trkpt lat="40.063065" lon="9.6131333"><ele>710.0</ele><time>2026-04-18T15:33:44.279Z</time></trkpt><trkpt lat="40.063208" lon="9.6130124"><ele>710.0</ele><time>2026-04-18T15:33:45.278Z</time></trkpt><trkpt lat="40.0633418" lon="9.6128908"><ele>710.0</ele><time>2026-04-18T15:33:46.279Z</time></trkpt><trkpt lat="40.0634762" lon="9.6127712"><ele>714.6666666666666</ele><time>2026-04-18T15:33:47.279Z</time></trkpt><trkpt lat="40.0636288" lon="9.612669"><ele>719.3333333333334</ele><time>2026-04-18T15:33:48.279Z</time></trkpt><trkpt lat="40.0638037" lon="9.6126042"><ele>724.0</ele><time>2026-04-18T15:33:49.278Z</time></trkpt><trkpt lat="40.0639807" lon="9.6125693"><ele>723.3333333333334</ele><time>2026-04-18T15:33:50.279Z</time></trkpt><trkpt lat="40.06415" lon="9.6125436"><ele>722.6666666666666</ele><time>2026-04-18T15:33:51.279Z</time></trkpt><trkpt lat="40.0643201" lon="9.6125127"><ele>722.0</ele><time>2026-04-18T15:33:52.279Z</time></trkpt><trkpt lat="40.0644904" lon="9.6124734"><ele>722.0</ele><time>2026-04-18T15:33:53.279Z</time></trkpt><trkpt lat="40.0646551" lon="9.612427"><ele>722.0</ele><time>2026-04-18T15:33:54.279Z</time></trkpt><trkpt lat="40.0648222" lon="9.6123991"><ele>722.0</ele><time>2026-04-18T15:33:55.278Z</time></trkpt><trkpt lat="40.0650018" lon="9.6124117"><ele>721.0</ele><time>2026-04-18T15:33:56.279Z</time></trkpt><trkpt lat="40.0651622" lon="9.6124372"><ele>720.0</ele><time>2026-04-18T15:33:57.28Z</time></trkpt><trkpt lat="40.0653062" lon="9.6124895"><ele>719.0</ele><time>2026-04-18T15:33:58.28Z</time></trkpt><trkpt lat="40.0654447" lon="9.6125047"><ele>719.0</ele><time>2026-04-18T15:33:59.279Z</time></trkpt><trkpt lat="40.0655779" lon="9.6125094"><ele>719.0</ele><time>2026-04-18T15:34:00.279Z</time></trkpt><trkpt lat="40.0657504" lon="9.6123776"><ele>719.0</ele><time>2026-04-18T15:34:01.278Z</time></trkpt><trkpt lat="40.0659254" lon="9.6123121"><ele>719.6666666666666</ele><time>2026-04-18T15:34:02.28Z</time></trkpt><trkpt lat="40.0660965" lon="9.6122611"><ele>720.3333333333334</ele><time>2026-04-18T15:34:03.28Z</time></trkpt><trkpt lat="40.0662671" lon="9.6121997"><ele>721.0</ele><time>2026-04-18T15:34:04.279Z</time></trkpt><trkpt lat="40.066431" lon="9.6121172"><ele>721.0</ele><time>2026-04-18T15:34:05.278Z</time></trkpt><trkpt lat="40.0665899" lon="9.6120238"><ele>721.0</ele><time>2026-04-18T15:34:06.278Z</time></trkpt><trkpt lat="40.0667474" lon="9.6119404"><ele>721.0</ele><time>2026-04-18T15:34:07.279Z</time></trkpt><trkpt lat="40.0669128" lon="9.6118917"><ele>715.3333333333334</ele><time>2026-04-18T15:34:08.279Z</time></trkpt><trkpt lat="40.0670677" lon="9.6118827"><ele>709.6666666666666</ele><time>2026-04-18T15:34:09.279Z</time></trkpt><trkpt lat="40.0672189" lon="9.611856"><ele>704.0</ele><time>2026-04-18T15:34:10.278Z</time></trkpt><trkpt lat="40.06737" lon="9.6118198"><ele>707.6666666666666</ele><time>2026-04-18T15:34:11.279Z</time></trkpt><trkpt lat="40.0675175" lon="9.6116665"><ele>711.3333333333334</ele><time>2026-04-18T15:34:12.279Z</time></trkpt><trkpt lat="40.0676965" lon="9.6116158"><ele>715.0</ele><time>2026-04-18T15:34:13.28Z</time></trkpt><trkpt lat="40.0678577" lon="9.6115492"><ele>715.0</ele><time>2026-04-18T15:34:14.278Z</time></trkpt><trkpt lat="40.0680159" lon="9.6114834"><ele>715.0</ele><time>2026-04-18T15:34:15.278Z</time></trkpt><trkpt lat="40.0681572" lon="9.6113959"><ele>715.0</ele><time>2026-04-18T15:34:16.279Z</time></trkpt><trkpt lat="40.0682959" lon="9.6112874"><ele>714.25</ele><time>2026-04-18T15:34:17.28Z</time></trkpt><trkpt lat="40.0683955" lon="9.6111377"><ele>713.5</ele><time>2026-04-18T15:34:18.279Z</time></trkpt><trkpt lat="40.0684754" lon="9.6109782"><ele>712.75</ele><time>2026-04-18T15:34:19.28Z</time></trkpt><trkpt lat="40.068555" lon="9.6108176"><ele>712.0</ele><time>2026-04-18T15:34:20.279Z</time></trkpt><trkpt lat="40.0686606" lon="9.610679"><ele>712.0</ele><time>2026-04-18T15:34:21.278Z</time></trkpt><trkpt lat="40.0687942" lon="9.6105894"><ele>712.0</ele><time>2026-04-18T15:34:22.278Z</time></trkpt><trkpt lat="40.0689316" lon="9.6104975"><ele>712.0</ele><time>2026-04-18T15:34:23.279Z</time></trkpt><trkpt lat="40.0690569" lon="9.6103623"><ele>712.0</ele><time>2026-04-18T15:34:24.279Z</time></trkpt><trkpt lat="40.0691607" lon="9.61022"><ele>712.0</ele><time>2026-04-18T15:34:25.279Z</time></trkpt><trkpt lat="40.0692604" lon="9.6100841"><ele>712.0</ele><time>2026-04-18T15:34:26.28Z</time></trkpt><trkpt lat="40.0693968" lon="9.6099773"><ele>712.0</ele><time>2026-04-18T15:34:27.279Z</time></trkpt><trkpt lat="40.0695614" lon="9.6098843"><ele>712.0</ele><time>2026-04-18T15:34:28.279Z</time></trkpt><trkpt lat="40.0697226" lon="9.6097928"><ele>712.0</ele><time>2026-04-18T15:34:29.279Z</time></trkpt><trkpt lat="40.0698868" lon="9.6097073"><ele>709.6666666666667</ele><time>2026-04-18T15:34:30.279Z</time></trkpt><trkpt lat="40.0700548" lon="9.6096247"><ele>707.3333333333334</ele><time>2026-04-18T15:34:31.279Z</time></trkpt><trkpt lat="40.070207" lon="9.6095393"><ele>705.0</ele><time>2026-04-18T15:34:32.279Z</time></trkpt><trkpt lat="40.0703568" lon="9.6094667"><ele>705.0</ele><time>2026-04-18T15:34:33.28Z</time></trkpt><trkpt lat="40.0705119" lon="9.609429"><ele>705.0</ele><time>2026-04-18T15:34:34.278Z</time></trkpt><trkpt lat="40.0706633" lon="9.609386"><ele>705.0</ele><time>2026-04-18T15:34:35.279Z</time></trkpt><trkpt lat="40.0708424" lon="9.6094601"><ele>712.0</ele><time>2026-04-18T15:34:36.28Z</time></trkpt><trkpt lat="40.0709964" lon="9.6095303"><ele>719.0</ele><time>2026-04-18T15:34:37.28Z</time></trkpt><trkpt lat="40.0711502" lon="9.6095995"><ele>726.0</ele><time>2026-04-18T15:34:38.28Z</time></trkpt><trkpt lat="40.071316" lon="9.6096422"><ele>726.0</ele><time>2026-04-18T15:34:39.279Z</time></trkpt><trkpt lat="40.0714881" lon="9.6096558"><ele>726.0</ele><time>2026-04-18T15:34:40.279Z</time></trkpt><trkpt lat="40.0716618" lon="9.6096292"><ele>726.0</ele><time>2026-04-18T15:34:41.279Z</time></trkpt><trkpt lat="40.0718271" lon="9.6095923"><ele>727.3333333333334</ele><time>2026-04-18T15:34:42.278Z</time></trkpt><trkpt lat="40.0719816" lon="9.6095292"><ele>728.6666666666667</ele><time>2026-04-18T15:34:43.279Z</time></trkpt><trkpt lat="40.0721453" lon="9.609489"><ele>730.0</ele><time>2026-04-18T15:34:44.279Z</time></trkpt><trkpt lat="40.0723158" lon="9.6094964"><ele>730.3333333333334</ele><time>2026-04-18T15:34:45.279Z</time></trkpt><trkpt lat="40.0724792" lon="9.6095233"><ele>730.6666666666666</ele><time>2026-04-18T15:34:46.279Z</time></trkpt><trkpt lat="40.0726311" lon="9.6095418"><ele>731.0</ele><time>2026-04-18T15:34:47.279Z</time></trkpt><trkpt lat="40.0727699" lon="9.6095517"><ele>725.25</ele><time>2026-04-18T15:34:48.279Z</time></trkpt><trkpt lat="40.0728891" lon="9.6094789"><ele>719.5</ele><time>2026-04-18T15:34:49.279Z</time></trkpt><trkpt lat="40.0730028" lon="9.609381"><ele>713.75</ele><time>2026-04-18T15:34:50.278Z</time></trkpt><trkpt lat="40.0730943" lon="9.6092264"><ele>708.0</ele><time>2026-04-18T15:34:51.279Z</time></trkpt><trkpt lat="40.0731522" lon="9.6090447"><ele>708.0</ele><time>2026-04-18T15:34:52.279Z</time></trkpt><trkpt lat="40.0731863" lon="9.6088571"><ele>708.0</ele><time>2026-04-18T15:34:53.279Z</time></trkpt><trkpt lat="40.0732061" lon="9.6086741"><ele>708.0</ele><time>2026-04-18T15:34:54.279Z</time></trkpt><trkpt lat="40.0732678" lon="9.6085172"><ele>708.0</ele><time>2026-04-18T15:34:55.278Z</time></trkpt><trkpt lat="40.0733679" lon="9.6083663"><ele>709.0</ele><time>2026-04-18T15:34:56.278Z</time></trkpt><trkpt lat="40.0734943" lon="9.6082274"><ele>710.0</ele><time>2026-04-18T15:34:57.278Z</time></trkpt><trkpt lat="40.0736371" lon="9.6080908"><ele>711.0</ele><time>2026-04-18T15:34:58.279Z</time></trkpt><trkpt lat="40.0737692" lon="9.6079467"><ele>705.3333333333334</ele><time>2026-04-18T15:34:59.28Z</time></trkpt><trkpt lat="40.0738697" lon="9.6077811"><ele>699.6666666666667</ele><time>2026-04-18T15:35:00.279Z</time></trkpt><trkpt lat="40.0739547" lon="9.6076146"><ele>694.0</ele><time>2026-04-18T15:35:01.28Z</time></trkpt><trkpt lat="40.0740332" lon="9.6074531"><ele>694.0</ele><time>2026-04-18T15:35:02.279Z</time></trkpt><trkpt lat="40.0740541" lon="9.6072252"><ele>694.0</ele><time>2026-04-18T15:35:03.28Z</time></trkpt><trkpt lat="40.0740844" lon="9.6070246"><ele>694.0</ele><time>2026-04-18T15:35:04.279Z</time></trkpt><trkpt lat="40.0741005" lon="9.6068184"><ele>701.0</ele><time>2026-04-18T15:35:05.279Z</time></trkpt><trkpt lat="40.0741216" lon="9.6066209"><ele>708.0</ele><time>2026-04-18T15:35:06.279Z</time></trkpt><trkpt lat="40.0741499" lon="9.6064256"><ele>715.0</ele><time>2026-04-18T15:35:07.279Z</time></trkpt><trkpt lat="40.0742064" lon="9.606227"><ele>712.0</ele><time>2026-04-18T15:35:08.28Z</time></trkpt><trkpt lat="40.0742821" lon="9.6060292"><ele>709.0</ele><time>2026-04-18T15:35:09.279Z</time></trkpt><trkpt lat="40.074395" lon="9.605837"><ele>706.0</ele><time>2026-04-18T15:35:10.28Z</time></trkpt><trkpt lat="40.074508" lon="9.6056535"><ele>706.0</ele><time>2026-04-18T15:35:11.279Z</time></trkpt><trkpt lat="40.0746139" lon="9.605472"><ele>706.0</ele><time>2026-04-18T15:35:12.279Z</time></trkpt><trkpt lat="40.0747186" lon="9.6052984"><ele>706.0</ele><time>2026-04-18T15:35:13.28Z</time></trkpt><trkpt lat="40.0748266" lon="9.6051431"><ele>708.3333333333334</ele><time>2026-04-18T15:35:14.279Z</time></trkpt><trkpt lat="40.0749468" lon="9.6050064"><ele>710.6666666666666</ele><time>2026-04-18T15:35:15.279Z</time></trkpt><trkpt lat="40.0751005" lon="9.6048979"><ele>713.0</ele><time>2026-04-18T15:35:16.279Z</time></trkpt><trkpt lat="40.0752669" lon="9.6048042"><ele>713.0</ele><time>2026-04-18T15:35:17.279Z</time></trkpt><trkpt lat="40.0754323" lon="9.6047175"><ele>713.0</ele><time>2026-04-18T15:35:18.279Z</time></trkpt><trkpt lat="40.0755979" lon="9.6046235"><ele>713.0</ele><time>2026-04-18T15:35:19.279Z</time></trkpt><trkpt lat="40.0757626" lon="9.6044915"><ele>711.3333333333333</ele><time>2026-04-18T15:35:20.279Z</time></trkpt><trkpt lat="40.0759202" lon="9.6043463"><ele>709.6666666666666</ele><time>2026-04-18T15:35:21.278Z</time></trkpt><trkpt lat="40.0760541" lon="9.6041656"><ele>708.0</ele><time>2026-04-18T15:35:22.279Z</time></trkpt><trkpt lat="40.0762206" lon="9.6040377"><ele>708.0</ele><time>2026-04-18T15:35:23.279Z</time></trkpt><trkpt lat="40.0763884" lon="9.6039094"><ele>708.0</ele><time>2026-04-18T15:35:24.279Z</time></trkpt><trkpt lat="40.0765483" lon="9.6037911"><ele>708.0</ele><time>2026-04-18T15:35:25.279Z</time></trkpt><trkpt lat="40.0766996" lon="9.603674"><ele>707.0</ele><time>2026-04-18T15:35:26.28Z</time></trkpt><trkpt lat="40.0768355" lon="9.6035509"><ele>706.0</ele><time>2026-04-18T15:35:27.28Z</time></trkpt><trkpt lat="40.0769763" lon="9.6034342"><ele>705.0</ele><time>2026-04-18T15:35:28.279Z</time></trkpt><trkpt lat="40.0770952" lon="9.6032575"><ele>705.0</ele><time>2026-04-18T15:35:29.28Z</time></trkpt><trkpt lat="40.077195" lon="9.6030793"><ele>705.0</ele><time>2026-04-18T15:35:30.279Z</time></trkpt><trkpt lat="40.0771638" lon="9.6028802"><ele>705.0</ele><time>2026-04-18T15:35:31.278Z</time></trkpt><trkpt lat="40.0772155" lon="9.6027203"><ele>704.2</ele><time>2026-04-18T15:35:32.279Z</time></trkpt><trkpt lat="40.0772574" lon="9.6025819"><ele>703.4</ele><time>2026-04-18T15:35:33.28Z</time></trkpt><trkpt lat="40.0773179" lon="9.602476"><ele>702.5999999999999</ele><time>2026-04-18T15:35:34.278Z</time></trkpt><trkpt lat="40.0774037" lon="9.6024045"><ele>701.8</ele><time>2026-04-18T15:35:35.28Z</time></trkpt><trkpt lat="40.07751" lon="9.6023892"><ele>701.0</ele><time>2026-04-18T15:35:36.279Z</time></trkpt><trkpt lat="40.0776135" lon="9.6024444"><ele>704.6666666666666</ele><time>2026-04-18T15:35:37.278Z</time></trkpt><trkpt lat="40.0777015" lon="9.6025606"><ele>708.3333333333334</ele><time>2026-04-18T15:35:38.279Z</time></trkpt><trkpt lat="40.077769" lon="9.6027405"><ele>712.0</ele><time>2026-04-18T15:35:39.279Z</time></trkpt><trkpt lat="40.0778247" lon="9.6029543"><ele>712.0</ele><time>2026-04-18T15:35:40.279Z</time></trkpt><trkpt lat="40.0778799" lon="9.6031484"><ele>712.0</ele><time>2026-04-18T15:35:41.28Z</time></trkpt><trkpt lat="40.0779361" lon="9.6033375"><ele>712.0</ele><time>2026-04-18T15:35:42.279Z</time></trkpt><trkpt lat="40.0779799" lon="9.6035095"><ele>712.0</ele><time>2026-04-18T15:35:43.28Z</time></trkpt><trkpt lat="40.0779979" lon="9.6036829"><ele>712.0</ele><time>2026-04-18T15:35:44.279Z</time></trkpt><trkpt lat="40.0779723" lon="9.6038745"><ele>712.0</ele><time>2026-04-18T15:35:45.278Z</time></trkpt><trkpt lat="40.0779196" lon="9.6040688"><ele>712.0</ele><time>2026-04-18T15:35:46.279Z</time></trkpt><trkpt lat="40.0778706" lon="9.6042283"><ele>712.0</ele><time>2026-04-18T15:35:47.278Z</time></trkpt><trkpt lat="40.0778306" lon="9.6043652"><ele>712.0</ele><time>2026-04-18T15:35:48.279Z</time></trkpt><trkpt lat="40.0777978" lon="9.6044972"><ele>712.0</ele><time>2026-04-18T15:35:49.279Z</time></trkpt><trkpt lat="40.0778392" lon="9.6046229"><ele>712.0</ele><time>2026-04-18T15:35:50.279Z</time></trkpt><trkpt lat="40.0778638" lon="9.6047259"><ele>712.0</ele><time>2026-04-18T15:35:51.28Z</time></trkpt><trkpt lat="40.0779197" lon="9.6048255"><ele>712.0</ele><time>2026-04-18T15:35:52.278Z</time></trkpt><trkpt lat="40.0780158" lon="9.604829"><ele>712.0</ele><time>2026-04-18T15:35:53.279Z</time></trkpt><trkpt lat="40.0781506" lon="9.6047343"><ele>712.0</ele><time>2026-04-18T15:35:54.28Z</time></trkpt><trkpt lat="40.0781947" lon="9.6045608"><ele>712.0</ele><time>2026-04-18T15:35:55.278Z</time></trkpt><trkpt lat="40.078258" lon="9.604359"><ele>706.0</ele><time>2026-04-18T15:35:56.279Z</time></trkpt><trkpt lat="40.0782788" lon="9.6040506"><ele>700.0</ele><time>2026-04-18T15:35:57.279Z</time></trkpt><trkpt lat="40.0783302" lon="9.6038225"><ele>694.0</ele><time>2026-04-18T15:35:58.279Z</time></trkpt><trkpt lat="40.0783928" lon="9.6035879"><ele>694.0</ele><time>2026-04-18T15:35:59.279Z</time></trkpt><trkpt lat="40.0784511" lon="9.6033675"><ele>694.0</ele><time>2026-04-18T15:36:00.28Z</time></trkpt><trkpt lat="40.0785084" lon="9.6031646"><ele>694.0</ele><time>2026-04-18T15:36:01.279Z</time></trkpt><trkpt lat="40.0785764" lon="9.6029732"><ele>696.6666666666667</ele><time>2026-04-18T15:36:02.279Z</time></trkpt><trkpt lat="40.0786621" lon="9.602807"><ele>699.3333333333334</ele><time>2026-04-18T15:36:03.279Z</time></trkpt><trkpt lat="40.0787701" lon="9.6026705"><ele>702.0</ele><time>2026-04-18T15:36:04.278Z</time></trkpt><trkpt lat="40.0789015" lon="9.6025648"><ele>702.0</ele><time>2026-04-18T15:36:05.278Z</time></trkpt><trkpt lat="40.0790491" lon="9.6024656"><ele>702.0</ele><time>2026-04-18T15:36:06.28Z</time></trkpt><trkpt lat="40.0792015" lon="9.6023809"><ele>702.0</ele><time>2026-04-18T15:36:07.279Z</time></trkpt><trkpt lat="40.0793605" lon="9.6023073"><ele>696.3333333333334</ele><time>2026-04-18T15:36:08.279Z</time></trkpt><trkpt lat="40.079528" lon="9.6022514"><ele>690.6666666666667</ele><time>2026-04-18T15:36:09.279Z</time></trkpt><trkpt lat="40.0796967" lon="9.6022095"><ele>685.0</ele><time>2026-04-18T15:36:10.279Z</time></trkpt><trkpt lat="40.0798636" lon="9.6021776"><ele>681.6666666666667</ele><time>2026-04-18T15:36:11.279Z</time></trkpt><trkpt lat="40.0800317" lon="9.602175"><ele>678.3333333333334</ele><time>2026-04-18T15:36:12.279Z</time></trkpt><trkpt lat="40.080193" lon="9.6021982"><ele>675.0</ele><time>2026-04-18T15:36:13.279Z</time></trkpt><trkpt lat="40.0803448" lon="9.6022283"><ele>675.0</ele><time>2026-04-18T15:36:14.279Z</time></trkpt><trkpt lat="40.0805046" lon="9.6022322"><ele>675.0</ele><time>2026-04-18T15:36:15.279Z</time></trkpt><trkpt lat="40.0806785" lon="9.6021795"><ele>675.0</ele><time>2026-04-18T15:36:16.279Z</time></trkpt><trkpt lat="40.0808384" lon="9.6021278"><ele>672.25</ele><time>2026-04-18T15:36:17.279Z</time></trkpt><trkpt lat="40.0809713" lon="9.6020887"><ele>669.5</ele><time>2026-04-18T15:36:18.279Z</time></trkpt><trkpt lat="40.08109" lon="9.6020518"><ele>666.75</ele><time>2026-04-18T15:36:19.278Z</time></trkpt><trkpt lat="40.0812075" lon="9.602064"><ele>664.0</ele><time>2026-04-18T15:36:20.279Z</time></trkpt><trkpt lat="40.0813153" lon="9.6021165"><ele>664.0</ele><time>2026-04-18T15:36:21.28Z</time></trkpt><trkpt lat="40.081415" lon="9.6021775"><ele>664.0</ele><time>2026-04-18T15:36:22.279Z</time></trkpt><trkpt lat="40.0815173" lon="9.6022448"><ele>664.0</ele><time>2026-04-18T15:36:23.278Z</time></trkpt><trkpt lat="40.0816005" lon="9.602264"><ele>664.0</ele><time>2026-04-18T15:36:24.279Z</time></trkpt><trkpt lat="40.0817371" lon="9.602203"><ele>666.3333333333334</ele><time>2026-04-18T15:36:25.279Z</time></trkpt><trkpt lat="40.0819329" lon="9.6020346"><ele>668.6666666666666</ele><time>2026-04-18T15:36:26.279Z</time></trkpt><trkpt lat="40.0820846" lon="9.6019681"><ele>671.0</ele><time>2026-04-18T15:36:27.278Z</time></trkpt><trkpt lat="40.0822555" lon="9.6019254"><ele>671.0</ele><time>2026-04-18T15:36:28.278Z</time></trkpt><trkpt lat="40.0824289" lon="9.6019005"><ele>671.0</ele><time>2026-04-18T15:36:29.279Z</time></trkpt><trkpt lat="40.0826069" lon="9.6019153"><ele>671.0</ele><time>2026-04-18T15:36:30.279Z</time></trkpt><trkpt lat="40.0827678" lon="9.6019468"><ele>666.6666666666666</ele><time>2026-04-18T15:36:31.279Z</time></trkpt><trkpt lat="40.0829216" lon="9.6019546"><ele>662.3333333333334</ele><time>2026-04-18T15:36:32.279Z</time></trkpt><trkpt lat="40.0830735" lon="9.6019252"><ele>658.0</ele><time>2026-04-18T15:36:33.278Z</time></trkpt><trkpt lat="40.0832269" lon="9.6018877"><ele>657.25</ele><time>2026-04-18T15:36:34.278Z</time></trkpt><trkpt lat="40.0833482" lon="9.6017855"><ele>656.5</ele><time>2026-04-18T15:36:35.278Z</time></trkpt><trkpt lat="40.0834778" lon="9.6017361"><ele>655.75</ele><time>2026-04-18T15:36:36.279Z</time></trkpt><trkpt lat="40.0836037" lon="9.601736"><ele>655.0</ele><time>2026-04-18T15:36:37.279Z</time></trkpt><trkpt lat="40.0837133" lon="9.6017933"><ele>655.0</ele><time>2026-04-18T15:36:38.279Z</time></trkpt><trkpt lat="40.0838127" lon="9.6018948"><ele>655.0</ele><time>2026-04-18T15:36:39.28Z</time></trkpt><trkpt lat="40.0839063" lon="9.6020432"><ele>655.0</ele><time>2026-04-18T15:36:40.279Z</time></trkpt><trkpt lat="40.0839933" lon="9.6021885"><ele>655.0</ele><time>2026-04-18T15:36:41.279Z</time></trkpt><trkpt lat="40.0840818" lon="9.6023172"><ele>661.3333333333334</ele><time>2026-04-18T15:36:42.279Z</time></trkpt><trkpt lat="40.0842152" lon="9.6024238"><ele>667.6666666666666</ele><time>2026-04-18T15:36:43.279Z</time></trkpt><trkpt lat="40.0843428" lon="9.6025176"><ele>674.0</ele><time>2026-04-18T15:36:44.279Z</time></trkpt><trkpt lat="40.0845204" lon="9.6026015"><ele>674.0</ele><time>2026-04-18T15:36:45.279Z</time></trkpt><trkpt lat="40.0846605" lon="9.602686"><ele>674.0</ele><time>2026-04-18T15:36:46.279Z</time></trkpt><trkpt lat="40.0848111" lon="9.6027652"><ele>674.0</ele><time>2026-04-18T15:36:47.279Z</time></trkpt><trkpt lat="40.0849534" lon="9.6028469"><ele>679.25</ele><time>2026-04-18T15:36:48.279Z</time></trkpt><trkpt lat="40.0850864" lon="9.6029194"><ele>684.5</ele><time>2026-04-18T15:36:49.278Z</time></trkpt><trkpt lat="40.0852228" lon="9.6029719"><ele>689.75</ele><time>2026-04-18T15:36:50.279Z</time></trkpt><trkpt lat="40.0853768" lon="9.6029838"><ele>695.0</ele><time>2026-04-18T15:36:51.279Z</time></trkpt><trkpt lat="40.0855332" lon="9.6029565"><ele>695.0</ele><time>2026-04-18T15:36:52.279Z</time></trkpt><trkpt lat="40.0856741" lon="9.6028696"><ele>695.0</ele><time>2026-04-18T15:36:53.279Z</time></trkpt><trkpt lat="40.0858033" lon="9.6027993"><ele>695.0</ele><time>2026-04-18T15:36:54.278Z</time></trkpt><trkpt lat="40.0859362" lon="9.6027553"><ele>695.0</ele><time>2026-04-18T15:36:55.279Z</time></trkpt><trkpt lat="40.086077" lon="9.6027627"><ele>695.0</ele><time>2026-04-18T15:36:56.279Z</time></trkpt><trkpt lat="40.086202" lon="9.6028146"><ele>695.0</ele><time>2026-04-18T15:36:57.278Z</time></trkpt><trkpt lat="40.0863089" lon="9.6028997"><ele>695.0</ele><time>2026-04-18T15:36:58.279Z</time></trkpt><trkpt lat="40.0864086" lon="9.6029684"><ele>695.0</ele><time>2026-04-18T15:36:59.279Z</time></trkpt><trkpt lat="40.0865233" lon="9.6029924"><ele>697.6666666666666</ele><time>2026-04-18T15:37:00.279Z</time></trkpt><trkpt lat="40.0866323" lon="9.6030344"><ele>700.3333333333334</ele><time>2026-04-18T15:37:01.279Z</time></trkpt><trkpt lat="40.0867661" lon="9.6030437"><ele>703.0</ele><time>2026-04-18T15:37:02.279Z</time></trkpt><trkpt lat="40.0869641" lon="9.6029581"><ele>683.0</ele><time>2026-04-18T15:37:03.279Z</time></trkpt><trkpt lat="40.0871478" lon="9.6028169"><ele>663.0</ele><time>2026-04-18T15:37:04.278Z</time></trkpt><trkpt lat="40.0873008" lon="9.6025503"><ele>678.5</ele><time>2026-04-18T15:37:05.278Z</time></trkpt><trkpt lat="40.0874907" lon="9.6023409"><ele>694.0</ele><time>2026-04-18T15:37:06.279Z</time></trkpt><trkpt lat="40.0876976" lon="9.6021221"><ele>677.0</ele><time>2026-04-18T15:37:07.279Z</time></trkpt><trkpt lat="40.0879113" lon="9.6019088"><ele>660.0</ele><time>2026-04-18T15:37:08.279Z</time></trkpt><trkpt lat="40.0881188" lon="9.6017005"><ele>677.5</ele><time>2026-04-18T15:37:09.279Z</time></trkpt><trkpt lat="40.0883664" lon="9.6014463"><ele>695.0</ele><time>2026-04-18T15:37:10.279Z</time></trkpt><trkpt lat="40.0886188" lon="9.6012003"><ele>696.0</ele><time>2026-04-18T15:37:11.28Z</time></trkpt><trkpt lat="40.0888608" lon="9.600987"><ele>697.0</ele><time>2026-04-18T15:37:12.279Z</time></trkpt><trkpt lat="40.0891063" lon="9.6007429"><ele>697.0</ele><time>2026-04-18T15:37:13.279Z</time></trkpt><trkpt lat="40.0892978" lon="9.600504"><ele>697.0</ele><time>2026-04-18T15:37:14.278Z</time></trkpt><trkpt lat="40.0895268" lon="9.6002914"><ele>682.0</ele><time>2026-04-18T15:37:15.278Z</time></trkpt><trkpt lat="40.0897174" lon="9.6000613"><ele>667.0</ele><time>2026-04-18T15:37:16.279Z</time></trkpt><trkpt lat="40.0899005" lon="9.5998589"><ele>670.5</ele><time>2026-04-18T15:37:17.278Z</time></trkpt><trkpt lat="40.0900433" lon="9.5996095"><ele>674.0</ele><time>2026-04-18T15:37:18.279Z</time></trkpt><trkpt lat="40.0902253" lon="9.5994615"><ele>674.0</ele><time>2026-04-18T15:37:19.279Z</time></trkpt><trkpt lat="40.0904249" lon="9.5993673"><ele>674.0</ele><time>2026-04-18T15:37:20.278Z</time></trkpt><trkpt lat="40.0906447" lon="9.5993175"><ele>674.0</ele><time>2026-04-18T15:37:21.278Z</time></trkpt><trkpt lat="40.0908596" lon="9.599212"><ele>684.0</ele><time>2026-04-18T15:37:22.279Z</time></trkpt><trkpt lat="40.0910746" lon="9.5991082"><ele>694.0</ele><time>2026-04-18T15:37:23.279Z</time></trkpt><trkpt lat="40.0913425" lon="9.5990219"><ele>694.0</ele><time>2026-04-18T15:37:24.279Z</time></trkpt><trkpt lat="40.0915697" lon="9.5988462"><ele>694.0</ele><time>2026-04-18T15:37:25.28Z</time></trkpt><trkpt lat="40.0917803" lon="9.5986553"><ele>682.5</ele><time>2026-04-18T15:37:26.279Z</time></trkpt><trkpt lat="40.0920071" lon="9.5984855"><ele>671.0</ele><time>2026-04-18T15:37:27.28Z</time></trkpt><trkpt lat="40.0922403" lon="9.5983912"><ele>680.3333333333333</ele><time>2026-04-18T15:37:28.28Z</time></trkpt><trkpt lat="40.0924377" lon="9.5982407"><ele>689.6666666666666</ele><time>2026-04-18T15:37:29.279Z</time></trkpt><trkpt lat="40.0925694" lon="9.598145"><ele>699.0</ele><time>2026-04-18T15:37:30.278Z</time></trkpt><trkpt lat="40.0927719" lon="9.5980463"><ele>699.0</ele><time>2026-04-18T15:37:31.278Z</time></trkpt><trkpt lat="40.092938" lon="9.5978851"><ele>699.0</ele><time>2026-04-18T15:37:32.279Z</time></trkpt><trkpt lat="40.0931039" lon="9.5977914"><ele>699.0</ele><time>2026-04-18T15:37:33.28Z</time></trkpt><trkpt lat="40.0932544" lon="9.5976515"><ele>698.0</ele><time>2026-04-18T15:37:34.28Z</time></trkpt><trkpt lat="40.093399" lon="9.5974461"><ele>697.0</ele><time>2026-04-18T15:37:35.279Z</time></trkpt><trkpt lat="40.0935412" lon="9.597282"><ele>696.0</ele><time>2026-04-18T15:37:36.279Z</time></trkpt><trkpt lat="40.0936873" lon="9.5971294"><ele>694.6666666666666</ele><time>2026-04-18T15:37:37.278Z</time></trkpt><trkpt lat="40.0938336" lon="9.5969919"><ele>693.3333333333333</ele><time>2026-04-18T15:37:38.279Z</time></trkpt><trkpt lat="40.0939634" lon="9.5968032"><ele>692.0</ele><time>2026-04-18T15:37:39.28Z</time></trkpt><trkpt lat="40.094177" lon="9.5967054"><ele>692.0</ele><time>2026-04-18T15:37:40.279Z</time></trkpt><trkpt lat="40.0943909" lon="9.5966343"><ele>692.0</ele><time>2026-04-18T15:37:41.279Z</time></trkpt><trkpt lat="40.0945775" lon="9.5965505"><ele>692.0</ele><time>2026-04-18T15:37:42.28Z</time></trkpt><trkpt lat="40.0948025" lon="9.596482"><ele>698.0</ele><time>2026-04-18T15:37:43.278Z</time></trkpt><trkpt lat="40.094972" lon="9.5963916"><ele>704.0</ele><time>2026-04-18T15:37:44.28Z</time></trkpt><trkpt lat="40.0951745" lon="9.5963933"><ele>710.0</ele><time>2026-04-18T15:37:45.279Z</time></trkpt><trkpt lat="40.0953562" lon="9.5963131"><ele>710.0</ele><time>2026-04-18T15:37:46.279Z</time></trkpt><trkpt lat="40.095557" lon="9.5963045"><ele>710.0</ele><time>2026-04-18T15:37:47.279Z</time></trkpt><trkpt lat="40.0957842" lon="9.5963227"><ele>710.0</ele><time>2026-04-18T15:37:48.279Z</time></trkpt><trkpt lat="40.0960204" lon="9.5963361"><ele>710.3333333333333</ele><time>2026-04-18T15:37:49.28Z</time></trkpt><trkpt lat="40.0962496" lon="9.5963388"><ele>710.6666666666666</ele><time>2026-04-18T15:37:50.279Z</time></trkpt><trkpt lat="40.0964622" lon="9.5963461"><ele>711.0</ele><time>2026-04-18T15:37:51.279Z</time></trkpt><trkpt lat="40.0966991" lon="9.5963762"><ele>710.0</ele><time>2026-04-18T15:37:52.279Z</time></trkpt><trkpt lat="40.0969409" lon="9.5964321"><ele>709.0</ele><time>2026-04-18T15:37:53.279Z</time></trkpt><trkpt lat="40.0971404" lon="9.596561"><ele>709.0</ele><time>2026-04-18T15:37:54.278Z</time></trkpt><trkpt lat="40.0974035" lon="9.5965024"><ele>709.0</ele><time>2026-04-18T15:37:55.278Z</time></trkpt><trkpt lat="40.0975714" lon="9.5965446"><ele>709.0</ele><time>2026-04-18T15:37:56.279Z</time></trkpt><trkpt lat="40.0976801" lon="9.5964507"><ele>708.0</ele><time>2026-04-18T15:37:57.279Z</time></trkpt><trkpt lat="40.0978327" lon="9.5964501"><ele>707.0</ele><time>2026-04-18T15:37:58.279Z</time></trkpt><trkpt lat="40.0979734" lon="9.5964363"><ele>706.0</ele><time>2026-04-18T15:37:59.279Z</time></trkpt><trkpt lat="40.0980926" lon="9.5963869"><ele>705.0</ele><time>2026-04-18T15:38:00.279Z</time></trkpt><trkpt lat="40.0982263" lon="9.5963025"><ele>705.3333333333334</ele><time>2026-04-18T15:38:01.279Z</time></trkpt><trkpt lat="40.0983621" lon="9.5961754"><ele>705.6666666666667</ele><time>2026-04-18T15:38:02.279Z</time></trkpt><trkpt lat="40.0984866" lon="9.5960173"><ele>706.0</ele><time>2026-04-18T15:38:03.278Z</time></trkpt><trkpt lat="40.0985892" lon="9.5958479"><ele>698.0</ele><time>2026-04-18T15:38:04.279Z</time></trkpt><trkpt lat="40.098696" lon="9.5955533"><ele>690.0</ele><time>2026-04-18T15:38:05.279Z</time></trkpt><trkpt lat="40.0988319" lon="9.5953395"><ele>684.0</ele><time>2026-04-18T15:38:06.279Z</time></trkpt><trkpt lat="40.0989783" lon="9.5951025"><ele>678.0</ele><time>2026-04-18T15:38:07.279Z</time></trkpt><trkpt lat="40.0991599" lon="9.5949387"><ele>692.0</ele><time>2026-04-18T15:38:08.28Z</time></trkpt><trkpt lat="40.0993655" lon="9.5947473"><ele>706.0</ele><time>2026-04-18T15:38:09.279Z</time></trkpt><trkpt lat="40.0995836" lon="9.5945472"><ele>700.0</ele><time>2026-04-18T15:38:10.28Z</time></trkpt><trkpt lat="40.0998509" lon="9.5943842"><ele>694.0</ele><time>2026-04-18T15:38:11.278Z</time></trkpt><trkpt lat="40.1000906" lon="9.5942485"><ele>694.0</ele><time>2026-04-18T15:38:12.279Z</time></trkpt><trkpt lat="40.1003086" lon="9.5940635"><ele>694.0</ele><time>2026-04-18T15:38:13.279Z</time></trkpt><trkpt lat="40.1005287" lon="9.5939083"><ele>693.5</ele><time>2026-04-18T15:38:14.279Z</time></trkpt><trkpt lat="40.1007523" lon="9.5937243"><ele>693.0</ele><time>2026-04-18T15:38:15.279Z</time></trkpt><trkpt lat="40.1009747" lon="9.5935103"><ele>693.0</ele><time>2026-04-18T15:38:16.279Z</time></trkpt><trkpt lat="40.1012169" lon="9.5932686"><ele>693.0</ele><time>2026-04-18T15:38:17.279Z</time></trkpt><trkpt lat="40.1013288" lon="9.5929563"><ele>698.0</ele><time>2026-04-18T15:38:18.278Z</time></trkpt><trkpt lat="40.101491" lon="9.5926893"><ele>703.0</ele><time>2026-04-18T15:38:19.279Z</time></trkpt><trkpt lat="40.1016297" lon="9.5924643"><ele>703.0</ele><time>2026-04-18T15:38:20.279Z</time></trkpt><trkpt lat="40.1017366" lon="9.5922791"><ele>703.0</ele><time>2026-04-18T15:38:21.279Z</time></trkpt><trkpt lat="40.1018389" lon="9.5920466"><ele>703.0</ele><time>2026-04-18T15:38:22.278Z</time></trkpt><trkpt lat="40.1020045" lon="9.5919857"><ele>692.6666666666667</ele><time>2026-04-18T15:38:23.279Z</time></trkpt><trkpt lat="40.1021332" lon="9.5918412"><ele>682.3333333333334</ele><time>2026-04-18T15:38:24.278Z</time></trkpt><trkpt lat="40.1022677" lon="9.5917251"><ele>672.0</ele><time>2026-04-18T15:38:25.279Z</time></trkpt><trkpt lat="40.1023807" lon="9.5915616"><ele>676.0</ele><time>2026-04-18T15:38:26.279Z</time></trkpt><trkpt lat="40.1024942" lon="9.5913417"><ele>680.0</ele><time>2026-04-18T15:38:27.28Z</time></trkpt><trkpt lat="40.1026246" lon="9.591122"><ele>684.0</ele><time>2026-04-18T15:38:28.279Z</time></trkpt><trkpt lat="40.1027862" lon="9.590885"><ele>684.0</ele><time>2026-04-18T15:38:29.28Z</time></trkpt><trkpt lat="40.1029459" lon="9.5906221"><ele>684.0</ele><time>2026-04-18T15:38:30.279Z</time></trkpt><trkpt lat="40.1030918" lon="9.5903762"><ele>689.6666666666666</ele><time>2026-04-18T15:38:31.28Z</time></trkpt><trkpt lat="40.1032239" lon="9.5901623"><ele>695.3333333333333</ele><time>2026-04-18T15:38:32.279Z</time></trkpt><trkpt lat="40.1033454" lon="9.5899744"><ele>701.0</ele><time>2026-04-18T15:38:33.28Z</time></trkpt><trkpt lat="40.1034517" lon="9.5897949"><ele>701.0</ele><time>2026-04-18T15:38:34.28Z</time></trkpt><trkpt lat="40.103552" lon="9.589646"><ele>701.0</ele><time>2026-04-18T15:38:35.278Z</time></trkpt><trkpt lat="40.1036292" lon="9.5895026"><ele>701.0</ele><time>2026-04-18T15:38:36.278Z</time></trkpt><trkpt lat="40.1036849" lon="9.5893351"><ele>701.0</ele><time>2026-04-18T15:38:37.279Z</time></trkpt><trkpt lat="40.1037289" lon="9.589172"><ele>694.3333333333333</ele><time>2026-04-18T15:38:38.279Z</time></trkpt><trkpt lat="40.1037506" lon="9.5889798"><ele>687.6666666666666</ele><time>2026-04-18T15:38:39.28Z</time></trkpt><trkpt lat="40.1037122" lon="9.5887918"><ele>681.0</ele><time>2026-04-18T15:38:40.279Z</time></trkpt><trkpt lat="40.1037235" lon="9.5885886"><ele>679.25</ele><time>2026-04-18T15:38:41.279Z</time></trkpt><trkpt lat="40.1037354" lon="9.5883931"><ele>677.5</ele><time>2026-04-18T15:38:42.279Z</time></trkpt><trkpt lat="40.1037918" lon="9.5882262"><ele>675.75</ele><time>2026-04-18T15:38:43.279Z</time></trkpt><trkpt lat="40.1038355" lon="9.5880433"><ele>674.0</ele><time>2026-04-18T15:38:44.279Z</time></trkpt><trkpt lat="40.1037697" lon="9.5878802"><ele>674.5</ele><time>2026-04-18T15:38:45.28Z</time></trkpt><trkpt lat="40.1037214" lon="9.5877247"><ele>675.0</ele><time>2026-04-18T15:38:46.279Z</time></trkpt><trkpt lat="40.1036862" lon="9.5875629"><ele>675.5</ele><time>2026-04-18T15:38:47.279Z</time></trkpt><trkpt lat="40.1036483" lon="9.587393"><ele>676.0</ele><time>2026-04-18T15:38:48.279Z</time></trkpt><trkpt lat="40.1036382" lon="9.587209"><ele>675.0</ele><time>2026-04-18T15:38:49.279Z</time></trkpt><trkpt lat="40.1036636" lon="9.5869839"><ele>674.0</ele><time>2026-04-18T15:38:50.279Z</time></trkpt><trkpt lat="40.1037094" lon="9.5868062"><ele>673.0</ele><time>2026-04-18T15:38:51.279Z</time></trkpt><trkpt lat="40.103841" lon="9.5866532"><ele>673.0</ele><time>2026-04-18T15:38:52.279Z</time></trkpt><trkpt lat="40.1037865" lon="9.5864657"><ele>673.0</ele><time>2026-04-18T15:38:53.279Z</time></trkpt><trkpt lat="40.1037468" lon="9.5863019"><ele>673.0</ele><time>2026-04-18T15:38:54.278Z</time></trkpt><trkpt lat="40.103718" lon="9.586161"><ele>673.0</ele><time>2026-04-18T15:38:55.278Z</time></trkpt><trkpt lat="40.1037125" lon="9.5860303"><ele>673.25</ele><time>2026-04-18T15:38:56.278Z</time></trkpt><trkpt lat="40.103697" lon="9.5858955"><ele>673.5</ele><time>2026-04-18T15:38:57.277Z</time></trkpt><trkpt lat="40.1038057" lon="9.5857865"><ele>673.75</ele><time>2026-04-18T15:38:58.278Z</time></trkpt><trkpt lat="40.1038563" lon="9.5856467"><ele>674.0</ele><time>2026-04-18T15:38:59.279Z</time></trkpt><trkpt lat="40.1039049" lon="9.5855105"><ele>679.0</ele><time>2026-04-18T15:39:00.279Z</time></trkpt><trkpt lat="40.1038708" lon="9.5852744"><ele>684.0</ele><time>2026-04-18T15:39:01.278Z</time></trkpt><trkpt lat="40.1038403" lon="9.5850937"><ele>689.0</ele><time>2026-04-18T15:39:02.278Z</time></trkpt><trkpt lat="40.1038039" lon="9.5849047"><ele>689.0</ele><time>2026-04-18T15:39:03.278Z</time></trkpt><trkpt lat="40.103726" lon="9.5847026"><ele>689.0</ele><time>2026-04-18T15:39:04.279Z</time></trkpt><trkpt lat="40.1035871" lon="9.5846365"><ele>689.0</ele><time>2026-04-18T15:39:05.278Z</time></trkpt><trkpt lat="40.1034832" lon="9.5845447"><ele>689.0</ele><time>2026-04-18T15:39:06.279Z</time></trkpt><trkpt lat="40.1033778" lon="9.5844826"><ele>687.0</ele><time>2026-04-18T15:39:07.278Z</time></trkpt><trkpt lat="40.1032937" lon="9.5843711"><ele>685.0</ele><time>2026-04-18T15:39:08.278Z</time></trkpt><trkpt lat="40.1032158" lon="9.5842355"><ele>683.0</ele><time>2026-04-18T15:39:09.277Z</time></trkpt><trkpt lat="40.1031462" lon="9.5841142"><ele>681.0</ele><time>2026-04-18T15:39:10.277Z</time></trkpt><trkpt lat="40.1031911" lon="9.5839325"><ele>681.0</ele><time>2026-04-18T15:39:11.278Z</time></trkpt><trkpt lat="40.1032308" lon="9.5837995"><ele>681.0</ele><time>2026-04-18T15:39:12.278Z</time></trkpt><trkpt lat="40.103322" lon="9.5836768"><ele>681.0</ele><time>2026-04-18T15:39:13.278Z</time></trkpt><trkpt lat="40.1034473" lon="9.5835567"><ele>681.0</ele><time>2026-04-18T15:39:14.278Z</time></trkpt><trkpt lat="40.1035814" lon="9.5834429"><ele>690.3333333333334</ele><time>2026-04-18T15:39:15.278Z</time></trkpt><trkpt lat="40.1037217" lon="9.5833284"><ele>699.6666666666667</ele><time>2026-04-18T15:39:16.277Z</time></trkpt><trkpt lat="40.1038573" lon="9.5831789"><ele>709.0</ele><time>2026-04-18T15:39:17.277Z</time></trkpt><trkpt lat="40.103988" lon="9.58302"><ele>710.0</ele><time>2026-04-18T15:39:18.278Z</time></trkpt><trkpt lat="40.1041135" lon="9.5828884"><ele>711.0</ele><time>2026-04-18T15:39:19.277Z</time></trkpt><trkpt lat="40.1042307" lon="9.5827649"><ele>712.0</ele><time>2026-04-18T15:39:20.277Z</time></trkpt><trkpt lat="40.1043452" lon="9.582661"><ele>712.0</ele><time>2026-04-18T15:39:21.278Z</time></trkpt><trkpt lat="40.1044642" lon="9.582617"><ele>712.0</ele><time>2026-04-18T15:39:22.277Z</time></trkpt><trkpt lat="40.1045709" lon="9.5826036"><ele>712.0</ele><time>2026-04-18T15:39:23.278Z</time></trkpt><trkpt lat="40.1046801" lon="9.5825484"><ele>712.0</ele><time>2026-04-18T15:39:24.277Z</time></trkpt><trkpt lat="40.1047981" lon="9.5824521"><ele>712.0</ele><time>2026-04-18T15:39:25.277Z</time></trkpt><trkpt lat="40.1049082" lon="9.5823161"><ele>712.0</ele><time>2026-04-18T15:39:26.277Z</time></trkpt><trkpt lat="40.1050107" lon="9.58218"><ele>712.0</ele><time>2026-04-18T15:39:27.278Z</time></trkpt><trkpt lat="40.1051038" lon="9.5820179"><ele>716.0</ele><time>2026-04-18T15:39:28.278Z</time></trkpt><trkpt lat="40.1051706" lon="9.5818235"><ele>720.0</ele><time>2026-04-18T15:39:29.279Z</time></trkpt><trkpt lat="40.105213" lon="9.5816453"><ele>724.0</ele><time>2026-04-18T15:39:30.278Z</time></trkpt><trkpt lat="40.105248" lon="9.5814881"><ele>728.0</ele><time>2026-04-18T15:39:31.278Z</time></trkpt><trkpt lat="40.1052698" lon="9.5813533"><ele>728.0</ele><time>2026-04-18T15:39:32.278Z</time></trkpt><trkpt lat="40.1052798" lon="9.5812247"><ele>728.0</ele><time>2026-04-18T15:39:33.278Z</time></trkpt><trkpt lat="40.1052843" lon="9.5810934"><ele>728.0</ele><time>2026-04-18T15:39:34.277Z</time></trkpt><trkpt lat="40.1052514" lon="9.5810226"><ele>728.0</ele><time>2026-04-18T15:39:35.279Z</time></trkpt><trkpt lat="40.1051627" lon="9.58087"><ele>728.0</ele><time>2026-04-18T15:39:36.278Z</time></trkpt><trkpt lat="40.1049083" lon="9.5809046"><ele>727.0</ele><time>2026-04-18T15:39:37.278Z</time></trkpt><trkpt lat="40.1047816" lon="9.5808454"><ele>726.0</ele><time>2026-04-18T15:39:38.279Z</time></trkpt><trkpt lat="40.1046359" lon="9.5807724"><ele>725.0</ele><time>2026-04-18T15:39:39.278Z</time></trkpt><trkpt lat="40.1045176" lon="9.5806771"><ele>724.0</ele><time>2026-04-18T15:39:40.278Z</time></trkpt><trkpt lat="40.1044288" lon="9.5805531"><ele>724.0</ele><time>2026-04-18T15:39:41.278Z</time></trkpt><trkpt lat="40.1043546" lon="9.5804115"><ele>724.0</ele><time>2026-04-18T15:39:42.278Z</time></trkpt><trkpt lat="40.1042852" lon="9.5802692"><ele>724.0</ele><time>2026-04-18T15:39:43.278Z</time></trkpt><trkpt lat="40.1042045" lon="9.5801249"><ele>724.0</ele><time>2026-04-18T15:39:44.278Z</time></trkpt><trkpt lat="40.1040897" lon="9.5799776"><ele>729.0</ele><time>2026-04-18T15:39:45.278Z</time></trkpt><trkpt lat="40.1039236" lon="9.5799358"><ele>734.0</ele><time>2026-04-18T15:39:46.279Z</time></trkpt><trkpt lat="40.1037227" lon="9.5799267"><ele>739.0</ele><time>2026-04-18T15:39:47.278Z</time></trkpt><trkpt lat="40.1035547" lon="9.5798856"><ele>739.0</ele><time>2026-04-18T15:39:48.278Z</time></trkpt><trkpt lat="40.1033787" lon="9.5799046"><ele>739.0</ele><time>2026-04-18T15:39:49.278Z</time></trkpt><trkpt lat="40.1032013" lon="9.5799263"><ele>739.0</ele><time>2026-04-18T15:39:50.278Z</time></trkpt><trkpt lat="40.1030225" lon="9.5799591"><ele>740.6666666666667</ele><time>2026-04-18T15:39:51.278Z</time></trkpt><trkpt lat="40.1028357" lon="9.5799855"><ele>742.3333333333334</ele><time>2026-04-18T15:39:52.279Z</time></trkpt><trkpt lat="40.1026619" lon="9.5800059"><ele>744.0</ele><time>2026-04-18T15:39:53.279Z</time></trkpt><trkpt lat="40.1025123" lon="9.5800559"><ele>740.2</ele><time>2026-04-18T15:39:54.279Z</time></trkpt><trkpt lat="40.1023436" lon="9.5801112"><ele>736.4000000000001</ele><time>2026-04-18T15:39:55.278Z</time></trkpt><trkpt lat="40.1022657" lon="9.5801486"><ele>732.6</ele><time>2026-04-18T15:39:56.278Z</time></trkpt><trkpt lat="40.1021601" lon="9.5801511"><ele>728.8</ele><time>2026-04-18T15:39:57.279Z</time></trkpt><trkpt lat="40.1020854" lon="9.5801027"><ele>725.0</ele><time>2026-04-18T15:39:58.278Z</time></trkpt><trkpt lat="40.1019989" lon="9.5800424"><ele>725.0</ele><time>2026-04-18T15:39:59.278Z</time></trkpt><trkpt lat="40.1019371" lon="9.5798445"><ele>725.0</ele><time>2026-04-18T15:40:00.279Z</time></trkpt><trkpt lat="40.1018861" lon="9.5796539"><ele>725.0</ele><time>2026-04-18T15:40:01.278Z</time></trkpt><trkpt lat="40.1018663" lon="9.5794513"><ele>728.0</ele><time>2026-04-18T15:40:02.278Z</time></trkpt><trkpt lat="40.1018497" lon="9.57924"><ele>731.0</ele><time>2026-04-18T15:40:03.277Z</time></trkpt><trkpt lat="40.1018612" lon="9.5790234"><ele>734.0</ele><time>2026-04-18T15:40:04.279Z</time></trkpt><trkpt lat="40.1019008" lon="9.5788274"><ele>736.5</ele><time>2026-04-18T15:40:05.278Z</time></trkpt><trkpt lat="40.1019461" lon="9.5786606"><ele>739.0</ele><time>2026-04-18T15:40:06.277Z</time></trkpt><trkpt lat="40.1019503" lon="9.578487"><ele>741.5</ele><time>2026-04-18T15:40:07.278Z</time></trkpt><trkpt lat="40.1019296" lon="9.578307"><ele>744.0</ele><time>2026-04-18T15:40:08.279Z</time></trkpt><trkpt lat="40.1018851" lon="9.5781397"><ele>744.0</ele><time>2026-04-18T15:40:09.278Z</time></trkpt><trkpt lat="40.1018267" lon="9.5780002"><ele>744.0</ele><time>2026-04-18T15:40:10.277Z</time></trkpt><trkpt lat="40.1017321" lon="9.5779085"><ele>744.0</ele><time>2026-04-18T15:40:11.277Z</time></trkpt><trkpt lat="40.101552" lon="9.5778625"><ele>744.0</ele><time>2026-04-18T15:40:12.277Z</time></trkpt><trkpt lat="40.1014199" lon="9.5777759"><ele>743.5</ele><time>2026-04-18T15:40:13.277Z</time></trkpt><trkpt lat="40.1012963" lon="9.5776675"><ele>743.0</ele><time>2026-04-18T15:40:14.278Z</time></trkpt><trkpt lat="40.1011839" lon="9.5775489"><ele>742.5</ele><time>2026-04-18T15:40:15.277Z</time></trkpt><trkpt lat="40.1010984" lon="9.5774123"><ele>742.0</ele><time>2026-04-18T15:40:16.277Z</time></trkpt><trkpt lat="40.1010411" lon="9.5772288"><ele>742.0</ele><time>2026-04-18T15:40:17.278Z</time></trkpt><trkpt lat="40.1010097" lon="9.5770393"><ele>742.0</ele><time>2026-04-18T15:40:18.278Z</time></trkpt><trkpt lat="40.1009989" lon="9.5768848"><ele>742.0</ele><time>2026-04-18T15:40:19.278Z</time></trkpt><trkpt lat="40.1010289" lon="9.5767038"><ele>742.0</ele><time>2026-04-18T15:40:20.278Z</time></trkpt><trkpt lat="40.1010797" lon="9.5765418"><ele>745.0</ele><time>2026-04-18T15:40:21.278Z</time></trkpt><trkpt lat="40.1011259" lon="9.5763994"><ele>748.0</ele><time>2026-04-18T15:40:22.278Z</time></trkpt><trkpt lat="40.1011709" lon="9.5762807"><ele>751.0</ele><time>2026-04-18T15:40:23.278Z</time></trkpt><trkpt lat="40.101185" lon="9.5761712"><ele>754.0</ele><time>2026-04-18T15:40:24.277Z</time></trkpt><trkpt lat="40.101129" lon="9.5760346"><ele>757.0</ele><time>2026-04-18T15:40:25.277Z</time></trkpt><trkpt lat="40.1010913" lon="9.5759178"><ele>761.3333333333334</ele><time>2026-04-18T15:40:26.279Z</time></trkpt><trkpt lat="40.1010128" lon="9.5758477"><ele>765.6666666666667</ele><time>2026-04-18T15:40:27.278Z</time></trkpt><trkpt lat="40.1007459" lon="9.5759785"><ele>770.0</ele><time>2026-04-18T15:40:28.278Z</time></trkpt><trkpt lat="40.1005861" lon="9.5760047"><ele>771.0</ele><time>2026-04-18T15:40:29.279Z</time></trkpt><trkpt lat="40.1004119" lon="9.576029"><ele>772.0</ele><time>2026-04-18T15:40:30.278Z</time></trkpt><trkpt lat="40.1002546" lon="9.5760618"><ele>773.0</ele><time>2026-04-18T15:40:31.278Z</time></trkpt><trkpt lat="40.1000942" lon="9.5761086"><ele>773.0</ele><time>2026-04-18T15:40:32.279Z</time></trkpt><trkpt lat="40.099941" lon="9.5761629"><ele>773.0</ele><time>2026-04-18T15:40:33.278Z</time></trkpt><trkpt lat="40.0998069" lon="9.5762022"><ele>773.0</ele><time>2026-04-18T15:40:34.278Z</time></trkpt><trkpt lat="40.0996816" lon="9.5762122"><ele>773.0</ele><time>2026-04-18T15:40:35.278Z</time></trkpt><trkpt lat="40.0995524" lon="9.5761819"><ele>771.75</ele><time>2026-04-18T15:40:36.278Z</time></trkpt><trkpt lat="40.0994252" lon="9.5761152"><ele>770.5</ele><time>2026-04-18T15:40:37.278Z</time></trkpt><trkpt lat="40.0993044" lon="9.5760203"><ele>769.25</ele><time>2026-04-18T15:40:38.278Z</time></trkpt><trkpt lat="40.0991884" lon="9.57587"><ele>768.0</ele><time>2026-04-18T15:40:39.278Z</time></trkpt><trkpt lat="40.0990875" lon="9.5756828"><ele>767.0</ele><time>2026-04-18T15:40:40.278Z</time></trkpt><trkpt lat="40.0989995" lon="9.5755051"><ele>766.0</ele><time>2026-04-18T15:40:41.278Z</time></trkpt><trkpt lat="40.0989107" lon="9.5753492"><ele>765.0</ele><time>2026-04-18T15:40:42.278Z</time></trkpt><trkpt lat="40.0987941" lon="9.5752182"><ele>765.0</ele><time>2026-04-18T15:40:43.279Z</time></trkpt><trkpt lat="40.0986524" lon="9.5751025"><ele>765.0</ele><time>2026-04-18T15:40:44.278Z</time></trkpt><trkpt lat="40.0984906" lon="9.5749962"><ele>765.0</ele><time>2026-04-18T15:40:45.278Z</time></trkpt><trkpt lat="40.0983143" lon="9.5748911"><ele>760.0</ele><time>2026-04-18T15:40:46.278Z</time></trkpt><trkpt lat="40.0981434" lon="9.5747979"><ele>755.0</ele><time>2026-04-18T15:40:47.278Z</time></trkpt><trkpt lat="40.0979697" lon="9.5747317"><ele>750.0</ele><time>2026-04-18T15:40:48.277Z</time></trkpt><trkpt lat="40.0978023" lon="9.5746679"><ele>750.0</ele><time>2026-04-18T15:40:49.278Z</time></trkpt><trkpt lat="40.0976446" lon="9.5745971"><ele>750.0</ele><time>2026-04-18T15:40:50.278Z</time></trkpt><trkpt lat="40.0975026" lon="9.5745213"><ele>750.0</ele><time>2026-04-18T15:40:51.278Z</time></trkpt><trkpt lat="40.0973854" lon="9.574447"><ele>749.0</ele><time>2026-04-18T15:40:52.278Z</time></trkpt><trkpt lat="40.0972841" lon="9.5743651"><ele>748.0</ele><time>2026-04-18T15:40:53.279Z</time></trkpt><trkpt lat="40.0972229" lon="9.5742522"><ele>747.0</ele><time>2026-04-18T15:40:54.278Z</time></trkpt><trkpt lat="40.0972009" lon="9.5741192"><ele>746.0</ele><time>2026-04-18T15:40:55.278Z</time></trkpt><trkpt lat="40.0972397" lon="9.5739755"><ele>745.0</ele><time>2026-04-18T15:40:56.277Z</time></trkpt><trkpt lat="40.0973314" lon="9.5738225"><ele>748.6666666666667</ele><time>2026-04-18T15:40:57.277Z</time></trkpt><trkpt lat="40.0974504" lon="9.5736635"><ele>752.3333333333334</ele><time>2026-04-18T15:40:58.278Z</time></trkpt><trkpt lat="40.097553" lon="9.5734914"><ele>756.0</ele><time>2026-04-18T15:40:59.278Z</time></trkpt><trkpt lat="40.0976313" lon="9.5732859"><ele>756.0</ele><time>2026-04-18T15:41:00.278Z</time></trkpt><trkpt lat="40.0976823" lon="9.5730517"><ele>756.0</ele><time>2026-04-18T15:41:01.277Z</time></trkpt><trkpt lat="40.0977123" lon="9.5728274"><ele>756.0</ele><time>2026-04-18T15:41:02.277Z</time></trkpt><trkpt lat="40.097731" lon="9.5726223"><ele>754.5</ele><time>2026-04-18T15:41:03.277Z</time></trkpt><trkpt lat="40.0977401" lon="9.5724349"><ele>753.0</ele><time>2026-04-18T15:41:04.278Z</time></trkpt><trkpt lat="40.0977138" lon="9.5722474"><ele>751.5</ele><time>2026-04-18T15:41:05.278Z</time></trkpt><trkpt lat="40.0976587" lon="9.5720797"><ele>750.0</ele><time>2026-04-18T15:41:06.279Z</time></trkpt><trkpt lat="40.0976067" lon="9.571914"><ele>749.6666666666666</ele><time>2026-04-18T15:41:07.277Z</time></trkpt><trkpt lat="40.0975752" lon="9.5717312"><ele>749.3333333333333</ele><time>2026-04-18T15:41:08.278Z</time></trkpt><trkpt lat="40.0975726" lon="9.5715339"><ele>749.0</ele><time>2026-04-18T15:41:09.279Z</time></trkpt><trkpt lat="40.0975918" lon="9.5713133"><ele>750.3333333333333</ele><time>2026-04-18T15:41:10.279Z</time></trkpt><trkpt lat="40.0976344" lon="9.5710993"><ele>751.6666666666666</ele><time>2026-04-18T15:41:11.278Z</time></trkpt><trkpt lat="40.0976886" lon="9.5708919"><ele>753.0</ele><time>2026-04-18T15:41:12.278Z</time></trkpt><trkpt lat="40.0977358" lon="9.5706864"><ele>753.0</ele><time>2026-04-18T15:41:13.277Z</time></trkpt><trkpt lat="40.0977863" lon="9.5704763"><ele>753.0</ele><time>2026-04-18T15:41:14.277Z</time></trkpt><trkpt lat="40.0978595" lon="9.570252"><ele>753.0</ele><time>2026-04-18T15:41:15.279Z</time></trkpt><trkpt lat="40.0979643" lon="9.5700283"><ele>754.3333333333334</ele><time>2026-04-18T15:41:16.277Z</time></trkpt><trkpt lat="40.0980787" lon="9.5698194"><ele>755.6666666666667</ele><time>2026-04-18T15:41:17.278Z</time></trkpt><trkpt lat="40.0981894" lon="9.5696187"><ele>757.0</ele><time>2026-04-18T15:41:18.277Z</time></trkpt><trkpt lat="40.0982953" lon="9.5694284"><ele>757.0</ele><time>2026-04-18T15:41:19.278Z</time></trkpt><trkpt lat="40.0983973" lon="9.569249"><ele>757.0</ele><time>2026-04-18T15:41:20.278Z</time></trkpt><trkpt lat="40.0985096" lon="9.5690941"><ele>757.0</ele><time>2026-04-18T15:41:21.278Z</time></trkpt><trkpt lat="40.0986463" lon="9.568957"><ele>757.0</ele><time>2026-04-18T15:41:22.277Z</time></trkpt><trkpt lat="40.0988069" lon="9.5688338"><ele>757.0</ele><time>2026-04-18T15:41:23.278Z</time></trkpt><trkpt lat="40.0989668" lon="9.5687086"><ele>757.0</ele><time>2026-04-18T15:41:24.278Z</time></trkpt><trkpt lat="40.0991221" lon="9.568578"><ele>754.6666666666667</ele><time>2026-04-18T15:41:25.277Z</time></trkpt><trkpt lat="40.0992822" lon="9.5684638"><ele>752.3333333333334</ele><time>2026-04-18T15:41:26.279Z</time></trkpt><trkpt lat="40.099426" lon="9.5683482"><ele>750.0</ele><time>2026-04-18T15:41:27.278Z</time></trkpt><trkpt lat="40.0995615" lon="9.5682395"><ele>750.0</ele><time>2026-04-18T15:41:28.278Z</time></trkpt><trkpt lat="40.0996795" lon="9.5681147"><ele>750.0</ele><time>2026-04-18T15:41:29.279Z</time></trkpt><trkpt lat="40.0997749" lon="9.5679638"><ele>750.0</ele><time>2026-04-18T15:41:30.279Z</time></trkpt><trkpt lat="40.0998396" lon="9.5677871"><ele>751.0</ele><time>2026-04-18T15:41:31.278Z</time></trkpt><trkpt lat="40.0998635" lon="9.5675764"><ele>752.0</ele><time>2026-04-18T15:41:32.278Z</time></trkpt><trkpt lat="40.0998527" lon="9.5673447"><ele>753.0</ele><time>2026-04-18T15:41:33.277Z</time></trkpt><trkpt lat="40.099811" lon="9.5671175"><ele>749.6666666666666</ele><time>2026-04-18T15:41:34.278Z</time></trkpt><trkpt lat="40.0997387" lon="9.566911"><ele>746.3333333333333</ele><time>2026-04-18T15:41:35.278Z</time></trkpt><trkpt lat="40.0996494" lon="9.5667269"><ele>743.0</ele><time>2026-04-18T15:41:36.277Z</time></trkpt><trkpt lat="40.0995349" lon="9.5665771"><ele>743.0</ele><time>2026-04-18T15:41:37.278Z</time></trkpt><trkpt lat="40.0994065" lon="9.5664679"><ele>743.0</ele><time>2026-04-18T15:41:38.278Z</time></trkpt><trkpt lat="40.0992732" lon="9.5663751"><ele>743.0</ele><time>2026-04-18T15:41:39.278Z</time></trkpt><trkpt lat="40.0991568" lon="9.5662528"><ele>743.6666666666666</ele><time>2026-04-18T15:41:40.277Z</time></trkpt><trkpt lat="40.0990557" lon="9.566065"><ele>744.3333333333334</ele><time>2026-04-18T15:41:41.277Z</time></trkpt><trkpt lat="40.0989742" lon="9.565844"><ele>745.0</ele><time>2026-04-18T15:41:42.277Z</time></trkpt><trkpt lat="40.0989082" lon="9.5656421"><ele>745.0</ele><time>2026-04-18T15:41:43.277Z</time></trkpt><trkpt lat="40.0988317" lon="9.5654451"><ele>745.0</ele><time>2026-04-18T15:41:44.278Z</time></trkpt><trkpt lat="40.0987223" lon="9.5652546"><ele>745.0</ele><time>2026-04-18T15:41:45.279Z</time></trkpt><trkpt lat="40.0985625" lon="9.565082"><ele>744.3333333333334</ele><time>2026-04-18T15:41:46.278Z</time></trkpt><trkpt lat="40.0984065" lon="9.5649238"><ele>743.6666666666666</ele><time>2026-04-18T15:41:47.279Z</time></trkpt><trkpt lat="40.0982771" lon="9.5647939"><ele>743.0</ele><time>2026-04-18T15:41:48.278Z</time></trkpt><trkpt lat="40.0981601" lon="9.5646843"><ele>743.0</ele><time>2026-04-18T15:41:49.278Z</time></trkpt><trkpt lat="40.0980658" lon="9.5645881"><ele>743.0</ele><time>2026-04-18T15:41:50.279Z</time></trkpt><trkpt lat="40.0980136" lon="9.5644624"><ele>743.0</ele><time>2026-04-18T15:41:51.278Z</time></trkpt><trkpt lat="40.0980063" lon="9.5643069"><ele>743.0</ele><time>2026-04-18T15:41:52.278Z</time></trkpt><trkpt lat="40.0980516" lon="9.5641251"><ele>741.0</ele><time>2026-04-18T15:41:53.278Z</time></trkpt><trkpt lat="40.0981307" lon="9.5639137"><ele>739.0</ele><time>2026-04-18T15:41:54.278Z</time></trkpt><trkpt lat="40.0982185" lon="9.5636837"><ele>737.0</ele><time>2026-04-18T15:41:55.278Z</time></trkpt><trkpt lat="40.0983104" lon="9.5634474"><ele>734.6666666666666</ele><time>2026-04-18T15:41:56.277Z</time></trkpt><trkpt lat="40.0983947" lon="9.5632169"><ele>732.3333333333334</ele><time>2026-04-18T15:41:57.278Z</time></trkpt><trkpt lat="40.0984719" lon="9.5629986"><ele>730.0</ele><time>2026-04-18T15:41:58.277Z</time></trkpt><trkpt lat="40.0985474" lon="9.5628078"><ele>730.0</ele><time>2026-04-18T15:41:59.277Z</time></trkpt><trkpt lat="40.0986072" lon="9.5626387"><ele>730.0</ele><time>2026-04-18T15:42:00.277Z</time></trkpt><trkpt lat="40.0986458" lon="9.5624604"><ele>730.0</ele><time>2026-04-18T15:42:01.279Z</time></trkpt><trkpt lat="40.0986428" lon="9.562262"><ele>730.0</ele><time>2026-04-18T15:42:02.278Z</time></trkpt><trkpt lat="40.098593" lon="9.5620292"><ele>728.6666666666667</ele><time>2026-04-18T15:42:03.277Z</time></trkpt><trkpt lat="40.098544" lon="9.5618001"><ele>727.3333333333334</ele><time>2026-04-18T15:42:04.279Z</time></trkpt><trkpt lat="40.0984913" lon="9.561603"><ele>726.0</ele><time>2026-04-18T15:42:05.279Z</time></trkpt><trkpt lat="40.0984373" lon="9.5614328"><ele>726.0</ele><time>2026-04-18T15:42:06.278Z</time></trkpt><trkpt lat="40.0983578" lon="9.5612893"><ele>726.0</ele><time>2026-04-18T15:42:07.278Z</time></trkpt><trkpt lat="40.0982348" lon="9.5611798"><ele>726.0</ele><time>2026-04-18T15:42:08.278Z</time></trkpt><trkpt lat="40.0980907" lon="9.5610796"><ele>726.0</ele><time>2026-04-18T15:42:09.278Z</time></trkpt><trkpt lat="40.0978968" lon="9.561058"><ele>725.0</ele><time>2026-04-18T15:42:10.278Z</time></trkpt><trkpt lat="40.0977521" lon="9.5610053"><ele>724.0</ele><time>2026-04-18T15:42:11.277Z</time></trkpt><trkpt lat="40.0976178" lon="9.560966"><ele>723.0</ele><time>2026-04-18T15:42:12.277Z</time></trkpt><trkpt lat="40.0975025" lon="9.5609071"><ele>722.0</ele><time>2026-04-18T15:42:13.278Z</time></trkpt><trkpt lat="40.097404" lon="9.5607984"><ele>722.0</ele><time>2026-04-18T15:42:14.278Z</time></trkpt><trkpt lat="40.0973488" lon="9.5606462"><ele>722.0</ele><time>2026-04-18T15:42:15.278Z</time></trkpt><trkpt lat="40.0973311" lon="9.5604597"><ele>722.0</ele><time>2026-04-18T15:42:16.277Z</time></trkpt><trkpt lat="40.0973518" lon="9.5602675"><ele>722.0</ele><time>2026-04-18T15:42:17.277Z</time></trkpt><trkpt lat="40.0973651" lon="9.5600894"><ele>721.6666666666666</ele><time>2026-04-18T15:42:18.277Z</time></trkpt><trkpt lat="40.0973537" lon="9.5598853"><ele>721.3333333333334</ele><time>2026-04-18T15:42:19.278Z</time></trkpt><trkpt lat="40.0972961" lon="9.5596588"><ele>721.0</ele><time>2026-04-18T15:42:20.279Z</time></trkpt><trkpt lat="40.0972032" lon="9.5594226"><ele>719.0</ele><time>2026-04-18T15:42:21.278Z</time></trkpt><trkpt lat="40.0971164" lon="9.5592142"><ele>717.0</ele><time>2026-04-18T15:42:22.277Z</time></trkpt><trkpt lat="40.0970441" lon="9.5590324"><ele>715.0</ele><time>2026-04-18T15:42:23.278Z</time></trkpt><trkpt lat="40.096999" lon="9.5588567"><ele>714.3333333333334</ele><time>2026-04-18T15:42:24.278Z</time></trkpt><trkpt lat="40.0970005" lon="9.5586572"><ele>713.6666666666666</ele><time>2026-04-18T15:42:25.278Z</time></trkpt><trkpt lat="40.0970526" lon="9.558439"><ele>713.0</ele><time>2026-04-18T15:42:26.279Z</time></trkpt><trkpt lat="40.097128" lon="9.5582251"><ele>713.0</ele><time>2026-04-18T15:42:27.278Z</time></trkpt><trkpt lat="40.0971973" lon="9.5580262"><ele>713.0</ele><time>2026-04-18T15:42:28.277Z</time></trkpt><trkpt lat="40.0972668" lon="9.5578125"><ele>713.0</ele><time>2026-04-18T15:42:29.277Z</time></trkpt><trkpt lat="40.097325" lon="9.5576001"><ele>714.3333333333333</ele><time>2026-04-18T15:42:30.279Z</time></trkpt><trkpt lat="40.0973583" lon="9.5573605"><ele>715.6666666666666</ele><time>2026-04-18T15:42:31.278Z</time></trkpt><trkpt lat="40.0973916" lon="9.5571175"><ele>717.0</ele><time>2026-04-18T15:42:32.278Z</time></trkpt><trkpt lat="40.0973487" lon="9.5568507"><ele>717.3333333333334</ele><time>2026-04-18T15:42:33.277Z</time></trkpt><trkpt lat="40.0973291" lon="9.5565997"><ele>717.6666666666667</ele><time>2026-04-18T15:42:34.278Z</time></trkpt><trkpt lat="40.0973133" lon="9.5563531"><ele>718.0</ele><time>2026-04-18T15:42:35.279Z</time></trkpt><trkpt lat="40.097297" lon="9.5561043"><ele>716.3333333333334</ele><time>2026-04-18T15:42:36.279Z</time></trkpt><trkpt lat="40.097278" lon="9.555869"><ele>714.6666666666666</ele><time>2026-04-18T15:42:37.277Z</time></trkpt><trkpt lat="40.0972594" lon="9.5556421"><ele>713.0</ele><time>2026-04-18T15:42:38.278Z</time></trkpt><trkpt lat="40.0972275" lon="9.5554274"><ele>711.3333333333333</ele><time>2026-04-18T15:42:39.277Z</time></trkpt><trkpt lat="40.0971743" lon="9.5552099"><ele>709.6666666666666</ele><time>2026-04-18T15:42:40.277Z</time></trkpt><trkpt lat="40.0970887" lon="9.5549855"><ele>708.0</ele><time>2026-04-18T15:42:41.278Z</time></trkpt><trkpt lat="40.0969772" lon="9.5547663"><ele>708.0</ele><time>2026-04-18T15:42:42.277Z</time></trkpt><trkpt lat="40.0968555" lon="9.5545627"><ele>708.0</ele><time>2026-04-18T15:42:43.277Z</time></trkpt><trkpt lat="40.0967397" lon="9.5543647"><ele>708.0</ele><time>2026-04-18T15:42:44.278Z</time></trkpt><trkpt lat="40.096629" lon="9.5541746"><ele>707.6666666666666</ele><time>2026-04-18T15:42:45.277Z</time></trkpt><trkpt lat="40.096526" lon="9.5539905"><ele>707.3333333333333</ele><time>2026-04-18T15:42:46.278Z</time></trkpt><trkpt lat="40.0964312" lon="9.5538197"><ele>707.0</ele><time>2026-04-18T15:42:47.278Z</time></trkpt><trkpt lat="40.096337" lon="9.5536718"><ele>704.0</ele><time>2026-04-18T15:42:48.279Z</time></trkpt><trkpt lat="40.0962183" lon="9.5535476"><ele>701.0</ele><time>2026-04-18T15:42:49.278Z</time></trkpt><trkpt lat="40.0960636" lon="9.5534654"><ele>698.0</ele><time>2026-04-18T15:42:50.278Z</time></trkpt><trkpt lat="40.0959099" lon="9.5534107"><ele>698.0</ele><time>2026-04-18T15:42:51.278Z</time></trkpt><trkpt lat="40.095763" lon="9.5533705"><ele>698.0</ele><time>2026-04-18T15:42:52.278Z</time></trkpt><trkpt lat="40.0956298" lon="9.5533275"><ele>698.0</ele><time>2026-04-18T15:42:53.278Z</time></trkpt><trkpt lat="40.0955099" lon="9.5532683"><ele>698.0</ele><time>2026-04-18T15:42:54.278Z</time></trkpt><trkpt lat="40.0954153" lon="9.5531591"><ele>698.5</ele><time>2026-04-18T15:42:55.278Z</time></trkpt><trkpt lat="40.0953524" lon="9.5530129"><ele>699.0</ele><time>2026-04-18T15:42:56.278Z</time></trkpt><trkpt lat="40.0953328" lon="9.5528267"><ele>699.5</ele><time>2026-04-18T15:42:57.278Z</time></trkpt><trkpt lat="40.0953384" lon="9.5526076"><ele>700.0</ele><time>2026-04-18T15:42:58.278Z</time></trkpt><trkpt lat="40.0953582" lon="9.5523816"><ele>697.6666666666667</ele><time>2026-04-18T15:42:59.278Z</time></trkpt><trkpt lat="40.0953733" lon="9.5521496"><ele>695.3333333333334</ele><time>2026-04-18T15:43:00.279Z</time></trkpt><trkpt lat="40.095382" lon="9.55191"><ele>693.0</ele><time>2026-04-18T15:43:01.277Z</time></trkpt><trkpt lat="40.0953965" lon="9.5516838"><ele>692.6666666666666</ele><time>2026-04-18T15:43:02.279Z</time></trkpt><trkpt lat="40.0954094" lon="9.5514661"><ele>692.3333333333333</ele><time>2026-04-18T15:43:03.279Z</time></trkpt><trkpt lat="40.0954216" lon="9.5512603"><ele>692.0</ele><time>2026-04-18T15:43:04.278Z</time></trkpt><trkpt lat="40.0954392" lon="9.5510768"><ele>692.0</ele><time>2026-04-18T15:43:05.279Z</time></trkpt><trkpt lat="40.0954794" lon="9.5509074"><ele>692.0</ele><time>2026-04-18T15:43:06.278Z</time></trkpt><trkpt lat="40.0955597" lon="9.5507758"><ele>692.0</ele><time>2026-04-18T15:43:07.278Z</time></trkpt><trkpt lat="40.0956751" lon="9.5506969"><ele>692.0</ele><time>2026-04-18T15:43:08.277Z</time></trkpt><trkpt lat="40.0958255" lon="9.5506679"><ele>692.0</ele><time>2026-04-18T15:43:09.278Z</time></trkpt><trkpt lat="40.0959841" lon="9.5506533"><ele>692.0</ele><time>2026-04-18T15:43:10.278Z</time></trkpt><trkpt lat="40.0961287" lon="9.550633"><ele>692.0</ele><time>2026-04-18T15:43:11.279Z</time></trkpt><trkpt lat="40.0962659" lon="9.5506114"><ele>692.0</ele><time>2026-04-18T15:43:12.278Z</time></trkpt><trkpt lat="40.0963945" lon="9.550572"><ele>692.0</ele><time>2026-04-18T15:43:13.278Z</time></trkpt><trkpt lat="40.096483" lon="9.5503845"><ele>692.0</ele><time>2026-04-18T15:43:14.278Z</time></trkpt><trkpt lat="40.0965678" lon="9.5502206"><ele>692.0</ele><time>2026-04-18T15:43:15.278Z</time></trkpt><trkpt lat="40.0965966" lon="9.5498844"><ele>692.6666666666666</ele><time>2026-04-18T15:43:16.277Z</time></trkpt><trkpt lat="40.0966706" lon="9.5496367"><ele>693.3333333333334</ele><time>2026-04-18T15:43:17.279Z</time></trkpt><trkpt lat="40.0967343" lon="9.5493793"><ele>694.0</ele><time>2026-04-18T15:43:18.277Z</time></trkpt><trkpt lat="40.096805" lon="9.5491285"><ele>695.6666666666667</ele><time>2026-04-18T15:43:19.279Z</time></trkpt><trkpt lat="40.096873" lon="9.5488929"><ele>697.3333333333334</ele><time>2026-04-18T15:43:20.277Z</time></trkpt><trkpt lat="40.0969399" lon="9.5486462"><ele>699.0</ele><time>2026-04-18T15:43:21.278Z</time></trkpt><trkpt lat="40.0969938" lon="9.5483887"><ele>701.6666666666666</ele><time>2026-04-18T15:43:22.277Z</time></trkpt><trkpt lat="40.0970312" lon="9.5481325"><ele>704.3333333333333</ele><time>2026-04-18T15:43:23.277Z</time></trkpt><trkpt lat="40.0970595" lon="9.5478789"><ele>707.0</ele><time>2026-04-18T15:43:24.278Z</time></trkpt><trkpt lat="40.0970865" lon="9.5476229"><ele>708.3333333333333</ele><time>2026-04-18T15:43:25.279Z</time></trkpt><trkpt lat="40.0971128" lon="9.5473738"><ele>709.6666666666666</ele><time>2026-04-18T15:43:26.278Z</time></trkpt><trkpt lat="40.0971377" lon="9.5471225"><ele>711.0</ele><time>2026-04-18T15:43:27.278Z</time></trkpt><trkpt lat="40.097159" lon="9.5468729"><ele>711.6666666666666</ele><time>2026-04-18T15:43:28.278Z</time></trkpt><trkpt lat="40.097185" lon="9.5466232"><ele>712.3333333333333</ele><time>2026-04-18T15:43:29.278Z</time></trkpt><trkpt lat="40.0972085" lon="9.5463777"><ele>713.0</ele><time>2026-04-18T15:43:30.278Z</time></trkpt><trkpt lat="40.0972353" lon="9.5461373"><ele>715.0</ele><time>2026-04-18T15:43:31.279Z</time></trkpt><trkpt lat="40.0972578" lon="9.545913"><ele>717.0</ele><time>2026-04-18T15:43:32.277Z</time></trkpt><trkpt lat="40.0972765" lon="9.5457061"><ele>719.0</ele><time>2026-04-18T15:43:33.277Z</time></trkpt><trkpt lat="40.0972857" lon="9.5455256"><ele>718.5</ele><time>2026-04-18T15:43:34.278Z</time></trkpt><trkpt lat="40.0972495" lon="9.5453482"><ele>718.0</ele><time>2026-04-18T15:43:35.277Z</time></trkpt><trkpt lat="40.0971753" lon="9.5451888"><ele>717.5</ele><time>2026-04-18T15:43:36.278Z</time></trkpt><trkpt lat="40.0970796" lon="9.5450677"><ele>717.0</ele><time>2026-04-18T15:43:37.279Z</time></trkpt><trkpt lat="40.0969832" lon="9.5449567"><ele>717.0</ele><time>2026-04-18T15:43:38.277Z</time></trkpt><trkpt lat="40.0969057" lon="9.544851"><ele>717.0</ele><time>2026-04-18T15:43:39.278Z</time></trkpt><trkpt lat="40.0968593" lon="9.5447223"><ele>717.0</ele><time>2026-04-18T15:43:40.278Z</time></trkpt><trkpt lat="40.0968496" lon="9.5445594"><ele>717.0</ele><time>2026-04-18T15:43:41.278Z</time></trkpt><trkpt lat="40.0968812" lon="9.5443801"><ele>718.0</ele><time>2026-04-18T15:43:42.278Z</time></trkpt><trkpt lat="40.09693" lon="9.5441874"><ele>719.0</ele><time>2026-04-18T15:43:43.278Z</time></trkpt><trkpt lat="40.0969705" lon="9.543963"><ele>720.0</ele><time>2026-04-18T15:43:44.278Z</time></trkpt><trkpt lat="40.0969981" lon="9.5437034"><ele>722.3333333333334</ele><time>2026-04-18T15:43:45.278Z</time></trkpt><trkpt lat="40.0970007" lon="9.5434471"><ele>724.6666666666667</ele><time>2026-04-18T15:43:46.279Z</time></trkpt><trkpt lat="40.0969956" lon="9.5431854"><ele>727.0</ele><time>2026-04-18T15:43:47.278Z</time></trkpt><trkpt lat="40.0969889" lon="9.5429324"><ele>727.0</ele><time>2026-04-18T15:43:48.278Z</time></trkpt><trkpt lat="40.0969786" lon="9.5426797"><ele>727.0</ele><time>2026-04-18T15:43:49.277Z</time></trkpt><trkpt lat="40.0969707" lon="9.542431"><ele>727.0</ele><time>2026-04-18T15:43:50.277Z</time></trkpt><trkpt lat="40.0969627" lon="9.5421987"><ele>726.6666666666667</ele><time>2026-04-18T15:43:51.278Z</time></trkpt><trkpt lat="40.0969504" lon="9.5419775"><ele>726.3333333333334</ele><time>2026-04-18T15:43:52.278Z</time></trkpt><trkpt lat="40.0969528" lon="9.541758"><ele>726.0</ele><time>2026-04-18T15:43:53.278Z</time></trkpt><trkpt lat="40.0969896" lon="9.5415445"><ele>726.0</ele><time>2026-04-18T15:43:54.278Z</time></trkpt><trkpt lat="40.0970497" lon="9.5413326"><ele>726.0</ele><time>2026-04-18T15:43:55.278Z</time></trkpt><trkpt lat="40.0971028" lon="9.54113"><ele>726.0</ele><time>2026-04-18T15:43:56.278Z</time></trkpt><trkpt lat="40.0971527" lon="9.5409344"><ele>725.3333333333334</ele><time>2026-04-18T15:43:57.277Z</time></trkpt><trkpt lat="40.0971841" lon="9.5407313"><ele>724.6666666666667</ele><time>2026-04-18T15:43:58.277Z</time></trkpt><trkpt lat="40.0972053" lon="9.5405249"><ele>724.0</ele><time>2026-04-18T15:43:59.278Z</time></trkpt><trkpt lat="40.0972218" lon="9.540335"><ele>723.75</ele><time>2026-04-18T15:44:00.278Z</time></trkpt><trkpt lat="40.0972206" lon="9.5401542"><ele>723.5</ele><time>2026-04-18T15:44:01.277Z</time></trkpt><trkpt lat="40.097186" lon="9.5399738"><ele>723.25</ele><time>2026-04-18T15:44:02.278Z</time></trkpt><trkpt lat="40.0971254" lon="9.5398039"><ele>723.0</ele><time>2026-04-18T15:44:03.278Z</time></trkpt><trkpt lat="40.0970347" lon="9.5396543"><ele>723.0</ele><time>2026-04-18T15:44:04.278Z</time></trkpt><trkpt lat="40.0969165" lon="9.5395538"><ele>723.0</ele><time>2026-04-18T15:44:05.278Z</time></trkpt><trkpt lat="40.0967794" lon="9.5395211"><ele>723.0</ele><time>2026-04-18T15:44:06.278Z</time></trkpt><trkpt lat="40.0966321" lon="9.5395306"><ele>723.0</ele><time>2026-04-18T15:44:07.278Z</time></trkpt><trkpt lat="40.0964845" lon="9.5395661"><ele>722.25</ele><time>2026-04-18T15:44:08.279Z</time></trkpt><trkpt lat="40.0963429" lon="9.539604"><ele>721.5</ele><time>2026-04-18T15:44:09.278Z</time></trkpt><trkpt lat="40.0962091" lon="9.5396244"><ele>720.75</ele><time>2026-04-18T15:44:10.277Z</time></trkpt><trkpt lat="40.0960849" lon="9.5396048"><ele>720.0</ele><time>2026-04-18T15:44:11.278Z</time></trkpt><trkpt lat="40.0959648" lon="9.5395613"><ele>719.75</ele><time>2026-04-18T15:44:12.278Z</time></trkpt><trkpt lat="40.0958708" lon="9.5394393"><ele>719.5</ele><time>2026-04-18T15:44:13.278Z</time></trkpt><trkpt lat="40.0957691" lon="9.5393112"><ele>719.25</ele><time>2026-04-18T15:44:14.278Z</time></trkpt><trkpt lat="40.0956739" lon="9.5391894"><ele>719.0</ele><time>2026-04-18T15:44:15.278Z</time></trkpt><trkpt lat="40.0955845" lon="9.539068"><ele>719.5</ele><time>2026-04-18T15:44:16.279Z</time></trkpt><trkpt lat="40.0954903" lon="9.538955"><ele>720.0</ele><time>2026-04-18T15:44:17.278Z</time></trkpt><trkpt lat="40.0953929" lon="9.5388349"><ele>720.5</ele><time>2026-04-18T15:44:18.278Z</time></trkpt><trkpt lat="40.0952947" lon="9.538705"><ele>721.0</ele><time>2026-04-18T15:44:19.278Z</time></trkpt><trkpt lat="40.0951904" lon="9.5385751"><ele>721.3333333333334</ele><time>2026-04-18T15:44:20.278Z</time></trkpt><trkpt lat="40.0950873" lon="9.5384412"><ele>721.6666666666666</ele><time>2026-04-18T15:44:21.278Z</time></trkpt><trkpt lat="40.0949735" lon="9.5382973"><ele>722.0</ele><time>2026-04-18T15:44:22.278Z</time></trkpt><trkpt lat="40.0948685" lon="9.5381528"><ele>722.0</ele><time>2026-04-18T15:44:23.278Z</time></trkpt><trkpt lat="40.0947826" lon="9.5380069"><ele>722.0</ele><time>2026-04-18T15:44:24.278Z</time></trkpt><trkpt lat="40.0947127" lon="9.5378543"><ele>722.0</ele><time>2026-04-18T15:44:25.279Z</time></trkpt><trkpt lat="40.0946633" lon="9.5376806"><ele>722.0</ele><time>2026-04-18T15:44:26.279Z</time></trkpt><trkpt lat="40.0946255" lon="9.5374872"><ele>721.6666666666666</ele><time>2026-04-18T15:44:27.278Z</time></trkpt><trkpt lat="40.094602" lon="9.5372791"><ele>721.3333333333334</ele><time>2026-04-18T15:44:28.278Z</time></trkpt><trkpt lat="40.0946065" lon="9.5370539"><ele>721.0</ele><time>2026-04-18T15:44:29.277Z</time></trkpt><trkpt lat="40.0946359" lon="9.5368256"><ele>721.0</ele><time>2026-04-18T15:44:30.278Z</time></trkpt><trkpt lat="40.0946875" lon="9.5365995"><ele>721.0</ele><time>2026-04-18T15:44:31.277Z</time></trkpt><trkpt lat="40.0947453" lon="9.5363687"><ele>721.0</ele><time>2026-04-18T15:44:32.278Z</time></trkpt><trkpt lat="40.0948018" lon="9.5361403"><ele>721.0</ele><time>2026-04-18T15:44:33.277Z</time></trkpt><trkpt lat="40.0948584" lon="9.5359101"><ele>721.0</ele><time>2026-04-18T15:44:34.277Z</time></trkpt><trkpt lat="40.0949171" lon="9.5356851"><ele>721.0</ele><time>2026-04-18T15:44:35.278Z</time></trkpt><trkpt lat="40.094972" lon="9.5354661"><ele>721.6666666666667</ele><time>2026-04-18T15:44:36.277Z</time></trkpt><trkpt lat="40.0950237" lon="9.535246"><ele>722.3333333333334</ele><time>2026-04-18T15:44:37.277Z</time></trkpt><trkpt lat="40.0950684" lon="9.5350354"><ele>723.0</ele><time>2026-04-18T15:44:38.278Z</time></trkpt><trkpt lat="40.0951153" lon="9.534834"><ele>723.0</ele><time>2026-04-18T15:44:39.278Z</time></trkpt><trkpt lat="40.0951774" lon="9.5346446"><ele>723.0</ele><time>2026-04-18T15:44:40.278Z</time></trkpt><trkpt lat="40.0952787" lon="9.5344738"><ele>723.0</ele><time>2026-04-18T15:44:41.278Z</time></trkpt><trkpt lat="40.0954117" lon="9.5343338"><ele>723.75</ele><time>2026-04-18T15:44:42.278Z</time></trkpt><trkpt lat="40.0955476" lon="9.5342249"><ele>724.5</ele><time>2026-04-18T15:44:43.279Z</time></trkpt><trkpt lat="40.0956726" lon="9.5341258"><ele>725.25</ele><time>2026-04-18T15:44:44.277Z</time></trkpt><trkpt lat="40.0957896" lon="9.5340348"><ele>726.0</ele><time>2026-04-18T15:44:45.278Z</time></trkpt><trkpt lat="40.0959019" lon="9.5339494"><ele>726.0</ele><time>2026-04-18T15:44:46.278Z</time></trkpt><trkpt lat="40.0960037" lon="9.5338529"><ele>726.0</ele><time>2026-04-18T15:44:47.278Z</time></trkpt><trkpt lat="40.0960924" lon="9.5337344"><ele>726.0</ele><time>2026-04-18T15:44:48.279Z</time></trkpt><trkpt lat="40.0961574" lon="9.533598"><ele>726.0</ele><time>2026-04-18T15:44:49.278Z</time></trkpt><trkpt lat="40.0962003" lon="9.5334339"><ele>726.3333333333334</ele><time>2026-04-18T15:44:50.279Z</time></trkpt><trkpt lat="40.0962136" lon="9.5332353"><ele>726.6666666666667</ele><time>2026-04-18T15:44:51.278Z</time></trkpt><trkpt lat="40.0962071" lon="9.5329958"><ele>727.0</ele><time>2026-04-18T15:44:52.277Z</time></trkpt><trkpt lat="40.0962079" lon="9.5327266"><ele>725.5</ele><time>2026-04-18T15:44:53.277Z</time></trkpt><trkpt lat="40.0962206" lon="9.5324317"><ele>724.0</ele><time>2026-04-18T15:44:54.278Z</time></trkpt><trkpt lat="40.0962321" lon="9.5321238"><ele>724.3333333333334</ele><time>2026-04-18T15:44:55.278Z</time></trkpt><trkpt lat="40.096231" lon="9.5318321"><ele>724.6666666666666</ele><time>2026-04-18T15:44:56.278Z</time></trkpt><trkpt lat="40.0962334" lon="9.5315544"><ele>725.0</ele><time>2026-04-18T15:44:57.278Z</time></trkpt><trkpt lat="40.0962395" lon="9.5312962"><ele>725.0</ele><time>2026-04-18T15:44:58.278Z</time></trkpt><trkpt lat="40.0962439" lon="9.5310711"><ele>725.0</ele><time>2026-04-18T15:44:59.277Z</time></trkpt><trkpt lat="40.0962628" lon="9.5308662"><ele>725.0</ele><time>2026-04-18T15:45:00.278Z</time></trkpt><trkpt lat="40.0963061" lon="9.5306851"><ele>725.0</ele><time>2026-04-18T15:45:01.278Z</time></trkpt><trkpt lat="40.0963886" lon="9.5305022"><ele>725.0</ele><time>2026-04-18T15:45:02.278Z</time></trkpt><trkpt lat="40.0965081" lon="9.5303503"><ele>725.0</ele><time>2026-04-18T15:45:03.278Z</time></trkpt><trkpt lat="40.0966488" lon="9.5302584"><ele>727.3333333333333</ele><time>2026-04-18T15:45:04.278Z</time></trkpt><trkpt lat="40.0968169" lon="9.5302162"><ele>729.6666666666666</ele><time>2026-04-18T15:45:05.278Z</time></trkpt><trkpt lat="40.0969978" lon="9.5302055"><ele>732.0</ele><time>2026-04-18T15:45:06.277Z</time></trkpt><trkpt lat="40.0971961" lon="9.5302036"><ele>732.0</ele><time>2026-04-18T15:45:07.277Z</time></trkpt><trkpt lat="40.0973908" lon="9.5301988"><ele>732.0</ele><time>2026-04-18T15:45:08.278Z</time></trkpt><trkpt lat="40.0975892" lon="9.5301788"><ele>732.0</ele><time>2026-04-18T15:45:09.278Z</time></trkpt><trkpt lat="40.0978034" lon="9.5301442"><ele>734.3333333333334</ele><time>2026-04-18T15:45:10.278Z</time></trkpt><trkpt lat="40.0980187" lon="9.5300718"><ele>736.6666666666667</ele><time>2026-04-18T15:45:11.278Z</time></trkpt><trkpt lat="40.098214" lon="9.5299863"><ele>739.0</ele><time>2026-04-18T15:45:12.278Z</time></trkpt><trkpt lat="40.0983946" lon="9.5298976"><ele>739.3333333333334</ele><time>2026-04-18T15:45:13.278Z</time></trkpt><trkpt lat="40.098574" lon="9.5297901"><ele>739.6666666666666</ele><time>2026-04-18T15:45:14.278Z</time></trkpt><trkpt lat="40.0987606" lon="9.5296833"><ele>740.0</ele><time>2026-04-18T15:45:15.278Z</time></trkpt><trkpt lat="40.0989491" lon="9.5295796"><ele>741.3333333333333</ele><time>2026-04-18T15:45:16.278Z</time></trkpt><trkpt lat="40.0991275" lon="9.5294729"><ele>742.6666666666666</ele><time>2026-04-18T15:45:17.279Z</time></trkpt><trkpt lat="40.0993011" lon="9.5293683"><ele>744.0</ele><time>2026-04-18T15:45:18.278Z</time></trkpt><trkpt lat="40.0994668" lon="9.5292696"><ele>744.0</ele><time>2026-04-18T15:45:19.279Z</time></trkpt><trkpt lat="40.0996289" lon="9.5291715"><ele>744.0</ele><time>2026-04-18T15:45:20.278Z</time></trkpt><trkpt lat="40.0997984" lon="9.5290925"><ele>744.0</ele><time>2026-04-18T15:45:21.279Z</time></trkpt><trkpt lat="40.0999955" lon="9.5290526"><ele>747.6666666666666</ele><time>2026-04-18T15:45:22.278Z</time></trkpt><trkpt lat="40.100192" lon="9.5290057"><ele>751.3333333333333</ele><time>2026-04-18T15:45:23.278Z</time></trkpt><trkpt lat="40.1003901" lon="9.5289494"><ele>755.0</ele><time>2026-04-18T15:45:24.278Z</time></trkpt><trkpt lat="40.100589" lon="9.5288857"><ele>752.6666666666666</ele><time>2026-04-18T15:45:25.278Z</time></trkpt><trkpt lat="40.1007837" lon="9.5288167"><ele>750.3333333333334</ele><time>2026-04-18T15:45:26.277Z</time></trkpt><trkpt lat="40.1009763" lon="9.5287524"><ele>748.0</ele><time>2026-04-18T15:45:27.278Z</time></trkpt><trkpt lat="40.101153" lon="9.528692"><ele>748.0</ele><time>2026-04-18T15:45:28.278Z</time></trkpt><trkpt lat="40.1013232" lon="9.5286488"><ele>748.0</ele><time>2026-04-18T15:45:29.279Z</time></trkpt><trkpt lat="40.1014816" lon="9.5286342"><ele>748.0</ele><time>2026-04-18T15:45:30.278Z</time></trkpt><trkpt lat="40.1016185" lon="9.5286639"><ele>753.25</ele><time>2026-04-18T15:45:31.278Z</time></trkpt><trkpt lat="40.1017382" lon="9.5287381"><ele>758.5</ele><time>2026-04-18T15:45:32.279Z</time></trkpt><trkpt lat="40.1018115" lon="9.5288591"><ele>763.75</ele><time>2026-04-18T15:45:33.278Z</time></trkpt><trkpt lat="40.1018494" lon="9.5290229"><ele>769.0</ele><time>2026-04-18T15:45:34.278Z</time></trkpt><trkpt lat="40.1018568" lon="9.5292155"><ele>769.0</ele><time>2026-04-18T15:45:35.278Z</time></trkpt><trkpt lat="40.1018549" lon="9.5294082"><ele>769.0</ele><time>2026-04-18T15:45:36.277Z</time></trkpt><trkpt lat="40.1018731" lon="9.5295751"><ele>769.0</ele><time>2026-04-18T15:45:37.278Z</time></trkpt><trkpt lat="40.1019207" lon="9.5297357"><ele>769.0</ele><time>2026-04-18T15:45:38.279Z</time></trkpt><trkpt lat="40.1020064" lon="9.5298674"><ele>771.0</ele><time>2026-04-18T15:45:39.279Z</time></trkpt><trkpt lat="40.1021065" lon="9.5299929"><ele>773.0</ele><time>2026-04-18T15:45:40.278Z</time></trkpt><trkpt lat="40.1022399" lon="9.5300733"><ele>775.0</ele><time>2026-04-18T15:45:41.278Z</time></trkpt><trkpt lat="40.1024698" lon="9.5300769"><ele>775.6666666666666</ele><time>2026-04-18T15:45:42.278Z</time></trkpt><trkpt lat="40.1026758" lon="9.5301385"><ele>776.3333333333333</ele><time>2026-04-18T15:45:43.277Z</time></trkpt><trkpt lat="40.1028969" lon="9.5301926"><ele>777.0</ele><time>2026-04-18T15:45:44.278Z</time></trkpt><trkpt lat="40.1030933" lon="9.5302419"><ele>778.6666666666667</ele><time>2026-04-18T15:45:45.278Z</time></trkpt><trkpt lat="40.1032721" lon="9.5302815"><ele>780.3333333333334</ele><time>2026-04-18T15:45:46.278Z</time></trkpt><trkpt lat="40.1034169" lon="9.530311"><ele>782.0</ele><time>2026-04-18T15:45:47.277Z</time></trkpt><trkpt lat="40.1035539" lon="9.530318"><ele>782.0</ele><time>2026-04-18T15:45:48.278Z</time></trkpt><trkpt lat="40.1036671" lon="9.5302747"><ele>782.0</ele><time>2026-04-18T15:45:49.278Z</time></trkpt><trkpt lat="40.1037677" lon="9.5301884"><ele>782.0</ele><time>2026-04-18T15:45:50.278Z</time></trkpt><trkpt lat="40.1038419" lon="9.5300577"><ele>782.0</ele><time>2026-04-18T15:45:51.279Z</time></trkpt><trkpt lat="40.1038864" lon="9.5298983"><ele>782.0</ele><time>2026-04-18T15:45:52.278Z</time></trkpt><trkpt lat="40.1039143" lon="9.5297455"><ele>782.0</ele><time>2026-04-18T15:45:53.278Z</time></trkpt><trkpt lat="40.1039492" lon="9.5296198"><ele>782.0</ele><time>2026-04-18T15:45:54.277Z</time></trkpt><trkpt lat="40.1040076" lon="9.5295215"><ele>782.0</ele><time>2026-04-18T15:45:55.278Z</time></trkpt><trkpt lat="40.1040898" lon="9.5294657"><ele>782.0</ele><time>2026-04-18T15:45:56.278Z</time></trkpt><trkpt lat="40.1041833" lon="9.5294848"><ele>783.8</ele><time>2026-04-18T15:45:57.279Z</time></trkpt><trkpt lat="40.1042588" lon="9.5295585"><ele>785.6</ele><time>2026-04-18T15:45:58.277Z</time></trkpt><trkpt lat="40.1042986" lon="9.5296792"><ele>787.4</ele><time>2026-04-18T15:45:59.277Z</time></trkpt><trkpt lat="40.1042931" lon="9.5298355"><ele>789.1999999999999</ele><time>2026-04-18T15:46:00.279Z</time></trkpt><trkpt lat="40.1042682" lon="9.5300075"><ele>791.0</ele><time>2026-04-18T15:46:01.279Z</time></trkpt><trkpt lat="40.1042644" lon="9.5301844"><ele>791.0</ele><time>2026-04-18T15:46:02.278Z</time></trkpt><trkpt lat="40.1042934" lon="9.5303544"><ele>791.0</ele><time>2026-04-18T15:46:03.278Z</time></trkpt><trkpt lat="40.1043256" lon="9.5305159"><ele>791.0</ele><time>2026-04-18T15:46:04.278Z</time></trkpt><trkpt lat="40.1044227" lon="9.5305674"><ele>791.0</ele><time>2026-04-18T15:46:05.278Z</time></trkpt><trkpt lat="40.104535" lon="9.5305878"><ele>791.0</ele><time>2026-04-18T15:46:06.278Z</time></trkpt><trkpt lat="40.104613" lon="9.5305968"><ele>791.0</ele><time>2026-04-18T15:46:07.277Z</time></trkpt><trkpt lat="40.1047307" lon="9.5305624"><ele>791.0</ele><time>2026-04-18T15:46:08.277Z</time></trkpt><trkpt lat="40.1048208" lon="9.530487"><ele>791.0</ele><time>2026-04-18T15:46:09.279Z</time></trkpt><trkpt lat="40.1048571" lon="9.5303207"><ele>791.0</ele><time>2026-04-18T15:46:10.278Z</time></trkpt><trkpt lat="40.1048395" lon="9.5300843"><ele>791.0</ele><time>2026-04-18T15:46:11.279Z</time></trkpt><trkpt lat="40.104813" lon="9.5298472"><ele>791.0</ele><time>2026-04-18T15:46:12.278Z</time></trkpt><trkpt lat="40.104674" lon="9.5295017"><ele>791.6666666666667</ele><time>2026-04-18T15:46:13.278Z</time></trkpt><trkpt lat="40.1046166" lon="9.5292475"><ele>792.3333333333333</ele><time>2026-04-18T15:46:14.278Z</time></trkpt><trkpt lat="40.1045576" lon="9.5290121"><ele>793.0</ele><time>2026-04-18T15:46:15.278Z</time></trkpt><trkpt lat="40.1045059" lon="9.528806"><ele>793.6666666666666</ele><time>2026-04-18T15:46:16.279Z</time></trkpt><trkpt lat="40.1044768" lon="9.5286098"><ele>794.3333333333333</ele><time>2026-04-18T15:46:17.277Z</time></trkpt><trkpt lat="40.1044848" lon="9.5284124"><ele>795.0</ele><time>2026-04-18T15:46:18.278Z</time></trkpt><trkpt lat="40.1045154" lon="9.528215"><ele>795.0</ele><time>2026-04-18T15:46:19.278Z</time></trkpt><trkpt lat="40.1045681" lon="9.5280015"><ele>795.0</ele><time>2026-04-18T15:46:20.278Z</time></trkpt><trkpt lat="40.1046343" lon="9.5277953"><ele>795.0</ele><time>2026-04-18T15:46:21.278Z</time></trkpt><trkpt lat="40.1047281" lon="9.5276118"><ele>793.3333333333333</ele><time>2026-04-18T15:46:22.278Z</time></trkpt><trkpt lat="40.1048585" lon="9.5274533"><ele>791.6666666666666</ele><time>2026-04-18T15:46:23.278Z</time></trkpt><trkpt lat="40.1049992" lon="9.5273041"><ele>790.0</ele><time>2026-04-18T15:46:24.279Z</time></trkpt><trkpt lat="40.1051604" lon="9.5271789"><ele>793.0</ele><time>2026-04-18T15:46:25.277Z</time></trkpt><trkpt lat="40.1053371" lon="9.5270806"><ele>796.0</ele><time>2026-04-18T15:46:26.277Z</time></trkpt><trkpt lat="40.1055202" lon="9.5270196"><ele>799.0</ele><time>2026-04-18T15:46:27.279Z</time></trkpt><trkpt lat="40.105697" lon="9.5269811"><ele>805.0</ele><time>2026-04-18T15:46:28.278Z</time></trkpt><trkpt lat="40.10586" lon="9.526945"><ele>811.0</ele><time>2026-04-18T15:46:29.277Z</time></trkpt><trkpt lat="40.1060109" lon="9.5268994"><ele>817.0</ele><time>2026-04-18T15:46:30.278Z</time></trkpt><trkpt lat="40.1061604" lon="9.5268193"><ele>817.0</ele><time>2026-04-18T15:46:31.279Z</time></trkpt><trkpt lat="40.1062985" lon="9.5266907"><ele>817.0</ele><time>2026-04-18T15:46:32.279Z</time></trkpt><trkpt lat="40.1063998" lon="9.5265258"><ele>817.0</ele><time>2026-04-18T15:46:33.278Z</time></trkpt><trkpt lat="40.1064686" lon="9.5263421"><ele>815.3333333333333</ele><time>2026-04-18T15:46:34.279Z</time></trkpt><trkpt lat="40.1065029" lon="9.5261425"><ele>813.6666666666667</ele><time>2026-04-18T15:46:35.279Z</time></trkpt><trkpt lat="40.1065039" lon="9.525926"><ele>812.0</ele><time>2026-04-18T15:46:36.278Z</time></trkpt><trkpt lat="40.1064694" lon="9.525705"><ele>812.0</ele><time>2026-04-18T15:46:37.278Z</time></trkpt><trkpt lat="40.1063941" lon="9.5254873"><ele>812.0</ele><time>2026-04-18T15:46:38.279Z</time></trkpt><trkpt lat="40.1063" lon="9.5252925"><ele>812.0</ele><time>2026-04-18T15:46:39.278Z</time></trkpt><trkpt lat="40.1061993" lon="9.5251288"><ele>818.3333333333334</ele><time>2026-04-18T15:46:40.278Z</time></trkpt><trkpt lat="40.1060743" lon="9.5250098"><ele>824.6666666666667</ele><time>2026-04-18T15:46:41.277Z</time></trkpt><trkpt lat="40.105937" lon="9.5249085"><ele>831.0</ele><time>2026-04-18T15:46:42.277Z</time></trkpt><trkpt lat="40.1057198" lon="9.5249142"><ele>831.0</ele><time>2026-04-18T15:46:43.279Z</time></trkpt><trkpt lat="40.1055262" lon="9.5248827"><ele>831.0</ele><time>2026-04-18T15:46:44.278Z</time></trkpt><trkpt lat="40.105343" lon="9.5248656"><ele>831.0</ele><time>2026-04-18T15:46:45.278Z</time></trkpt><trkpt lat="40.105186" lon="9.5248494"><ele>831.0</ele><time>2026-04-18T15:46:46.279Z</time></trkpt><trkpt lat="40.1050565" lon="9.5248158"><ele>831.0</ele><time>2026-04-18T15:46:47.279Z</time></trkpt><trkpt lat="40.1049486" lon="9.5247474"><ele>831.0</ele><time>2026-04-18T15:46:48.278Z</time></trkpt><trkpt lat="40.1048792" lon="9.5246342"><ele>831.0</ele><time>2026-04-18T15:46:49.279Z</time></trkpt><trkpt lat="40.1048463" lon="9.524486"><ele>833.0</ele><time>2026-04-18T15:46:50.278Z</time></trkpt><trkpt lat="40.1048545" lon="9.5243178"><ele>835.0</ele><time>2026-04-18T15:46:51.279Z</time></trkpt><trkpt lat="40.1048971" lon="9.5241389"><ele>837.0</ele><time>2026-04-18T15:46:52.278Z</time></trkpt><trkpt lat="40.1049751" lon="9.5239563"><ele>839.0</ele><time>2026-04-18T15:46:53.278Z</time></trkpt><trkpt lat="40.1050991" lon="9.5238027"><ele>834.0</ele><time>2026-04-18T15:46:54.278Z</time></trkpt><trkpt lat="40.1052666" lon="9.5236523"><ele>829.0</ele><time>2026-04-18T15:46:55.278Z</time></trkpt><trkpt lat="40.1054495" lon="9.5235141"><ele>824.0</ele><time>2026-04-18T15:46:56.277Z</time></trkpt><trkpt lat="40.1056295" lon="9.5233727"><ele>826.0</ele><time>2026-04-18T15:46:57.277Z</time></trkpt><trkpt lat="40.1058006" lon="9.5232151"><ele>828.0</ele><time>2026-04-18T15:46:58.278Z</time></trkpt><trkpt lat="40.1059632" lon="9.5230415"><ele>830.0</ele><time>2026-04-18T15:46:59.279Z</time></trkpt><trkpt lat="40.106101" lon="9.5228616"><ele>830.0</ele><time>2026-04-18T15:47:00.278Z</time></trkpt><trkpt lat="40.1062276" lon="9.5226608"><ele>830.0</ele><time>2026-04-18T15:47:01.277Z</time></trkpt><trkpt lat="40.1063352" lon="9.5224424"><ele>830.0</ele><time>2026-04-18T15:47:02.277Z</time></trkpt><trkpt lat="40.1064248" lon="9.5222277"><ele>823.0</ele><time>2026-04-18T15:47:03.278Z</time></trkpt><trkpt lat="40.1065187" lon="9.522021"><ele>816.0</ele><time>2026-04-18T15:47:04.278Z</time></trkpt><trkpt lat="40.1066435" lon="9.5218095"><ele>809.0</ele><time>2026-04-18T15:47:05.278Z</time></trkpt><trkpt lat="40.1067836" lon="9.5216189"><ele>814.0</ele><time>2026-04-18T15:47:06.278Z</time></trkpt><trkpt lat="40.1069183" lon="9.5214392"><ele>819.0</ele><time>2026-04-18T15:47:07.278Z</time></trkpt><trkpt lat="40.1070446" lon="9.5212659"><ele>824.0</ele><time>2026-04-18T15:47:08.278Z</time></trkpt><trkpt lat="40.1071651" lon="9.5211069"><ele>824.0</ele><time>2026-04-18T15:47:09.278Z</time></trkpt><trkpt lat="40.1072837" lon="9.5209654"><ele>824.0</ele><time>2026-04-18T15:47:10.278Z</time></trkpt><trkpt lat="40.1074175" lon="9.5208506"><ele>824.0</ele><time>2026-04-18T15:47:11.277Z</time></trkpt><trkpt lat="40.1075849" lon="9.5207675"><ele>836.3333333333334</ele><time>2026-04-18T15:47:12.278Z</time></trkpt><trkpt lat="40.1077689" lon="9.5207003"><ele>848.6666666666667</ele><time>2026-04-18T15:47:13.278Z</time></trkpt><trkpt lat="40.1079447" lon="9.5206349"><ele>861.0</ele><time>2026-04-18T15:47:14.277Z</time></trkpt><trkpt lat="40.1081238" lon="9.5205318"><ele>858.6666666666667</ele><time>2026-04-18T15:47:15.279Z</time></trkpt><trkpt lat="40.1083" lon="9.5203818"><ele>856.3333333333334</ele><time>2026-04-18T15:47:16.278Z</time></trkpt><trkpt lat="40.1084553" lon="9.5202135"><ele>854.0</ele><time>2026-04-18T15:47:17.279Z</time></trkpt><trkpt lat="40.1086011" lon="9.5200345"><ele>854.0</ele><time>2026-04-18T15:47:18.277Z</time></trkpt><trkpt lat="40.1087405" lon="9.5198645"><ele>854.0</ele><time>2026-04-18T15:47:19.278Z</time></trkpt><trkpt lat="40.1088845" lon="9.5196952"><ele>854.0</ele><time>2026-04-18T15:47:20.278Z</time></trkpt><trkpt lat="40.1090296" lon="9.5195264"><ele>857.6666666666667</ele><time>2026-04-18T15:47:21.277Z</time></trkpt><trkpt lat="40.1091827" lon="9.5193706"><ele>861.3333333333333</ele><time>2026-04-18T15:47:22.277Z</time></trkpt><trkpt lat="40.1093387" lon="9.5192353"><ele>865.0</ele><time>2026-04-18T15:47:23.278Z</time></trkpt><trkpt lat="40.1095043" lon="9.5191198"><ele>865.0</ele><time>2026-04-18T15:47:24.278Z</time></trkpt><trkpt lat="40.1096722" lon="9.5190282"><ele>865.0</ele><time>2026-04-18T15:47:25.278Z</time></trkpt><trkpt lat="40.1098424" lon="9.5189336"><ele>865.0</ele><time>2026-04-18T15:47:26.278Z</time></trkpt><trkpt lat="40.1100095" lon="9.5188177"><ele>865.6666666666666</ele><time>2026-04-18T15:47:27.278Z</time></trkpt><trkpt lat="40.1101635" lon="9.5186728"><ele>866.3333333333333</ele><time>2026-04-18T15:47:28.278Z</time></trkpt><trkpt lat="40.1103119" lon="9.5185359"><ele>867.0</ele><time>2026-04-18T15:47:29.277Z</time></trkpt><trkpt lat="40.1104445" lon="9.518394"><ele>867.0</ele><time>2026-04-18T15:47:30.278Z</time></trkpt><trkpt lat="40.1105757" lon="9.5182587"><ele>867.0</ele><time>2026-04-18T15:47:31.277Z</time></trkpt><trkpt lat="40.1106302" lon="9.5180523"><ele>867.0</ele><time>2026-04-18T15:47:32.278Z</time></trkpt><trkpt lat="40.1106887" lon="9.5178515"><ele>860.3333333333333</ele><time>2026-04-18T15:47:33.278Z</time></trkpt><trkpt lat="40.1107313" lon="9.517653"><ele>853.6666666666666</ele><time>2026-04-18T15:47:34.278Z</time></trkpt><trkpt lat="40.110787" lon="9.5174385"><ele>847.0</ele><time>2026-04-18T15:47:35.278Z</time></trkpt><trkpt lat="40.1108641" lon="9.5172303"><ele>856.6666666666666</ele><time>2026-04-18T15:47:36.279Z</time></trkpt><trkpt lat="40.1109698" lon="9.5170518"><ele>866.3333333333333</ele><time>2026-04-18T15:47:37.278Z</time></trkpt><trkpt lat="40.1110835" lon="9.5169223"><ele>876.0</ele><time>2026-04-18T15:47:38.277Z</time></trkpt><trkpt lat="40.1111876" lon="9.5167717"><ele>876.0</ele><time>2026-04-18T15:47:39.278Z</time></trkpt><trkpt lat="40.111268" lon="9.5165665"><ele>876.0</ele><time>2026-04-18T15:47:40.278Z</time></trkpt><trkpt lat="40.1113443" lon="9.5163462"><ele>876.0</ele><time>2026-04-18T15:47:41.278Z</time></trkpt><trkpt lat="40.1114296" lon="9.5161119"><ele>873.3333333333333</ele><time>2026-04-18T15:47:42.278Z</time></trkpt><trkpt lat="40.1115301" lon="9.5158791"><ele>870.6666666666666</ele><time>2026-04-18T15:47:43.277Z</time></trkpt><trkpt lat="40.1116449" lon="9.5156448"><ele>868.0</ele><time>2026-04-18T15:47:44.277Z</time></trkpt><trkpt lat="40.1117698" lon="9.5154352"><ele>878.0</ele><time>2026-04-18T15:47:45.279Z</time></trkpt><trkpt lat="40.1118931" lon="9.5152465"><ele>888.0</ele><time>2026-04-18T15:47:46.278Z</time></trkpt><trkpt lat="40.1120088" lon="9.5150635"><ele>898.0</ele><time>2026-04-18T15:47:47.278Z</time></trkpt><trkpt lat="40.1121338" lon="9.5148831"><ele>898.0</ele><time>2026-04-18T15:47:48.278Z</time></trkpt><trkpt lat="40.1122843" lon="9.5147256"><ele>898.0</ele><time>2026-04-18T15:47:49.278Z</time></trkpt><trkpt lat="40.11244" lon="9.5145776"><ele>898.0</ele><time>2026-04-18T15:47:50.278Z</time></trkpt><trkpt lat="40.1125897" lon="9.5144265"><ele>903.3333333333333</ele><time>2026-04-18T15:47:51.278Z</time></trkpt><trkpt lat="40.1127467" lon="9.5142691"><ele>908.6666666666667</ele><time>2026-04-18T15:47:52.277Z</time></trkpt><trkpt lat="40.1128992" lon="9.5141163"><ele>914.0</ele><time>2026-04-18T15:47:53.278Z</time></trkpt><trkpt lat="40.1130511" lon="9.5139608"><ele>914.0</ele><time>2026-04-18T15:47:54.278Z</time></trkpt><trkpt lat="40.1132053" lon="9.5138058"><ele>914.0</ele><time>2026-04-18T15:47:55.277Z</time></trkpt><trkpt lat="40.1133592" lon="9.5136505"><ele>914.0</ele><time>2026-04-18T15:47:56.278Z</time></trkpt><trkpt lat="40.1135234" lon="9.5135201"><ele>917.3333333333334</ele><time>2026-04-18T15:47:57.278Z</time></trkpt><trkpt lat="40.1136919" lon="9.5134043"><ele>920.6666666666667</ele><time>2026-04-18T15:47:58.278Z</time></trkpt><trkpt lat="40.1138626" lon="9.5132959"><ele>924.0</ele><time>2026-04-18T15:47:59.278Z</time></trkpt><trkpt lat="40.1140359" lon="9.5131855"><ele>919.0</ele><time>2026-04-18T15:48:00.278Z</time></trkpt><trkpt lat="40.1142025" lon="9.5130917"><ele>914.0</ele><time>2026-04-18T15:48:01.278Z</time></trkpt><trkpt lat="40.11437" lon="9.512989"><ele>909.0</ele><time>2026-04-18T15:48:02.277Z</time></trkpt><trkpt lat="40.1145408" lon="9.5128948"><ele>914.6666666666667</ele><time>2026-04-18T15:48:03.278Z</time></trkpt><trkpt lat="40.1147096" lon="9.5128047"><ele>920.3333333333334</ele><time>2026-04-18T15:48:04.277Z</time></trkpt><trkpt lat="40.1148771" lon="9.5127147"><ele>926.0</ele><time>2026-04-18T15:48:05.278Z</time></trkpt><trkpt lat="40.1150427" lon="9.5126245"><ele>926.0</ele><time>2026-04-18T15:48:06.278Z</time></trkpt><trkpt lat="40.1152086" lon="9.5125372"><ele>926.0</ele><time>2026-04-18T15:48:07.278Z</time></trkpt><trkpt lat="40.1153922" lon="9.512444"><ele>926.0</ele><time>2026-04-18T15:48:08.277Z</time></trkpt><trkpt lat="40.1155901" lon="9.512379"><ele>921.6666666666667</ele><time>2026-04-18T15:48:09.278Z</time></trkpt><trkpt lat="40.1157761" lon="9.5123264"><ele>917.3333333333333</ele><time>2026-04-18T15:48:10.278Z</time></trkpt><trkpt lat="40.1159512" lon="9.5122528"><ele>913.0</ele><time>2026-04-18T15:48:11.278Z</time></trkpt><trkpt lat="40.1161099" lon="9.5121675"><ele>921.0</ele><time>2026-04-18T15:48:12.278Z</time></trkpt><trkpt lat="40.1162555" lon="9.5120639"><ele>929.0</ele><time>2026-04-18T15:48:13.278Z</time></trkpt><trkpt lat="40.116408" lon="9.5119745"><ele>937.0</ele><time>2026-04-18T15:48:14.278Z</time></trkpt><trkpt lat="40.1165901" lon="9.5119354"><ele>937.0</ele><time>2026-04-18T15:48:15.278Z</time></trkpt><trkpt lat="40.1167637" lon="9.5118772"><ele>937.0</ele><time>2026-04-18T15:48:16.278Z</time></trkpt><trkpt lat="40.1169524" lon="9.5118427"><ele>937.0</ele><time>2026-04-18T15:48:17.278Z</time></trkpt><trkpt lat="40.117139" lon="9.5117559"><ele>937.0</ele><time>2026-04-18T15:48:18.278Z</time></trkpt><trkpt lat="40.1173413" lon="9.5116373"><ele>937.0</ele><time>2026-04-18T15:48:19.278Z</time></trkpt><trkpt lat="40.1175402" lon="9.5114959"><ele>937.0</ele><time>2026-04-18T15:48:20.278Z</time></trkpt><trkpt lat="40.1177288" lon="9.5113599"><ele>944.6666666666666</ele><time>2026-04-18T15:48:21.278Z</time></trkpt><trkpt lat="40.1179077" lon="9.5112249"><ele>952.3333333333333</ele><time>2026-04-18T15:48:22.278Z</time></trkpt><trkpt lat="40.1180723" lon="9.5110829"><ele>960.0</ele><time>2026-04-18T15:48:23.278Z</time></trkpt><trkpt lat="40.1182219" lon="9.5109301"><ele>948.6666666666667</ele><time>2026-04-18T15:48:24.277Z</time></trkpt><trkpt lat="40.1183618" lon="9.5107654"><ele>937.3333333333334</ele><time>2026-04-18T15:48:25.278Z</time></trkpt><trkpt lat="40.1184955" lon="9.5105917"><ele>926.0</ele><time>2026-04-18T15:48:26.278Z</time></trkpt><trkpt lat="40.1186451" lon="9.5104266"><ele>925.6666666666667</ele><time>2026-04-18T15:48:27.278Z</time></trkpt><trkpt lat="40.1188082" lon="9.5102895"><ele>925.3333333333333</ele><time>2026-04-18T15:48:28.278Z</time></trkpt><trkpt lat="40.1189752" lon="9.5101588"><ele>925.0</ele><time>2026-04-18T15:48:29.278Z</time></trkpt><trkpt lat="40.1191294" lon="9.5100329"><ele>925.0</ele><time>2026-04-18T15:48:30.278Z</time></trkpt><trkpt lat="40.1192684" lon="9.5099172"><ele>925.0</ele><time>2026-04-18T15:48:31.278Z</time></trkpt><trkpt lat="40.1193845" lon="9.5098241"><ele>925.0</ele><time>2026-04-18T15:48:32.278Z</time></trkpt><trkpt lat="40.1195015" lon="9.5097565"><ele>925.0</ele><time>2026-04-18T15:48:33.279Z</time></trkpt><trkpt lat="40.1196242" lon="9.509755"><ele>925.0</ele><time>2026-04-18T15:48:34.278Z</time></trkpt><trkpt lat="40.1197498" lon="9.5097399"><ele>925.0</ele><time>2026-04-18T15:48:35.278Z</time></trkpt><trkpt lat="40.1199" lon="9.5097552"><ele>925.0</ele><time>2026-04-18T15:48:36.277Z</time></trkpt><trkpt lat="40.1200934" lon="9.5097231"><ele>920.3333333333333</ele><time>2026-04-18T15:48:37.277Z</time></trkpt><trkpt lat="40.1202799" lon="9.5096965"><ele>915.6666666666667</ele><time>2026-04-18T15:48:38.278Z</time></trkpt><trkpt lat="40.1204698" lon="9.5096578"><ele>911.0</ele><time>2026-04-18T15:48:39.278Z</time></trkpt><trkpt lat="40.1206518" lon="9.5096399"><ele>909.6666666666667</ele><time>2026-04-18T15:48:40.278Z</time></trkpt><trkpt lat="40.1208241" lon="9.5096357"><ele>908.3333333333333</ele><time>2026-04-18T15:48:41.279Z</time></trkpt><trkpt lat="40.1209951" lon="9.5096128"><ele>907.0</ele><time>2026-04-18T15:48:42.279Z</time></trkpt><trkpt lat="40.1211657" lon="9.509583"><ele>927.3333333333333</ele><time>2026-04-18T15:48:43.278Z</time></trkpt><trkpt lat="40.1213316" lon="9.5095618"><ele>947.6666666666667</ele><time>2026-04-18T15:48:44.277Z</time></trkpt><trkpt lat="40.1214898" lon="9.5095493"><ele>968.0</ele><time>2026-04-18T15:48:45.277Z</time></trkpt><trkpt lat="40.121645" lon="9.5095462"><ele>968.3333333333334</ele><time>2026-04-18T15:48:46.278Z</time></trkpt><trkpt lat="40.1217888" lon="9.509553"><ele>968.6666666666667</ele><time>2026-04-18T15:48:47.278Z</time></trkpt><trkpt lat="40.1219606" lon="9.5095545"><ele>969.0</ele><time>2026-04-18T15:48:48.278Z</time></trkpt><trkpt lat="40.1221316" lon="9.5095662"><ele>969.0</ele><time>2026-04-18T15:48:49.277Z</time></trkpt><trkpt lat="40.122333" lon="9.5095208"><ele>969.0</ele><time>2026-04-18T15:48:50.278Z</time></trkpt><trkpt lat="40.1225348" lon="9.5094839"><ele>969.0</ele><time>2026-04-18T15:48:51.277Z</time></trkpt><trkpt lat="40.1227205" lon="9.509445"><ele>967.3333333333333</ele><time>2026-04-18T15:48:52.277Z</time></trkpt><trkpt lat="40.1228812" lon="9.5094189"><ele>965.6666666666666</ele><time>2026-04-18T15:48:53.278Z</time></trkpt><trkpt lat="40.1230339" lon="9.5094007"><ele>964.0</ele><time>2026-04-18T15:48:54.279Z</time></trkpt><trkpt lat="40.1231807" lon="9.5093891"><ele>960.6666666666666</ele><time>2026-04-18T15:48:55.279Z</time></trkpt><trkpt lat="40.1233251" lon="9.5093657"><ele>957.3333333333333</ele><time>2026-04-18T15:48:56.279Z</time></trkpt><trkpt lat="40.1234741" lon="9.5093308"><ele>954.0</ele><time>2026-04-18T15:48:57.278Z</time></trkpt><trkpt lat="40.1236271" lon="9.5092984"><ele>954.0</ele><time>2026-04-18T15:48:58.277Z</time></trkpt><trkpt lat="40.1237784" lon="9.5092761"><ele>954.0</ele><time>2026-04-18T15:48:59.278Z</time></trkpt><trkpt lat="40.1239263" lon="9.5092505"><ele>954.0</ele><time>2026-04-18T15:49:00.278Z</time></trkpt><trkpt lat="40.1240861" lon="9.5092172"><ele>950.6666666666667</ele><time>2026-04-18T15:49:01.278Z</time></trkpt><trkpt lat="40.124243" lon="9.509141"><ele>947.3333333333334</ele><time>2026-04-18T15:49:02.279Z</time></trkpt><trkpt lat="40.1244128" lon="9.5090787"><ele>944.0</ele><time>2026-04-18T15:49:03.277Z</time></trkpt><trkpt lat="40.1245676" lon="9.5089773"><ele>944.0</ele><time>2026-04-18T15:49:04.278Z</time></trkpt><trkpt lat="40.124751" lon="9.5088656"><ele>944.0</ele><time>2026-04-18T15:49:05.278Z</time></trkpt><trkpt lat="40.1249587" lon="9.5087701"><ele>944.0</ele><time>2026-04-18T15:49:06.277Z</time></trkpt><trkpt lat="40.1251307" lon="9.5087248"><ele>937.0</ele><time>2026-04-18T15:49:07.277Z</time></trkpt><trkpt lat="40.125276" lon="9.508773"><ele>930.0</ele><time>2026-04-18T15:49:08.278Z</time></trkpt><trkpt lat="40.1254408" lon="9.5087614"><ele>923.0</ele><time>2026-04-18T15:49:09.276Z</time></trkpt><trkpt lat="40.1255983" lon="9.5087435"><ele>938.0</ele><time>2026-04-18T15:49:10.277Z</time></trkpt><trkpt lat="40.1257779" lon="9.508651"><ele>953.0</ele><time>2026-04-18T15:49:11.277Z</time></trkpt><trkpt lat="40.1259701" lon="9.5085868"><ele>968.0</ele><time>2026-04-18T15:49:12.276Z</time></trkpt><trkpt lat="40.1261731" lon="9.5085176"><ele>968.0</ele><time>2026-04-18T15:49:13.277Z</time></trkpt><trkpt lat="40.1264042" lon="9.5084254"><ele>968.0</ele><time>2026-04-18T15:49:14.276Z</time></trkpt><trkpt lat="40.1266375" lon="9.5083195"><ele>961.0</ele><time>2026-04-18T15:49:15.277Z</time></trkpt><trkpt lat="40.1268711" lon="9.5082111"><ele>954.0</ele><time>2026-04-18T15:49:16.277Z</time></trkpt><trkpt lat="40.1271166" lon="9.508113"><ele>954.0</ele><time>2026-04-18T15:49:17.278Z</time></trkpt><trkpt lat="40.1273622" lon="9.5080329"><ele>954.0</ele><time>2026-04-18T15:49:18.277Z</time></trkpt><trkpt lat="40.1275896" lon="9.5079568"><ele>971.5</ele><time>2026-04-18T15:49:19.277Z</time></trkpt><trkpt lat="40.1278143" lon="9.507888"><ele>989.0</ele><time>2026-04-18T15:49:20.277Z</time></trkpt><trkpt lat="40.1280286" lon="9.5078257"><ele>983.3333333333334</ele><time>2026-04-18T15:49:21.278Z</time></trkpt><trkpt lat="40.1282357" lon="9.5077892"><ele>977.6666666666667</ele><time>2026-04-18T15:49:22.277Z</time></trkpt><trkpt lat="40.1284262" lon="9.5077629"><ele>972.0</ele><time>2026-04-18T15:49:23.277Z</time></trkpt><trkpt lat="40.1286192" lon="9.507711"><ele>972.0</ele><time>2026-04-18T15:49:24.278Z</time></trkpt><trkpt lat="40.128811" lon="9.5076516"><ele>972.0</ele><time>2026-04-18T15:49:25.276Z</time></trkpt><trkpt lat="40.1290187" lon="9.507539"><ele>972.0</ele><time>2026-04-18T15:49:26.277Z</time></trkpt><trkpt lat="40.1292375" lon="9.5074614"><ele>964.0</ele><time>2026-04-18T15:49:27.278Z</time></trkpt><trkpt lat="40.129473" lon="9.5073957"><ele>956.0</ele><time>2026-04-18T15:49:28.277Z</time></trkpt><trkpt lat="40.1297493" lon="9.5073075"><ele>949.0</ele><time>2026-04-18T15:49:29.278Z</time></trkpt><trkpt lat="40.129991" lon="9.5072295"><ele>942.0</ele><time>2026-04-18T15:49:30.276Z</time></trkpt><trkpt lat="40.1302331" lon="9.5071548"><ele>942.0</ele><time>2026-04-18T15:49:31.277Z</time></trkpt><trkpt lat="40.1304791" lon="9.5070803"><ele>942.0</ele><time>2026-04-18T15:49:32.277Z</time></trkpt><trkpt lat="40.1306973" lon="9.5071229"><ele>935.0</ele><time>2026-04-18T15:49:33.277Z</time></trkpt><trkpt lat="40.1309229" lon="9.5071372"><ele>928.0</ele><time>2026-04-18T15:49:34.276Z</time></trkpt><trkpt lat="40.1311587" lon="9.5071399"><ele>928.0</ele><time>2026-04-18T15:49:35.276Z</time></trkpt><trkpt lat="40.131393" lon="9.5071077"><ele>928.0</ele><time>2026-04-18T15:49:36.277Z</time></trkpt><trkpt lat="40.131645" lon="9.5070343"><ele>957.5</ele><time>2026-04-18T15:49:37.277Z</time></trkpt><trkpt lat="40.1318855" lon="9.5069964"><ele>987.0</ele><time>2026-04-18T15:49:38.278Z</time></trkpt><trkpt lat="40.1321755" lon="9.5069233"><ele>980.5</ele><time>2026-04-18T15:49:39.277Z</time></trkpt><trkpt lat="40.132437" lon="9.5068957"><ele>974.0</ele><time>2026-04-18T15:49:40.276Z</time></trkpt><trkpt lat="40.1327077" lon="9.5069085"><ele>974.0</ele><time>2026-04-18T15:49:41.277Z</time></trkpt><trkpt lat="40.1329709" lon="9.5069016"><ele>974.0</ele><time>2026-04-18T15:49:42.277Z</time></trkpt><trkpt lat="40.133187" lon="9.5068676"><ele>967.3333333333334</ele><time>2026-04-18T15:49:43.276Z</time></trkpt><trkpt lat="40.1334142" lon="9.5067771"><ele>960.6666666666667</ele><time>2026-04-18T15:49:44.276Z</time></trkpt><trkpt lat="40.1336197" lon="9.5067694"><ele>954.0</ele><time>2026-04-18T15:49:45.277Z</time></trkpt><trkpt lat="40.1338344" lon="9.5067816"><ele>957.0</ele><time>2026-04-18T15:49:46.277Z</time></trkpt><trkpt lat="40.134064" lon="9.506846"><ele>960.0</ele><time>2026-04-18T15:49:47.277Z</time></trkpt><trkpt lat="40.1342786" lon="9.5069062"><ele>960.0</ele><time>2026-04-18T15:49:48.276Z</time></trkpt><trkpt lat="40.1344892" lon="9.5069503"><ele>960.0</ele><time>2026-04-18T15:49:49.277Z</time></trkpt><trkpt lat="40.1347025" lon="9.5069855"><ele>960.0</ele><time>2026-04-18T15:49:50.278Z</time></trkpt><trkpt lat="40.1349338" lon="9.5069968"><ele>959.5</ele><time>2026-04-18T15:49:51.277Z</time></trkpt><trkpt lat="40.1351684" lon="9.5070159"><ele>959.0</ele><time>2026-04-18T15:49:52.277Z</time></trkpt><trkpt lat="40.1354311" lon="9.5068759"><ele>959.0</ele><time>2026-04-18T15:49:53.277Z</time></trkpt><trkpt lat="40.1356941" lon="9.5067922"><ele>959.0</ele><time>2026-04-18T15:49:54.277Z</time></trkpt><trkpt lat="40.1359898" lon="9.5067573"><ele>951.5</ele><time>2026-04-18T15:49:55.277Z</time></trkpt><trkpt lat="40.1362888" lon="9.5066987"><ele>944.0</ele><time>2026-04-18T15:49:56.276Z</time></trkpt><trkpt lat="40.1365643" lon="9.5066367"><ele>939.5</ele><time>2026-04-18T15:49:57.277Z</time></trkpt><trkpt lat="40.1368343" lon="9.5065759"><ele>935.0</ele><time>2026-04-18T15:49:58.276Z</time></trkpt><trkpt lat="40.1370852" lon="9.5065186"><ele>935.0</ele><time>2026-04-18T15:49:59.276Z</time></trkpt><trkpt lat="40.1373374" lon="9.5064195"><ele>935.0</ele><time>2026-04-18T15:50:00.277Z</time></trkpt><trkpt lat="40.137535" lon="9.506327"><ele>929.6666666666667</ele><time>2026-04-18T15:50:01.277Z</time></trkpt><trkpt lat="40.1377244" lon="9.5062449"><ele>924.3333333333333</ele><time>2026-04-18T15:50:02.276Z</time></trkpt><trkpt lat="40.1379118" lon="9.5061417"><ele>919.0</ele><time>2026-04-18T15:50:03.276Z</time></trkpt><trkpt lat="40.1381189" lon="9.5060245"><ele>934.5</ele><time>2026-04-18T15:50:04.276Z</time></trkpt><trkpt lat="40.1383544" lon="9.5059386"><ele>950.0</ele><time>2026-04-18T15:50:05.277Z</time></trkpt><trkpt lat="40.1385972" lon="9.5058596"><ele>950.0</ele><time>2026-04-18T15:50:06.277Z</time></trkpt><trkpt lat="40.13885" lon="9.5057967"><ele>950.0</ele><time>2026-04-18T15:50:07.278Z</time></trkpt><trkpt lat="40.1391112" lon="9.5057699"><ele>947.5</ele><time>2026-04-18T15:50:08.278Z</time></trkpt><trkpt lat="40.1393786" lon="9.5057695"><ele>945.0</ele><time>2026-04-18T15:50:09.277Z</time></trkpt><trkpt lat="40.1396766" lon="9.505787"><ele>948.5</ele><time>2026-04-18T15:50:10.277Z</time></trkpt><trkpt lat="40.1399699" lon="9.5057949"><ele>952.0</ele><time>2026-04-18T15:50:11.277Z</time></trkpt><trkpt lat="40.1402369" lon="9.5058129"><ele>952.0</ele><time>2026-04-18T15:50:12.277Z</time></trkpt><trkpt lat="40.1404845" lon="9.5058374"><ele>952.0</ele><time>2026-04-18T15:50:13.278Z</time></trkpt><trkpt lat="40.1407182" lon="9.5058681"><ele>954.0</ele><time>2026-04-18T15:50:14.277Z</time></trkpt><trkpt lat="40.1409412" lon="9.5059008"><ele>956.0</ele><time>2026-04-18T15:50:15.276Z</time></trkpt><trkpt lat="40.1411619" lon="9.5059275"><ele>958.0</ele><time>2026-04-18T15:50:16.278Z</time></trkpt><trkpt lat="40.1414052" lon="9.5059447"><ele>960.5</ele><time>2026-04-18T15:50:17.277Z</time></trkpt><trkpt lat="40.1416643" lon="9.5059178"><ele>963.0</ele><time>2026-04-18T15:50:18.277Z</time></trkpt><trkpt lat="40.1419559" lon="9.505845"><ele>963.0</ele><time>2026-04-18T15:50:19.276Z</time></trkpt><trkpt lat="40.1422146" lon="9.5057892"><ele>963.0</ele><time>2026-04-18T15:50:20.276Z</time></trkpt><trkpt lat="40.1424488" lon="9.505746"><ele>957.5</ele><time>2026-04-18T15:50:21.277Z</time></trkpt><trkpt lat="40.1426909" lon="9.505709"><ele>952.0</ele><time>2026-04-18T15:50:22.276Z</time></trkpt><trkpt lat="40.1429356" lon="9.5057215"><ele>952.0</ele><time>2026-04-18T15:50:23.278Z</time></trkpt><trkpt lat="40.1431783" lon="9.5057485"><ele>952.0</ele><time>2026-04-18T15:50:24.278Z</time></trkpt><trkpt lat="40.1434194" lon="9.5057115"><ele>959.0</ele><time>2026-04-18T15:50:25.277Z</time></trkpt><trkpt lat="40.1436553" lon="9.5057071"><ele>966.0</ele><time>2026-04-18T15:50:26.278Z</time></trkpt><trkpt lat="40.143877" lon="9.5056886"><ele>967.0</ele><time>2026-04-18T15:50:27.277Z</time></trkpt><trkpt lat="40.1440631" lon="9.5056613"><ele>968.0</ele><time>2026-04-18T15:50:28.276Z</time></trkpt><trkpt lat="40.1442788" lon="9.505683"><ele>969.0</ele><time>2026-04-18T15:50:29.277Z</time></trkpt><trkpt lat="40.1444754" lon="9.5057509"><ele>969.0</ele><time>2026-04-18T15:50:30.276Z</time></trkpt><trkpt lat="40.1446681" lon="9.505841"><ele>969.0</ele><time>2026-04-18T15:50:31.278Z</time></trkpt><trkpt lat="40.1448466" lon="9.5059693"><ele>969.0</ele><time>2026-04-18T15:50:32.277Z</time></trkpt><trkpt lat="40.1450173" lon="9.5060639"><ele>975.6666666666667</ele><time>2026-04-18T15:50:33.278Z</time></trkpt><trkpt lat="40.1452033" lon="9.5061592"><ele>982.3333333333334</ele><time>2026-04-18T15:50:34.276Z</time></trkpt><trkpt lat="40.1453855" lon="9.5062164"><ele>989.0</ele><time>2026-04-18T15:50:35.276Z</time></trkpt><trkpt lat="40.1456112" lon="9.5062397"><ele>995.0</ele><time>2026-04-18T15:50:36.277Z</time></trkpt><trkpt lat="40.145882" lon="9.5061771"><ele>1001.0</ele><time>2026-04-18T15:50:37.278Z</time></trkpt><trkpt lat="40.146141" lon="9.5061794"><ele>1001.0</ele><time>2026-04-18T15:50:38.277Z</time></trkpt><trkpt lat="40.1463839" lon="9.5061784"><ele>1001.0</ele><time>2026-04-18T15:50:39.276Z</time></trkpt><trkpt lat="40.1466212" lon="9.5061849"><ele>1006.5</ele><time>2026-04-18T15:50:40.277Z</time></trkpt><trkpt lat="40.1468682" lon="9.5062196"><ele>1012.0</ele><time>2026-04-18T15:50:41.277Z</time></trkpt><trkpt lat="40.1471153" lon="9.5062434"><ele>997.0</ele><time>2026-04-18T15:50:42.277Z</time></trkpt><trkpt lat="40.1473759" lon="9.5062894"><ele>982.0</ele><time>2026-04-18T15:50:43.277Z</time></trkpt><trkpt lat="40.1476516" lon="9.5064124"><ele>982.0</ele><time>2026-04-18T15:50:44.278Z</time></trkpt><trkpt lat="40.147932" lon="9.5064973"><ele>982.0</ele><time>2026-04-18T15:50:45.277Z</time></trkpt><trkpt lat="40.148222" lon="9.5065733"><ele>989.5</ele><time>2026-04-18T15:50:46.277Z</time></trkpt><trkpt lat="40.1485035" lon="9.5066451"><ele>997.0</ele><time>2026-04-18T15:50:47.276Z</time></trkpt><trkpt lat="40.1487669" lon="9.5066995"><ele>997.0</ele><time>2026-04-18T15:50:48.277Z</time></trkpt><trkpt lat="40.1490216" lon="9.5067392"><ele>997.0</ele><time>2026-04-18T15:50:49.278Z</time></trkpt><trkpt lat="40.149283" lon="9.5067701"><ele>1005.0</ele><time>2026-04-18T15:50:50.277Z</time></trkpt><trkpt lat="40.1495313" lon="9.5068228"><ele>1013.0</ele><time>2026-04-18T15:50:51.277Z</time></trkpt><trkpt lat="40.1497683" lon="9.5069061"><ele>1020.0</ele><time>2026-04-18T15:50:52.276Z</time></trkpt><trkpt lat="40.1499974" lon="9.5070137"><ele>1027.0</ele><time>2026-04-18T15:50:53.277Z</time></trkpt><trkpt lat="40.1502132" lon="9.5071174"><ele>1020.0</ele><time>2026-04-18T15:50:54.277Z</time></trkpt><trkpt lat="40.1504163" lon="9.5072141"><ele>1013.0</ele><time>2026-04-18T15:50:55.276Z</time></trkpt><trkpt lat="40.1506228" lon="9.5073057"><ele>1006.0</ele><time>2026-04-18T15:50:56.277Z</time></trkpt><trkpt lat="40.1508435" lon="9.5073651"><ele>1006.0</ele><time>2026-04-18T15:50:57.278Z</time></trkpt><trkpt lat="40.1510723" lon="9.5074033"><ele>1006.0</ele><time>2026-04-18T15:50:58.276Z</time></trkpt><trkpt lat="40.1513119" lon="9.5074189"><ele>1008.5</ele><time>2026-04-18T15:50:59.278Z</time></trkpt><trkpt lat="40.1515622" lon="9.5074213"><ele>1011.0</ele><time>2026-04-18T15:51:00.277Z</time></trkpt><trkpt lat="40.1518187" lon="9.5074228"><ele>1011.0</ele><time>2026-04-18T15:51:01.276Z</time></trkpt><trkpt lat="40.1520548" lon="9.507435"><ele>1011.0</ele><time>2026-04-18T15:51:02.277Z</time></trkpt><trkpt lat="40.1522876" lon="9.5074698"><ele>1014.5</ele><time>2026-04-18T15:51:03.277Z</time></trkpt><trkpt lat="40.152517" lon="9.5075252"><ele>1018.0</ele><time>2026-04-18T15:51:04.277Z</time></trkpt><trkpt lat="40.1527419" lon="9.5075976"><ele>1018.0</ele><time>2026-04-18T15:51:05.277Z</time></trkpt><trkpt lat="40.1529551" lon="9.5076712"><ele>1018.0</ele><time>2026-04-18T15:51:06.277Z</time></trkpt><trkpt lat="40.1531713" lon="9.5077288"><ele>1018.0</ele><time>2026-04-18T15:51:07.276Z</time></trkpt><trkpt lat="40.1533987" lon="9.5077478"><ele>1021.5</ele><time>2026-04-18T15:51:08.277Z</time></trkpt><trkpt lat="40.1536351" lon="9.5077299"><ele>1025.0</ele><time>2026-04-18T15:51:09.277Z</time></trkpt><trkpt lat="40.1538785" lon="9.5076667"><ele>1025.5</ele><time>2026-04-18T15:51:10.277Z</time></trkpt><trkpt lat="40.1541262" lon="9.5075851"><ele>1026.0</ele><time>2026-04-18T15:51:11.277Z</time></trkpt><trkpt lat="40.1543838" lon="9.5074905"><ele>1026.0</ele><time>2026-04-18T15:51:12.277Z</time></trkpt><trkpt lat="40.1546333" lon="9.5074011"><ele>1026.0</ele><time>2026-04-18T15:51:13.277Z</time></trkpt><trkpt lat="40.1548884" lon="9.5073172"><ele>1020.0</ele><time>2026-04-18T15:51:14.277Z</time></trkpt><trkpt lat="40.1551473" lon="9.507255"><ele>1014.0</ele><time>2026-04-18T15:51:15.277Z</time></trkpt><trkpt lat="40.1554025" lon="9.5072312"><ele>1014.0</ele><time>2026-04-18T15:51:16.277Z</time></trkpt><trkpt lat="40.1556447" lon="9.5072113"><ele>1014.0</ele><time>2026-04-18T15:51:17.277Z</time></trkpt><trkpt lat="40.1558853" lon="9.5071712"><ele>1012.0</ele><time>2026-04-18T15:51:18.277Z</time></trkpt><trkpt lat="40.1561096" lon="9.5071101"><ele>1010.0</ele><time>2026-04-18T15:51:19.277Z</time></trkpt><trkpt lat="40.1563217" lon="9.5070439"><ele>1008.0</ele><time>2026-04-18T15:51:20.277Z</time></trkpt><trkpt lat="40.1565175" lon="9.5069917"><ele>1015.3333333333333</ele><time>2026-04-18T15:51:21.276Z</time></trkpt><trkpt lat="40.1567132" lon="9.5069699"><ele>1022.6666666666666</ele><time>2026-04-18T15:51:22.277Z</time></trkpt><trkpt lat="40.1569182" lon="9.5069871"><ele>1030.0</ele><time>2026-04-18T15:51:23.277Z</time></trkpt><trkpt lat="40.1571322" lon="9.5070369"><ele>1021.6666666666666</ele><time>2026-04-18T15:51:24.277Z</time></trkpt><trkpt lat="40.1573348" lon="9.5071016"><ele>1013.3333333333333</ele><time>2026-04-18T15:51:25.276Z</time></trkpt><trkpt lat="40.157514" lon="9.5071681"><ele>1005.0</ele><time>2026-04-18T15:51:26.278Z</time></trkpt><trkpt lat="40.1576787" lon="9.507227"><ele>1005.0</ele><time>2026-04-18T15:51:27.277Z</time></trkpt><trkpt lat="40.157833" lon="9.5072864"><ele>1005.0</ele><time>2026-04-18T15:51:28.277Z</time></trkpt><trkpt lat="40.1579724" lon="9.5073597"><ele>1005.0</ele><time>2026-04-18T15:51:29.278Z</time></trkpt><trkpt lat="40.1580962" lon="9.5074518"><ele>1006.0</ele><time>2026-04-18T15:51:30.278Z</time></trkpt><trkpt lat="40.1582145" lon="9.5075547"><ele>1007.0</ele><time>2026-04-18T15:51:31.278Z</time></trkpt><trkpt lat="40.1583263" lon="9.5076603"><ele>1008.0</ele><time>2026-04-18T15:51:32.277Z</time></trkpt><trkpt lat="40.158435" lon="9.507766"><ele>1009.0</ele><time>2026-04-18T15:51:33.277Z</time></trkpt><trkpt lat="40.1585373" lon="9.5078701"><ele>1008.25</ele><time>2026-04-18T15:51:34.277Z</time></trkpt><trkpt lat="40.1586354" lon="9.507975"><ele>1007.5</ele><time>2026-04-18T15:51:35.277Z</time></trkpt><trkpt lat="40.1587265" lon="9.5080707"><ele>1006.75</ele><time>2026-04-18T15:51:36.277Z</time></trkpt><trkpt lat="40.1588109" lon="9.5081534"><ele>1006.0</ele><time>2026-04-18T15:51:37.276Z</time></trkpt><trkpt lat="40.1588953" lon="9.5082392"><ele>1006.0</ele><time>2026-04-18T15:51:38.277Z</time></trkpt><trkpt lat="40.1589904" lon="9.5083334"><ele>1006.0</ele><time>2026-04-18T15:51:39.278Z</time></trkpt><trkpt lat="40.1591007" lon="9.508429"><ele>1006.0</ele><time>2026-04-18T15:51:40.277Z</time></trkpt><trkpt lat="40.1592207" lon="9.5085178"><ele>1006.0</ele><time>2026-04-18T15:51:41.277Z</time></trkpt><trkpt lat="40.1593924" lon="9.5085729"><ele>1005.3333333333333</ele><time>2026-04-18T15:51:42.277Z</time></trkpt><trkpt lat="40.1595672" lon="9.5086174"><ele>1004.6666666666667</ele><time>2026-04-18T15:51:43.277Z</time></trkpt><trkpt lat="40.1597294" lon="9.5086687"><ele>1004.0</ele><time>2026-04-18T15:51:44.277Z</time></trkpt><trkpt lat="40.1598895" lon="9.508721"><ele>1005.6666666666667</ele><time>2026-04-18T15:51:45.277Z</time></trkpt><trkpt lat="40.1600475" lon="9.5088041"><ele>1007.3333333333333</ele><time>2026-04-18T15:51:46.278Z</time></trkpt><trkpt lat="40.1601899" lon="9.5089333"><ele>1009.0</ele><time>2026-04-18T15:51:47.277Z</time></trkpt><trkpt lat="40.1603226" lon="9.5090819"><ele>1009.0</ele><time>2026-04-18T15:51:48.277Z</time></trkpt><trkpt lat="40.1604662" lon="9.5092149"><ele>1009.0</ele><time>2026-04-18T15:51:49.276Z</time></trkpt><trkpt lat="40.1606245" lon="9.5093265"><ele>1009.0</ele><time>2026-04-18T15:51:50.278Z</time></trkpt><trkpt lat="40.1607904" lon="9.5094"><ele>1002.3333333333333</ele><time>2026-04-18T15:51:51.277Z</time></trkpt><trkpt lat="40.1609531" lon="9.5094693"><ele>995.6666666666667</ele><time>2026-04-18T15:51:52.277Z</time></trkpt><trkpt lat="40.1611005" lon="9.5094602"><ele>989.0</ele><time>2026-04-18T15:51:53.277Z</time></trkpt><trkpt lat="40.1612391" lon="9.5095073"><ele>988.3333333333334</ele><time>2026-04-18T15:51:54.277Z</time></trkpt><trkpt lat="40.1613648" lon="9.5095877"><ele>987.6666666666667</ele><time>2026-04-18T15:51:55.277Z</time></trkpt><trkpt lat="40.1614791" lon="9.5097387"><ele>987.0</ele><time>2026-04-18T15:51:56.277Z</time></trkpt><trkpt lat="40.1615852" lon="9.5099169"><ele>987.0</ele><time>2026-04-18T15:51:57.277Z</time></trkpt><trkpt lat="40.1616712" lon="9.5101386"><ele>987.0</ele><time>2026-04-18T15:51:58.277Z</time></trkpt><trkpt lat="40.1617336" lon="9.5103731"><ele>987.0</ele><time>2026-04-18T15:51:59.277Z</time></trkpt><trkpt lat="40.1617856" lon="9.5106062"><ele>987.6666666666667</ele><time>2026-04-18T15:52:00.276Z</time></trkpt><trkpt lat="40.1618406" lon="9.5108371"><ele>988.3333333333334</ele><time>2026-04-18T15:52:01.276Z</time></trkpt><trkpt lat="40.1618937" lon="9.5110626"><ele>989.0</ele><time>2026-04-18T15:52:02.276Z</time></trkpt><trkpt lat="40.1619461" lon="9.5112874"><ele>985.6666666666667</ele><time>2026-04-18T15:52:03.277Z</time></trkpt><trkpt lat="40.1620015" lon="9.5114954"><ele>982.3333333333333</ele><time>2026-04-18T15:52:04.276Z</time></trkpt><trkpt lat="40.1620481" lon="9.5117008"><ele>979.0</ele><time>2026-04-18T15:52:05.277Z</time></trkpt><trkpt lat="40.16209" lon="9.5118848"><ele>979.0</ele><time>2026-04-18T15:52:06.278Z</time></trkpt><trkpt lat="40.1621181" lon="9.5120631"><ele>979.0</ele><time>2026-04-18T15:52:07.277Z</time></trkpt><trkpt lat="40.1620959" lon="9.51225"><ele>979.0</ele><time>2026-04-18T15:52:08.278Z</time></trkpt><trkpt lat="40.1620339" lon="9.5124461"><ele>979.0</ele><time>2026-04-18T15:52:09.277Z</time></trkpt><trkpt lat="40.1619294" lon="9.512629"><ele>977.6666666666666</ele><time>2026-04-18T15:52:10.277Z</time></trkpt><trkpt lat="40.1618057" lon="9.5128197"><ele>976.3333333333333</ele><time>2026-04-18T15:52:11.277Z</time></trkpt><trkpt lat="40.1616807" lon="9.5129988"><ele>975.0</ele><time>2026-04-18T15:52:12.277Z</time></trkpt><trkpt lat="40.1615592" lon="9.5131764"><ele>971.0</ele><time>2026-04-18T15:52:13.277Z</time></trkpt><trkpt lat="40.1614397" lon="9.5133524"><ele>967.0</ele><time>2026-04-18T15:52:14.277Z</time></trkpt><trkpt lat="40.1613124" lon="9.5135363"><ele>963.0</ele><time>2026-04-18T15:52:15.278Z</time></trkpt><trkpt lat="40.1611809" lon="9.5137292"><ele>967.6666666666667</ele><time>2026-04-18T15:52:16.277Z</time></trkpt><trkpt lat="40.1610535" lon="9.5139109"><ele>972.3333333333334</ele><time>2026-04-18T15:52:17.277Z</time></trkpt><trkpt lat="40.1609227" lon="9.5140775"><ele>977.0</ele><time>2026-04-18T15:52:18.277Z</time></trkpt><trkpt lat="40.1607676" lon="9.514225"><ele>977.0</ele><time>2026-04-18T15:52:19.277Z</time></trkpt><trkpt lat="40.1605934" lon="9.5143454"><ele>977.0</ele><time>2026-04-18T15:52:20.277Z</time></trkpt><trkpt lat="40.1604145" lon="9.5144717"><ele>977.0</ele><time>2026-04-18T15:52:21.277Z</time></trkpt><trkpt lat="40.1602537" lon="9.5146318"><ele>977.0</ele><time>2026-04-18T15:52:22.277Z</time></trkpt><trkpt lat="40.1600939" lon="9.5148014"><ele>977.0</ele><time>2026-04-18T15:52:23.276Z</time></trkpt><trkpt lat="40.1599424" lon="9.5149744"><ele>977.0</ele><time>2026-04-18T15:52:24.277Z</time></trkpt><trkpt lat="40.1597964" lon="9.5151466"><ele>977.6666666666667</ele><time>2026-04-18T15:52:25.278Z</time></trkpt><trkpt lat="40.1596522" lon="9.5153105"><ele>978.3333333333333</ele><time>2026-04-18T15:52:26.277Z</time></trkpt><trkpt lat="40.1594873" lon="9.5154501"><ele>979.0</ele><time>2026-04-18T15:52:27.277Z</time></trkpt><trkpt lat="40.1593004" lon="9.515552"><ele>979.0</ele><time>2026-04-18T15:52:28.277Z</time></trkpt><trkpt lat="40.1591247" lon="9.5156421"><ele>979.0</ele><time>2026-04-18T15:52:29.277Z</time></trkpt><trkpt lat="40.1589543" lon="9.5157331"><ele>979.0</ele><time>2026-04-18T15:52:30.277Z</time></trkpt><trkpt lat="40.1587968" lon="9.5158274"><ele>969.3333333333333</ele><time>2026-04-18T15:52:31.276Z</time></trkpt><trkpt lat="40.1586646" lon="9.5159384"><ele>959.6666666666667</ele><time>2026-04-18T15:52:32.278Z</time></trkpt><trkpt lat="40.1585257" lon="9.5160557"><ele>950.0</ele><time>2026-04-18T15:52:33.277Z</time></trkpt><trkpt lat="40.1583919" lon="9.5162171"><ele>956.0</ele><time>2026-04-18T15:52:34.276Z</time></trkpt><trkpt lat="40.1583574" lon="9.5164662"><ele>962.0</ele><time>2026-04-18T15:52:35.277Z</time></trkpt><trkpt lat="40.1582932" lon="9.5166548"><ele>968.0</ele><time>2026-04-18T15:52:36.277Z</time></trkpt><trkpt lat="40.15825" lon="9.516869"><ele>967.6666666666667</ele><time>2026-04-18T15:52:37.277Z</time></trkpt><trkpt lat="40.1582204" lon="9.5171119"><ele>967.3333333333333</ele><time>2026-04-18T15:52:38.277Z</time></trkpt><trkpt lat="40.158303" lon="9.5173988"><ele>967.0</ele><time>2026-04-18T15:52:39.277Z</time></trkpt><trkpt lat="40.1583473" lon="9.5176485"><ele>967.0</ele><time>2026-04-18T15:52:40.277Z</time></trkpt><trkpt lat="40.158404" lon="9.5178846"><ele>967.0</ele><time>2026-04-18T15:52:41.277Z</time></trkpt><trkpt lat="40.1584598" lon="9.518103"><ele>967.0</ele><time>2026-04-18T15:52:42.277Z</time></trkpt><trkpt lat="40.158516" lon="9.5183054"><ele>963.0</ele><time>2026-04-18T15:52:43.277Z</time></trkpt><trkpt lat="40.1585803" lon="9.5184929"><ele>959.0</ele><time>2026-04-18T15:52:44.277Z</time></trkpt><trkpt lat="40.1586597" lon="9.5186729"><ele>955.0</ele><time>2026-04-18T15:52:45.276Z</time></trkpt><trkpt lat="40.1588473" lon="9.5188512"><ele>958.3333333333333</ele><time>2026-04-18T15:52:46.277Z</time></trkpt><trkpt lat="40.1590021" lon="9.5190166"><ele>961.6666666666667</ele><time>2026-04-18T15:52:47.277Z</time></trkpt><trkpt lat="40.1591523" lon="9.5191536"><ele>965.0</ele><time>2026-04-18T15:52:48.277Z</time></trkpt><trkpt lat="40.1592916" lon="9.5192699"><ele>965.0</ele><time>2026-04-18T15:52:49.277Z</time></trkpt><trkpt lat="40.1594479" lon="9.5193675"><ele>965.0</ele><time>2026-04-18T15:52:50.278Z</time></trkpt><trkpt lat="40.1596419" lon="9.519431"><ele>965.0</ele><time>2026-04-18T15:52:51.278Z</time></trkpt><trkpt lat="40.1598346" lon="9.5194925"><ele>970.0</ele><time>2026-04-18T15:52:52.277Z</time></trkpt><trkpt lat="40.1600743" lon="9.5194602"><ele>975.0</ele><time>2026-04-18T15:52:53.277Z</time></trkpt><trkpt lat="40.1602795" lon="9.5194631"><ele>980.0</ele><time>2026-04-18T15:52:54.277Z</time></trkpt><trkpt lat="40.1604856" lon="9.5194557"><ele>979.3333333333334</ele><time>2026-04-18T15:52:55.277Z</time></trkpt><trkpt lat="40.1607045" lon="9.5194457"><ele>978.6666666666667</ele><time>2026-04-18T15:52:56.277Z</time></trkpt><trkpt lat="40.1609147" lon="9.5194429"><ele>978.0</ele><time>2026-04-18T15:52:57.276Z</time></trkpt><trkpt lat="40.1611235" lon="9.5194312"><ele>978.0</ele><time>2026-04-18T15:52:58.277Z</time></trkpt><trkpt lat="40.161329" lon="9.5194207"><ele>978.0</ele><time>2026-04-18T15:52:59.278Z</time></trkpt><trkpt lat="40.1615219" lon="9.5194111"><ele>978.0</ele><time>2026-04-18T15:53:00.277Z</time></trkpt><trkpt lat="40.1617056" lon="9.5194023"><ele>976.0</ele><time>2026-04-18T15:53:01.278Z</time></trkpt><trkpt lat="40.1618754" lon="9.5193925"><ele>974.0</ele><time>2026-04-18T15:53:02.278Z</time></trkpt><trkpt lat="40.1620326" lon="9.5193854"><ele>972.0</ele><time>2026-04-18T15:53:03.278Z</time></trkpt><trkpt lat="40.16217" lon="9.5193972"><ele>972.0</ele><time>2026-04-18T15:53:04.277Z</time></trkpt><trkpt lat="40.1623" lon="9.5194526"><ele>972.0</ele><time>2026-04-18T15:53:05.277Z</time></trkpt><trkpt lat="40.1624069" lon="9.5195491"><ele>972.0</ele><time>2026-04-18T15:53:06.277Z</time></trkpt><trkpt lat="40.1624978" lon="9.5196724"><ele>972.0</ele><time>2026-04-18T15:53:07.277Z</time></trkpt><trkpt lat="40.1625378" lon="9.5198124"><ele>968.75</ele><time>2026-04-18T15:53:08.276Z</time></trkpt><trkpt lat="40.1625351" lon="9.5199805"><ele>965.5</ele><time>2026-04-18T15:53:09.278Z</time></trkpt><trkpt lat="40.1624918" lon="9.5201693"><ele>962.25</ele><time>2026-04-18T15:53:10.277Z</time></trkpt><trkpt lat="40.1624317" lon="9.5203778"><ele>959.0</ele><time>2026-04-18T15:53:11.276Z</time></trkpt><trkpt lat="40.1623643" lon="9.5205868"><ele>948.3333333333334</ele><time>2026-04-18T15:53:12.277Z</time></trkpt><trkpt lat="40.1622812" lon="9.5207877"><ele>937.6666666666667</ele><time>2026-04-18T15:53:13.277Z</time></trkpt><trkpt lat="40.1621956" lon="9.520974"><ele>927.0</ele><time>2026-04-18T15:53:14.277Z</time></trkpt><trkpt lat="40.1621207" lon="9.5211632"><ele>927.3333333333333</ele><time>2026-04-18T15:53:15.277Z</time></trkpt><trkpt lat="40.1620732" lon="9.5213581"><ele>927.6666666666666</ele><time>2026-04-18T15:53:16.278Z</time></trkpt><trkpt lat="40.1620522" lon="9.5215662"><ele>928.0</ele><time>2026-04-18T15:53:17.277Z</time></trkpt><trkpt lat="40.1620726" lon="9.5217839"><ele>928.0</ele><time>2026-04-18T15:53:18.277Z</time></trkpt><trkpt lat="40.1620996" lon="9.5219859"><ele>928.0</ele><time>2026-04-18T15:53:19.277Z</time></trkpt><trkpt lat="40.1621088" lon="9.52218"><ele>928.0</ele><time>2026-04-18T15:53:20.277Z</time></trkpt><trkpt lat="40.1620714" lon="9.5223769"><ele>928.3333333333333</ele><time>2026-04-18T15:53:21.277Z</time></trkpt><trkpt lat="40.1619982" lon="9.5225727"><ele>928.6666666666667</ele><time>2026-04-18T15:53:22.277Z</time></trkpt><trkpt lat="40.1619276" lon="9.5227649"><ele>929.0</ele><time>2026-04-18T15:53:23.277Z</time></trkpt><trkpt lat="40.1618659" lon="9.5229491"><ele>930.75</ele><time>2026-04-18T15:53:24.277Z</time></trkpt><trkpt lat="40.161835" lon="9.5231235"><ele>932.5</ele><time>2026-04-18T15:53:25.277Z</time></trkpt><trkpt lat="40.1618407" lon="9.523305"><ele>934.25</ele><time>2026-04-18T15:53:26.278Z</time></trkpt><trkpt lat="40.1618805" lon="9.523492"><ele>936.0</ele><time>2026-04-18T15:53:27.276Z</time></trkpt><trkpt lat="40.1619288" lon="9.5236856"><ele>933.5</ele><time>2026-04-18T15:53:28.278Z</time></trkpt><trkpt lat="40.1619996" lon="9.5238628"><ele>931.0</ele><time>2026-04-18T15:53:29.277Z</time></trkpt><trkpt lat="40.1620257" lon="9.5240287"><ele>928.5</ele><time>2026-04-18T15:53:30.276Z</time></trkpt><trkpt lat="40.1620626" lon="9.5241789"><ele>926.0</ele><time>2026-04-18T15:53:31.277Z</time></trkpt><trkpt lat="40.1621248" lon="9.5243303"><ele>926.0</ele><time>2026-04-18T15:53:32.277Z</time></trkpt><trkpt lat="40.1622013" lon="9.5244679"><ele>926.0</ele><time>2026-04-18T15:53:33.277Z</time></trkpt><trkpt lat="40.1622932" lon="9.5245954"><ele>926.0</ele><time>2026-04-18T15:53:34.278Z</time></trkpt><trkpt lat="40.1623895" lon="9.5247104"><ele>926.0</ele><time>2026-04-18T15:53:35.276Z</time></trkpt><trkpt lat="40.1624926" lon="9.5248079"><ele>929.0</ele><time>2026-04-18T15:53:36.278Z</time></trkpt><trkpt lat="40.1625989" lon="9.5248777"><ele>931.9999999999999</ele><time>2026-04-18T15:53:37.277Z</time></trkpt><trkpt lat="40.1627058" lon="9.5249276"><ele>934.9999999999999</ele><time>2026-04-18T15:53:38.277Z</time></trkpt><trkpt lat="40.1628017" lon="9.5249665"><ele>938.0</ele><time>2026-04-18T15:53:39.278Z</time></trkpt><trkpt lat="40.1628899" lon="9.5250055"><ele>941.0</ele><time>2026-04-18T15:53:40.278Z</time></trkpt><trkpt lat="40.1629662" lon="9.5250887"><ele>941.0</ele><time>2026-04-18T15:53:41.277Z</time></trkpt><trkpt lat="40.1630174" lon="9.5252063"><ele>940.9999999999999</ele><time>2026-04-18T15:53:42.278Z</time></trkpt><trkpt lat="40.1630335" lon="9.5253467"><ele>940.9999999999999</ele><time>2026-04-18T15:53:43.278Z</time></trkpt><trkpt lat="40.1630074" lon="9.5254937"><ele>941.0</ele><time>2026-04-18T15:53:44.276Z</time></trkpt><trkpt lat="40.1629577" lon="9.5256332"><ele>941.0</ele><time>2026-04-18T15:53:45.277Z</time></trkpt><trkpt lat="40.1628952" lon="9.5257769"><ele>941.5</ele><time>2026-04-18T15:53:46.277Z</time></trkpt><trkpt lat="40.1628287" lon="9.525923"><ele>942.0</ele><time>2026-04-18T15:53:47.278Z</time></trkpt><trkpt lat="40.1627656" lon="9.5260675"><ele>942.5</ele><time>2026-04-18T15:53:48.278Z</time></trkpt><trkpt lat="40.1627096" lon="9.5261959"><ele>943.0</ele><time>2026-04-18T15:53:49.277Z</time></trkpt><trkpt lat="40.1626624" lon="9.5263275"><ele>943.0</ele><time>2026-04-18T15:53:50.277Z</time></trkpt><trkpt lat="40.16263" lon="9.5264639"><ele>943.0</ele><time>2026-04-18T15:53:51.277Z</time></trkpt><trkpt lat="40.1626178" lon="9.5266151"><ele>943.0</ele><time>2026-04-18T15:53:52.277Z</time></trkpt><trkpt lat="40.1626278" lon="9.5267718"><ele>943.0</ele><time>2026-04-18T15:53:53.277Z</time></trkpt><trkpt lat="40.1626635" lon="9.5269181"><ele>943.0</ele><time>2026-04-18T15:53:54.276Z</time></trkpt><trkpt lat="40.1627318" lon="9.5270441"><ele>943.0</ele><time>2026-04-18T15:53:55.277Z</time></trkpt><trkpt lat="40.1628265" lon="9.5271544"><ele>943.0</ele><time>2026-04-18T15:53:56.278Z</time></trkpt><trkpt lat="40.1629407" lon="9.5272641"><ele>943.0</ele><time>2026-04-18T15:53:57.277Z</time></trkpt><trkpt lat="40.1630535" lon="9.5273738"><ele>945.0</ele><time>2026-04-18T15:53:58.277Z</time></trkpt><trkpt lat="40.1631544" lon="9.5274826"><ele>947.0</ele><time>2026-04-18T15:53:59.277Z</time></trkpt><trkpt lat="40.1632477" lon="9.5275836"><ele>949.0</ele><time>2026-04-18T15:54:00.277Z</time></trkpt><trkpt lat="40.163326" lon="9.5277068"><ele>951.0</ele><time>2026-04-18T15:54:01.277Z</time></trkpt><trkpt lat="40.1633797" lon="9.5278534"><ele>948.25</ele><time>2026-04-18T15:54:02.277Z</time></trkpt><trkpt lat="40.163416" lon="9.5280059"><ele>945.5</ele><time>2026-04-18T15:54:03.277Z</time></trkpt><trkpt lat="40.1634461" lon="9.5281593"><ele>942.75</ele><time>2026-04-18T15:54:04.277Z</time></trkpt><trkpt lat="40.163479" lon="9.5283081"><ele>940.0</ele><time>2026-04-18T15:54:05.277Z</time></trkpt><trkpt lat="40.1635245" lon="9.5284446"><ele>940.0</ele><time>2026-04-18T15:54:06.276Z</time></trkpt><trkpt lat="40.1636012" lon="9.5285679"><ele>940.0</ele><time>2026-04-18T15:54:07.276Z</time></trkpt><trkpt lat="40.1636997" lon="9.5286729"><ele>940.0</ele><time>2026-04-18T15:54:08.276Z</time></trkpt><trkpt lat="40.163815" lon="9.5287544"><ele>940.0</ele><time>2026-04-18T15:54:09.277Z</time></trkpt><trkpt lat="40.1639433" lon="9.5288126"><ele>937.6666666666666</ele><time>2026-04-18T15:54:10.277Z</time></trkpt><trkpt lat="40.1641082" lon="9.5288468"><ele>935.3333333333333</ele><time>2026-04-18T15:54:11.277Z</time></trkpt><trkpt lat="40.1643039" lon="9.5288672"><ele>933.0</ele><time>2026-04-18T15:54:12.277Z</time></trkpt><trkpt lat="40.164511" lon="9.5288829"><ele>933.0</ele><time>2026-04-18T15:54:13.277Z</time></trkpt><trkpt lat="40.1647051" lon="9.5288883"><ele>933.0</ele><time>2026-04-18T15:54:14.277Z</time></trkpt><trkpt lat="40.1648927" lon="9.5288937"><ele>933.0</ele><time>2026-04-18T15:54:15.278Z</time></trkpt><trkpt lat="40.1650798" lon="9.528894"><ele>931.6666666666667</ele><time>2026-04-18T15:54:16.277Z</time></trkpt><trkpt lat="40.1652557" lon="9.5288801"><ele>930.3333333333334</ele><time>2026-04-18T15:54:17.277Z</time></trkpt><trkpt lat="40.1654391" lon="9.5288309"><ele>929.0</ele><time>2026-04-18T15:54:18.277Z</time></trkpt><trkpt lat="40.1656489" lon="9.5286845"><ele>932.3333333333334</ele><time>2026-04-18T15:54:19.277Z</time></trkpt><trkpt lat="40.1658192" lon="9.5285761"><ele>935.6666666666667</ele><time>2026-04-18T15:54:20.276Z</time></trkpt><trkpt lat="40.1660075" lon="9.5284755"><ele>939.0</ele><time>2026-04-18T15:54:21.276Z</time></trkpt><trkpt lat="40.1662038" lon="9.5284323"><ele>939.0</ele><time>2026-04-18T15:54:22.277Z</time></trkpt><trkpt lat="40.1664212" lon="9.528428"><ele>939.0</ele><time>2026-04-18T15:54:23.276Z</time></trkpt><trkpt lat="40.16662" lon="9.5284254"><ele>939.0</ele><time>2026-04-18T15:54:24.276Z</time></trkpt><trkpt lat="40.1668371" lon="9.528408"><ele>937.0</ele><time>2026-04-18T15:54:25.276Z</time></trkpt><trkpt lat="40.1670983" lon="9.5283151"><ele>935.0</ele><time>2026-04-18T15:54:26.277Z</time></trkpt><trkpt lat="40.167328" lon="9.5282304"><ele>931.5</ele><time>2026-04-18T15:54:27.277Z</time></trkpt><trkpt lat="40.1675496" lon="9.5281464"><ele>928.0</ele><time>2026-04-18T15:54:28.278Z</time></trkpt><trkpt lat="40.1677618" lon="9.5280593"><ele>928.0</ele><time>2026-04-18T15:54:29.277Z</time></trkpt><trkpt lat="40.1679855" lon="9.5279321"><ele>928.0</ele><time>2026-04-18T15:54:30.277Z</time></trkpt><trkpt lat="40.1682231" lon="9.527758"><ele>927.5</ele><time>2026-04-18T15:54:31.276Z</time></trkpt><trkpt lat="40.1684659" lon="9.5275641"><ele>927.0</ele><time>2026-04-18T15:54:32.277Z</time></trkpt><trkpt lat="40.1686899" lon="9.5273791"><ele>927.0</ele><time>2026-04-18T15:54:33.277Z</time></trkpt><trkpt lat="40.1689009" lon="9.5272042"><ele>927.0</ele><time>2026-04-18T15:54:34.277Z</time></trkpt><trkpt lat="40.1690978" lon="9.5270484"><ele>926.0</ele><time>2026-04-18T15:54:35.278Z</time></trkpt><trkpt lat="40.1692675" lon="9.5268987"><ele>925.0</ele><time>2026-04-18T15:54:36.278Z</time></trkpt><trkpt lat="40.1694033" lon="9.5267597"><ele>924.0</ele><time>2026-04-18T15:54:37.277Z</time></trkpt><trkpt lat="40.1695239" lon="9.5266071"><ele>924.0</ele><time>2026-04-18T15:54:38.277Z</time></trkpt><trkpt lat="40.1696354" lon="9.5264375"><ele>924.0</ele><time>2026-04-18T15:54:39.276Z</time></trkpt><trkpt lat="40.1697036" lon="9.5262392"><ele>924.0</ele><time>2026-04-18T15:54:40.277Z</time></trkpt><trkpt lat="40.1697637" lon="9.5260666"><ele>921.8000000000001</ele><time>2026-04-18T15:54:41.277Z</time></trkpt><trkpt lat="40.1698189" lon="9.5259251"><ele>919.6000000000001</ele><time>2026-04-18T15:54:42.277Z</time></trkpt><trkpt lat="40.1698979" lon="9.5258344"><ele>917.4</ele><time>2026-04-18T15:54:43.277Z</time></trkpt><trkpt lat="40.1700031" lon="9.525794"><ele>915.2</ele><time>2026-04-18T15:54:44.278Z</time></trkpt><trkpt lat="40.1701093" lon="9.5258254"><ele>913.0</ele><time>2026-04-18T15:54:45.278Z</time></trkpt><trkpt lat="40.170203" lon="9.5259246"><ele>913.0</ele><time>2026-04-18T15:54:46.278Z</time></trkpt><trkpt lat="40.1702788" lon="9.526088"><ele>913.0</ele><time>2026-04-18T15:54:47.277Z</time></trkpt><trkpt lat="40.1703526" lon="9.5262803"><ele>913.0</ele><time>2026-04-18T15:54:48.276Z</time></trkpt><trkpt lat="40.1704376" lon="9.526454"><ele>913.0</ele><time>2026-04-18T15:54:49.277Z</time></trkpt><trkpt lat="40.1705444" lon="9.5266152"><ele>913.0</ele><time>2026-04-18T15:54:50.278Z</time></trkpt><trkpt lat="40.170681" lon="9.5267659"><ele>913.0</ele><time>2026-04-18T15:54:51.276Z</time></trkpt><trkpt lat="40.1708567" lon="9.5268838"><ele>913.0</ele><time>2026-04-18T15:54:52.278Z</time></trkpt><trkpt lat="40.1710408" lon="9.5270091"><ele>913.0</ele><time>2026-04-18T15:54:53.277Z</time></trkpt><trkpt lat="40.1712623" lon="9.5270544"><ele>913.0</ele><time>2026-04-18T15:54:54.276Z</time></trkpt><trkpt lat="40.1714545" lon="9.5271197"><ele>910.0</ele><time>2026-04-18T15:54:55.276Z</time></trkpt><trkpt lat="40.1716683" lon="9.5271409"><ele>907.0</ele><time>2026-04-18T15:54:56.277Z</time></trkpt><trkpt lat="40.1718832" lon="9.52716"><ele>904.0</ele><time>2026-04-18T15:54:57.277Z</time></trkpt><trkpt lat="40.1721189" lon="9.5270835"><ele>904.3333333333333</ele><time>2026-04-18T15:54:58.277Z</time></trkpt><trkpt lat="40.1723309" lon="9.5270472"><ele>904.6666666666667</ele><time>2026-04-18T15:54:59.276Z</time></trkpt><trkpt lat="40.172537" lon="9.5270067"><ele>905.0</ele><time>2026-04-18T15:55:00.276Z</time></trkpt><trkpt lat="40.1727308" lon="9.5269624"><ele>905.0</ele><time>2026-04-18T15:55:01.277Z</time></trkpt><trkpt lat="40.172919" lon="9.5269171"><ele>905.0</ele><time>2026-04-18T15:55:02.277Z</time></trkpt><trkpt lat="40.1731024" lon="9.5268721"><ele>905.0</ele><time>2026-04-18T15:55:03.278Z</time></trkpt><trkpt lat="40.1732852" lon="9.5268458"><ele>900.3333333333334</ele><time>2026-04-18T15:55:04.278Z</time></trkpt><trkpt lat="40.173491" lon="9.5268676"><ele>895.6666666666667</ele><time>2026-04-18T15:55:05.278Z</time></trkpt><trkpt lat="40.173723" lon="9.5269263"><ele>891.0</ele><time>2026-04-18T15:55:06.278Z</time></trkpt><trkpt lat="40.1739537" lon="9.5269873"><ele>886.3333333333333</ele><time>2026-04-18T15:55:07.277Z</time></trkpt><trkpt lat="40.1741706" lon="9.5270444"><ele>881.6666666666666</ele><time>2026-04-18T15:55:08.277Z</time></trkpt><trkpt lat="40.1743786" lon="9.5271001"><ele>877.0</ele><time>2026-04-18T15:55:09.277Z</time></trkpt><trkpt lat="40.1745792" lon="9.5271509"><ele>888.0</ele><time>2026-04-18T15:55:10.277Z</time></trkpt><trkpt lat="40.1747707" lon="9.5271997"><ele>899.0</ele><time>2026-04-18T15:55:11.277Z</time></trkpt><trkpt lat="40.1749564" lon="9.5272256"><ele>910.0</ele><time>2026-04-18T15:55:12.277Z</time></trkpt><trkpt lat="40.1751319" lon="9.527227"><ele>910.0</ele><time>2026-04-18T15:55:13.278Z</time></trkpt><trkpt lat="40.1752943" lon="9.5272397"><ele>910.0</ele><time>2026-04-18T15:55:14.278Z</time></trkpt><trkpt lat="40.1754388" lon="9.5272718"><ele>910.0</ele><time>2026-04-18T15:55:15.277Z</time></trkpt><trkpt lat="40.1755713" lon="9.5273008"><ele>910.0</ele><time>2026-04-18T15:55:16.277Z</time></trkpt><trkpt lat="40.1757059" lon="9.5272626"><ele>909.25</ele><time>2026-04-18T15:55:17.277Z</time></trkpt><trkpt lat="40.1758367" lon="9.5272481"><ele>908.5</ele><time>2026-04-18T15:55:18.277Z</time></trkpt><trkpt lat="40.1759579" lon="9.5271715"><ele>907.75</ele><time>2026-04-18T15:55:19.278Z</time></trkpt><trkpt lat="40.1760946" lon="9.5271026"><ele>907.0</ele><time>2026-04-18T15:55:20.277Z</time></trkpt><trkpt lat="40.176249" lon="9.5270863"><ele>907.0</ele><time>2026-04-18T15:55:21.277Z</time></trkpt><trkpt lat="40.1764024" lon="9.5271046"><ele>907.0</ele><time>2026-04-18T15:55:22.277Z</time></trkpt><trkpt lat="40.1765599" lon="9.527157"><ele>907.0</ele><time>2026-04-18T15:55:23.276Z</time></trkpt><trkpt lat="40.1767339" lon="9.5272326"><ele>903.3333333333333</ele><time>2026-04-18T15:55:24.276Z</time></trkpt><trkpt lat="40.176909" lon="9.5273547"><ele>899.6666666666667</ele><time>2026-04-18T15:55:25.276Z</time></trkpt><trkpt lat="40.1770664" lon="9.527464"><ele>896.0</ele><time>2026-04-18T15:55:26.276Z</time></trkpt><trkpt lat="40.177205" lon="9.5275866"><ele>896.0</ele><time>2026-04-18T15:55:27.276Z</time></trkpt><trkpt lat="40.17733" lon="9.5277676"><ele>896.0</ele><time>2026-04-18T15:55:28.276Z</time></trkpt><trkpt lat="40.1774482" lon="9.5279549"><ele>896.0</ele><time>2026-04-18T15:55:29.277Z</time></trkpt><trkpt lat="40.1775651" lon="9.5281434"><ele>892.3333333333334</ele><time>2026-04-18T15:55:30.277Z</time></trkpt><trkpt lat="40.1776802" lon="9.5283223"><ele>888.6666666666667</ele><time>2026-04-18T15:55:31.277Z</time></trkpt><trkpt lat="40.177801" lon="9.5284902"><ele>885.0</ele><time>2026-04-18T15:55:32.277Z</time></trkpt><trkpt lat="40.1779305" lon="9.5286408"><ele>883.0</ele><time>2026-04-18T15:55:33.278Z</time></trkpt><trkpt lat="40.178065" lon="9.5287782"><ele>881.0</ele><time>2026-04-18T15:55:34.277Z</time></trkpt><trkpt lat="40.1781998" lon="9.5288973"><ele>879.0</ele><time>2026-04-18T15:55:35.277Z</time></trkpt><trkpt lat="40.1783395" lon="9.528987"><ele>879.0</ele><time>2026-04-18T15:55:36.277Z</time></trkpt><trkpt lat="40.1784902" lon="9.5290613"><ele>879.0</ele><time>2026-04-18T15:55:37.277Z</time></trkpt><trkpt lat="40.1786274" lon="9.5290905"><ele>879.0</ele><time>2026-04-18T15:55:38.277Z</time></trkpt><trkpt lat="40.1787545" lon="9.5291518"><ele>879.0</ele><time>2026-04-18T15:55:39.277Z</time></trkpt><trkpt lat="40.1788654" lon="9.5292566"><ele>879.0</ele><time>2026-04-18T15:55:40.277Z</time></trkpt><trkpt lat="40.1789512" lon="9.5294211"><ele>879.0</ele><time>2026-04-18T15:55:41.276Z</time></trkpt><trkpt lat="40.1790351" lon="9.5296132"><ele>879.0</ele><time>2026-04-18T15:55:42.277Z</time></trkpt><trkpt lat="40.1791214" lon="9.5297822"><ele>876.25</ele><time>2026-04-18T15:55:43.276Z</time></trkpt><trkpt lat="40.1792023" lon="9.5299315"><ele>873.5</ele><time>2026-04-18T15:55:44.277Z</time></trkpt><trkpt lat="40.1792598" lon="9.5300743"><ele>870.75</ele><time>2026-04-18T15:55:45.277Z</time></trkpt><trkpt lat="40.1792774" lon="9.5302263"><ele>868.0</ele><time>2026-04-18T15:55:46.278Z</time></trkpt><trkpt lat="40.1792456" lon="9.5303955"><ele>867.6666666666666</ele><time>2026-04-18T15:55:47.277Z</time></trkpt><trkpt lat="40.1791827" lon="9.5305883"><ele>867.3333333333333</ele><time>2026-04-18T15:55:48.278Z</time></trkpt><trkpt lat="40.1791199" lon="9.5308063"><ele>867.0</ele><time>2026-04-18T15:55:49.277Z</time></trkpt><trkpt lat="40.179072" lon="9.5310299"><ele>863.6666666666667</ele><time>2026-04-18T15:55:50.277Z</time></trkpt><trkpt lat="40.1790401" lon="9.5312357"><ele>860.3333333333334</ele><time>2026-04-18T15:55:51.277Z</time></trkpt><trkpt lat="40.1790362" lon="9.5314405"><ele>857.0</ele><time>2026-04-18T15:55:52.276Z</time></trkpt><trkpt lat="40.179033" lon="9.5316373"><ele>857.0</ele><time>2026-04-18T15:55:53.276Z</time></trkpt><trkpt lat="40.179053" lon="9.5318212"><ele>857.0</ele><time>2026-04-18T15:55:54.277Z</time></trkpt><trkpt lat="40.1790316" lon="9.5319995"><ele>857.0</ele><time>2026-04-18T15:55:55.276Z</time></trkpt><trkpt lat="40.1790078" lon="9.5321638"><ele>857.0</ele><time>2026-04-18T15:55:56.276Z</time></trkpt><trkpt lat="40.1790025" lon="9.5323165"><ele>858.75</ele><time>2026-04-18T15:55:57.277Z</time></trkpt><trkpt lat="40.1790184" lon="9.5324623"><ele>860.5</ele><time>2026-04-18T15:55:58.277Z</time></trkpt><trkpt lat="40.1790857" lon="9.5325922"><ele>862.25</ele><time>2026-04-18T15:55:59.277Z</time></trkpt><trkpt lat="40.1791938" lon="9.5326962"><ele>864.0</ele><time>2026-04-18T15:56:00.276Z</time></trkpt><trkpt lat="40.1793113" lon="9.5327956"><ele>864.0</ele><time>2026-04-18T15:56:01.276Z</time></trkpt><trkpt lat="40.1795141" lon="9.5328175"><ele>864.0</ele><time>2026-04-18T15:56:02.277Z</time></trkpt><trkpt lat="40.1796897" lon="9.532834"><ele>864.0</ele><time>2026-04-18T15:56:03.276Z</time></trkpt><trkpt lat="40.1798707" lon="9.5328221"><ele>857.3333333333333</ele><time>2026-04-18T15:56:04.277Z</time></trkpt><trkpt lat="40.1800428" lon="9.5327884"><ele>850.6666666666666</ele><time>2026-04-18T15:56:05.278Z</time></trkpt><trkpt lat="40.1802098" lon="9.5327669"><ele>844.0</ele><time>2026-04-18T15:56:06.277Z</time></trkpt><trkpt lat="40.1803907" lon="9.5327798"><ele>844.0</ele><time>2026-04-18T15:56:07.277Z</time></trkpt><trkpt lat="40.1805837" lon="9.5328305"><ele>844.0</ele><time>2026-04-18T15:56:08.277Z</time></trkpt><trkpt lat="40.1807638" lon="9.5328913"><ele>844.0</ele><time>2026-04-18T15:56:09.277Z</time></trkpt><trkpt lat="40.1809312" lon="9.5329472"><ele>857.6666666666666</ele><time>2026-04-18T15:56:10.276Z</time></trkpt><trkpt lat="40.1810814" lon="9.5329864"><ele>871.3333333333333</ele><time>2026-04-18T15:56:11.276Z</time></trkpt><trkpt lat="40.1812354" lon="9.5329859"><ele>885.0</ele><time>2026-04-18T15:56:12.276Z</time></trkpt><trkpt lat="40.1813919" lon="9.5329726"><ele>872.5</ele><time>2026-04-18T15:56:13.276Z</time></trkpt><trkpt lat="40.1815138" lon="9.532873"><ele>860.0</ele><time>2026-04-18T15:56:14.277Z</time></trkpt><trkpt lat="40.181648" lon="9.5328309"><ele>847.5</ele><time>2026-04-18T15:56:15.278Z</time></trkpt><trkpt lat="40.1817742" lon="9.5328303"><ele>835.0</ele><time>2026-04-18T15:56:16.277Z</time></trkpt><trkpt lat="40.1819217" lon="9.5328767"><ele>846.3333333333333</ele><time>2026-04-18T15:56:17.277Z</time></trkpt><trkpt lat="40.1820841" lon="9.5329504"><ele>857.6666666666667</ele><time>2026-04-18T15:56:18.278Z</time></trkpt><trkpt lat="40.1822554" lon="9.5330392"><ele>869.0</ele><time>2026-04-18T15:56:19.277Z</time></trkpt><trkpt lat="40.1824258" lon="9.5331218"><ele>869.0</ele><time>2026-04-18T15:56:20.277Z</time></trkpt><trkpt lat="40.1826029" lon="9.5331862"><ele>869.0</ele><time>2026-04-18T15:56:21.277Z</time></trkpt><trkpt lat="40.1827847" lon="9.5332284"><ele>869.0</ele><time>2026-04-18T15:56:22.278Z</time></trkpt><trkpt lat="40.1829752" lon="9.5332472"><ele>869.0</ele><time>2026-04-18T15:56:23.277Z</time></trkpt><trkpt lat="40.183158" lon="9.5332626"><ele>869.0</ele><time>2026-04-18T15:56:24.277Z</time></trkpt><trkpt lat="40.1833361" lon="9.5332883"><ele>869.0</ele><time>2026-04-18T15:56:25.277Z</time></trkpt><trkpt lat="40.1835188" lon="9.5333237"><ele>864.0</ele><time>2026-04-18T15:56:26.277Z</time></trkpt><trkpt lat="40.183694" lon="9.5333794"><ele>859.0</ele><time>2026-04-18T15:56:27.276Z</time></trkpt><trkpt lat="40.1838609" lon="9.5334388"><ele>854.0</ele><time>2026-04-18T15:56:28.277Z</time></trkpt><trkpt lat="40.1840124" lon="9.5334948"><ele>857.25</ele><time>2026-04-18T15:56:29.278Z</time></trkpt><trkpt lat="40.1841466" lon="9.5335671"><ele>860.5</ele><time>2026-04-18T15:56:30.277Z</time></trkpt><trkpt lat="40.1842717" lon="9.5336832"><ele>863.75</ele><time>2026-04-18T15:56:31.277Z</time></trkpt><trkpt lat="40.1843652" lon="9.5338345"><ele>867.0</ele><time>2026-04-18T15:56:32.276Z</time></trkpt><trkpt lat="40.1844241" lon="9.5340003"><ele>867.0</ele><time>2026-04-18T15:56:33.278Z</time></trkpt><trkpt lat="40.1844657" lon="9.5341553"><ele>867.0</ele><time>2026-04-18T15:56:34.278Z</time></trkpt><trkpt lat="40.1845277" lon="9.5342969"><ele>867.0</ele><time>2026-04-18T15:56:35.278Z</time></trkpt><trkpt lat="40.184596" lon="9.5343982"><ele>867.0</ele><time>2026-04-18T15:56:36.277Z</time></trkpt><trkpt lat="40.1846748" lon="9.534482"><ele>857.3333333333333</ele><time>2026-04-18T15:56:37.277Z</time></trkpt><trkpt lat="40.1848611" lon="9.534495"><ele>847.6666666666666</ele><time>2026-04-18T15:56:38.278Z</time></trkpt><trkpt lat="40.1850392" lon="9.5343466"><ele>838.0</ele><time>2026-04-18T15:56:39.277Z</time></trkpt><trkpt lat="40.1851699" lon="9.5343462"><ele>838.0</ele><time>2026-04-18T15:56:40.277Z</time></trkpt><trkpt lat="40.185299" lon="9.534371"><ele>838.0</ele><time>2026-04-18T15:56:41.277Z</time></trkpt><trkpt lat="40.1853906" lon="9.5344455"><ele>838.0</ele><time>2026-04-18T15:56:42.277Z</time></trkpt><trkpt lat="40.1854624" lon="9.5345846"><ele>838.0</ele><time>2026-04-18T15:56:43.277Z</time></trkpt><trkpt lat="40.1855227" lon="9.5347556"><ele>845.25</ele><time>2026-04-18T15:56:44.277Z</time></trkpt><trkpt lat="40.1855789" lon="9.5349122"><ele>852.5</ele><time>2026-04-18T15:56:45.277Z</time></trkpt><trkpt lat="40.1856191" lon="9.535085"><ele>859.75</ele><time>2026-04-18T15:56:46.277Z</time></trkpt><trkpt lat="40.1856248" lon="9.535257"><ele>867.0</ele><time>2026-04-18T15:56:47.277Z</time></trkpt><trkpt lat="40.1856207" lon="9.5354197"><ele>872.5</ele><time>2026-04-18T15:56:48.277Z</time></trkpt><trkpt lat="40.1856208" lon="9.5355825"><ele>878.0</ele><time>2026-04-18T15:56:49.277Z</time></trkpt><trkpt lat="40.1856287" lon="9.5357388"><ele>883.5</ele><time>2026-04-18T15:56:50.278Z</time></trkpt><trkpt lat="40.1856558" lon="9.5358779"><ele>889.0</ele><time>2026-04-18T15:56:51.278Z</time></trkpt><trkpt lat="40.1857893" lon="9.5360168"><ele>884.0</ele><time>2026-04-18T15:56:52.277Z</time></trkpt><trkpt lat="40.1859068" lon="9.536132"><ele>879.0</ele><time>2026-04-18T15:56:53.278Z</time></trkpt><trkpt lat="40.1859869" lon="9.536253"><ele>874.0</ele><time>2026-04-18T15:56:54.278Z</time></trkpt><trkpt lat="40.1860796" lon="9.536329"><ele>869.0</ele><time>2026-04-18T15:56:55.277Z</time></trkpt><trkpt lat="40.1862141" lon="9.5363275"><ele>869.0</ele><time>2026-04-18T15:56:56.278Z</time></trkpt><trkpt lat="40.1863521" lon="9.536274"><ele>869.0</ele><time>2026-04-18T15:56:57.277Z</time></trkpt><trkpt lat="40.1864993" lon="9.5362005"><ele>869.0</ele><time>2026-04-18T15:56:58.278Z</time></trkpt><trkpt lat="40.1866307" lon="9.535987"><ele>855.6666666666667</ele><time>2026-04-18T15:56:59.277Z</time></trkpt><trkpt lat="40.1867684" lon="9.5358692"><ele>842.3333333333333</ele><time>2026-04-18T15:57:00.277Z</time></trkpt><trkpt lat="40.1869084" lon="9.5357502"><ele>829.0</ele><time>2026-04-18T15:57:01.277Z</time></trkpt><trkpt lat="40.1870333" lon="9.5356495"><ele>829.0</ele><time>2026-04-18T15:57:02.278Z</time></trkpt><trkpt lat="40.1871433" lon="9.5355717"><ele>829.0</ele><time>2026-04-18T15:57:03.277Z</time></trkpt><trkpt lat="40.1872517" lon="9.5355486"><ele>829.0</ele><time>2026-04-18T15:57:04.278Z</time></trkpt><trkpt lat="40.187362" lon="9.535588"><ele>829.0</ele><time>2026-04-18T15:57:05.276Z</time></trkpt><trkpt lat="40.1874784" lon="9.535694"><ele>829.5</ele><time>2026-04-18T15:57:06.278Z</time></trkpt><trkpt lat="40.1875772" lon="9.5358022"><ele>830.0</ele><time>2026-04-18T15:57:07.277Z</time></trkpt><trkpt lat="40.1876998" lon="9.5359079"><ele>830.5</ele><time>2026-04-18T15:57:08.277Z</time></trkpt><trkpt lat="40.1878252" lon="9.5360042"><ele>831.0</ele><time>2026-04-18T15:57:09.277Z</time></trkpt><trkpt lat="40.1879523" lon="9.5360833"><ele>831.0</ele><time>2026-04-18T15:57:10.277Z</time></trkpt><trkpt lat="40.1880852" lon="9.5361107"><ele>831.0</ele><time>2026-04-18T15:57:11.277Z</time></trkpt><trkpt lat="40.1882274" lon="9.5360691"><ele>831.0</ele><time>2026-04-18T15:57:12.278Z</time></trkpt><trkpt lat="40.1883611" lon="9.5359743"><ele>831.0</ele><time>2026-04-18T15:57:13.278Z</time></trkpt><trkpt lat="40.1884922" lon="9.5358565"><ele>829.5</ele><time>2026-04-18T15:57:14.276Z</time></trkpt><trkpt lat="40.1886216" lon="9.5357626"><ele>828.0</ele><time>2026-04-18T15:57:15.277Z</time></trkpt><trkpt lat="40.1887503" lon="9.535679"><ele>826.5</ele><time>2026-04-18T15:57:16.277Z</time></trkpt><trkpt lat="40.1888781" lon="9.5356188"><ele>825.0</ele><time>2026-04-18T15:57:17.278Z</time></trkpt><trkpt lat="40.1890077" lon="9.5356095"><ele>826.3333333333333</ele><time>2026-04-18T15:57:18.278Z</time></trkpt><trkpt lat="40.1891566" lon="9.5356576"><ele>827.6666666666666</ele><time>2026-04-18T15:57:19.277Z</time></trkpt><trkpt lat="40.1893125" lon="9.5357313"><ele>829.0</ele><time>2026-04-18T15:57:20.277Z</time></trkpt><trkpt lat="40.1894641" lon="9.5358014"><ele>829.0</ele><time>2026-04-18T15:57:21.277Z</time></trkpt><trkpt lat="40.1896047" lon="9.5358645"><ele>829.0</ele><time>2026-04-18T15:57:22.276Z</time></trkpt><trkpt lat="40.1897271" lon="9.5359424"><ele>829.0</ele><time>2026-04-18T15:57:23.276Z</time></trkpt><trkpt lat="40.1898201" lon="9.5360592"><ele>829.0</ele><time>2026-04-18T15:57:24.276Z</time></trkpt><trkpt lat="40.1898917" lon="9.5362324"><ele>832.0</ele><time>2026-04-18T15:57:25.277Z</time></trkpt><trkpt lat="40.1899635" lon="9.5363909"><ele>835.0</ele><time>2026-04-18T15:57:26.277Z</time></trkpt><trkpt lat="40.1900478" lon="9.5365099"><ele>838.0</ele><time>2026-04-18T15:57:27.277Z</time></trkpt><trkpt lat="40.1901295" lon="9.5366143"><ele>841.0</ele><time>2026-04-18T15:57:28.277Z</time></trkpt><trkpt lat="40.1902112" lon="9.5366869"><ele>841.0</ele><time>2026-04-18T15:57:29.278Z</time></trkpt><trkpt lat="40.1903251" lon="9.5366903"><ele>841.0</ele><time>2026-04-18T15:57:30.277Z</time></trkpt><trkpt lat="40.1905396" lon="9.5365585"><ele>841.0</ele><time>2026-04-18T15:57:31.277Z</time></trkpt><trkpt lat="40.1906828" lon="9.5365488"><ele>841.6666666666666</ele><time>2026-04-18T15:57:32.277Z</time></trkpt><trkpt lat="40.190832" lon="9.5364845"><ele>842.3333333333333</ele><time>2026-04-18T15:57:33.277Z</time></trkpt><trkpt lat="40.1909956" lon="9.5363321"><ele>843.0</ele><time>2026-04-18T15:57:34.277Z</time></trkpt><trkpt lat="40.1911845" lon="9.5362221"><ele>834.6666666666667</ele><time>2026-04-18T15:57:35.277Z</time></trkpt><trkpt lat="40.1913767" lon="9.53611"><ele>826.3333333333334</ele><time>2026-04-18T15:57:36.277Z</time></trkpt><trkpt lat="40.1915503" lon="9.5360066"><ele>818.0</ele><time>2026-04-18T15:57:37.278Z</time></trkpt><trkpt lat="40.1917151" lon="9.5359094"><ele>818.0</ele><time>2026-04-18T15:57:38.277Z</time></trkpt><trkpt lat="40.1918706" lon="9.5358145"><ele>818.0</ele><time>2026-04-18T15:57:39.277Z</time></trkpt><trkpt lat="40.1920243" lon="9.5357377"><ele>818.0</ele><time>2026-04-18T15:57:40.277Z</time></trkpt><trkpt lat="40.1921825" lon="9.5356887"><ele>818.0</ele><time>2026-04-18T15:57:41.278Z</time></trkpt><trkpt lat="40.1923327" lon="9.5356632"><ele>818.0</ele><time>2026-04-18T15:57:42.277Z</time></trkpt><trkpt lat="40.1924645" lon="9.5356589"><ele>818.0</ele><time>2026-04-18T15:57:43.277Z</time></trkpt><trkpt lat="40.19258" lon="9.535688"><ele>818.0</ele><time>2026-04-18T15:57:44.276Z</time></trkpt><trkpt lat="40.1926635" lon="9.535769"><ele>819.0</ele><time>2026-04-18T15:57:45.278Z</time></trkpt><trkpt lat="40.1927162" lon="9.5358974"><ele>820.0</ele><time>2026-04-18T15:57:46.278Z</time></trkpt><trkpt lat="40.1927403" lon="9.5360425"><ele>821.0</ele><time>2026-04-18T15:57:47.277Z</time></trkpt><trkpt lat="40.1927755" lon="9.5361931"><ele>822.0</ele><time>2026-04-18T15:57:48.277Z</time></trkpt><trkpt lat="40.1929144" lon="9.5363466"><ele>820.0</ele><time>2026-04-18T15:57:49.277Z</time></trkpt><trkpt lat="40.1930424" lon="9.5365122"><ele>818.0</ele><time>2026-04-18T15:57:50.277Z</time></trkpt><trkpt lat="40.1931869" lon="9.5366883"><ele>816.0</ele><time>2026-04-18T15:57:51.277Z</time></trkpt><trkpt lat="40.1933195" lon="9.5368499"><ele>816.0</ele><time>2026-04-18T15:57:52.277Z</time></trkpt><trkpt lat="40.1934468" lon="9.5369986"><ele>816.0</ele><time>2026-04-18T15:57:53.277Z</time></trkpt><trkpt lat="40.1935664" lon="9.5371404"><ele>816.0</ele><time>2026-04-18T15:57:54.276Z</time></trkpt><trkpt lat="40.1936672" lon="9.5372557"><ele>823.75</ele><time>2026-04-18T15:57:55.277Z</time></trkpt><trkpt lat="40.1937623" lon="9.5373412"><ele>831.5</ele><time>2026-04-18T15:57:56.277Z</time></trkpt><trkpt lat="40.1938518" lon="9.5374201"><ele>839.25</ele><time>2026-04-18T15:57:57.278Z</time></trkpt><trkpt lat="40.1939672" lon="9.5374474"><ele>847.0</ele><time>2026-04-18T15:57:58.277Z</time></trkpt><trkpt lat="40.1940801" lon="9.537394"><ele>847.0</ele><time>2026-04-18T15:57:59.277Z</time></trkpt><trkpt lat="40.1941862" lon="9.5371494"><ele>847.0</ele><time>2026-04-18T15:58:00.277Z</time></trkpt><trkpt lat="40.1943139" lon="9.5370939"><ele>847.0</ele><time>2026-04-18T15:58:01.278Z</time></trkpt><trkpt lat="40.1944522" lon="9.5370826"><ele>847.0</ele><time>2026-04-18T15:58:02.277Z</time></trkpt><trkpt lat="40.1945971" lon="9.5370926"><ele>847.0</ele><time>2026-04-18T15:58:03.277Z</time></trkpt><trkpt lat="40.1947206" lon="9.5371349"><ele>847.0</ele><time>2026-04-18T15:58:04.277Z</time></trkpt><trkpt lat="40.1948213" lon="9.5372302"><ele>847.0</ele><time>2026-04-18T15:58:05.277Z</time></trkpt><trkpt lat="40.1949063" lon="9.5373501"><ele>845.8</ele><time>2026-04-18T15:58:06.277Z</time></trkpt><trkpt lat="40.1949869" lon="9.5374497"><ele>844.6</ele><time>2026-04-18T15:58:07.277Z</time></trkpt><trkpt lat="40.1950892" lon="9.5375076"><ele>843.4</ele><time>2026-04-18T15:58:08.277Z</time></trkpt><trkpt lat="40.1951877" lon="9.5375598"><ele>842.1999999999999</ele><time>2026-04-18T15:58:09.277Z</time></trkpt><trkpt lat="40.1952981" lon="9.5375667"><ele>841.0</ele><time>2026-04-18T15:58:10.277Z</time></trkpt><trkpt lat="40.1954779" lon="9.5373253"><ele>841.0</ele><time>2026-04-18T15:58:11.277Z</time></trkpt><trkpt lat="40.1955997" lon="9.5371873"><ele>841.0</ele><time>2026-04-18T15:58:12.277Z</time></trkpt><trkpt lat="40.1956997" lon="9.5370099"><ele>841.0</ele><time>2026-04-18T15:58:13.277Z</time></trkpt><trkpt lat="40.1957961" lon="9.536845"><ele>835.0</ele><time>2026-04-18T15:58:14.277Z</time></trkpt><trkpt lat="40.1958997" lon="9.5366811"><ele>829.0</ele><time>2026-04-18T15:58:15.277Z</time></trkpt><trkpt lat="40.1960128" lon="9.536525"><ele>823.0</ele><time>2026-04-18T15:58:16.277Z</time></trkpt><trkpt lat="40.1961515" lon="9.5363992"><ele>823.0</ele><time>2026-04-18T15:58:17.277Z</time></trkpt><trkpt lat="40.1963084" lon="9.5362895"><ele>823.0</ele><time>2026-04-18T15:58:18.277Z</time></trkpt><trkpt lat="40.1964618" lon="9.536199"><ele>823.0</ele><time>2026-04-18T15:58:19.276Z</time></trkpt><trkpt lat="40.1966072" lon="9.5361154"><ele>820.5</ele><time>2026-04-18T15:58:20.276Z</time></trkpt><trkpt lat="40.1967425" lon="9.5360465"><ele>818.0</ele><time>2026-04-18T15:58:21.278Z</time></trkpt><trkpt lat="40.1968678" lon="9.5359906"><ele>815.5</ele><time>2026-04-18T15:58:22.277Z</time></trkpt><trkpt lat="40.1969794" lon="9.5359532"><ele>813.0</ele><time>2026-04-18T15:58:23.277Z</time></trkpt><trkpt lat="40.1970858" lon="9.5359369"><ele>813.0</ele><time>2026-04-18T15:58:24.278Z</time></trkpt><trkpt lat="40.1971854" lon="9.5359536"><ele>813.0</ele><time>2026-04-18T15:58:25.278Z</time></trkpt><trkpt lat="40.1972703" lon="9.5360227"><ele>813.0</ele><time>2026-04-18T15:58:26.278Z</time></trkpt><trkpt lat="40.1973163" lon="9.5361395"><ele>813.0</ele><time>2026-04-18T15:58:27.277Z</time></trkpt><trkpt lat="40.197334" lon="9.5363131"><ele>813.0</ele><time>2026-04-18T15:58:28.277Z</time></trkpt><trkpt lat="40.1973372" lon="9.5365413"><ele>815.6666666666667</ele><time>2026-04-18T15:58:29.277Z</time></trkpt><trkpt lat="40.1973515" lon="9.5367983"><ele>818.3333333333334</ele><time>2026-04-18T15:58:30.278Z</time></trkpt><trkpt lat="40.1973715" lon="9.5370455"><ele>821.0</ele><time>2026-04-18T15:58:31.276Z</time></trkpt><trkpt lat="40.1973906" lon="9.5372825"><ele>821.0</ele><time>2026-04-18T15:58:32.278Z</time></trkpt><trkpt lat="40.1973991" lon="9.5375111"><ele>821.0</ele><time>2026-04-18T15:58:33.277Z</time></trkpt><trkpt lat="40.1973855" lon="9.5377278"><ele>821.0</ele><time>2026-04-18T15:58:34.276Z</time></trkpt><trkpt lat="40.1973684" lon="9.5379118"><ele>822.75</ele><time>2026-04-18T15:58:35.277Z</time></trkpt><trkpt lat="40.1973613" lon="9.538073"><ele>824.5</ele><time>2026-04-18T15:58:36.277Z</time></trkpt><trkpt lat="40.1973615" lon="9.5382415"><ele>826.25</ele><time>2026-04-18T15:58:37.277Z</time></trkpt><trkpt lat="40.1974077" lon="9.5383846"><ele>828.0</ele><time>2026-04-18T15:58:38.276Z</time></trkpt><trkpt lat="40.1974506" lon="9.5385181"><ele>828.0</ele><time>2026-04-18T15:58:39.276Z</time></trkpt><trkpt lat="40.1975696" lon="9.5386579"><ele>828.0</ele><time>2026-04-18T15:58:40.277Z</time></trkpt><trkpt lat="40.1978101" lon="9.5387176"><ele>828.0</ele><time>2026-04-18T15:58:41.277Z</time></trkpt><trkpt lat="40.197921" lon="9.5388765"><ele>825.25</ele><time>2026-04-18T15:58:42.278Z</time></trkpt><trkpt lat="40.1980301" lon="9.5390331"><ele>822.5</ele><time>2026-04-18T15:58:43.277Z</time></trkpt><trkpt lat="40.1981338" lon="9.539168"><ele>819.75</ele><time>2026-04-18T15:58:44.278Z</time></trkpt><trkpt lat="40.1982288" lon="9.5392858"><ele>817.0</ele><time>2026-04-18T15:58:45.277Z</time></trkpt><trkpt lat="40.1983577" lon="9.5393582"><ele>817.0</ele><time>2026-04-18T15:58:46.276Z</time></trkpt><trkpt lat="40.1984707" lon="9.5394136"><ele>817.0</ele><time>2026-04-18T15:58:47.277Z</time></trkpt><trkpt lat="40.1986202" lon="9.5393833"><ele>817.0</ele><time>2026-04-18T15:58:48.277Z</time></trkpt><trkpt lat="40.1987746" lon="9.539315"><ele>817.0</ele><time>2026-04-18T15:58:49.277Z</time></trkpt><trkpt lat="40.1989026" lon="9.5392551"><ele>813.5</ele><time>2026-04-18T15:58:50.277Z</time></trkpt><trkpt lat="40.1990373" lon="9.5392792"><ele>810.0</ele><time>2026-04-18T15:58:51.278Z</time></trkpt><trkpt lat="40.1991561" lon="9.5393319"><ele>806.5</ele><time>2026-04-18T15:58:52.277Z</time></trkpt><trkpt lat="40.1992635" lon="9.5394295"><ele>803.0</ele><time>2026-04-18T15:58:53.277Z</time></trkpt><trkpt lat="40.1993426" lon="9.5395431"><ele>809.0</ele><time>2026-04-18T15:58:54.277Z</time></trkpt><trkpt lat="40.1994072" lon="9.5396769"><ele>815.0</ele><time>2026-04-18T15:58:55.276Z</time></trkpt><trkpt lat="40.1993855" lon="9.5398604"><ele>821.0</ele><time>2026-04-18T15:58:56.277Z</time></trkpt><trkpt lat="40.1993717" lon="9.5400285"><ele>827.0</ele><time>2026-04-18T15:58:57.277Z</time></trkpt><trkpt lat="40.1993806" lon="9.5401791"><ele>827.0</ele><time>2026-04-18T15:58:58.278Z</time></trkpt><trkpt lat="40.1994" lon="9.5403311"><ele>827.0</ele><time>2026-04-18T15:58:59.277Z</time></trkpt><trkpt lat="40.1995338" lon="9.5404588"><ele>827.0</ele><time>2026-04-18T15:59:00.277Z</time></trkpt><trkpt lat="40.1997196" lon="9.5405053"><ele>824.0</ele><time>2026-04-18T15:59:01.278Z</time></trkpt><trkpt lat="40.1998448" lon="9.5406416"><ele>821.0</ele><time>2026-04-18T15:59:02.277Z</time></trkpt><trkpt lat="40.199959" lon="9.5407751"><ele>818.0</ele><time>2026-04-18T15:59:03.277Z</time></trkpt><trkpt lat="40.2000798" lon="9.5408735"><ele>818.0</ele><time>2026-04-18T15:59:04.277Z</time></trkpt><trkpt lat="40.2002096" lon="9.5409866"><ele>818.0</ele><time>2026-04-18T15:59:05.277Z</time></trkpt><trkpt lat="40.2003443" lon="9.5410289"><ele>818.0</ele><time>2026-04-18T15:59:06.276Z</time></trkpt><trkpt lat="40.2004809" lon="9.5410087"><ele>818.0</ele><time>2026-04-18T15:59:07.277Z</time></trkpt><trkpt lat="40.2006306" lon="9.5407824"><ele>815.75</ele><time>2026-04-18T15:59:08.276Z</time></trkpt><trkpt lat="40.2007654" lon="9.5407428"><ele>813.5</ele><time>2026-04-18T15:59:09.277Z</time></trkpt><trkpt lat="40.2008886" lon="9.540738"><ele>811.25</ele><time>2026-04-18T15:59:10.278Z</time></trkpt><trkpt lat="40.2010129" lon="9.5407866"><ele>809.0</ele><time>2026-04-18T15:59:11.278Z</time></trkpt><trkpt lat="40.2011288" lon="9.540879"><ele>809.0</ele><time>2026-04-18T15:59:12.277Z</time></trkpt><trkpt lat="40.2012262" lon="9.5409835"><ele>809.0</ele><time>2026-04-18T15:59:13.277Z</time></trkpt><trkpt lat="40.2012974" lon="9.5411514"><ele>809.0</ele><time>2026-04-18T15:59:14.277Z</time></trkpt><trkpt lat="40.2013664" lon="9.5412957"><ele>809.0</ele><time>2026-04-18T15:59:15.277Z</time></trkpt><trkpt lat="40.2014667" lon="9.5414294"><ele>810.6666666666667</ele><time>2026-04-18T15:59:16.277Z</time></trkpt><trkpt lat="40.2015732" lon="9.5415534"><ele>812.3333333333333</ele><time>2026-04-18T15:59:17.277Z</time></trkpt><trkpt lat="40.2017143" lon="9.5416755"><ele>814.0</ele><time>2026-04-18T15:59:18.278Z</time></trkpt><trkpt lat="40.2019719" lon="9.5416143"><ele>814.0</ele><time>2026-04-18T15:59:19.277Z</time></trkpt><trkpt lat="40.2021348" lon="9.5416304"><ele>814.0</ele><time>2026-04-18T15:59:20.277Z</time></trkpt><trkpt lat="40.2022993" lon="9.5416387"><ele>814.0</ele><time>2026-04-18T15:59:21.277Z</time></trkpt><trkpt lat="40.2024517" lon="9.541639"><ele>817.25</ele><time>2026-04-18T15:59:22.277Z</time></trkpt><trkpt lat="40.2025776" lon="9.5416828"><ele>820.5</ele><time>2026-04-18T15:59:23.277Z</time></trkpt><trkpt lat="40.2026855" lon="9.5417771"><ele>823.75</ele><time>2026-04-18T15:59:24.277Z</time></trkpt><trkpt lat="40.2027911" lon="9.5419143"><ele>827.0</ele><time>2026-04-18T15:59:25.278Z</time></trkpt><trkpt lat="40.2028599" lon="9.542127"><ele>827.0</ele><time>2026-04-18T15:59:26.278Z</time></trkpt><trkpt lat="40.202949" lon="9.5423091"><ele>827.0</ele><time>2026-04-18T15:59:27.278Z</time></trkpt><trkpt lat="40.2030962" lon="9.5424839"><ele>827.0</ele><time>2026-04-18T15:59:28.277Z</time></trkpt><trkpt lat="40.2032263" lon="9.5426484"><ele>823.0</ele><time>2026-04-18T15:59:29.277Z</time></trkpt><trkpt lat="40.2033501" lon="9.5428247"><ele>819.0</ele><time>2026-04-18T15:59:30.277Z</time></trkpt><trkpt lat="40.2034745" lon="9.5429873"><ele>815.0</ele><time>2026-04-18T15:59:31.277Z</time></trkpt><trkpt lat="40.2036044" lon="9.5431198"><ele>815.0</ele><time>2026-04-18T15:59:32.278Z</time></trkpt><trkpt lat="40.20376" lon="9.5432224"><ele>815.0</ele><time>2026-04-18T15:59:33.277Z</time></trkpt><trkpt lat="40.2039113" lon="9.5433096"><ele>815.0</ele><time>2026-04-18T15:59:34.277Z</time></trkpt><trkpt lat="40.2040704" lon="9.5433999"><ele>815.3333333333334</ele><time>2026-04-18T15:59:35.277Z</time></trkpt><trkpt lat="40.2042209" lon="9.5435223"><ele>815.6666666666667</ele><time>2026-04-18T15:59:36.277Z</time></trkpt><trkpt lat="40.2043608" lon="9.5436433"><ele>816.0</ele><time>2026-04-18T15:59:37.277Z</time></trkpt><trkpt lat="40.2045089" lon="9.5437473"><ele>816.0</ele><time>2026-04-18T15:59:38.277Z</time></trkpt><trkpt lat="40.2046556" lon="9.5438344"><ele>816.0</ele><time>2026-04-18T15:59:39.277Z</time></trkpt><trkpt lat="40.2047999" lon="9.5438418"><ele>816.0</ele><time>2026-04-18T15:59:40.277Z</time></trkpt><trkpt lat="40.2049396" lon="9.54396"><ele>808.0</ele><time>2026-04-18T15:59:41.276Z</time></trkpt><trkpt lat="40.2050711" lon="9.5440963"><ele>800.0</ele><time>2026-04-18T15:59:42.277Z</time></trkpt><trkpt lat="40.2051898" lon="9.5442394"><ele>792.0</ele><time>2026-04-18T15:59:43.277Z</time></trkpt><trkpt lat="40.2053236" lon="9.54435"><ele>792.0</ele><time>2026-04-18T15:59:44.277Z</time></trkpt><trkpt lat="40.2054754" lon="9.544416"><ele>792.0</ele><time>2026-04-18T15:59:45.277Z</time></trkpt><trkpt lat="40.2056925" lon="9.5444485"><ele>792.0</ele><time>2026-04-18T15:59:46.277Z</time></trkpt><trkpt lat="40.2058693" lon="9.5443457"><ele>784.3333333333333</ele><time>2026-04-18T15:59:47.277Z</time></trkpt><trkpt lat="40.2060446" lon="9.5443418"><ele>776.6666666666666</ele><time>2026-04-18T15:59:48.278Z</time></trkpt><trkpt lat="40.2062239" lon="9.544346"><ele>769.0</ele><time>2026-04-18T15:59:49.277Z</time></trkpt><trkpt lat="40.2064111" lon="9.5443802"><ele>765.6666666666666</ele><time>2026-04-18T15:59:50.277Z</time></trkpt><trkpt lat="40.2066118" lon="9.5444459"><ele>762.3333333333333</ele><time>2026-04-18T15:59:51.277Z</time></trkpt><trkpt lat="40.2068167" lon="9.5445202"><ele>759.0</ele><time>2026-04-18T15:59:52.277Z</time></trkpt><trkpt lat="40.2070119" lon="9.5445798"><ele>767.0</ele><time>2026-04-18T15:59:53.277Z</time></trkpt><trkpt lat="40.2072107" lon="9.5446322"><ele>775.0</ele><time>2026-04-18T15:59:54.277Z</time></trkpt><trkpt lat="40.2074102" lon="9.5446678"><ele>783.0</ele><time>2026-04-18T15:59:55.276Z</time></trkpt><trkpt lat="40.2076006" lon="9.5447141"><ele>783.0</ele><time>2026-04-18T15:59:56.276Z</time></trkpt><trkpt lat="40.2077828" lon="9.544775"><ele>783.0</ele><time>2026-04-18T15:59:57.276Z</time></trkpt><trkpt lat="40.2079473" lon="9.5448368"><ele>783.0</ele><time>2026-04-18T15:59:58.278Z</time></trkpt><trkpt lat="40.2080898" lon="9.5448904"><ele>774.0</ele><time>2026-04-18T15:59:59.277Z</time></trkpt><trkpt lat="40.2082206" lon="9.5449561"><ele>765.0</ele><time>2026-04-18T16:00:00.277Z</time></trkpt><trkpt lat="40.2083352" lon="9.5450692"><ele>756.0</ele><time>2026-04-18T16:00:01.277Z</time></trkpt><trkpt lat="40.2084431" lon="9.545262"><ele>765.0</ele><time>2026-04-18T16:00:02.277Z</time></trkpt><trkpt lat="40.2085422" lon="9.5454586"><ele>774.0</ele><time>2026-04-18T16:00:03.276Z</time></trkpt><trkpt lat="40.2086463" lon="9.5456535"><ele>783.0</ele><time>2026-04-18T16:00:04.277Z</time></trkpt><trkpt lat="40.2087519" lon="9.5458584"><ele>783.0</ele><time>2026-04-18T16:00:05.277Z</time></trkpt><trkpt lat="40.2088643" lon="9.5460702"><ele>783.0</ele><time>2026-04-18T16:00:06.277Z</time></trkpt><trkpt lat="40.2089759" lon="9.5462885"><ele>783.0</ele><time>2026-04-18T16:00:07.276Z</time></trkpt><trkpt lat="40.2090845" lon="9.5465008"><ele>781.6666666666667</ele><time>2026-04-18T16:00:08.277Z</time></trkpt><trkpt lat="40.2091999" lon="9.5467132"><ele>780.3333333333334</ele><time>2026-04-18T16:00:09.276Z</time></trkpt><trkpt lat="40.2093252" lon="9.5469187"><ele>779.0</ele><time>2026-04-18T16:00:10.275Z</time></trkpt><trkpt lat="40.2094607" lon="9.547098"><ele>779.0</ele><time>2026-04-18T16:00:11.276Z</time></trkpt><trkpt lat="40.2096013" lon="9.5472628"><ele>779.0</ele><time>2026-04-18T16:00:12.276Z</time></trkpt><trkpt lat="40.209742" lon="9.5474207"><ele>779.0</ele><time>2026-04-18T16:00:13.275Z</time></trkpt><trkpt lat="40.2098771" lon="9.5476001"><ele>774.6666666666667</ele><time>2026-04-18T16:00:14.277Z</time></trkpt><trkpt lat="40.2099878" lon="9.5477917"><ele>770.3333333333334</ele><time>2026-04-18T16:00:15.276Z</time></trkpt><trkpt lat="40.2101093" lon="9.5479782"><ele>766.0</ele><time>2026-04-18T16:00:16.276Z</time></trkpt><trkpt lat="40.210272" lon="9.5481593"><ele>766.0</ele><time>2026-04-18T16:00:17.275Z</time></trkpt><trkpt lat="40.2104492" lon="9.5483099"><ele>766.0</ele><time>2026-04-18T16:00:18.277Z</time></trkpt><trkpt lat="40.2106251" lon="9.5484465"><ele>766.0</ele><time>2026-04-18T16:00:19.276Z</time></trkpt><trkpt lat="40.2107886" lon="9.5485742"><ele>766.0</ele><time>2026-04-18T16:00:20.276Z</time></trkpt><trkpt lat="40.2109454" lon="9.5486991"><ele>766.0</ele><time>2026-04-18T16:00:21.276Z</time></trkpt><trkpt lat="40.2110937" lon="9.5488414"><ele>766.0</ele><time>2026-04-18T16:00:22.276Z</time></trkpt><trkpt lat="40.2112363" lon="9.5490047"><ele>766.0</ele><time>2026-04-18T16:00:23.276Z</time></trkpt><trkpt lat="40.2113779" lon="9.549189"><ele>766.0</ele><time>2026-04-18T16:00:24.276Z</time></trkpt><trkpt lat="40.2114965" lon="9.5493766"><ele>766.0</ele><time>2026-04-18T16:00:25.277Z</time></trkpt><trkpt lat="40.2116192" lon="9.5495774"><ele>762.0</ele><time>2026-04-18T16:00:26.276Z</time></trkpt><trkpt lat="40.21176" lon="9.5497677"><ele>758.0</ele><time>2026-04-18T16:00:27.277Z</time></trkpt><trkpt lat="40.2119221" lon="9.5499506"><ele>754.0</ele><time>2026-04-18T16:00:28.276Z</time></trkpt><trkpt lat="40.212096" lon="9.5501402"><ele>754.0</ele><time>2026-04-18T16:00:29.276Z</time></trkpt><trkpt lat="40.2122504" lon="9.5503265"><ele>754.0</ele><time>2026-04-18T16:00:30.277Z</time></trkpt><trkpt lat="40.2124008" lon="9.5505115"><ele>754.0</ele><time>2026-04-18T16:00:31.276Z</time></trkpt><trkpt lat="40.2125512" lon="9.5506869"><ele>747.6666666666667</ele><time>2026-04-18T16:00:32.276Z</time></trkpt><trkpt lat="40.2127116" lon="9.5508524"><ele>741.3333333333334</ele><time>2026-04-18T16:00:33.276Z</time></trkpt><trkpt lat="40.2128886" lon="9.5510108"><ele>735.0</ele><time>2026-04-18T16:00:34.277Z</time></trkpt><trkpt lat="40.2130789" lon="9.5511517"><ele>738.3333333333334</ele><time>2026-04-18T16:00:35.276Z</time></trkpt><trkpt lat="40.2132729" lon="9.5512851"><ele>741.6666666666667</ele><time>2026-04-18T16:00:36.276Z</time></trkpt><trkpt lat="40.2134632" lon="9.5514076"><ele>745.0</ele><time>2026-04-18T16:00:37.275Z</time></trkpt><trkpt lat="40.213648" lon="9.5515237"><ele>745.0</ele><time>2026-04-18T16:00:38.275Z</time></trkpt><trkpt lat="40.2138195" lon="9.5516339"><ele>745.0</ele><time>2026-04-18T16:00:39.276Z</time></trkpt><trkpt lat="40.2139934" lon="9.551724"><ele>745.0</ele><time>2026-04-18T16:00:40.276Z</time></trkpt><trkpt lat="40.2141693" lon="9.5517903"><ele>735.0</ele><time>2026-04-18T16:00:41.276Z</time></trkpt><trkpt lat="40.2143671" lon="9.551815"><ele>725.0</ele><time>2026-04-18T16:00:42.276Z</time></trkpt><trkpt lat="40.2145497" lon="9.5518171"><ele>715.0</ele><time>2026-04-18T16:00:43.277Z</time></trkpt><trkpt lat="40.2147254" lon="9.5518092"><ele>710.6666666666667</ele><time>2026-04-18T16:00:44.276Z</time></trkpt><trkpt lat="40.2148894" lon="9.5518028"><ele>706.3333333333334</ele><time>2026-04-18T16:00:45.276Z</time></trkpt><trkpt lat="40.2150446" lon="9.5518261"><ele>702.0</ele><time>2026-04-18T16:00:46.276Z</time></trkpt><trkpt lat="40.2151976" lon="9.551906"><ele>702.0</ele><time>2026-04-18T16:00:47.275Z</time></trkpt><trkpt lat="40.2153631" lon="9.5520041"><ele>702.0</ele><time>2026-04-18T16:00:48.275Z</time></trkpt><trkpt lat="40.2155543" lon="9.5520885"><ele>702.0</ele><time>2026-04-18T16:00:49.276Z</time></trkpt><trkpt lat="40.2157453" lon="9.5521515"><ele>710.6666666666666</ele><time>2026-04-18T16:00:50.277Z</time></trkpt><trkpt lat="40.2159338" lon="9.5522042"><ele>719.3333333333333</ele><time>2026-04-18T16:00:51.276Z</time></trkpt><trkpt lat="40.2161264" lon="9.5522481"><ele>728.0</ele><time>2026-04-18T16:00:52.276Z</time></trkpt><trkpt lat="40.216303" lon="9.5522039"><ele>722.6666666666666</ele><time>2026-04-18T16:00:53.276Z</time></trkpt><trkpt lat="40.2164863" lon="9.5521937"><ele>717.3333333333334</ele><time>2026-04-18T16:00:54.276Z</time></trkpt><trkpt lat="40.2166637" lon="9.5522052"><ele>712.0</ele><time>2026-04-18T16:00:55.277Z</time></trkpt><trkpt lat="40.2168349" lon="9.5522345"><ele>712.0</ele><time>2026-04-18T16:00:56.276Z</time></trkpt><trkpt lat="40.2169947" lon="9.5522794"><ele>712.0</ele><time>2026-04-18T16:00:57.276Z</time></trkpt><trkpt lat="40.2171528" lon="9.5523707"><ele>712.0</ele><time>2026-04-18T16:00:58.276Z</time></trkpt><trkpt lat="40.2173128" lon="9.5525089"><ele>706.6666666666667</ele><time>2026-04-18T16:00:59.276Z</time></trkpt><trkpt lat="40.2174737" lon="9.5526788"><ele>701.3333333333334</ele><time>2026-04-18T16:01:00.276Z</time></trkpt><trkpt lat="40.2176308" lon="9.5527983"><ele>696.0</ele><time>2026-04-18T16:01:01.277Z</time></trkpt><trkpt lat="40.2177942" lon="9.5528876"><ele>702.0</ele><time>2026-04-18T16:01:02.276Z</time></trkpt><trkpt lat="40.2179536" lon="9.5529659"><ele>708.0</ele><time>2026-04-18T16:01:03.276Z</time></trkpt><trkpt lat="40.218125" lon="9.5529382"><ele>714.0</ele><time>2026-04-18T16:01:04.275Z</time></trkpt><trkpt lat="40.2182837" lon="9.5529641"><ele>714.0</ele><time>2026-04-18T16:01:05.276Z</time></trkpt><trkpt lat="40.2184464" lon="9.5530369"><ele>714.0</ele><time>2026-04-18T16:01:06.276Z</time></trkpt><trkpt lat="40.218604" lon="9.5531412"><ele>714.0</ele><time>2026-04-18T16:01:07.276Z</time></trkpt><trkpt lat="40.2187518" lon="9.5532264"><ele>714.0</ele><time>2026-04-18T16:01:08.276Z</time></trkpt><trkpt lat="40.218907" lon="9.5532779"><ele>714.0</ele><time>2026-04-18T16:01:09.276Z</time></trkpt><trkpt lat="40.2190504" lon="9.5532947"><ele>714.0</ele><time>2026-04-18T16:01:10.277Z</time></trkpt><trkpt lat="40.2191734" lon="9.5533365"><ele>714.0</ele><time>2026-04-18T16:01:11.276Z</time></trkpt><trkpt lat="40.2192847" lon="9.5534453"><ele>718.75</ele><time>2026-04-18T16:01:12.276Z</time></trkpt><trkpt lat="40.2193695" lon="9.5535862"><ele>723.5</ele><time>2026-04-18T16:01:13.277Z</time></trkpt><trkpt lat="40.2194583" lon="9.5537099"><ele>728.25</ele><time>2026-04-18T16:01:14.277Z</time></trkpt><trkpt lat="40.2195739" lon="9.5538165"><ele>733.0</ele><time>2026-04-18T16:01:15.276Z</time></trkpt><trkpt lat="40.2197005" lon="9.5539111"><ele>722.0</ele><time>2026-04-18T16:01:16.277Z</time></trkpt><trkpt lat="40.2198684" lon="9.55395"><ele>711.0</ele><time>2026-04-18T16:01:17.276Z</time></trkpt><trkpt lat="40.2201259" lon="9.5539224"><ele>700.0</ele><time>2026-04-18T16:01:18.276Z</time></trkpt><trkpt lat="40.2203129" lon="9.553953"><ele>700.0</ele><time>2026-04-18T16:01:19.275Z</time></trkpt><trkpt lat="40.2204909" lon="9.5539538"><ele>700.0</ele><time>2026-04-18T16:01:20.276Z</time></trkpt><trkpt lat="40.2206566" lon="9.553911"><ele>700.0</ele><time>2026-04-18T16:01:21.277Z</time></trkpt><trkpt lat="40.2208078" lon="9.5538518"><ele>697.6666666666667</ele><time>2026-04-18T16:01:22.275Z</time></trkpt><trkpt lat="40.2209476" lon="9.5538043"><ele>695.3333333333334</ele><time>2026-04-18T16:01:23.276Z</time></trkpt><trkpt lat="40.221112" lon="9.5538055"><ele>693.0</ele><time>2026-04-18T16:01:24.276Z</time></trkpt><trkpt lat="40.2212939" lon="9.5538333"><ele>690.3333333333334</ele><time>2026-04-18T16:01:25.276Z</time></trkpt><trkpt lat="40.2215015" lon="9.5538594"><ele>687.6666666666667</ele><time>2026-04-18T16:01:26.275Z</time></trkpt><trkpt lat="40.2217156" lon="9.5538792"><ele>685.0</ele><time>2026-04-18T16:01:27.276Z</time></trkpt><trkpt lat="40.2219185" lon="9.5538872"><ele>685.0</ele><time>2026-04-18T16:01:28.276Z</time></trkpt><trkpt lat="40.2221147" lon="9.5539005"><ele>685.0</ele><time>2026-04-18T16:01:29.275Z</time></trkpt><trkpt lat="40.2222699" lon="9.5538621"><ele>685.0</ele><time>2026-04-18T16:01:30.276Z</time></trkpt><trkpt lat="40.2224572" lon="9.5538611"><ele>684.3333333333334</ele><time>2026-04-18T16:01:31.277Z</time></trkpt><trkpt lat="40.2226524" lon="9.5538986"><ele>683.6666666666666</ele><time>2026-04-18T16:01:32.276Z</time></trkpt><trkpt lat="40.2228415" lon="9.5539483"><ele>683.0</ele><time>2026-04-18T16:01:33.276Z</time></trkpt><trkpt lat="40.223029" lon="9.5539792"><ele>680.6666666666666</ele><time>2026-04-18T16:01:34.276Z</time></trkpt><trkpt lat="40.2232075" lon="9.5539327"><ele>678.3333333333334</ele><time>2026-04-18T16:01:35.276Z</time></trkpt><trkpt lat="40.223383" lon="9.5539107"><ele>676.0</ele><time>2026-04-18T16:01:36.276Z</time></trkpt><trkpt lat="40.2235615" lon="9.5539063"><ele>676.0</ele><time>2026-04-18T16:01:37.276Z</time></trkpt><trkpt lat="40.2237286" lon="9.5539155"><ele>676.0</ele><time>2026-04-18T16:01:38.276Z</time></trkpt><trkpt lat="40.2238968" lon="9.5539431"><ele>676.0</ele><time>2026-04-18T16:01:39.276Z</time></trkpt><trkpt lat="40.2240701" lon="9.5540154"><ele>671.3333333333334</ele><time>2026-04-18T16:01:40.276Z</time></trkpt><trkpt lat="40.2242524" lon="9.5541035"><ele>666.6666666666666</ele><time>2026-04-18T16:01:41.276Z</time></trkpt><trkpt lat="40.2244365" lon="9.5541752"><ele>662.0</ele><time>2026-04-18T16:01:42.275Z</time></trkpt><trkpt lat="40.2246183" lon="9.5542316"><ele>662.0</ele><time>2026-04-18T16:01:43.275Z</time></trkpt><trkpt lat="40.22479" lon="9.5543041"><ele>662.0</ele><time>2026-04-18T16:01:44.275Z</time></trkpt><trkpt lat="40.2249514" lon="9.5543898"><ele>662.0</ele><time>2026-04-18T16:01:45.275Z</time></trkpt><trkpt lat="40.22511" lon="9.5545152"><ele>663.75</ele><time>2026-04-18T16:01:46.275Z</time></trkpt><trkpt lat="40.2252459" lon="9.5546125"><ele>665.5</ele><time>2026-04-18T16:01:47.275Z</time></trkpt><trkpt lat="40.2253571" lon="9.5547275"><ele>667.25</ele><time>2026-04-18T16:01:48.276Z</time></trkpt><trkpt lat="40.2254679" lon="9.5548284"><ele>669.0</ele><time>2026-04-18T16:01:49.275Z</time></trkpt><trkpt lat="40.2256304" lon="9.554896"><ele>663.6666666666666</ele><time>2026-04-18T16:01:50.276Z</time></trkpt><trkpt lat="40.225785" lon="9.5549719"><ele>658.3333333333333</ele><time>2026-04-18T16:01:51.275Z</time></trkpt><trkpt lat="40.226002" lon="9.5550156"><ele>653.0</ele><time>2026-04-18T16:01:52.276Z</time></trkpt><trkpt lat="40.226237" lon="9.5551042"><ele>653.0</ele><time>2026-04-18T16:01:53.276Z</time></trkpt><trkpt lat="40.2264553" lon="9.5551659"><ele>653.0</ele><time>2026-04-18T16:01:54.275Z</time></trkpt><trkpt lat="40.2266551" lon="9.5552535"><ele>653.0</ele><time>2026-04-18T16:01:55.275Z</time></trkpt><trkpt lat="40.2268525" lon="9.5553535"><ele>655.6666666666666</ele><time>2026-04-18T16:01:56.275Z</time></trkpt><trkpt lat="40.227046" lon="9.5554344"><ele>658.3333333333334</ele><time>2026-04-18T16:01:57.275Z</time></trkpt><trkpt lat="40.2272394" lon="9.5555027"><ele>661.0</ele><time>2026-04-18T16:01:58.275Z</time></trkpt><trkpt lat="40.2274194" lon="9.5555753"><ele>661.0</ele><time>2026-04-18T16:01:59.276Z</time></trkpt><trkpt lat="40.2275877" lon="9.5556487"><ele>661.0</ele><time>2026-04-18T16:02:00.275Z</time></trkpt><trkpt lat="40.2277471" lon="9.5557667"><ele>661.0</ele><time>2026-04-18T16:02:01.276Z</time></trkpt><trkpt lat="40.227898" lon="9.5558927"><ele>661.0</ele><time>2026-04-18T16:02:02.275Z</time></trkpt><trkpt lat="40.2280411" lon="9.5560184"><ele>661.0</ele><time>2026-04-18T16:02:03.275Z</time></trkpt><trkpt lat="40.2282195" lon="9.5561372"><ele>661.0</ele><time>2026-04-18T16:02:04.275Z</time></trkpt><trkpt lat="40.2283899" lon="9.5562243"><ele>662.6666666666667</ele><time>2026-04-18T16:02:05.276Z</time></trkpt><trkpt lat="40.2285541" lon="9.5562986"><ele>664.3333333333334</ele><time>2026-04-18T16:02:06.276Z</time></trkpt><trkpt lat="40.2287029" lon="9.5563627"><ele>666.0</ele><time>2026-04-18T16:02:07.276Z</time></trkpt><trkpt lat="40.2288354" lon="9.5564015"><ele>666.0</ele><time>2026-04-18T16:02:08.276Z</time></trkpt><trkpt lat="40.2289711" lon="9.5563785"><ele>666.0</ele><time>2026-04-18T16:02:09.276Z</time></trkpt><trkpt lat="40.2290959" lon="9.5563021"><ele>666.0</ele><time>2026-04-18T16:02:10.276Z</time></trkpt><trkpt lat="40.2292091" lon="9.5562225"><ele>666.0</ele><time>2026-04-18T16:02:11.276Z</time></trkpt><trkpt lat="40.2293222" lon="9.5561875"><ele>663.0</ele><time>2026-04-18T16:02:12.276Z</time></trkpt><trkpt lat="40.2294335" lon="9.5562057"><ele>660.0</ele><time>2026-04-18T16:02:13.276Z</time></trkpt><trkpt lat="40.2295476" lon="9.5562878"><ele>657.0</ele><time>2026-04-18T16:02:14.276Z</time></trkpt><trkpt lat="40.2296697" lon="9.5563826"><ele>654.0</ele><time>2026-04-18T16:02:15.275Z</time></trkpt><trkpt lat="40.2298065" lon="9.5564998"><ele>648.3333333333334</ele><time>2026-04-18T16:02:16.276Z</time></trkpt><trkpt lat="40.230007" lon="9.5566484"><ele>642.6666666666667</ele><time>2026-04-18T16:02:17.277Z</time></trkpt><trkpt lat="40.2301698" lon="9.5567443"><ele>637.0</ele><time>2026-04-18T16:02:18.276Z</time></trkpt><trkpt lat="40.2303465" lon="9.556817"><ele>637.0</ele><time>2026-04-18T16:02:19.276Z</time></trkpt><trkpt lat="40.23052" lon="9.556851"><ele>637.0</ele><time>2026-04-18T16:02:20.276Z</time></trkpt><trkpt lat="40.2306828" lon="9.5568857"><ele>637.0</ele><time>2026-04-18T16:02:21.276Z</time></trkpt><trkpt lat="40.2308336" lon="9.55695"><ele>643.6666666666667</ele><time>2026-04-18T16:02:22.275Z</time></trkpt><trkpt lat="40.2309676" lon="9.5570639"><ele>650.3333333333334</ele><time>2026-04-18T16:02:23.275Z</time></trkpt><trkpt lat="40.231081" lon="9.5572227"><ele>657.0</ele><time>2026-04-18T16:02:24.276Z</time></trkpt><trkpt lat="40.2311834" lon="9.557371"><ele>657.0</ele><time>2026-04-18T16:02:25.277Z</time></trkpt><trkpt lat="40.2312912" lon="9.5574899"><ele>657.0</ele><time>2026-04-18T16:02:26.276Z</time></trkpt><trkpt lat="40.2314032" lon="9.5576014"><ele>657.0</ele><time>2026-04-18T16:02:27.277Z</time></trkpt><trkpt lat="40.2315612" lon="9.5575792"><ele>657.0</ele><time>2026-04-18T16:02:28.276Z</time></trkpt><trkpt lat="40.2316925" lon="9.5575484"><ele>648.0</ele><time>2026-04-18T16:02:29.276Z</time></trkpt><trkpt lat="40.2318316" lon="9.5575483"><ele>639.0</ele><time>2026-04-18T16:02:30.275Z</time></trkpt><trkpt lat="40.2319761" lon="9.557554"><ele>630.0</ele><time>2026-04-18T16:02:31.275Z</time></trkpt><trkpt lat="40.2321773" lon="9.5576634"><ele>626.6666666666666</ele><time>2026-04-18T16:02:32.275Z</time></trkpt><trkpt lat="40.2323515" lon="9.5577278"><ele>623.3333333333333</ele><time>2026-04-18T16:02:33.277Z</time></trkpt><trkpt lat="40.2325156" lon="9.5578138"><ele>620.0</ele><time>2026-04-18T16:02:34.276Z</time></trkpt><trkpt lat="40.232671" lon="9.5579091"><ele>627.75</ele><time>2026-04-18T16:02:35.275Z</time></trkpt><trkpt lat="40.2328025" lon="9.5580073"><ele>635.5</ele><time>2026-04-18T16:02:36.276Z</time></trkpt><trkpt lat="40.2329046" lon="9.5581247"><ele>643.25</ele><time>2026-04-18T16:02:37.276Z</time></trkpt><trkpt lat="40.2329842" lon="9.5582963"><ele>651.0</ele><time>2026-04-18T16:02:38.276Z</time></trkpt><trkpt lat="40.2330261" lon="9.5584725"><ele>651.0</ele><time>2026-04-18T16:02:39.276Z</time></trkpt><trkpt lat="40.2330785" lon="9.5586232"><ele>651.0</ele><time>2026-04-18T16:02:40.276Z</time></trkpt><trkpt lat="40.2332074" lon="9.5587663"><ele>651.0</ele><time>2026-04-18T16:02:41.275Z</time></trkpt><trkpt lat="40.2333003" lon="9.5589145"><ele>651.0</ele><time>2026-04-18T16:02:42.276Z</time></trkpt><trkpt lat="40.2334957" lon="9.5590741"><ele>648.6666666666666</ele><time>2026-04-18T16:02:43.277Z</time></trkpt><trkpt lat="40.2336298" lon="9.5592413"><ele>646.3333333333333</ele><time>2026-04-18T16:02:44.275Z</time></trkpt><trkpt lat="40.2338059" lon="9.5594086"><ele>644.0</ele><time>2026-04-18T16:02:45.276Z</time></trkpt><trkpt lat="40.2339897" lon="9.559542"><ele>642.0</ele><time>2026-04-18T16:02:46.276Z</time></trkpt><trkpt lat="40.2341639" lon="9.5596845"><ele>640.0</ele><time>2026-04-18T16:02:47.276Z</time></trkpt><trkpt lat="40.2343395" lon="9.5598318"><ele>638.0</ele><time>2026-04-18T16:02:48.276Z</time></trkpt><trkpt lat="40.2345083" lon="9.559991"><ele>638.0</ele><time>2026-04-18T16:02:49.277Z</time></trkpt><trkpt lat="40.2346714" lon="9.5601439"><ele>638.0</ele><time>2026-04-18T16:02:50.276Z</time></trkpt><trkpt lat="40.2348325" lon="9.5602767"><ele>638.0</ele><time>2026-04-18T16:02:51.275Z</time></trkpt><trkpt lat="40.2350098" lon="9.5603941"><ele>642.0</ele><time>2026-04-18T16:02:52.276Z</time></trkpt><trkpt lat="40.2351953" lon="9.5604621"><ele>646.0</ele><time>2026-04-18T16:02:53.277Z</time></trkpt><trkpt lat="40.2353849" lon="9.5605207"><ele>650.0</ele><time>2026-04-18T16:02:54.276Z</time></trkpt><trkpt lat="40.2355662" lon="9.5605853"><ele>639.0</ele><time>2026-04-18T16:02:55.275Z</time></trkpt><trkpt lat="40.2357337" lon="9.5606702"><ele>628.0</ele><time>2026-04-18T16:02:56.276Z</time></trkpt><trkpt lat="40.2358845" lon="9.5607725"><ele>617.0</ele><time>2026-04-18T16:02:57.276Z</time></trkpt><trkpt lat="40.2360264" lon="9.5608994"><ele>617.0</ele><time>2026-04-18T16:02:58.276Z</time></trkpt><trkpt lat="40.2361588" lon="9.5610592"><ele>617.0</ele><time>2026-04-18T16:02:59.276Z</time></trkpt><trkpt lat="40.2362849" lon="9.5612514"><ele>617.0</ele><time>2026-04-18T16:03:00.276Z</time></trkpt><trkpt lat="40.2364215" lon="9.56144"><ele>615.3333333333333</ele><time>2026-04-18T16:03:01.275Z</time></trkpt><trkpt lat="40.2365699" lon="9.5616058"><ele>613.6666666666666</ele><time>2026-04-18T16:03:02.276Z</time></trkpt><trkpt lat="40.2367315" lon="9.5617593"><ele>612.0</ele><time>2026-04-18T16:03:03.276Z</time></trkpt><trkpt lat="40.2368912" lon="9.5619013"><ele>609.0</ele><time>2026-04-18T16:03:04.276Z</time></trkpt><trkpt lat="40.2370472" lon="9.562038"><ele>606.0</ele><time>2026-04-18T16:03:05.276Z</time></trkpt><trkpt lat="40.2371989" lon="9.5621764"><ele>603.0</ele><time>2026-04-18T16:03:06.275Z</time></trkpt><trkpt lat="40.2373441" lon="9.5622989"><ele>603.0</ele><time>2026-04-18T16:03:07.275Z</time></trkpt><trkpt lat="40.2374827" lon="9.5624237"><ele>603.0</ele><time>2026-04-18T16:03:08.276Z</time></trkpt><trkpt lat="40.2376178" lon="9.5625856"><ele>603.0</ele><time>2026-04-18T16:03:09.276Z</time></trkpt><trkpt lat="40.2377437" lon="9.5627665"><ele>613.3333333333334</ele><time>2026-04-18T16:03:10.276Z</time></trkpt><trkpt lat="40.2378622" lon="9.562957"><ele>623.6666666666667</ele><time>2026-04-18T16:03:11.276Z</time></trkpt><trkpt lat="40.2379671" lon="9.5631658"><ele>634.0</ele><time>2026-04-18T16:03:12.275Z</time></trkpt><trkpt lat="40.2380553" lon="9.5634076"><ele>634.0</ele><time>2026-04-18T16:03:13.276Z</time></trkpt><trkpt lat="40.2381326" lon="9.5636445"><ele>634.0</ele><time>2026-04-18T16:03:14.276Z</time></trkpt><trkpt lat="40.2382294" lon="9.5638664"><ele>634.0</ele><time>2026-04-18T16:03:15.276Z</time></trkpt><trkpt lat="40.2383386" lon="9.5640833"><ele>629.0</ele><time>2026-04-18T16:03:16.277Z</time></trkpt><trkpt lat="40.2384665" lon="9.564278"><ele>624.0</ele><time>2026-04-18T16:03:17.275Z</time></trkpt><trkpt lat="40.2386026" lon="9.5644544"><ele>619.0</ele><time>2026-04-18T16:03:18.275Z</time></trkpt><trkpt lat="40.2387489" lon="9.5645941"><ele>615.0</ele><time>2026-04-18T16:03:19.276Z</time></trkpt><trkpt lat="40.2389005" lon="9.5647091"><ele>611.0</ele><time>2026-04-18T16:03:20.276Z</time></trkpt><trkpt lat="40.2390573" lon="9.5647986"><ele>607.0</ele><time>2026-04-18T16:03:21.276Z</time></trkpt><trkpt lat="40.2392088" lon="9.5648687"><ele>607.0</ele><time>2026-04-18T16:03:22.276Z</time></trkpt><trkpt lat="40.2393579" lon="9.565004"><ele>607.0</ele><time>2026-04-18T16:03:23.276Z</time></trkpt><trkpt lat="40.2394927" lon="9.5651731"><ele>607.0</ele><time>2026-04-18T16:03:24.276Z</time></trkpt><trkpt lat="40.239635" lon="9.5653287"><ele>606.0</ele><time>2026-04-18T16:03:25.276Z</time></trkpt><trkpt lat="40.239805" lon="9.5654834"><ele>605.0</ele><time>2026-04-18T16:03:26.277Z</time></trkpt><trkpt lat="40.2399854" lon="9.5656128"><ele>604.0</ele><time>2026-04-18T16:03:27.275Z</time></trkpt><trkpt lat="40.2401621" lon="9.5657286"><ele>604.0</ele><time>2026-04-18T16:03:28.276Z</time></trkpt><trkpt lat="40.2403489" lon="9.5658319"><ele>604.0</ele><time>2026-04-18T16:03:29.276Z</time></trkpt><trkpt lat="40.240541" lon="9.565908"><ele>604.0</ele><time>2026-04-18T16:03:30.276Z</time></trkpt><trkpt lat="40.2407276" lon="9.5659782"><ele>611.3333333333334</ele><time>2026-04-18T16:03:31.276Z</time></trkpt><trkpt lat="40.2409092" lon="9.5660478"><ele>618.6666666666666</ele><time>2026-04-18T16:03:32.276Z</time></trkpt><trkpt lat="40.2410968" lon="9.5661285"><ele>626.0</ele><time>2026-04-18T16:03:33.276Z</time></trkpt><trkpt lat="40.2412751" lon="9.5662404"><ele>626.0</ele><time>2026-04-18T16:03:34.276Z</time></trkpt><trkpt lat="40.2414599" lon="9.5663543"><ele>626.0</ele><time>2026-04-18T16:03:35.276Z</time></trkpt><trkpt lat="40.2415751" lon="9.5665197"><ele>626.0</ele><time>2026-04-18T16:03:36.276Z</time></trkpt><trkpt lat="40.2416905" lon="9.5666789"><ele>616.6666666666666</ele><time>2026-04-18T16:03:37.276Z</time></trkpt><trkpt lat="40.241781" lon="9.5668564"><ele>607.3333333333334</ele><time>2026-04-18T16:03:38.276Z</time></trkpt><trkpt lat="40.2418349" lon="9.5670459"><ele>598.0</ele><time>2026-04-18T16:03:39.275Z</time></trkpt><trkpt lat="40.2418876" lon="9.5672253"><ele>598.0</ele><time>2026-04-18T16:03:40.276Z</time></trkpt><trkpt lat="40.2419291" lon="9.5673786"><ele>598.0</ele><time>2026-04-18T16:03:41.275Z</time></trkpt><trkpt lat="40.2419972" lon="9.5675274"><ele>598.0</ele><time>2026-04-18T16:03:42.276Z</time></trkpt><trkpt lat="40.2421511" lon="9.5676883"><ele>597.3333333333334</ele><time>2026-04-18T16:03:43.276Z</time></trkpt><trkpt lat="40.2423762" lon="9.5678084"><ele>596.6666666666666</ele><time>2026-04-18T16:03:44.277Z</time></trkpt><trkpt lat="40.2425505" lon="9.5679418"><ele>596.0</ele><time>2026-04-18T16:03:45.276Z</time></trkpt><trkpt lat="40.2427221" lon="9.5680787"><ele>596.0</ele><time>2026-04-18T16:03:46.276Z</time></trkpt><trkpt lat="40.242882" lon="9.568212"><ele>596.0</ele><time>2026-04-18T16:03:47.275Z</time></trkpt><trkpt lat="40.2430451" lon="9.5683328"><ele>596.0</ele><time>2026-04-18T16:03:48.275Z</time></trkpt><trkpt lat="40.2432181" lon="9.568426"><ele>583.0</ele><time>2026-04-18T16:03:49.277Z</time></trkpt><trkpt lat="40.2433846" lon="9.568486"><ele>570.0</ele><time>2026-04-18T16:03:50.276Z</time></trkpt><trkpt lat="40.2435378" lon="9.5685437"><ele>557.0</ele><time>2026-04-18T16:03:51.276Z</time></trkpt><trkpt lat="40.2436852" lon="9.5686125"><ele>559.3333333333333</ele><time>2026-04-18T16:03:52.276Z</time></trkpt><trkpt lat="40.2438339" lon="9.5687389"><ele>561.6666666666666</ele><time>2026-04-18T16:03:53.276Z</time></trkpt><trkpt lat="40.2439951" lon="9.5688582"><ele>564.0</ele><time>2026-04-18T16:03:54.276Z</time></trkpt><trkpt lat="40.2441326" lon="9.569045"><ele>564.0</ele><time>2026-04-18T16:03:55.277Z</time></trkpt><trkpt lat="40.2442789" lon="9.5692008"><ele>564.0</ele><time>2026-04-18T16:03:56.277Z</time></trkpt><trkpt lat="40.2444302" lon="9.5693626"><ele>564.0</ele><time>2026-04-18T16:03:57.276Z</time></trkpt><trkpt lat="40.2445862" lon="9.5695323"><ele>563.6666666666666</ele><time>2026-04-18T16:03:58.275Z</time></trkpt><trkpt lat="40.2447375" lon="9.5696957"><ele>563.3333333333333</ele><time>2026-04-18T16:03:59.276Z</time></trkpt><trkpt lat="40.2448832" lon="9.5698629"><ele>563.0</ele><time>2026-04-18T16:04:00.276Z</time></trkpt><trkpt lat="40.2450029" lon="9.5700238"><ele>563.0</ele><time>2026-04-18T16:04:01.275Z</time></trkpt><trkpt lat="40.2451263" lon="9.5701931"><ele>563.0</ele><time>2026-04-18T16:04:02.276Z</time></trkpt><trkpt lat="40.2452715" lon="9.5703369"><ele>563.0</ele><time>2026-04-18T16:04:03.276Z</time></trkpt><trkpt lat="40.2454188" lon="9.5704681"><ele>561.0</ele><time>2026-04-18T16:04:04.276Z</time></trkpt><trkpt lat="40.2455748" lon="9.5706178"><ele>559.0</ele><time>2026-04-18T16:04:05.275Z</time></trkpt><trkpt lat="40.2457398" lon="9.5707829"><ele>557.0</ele><time>2026-04-18T16:04:06.275Z</time></trkpt><trkpt lat="40.2459108" lon="9.5709258"><ele>557.0</ele><time>2026-04-18T16:04:07.275Z</time></trkpt><trkpt lat="40.2460914" lon="9.5710739"><ele>557.0</ele><time>2026-04-18T16:04:08.277Z</time></trkpt><trkpt lat="40.2462666" lon="9.5712038"><ele>557.0</ele><time>2026-04-18T16:04:09.276Z</time></trkpt><trkpt lat="40.2464395" lon="9.5713279"><ele>558.0</ele><time>2026-04-18T16:04:10.275Z</time></trkpt><trkpt lat="40.2466004" lon="9.5714569"><ele>559.0</ele><time>2026-04-18T16:04:11.275Z</time></trkpt><trkpt lat="40.2467382" lon="9.5715992"><ele>560.0</ele><time>2026-04-18T16:04:12.277Z</time></trkpt><trkpt lat="40.2468606" lon="9.5717319"><ele>560.0</ele><time>2026-04-18T16:04:13.276Z</time></trkpt><trkpt lat="40.2469812" lon="9.5718475"><ele>560.0</ele><time>2026-04-18T16:04:14.275Z</time></trkpt><trkpt lat="40.2471236" lon="9.57193"><ele>560.0</ele><time>2026-04-18T16:04:15.277Z</time></trkpt><trkpt lat="40.247282" lon="9.5719782"><ele>567.3333333333333</ele><time>2026-04-18T16:04:16.277Z</time></trkpt><trkpt lat="40.2474372" lon="9.5719822"><ele>574.6666666666666</ele><time>2026-04-18T16:04:17.276Z</time></trkpt><trkpt lat="40.2476012" lon="9.5720522"><ele>582.0</ele><time>2026-04-18T16:04:18.275Z</time></trkpt><trkpt lat="40.2477724" lon="9.5721731"><ele>582.0</ele><time>2026-04-18T16:04:19.276Z</time></trkpt><trkpt lat="40.2479494" lon="9.5723064"><ele>582.0</ele><time>2026-04-18T16:04:20.276Z</time></trkpt><trkpt lat="40.2481313" lon="9.57246"><ele>582.0</ele><time>2026-04-18T16:04:21.276Z</time></trkpt><trkpt lat="40.2483153" lon="9.5726111"><ele>591.0</ele><time>2026-04-18T16:04:22.276Z</time></trkpt><trkpt lat="40.2484995" lon="9.5727328"><ele>600.0</ele><time>2026-04-18T16:04:23.276Z</time></trkpt><trkpt lat="40.2486767" lon="9.5728353"><ele>609.0</ele><time>2026-04-18T16:04:24.276Z</time></trkpt><trkpt lat="40.2488517" lon="9.572929"><ele>593.0</ele><time>2026-04-18T16:04:25.275Z</time></trkpt><trkpt lat="40.2490247" lon="9.5729263"><ele>577.0</ele><time>2026-04-18T16:04:26.276Z</time></trkpt><trkpt lat="40.2491957" lon="9.5729276"><ele>561.0</ele><time>2026-04-18T16:04:27.276Z</time></trkpt><trkpt lat="40.2493563" lon="9.5729335"><ele>561.0</ele><time>2026-04-18T16:04:28.277Z</time></trkpt><trkpt lat="40.2495205" lon="9.5729682"><ele>561.0</ele><time>2026-04-18T16:04:29.277Z</time></trkpt><trkpt lat="40.2496872" lon="9.5730459"><ele>561.0</ele><time>2026-04-18T16:04:30.276Z</time></trkpt><trkpt lat="40.249867" lon="9.5731583"><ele>552.6666666666666</ele><time>2026-04-18T16:04:31.275Z</time></trkpt><trkpt lat="40.2500327" lon="9.5732671"><ele>544.3333333333333</ele><time>2026-04-18T16:04:32.277Z</time></trkpt><trkpt lat="40.2502015" lon="9.5733684"><ele>536.0</ele><time>2026-04-18T16:04:33.276Z</time></trkpt><trkpt lat="40.2503627" lon="9.5734353"><ele>536.0</ele><time>2026-04-18T16:04:34.276Z</time></trkpt><trkpt lat="40.2505096" lon="9.5734632"><ele>536.0</ele><time>2026-04-18T16:04:35.276Z</time></trkpt><trkpt lat="40.2506446" lon="9.5735123"><ele>536.0</ele><time>2026-04-18T16:04:36.276Z</time></trkpt><trkpt lat="40.2507777" lon="9.5736137"><ele>536.0</ele><time>2026-04-18T16:04:37.275Z</time></trkpt><trkpt lat="40.2509086" lon="9.5737167"><ele>541.6666666666666</ele><time>2026-04-18T16:04:38.276Z</time></trkpt><trkpt lat="40.2510401" lon="9.5738146"><ele>547.3333333333334</ele><time>2026-04-18T16:04:39.276Z</time></trkpt><trkpt lat="40.2511792" lon="9.573888"><ele>553.0</ele><time>2026-04-18T16:04:40.275Z</time></trkpt><trkpt lat="40.2513601" lon="9.5739286"><ele>546.3333333333334</ele><time>2026-04-18T16:04:41.276Z</time></trkpt><trkpt lat="40.2515335" lon="9.5740331"><ele>539.6666666666666</ele><time>2026-04-18T16:04:42.277Z</time></trkpt><trkpt lat="40.251701" lon="9.5741801"><ele>533.0</ele><time>2026-04-18T16:04:43.276Z</time></trkpt><trkpt lat="40.251872" lon="9.574286"><ele>533.0</ele><time>2026-04-18T16:04:44.277Z</time></trkpt><trkpt lat="40.2520689" lon="9.5743754"><ele>533.0</ele><time>2026-04-18T16:04:45.276Z</time></trkpt><trkpt lat="40.2522605" lon="9.5744557"><ele>533.0</ele><time>2026-04-18T16:04:46.276Z</time></trkpt><trkpt lat="40.2524551" lon="9.5745794"><ele>536.6666666666666</ele><time>2026-04-18T16:04:47.276Z</time></trkpt><trkpt lat="40.2526343" lon="9.5746854"><ele>540.3333333333334</ele><time>2026-04-18T16:04:48.276Z</time></trkpt><trkpt lat="40.2528168" lon="9.5747833"><ele>544.0</ele><time>2026-04-18T16:04:49.276Z</time></trkpt><trkpt lat="40.2529892" lon="9.5748742"><ele>538.0</ele><time>2026-04-18T16:04:50.276Z</time></trkpt><trkpt lat="40.2531544" lon="9.5749537"><ele>532.0</ele><time>2026-04-18T16:04:51.275Z</time></trkpt><trkpt lat="40.2533177" lon="9.5750156"><ele>526.0</ele><time>2026-04-18T16:04:52.275Z</time></trkpt><trkpt lat="40.2534926" lon="9.5750506"><ele>526.0</ele><time>2026-04-18T16:04:53.275Z</time></trkpt><trkpt lat="40.2536639" lon="9.5750688"><ele>526.0</ele><time>2026-04-18T16:04:54.275Z</time></trkpt><trkpt lat="40.253828" lon="9.5750895"><ele>526.0</ele><time>2026-04-18T16:04:55.276Z</time></trkpt><trkpt lat="40.2539732" lon="9.5750987"><ele>526.75</ele><time>2026-04-18T16:04:56.275Z</time></trkpt><trkpt lat="40.2541002" lon="9.5751188"><ele>527.5</ele><time>2026-04-18T16:04:57.276Z</time></trkpt><trkpt lat="40.2542114" lon="9.5751804"><ele>528.25</ele><time>2026-04-18T16:04:58.276Z</time></trkpt><trkpt lat="40.254305" lon="9.5752811"><ele>529.0</ele><time>2026-04-18T16:04:59.276Z</time></trkpt><trkpt lat="40.2543738" lon="9.5754312"><ele>529.0</ele><time>2026-04-18T16:05:00.276Z</time></trkpt><trkpt lat="40.2544292" lon="9.5756062"><ele>529.0</ele><time>2026-04-18T16:05:01.276Z</time></trkpt><trkpt lat="40.2545173" lon="9.575773"><ele>529.0</ele><time>2026-04-18T16:05:02.276Z</time></trkpt><trkpt lat="40.2545946" lon="9.5759533"><ele>529.0</ele><time>2026-04-18T16:05:03.276Z</time></trkpt><trkpt lat="40.2547313" lon="9.5761502"><ele>529.0</ele><time>2026-04-18T16:05:04.276Z</time></trkpt><trkpt lat="40.2549157" lon="9.5762837"><ele>529.0</ele><time>2026-04-18T16:05:05.276Z</time></trkpt><trkpt lat="40.2550385" lon="9.5764596"><ele>527.0</ele><time>2026-04-18T16:05:06.276Z</time></trkpt><trkpt lat="40.2551553" lon="9.5766222"><ele>525.0</ele><time>2026-04-18T16:05:07.275Z</time></trkpt><trkpt lat="40.2552728" lon="9.5767589"><ele>523.0</ele><time>2026-04-18T16:05:08.276Z</time></trkpt><trkpt lat="40.255412" lon="9.5768695"><ele>523.0</ele><time>2026-04-18T16:05:09.276Z</time></trkpt><trkpt lat="40.2555641" lon="9.576979"><ele>523.0</ele><time>2026-04-18T16:05:10.275Z</time></trkpt><trkpt lat="40.2557207" lon="9.5770597"><ele>523.0</ele><time>2026-04-18T16:05:11.276Z</time></trkpt><trkpt lat="40.255931" lon="9.5770864"><ele>526.6666666666667</ele><time>2026-04-18T16:05:12.276Z</time></trkpt><trkpt lat="40.2560911" lon="9.5771739"><ele>530.3333333333334</ele><time>2026-04-18T16:05:13.275Z</time></trkpt><trkpt lat="40.2562611" lon="9.5772273"><ele>534.0</ele><time>2026-04-18T16:05:14.276Z</time></trkpt><trkpt lat="40.2564249" lon="9.5772884"><ele>527.6666666666666</ele><time>2026-04-18T16:05:15.276Z</time></trkpt><trkpt lat="40.2566201" lon="9.5772501"><ele>521.3333333333333</ele><time>2026-04-18T16:05:16.276Z</time></trkpt><trkpt lat="40.2568002" lon="9.5772512"><ele>515.0</ele><time>2026-04-18T16:05:17.277Z</time></trkpt><trkpt lat="40.2569725" lon="9.5772552"><ele>515.0</ele><time>2026-04-18T16:05:18.276Z</time></trkpt><trkpt lat="40.2571508" lon="9.5772847"><ele>515.0</ele><time>2026-04-18T16:05:19.275Z</time></trkpt><trkpt lat="40.2573287" lon="9.5773565"><ele>515.0</ele><time>2026-04-18T16:05:20.275Z</time></trkpt><trkpt lat="40.2575181" lon="9.5774238"><ele>509.66666666666663</ele><time>2026-04-18T16:05:21.277Z</time></trkpt><trkpt lat="40.2577046" lon="9.577465"><ele>504.33333333333337</ele><time>2026-04-18T16:05:22.276Z</time></trkpt><trkpt lat="40.2578919" lon="9.5774895"><ele>499.0</ele><time>2026-04-18T16:05:23.276Z</time></trkpt><trkpt lat="40.2580734" lon="9.577515"><ele>492.33333333333337</ele><time>2026-04-18T16:05:24.275Z</time></trkpt><trkpt lat="40.2582478" lon="9.5775417"><ele>485.66666666666663</ele><time>2026-04-18T16:05:25.276Z</time></trkpt><trkpt lat="40.2584153" lon="9.577577"><ele>479.0</ele><time>2026-04-18T16:05:26.275Z</time></trkpt><trkpt lat="40.2585785" lon="9.5776312"><ele>479.0</ele><time>2026-04-18T16:05:27.276Z</time></trkpt><trkpt lat="40.2587293" lon="9.5777027"><ele>479.0</ele><time>2026-04-18T16:05:28.276Z</time></trkpt><trkpt lat="40.258876" lon="9.5777409"><ele>479.0</ele><time>2026-04-18T16:05:29.275Z</time></trkpt><trkpt lat="40.2590263" lon="9.5777437"><ele>476.5</ele><time>2026-04-18T16:05:30.276Z</time></trkpt><trkpt lat="40.2591692" lon="9.5777271"><ele>474.0</ele><time>2026-04-18T16:05:31.276Z</time></trkpt><trkpt lat="40.2592999" lon="9.5777308"><ele>471.5</ele><time>2026-04-18T16:05:32.276Z</time></trkpt><trkpt lat="40.2594246" lon="9.5777893"><ele>469.0</ele><time>2026-04-18T16:05:33.276Z</time></trkpt><trkpt lat="40.2595519" lon="9.5778952"><ele>470.0</ele><time>2026-04-18T16:05:34.276Z</time></trkpt><trkpt lat="40.259648" lon="9.5779957"><ele>471.0</ele><time>2026-04-18T16:05:35.276Z</time></trkpt><trkpt lat="40.2597051" lon="9.5781652"><ele>472.0</ele><time>2026-04-18T16:05:36.276Z</time></trkpt><trkpt lat="40.2597618" lon="9.5783245"><ele>473.0</ele><time>2026-04-18T16:05:37.276Z</time></trkpt><trkpt lat="40.2598171" lon="9.5784694"><ele>473.0</ele><time>2026-04-18T16:05:38.277Z</time></trkpt><trkpt lat="40.2599127" lon="9.5785989"><ele>473.0</ele><time>2026-04-18T16:05:39.276Z</time></trkpt><trkpt lat="40.2600425" lon="9.5787038"><ele>473.0</ele><time>2026-04-18T16:05:40.276Z</time></trkpt><trkpt lat="40.260314" lon="9.5787092"><ele>478.0</ele><time>2026-04-18T16:05:41.277Z</time></trkpt><trkpt lat="40.2604745" lon="9.5787873"><ele>483.0</ele><time>2026-04-18T16:05:42.276Z</time></trkpt><trkpt lat="40.2606438" lon="9.578864"><ele>488.0</ele><time>2026-04-18T16:05:43.276Z</time></trkpt><trkpt lat="40.2608186" lon="9.5789747"><ele>488.0</ele><time>2026-04-18T16:05:44.275Z</time></trkpt><trkpt lat="40.2609821" lon="9.579073"><ele>488.0</ele><time>2026-04-18T16:05:45.275Z</time></trkpt><trkpt lat="40.2611441" lon="9.5791606"><ele>488.0</ele><time>2026-04-18T16:05:46.275Z</time></trkpt><trkpt lat="40.2613083" lon="9.5792145"><ele>482.66666666666663</ele><time>2026-04-18T16:05:47.275Z</time></trkpt><trkpt lat="40.2614693" lon="9.5792291"><ele>477.33333333333337</ele><time>2026-04-18T16:05:48.275Z</time></trkpt><trkpt lat="40.2616274" lon="9.5792292"><ele>472.0</ele><time>2026-04-18T16:05:49.276Z</time></trkpt><trkpt lat="40.2617778" lon="9.5792579"><ele>472.0</ele><time>2026-04-18T16:05:50.276Z</time></trkpt><trkpt lat="40.261927" lon="9.5793424"><ele>472.0</ele><time>2026-04-18T16:05:51.275Z</time></trkpt><trkpt lat="40.2620739" lon="9.579449"><ele>472.0</ele><time>2026-04-18T16:05:52.276Z</time></trkpt><trkpt lat="40.2622311" lon="9.5795459"><ele>479.33333333333337</ele><time>2026-04-18T16:05:53.275Z</time></trkpt><trkpt lat="40.2623852" lon="9.5796372"><ele>486.66666666666663</ele><time>2026-04-18T16:05:54.276Z</time></trkpt><trkpt lat="40.262536" lon="9.5797194"><ele>494.0</ele><time>2026-04-18T16:05:55.275Z</time></trkpt><trkpt lat="40.2626936" lon="9.5797678"><ele>494.0</ele><time>2026-04-18T16:05:56.276Z</time></trkpt><trkpt lat="40.2628654" lon="9.5797731"><ele>494.0</ele><time>2026-04-18T16:05:57.276Z</time></trkpt><trkpt lat="40.2630484" lon="9.5797698"><ele>494.0</ele><time>2026-04-18T16:05:58.275Z</time></trkpt><trkpt lat="40.2632142" lon="9.5797977"><ele>492.25</ele><time>2026-04-18T16:05:59.277Z</time></trkpt><trkpt lat="40.2633686" lon="9.5798152"><ele>490.5</ele><time>2026-04-18T16:06:00.276Z</time></trkpt><trkpt lat="40.2635147" lon="9.5797862"><ele>488.75</ele><time>2026-04-18T16:06:01.276Z</time></trkpt><trkpt lat="40.2636509" lon="9.5797403"><ele>487.0</ele><time>2026-04-18T16:06:02.276Z</time></trkpt><trkpt lat="40.263795" lon="9.5797383"><ele>484.33333333333337</ele><time>2026-04-18T16:06:03.276Z</time></trkpt><trkpt lat="40.26396" lon="9.5797712"><ele>481.66666666666663</ele><time>2026-04-18T16:06:04.275Z</time></trkpt><trkpt lat="40.2641239" lon="9.5798215"><ele>479.0</ele><time>2026-04-18T16:06:05.275Z</time></trkpt><trkpt lat="40.2642808" lon="9.5798836"><ele>479.0</ele><time>2026-04-18T16:06:06.276Z</time></trkpt><trkpt lat="40.2644305" lon="9.5799371"><ele>479.0</ele><time>2026-04-18T16:06:07.277Z</time></trkpt><trkpt lat="40.2645758" lon="9.5799818"><ele>479.0</ele><time>2026-04-18T16:06:08.277Z</time></trkpt><trkpt lat="40.2647403" lon="9.5799711"><ele>478.25</ele><time>2026-04-18T16:06:09.275Z</time></trkpt><trkpt lat="40.2648731" lon="9.579832"><ele>477.5</ele><time>2026-04-18T16:06:10.276Z</time></trkpt><trkpt lat="40.2649971" lon="9.579789"><ele>476.75</ele><time>2026-04-18T16:06:11.275Z</time></trkpt><trkpt lat="40.2651166" lon="9.579771"><ele>476.0</ele><time>2026-04-18T16:06:12.277Z</time></trkpt><trkpt lat="40.2652363" lon="9.5798071"><ele>476.0</ele><time>2026-04-18T16:06:13.276Z</time></trkpt><trkpt lat="40.2653567" lon="9.5798988"><ele>476.0</ele><time>2026-04-18T16:06:14.277Z</time></trkpt><trkpt lat="40.2654733" lon="9.5800475"><ele>476.0</ele><time>2026-04-18T16:06:15.277Z</time></trkpt><trkpt lat="40.2655812" lon="9.5802136"><ele>477.0</ele><time>2026-04-18T16:06:16.277Z</time></trkpt><trkpt lat="40.265688" lon="9.5803704"><ele>478.0</ele><time>2026-04-18T16:06:17.276Z</time></trkpt><trkpt lat="40.2657941" lon="9.5805319"><ele>479.0</ele><time>2026-04-18T16:06:18.276Z</time></trkpt><trkpt lat="40.2659009" lon="9.5806712"><ele>479.0</ele><time>2026-04-18T16:06:19.276Z</time></trkpt><trkpt lat="40.2660241" lon="9.5807859"><ele>479.0</ele><time>2026-04-18T16:06:20.276Z</time></trkpt><trkpt lat="40.2661674" lon="9.5808533"><ele>479.0</ele><time>2026-04-18T16:06:21.276Z</time></trkpt><trkpt lat="40.2662994" lon="9.580916"><ele>479.0</ele><time>2026-04-18T16:06:22.275Z</time></trkpt><trkpt lat="40.2664396" lon="9.580986"><ele>481.0</ele><time>2026-04-18T16:06:23.276Z</time></trkpt><trkpt lat="40.2665753" lon="9.5810818"><ele>483.0</ele><time>2026-04-18T16:06:24.276Z</time></trkpt><trkpt lat="40.2667007" lon="9.5812068"><ele>485.0</ele><time>2026-04-18T16:06:25.277Z</time></trkpt><trkpt lat="40.2667995" lon="9.5813761"><ele>485.0</ele><time>2026-04-18T16:06:26.276Z</time></trkpt><trkpt lat="40.2669179" lon="9.5815253"><ele>485.0</ele><time>2026-04-18T16:06:27.276Z</time></trkpt><trkpt lat="40.2670508" lon="9.5816694"><ele>485.0</ele><time>2026-04-18T16:06:28.276Z</time></trkpt><trkpt lat="40.2671988" lon="9.5818143"><ele>484.3333333333333</ele><time>2026-04-18T16:06:29.276Z</time></trkpt><trkpt lat="40.2673546" lon="9.5819553"><ele>483.66666666666663</ele><time>2026-04-18T16:06:30.276Z</time></trkpt><trkpt lat="40.2675088" lon="9.5820889"><ele>483.0</ele><time>2026-04-18T16:06:31.276Z</time></trkpt><trkpt lat="40.2676596" lon="9.5822222"><ele>483.0</ele><time>2026-04-18T16:06:32.276Z</time></trkpt><trkpt lat="40.2678088" lon="9.5823559"><ele>483.0</ele><time>2026-04-18T16:06:33.276Z</time></trkpt><trkpt lat="40.2679588" lon="9.5824831"><ele>483.0</ele><time>2026-04-18T16:06:34.276Z</time></trkpt><trkpt lat="40.2681006" lon="9.5826168"><ele>483.75</ele><time>2026-04-18T16:06:35.277Z</time></trkpt><trkpt lat="40.26823" lon="9.5827511"><ele>484.5</ele><time>2026-04-18T16:06:36.276Z</time></trkpt><trkpt lat="40.2683385" lon="9.5828824"><ele>485.25</ele><time>2026-04-18T16:06:37.276Z</time></trkpt><trkpt lat="40.2684372" lon="9.582978"><ele>486.0</ele><time>2026-04-18T16:06:38.276Z</time></trkpt><trkpt lat="40.2685337" lon="9.5830717"><ele>486.0</ele><time>2026-04-18T16:06:39.276Z</time></trkpt><trkpt lat="40.2686405" lon="9.5831366"><ele>486.0</ele><time>2026-04-18T16:06:40.275Z</time></trkpt><trkpt lat="40.2688163" lon="9.5830622"><ele>486.0</ele><time>2026-04-18T16:06:41.276Z</time></trkpt><trkpt lat="40.2689298" lon="9.5831396"><ele>486.0</ele><time>2026-04-18T16:06:42.276Z</time></trkpt><trkpt lat="40.2690427" lon="9.5832626"><ele>480.5</ele><time>2026-04-18T16:06:43.276Z</time></trkpt><trkpt lat="40.2691263" lon="9.5833927"><ele>475.0</ele><time>2026-04-18T16:06:44.275Z</time></trkpt><trkpt lat="40.2692288" lon="9.5835178"><ele>469.5</ele><time>2026-04-18T16:06:45.277Z</time></trkpt><trkpt lat="40.26937" lon="9.5835675"><ele>464.0</ele><time>2026-04-18T16:06:46.277Z</time></trkpt><trkpt lat="40.2694999" lon="9.5836216"><ele>464.3333333333333</ele><time>2026-04-18T16:06:47.276Z</time></trkpt><trkpt lat="40.2696236" lon="9.5837237"><ele>464.66666666666663</ele><time>2026-04-18T16:06:48.276Z</time></trkpt><trkpt lat="40.2697473" lon="9.5838911"><ele>465.0</ele><time>2026-04-18T16:06:49.275Z</time></trkpt><trkpt lat="40.2698559" lon="9.5840714"><ele>465.0</ele><time>2026-04-18T16:06:50.276Z</time></trkpt><trkpt lat="40.269974" lon="9.5842407"><ele>465.0</ele><time>2026-04-18T16:06:51.276Z</time></trkpt><trkpt lat="40.2700998" lon="9.584395"><ele>465.0</ele><time>2026-04-18T16:06:52.276Z</time></trkpt><trkpt lat="40.270217" lon="9.5845368"><ele>461.75</ele><time>2026-04-18T16:06:53.276Z</time></trkpt><trkpt lat="40.2703377" lon="9.5846513"><ele>458.5</ele><time>2026-04-18T16:06:54.275Z</time></trkpt><trkpt lat="40.2704621" lon="9.5847371"><ele>455.25</ele><time>2026-04-18T16:06:55.276Z</time></trkpt><trkpt lat="40.2705742" lon="9.5848301"><ele>452.0</ele><time>2026-04-18T16:06:56.276Z</time></trkpt><trkpt lat="40.2706645" lon="9.5849679"><ele>452.0</ele><time>2026-04-18T16:06:57.276Z</time></trkpt><trkpt lat="40.2707339" lon="9.5851334"><ele>452.0</ele><time>2026-04-18T16:06:58.276Z</time></trkpt><trkpt lat="40.2707909" lon="9.5852923"><ele>452.0</ele><time>2026-04-18T16:06:59.276Z</time></trkpt><trkpt lat="40.2708685" lon="9.5854527"><ele>452.0</ele><time>2026-04-18T16:07:00.275Z</time></trkpt><trkpt lat="40.2709663" lon="9.5856048"><ele>459.3333333333333</ele><time>2026-04-18T16:07:01.276Z</time></trkpt><trkpt lat="40.2710601" lon="9.5857761"><ele>466.66666666666663</ele><time>2026-04-18T16:07:02.276Z</time></trkpt><trkpt lat="40.271122" lon="9.5859778"><ele>474.0</ele><time>2026-04-18T16:07:03.276Z</time></trkpt><trkpt lat="40.2711657" lon="9.5861872"><ele>478.33333333333337</ele><time>2026-04-18T16:07:04.275Z</time></trkpt><trkpt lat="40.271214" lon="9.5864049"><ele>482.6666666666667</ele><time>2026-04-18T16:07:05.277Z</time></trkpt><trkpt lat="40.2712793" lon="9.5866196"><ele>487.0</ele><time>2026-04-18T16:07:06.276Z</time></trkpt><trkpt lat="40.2713519" lon="9.5868226"><ele>487.0</ele><time>2026-04-18T16:07:07.276Z</time></trkpt><trkpt lat="40.2714325" lon="9.5870004"><ele>487.0</ele><time>2026-04-18T16:07:08.276Z</time></trkpt><trkpt lat="40.2715174" lon="9.58716"><ele>487.0</ele><time>2026-04-18T16:07:09.276Z</time></trkpt><trkpt lat="40.2716193" lon="9.5872874"><ele>487.0</ele><time>2026-04-18T16:07:10.275Z</time></trkpt><trkpt lat="40.2717179" lon="9.5874148"><ele>481.33333333333337</ele><time>2026-04-18T16:07:11.276Z</time></trkpt><trkpt lat="40.2719103" lon="9.5874496"><ele>475.66666666666663</ele><time>2026-04-18T16:07:12.277Z</time></trkpt><trkpt lat="40.2720557" lon="9.5875483"><ele>470.0</ele><time>2026-04-18T16:07:13.276Z</time></trkpt><trkpt lat="40.2721867" lon="9.5876676"><ele>468.0</ele><time>2026-04-18T16:07:14.277Z</time></trkpt><trkpt lat="40.2722916" lon="9.5877845"><ele>466.0</ele><time>2026-04-18T16:07:15.276Z</time></trkpt><trkpt lat="40.2723722" lon="9.5879231"><ele>464.0</ele><time>2026-04-18T16:07:16.275Z</time></trkpt><trkpt lat="40.272416" lon="9.588096"><ele>462.0</ele><time>2026-04-18T16:07:17.276Z</time></trkpt><trkpt lat="40.2724321" lon="9.5882629"><ele>462.0</ele><time>2026-04-18T16:07:18.276Z</time></trkpt><trkpt lat="40.2724693" lon="9.5884285"><ele>462.0</ele><time>2026-04-18T16:07:19.276Z</time></trkpt><trkpt lat="40.2725169" lon="9.5885658"><ele>462.0</ele><time>2026-04-18T16:07:20.277Z</time></trkpt><trkpt lat="40.2726138" lon="9.5887038"><ele>462.0</ele><time>2026-04-18T16:07:21.277Z</time></trkpt><trkpt lat="40.272812" lon="9.588775"><ele>469.0</ele><time>2026-04-18T16:07:22.276Z</time></trkpt><trkpt lat="40.2729209" lon="9.5889238"><ele>476.0</ele><time>2026-04-18T16:07:23.276Z</time></trkpt><trkpt lat="40.2730015" lon="9.5891239"><ele>483.0</ele><time>2026-04-18T16:07:24.276Z</time></trkpt><trkpt lat="40.273063" lon="9.5893598"><ele>474.33333333333337</ele><time>2026-04-18T16:07:25.277Z</time></trkpt><trkpt lat="40.2731089" lon="9.5896013"><ele>465.6666666666667</ele><time>2026-04-18T16:07:26.276Z</time></trkpt><trkpt lat="40.2731478" lon="9.5898292"><ele>457.0</ele><time>2026-04-18T16:07:27.276Z</time></trkpt><trkpt lat="40.2731969" lon="9.5900458"><ele>457.0</ele><time>2026-04-18T16:07:28.275Z</time></trkpt><trkpt lat="40.2732642" lon="9.5902532"><ele>457.0</ele><time>2026-04-18T16:07:29.274Z</time></trkpt><trkpt lat="40.2733554" lon="9.5904482"><ele>457.0</ele><time>2026-04-18T16:07:30.274Z</time></trkpt><trkpt lat="40.2734895" lon="9.5906234"><ele>462.33333333333337</ele><time>2026-04-18T16:07:31.275Z</time></trkpt><trkpt lat="40.2736105" lon="9.5908044"><ele>467.66666666666663</ele><time>2026-04-18T16:07:32.275Z</time></trkpt><trkpt lat="40.2737345" lon="9.5909884"><ele>473.0</ele><time>2026-04-18T16:07:33.275Z</time></trkpt><trkpt lat="40.2738608" lon="9.5911752"><ele>471.3333333333333</ele><time>2026-04-18T16:07:34.275Z</time></trkpt><trkpt lat="40.273999" lon="9.591348"><ele>469.66666666666663</ele><time>2026-04-18T16:07:35.275Z</time></trkpt><trkpt lat="40.2741499" lon="9.5915134"><ele>468.0</ele><time>2026-04-18T16:07:36.274Z</time></trkpt><trkpt lat="40.2743032" lon="9.5916731"><ele>468.0</ele><time>2026-04-18T16:07:37.274Z</time></trkpt><trkpt lat="40.2744557" lon="9.5918298"><ele>468.0</ele><time>2026-04-18T16:07:38.275Z</time></trkpt><trkpt lat="40.2746078" lon="9.5919457"><ele>468.0</ele><time>2026-04-18T16:07:39.276Z</time></trkpt><trkpt lat="40.2747588" lon="9.5920809"><ele>470.0</ele><time>2026-04-18T16:07:40.274Z</time></trkpt><trkpt lat="40.2748992" lon="9.5921828"><ele>472.0</ele><time>2026-04-18T16:07:41.275Z</time></trkpt><trkpt lat="40.2750351" lon="9.5922426"><ele>474.0</ele><time>2026-04-18T16:07:42.275Z</time></trkpt><trkpt lat="40.2751536" lon="9.5922752"><ele>476.0</ele><time>2026-04-18T16:07:43.275Z</time></trkpt><trkpt lat="40.2752411" lon="9.5922974"><ele>475.99999999999994</ele><time>2026-04-18T16:07:44.274Z</time></trkpt><trkpt lat="40.2753358" lon="9.5923291"><ele>476.0</ele><time>2026-04-18T16:07:46.276Z</time></trkpt><trkpt lat="40.2754102" lon="9.5923458"><ele>476.0</ele><time>2026-04-18T16:07:49.275Z</time></trkpt><trkpt lat="40.2754747" lon="9.592328"><ele>476.0</ele><time>2026-04-18T16:09:02.275Z</time></trkpt><trkpt lat="40.2755878" lon="9.5923077"><ele>475.99999999999994</ele><time>2026-04-18T16:09:04.275Z</time></trkpt><trkpt lat="40.2756716" lon="9.5922972"><ele>476.0</ele><time>2026-04-18T16:09:05.275Z</time></trkpt><trkpt lat="40.2757786" lon="9.5922908"><ele>475.0</ele><time>2026-04-18T16:09:06.276Z</time></trkpt><trkpt lat="40.2759061" lon="9.5922844"><ele>474.0</ele><time>2026-04-18T16:09:07.275Z</time></trkpt><trkpt lat="40.2760562" lon="9.5922715"><ele>473.0</ele><time>2026-04-18T16:09:08.275Z</time></trkpt><trkpt lat="40.2762173" lon="9.5922438"><ele>472.0</ele><time>2026-04-18T16:09:09.275Z</time></trkpt><trkpt lat="40.2763891" lon="9.5922041"><ele>472.0</ele><time>2026-04-18T16:09:10.275Z</time></trkpt><trkpt lat="40.2765937" lon="9.5921509"><ele>472.0</ele><time>2026-04-18T16:09:11.275Z</time></trkpt><trkpt lat="40.2767996" lon="9.5920965"><ele>472.0</ele><time>2026-04-18T16:09:12.275Z</time></trkpt><trkpt lat="40.2770131" lon="9.5920423"><ele>461.6666666666667</ele><time>2026-04-18T16:09:13.275Z</time></trkpt><trkpt lat="40.2772323" lon="9.5919907"><ele>451.33333333333337</ele><time>2026-04-18T16:09:14.275Z</time></trkpt><trkpt lat="40.2774516" lon="9.5919364"><ele>441.0</ele><time>2026-04-18T16:09:15.276Z</time></trkpt><trkpt lat="40.2776701" lon="9.591882"><ele>441.0</ele><time>2026-04-18T16:09:16.276Z</time></trkpt><trkpt lat="40.2778859" lon="9.5918263"><ele>441.0</ele><time>2026-04-18T16:09:17.275Z</time></trkpt><trkpt lat="40.278101" lon="9.5917668"><ele>441.0</ele><time>2026-04-18T16:09:18.275Z</time></trkpt><trkpt lat="40.2783124" lon="9.5917115"><ele>442.66666666666663</ele><time>2026-04-18T16:09:19.276Z</time></trkpt><trkpt lat="40.2785202" lon="9.5916604"><ele>444.3333333333333</ele><time>2026-04-18T16:09:20.274Z</time></trkpt><trkpt lat="40.2787229" lon="9.5916132"><ele>446.0</ele><time>2026-04-18T16:09:21.276Z</time></trkpt><trkpt lat="40.2789232" lon="9.5915618"><ele>451.0</ele><time>2026-04-18T16:09:22.275Z</time></trkpt><trkpt lat="40.2791285" lon="9.5915188"><ele>456.0</ele><time>2026-04-18T16:09:23.275Z</time></trkpt><trkpt lat="40.2793326" lon="9.5914852"><ele>461.0</ele><time>2026-04-18T16:09:24.275Z</time></trkpt><trkpt lat="40.27954" lon="9.5914593"><ele>461.0</ele><time>2026-04-18T16:09:25.274Z</time></trkpt><trkpt lat="40.2797401" lon="9.5914336"><ele>461.0</ele><time>2026-04-18T16:09:26.275Z</time></trkpt><trkpt lat="40.2799431" lon="9.5914097"><ele>461.0</ele><time>2026-04-18T16:09:27.274Z</time></trkpt><trkpt lat="40.280148" lon="9.5913891"><ele>461.3333333333333</ele><time>2026-04-18T16:09:28.274Z</time></trkpt><trkpt lat="40.2803425" lon="9.5913636"><ele>461.66666666666663</ele><time>2026-04-18T16:09:29.274Z</time></trkpt><trkpt lat="40.2805293" lon="9.591331"><ele>462.0</ele><time>2026-04-18T16:09:30.274Z</time></trkpt><trkpt lat="40.2807066" lon="9.5912652"><ele>463.66666666666663</ele><time>2026-04-18T16:09:31.275Z</time></trkpt><trkpt lat="40.2808809" lon="9.5911957"><ele>465.3333333333333</ele><time>2026-04-18T16:09:32.276Z</time></trkpt><trkpt lat="40.2810636" lon="9.5911407"><ele>467.0</ele><time>2026-04-18T16:09:33.275Z</time></trkpt><trkpt lat="40.281257" lon="9.5911103"><ele>456.3333333333333</ele><time>2026-04-18T16:09:34.275Z</time></trkpt><trkpt lat="40.2814563" lon="9.5910927"><ele>445.66666666666663</ele><time>2026-04-18T16:09:35.275Z</time></trkpt><trkpt lat="40.2816486" lon="9.5910805"><ele>435.0</ele><time>2026-04-18T16:09:36.275Z</time></trkpt><trkpt lat="40.2818197" lon="9.5910731"><ele>435.0</ele><time>2026-04-18T16:09:37.275Z</time></trkpt><trkpt lat="40.2819809" lon="9.5910683"><ele>435.0</ele><time>2026-04-18T16:09:38.275Z</time></trkpt><trkpt lat="40.2821366" lon="9.5910709"><ele>435.0</ele><time>2026-04-18T16:09:39.275Z</time></trkpt><trkpt lat="40.2822919" lon="9.5910981"><ele>435.5</ele><time>2026-04-18T16:09:40.275Z</time></trkpt><trkpt lat="40.2824405" lon="9.5911553"><ele>436.0</ele><time>2026-04-18T16:09:41.276Z</time></trkpt><trkpt lat="40.2825763" lon="9.591225"><ele>436.5</ele><time>2026-04-18T16:09:42.275Z</time></trkpt><trkpt lat="40.2827194" lon="9.5912545"><ele>437.0</ele><time>2026-04-18T16:09:43.275Z</time></trkpt><trkpt lat="40.2828525" lon="9.5912835"><ele>437.0</ele><time>2026-04-18T16:09:44.275Z</time></trkpt><trkpt lat="40.2829947" lon="9.5912638"><ele>437.0</ele><time>2026-04-18T16:09:45.275Z</time></trkpt><trkpt lat="40.2831711" lon="9.5911731"><ele>437.0</ele><time>2026-04-18T16:09:46.275Z</time></trkpt><trkpt lat="40.2833437" lon="9.5911773"><ele>446.0</ele><time>2026-04-18T16:09:47.275Z</time></trkpt><trkpt lat="40.2835189" lon="9.5912063"><ele>455.0</ele><time>2026-04-18T16:09:48.275Z</time></trkpt><trkpt lat="40.2836923" lon="9.5912242"><ele>464.0</ele><time>2026-04-18T16:09:49.275Z</time></trkpt><trkpt lat="40.2838519" lon="9.591289"><ele>459.66666666666663</ele><time>2026-04-18T16:09:50.274Z</time></trkpt><trkpt lat="40.284011" lon="9.5913406"><ele>455.33333333333337</ele><time>2026-04-18T16:09:51.275Z</time></trkpt><trkpt lat="40.2841592" lon="9.5913729"><ele>451.0</ele><time>2026-04-18T16:09:52.276Z</time></trkpt><trkpt lat="40.284302" lon="9.5914094"><ele>451.0</ele><time>2026-04-18T16:09:53.275Z</time></trkpt><trkpt lat="40.2844391" lon="9.5914313"><ele>451.0</ele><time>2026-04-18T16:09:54.275Z</time></trkpt><trkpt lat="40.2845667" lon="9.5914225"><ele>451.0</ele><time>2026-04-18T16:09:55.275Z</time></trkpt><trkpt lat="40.2846998" lon="9.5913676"><ele>451.0</ele><time>2026-04-18T16:09:56.275Z</time></trkpt><trkpt lat="40.2848249" lon="9.5912526"><ele>445.33333333333337</ele><time>2026-04-18T16:09:57.276Z</time></trkpt><trkpt lat="40.2849351" lon="9.5910915"><ele>439.66666666666663</ele><time>2026-04-18T16:09:58.275Z</time></trkpt><trkpt lat="40.2850439" lon="9.5909221"><ele>434.0</ele><time>2026-04-18T16:09:59.275Z</time></trkpt><trkpt lat="40.2851487" lon="9.5907594"><ele>434.0</ele><time>2026-04-18T16:10:00.276Z</time></trkpt><trkpt lat="40.2852523" lon="9.5905994"><ele>434.0</ele><time>2026-04-18T16:10:01.275Z</time></trkpt><trkpt lat="40.2853504" lon="9.5904504"><ele>434.0</ele><time>2026-04-18T16:10:02.274Z</time></trkpt><trkpt lat="40.2854401" lon="9.5902933"><ele>428.0</ele><time>2026-04-18T16:10:03.276Z</time></trkpt><trkpt lat="40.2855093" lon="9.5901185"><ele>422.0</ele><time>2026-04-18T16:10:04.275Z</time></trkpt><trkpt lat="40.2855689" lon="9.5899232"><ele>416.0</ele><time>2026-04-18T16:10:05.276Z</time></trkpt><trkpt lat="40.2855876" lon="9.5897343"><ele>416.0</ele><time>2026-04-18T16:10:06.274Z</time></trkpt><trkpt lat="40.2855916" lon="9.589539"><ele>416.0</ele><time>2026-04-18T16:10:07.274Z</time></trkpt><trkpt lat="40.2855793" lon="9.5893369"><ele>416.0</ele><time>2026-04-18T16:10:08.276Z</time></trkpt><trkpt lat="40.2855539" lon="9.5891189"><ele>414.3333333333333</ele><time>2026-04-18T16:10:09.275Z</time></trkpt><trkpt lat="40.2855232" lon="9.5889016"><ele>412.66666666666663</ele><time>2026-04-18T16:10:10.275Z</time></trkpt><trkpt lat="40.2854956" lon="9.5886937"><ele>411.0</ele><time>2026-04-18T16:10:11.275Z</time></trkpt><trkpt lat="40.2854732" lon="9.5884879"><ele>410.75</ele><time>2026-04-18T16:10:12.275Z</time></trkpt><trkpt lat="40.2854592" lon="9.5882944"><ele>410.5</ele><time>2026-04-18T16:10:13.275Z</time></trkpt><trkpt lat="40.2854468" lon="9.5881083"><ele>410.25</ele><time>2026-04-18T16:10:14.276Z</time></trkpt><trkpt lat="40.2854311" lon="9.5879276"><ele>410.0</ele><time>2026-04-18T16:10:15.276Z</time></trkpt><trkpt lat="40.2854204" lon="9.5877621"><ele>409.75</ele><time>2026-04-18T16:10:16.276Z</time></trkpt><trkpt lat="40.2854151" lon="9.5876037"><ele>409.5</ele><time>2026-04-18T16:10:17.275Z</time></trkpt><trkpt lat="40.28542" lon="9.5874475"><ele>409.25</ele><time>2026-04-18T16:10:18.276Z</time></trkpt><trkpt lat="40.285437" lon="9.5873027"><ele>409.0</ele><time>2026-04-18T16:10:19.275Z</time></trkpt><trkpt lat="40.2854825" lon="9.5871714"><ele>409.0</ele><time>2026-04-18T16:10:20.275Z</time></trkpt><trkpt lat="40.2855534" lon="9.5870559"><ele>409.0</ele><time>2026-04-18T16:10:21.274Z</time></trkpt><trkpt lat="40.2856433" lon="9.5869715"><ele>409.0</ele><time>2026-04-18T16:10:22.275Z</time></trkpt><trkpt lat="40.2857488" lon="9.5869208"><ele>409.0</ele><time>2026-04-18T16:10:23.275Z</time></trkpt><trkpt lat="40.2858719" lon="9.5869001"><ele>411.0</ele><time>2026-04-18T16:10:24.274Z</time></trkpt><trkpt lat="40.2859847" lon="9.5868908"><ele>413.0</ele><time>2026-04-18T16:10:25.274Z</time></trkpt><trkpt lat="40.2861007" lon="9.5869019"><ele>415.0</ele><time>2026-04-18T16:10:26.275Z</time></trkpt><trkpt lat="40.2862273" lon="9.5869185"><ele>417.0</ele><time>2026-04-18T16:10:27.275Z</time></trkpt><trkpt lat="40.2863485" lon="9.5869259"><ele>416.20000000000005</ele><time>2026-04-18T16:10:28.275Z</time></trkpt><trkpt lat="40.2864656" lon="9.5869439"><ele>415.4</ele><time>2026-04-18T16:10:29.275Z</time></trkpt><trkpt lat="40.2865771" lon="9.5869525"><ele>414.6</ele><time>2026-04-18T16:10:30.275Z</time></trkpt><trkpt lat="40.2866844" lon="9.5869608"><ele>413.79999999999995</ele><time>2026-04-18T16:10:31.275Z</time></trkpt><trkpt lat="40.2867912" lon="9.5869727"><ele>413.0</ele><time>2026-04-18T16:10:32.274Z</time></trkpt><trkpt lat="40.2868931" lon="9.586985"><ele>412.99999999999994</ele><time>2026-04-18T16:10:33.274Z</time></trkpt><trkpt lat="40.2869949" lon="9.5869942"><ele>413.0</ele><time>2026-04-18T16:10:34.274Z</time></trkpt><trkpt lat="40.2870858" lon="9.5870134"><ele>413.0</ele><time>2026-04-18T16:10:35.275Z</time></trkpt><trkpt lat="40.2871697" lon="9.5870324"><ele>413.0</ele><time>2026-04-18T16:10:36.274Z</time></trkpt><trkpt lat="40.2872472" lon="9.5870872"><ele>412.99999999999994</ele><time>2026-04-18T16:10:37.275Z</time></trkpt><trkpt lat="40.2873065" lon="9.5871297"><ele>413.0</ele><time>2026-04-18T16:10:38.275Z</time></trkpt><trkpt lat="40.2873595" lon="9.5871795"><ele>414.14285714285717</ele><time>2026-04-18T16:10:39.275Z</time></trkpt><trkpt lat="40.2874111" lon="9.5872311"><ele>415.2857142857143</ele><time>2026-04-18T16:10:40.275Z</time></trkpt><trkpt lat="40.2874707" lon="9.5872975"><ele>416.42857142857144</ele><time>2026-04-18T16:10:41.274Z</time></trkpt><trkpt lat="40.2875291" lon="9.5873638"><ele>417.57142857142856</ele><time>2026-04-18T16:10:42.274Z</time></trkpt><trkpt lat="40.2875849" lon="9.5874263"><ele>418.7142857142857</ele><time>2026-04-18T16:10:43.274Z</time></trkpt><trkpt lat="40.2876351" lon="9.5874941"><ele>419.8571428571429</ele><time>2026-04-18T16:10:44.276Z</time></trkpt><trkpt lat="40.2876764" lon="9.5875646"><ele>421.0</ele><time>2026-04-18T16:10:45.275Z</time></trkpt><trkpt lat="40.2877113" lon="9.5876429"><ele>421.0</ele><time>2026-04-18T16:10:46.276Z</time></trkpt><trkpt lat="40.2877705" lon="9.587794"><ele>421.0</ele><time>2026-04-18T16:10:48.275Z</time></trkpt><trkpt lat="40.2877999" lon="9.5878671"><ele>421.0</ele><time>2026-04-18T16:10:49.276Z</time></trkpt><trkpt lat="40.2878623" lon="9.5880147"><ele>421.0</ele><time>2026-04-18T16:10:51.274Z</time></trkpt><trkpt lat="40.2878892" lon="9.5880914"><ele>421.0</ele><time>2026-04-18T16:10:52.275Z</time></trkpt><trkpt lat="40.2879222" lon="9.5881708"><ele>422.00000000000006</ele><time>2026-04-18T16:10:53.275Z</time></trkpt><trkpt lat="40.2879491" lon="9.5882471"><ele>423.0</ele><time>2026-04-18T16:10:54.274Z</time></trkpt><trkpt lat="40.2879771" lon="9.5883231"><ele>424.0</ele><time>2026-04-18T16:10:55.275Z</time></trkpt><trkpt lat="40.2880107" lon="9.5884087"><ele>425.0</ele><time>2026-04-18T16:10:56.275Z</time></trkpt><trkpt lat="40.2880399" lon="9.5884959"><ele>426.0</ele><time>2026-04-18T16:10:57.275Z</time></trkpt><trkpt lat="40.2880667" lon="9.5885728"><ele>427.00000000000006</ele><time>2026-04-18T16:10:58.275Z</time></trkpt><trkpt lat="40.2880961" lon="9.5886505"><ele>428.0</ele><time>2026-04-18T16:10:59.275Z</time></trkpt><trkpt lat="40.2881115" lon="9.5887308"><ele>424.3333333333333</ele><time>2026-04-18T16:11:00.275Z</time></trkpt><trkpt lat="40.2881374" lon="9.5888206"><ele>420.66666666666663</ele><time>2026-04-18T16:11:01.274Z</time></trkpt><trkpt lat="40.288155" lon="9.5889183"><ele>417.0</ele><time>2026-04-18T16:11:02.275Z</time></trkpt><trkpt lat="40.2881707" lon="9.5890091"><ele>413.33333333333337</ele><time>2026-04-18T16:11:03.275Z</time></trkpt><trkpt lat="40.2881708" lon="9.5891038"><ele>409.6666666666667</ele><time>2026-04-18T16:11:04.275Z</time></trkpt><trkpt lat="40.2881789" lon="9.5891883"><ele>406.0</ele><time>2026-04-18T16:11:05.275Z</time></trkpt><trkpt lat="40.2881893" lon="9.5893577"><ele>406.0</ele><time>2026-04-18T16:11:07.275Z</time></trkpt><trkpt lat="40.2881964" lon="9.5894493"><ele>406.0</ele><time>2026-04-18T16:11:08.276Z</time></trkpt><trkpt lat="40.2881945" lon="9.5895394"><ele>406.0</ele><time>2026-04-18T16:11:09.274Z</time></trkpt><trkpt lat="40.2881881" lon="9.5896321"><ele>406.0</ele><time>2026-04-18T16:11:10.275Z</time></trkpt><trkpt lat="40.2881711" lon="9.589723"><ele>406.0</ele><time>2026-04-18T16:11:11.275Z</time></trkpt><trkpt lat="40.2881514" lon="9.5898089"><ele>406.0</ele><time>2026-04-18T16:11:12.275Z</time></trkpt><trkpt lat="40.2881333" lon="9.589895"><ele>406.0</ele><time>2026-04-18T16:11:13.276Z</time></trkpt><trkpt lat="40.2880829" lon="9.5900298"><ele>407.0</ele><time>2026-04-18T16:11:15.276Z</time></trkpt><trkpt lat="40.2880607" lon="9.5901072"><ele>408.0</ele><time>2026-04-18T16:11:16.275Z</time></trkpt><trkpt lat="40.2880196" lon="9.5901932"><ele>409.0</ele><time>2026-04-18T16:11:17.275Z</time></trkpt><trkpt lat="40.287988" lon="9.5902825"><ele>410.0</ele><time>2026-04-18T16:11:18.275Z</time></trkpt><trkpt lat="40.2879565" lon="9.5903664"><ele>411.0</ele><time>2026-04-18T16:11:19.275Z</time></trkpt><trkpt lat="40.2879259" lon="9.5904589"><ele>412.0</ele><time>2026-04-18T16:11:20.274Z</time></trkpt><trkpt lat="40.2878968" lon="9.5905375"><ele>413.0</ele><time>2026-04-18T16:11:21.275Z</time></trkpt><trkpt lat="40.2878716" lon="9.590624"><ele>413.0</ele><time>2026-04-18T16:11:22.276Z</time></trkpt><trkpt lat="40.2878604" lon="9.5907096"><ele>413.0</ele><time>2026-04-18T16:11:23.275Z</time></trkpt><trkpt lat="40.2878586" lon="9.5907976"><ele>413.0</ele><time>2026-04-18T16:11:24.275Z</time></trkpt><trkpt lat="40.2878516" lon="9.590912"><ele>413.0</ele><time>2026-04-18T16:11:25.275Z</time></trkpt><trkpt lat="40.2878686" lon="9.5910078"><ele>413.0</ele><time>2026-04-18T16:11:26.274Z</time></trkpt><trkpt lat="40.2879047" lon="9.5910953"><ele>413.0</ele><time>2026-04-18T16:11:27.275Z</time></trkpt><trkpt lat="40.2879504" lon="9.5911672"><ele>413.0</ele><time>2026-04-18T16:11:28.274Z</time></trkpt><trkpt lat="40.2880004" lon="9.5912223"><ele>415.0</ele><time>2026-04-18T16:11:29.275Z</time></trkpt><trkpt lat="40.2880531" lon="9.5912675"><ele>415.0</ele><time>2026-04-18T16:11:30.276Z</time></trkpt><trkpt lat="40.2881132" lon="9.5913064"><ele>408.0</ele><time>2026-04-18T16:11:31.275Z</time></trkpt><trkpt lat="40.2881779" lon="9.5913422"><ele>408.0</ele><time>2026-04-18T16:11:32.274Z</time></trkpt><trkpt lat="40.2882706" lon="9.5913724"><ele>408.0</ele><time>2026-04-18T16:11:34.275Z</time></trkpt><trkpt lat="40.2883494" lon="9.5913921"><ele>408.0</ele><time>2026-04-18T16:11:36.274Z</time></trkpt><trkpt lat="40.2884188" lon="9.5914139"><ele>408.0</ele><time>2026-04-18T16:11:39.275Z</time></trkpt></trkseg></trk></gpx>